<?xml version='1.0' encoding='UTF-8'?><gpx version="1.1" creator="JPX - https://github.com/jenetics/jpx" xmlns="http://www.topografix.com/GPX/1/1"><trk><trkseg><trkpt lat="25.765069855730253" lon="-80.48590744006307"><ele>8.0</ele><time>2026-04-19T10:45:40.999Z</time></trkpt><trkpt lat="25.76515483846514" lon="-80.4859068855704"><ele>7.999999999999999</ele><time>2026-04-19T10:56:48Z</time></trkpt><trkpt lat="25.7652189636866" lon="-80.48590860588884"><ele>8.0</ele><time>2026-04-19T11:00:12Z</time></trkpt><trkpt lat="25.765281562383123" lon="-80.48591610523582"><ele>8.0</ele><time>2026-04-19T11:00:16Z</time></trkpt><trkpt lat="25.76535118709533" lon="-80.48592180978402"><ele>7.999999999999999</ele><time>2026-04-19T11:00:19Z</time></trkpt><trkpt lat="25.765419712280234" lon="-80.48589008753446"><ele>8.0</ele><time>2026-04-19T11:00:23Z</time></trkpt><trkpt lat="25.76544428214719" lon="-80.48582278176228"><ele>8.0</ele><time>2026-04-19T11:00:25Z</time></trkpt><trkpt lat="25.76545128430158" lon="-80.48574549151388"><ele>8.600000000000001</ele><time>2026-04-19T11:00:27Z</time></trkpt><trkpt lat="25.765458158413633" lon="-80.48564401928142"><ele>9.200000000000001</ele><time>2026-04-19T11:00:29Z</time></trkpt><trkpt lat="25.76546403398984" lon="-80.48553009615586"><ele>9.8</ele><time>2026-04-19T11:00:31Z</time></trkpt><trkpt lat="25.765467498621064" lon="-80.48540064576511"><ele>10.4</ele><time>2026-04-19T11:00:33Z</time></trkpt><trkpt lat="25.76547087699916" lon="-80.48526048698164"><ele>11.0</ele><time>2026-04-19T11:00:35Z</time></trkpt><trkpt lat="25.76547782840784" lon="-80.48518619145962"><ele>11.0</ele><time>2026-04-19T11:00:36Z</time></trkpt><trkpt lat="25.765482612152415" lon="-80.48511031495892"><ele>11.0</ele><time>2026-04-19T11:00:37Z</time></trkpt><trkpt lat="25.765491432976813" lon="-80.48503312383492"><ele>11.0</ele><time>2026-04-19T11:00:38Z</time></trkpt><trkpt lat="25.76549727182764" lon="-80.48495659503618"><ele>11.0</ele><time>2026-04-19T11:00:39Z</time></trkpt><trkpt lat="25.76550629681529" lon="-80.48488212105514"><ele>11.0</ele><time>2026-04-19T11:00:40Z</time></trkpt><trkpt lat="25.7655078586066" lon="-80.48480806624559"><ele>11.0</ele><time>2026-04-19T11:00:41Z</time></trkpt><trkpt lat="25.76549808845363" lon="-80.48473519267922"><ele>11.0</ele><time>2026-04-19T11:00:42Z</time></trkpt><trkpt lat="25.76547510082772" lon="-80.48466621617017"><ele>11.0</ele><time>2026-04-19T11:00:43Z</time></trkpt><trkpt lat="25.765432835625244" lon="-80.48459639694573"><ele>11.0</ele><time>2026-04-19T11:00:44Z</time></trkpt><trkpt lat="25.765384193070954" lon="-80.4845365721038"><ele>11.0</ele><time>2026-04-19T11:00:45Z</time></trkpt><trkpt lat="25.765332762370345" lon="-80.48447625644988"><ele>11.0</ele><time>2026-04-19T11:00:46Z</time></trkpt><trkpt lat="25.765286480978354" lon="-80.48441726866972"><ele>11.0</ele><time>2026-04-19T11:00:47Z</time></trkpt><trkpt lat="25.76524165463832" lon="-80.48436176669902"><ele>11.0</ele><time>2026-04-19T11:00:48Z</time></trkpt><trkpt lat="25.76520021150133" lon="-80.4843061693404"><ele>11.0</ele><time>2026-04-19T11:00:49Z</time></trkpt><trkpt lat="25.765163790620427" lon="-80.48424543961066"><ele>10.857142857142858</ele><time>2026-04-19T11:00:50Z</time></trkpt><trkpt lat="25.765141955463733" lon="-80.48417356792898"><ele>10.714285714285714</ele><time>2026-04-19T11:00:51Z</time></trkpt><trkpt lat="25.765139292388934" lon="-80.48409379336583"><ele>10.571428571428571</ele><time>2026-04-19T11:00:52Z</time></trkpt><trkpt lat="25.765145298608783" lon="-80.48401265960898"><ele>10.428571428571429</ele><time>2026-04-19T11:00:53Z</time></trkpt><trkpt lat="25.76515488755778" lon="-80.48393445303307"><ele>10.285714285714286</ele><time>2026-04-19T11:00:54Z</time></trkpt><trkpt lat="25.76516130623909" lon="-80.48385815814237"><ele>10.142857142857142</ele><time>2026-04-19T11:00:55Z</time></trkpt><trkpt lat="25.765159620048202" lon="-80.48378366846661"><ele>10.0</ele><time>2026-04-19T11:00:56Z</time></trkpt><trkpt lat="25.765159607234978" lon="-80.48371111790964"><ele>10.0</ele><time>2026-04-19T11:00:56.999Z</time></trkpt><trkpt lat="25.76515915691557" lon="-80.48364087471803"><ele>10.0</ele><time>2026-04-19T11:00:57.999Z</time></trkpt><trkpt lat="25.765131552736037" lon="-80.48357397304494"><ele>10.0</ele><time>2026-04-19T11:00:58.999Z</time></trkpt><trkpt lat="25.765116538465797" lon="-80.48344564753289"><ele>10.0</ele><time>2026-04-19T11:01:00.999Z</time></trkpt><trkpt lat="25.765072205490583" lon="-80.48333864582601"><ele>10.0</ele><time>2026-04-19T11:01:02.999Z</time></trkpt><trkpt lat="25.765003599562622" lon="-80.4832679405636"><ele>10.0</ele><time>2026-04-19T11:01:04.999Z</time></trkpt><trkpt lat="25.76497143715603" lon="-80.48320562763567"><ele>10.0</ele><time>2026-04-19T11:01:07.999Z</time></trkpt><trkpt lat="25.764960877595392" lon="-80.48299047461168"><ele>10.0</ele><time>2026-04-19T11:01:08.999Z</time></trkpt><trkpt lat="25.765030598376672" lon="-80.48291193939895"><ele>10.0</ele><time>2026-04-19T11:01:11.999Z</time></trkpt><trkpt lat="25.765100434880743" lon="-80.48282228884968"><ele>10.0</ele><time>2026-04-19T11:01:13.999Z</time></trkpt><trkpt lat="25.765168061131245" lon="-80.4827136451974"><ele>10.285714285714285</ele><time>2026-04-19T11:01:15.999Z</time></trkpt><trkpt lat="25.76520565323634" lon="-80.48263804047028"><ele>10.571428571428571</ele><time>2026-04-19T11:01:17Z</time></trkpt><trkpt lat="25.76523226175253" lon="-80.48256971325415"><ele>10.857142857142858</ele><time>2026-04-19T11:01:18Z</time></trkpt><trkpt lat="25.76525233743675" lon="-80.48250001664104"><ele>11.142857142857142</ele><time>2026-04-19T11:01:19Z</time></trkpt><trkpt lat="25.76526533474308" lon="-80.48242721582554"><ele>11.428571428571429</ele><time>2026-04-19T11:01:20Z</time></trkpt><trkpt lat="25.76527396172964" lon="-80.48235004979061"><ele>11.714285714285714</ele><time>2026-04-19T11:01:21Z</time></trkpt><trkpt lat="25.765277636131607" lon="-80.48227124428088"><ele>12.0</ele><time>2026-04-19T11:01:22Z</time></trkpt><trkpt lat="25.76528375023163" lon="-80.48218989095109"><ele>11.999999999999998</ele><time>2026-04-19T11:01:23Z</time></trkpt><trkpt lat="25.76528959588977" lon="-80.48211210996179"><ele>12.0</ele><time>2026-04-19T11:01:24Z</time></trkpt><trkpt lat="25.765295175961864" lon="-80.48203718197308"><ele>12.0</ele><time>2026-04-19T11:01:25Z</time></trkpt><trkpt lat="25.765300060858134" lon="-80.48195761054647"><ele>12.0</ele><time>2026-04-19T11:01:26Z</time></trkpt><trkpt lat="25.7653046314526" lon="-80.48188315908111"><ele>12.0</ele><time>2026-04-19T11:01:27Z</time></trkpt><trkpt lat="25.765309018928615" lon="-80.48181168911763"><ele>11.999999999999998</ele><time>2026-04-19T11:01:28Z</time></trkpt><trkpt lat="25.765317897316166" lon="-80.48169679476933"><ele>12.0</ele><time>2026-04-19T11:01:30Z</time></trkpt><trkpt lat="25.765602849549243" lon="-80.4816884142861"><ele>11.833333333333334</ele><time>2026-04-19T11:01:31Z</time></trkpt><trkpt lat="25.76567636527606" lon="-80.48167959061966"><ele>11.666666666666666</ele><time>2026-04-19T11:01:32Z</time></trkpt><trkpt lat="25.7657558234386" lon="-80.48169486558072"><ele>11.5</ele><time>2026-04-19T11:01:33Z</time></trkpt><trkpt lat="25.765839438585733" lon="-80.4817139047768"><ele>11.333333333333332</ele><time>2026-04-19T11:01:34Z</time></trkpt><trkpt lat="25.765925534888996" lon="-80.48172979276991"><ele>11.166666666666666</ele><time>2026-04-19T11:01:35Z</time></trkpt><trkpt lat="25.76601204222459" lon="-80.48174159178485"><ele>11.0</ele><time>2026-04-19T11:01:36Z</time></trkpt><trkpt lat="25.766104458129867" lon="-80.48175072415437"><ele>10.8</ele><time>2026-04-19T11:01:37Z</time></trkpt><trkpt lat="25.766200949383567" lon="-80.48176230706204"><ele>10.600000000000001</ele><time>2026-04-19T11:01:38Z</time></trkpt><trkpt lat="25.766297570737144" lon="-80.48177804581012"><ele>10.4</ele><time>2026-04-19T11:01:39Z</time></trkpt><trkpt lat="25.76639277328738" lon="-80.48179526962687"><ele>10.2</ele><time>2026-04-19T11:01:40Z</time></trkpt><trkpt lat="25.766488045584186" lon="-80.48181263114724"><ele>10.0</ele><time>2026-04-19T11:01:41Z</time></trkpt><trkpt lat="25.766584588420585" lon="-80.48182417942726"><ele>10.0</ele><time>2026-04-19T11:01:42Z</time></trkpt><trkpt lat="25.766677117872437" lon="-80.48183053492417"><ele>10.0</ele><time>2026-04-19T11:01:43Z</time></trkpt><trkpt lat="25.76677014810682" lon="-80.48183805492293"><ele>10.0</ele><time>2026-04-19T11:01:44Z</time></trkpt><trkpt lat="25.766865484401485" lon="-80.48184898617751"><ele>10.0</ele><time>2026-04-19T11:01:45Z</time></trkpt><trkpt lat="25.76696551418737" lon="-80.48186134378528"><ele>10.0</ele><time>2026-04-19T11:01:46Z</time></trkpt><trkpt lat="25.767065652300886" lon="-80.48187260763184"><ele>9.8</ele><time>2026-04-19T11:01:47Z</time></trkpt><trkpt lat="25.76716677369669" lon="-80.4818814589578"><ele>9.6</ele><time>2026-04-19T11:01:48Z</time></trkpt><trkpt lat="25.767268997805832" lon="-80.48188943249558"><ele>9.4</ele><time>2026-04-19T11:01:49Z</time></trkpt><trkpt lat="25.76737019252523" lon="-80.48190148977842"><ele>9.2</ele><time>2026-04-19T11:01:50Z</time></trkpt><trkpt lat="25.767470966914374" lon="-80.48191467022805"><ele>9.0</ele><time>2026-04-19T11:01:51Z</time></trkpt><trkpt lat="25.767573522023117" lon="-80.48192589097059"><ele>9.0</ele><time>2026-04-19T11:01:52Z</time></trkpt><trkpt lat="25.76767967362252" lon="-80.4819339363152"><ele>9.0</ele><time>2026-04-19T11:01:53Z</time></trkpt><trkpt lat="25.767786352950182" lon="-80.48193559398963"><ele>9.0</ele><time>2026-04-19T11:01:54Z</time></trkpt><trkpt lat="25.767892602356646" lon="-80.48193914278869"><ele>9.0</ele><time>2026-04-19T11:01:55Z</time></trkpt><trkpt lat="25.767997874498487" lon="-80.48194663518159"><ele>9.0</ele><time>2026-04-19T11:01:56Z</time></trkpt><trkpt lat="25.768103199959107" lon="-80.48195580243309"><ele>9.8</ele><time>2026-04-19T11:01:57Z</time></trkpt><trkpt lat="25.76821249531851" lon="-80.48196253497632"><ele>10.600000000000001</ele><time>2026-04-19T11:01:58Z</time></trkpt><trkpt lat="25.76832392329566" lon="-80.48196798286607"><ele>11.4</ele><time>2026-04-19T11:01:59Z</time></trkpt><trkpt lat="25.768435634226297" lon="-80.48197075354746"><ele>12.200000000000001</ele><time>2026-04-19T11:02:00Z</time></trkpt><trkpt lat="25.768546361547365" lon="-80.48197606396329"><ele>13.0</ele><time>2026-04-19T11:02:01Z</time></trkpt><trkpt lat="25.76865739556562" lon="-80.48198150000715"><ele>13.0</ele><time>2026-04-19T11:02:02Z</time></trkpt><trkpt lat="25.76876730391905" lon="-80.48198863263842"><ele>13.0</ele><time>2026-04-19T11:02:03Z</time></trkpt><trkpt lat="25.768879668348056" lon="-80.48199679924885"><ele>13.0</ele><time>2026-04-19T11:02:04Z</time></trkpt><trkpt lat="25.768991874106405" lon="-80.48200565515938"><ele>13.0</ele><time>2026-04-19T11:02:05Z</time></trkpt><trkpt lat="25.769103651171903" lon="-80.48201541228174"><ele>13.0</ele><time>2026-04-19T11:02:06Z</time></trkpt><trkpt lat="25.76921512395766" lon="-80.4820243204144"><ele>13.0</ele><time>2026-04-19T11:02:07Z</time></trkpt><trkpt lat="25.769328993301702" lon="-80.4820302467603"><ele>13.0</ele><time>2026-04-19T11:02:08Z</time></trkpt><trkpt lat="25.76944552887837" lon="-80.4820393835942"><ele>13.0</ele><time>2026-04-19T11:02:09Z</time></trkpt><trkpt lat="25.769561385360326" lon="-80.48204569824566"><ele>13.0</ele><time>2026-04-19T11:02:10Z</time></trkpt><trkpt lat="25.769677857466053" lon="-80.4820525538497"><ele>12.5</ele><time>2026-04-19T11:02:11Z</time></trkpt><trkpt lat="25.769795997570434" lon="-80.48205937851922"><ele>12.0</ele><time>2026-04-19T11:02:12Z</time></trkpt><trkpt lat="25.769912813983442" lon="-80.48206394064667"><ele>11.5</ele><time>2026-04-19T11:02:13Z</time></trkpt><trkpt lat="25.770030379821147" lon="-80.48207466386916"><ele>11.0</ele><time>2026-04-19T11:02:14Z</time></trkpt><trkpt lat="25.770150681976027" lon="-80.48208264908338"><ele>11.75</ele><time>2026-04-19T11:02:15Z</time></trkpt><trkpt lat="25.770270195920546" lon="-80.48209144613506"><ele>12.5</ele><time>2026-04-19T11:02:16Z</time></trkpt><trkpt lat="25.770390255924745" lon="-80.4821002914328"><ele>13.25</ele><time>2026-04-19T11:02:17Z</time></trkpt><trkpt lat="25.770508662603582" lon="-80.48210687502997"><ele>14.0</ele><time>2026-04-19T11:02:18Z</time></trkpt><trkpt lat="25.770625279168666" lon="-80.48211642351016"><ele>12.25</ele><time>2026-04-19T11:02:19Z</time></trkpt><trkpt lat="25.770743902160664" lon="-80.48212464309557"><ele>10.5</ele><time>2026-04-19T11:02:20Z</time></trkpt><trkpt lat="25.770861950434412" lon="-80.4821371599068"><ele>8.75</ele><time>2026-04-19T11:02:21Z</time></trkpt><trkpt lat="25.770980346642613" lon="-80.48214636807413"><ele>7.0</ele><time>2026-04-19T11:02:22Z</time></trkpt><trkpt lat="25.77109916705729" lon="-80.48215698165441"><ele>7.0</ele><time>2026-04-19T11:02:23Z</time></trkpt><trkpt lat="25.771215932259313" lon="-80.48216528338978"><ele>7.0</ele><time>2026-04-19T11:02:24Z</time></trkpt><trkpt lat="25.771331845051325" lon="-80.4821758774884"><ele>7.0</ele><time>2026-04-19T11:02:25Z</time></trkpt><trkpt lat="25.77144610464817" lon="-80.48218452199089"><ele>7.0</ele><time>2026-04-19T11:02:26Z</time></trkpt><trkpt lat="25.771558887444975" lon="-80.48219276926162"><ele>7.0</ele><time>2026-04-19T11:02:27Z</time></trkpt><trkpt lat="25.771672044530256" lon="-80.48220244821579"><ele>7.0</ele><time>2026-04-19T11:02:28Z</time></trkpt><trkpt lat="25.771786496700496" lon="-80.48221042024358"><ele>7.0</ele><time>2026-04-19T11:02:29Z</time></trkpt><trkpt lat="25.77190136163393" lon="-80.48221892032372"><ele>7.0</ele><time>2026-04-19T11:02:30Z</time></trkpt><trkpt lat="25.77201588330714" lon="-80.4822275017983"><ele>7.5</ele><time>2026-04-19T11:02:31Z</time></trkpt><trkpt lat="25.772131570003914" lon="-80.48223666688051"><ele>8.0</ele><time>2026-04-19T11:02:32Z</time></trkpt><trkpt lat="25.772245982387027" lon="-80.48224700587083"><ele>8.5</ele><time>2026-04-19T11:02:33Z</time></trkpt><trkpt lat="25.772360697402508" lon="-80.48225528120764"><ele>9.0</ele><time>2026-04-19T11:02:34Z</time></trkpt><trkpt lat="25.772477062144965" lon="-80.48226177726495"><ele>9.0</ele><time>2026-04-19T11:02:35Z</time></trkpt><trkpt lat="25.772592525267516" lon="-80.48226672313498"><ele>9.0</ele><time>2026-04-19T11:02:36Z</time></trkpt><trkpt lat="25.772707887329716" lon="-80.48227044676281"><ele>9.0</ele><time>2026-04-19T11:02:37Z</time></trkpt><trkpt lat="25.772822467046637" lon="-80.48227433539506"><ele>9.0</ele><time>2026-04-19T11:02:38Z</time></trkpt><trkpt lat="25.77293768622564" lon="-80.48227989884737"><ele>9.0</ele><time>2026-04-19T11:02:39Z</time></trkpt><trkpt lat="25.773050772278292" lon="-80.48228050983228"><ele>9.0</ele><time>2026-04-19T11:02:40Z</time></trkpt><trkpt lat="25.773163949846452" lon="-80.48228458484402"><ele>9.0</ele><time>2026-04-19T11:02:41Z</time></trkpt><trkpt lat="25.773276838390675" lon="-80.48228799624012"><ele>9.0</ele><time>2026-04-19T11:02:42Z</time></trkpt><trkpt lat="25.77338950278683" lon="-80.48228784784366"><ele>9.0</ele><time>2026-04-19T11:02:43Z</time></trkpt><trkpt lat="25.773501601874038" lon="-80.48228732260662"><ele>9.0</ele><time>2026-04-19T11:02:44Z</time></trkpt><trkpt lat="25.773616468124217" lon="-80.48228735717913"><ele>9.0</ele><time>2026-04-19T11:02:45Z</time></trkpt><trkpt lat="25.77372837736566" lon="-80.48228352678645"><ele>9.0</ele><time>2026-04-19T11:02:46Z</time></trkpt><trkpt lat="25.773842308379482" lon="-80.482281050069"><ele>9.75</ele><time>2026-04-19T11:02:47Z</time></trkpt><trkpt lat="25.77395404273276" lon="-80.48227766706016"><ele>10.5</ele><time>2026-04-19T11:02:48Z</time></trkpt><trkpt lat="25.774066634989882" lon="-80.48227292548536"><ele>11.25</ele><time>2026-04-19T11:02:49Z</time></trkpt><trkpt lat="25.77417844867281" lon="-80.48226337405039"><ele>12.0</ele><time>2026-04-19T11:02:49.999Z</time></trkpt><trkpt lat="25.774292472412743" lon="-80.48226095186294"><ele>12.2</ele><time>2026-04-19T11:02:50.999Z</time></trkpt><trkpt lat="25.774402084506164" lon="-80.48225186031893"><ele>12.399999999999999</ele><time>2026-04-19T11:02:51.999Z</time></trkpt><trkpt lat="25.774513791757858" lon="-80.48224211164772"><ele>12.600000000000001</ele><time>2026-04-19T11:02:52.999Z</time></trkpt><trkpt lat="25.774623411096595" lon="-80.48223109040168"><ele>12.8</ele><time>2026-04-19T11:02:53.999Z</time></trkpt><trkpt lat="25.774733209195205" lon="-80.48222139084245"><ele>13.0</ele><time>2026-04-19T11:02:54.999Z</time></trkpt><trkpt lat="25.774843829447622" lon="-80.48220883911128"><ele>13.0</ele><time>2026-04-19T11:02:55.999Z</time></trkpt><trkpt lat="25.77495176572769" lon="-80.48219491060911"><ele>13.0</ele><time>2026-04-19T11:02:56.999Z</time></trkpt><trkpt lat="25.7750638103076" lon="-80.48218517327368"><ele>13.0</ele><time>2026-04-19T11:02:57.999Z</time></trkpt><trkpt lat="25.775173342420075" lon="-80.482176379604"><ele>13.0</ele><time>2026-04-19T11:02:58.999Z</time></trkpt><trkpt lat="25.775282476346675" lon="-80.4821680453732"><ele>13.0</ele><time>2026-04-19T11:02:59.999Z</time></trkpt><trkpt lat="25.775395185684985" lon="-80.48216072373306"><ele>11.6</ele><time>2026-04-19T11:03:00.999Z</time></trkpt><trkpt lat="25.775508208858007" lon="-80.48215428007838"><ele>10.200000000000001</ele><time>2026-04-19T11:03:01.999Z</time></trkpt><trkpt lat="25.775616394935277" lon="-80.48213858855587"><ele>8.8</ele><time>2026-04-19T11:03:02.999Z</time></trkpt><trkpt lat="25.775727561855497" lon="-80.4821288931035"><ele>7.4</ele><time>2026-04-19T11:03:03.999Z</time></trkpt><trkpt lat="25.775839121713304" lon="-80.48212041170892"><ele>6.0</ele><time>2026-04-19T11:03:04.999Z</time></trkpt><trkpt lat="25.7759472097313" lon="-80.48211012701125"><ele>6.199999999999999</ele><time>2026-04-19T11:03:05.999Z</time></trkpt><trkpt lat="25.77605716967057" lon="-80.4821019924165"><ele>6.3999999999999995</ele><time>2026-04-19T11:03:06.999Z</time></trkpt><trkpt lat="25.77616859628492" lon="-80.48209633453448"><ele>6.6</ele><time>2026-04-19T11:03:07.999Z</time></trkpt><trkpt lat="25.776278510134134" lon="-80.482084843767"><ele>6.8</ele><time>2026-04-19T11:03:08.999Z</time></trkpt><trkpt lat="25.77639302731651" lon="-80.48207621275523"><ele>7.0</ele><time>2026-04-19T11:03:09.999Z</time></trkpt><trkpt lat="25.776504755032903" lon="-80.4820694166721"><ele>7.25</ele><time>2026-04-19T11:03:10.999Z</time></trkpt><trkpt lat="25.776619924957323" lon="-80.4820575193231"><ele>7.5</ele><time>2026-04-19T11:03:11.999Z</time></trkpt><trkpt lat="25.776735716152796" lon="-80.48204671475591"><ele>7.75</ele><time>2026-04-19T11:03:12.999Z</time></trkpt><trkpt lat="25.77684828837657" lon="-80.48203829384389"><ele>8.0</ele><time>2026-04-19T11:03:13.999Z</time></trkpt><trkpt lat="25.77696247704861" lon="-80.48203213497962"><ele>8.0</ele><time>2026-04-19T11:03:14.999Z</time></trkpt><trkpt lat="25.777076403923687" lon="-80.48201782852938"><ele>8.0</ele><time>2026-04-19T11:03:15.999Z</time></trkpt><trkpt lat="25.77718837885752" lon="-80.48200625353847"><ele>8.0</ele><time>2026-04-19T11:03:16.999Z</time></trkpt><trkpt lat="25.777302749756558" lon="-80.48199721030517"><ele>8.0</ele><time>2026-04-19T11:03:17.999Z</time></trkpt><trkpt lat="25.777415536376964" lon="-80.48198487879516"><ele>8.0</ele><time>2026-04-19T11:03:18.999Z</time></trkpt><trkpt lat="25.777529333403788" lon="-80.48197505899665"><ele>8.0</ele><time>2026-04-19T11:03:19.999Z</time></trkpt><trkpt lat="25.777640564248987" lon="-80.48196545906553"><ele>8.0</ele><time>2026-04-19T11:03:20.999Z</time></trkpt><trkpt lat="25.7777521873936" lon="-80.48196032203538"><ele>8.0</ele><time>2026-04-19T11:03:21.999Z</time></trkpt><trkpt lat="25.777858741393306" lon="-80.48195046449713"><ele>8.0</ele><time>2026-04-19T11:03:23Z</time></trkpt><trkpt lat="25.777970247704832" lon="-80.48194425751431"><ele>8.4</ele><time>2026-04-19T11:03:24Z</time></trkpt><trkpt lat="25.778078613857808" lon="-80.48193636689238"><ele>8.8</ele><time>2026-04-19T11:03:25Z</time></trkpt><trkpt lat="25.77818510042117" lon="-80.48193278549279"><ele>9.2</ele><time>2026-04-19T11:03:26Z</time></trkpt><trkpt lat="25.77829127678731" lon="-80.48192626608049"><ele>9.6</ele><time>2026-04-19T11:03:27Z</time></trkpt><trkpt lat="25.778396852448278" lon="-80.48191655979893"><ele>10.0</ele><time>2026-04-19T11:03:28Z</time></trkpt><trkpt lat="25.77850417467797" lon="-80.48190849880302"><ele>10.0</ele><time>2026-04-19T11:03:29Z</time></trkpt><trkpt lat="25.778614411903796" lon="-80.48189697575346"><ele>10.0</ele><time>2026-04-19T11:03:30Z</time></trkpt><trkpt lat="25.7787239812853" lon="-80.48189093910499"><ele>10.0</ele><time>2026-04-19T11:03:31Z</time></trkpt><trkpt lat="25.77883124582584" lon="-80.48188725528742"><ele>10.0</ele><time>2026-04-19T11:03:32Z</time></trkpt><trkpt lat="25.778936777990065" lon="-80.48188518402048"><ele>10.0</ele><time>2026-04-19T11:03:33Z</time></trkpt><trkpt lat="25.77904132453222" lon="-80.48188051677035"><ele>10.0</ele><time>2026-04-19T11:03:34Z</time></trkpt><trkpt lat="25.779145863078075" lon="-80.48187005658963"><ele>10.0</ele><time>2026-04-19T11:03:35Z</time></trkpt><trkpt lat="25.77925033331795" lon="-80.48185783560467"><ele>10.0</ele><time>2026-04-19T11:03:36Z</time></trkpt><trkpt lat="25.77935283293314" lon="-80.48184579933485"><ele>10.0</ele><time>2026-04-19T11:03:37Z</time></trkpt><trkpt lat="25.779454017434983" lon="-80.48183251164987"><ele>10.0</ele><time>2026-04-19T11:03:38Z</time></trkpt><trkpt lat="25.779555449662507" lon="-80.48181872771067"><ele>9.6</ele><time>2026-04-19T11:03:39Z</time></trkpt><trkpt lat="25.779657978583163" lon="-80.48180529884773"><ele>9.2</ele><time>2026-04-19T11:03:40Z</time></trkpt><trkpt lat="25.77976180678482" lon="-80.48179310353386"><ele>8.8</ele><time>2026-04-19T11:03:41Z</time></trkpt><trkpt lat="25.779862848491767" lon="-80.48178261872955"><ele>8.4</ele><time>2026-04-19T11:03:42Z</time></trkpt><trkpt lat="25.779965308259357" lon="-80.48177222710856"><ele>8.0</ele><time>2026-04-19T11:03:43Z</time></trkpt><trkpt lat="25.78006889802054" lon="-80.48176287496814"><ele>8.0</ele><time>2026-04-19T11:03:44Z</time></trkpt><trkpt lat="25.78017392869673" lon="-80.48175242172505"><ele>8.0</ele><time>2026-04-19T11:03:45Z</time></trkpt><trkpt lat="25.780277759169053" lon="-80.48173945393353"><ele>8.0</ele><time>2026-04-19T11:03:46Z</time></trkpt><trkpt lat="25.78038361757438" lon="-80.48172678334619"><ele>8.0</ele><time>2026-04-19T11:03:47Z</time></trkpt><trkpt lat="25.78049156391673" lon="-80.48171654662185"><ele>8.0</ele><time>2026-04-19T11:03:48Z</time></trkpt><trkpt lat="25.7806000789673" lon="-80.4817042944454"><ele>8.0</ele><time>2026-04-19T11:03:49Z</time></trkpt><trkpt lat="25.780708874554392" lon="-80.48169051858457"><ele>8.0</ele><time>2026-04-19T11:03:50Z</time></trkpt><trkpt lat="25.78081685851157" lon="-80.48168039906457"><ele>8.0</ele><time>2026-04-19T11:03:51Z</time></trkpt><trkpt lat="25.78092392988232" lon="-80.48166825663498"><ele>8.0</ele><time>2026-04-19T11:03:52Z</time></trkpt><trkpt lat="25.781029675037402" lon="-80.4816570669041"><ele>8.0</ele><time>2026-04-19T11:03:53Z</time></trkpt><trkpt lat="25.781135560450878" lon="-80.4816481607693"><ele>8.0</ele><time>2026-04-19T11:03:54Z</time></trkpt><trkpt lat="25.781240854820993" lon="-80.48163884200622"><ele>8.0</ele><time>2026-04-19T11:03:55Z</time></trkpt><trkpt lat="25.781344064115356" lon="-80.48162862102488"><ele>8.0</ele><time>2026-04-19T11:03:56Z</time></trkpt><trkpt lat="25.78144717223208" lon="-80.48161907526098"><ele>8.0</ele><time>2026-04-19T11:03:57Z</time></trkpt><trkpt lat="25.78155021754455" lon="-80.48161180486686"><ele>8.0</ele><time>2026-04-19T11:03:58Z</time></trkpt><trkpt lat="25.781652662295233" lon="-80.48160643272844"><ele>8.0</ele><time>2026-04-19T11:03:59Z</time></trkpt><trkpt lat="25.78175745364218" lon="-80.48160002957096"><ele>8.0</ele><time>2026-04-19T11:04:00Z</time></trkpt><trkpt lat="25.78186303413126" lon="-80.48159437223589"><ele>8.0</ele><time>2026-04-19T11:04:01Z</time></trkpt><trkpt lat="25.781967288499928" lon="-80.48158814610589"><ele>8.0</ele><time>2026-04-19T11:04:02Z</time></trkpt><trkpt lat="25.78207323122862" lon="-80.48158127907162"><ele>8.0</ele><time>2026-04-19T11:04:03Z</time></trkpt><trkpt lat="25.78217851421316" lon="-80.48157767583037"><ele>8.0</ele><time>2026-04-19T11:04:04Z</time></trkpt><trkpt lat="25.7822812118272" lon="-80.48157856667778"><ele>8.0</ele><time>2026-04-19T11:04:05Z</time></trkpt><trkpt lat="25.782385908668612" lon="-80.48158154943664"><ele>8.0</ele><time>2026-04-19T11:04:06Z</time></trkpt><trkpt lat="25.78249116042132" lon="-80.48157883853287"><ele>8.0</ele><time>2026-04-19T11:04:07Z</time></trkpt><trkpt lat="25.782594492846513" lon="-80.48157510452506"><ele>8.0</ele><time>2026-04-19T11:04:08Z</time></trkpt><trkpt lat="25.78269824597" lon="-80.48157229006782"><ele>8.0</ele><time>2026-04-19T11:04:09Z</time></trkpt><trkpt lat="25.782802277090326" lon="-80.48157274003792"><ele>8.0</ele><time>2026-04-19T11:04:10Z</time></trkpt><trkpt lat="25.782904564286607" lon="-80.48157732198507"><ele>8.0</ele><time>2026-04-19T11:04:11Z</time></trkpt><trkpt lat="25.7830084972696" lon="-80.48158849948587"><ele>8.0</ele><time>2026-04-19T11:04:12Z</time></trkpt><trkpt lat="25.783113416099667" lon="-80.48158775313551"><ele>8.0</ele><time>2026-04-19T11:04:13Z</time></trkpt><trkpt lat="25.78321554985114" lon="-80.48159538248913"><ele>8.0</ele><time>2026-04-19T11:04:14Z</time></trkpt><trkpt lat="25.78331907660325" lon="-80.48160192510342"><ele>8.0</ele><time>2026-04-19T11:04:15Z</time></trkpt><trkpt lat="25.783424514541966" lon="-80.48160412933112"><ele>8.0</ele><time>2026-04-19T11:04:16Z</time></trkpt><trkpt lat="25.783530196505335" lon="-80.48160789026619"><ele>8.0</ele><time>2026-04-19T11:04:17Z</time></trkpt><trkpt lat="25.783635982392216" lon="-80.48161102408568"><ele>8.0</ele><time>2026-04-19T11:04:18Z</time></trkpt><trkpt lat="25.783742650095864" lon="-80.48161657255007"><ele>8.0</ele><time>2026-04-19T11:04:19Z</time></trkpt><trkpt lat="25.78384601542581" lon="-80.48162551221807"><ele>8.0</ele><time>2026-04-19T11:04:20Z</time></trkpt><trkpt lat="25.783946825944078" lon="-80.48163448704088"><ele>8.0</ele><time>2026-04-19T11:04:21Z</time></trkpt><trkpt lat="25.78404860378964" lon="-80.48164058578935"><ele>8.0</ele><time>2026-04-19T11:04:22Z</time></trkpt><trkpt lat="25.78414933635295" lon="-80.48164645158316"><ele>8.0</ele><time>2026-04-19T11:04:23Z</time></trkpt><trkpt lat="25.784252039920023" lon="-80.48165363716514"><ele>8.4</ele><time>2026-04-19T11:04:24Z</time></trkpt><trkpt lat="25.784357181718327" lon="-80.48166300312135"><ele>8.8</ele><time>2026-04-19T11:04:25Z</time></trkpt><trkpt lat="25.784463520076486" lon="-80.48167271064624"><ele>9.2</ele><time>2026-04-19T11:04:26Z</time></trkpt><trkpt lat="25.784570402796547" lon="-80.4816821153119"><ele>9.6</ele><time>2026-04-19T11:04:27Z</time></trkpt><trkpt lat="25.784677376264735" lon="-80.48169226732824"><ele>10.0</ele><time>2026-04-19T11:04:28Z</time></trkpt><trkpt lat="25.78478536232395" lon="-80.48170267613729"><ele>10.0</ele><time>2026-04-19T11:04:29Z</time></trkpt><trkpt lat="25.784894219629876" lon="-80.48170687670746"><ele>10.0</ele><time>2026-04-19T11:04:30Z</time></trkpt><trkpt lat="25.78500448809566" lon="-80.4817055541649"><ele>10.0</ele><time>2026-04-19T11:04:31Z</time></trkpt><trkpt lat="25.785112042063798" lon="-80.48170827761248"><ele>10.0</ele><time>2026-04-19T11:04:32Z</time></trkpt><trkpt lat="25.78521806690158" lon="-80.48171178023252"><ele>10.0</ele><time>2026-04-19T11:04:33Z</time></trkpt><trkpt lat="25.785323599953784" lon="-80.48171510775867"><ele>10.2</ele><time>2026-04-19T11:04:34Z</time></trkpt><trkpt lat="25.78542661490669" lon="-80.4817223103828"><ele>10.4</ele><time>2026-04-19T11:04:35Z</time></trkpt><trkpt lat="25.78552656096132" lon="-80.48173121834478"><ele>10.600000000000001</ele><time>2026-04-19T11:04:36Z</time></trkpt><trkpt lat="25.78562926774824" lon="-80.48174900229733"><ele>10.8</ele><time>2026-04-19T11:04:37Z</time></trkpt><trkpt lat="25.78573356395983" lon="-80.48176112302131"><ele>11.0</ele><time>2026-04-19T11:04:38Z</time></trkpt><trkpt lat="25.785838623649738" lon="-80.48177072245261"><ele>11.0</ele><time>2026-04-19T11:04:39Z</time></trkpt><trkpt lat="25.785943858572296" lon="-80.48177841935612"><ele>11.0</ele><time>2026-04-19T11:04:40Z</time></trkpt><trkpt lat="25.786048092216443" lon="-80.48178869428345"><ele>11.0</ele><time>2026-04-19T11:04:41Z</time></trkpt><trkpt lat="25.78614969881197" lon="-80.4817978113999"><ele>11.0</ele><time>2026-04-19T11:04:42Z</time></trkpt><trkpt lat="25.78625018959732" lon="-80.48181110607793"><ele>11.0</ele><time>2026-04-19T11:04:43Z</time></trkpt><trkpt lat="25.786349562121263" lon="-80.48182490399773"><ele>10.8</ele><time>2026-04-19T11:04:44Z</time></trkpt><trkpt lat="25.786449220695445" lon="-80.48183108501895"><ele>10.600000000000001</ele><time>2026-04-19T11:04:45Z</time></trkpt><trkpt lat="25.786548772599716" lon="-80.48183790306894"><ele>10.4</ele><time>2026-04-19T11:04:46Z</time></trkpt><trkpt lat="25.78664930388835" lon="-80.48184413784173"><ele>10.2</ele><time>2026-04-19T11:04:47Z</time></trkpt><trkpt lat="25.7867492840258" lon="-80.4818499824908"><ele>10.0</ele><time>2026-04-19T11:04:48Z</time></trkpt><trkpt lat="25.78684884120779" lon="-80.48185869679595"><ele>10.4</ele><time>2026-04-19T11:04:49Z</time></trkpt><trkpt lat="25.78694907397524" lon="-80.48186930431685"><ele>10.8</ele><time>2026-04-19T11:04:49.999Z</time></trkpt><trkpt lat="25.787048286641816" lon="-80.48187879465544"><ele>11.2</ele><time>2026-04-19T11:04:50.999Z</time></trkpt><trkpt lat="25.787149174280568" lon="-80.48188994898138"><ele>11.6</ele><time>2026-04-19T11:04:51.999Z</time></trkpt><trkpt lat="25.787251437871348" lon="-80.48189757933629"><ele>12.0</ele><time>2026-04-19T11:04:52.999Z</time></trkpt><trkpt lat="25.78735404113594" lon="-80.48190271514794"><ele>12.0</ele><time>2026-04-19T11:04:53.999Z</time></trkpt><trkpt lat="25.78745723623421" lon="-80.48190829517442"><ele>12.0</ele><time>2026-04-19T11:04:54.999Z</time></trkpt><trkpt lat="25.787558120112045" lon="-80.48191184446927"><ele>12.0</ele><time>2026-04-19T11:04:55.999Z</time></trkpt><trkpt lat="25.787658997286066" lon="-80.48191933105137"><ele>12.0</ele><time>2026-04-19T11:04:56.999Z</time></trkpt><trkpt lat="25.78775784877116" lon="-80.48192863936038"><ele>12.0</ele><time>2026-04-19T11:04:57.999Z</time></trkpt><trkpt lat="25.78785733311513" lon="-80.48193951315496"><ele>11.2</ele><time>2026-04-19T11:04:58.999Z</time></trkpt><trkpt lat="25.7879551703932" lon="-80.4819486896464"><ele>10.399999999999999</ele><time>2026-04-19T11:04:59.999Z</time></trkpt><trkpt lat="25.788053463228287" lon="-80.48195737865623"><ele>9.600000000000001</ele><time>2026-04-19T11:05:00.999Z</time></trkpt><trkpt lat="25.788152177227634" lon="-80.4819649936741"><ele>8.8</ele><time>2026-04-19T11:05:01.999Z</time></trkpt><trkpt lat="25.788248694258876" lon="-80.48197270332474"><ele>8.0</ele><time>2026-04-19T11:05:02.999Z</time></trkpt><trkpt lat="25.788345968477817" lon="-80.48197981049368"><ele>8.0</ele><time>2026-04-19T11:05:03.999Z</time></trkpt><trkpt lat="25.788443724189477" lon="-80.48198637927214"><ele>8.0</ele><time>2026-04-19T11:05:04.999Z</time></trkpt><trkpt lat="25.78854477867335" lon="-80.48199563114196"><ele>8.0</ele><time>2026-04-19T11:05:05.999Z</time></trkpt><trkpt lat="25.78864922625134" lon="-80.48200412432577"><ele>8.0</ele><time>2026-04-19T11:05:06.999Z</time></trkpt><trkpt lat="25.78875499967585" lon="-80.48201393553174"><ele>8.0</ele><time>2026-04-19T11:05:07.999Z</time></trkpt><trkpt lat="25.788859801218678" lon="-80.48202644164105"><ele>8.4</ele><time>2026-04-19T11:05:08.999Z</time></trkpt><trkpt lat="25.788963536166136" lon="-80.48203911240738"><ele>8.8</ele><time>2026-04-19T11:05:09.999Z</time></trkpt><trkpt lat="25.789069712976247" lon="-80.48205229840342"><ele>9.2</ele><time>2026-04-19T11:05:10.999Z</time></trkpt><trkpt lat="25.78917819488937" lon="-80.48206520652542"><ele>9.6</ele><time>2026-04-19T11:05:11.999Z</time></trkpt><trkpt lat="25.789290197498325" lon="-80.48207440227466"><ele>10.0</ele><time>2026-04-19T11:05:12.999Z</time></trkpt><trkpt lat="25.789399152174514" lon="-80.48208104618058"><ele>10.0</ele><time>2026-04-19T11:05:13.999Z</time></trkpt><trkpt lat="25.789511938042637" lon="-80.48208964312337"><ele>10.0</ele><time>2026-04-19T11:05:14.999Z</time></trkpt><trkpt lat="25.789622897879568" lon="-80.48209203930615"><ele>10.0</ele><time>2026-04-19T11:05:15.999Z</time></trkpt><trkpt lat="25.789733218107692" lon="-80.48209853289109"><ele>10.0</ele><time>2026-04-19T11:05:16.999Z</time></trkpt><trkpt lat="25.78984798008735" lon="-80.48210925668178"><ele>10.0</ele><time>2026-04-19T11:05:17.999Z</time></trkpt><trkpt lat="25.789963536553156" lon="-80.48211968274458"><ele>10.0</ele><time>2026-04-19T11:05:18.999Z</time></trkpt><trkpt lat="25.7900791030143" lon="-80.48212923847083"><ele>10.0</ele><time>2026-04-19T11:05:19.999Z</time></trkpt><trkpt lat="25.790195070053937" lon="-80.48213804200688"><ele>10.0</ele><time>2026-04-19T11:05:20.999Z</time></trkpt><trkpt lat="25.790306623215805" lon="-80.48214626768674"><ele>10.5</ele><time>2026-04-19T11:05:21.999Z</time></trkpt><trkpt lat="25.79041917950795" lon="-80.48215545572128"><ele>11.0</ele><time>2026-04-19T11:05:22.999Z</time></trkpt><trkpt lat="25.790535077466636" lon="-80.48216468707345"><ele>11.5</ele><time>2026-04-19T11:05:23.999Z</time></trkpt><trkpt lat="25.790652343383076" lon="-80.48217672150814"><ele>12.0</ele><time>2026-04-19T11:05:24.999Z</time></trkpt><trkpt lat="25.790767596988836" lon="-80.48218823225828"><ele>12.0</ele><time>2026-04-19T11:05:25.999Z</time></trkpt><trkpt lat="25.790882330725413" lon="-80.48219511869712"><ele>12.0</ele><time>2026-04-19T11:05:26.999Z</time></trkpt><trkpt lat="25.790997592036423" lon="-80.48220495205963"><ele>12.0</ele><time>2026-04-19T11:05:27.999Z</time></trkpt><trkpt lat="25.791110200494256" lon="-80.48221236033181"><ele>12.0</ele><time>2026-04-19T11:05:29Z</time></trkpt><trkpt lat="25.791223730936995" lon="-80.48222159501476"><ele>11.5</ele><time>2026-04-19T11:05:30Z</time></trkpt><trkpt lat="25.79133545263549" lon="-80.48223354823718"><ele>11.0</ele><time>2026-04-19T11:05:31Z</time></trkpt><trkpt lat="25.79144788657433" lon="-80.48224720299268"><ele>10.5</ele><time>2026-04-19T11:05:32Z</time></trkpt><trkpt lat="25.791559408911912" lon="-80.48225430798801"><ele>10.0</ele><time>2026-04-19T11:05:33Z</time></trkpt><trkpt lat="25.791672676505005" lon="-80.48226461438104"><ele>10.0</ele><time>2026-04-19T11:05:34Z</time></trkpt><trkpt lat="25.79178332929888" lon="-80.48227307555194"><ele>10.0</ele><time>2026-04-19T11:05:35Z</time></trkpt><trkpt lat="25.791892969963712" lon="-80.48228113827847"><ele>10.0</ele><time>2026-04-19T11:05:36Z</time></trkpt><trkpt lat="25.792000973644313" lon="-80.48228946332401"><ele>10.0</ele><time>2026-04-19T11:05:37Z</time></trkpt><trkpt lat="25.792106693434864" lon="-80.48229837312972"><ele>10.0</ele><time>2026-04-19T11:05:38Z</time></trkpt><trkpt lat="25.792211665358096" lon="-80.4823070940447"><ele>9.8</ele><time>2026-04-19T11:05:39Z</time></trkpt><trkpt lat="25.79231546806577" lon="-80.48231760901726"><ele>9.6</ele><time>2026-04-19T11:05:40Z</time></trkpt><trkpt lat="25.79241923703959" lon="-80.48232651647261"><ele>9.4</ele><time>2026-04-19T11:05:41Z</time></trkpt><trkpt lat="25.79252421302542" lon="-80.48233273451059"><ele>9.2</ele><time>2026-04-19T11:05:42Z</time></trkpt><trkpt lat="25.792628084831737" lon="-80.4823390955915"><ele>9.0</ele><time>2026-04-19T11:05:43Z</time></trkpt><trkpt lat="25.792731856420975" lon="-80.4823512609608"><ele>8.8</ele><time>2026-04-19T11:05:44Z</time></trkpt><trkpt lat="25.792836253981193" lon="-80.4823567697753"><ele>8.600000000000001</ele><time>2026-04-19T11:05:45Z</time></trkpt><trkpt lat="25.792940845841333" lon="-80.48236392328756"><ele>8.4</ele><time>2026-04-19T11:05:46Z</time></trkpt><trkpt lat="25.793045327668302" lon="-80.48237316940845"><ele>8.200000000000001</ele><time>2026-04-19T11:05:47Z</time></trkpt><trkpt lat="25.79314969267813" lon="-80.4823834014893"><ele>8.0</ele><time>2026-04-19T11:05:48Z</time></trkpt><trkpt lat="25.793252518123538" lon="-80.4823945469841"><ele>8.0</ele><time>2026-04-19T11:05:49Z</time></trkpt><trkpt lat="25.79335483825652" lon="-80.48240146805058"><ele>8.0</ele><time>2026-04-19T11:05:50Z</time></trkpt><trkpt lat="25.793457066093705" lon="-80.48241110740362"><ele>8.0</ele><time>2026-04-19T11:05:51Z</time></trkpt><trkpt lat="25.79355975706845" lon="-80.48242047509989"><ele>8.0</ele><time>2026-04-19T11:05:52Z</time></trkpt><trkpt lat="25.793661370751376" lon="-80.48242571514436"><ele>8.0</ele><time>2026-04-19T11:05:53Z</time></trkpt><trkpt lat="25.793763814270207" lon="-80.48242783981998"><ele>8.200000000000001</ele><time>2026-04-19T11:05:54Z</time></trkpt><trkpt lat="25.793862410055794" lon="-80.48243424096937"><ele>8.4</ele><time>2026-04-19T11:05:55Z</time></trkpt><trkpt lat="25.793961058023196" lon="-80.48244342012744"><ele>8.600000000000001</ele><time>2026-04-19T11:05:56Z</time></trkpt><trkpt lat="25.79405981186199" lon="-80.48245334245689"><ele>8.8</ele><time>2026-04-19T11:05:57Z</time></trkpt><trkpt lat="25.794157550535463" lon="-80.48246239275049"><ele>9.0</ele><time>2026-04-19T11:05:58Z</time></trkpt><trkpt lat="25.794256416071825" lon="-80.48247472276067"><ele>9.2</ele><time>2026-04-19T11:05:59Z</time></trkpt><trkpt lat="25.794355193194267" lon="-80.48248539877193"><ele>9.4</ele><time>2026-04-19T11:06:00Z</time></trkpt><trkpt lat="25.794456640710383" lon="-80.4824972530074"><ele>9.6</ele><time>2026-04-19T11:06:01Z</time></trkpt><trkpt lat="25.79455583507687" lon="-80.48250773577641"><ele>9.8</ele><time>2026-04-19T11:06:02Z</time></trkpt><trkpt lat="25.794655424967388" lon="-80.48251633148988"><ele>10.0</ele><time>2026-04-19T11:06:03Z</time></trkpt><trkpt lat="25.794756010798242" lon="-80.48252340761252"><ele>10.0</ele><time>2026-04-19T11:06:04Z</time></trkpt><trkpt lat="25.794858049362023" lon="-80.48253124747134"><ele>10.0</ele><time>2026-04-19T11:06:05Z</time></trkpt><trkpt lat="25.79496230469225" lon="-80.48253883285476"><ele>10.0</ele><time>2026-04-19T11:06:06Z</time></trkpt><trkpt lat="25.795066292409313" lon="-80.48254609129364"><ele>10.0</ele><time>2026-04-19T11:06:07Z</time></trkpt><trkpt lat="25.795171041141504" lon="-80.48255435042833"><ele>10.0</ele><time>2026-04-19T11:06:08Z</time></trkpt><trkpt lat="25.795276321672798" lon="-80.48256410035188"><ele>10.0</ele><time>2026-04-19T11:06:09Z</time></trkpt><trkpt lat="25.79538420682263" lon="-80.48257749344808"><ele>10.0</ele><time>2026-04-19T11:06:10Z</time></trkpt><trkpt lat="25.795494946701865" lon="-80.48258975932937"><ele>10.0</ele><time>2026-04-19T11:06:11Z</time></trkpt><trkpt lat="25.795605741400205" lon="-80.48259678599962"><ele>10.0</ele><time>2026-04-19T11:06:12Z</time></trkpt><trkpt lat="25.795716863010977" lon="-80.48260236774209"><ele>10.0</ele><time>2026-04-19T11:06:13Z</time></trkpt><trkpt lat="25.795829088015836" lon="-80.48261301066745"><ele>10.0</ele><time>2026-04-19T11:06:14Z</time></trkpt><trkpt lat="25.795941667946536" lon="-80.48262936768292"><ele>10.0</ele><time>2026-04-19T11:06:15Z</time></trkpt><trkpt lat="25.79605371430453" lon="-80.48264110041103"><ele>10.0</ele><time>2026-04-19T11:06:16Z</time></trkpt><trkpt lat="25.796165067449294" lon="-80.48264846915245"><ele>10.0</ele><time>2026-04-19T11:06:17Z</time></trkpt><trkpt lat="25.79627682397451" lon="-80.48265544489048"><ele>10.25</ele><time>2026-04-19T11:06:18Z</time></trkpt><trkpt lat="25.796390542893942" lon="-80.48266394226336"><ele>10.5</ele><time>2026-04-19T11:06:19Z</time></trkpt><trkpt lat="25.796504040318638" lon="-80.48267074295886"><ele>10.75</ele><time>2026-04-19T11:06:20Z</time></trkpt><trkpt lat="25.79661647033927" lon="-80.48267779328685"><ele>11.0</ele><time>2026-04-19T11:06:21Z</time></trkpt><trkpt lat="25.796728415710383" lon="-80.48268457964298"><ele>10.4</ele><time>2026-04-19T11:06:22Z</time></trkpt><trkpt lat="25.79683805450798" lon="-80.4826873435648"><ele>9.8</ele><time>2026-04-19T11:06:23Z</time></trkpt><trkpt lat="25.79694665875221" lon="-80.48269567137126"><ele>9.200000000000001</ele><time>2026-04-19T11:06:24Z</time></trkpt><trkpt lat="25.7970525795895" lon="-80.4827040472371"><ele>8.600000000000001</ele><time>2026-04-19T11:06:25Z</time></trkpt><trkpt lat="25.797158146759454" lon="-80.48270882490708"><ele>8.0</ele><time>2026-04-19T11:06:26Z</time></trkpt><trkpt lat="25.797260272360717" lon="-80.48271209049948"><ele>8.0</ele><time>2026-04-19T11:06:27Z</time></trkpt><trkpt lat="25.797362714434314" lon="-80.48271627979636"><ele>8.0</ele><time>2026-04-19T11:06:28Z</time></trkpt><trkpt lat="25.797465366422365" lon="-80.48271735901507"><ele>8.0</ele><time>2026-04-19T11:06:29Z</time></trkpt><trkpt lat="25.79756790630962" lon="-80.4827153996013"><ele>8.0</ele><time>2026-04-19T11:06:30Z</time></trkpt><trkpt lat="25.79766944759669" lon="-80.4827177176738"><ele>8.0</ele><time>2026-04-19T11:06:31Z</time></trkpt><trkpt lat="25.797773848803953" lon="-80.4827233598059"><ele>7.800000000000001</ele><time>2026-04-19T11:06:32Z</time></trkpt><trkpt lat="25.797879288223704" lon="-80.48272969311607"><ele>7.6000000000000005</ele><time>2026-04-19T11:06:33Z</time></trkpt><trkpt lat="25.797985281060484" lon="-80.48273133989197"><ele>7.3999999999999995</ele><time>2026-04-19T11:06:34Z</time></trkpt><trkpt lat="25.798089699399945" lon="-80.48272840665972"><ele>7.199999999999999</ele><time>2026-04-19T11:06:35Z</time></trkpt><trkpt lat="25.798194482237985" lon="-80.48272448647924"><ele>7.0</ele><time>2026-04-19T11:06:36Z</time></trkpt><trkpt lat="25.79829819648664" lon="-80.4827244094541"><ele>7.0</ele><time>2026-04-19T11:06:37Z</time></trkpt><trkpt lat="25.79840167952449" lon="-80.48272796556445"><ele>6.999999999999999</ele><time>2026-04-19T11:06:38Z</time></trkpt><trkpt lat="25.798505286852027" lon="-80.48272829970934"><ele>6.999999999999999</ele><time>2026-04-19T11:06:39Z</time></trkpt><trkpt lat="25.798608542764697" lon="-80.48272431897736"><ele>7.0</ele><time>2026-04-19T11:06:40Z</time></trkpt><trkpt lat="25.798710578299485" lon="-80.48272156298196"><ele>7.0</ele><time>2026-04-19T11:06:41Z</time></trkpt><trkpt lat="25.798814050806037" lon="-80.48271757033305"><ele>6.8</ele><time>2026-04-19T11:06:42Z</time></trkpt><trkpt lat="25.798918122539412" lon="-80.4827139241517"><ele>6.6</ele><time>2026-04-19T11:06:43Z</time></trkpt><trkpt lat="25.799021815106432" lon="-80.48270975659004"><ele>6.3999999999999995</ele><time>2026-04-19T11:06:44Z</time></trkpt><trkpt lat="25.799124233415487" lon="-80.48270649965797"><ele>6.199999999999999</ele><time>2026-04-19T11:06:45Z</time></trkpt><trkpt lat="25.799227662796522" lon="-80.48270309804398"><ele>6.0</ele><time>2026-04-19T11:06:46Z</time></trkpt><trkpt lat="25.79933179535384" lon="-80.4826981250371"><ele>5.8</ele><time>2026-04-19T11:06:47Z</time></trkpt><trkpt lat="25.799435545976305" lon="-80.4826929404653"><ele>5.6</ele><time>2026-04-19T11:06:48Z</time></trkpt><trkpt lat="25.799538816114726" lon="-80.48268921284978"><ele>5.4</ele><time>2026-04-19T11:06:49Z</time></trkpt><trkpt lat="25.799643749207974" lon="-80.48268635793244"><ele>5.2</ele><time>2026-04-19T11:06:50Z</time></trkpt><trkpt lat="25.79974798425464" lon="-80.48268321808538"><ele>5.0</ele><time>2026-04-19T11:06:51Z</time></trkpt><trkpt lat="25.799853023303555" lon="-80.48267945351446"><ele>5.0</ele><time>2026-04-19T11:06:52Z</time></trkpt><trkpt lat="25.79995705800718" lon="-80.48267152314868"><ele>5.0</ele><time>2026-04-19T11:06:53Z</time></trkpt><trkpt lat="25.800062154301663" lon="-80.48266302058735"><ele>5.0</ele><time>2026-04-19T11:06:54Z</time></trkpt><trkpt lat="25.800165106623883" lon="-80.48266059551275"><ele>5.0</ele><time>2026-04-19T11:06:55Z</time></trkpt><trkpt lat="25.80026552994475" lon="-80.48265617378415"><ele>5.0</ele><time>2026-04-19T11:06:56Z</time></trkpt><trkpt lat="25.800367598672317" lon="-80.48265322661811"><ele>4.8</ele><time>2026-04-19T11:06:56.999Z</time></trkpt><trkpt lat="25.800467687127206" lon="-80.48264868172399"><ele>4.6</ele><time>2026-04-19T11:06:57.999Z</time></trkpt><trkpt lat="25.8005706078161" lon="-80.48264225054145"><ele>4.4</ele><time>2026-04-19T11:06:58.999Z</time></trkpt><trkpt lat="25.80067386625254" lon="-80.48263074534681"><ele>4.2</ele><time>2026-04-19T11:06:59.999Z</time></trkpt><trkpt lat="25.800777863182585" lon="-80.48262409162754"><ele>4.0</ele><time>2026-04-19T11:07:00.999Z</time></trkpt><trkpt lat="25.80088175004017" lon="-80.48261944860356"><ele>4.0</ele><time>2026-04-19T11:07:01.999Z</time></trkpt><trkpt lat="25.800985320796418" lon="-80.48261250624441"><ele>4.0</ele><time>2026-04-19T11:07:02.999Z</time></trkpt><trkpt lat="25.801087423929623" lon="-80.48260531875081"><ele>4.0</ele><time>2026-04-19T11:07:03.999Z</time></trkpt><trkpt lat="25.801188373568973" lon="-80.4825994086733"><ele>4.0</ele><time>2026-04-19T11:07:04.999Z</time></trkpt><trkpt lat="25.801290806303857" lon="-80.48259536491223"><ele>4.0</ele><time>2026-04-19T11:07:05.999Z</time></trkpt><trkpt lat="25.801392913669286" lon="-80.48258781101761"><ele>4.0</ele><time>2026-04-19T11:07:06.999Z</time></trkpt><trkpt lat="25.801494035964563" lon="-80.48257966060785"><ele>4.0</ele><time>2026-04-19T11:07:07.999Z</time></trkpt><trkpt lat="25.801595286354505" lon="-80.4825753354147"><ele>4.0</ele><time>2026-04-19T11:07:08.999Z</time></trkpt><trkpt lat="25.801696182909467" lon="-80.48256801005986"><ele>4.0</ele><time>2026-04-19T11:07:09.999Z</time></trkpt><trkpt lat="25.80179791943107" lon="-80.48256227902519"><ele>4.0</ele><time>2026-04-19T11:07:10.999Z</time></trkpt><trkpt lat="25.801899608505487" lon="-80.48255749651643"><ele>4.0</ele><time>2026-04-19T11:07:11.999Z</time></trkpt><trkpt lat="25.801999445303082" lon="-80.48255181189899"><ele>4.0</ele><time>2026-04-19T11:07:12.999Z</time></trkpt><trkpt lat="25.80209805140186" lon="-80.48254738499072"><ele>4.0</ele><time>2026-04-19T11:07:13.999Z</time></trkpt><trkpt lat="25.80219625108213" lon="-80.48254075712906"><ele>4.0</ele><time>2026-04-19T11:07:14.999Z</time></trkpt><trkpt lat="25.802292334264298" lon="-80.48253525244898"><ele>4.0</ele><time>2026-04-19T11:07:15.999Z</time></trkpt><trkpt lat="25.802388703637885" lon="-80.48253277994561"><ele>4.0</ele><time>2026-04-19T11:07:16.999Z</time></trkpt><trkpt lat="25.80248439973938" lon="-80.48253024029826"><ele>4.0</ele><time>2026-04-19T11:07:17.999Z</time></trkpt><trkpt lat="25.80258328697649" lon="-80.48252490224019"><ele>4.0</ele><time>2026-04-19T11:07:18.999Z</time></trkpt><trkpt lat="25.802681383191445" lon="-80.48251911698837"><ele>4.0</ele><time>2026-04-19T11:07:19.999Z</time></trkpt><trkpt lat="25.802779431342927" lon="-80.48251389249496"><ele>4.0</ele><time>2026-04-19T11:07:20.999Z</time></trkpt><trkpt lat="25.802878386670862" lon="-80.48251088364262"><ele>4.2</ele><time>2026-04-19T11:07:21.999Z</time></trkpt><trkpt lat="25.802976620674787" lon="-80.48250646185276"><ele>4.4</ele><time>2026-04-19T11:07:22.999Z</time></trkpt><trkpt lat="25.80307379161935" lon="-80.48250242953604"><ele>4.6</ele><time>2026-04-19T11:07:23.999Z</time></trkpt><trkpt lat="25.80317133475822" lon="-80.48249482905806"><ele>4.8</ele><time>2026-04-19T11:07:24.999Z</time></trkpt><trkpt lat="25.803268968715003" lon="-80.48248985426125"><ele>5.0</ele><time>2026-04-19T11:07:25.999Z</time></trkpt><trkpt lat="25.803367406794024" lon="-80.48248848855432"><ele>5.0</ele><time>2026-04-19T11:07:26.999Z</time></trkpt><trkpt lat="25.803465145444786" lon="-80.4824874199989"><ele>5.0</ele><time>2026-04-19T11:07:27.999Z</time></trkpt><trkpt lat="25.803561179073395" lon="-80.48248412879381"><ele>5.0</ele><time>2026-04-19T11:07:28.999Z</time></trkpt><trkpt lat="25.803658376334806" lon="-80.48247946014024"><ele>5.0</ele><time>2026-04-19T11:07:29.999Z</time></trkpt><trkpt lat="25.80375655129623" lon="-80.48247525843566"><ele>5.0</ele><time>2026-04-19T11:07:30.999Z</time></trkpt><trkpt lat="25.803854879312706" lon="-80.48247122653086"><ele>5.0</ele><time>2026-04-19T11:07:31.999Z</time></trkpt><trkpt lat="25.803950667332938" lon="-80.48246328821894"><ele>5.0</ele><time>2026-04-19T11:07:32.999Z</time></trkpt><trkpt lat="25.804044842114788" lon="-80.48245756852756"><ele>5.0</ele><time>2026-04-19T11:07:34Z</time></trkpt><trkpt lat="25.804136805732576" lon="-80.48245428975936"><ele>5.0</ele><time>2026-04-19T11:07:35Z</time></trkpt><trkpt lat="25.804234200060602" lon="-80.48245282898449"><ele>5.0</ele><time>2026-04-19T11:07:36Z</time></trkpt><trkpt lat="25.804333482060958" lon="-80.48245007597352"><ele>5.0</ele><time>2026-04-19T11:07:37Z</time></trkpt><trkpt lat="25.80443539247761" lon="-80.48244700418041"><ele>5.0</ele><time>2026-04-19T11:07:38Z</time></trkpt><trkpt lat="25.80453706281203" lon="-80.4824445868911"><ele>5.0</ele><time>2026-04-19T11:07:39Z</time></trkpt><trkpt lat="25.804639245995205" lon="-80.48243945436106"><ele>5.0</ele><time>2026-04-19T11:07:40Z</time></trkpt><trkpt lat="25.804741453675625" lon="-80.48243639159907"><ele>5.0</ele><time>2026-04-19T11:07:41Z</time></trkpt><trkpt lat="25.804842518554505" lon="-80.48242966944004"><ele>5.0</ele><time>2026-04-19T11:07:42Z</time></trkpt><trkpt lat="25.804942848384396" lon="-80.48242578270923"><ele>5.0</ele><time>2026-04-19T11:07:43Z</time></trkpt><trkpt lat="25.80504366579151" lon="-80.48242159364221"><ele>5.0</ele><time>2026-04-19T11:07:44Z</time></trkpt><trkpt lat="25.805143858697228" lon="-80.48241453192242"><ele>5.0</ele><time>2026-04-19T11:07:45Z</time></trkpt><trkpt lat="25.8052467524718" lon="-80.48241067451282"><ele>5.0</ele><time>2026-04-19T11:07:46Z</time></trkpt><trkpt lat="25.805348712341154" lon="-80.48240836765754"><ele>5.6</ele><time>2026-04-19T11:07:47Z</time></trkpt><trkpt lat="25.80545270161784" lon="-80.48240581058047"><ele>6.2</ele><time>2026-04-19T11:07:48Z</time></trkpt><trkpt lat="25.80555649757589" lon="-80.48240260919319"><ele>6.800000000000001</ele><time>2026-04-19T11:07:49Z</time></trkpt><trkpt lat="25.80566028064769" lon="-80.48239742040512"><ele>7.4</ele><time>2026-04-19T11:07:50Z</time></trkpt><trkpt lat="25.805765239024822" lon="-80.48239231584064"><ele>8.0</ele><time>2026-04-19T11:07:51Z</time></trkpt><trkpt lat="25.805868566020603" lon="-80.48238941001522"><ele>8.0</ele><time>2026-04-19T11:07:52Z</time></trkpt><trkpt lat="25.80597338221472" lon="-80.48238505368242"><ele>8.0</ele><time>2026-04-19T11:07:53Z</time></trkpt><trkpt lat="25.80607860636043" lon="-80.48238420684086"><ele>8.0</ele><time>2026-04-19T11:07:54Z</time></trkpt><trkpt lat="25.806186006444644" lon="-80.48237635220805"><ele>8.0</ele><time>2026-04-19T11:07:55Z</time></trkpt><trkpt lat="25.806292005639296" lon="-80.48236990198728"><ele>8.0</ele><time>2026-04-19T11:07:56Z</time></trkpt><trkpt lat="25.80639684615522" lon="-80.48236383753454"><ele>8.0</ele><time>2026-04-19T11:07:57Z</time></trkpt><trkpt lat="25.806500761159626" lon="-80.48236106651406"><ele>8.0</ele><time>2026-04-19T11:07:58Z</time></trkpt><trkpt lat="25.806605224366255" lon="-80.48235669567919"><ele>8.0</ele><time>2026-04-19T11:07:59Z</time></trkpt><trkpt lat="25.80670782463411" lon="-80.48235252669468"><ele>8.0</ele><time>2026-04-19T11:08:00Z</time></trkpt><trkpt lat="25.806809903643764" lon="-80.48234810400314"><ele>8.0</ele><time>2026-04-19T11:08:01Z</time></trkpt><trkpt lat="25.80691293956091" lon="-80.4823418606376"><ele>8.0</ele><time>2026-04-19T11:08:02Z</time></trkpt><trkpt lat="25.80701837716228" lon="-80.48234022586288"><ele>8.0</ele><time>2026-04-19T11:08:03Z</time></trkpt><trkpt lat="25.80712292805582" lon="-80.48233749161214"><ele>8.0</ele><time>2026-04-19T11:08:04Z</time></trkpt><trkpt lat="25.807227772477194" lon="-80.48233468653798"><ele>8.0</ele><time>2026-04-19T11:08:05Z</time></trkpt><trkpt lat="25.80733272463333" lon="-80.48232833576346"><ele>8.0</ele><time>2026-04-19T11:08:06Z</time></trkpt><trkpt lat="25.807439620119347" lon="-80.48232447984537"><ele>8.0</ele><time>2026-04-19T11:08:07Z</time></trkpt><trkpt lat="25.807546616533674" lon="-80.48232054851898"><ele>8.0</ele><time>2026-04-19T11:08:08Z</time></trkpt><trkpt lat="25.80765719693962" lon="-80.48231632498421"><ele>8.0</ele><time>2026-04-19T11:08:09Z</time></trkpt><trkpt lat="25.807767720729405" lon="-80.48231416901633"><ele>8.0</ele><time>2026-04-19T11:08:10Z</time></trkpt><trkpt lat="25.807877922901035" lon="-80.4823112286339"><ele>8.0</ele><time>2026-04-19T11:08:11Z</time></trkpt><trkpt lat="25.807988585661203" lon="-80.48230727669265"><ele>8.200000000000001</ele><time>2026-04-19T11:08:12Z</time></trkpt><trkpt lat="25.808095220373918" lon="-80.4822996358543"><ele>8.4</ele><time>2026-04-19T11:08:13Z</time></trkpt><trkpt lat="25.80820061486217" lon="-80.48229723160195"><ele>8.600000000000001</ele><time>2026-04-19T11:08:14Z</time></trkpt><trkpt lat="25.808303743196497" lon="-80.4822939415785"><ele>8.8</ele><time>2026-04-19T11:08:15Z</time></trkpt><trkpt lat="25.808407224425473" lon="-80.48229112169824"><ele>9.0</ele><time>2026-04-19T11:08:16Z</time></trkpt><trkpt lat="25.808511197961458" lon="-80.48229003585638"><ele>9.0</ele><time>2026-04-19T11:08:17Z</time></trkpt><trkpt lat="25.808618620234093" lon="-80.48228540295935"><ele>9.0</ele><time>2026-04-19T11:08:18Z</time></trkpt><trkpt lat="25.808726220633353" lon="-80.4822807352401"><ele>9.0</ele><time>2026-04-19T11:08:19Z</time></trkpt><trkpt lat="25.808835457207756" lon="-80.48227819814079"><ele>9.0</ele><time>2026-04-19T11:08:20Z</time></trkpt><trkpt lat="25.80894448695265" lon="-80.48227329452486"><ele>9.0</ele><time>2026-04-19T11:08:21Z</time></trkpt><trkpt lat="25.809054367418987" lon="-80.48226602308242"><ele>9.0</ele><time>2026-04-19T11:08:22Z</time></trkpt><trkpt lat="25.809163726831855" lon="-80.48226006462801"><ele>9.0</ele><time>2026-04-19T11:08:23Z</time></trkpt><trkpt lat="25.80927457172632" lon="-80.48225595490716"><ele>9.0</ele><time>2026-04-19T11:08:24Z</time></trkpt><trkpt lat="25.809383424505288" lon="-80.48225258175884"><ele>9.0</ele><time>2026-04-19T11:08:25Z</time></trkpt><trkpt lat="25.809491720900255" lon="-80.48224630623152"><ele>9.0</ele><time>2026-04-19T11:08:26Z</time></trkpt><trkpt lat="25.809598691916882" lon="-80.48224365856693"><ele>8.6</ele><time>2026-04-19T11:08:27Z</time></trkpt><trkpt lat="25.80970454404809" lon="-80.48223966686992"><ele>8.2</ele><time>2026-04-19T11:08:28Z</time></trkpt><trkpt lat="25.809811937763993" lon="-80.48223584708573"><ele>7.799999999999999</ele><time>2026-04-19T11:08:29Z</time></trkpt><trkpt lat="25.80992050515959" lon="-80.48223210736147"><ele>7.3999999999999995</ele><time>2026-04-19T11:08:30Z</time></trkpt><trkpt lat="25.81002713735586" lon="-80.48222766846888"><ele>7.0</ele><time>2026-04-19T11:08:31Z</time></trkpt><trkpt lat="25.810135240823524" lon="-80.48222149207339"><ele>6.8</ele><time>2026-04-19T11:08:32Z</time></trkpt><trkpt lat="25.81024348991366" lon="-80.48221806950403"><ele>6.6</ele><time>2026-04-19T11:08:33Z</time></trkpt><trkpt lat="25.810352076683543" lon="-80.48221443826479"><ele>6.3999999999999995</ele><time>2026-04-19T11:08:34Z</time></trkpt><trkpt lat="25.810461655721905" lon="-80.48221151831422"><ele>6.199999999999999</ele><time>2026-04-19T11:08:35Z</time></trkpt><trkpt lat="25.810571943324252" lon="-80.48220694006628"><ele>6.0</ele><time>2026-04-19T11:08:36Z</time></trkpt><trkpt lat="25.81067980575797" lon="-80.48220319563522"><ele>6.0</ele><time>2026-04-19T11:08:37Z</time></trkpt><trkpt lat="25.81078706569273" lon="-80.4821972586523"><ele>6.0</ele><time>2026-04-19T11:08:38Z</time></trkpt><trkpt lat="25.810895775466854" lon="-80.48219503185015"><ele>6.0</ele><time>2026-04-19T11:08:39Z</time></trkpt><trkpt lat="25.81100510085801" lon="-80.482190384031"><ele>6.0</ele><time>2026-04-19T11:08:40Z</time></trkpt><trkpt lat="25.811113800790608" lon="-80.48218572488592"><ele>6.0</ele><time>2026-04-19T11:08:41Z</time></trkpt><trkpt lat="25.811223900659204" lon="-80.48218362537071"><ele>6.4</ele><time>2026-04-19T11:08:42Z</time></trkpt><trkpt lat="25.811334148426198" lon="-80.4821819860961"><ele>6.8</ele><time>2026-04-19T11:08:43Z</time></trkpt><trkpt lat="25.811444431359032" lon="-80.48217946626936"><ele>7.200000000000001</ele><time>2026-04-19T11:08:44Z</time></trkpt><trkpt lat="25.811553238686958" lon="-80.48217492210655"><ele>7.6000000000000005</ele><time>2026-04-19T11:08:45Z</time></trkpt><trkpt lat="25.81166349885017" lon="-80.4821760614595"><ele>8.0</ele><time>2026-04-19T11:08:46Z</time></trkpt><trkpt lat="25.81177340036631" lon="-80.482173712268"><ele>8.0</ele><time>2026-04-19T11:08:47Z</time></trkpt><trkpt lat="25.811883319754465" lon="-80.48217302894247"><ele>8.0</ele><time>2026-04-19T11:08:48Z</time></trkpt><trkpt lat="25.811990874230816" lon="-80.48217320582782"><ele>8.0</ele><time>2026-04-19T11:08:49Z</time></trkpt><trkpt lat="25.81210076708722" lon="-80.48217581690935"><ele>8.0</ele><time>2026-04-19T11:08:50Z</time></trkpt><trkpt lat="25.812208809161152" lon="-80.48217602865769"><ele>8.0</ele><time>2026-04-19T11:08:51Z</time></trkpt><trkpt lat="25.812317827877195" lon="-80.48217724147865"><ele>8.0</ele><time>2026-04-19T11:08:52Z</time></trkpt><trkpt lat="25.812426796280135" lon="-80.48217839781495"><ele>8.0</ele><time>2026-04-19T11:08:53Z</time></trkpt><trkpt lat="25.812533360769923" lon="-80.4821797749085"><ele>8.0</ele><time>2026-04-19T11:08:54Z</time></trkpt><trkpt lat="25.812642379350677" lon="-80.48218431265057"><ele>8.0</ele><time>2026-04-19T11:08:55Z</time></trkpt><trkpt lat="25.81274787881986" lon="-80.48218549168114"><ele>8.0</ele><time>2026-04-19T11:08:56Z</time></trkpt><trkpt lat="25.812853835867283" lon="-80.48218744214783"><ele>8.0</ele><time>2026-04-19T11:08:56.999Z</time></trkpt><trkpt lat="25.8129611554431" lon="-80.48219151070934"><ele>8.0</ele><time>2026-04-19T11:08:57.999Z</time></trkpt><trkpt lat="25.81306807587842" lon="-80.48219408031612"><ele>8.0</ele><time>2026-04-19T11:08:58.999Z</time></trkpt><trkpt lat="25.813177442319926" lon="-80.48220028961794"><ele>8.0</ele><time>2026-04-19T11:08:59.999Z</time></trkpt><trkpt lat="25.813285350405135" lon="-80.48220590298025"><ele>8.0</ele><time>2026-04-19T11:09:00.999Z</time></trkpt><trkpt lat="25.813391800080296" lon="-80.48220945361281"><ele>8.4</ele><time>2026-04-19T11:09:01.999Z</time></trkpt><trkpt lat="25.81349634095885" lon="-80.4822137059433"><ele>8.8</ele><time>2026-04-19T11:09:02.999Z</time></trkpt><trkpt lat="25.813602268947385" lon="-80.48221995255005"><ele>9.2</ele><time>2026-04-19T11:09:03.999Z</time></trkpt><trkpt lat="25.81370913931282" lon="-80.48222553547528"><ele>9.6</ele><time>2026-04-19T11:09:04.999Z</time></trkpt><trkpt lat="25.81381427918581" lon="-80.48223236454606"><ele>10.0</ele><time>2026-04-19T11:09:05.999Z</time></trkpt><trkpt lat="25.81392022423304" lon="-80.48223708461232"><ele>10.0</ele><time>2026-04-19T11:09:06.999Z</time></trkpt><trkpt lat="25.814025107591984" lon="-80.48224000666717"><ele>10.0</ele><time>2026-04-19T11:09:07.999Z</time></trkpt><trkpt lat="25.814129689810713" lon="-80.48223972894397"><ele>10.0</ele><time>2026-04-19T11:09:08.999Z</time></trkpt><trkpt lat="25.814237216988225" lon="-80.48224061040018"><ele>10.0</ele><time>2026-04-19T11:09:09.999Z</time></trkpt><trkpt lat="25.81434509898139" lon="-80.48224572956097"><ele>10.0</ele><time>2026-04-19T11:09:10.999Z</time></trkpt><trkpt lat="25.81445219933889" lon="-80.4822519200818"><ele>9.6</ele><time>2026-04-19T11:09:11.999Z</time></trkpt><trkpt lat="25.814560071638542" lon="-80.48225650060768"><ele>9.2</ele><time>2026-04-19T11:09:12.999Z</time></trkpt><trkpt lat="25.81466823700766" lon="-80.48226059151138"><ele>8.8</ele><time>2026-04-19T11:09:13.999Z</time></trkpt><trkpt lat="25.814777242239472" lon="-80.48226581759884"><ele>8.4</ele><time>2026-04-19T11:09:14.999Z</time></trkpt><trkpt lat="25.81488699849903" lon="-80.48227061089322"><ele>8.0</ele><time>2026-04-19T11:09:15.999Z</time></trkpt><trkpt lat="25.81499427780461" lon="-80.482272983754"><ele>8.0</ele><time>2026-04-19T11:09:16.999Z</time></trkpt><trkpt lat="25.815102350209624" lon="-80.48227529834496"><ele>8.0</ele><time>2026-04-19T11:09:17.999Z</time></trkpt><trkpt lat="25.815208507899445" lon="-80.48227984467174"><ele>8.0</ele><time>2026-04-19T11:09:18.999Z</time></trkpt><trkpt lat="25.81531232857018" lon="-80.48228337295922"><ele>8.0</ele><time>2026-04-19T11:09:19.999Z</time></trkpt><trkpt lat="25.815415311309856" lon="-80.48228919319342"><ele>8.0</ele><time>2026-04-19T11:09:20.999Z</time></trkpt><trkpt lat="25.815517195620405" lon="-80.48229347191732"><ele>8.200000000000001</ele><time>2026-04-19T11:09:21.999Z</time></trkpt><trkpt lat="25.815619019150354" lon="-80.48229592777906"><ele>8.4</ele><time>2026-04-19T11:09:22.999Z</time></trkpt><trkpt lat="25.81571794044701" lon="-80.48229974767308"><ele>8.600000000000001</ele><time>2026-04-19T11:09:23.999Z</time></trkpt><trkpt lat="25.815819718918643" lon="-80.48230384113349"><ele>8.8</ele><time>2026-04-19T11:09:24.999Z</time></trkpt><trkpt lat="25.815920689379606" lon="-80.48230630508452"><ele>9.0</ele><time>2026-04-19T11:09:25.999Z</time></trkpt><trkpt lat="25.816024010965954" lon="-80.48231163699332"><ele>9.0</ele><time>2026-04-19T11:09:26.999Z</time></trkpt><trkpt lat="25.816126260800438" lon="-80.48231749443516"><ele>9.0</ele><time>2026-04-19T11:09:27.999Z</time></trkpt><trkpt lat="25.816231538941402" lon="-80.48232461666474"><ele>9.0</ele><time>2026-04-19T11:09:28.999Z</time></trkpt><trkpt lat="25.81633589984576" lon="-80.48233031928329"><ele>9.0</ele><time>2026-04-19T11:09:29.999Z</time></trkpt><trkpt lat="25.81644226513845" lon="-80.48233461440466"><ele>9.0</ele><time>2026-04-19T11:09:30.999Z</time></trkpt><trkpt lat="25.81655013043201" lon="-80.48233506829538"><ele>9.0</ele><time>2026-04-19T11:09:31.999Z</time></trkpt><trkpt lat="25.81665956391524" lon="-80.4823394013212"><ele>9.0</ele><time>2026-04-19T11:09:32.999Z</time></trkpt><trkpt lat="25.816767537443347" lon="-80.48234316625548"><ele>9.0</ele><time>2026-04-19T11:09:33.999Z</time></trkpt><trkpt lat="25.81687790138361" lon="-80.48234569544617"><ele>9.0</ele><time>2026-04-19T11:09:34.999Z</time></trkpt><trkpt lat="25.816986616434182" lon="-80.48234767033297"><ele>9.0</ele><time>2026-04-19T11:09:35.999Z</time></trkpt><trkpt lat="25.81709477035978" lon="-80.48235262140497"><ele>8.8</ele><time>2026-04-19T11:09:36.999Z</time></trkpt><trkpt lat="25.817200959868146" lon="-80.4823576873932"><ele>8.600000000000001</ele><time>2026-04-19T11:09:37.999Z</time></trkpt><trkpt lat="25.817307623504266" lon="-80.48236505079477"><ele>8.4</ele><time>2026-04-19T11:09:38.999Z</time></trkpt><trkpt lat="25.817412358216718" lon="-80.48236743782041"><ele>8.200000000000001</ele><time>2026-04-19T11:09:40Z</time></trkpt><trkpt lat="25.817516657181464" lon="-80.48236859792028"><ele>8.0</ele><time>2026-04-19T11:09:41Z</time></trkpt><trkpt lat="25.817619950059136" lon="-80.48237153911273"><ele>7.6000000000000005</ele><time>2026-04-19T11:09:42Z</time></trkpt><trkpt lat="25.8177239198649" lon="-80.48237567354941"><ele>7.200000000000001</ele><time>2026-04-19T11:09:43Z</time></trkpt><trkpt lat="25.81782892116519" lon="-80.48238718447057"><ele>6.8</ele><time>2026-04-19T11:09:44Z</time></trkpt><trkpt lat="25.817935681174003" lon="-80.4823910335817"><ele>6.4</ele><time>2026-04-19T11:09:45Z</time></trkpt><trkpt lat="25.818044847785718" lon="-80.4823905204659"><ele>6.0</ele><time>2026-04-19T11:09:46Z</time></trkpt><trkpt lat="25.818155606372162" lon="-80.48239583504026"><ele>6.0</ele><time>2026-04-19T11:09:47Z</time></trkpt><trkpt lat="25.818269405954382" lon="-80.48240138010014"><ele>6.0</ele><time>2026-04-19T11:09:48Z</time></trkpt><trkpt lat="25.818381559840176" lon="-80.48240578406994"><ele>6.0</ele><time>2026-04-19T11:09:49Z</time></trkpt><trkpt lat="25.818495154915183" lon="-80.48241272559908"><ele>6.0</ele><time>2026-04-19T11:09:50Z</time></trkpt><trkpt lat="25.81860756058732" lon="-80.48242113826116"><ele>6.6</ele><time>2026-04-19T11:09:51Z</time></trkpt><trkpt lat="25.81872015572947" lon="-80.48242940580752"><ele>7.199999999999999</ele><time>2026-04-19T11:09:52Z</time></trkpt><trkpt lat="25.818830138329236" lon="-80.4824303315639"><ele>7.800000000000001</ele><time>2026-04-19T11:09:53Z</time></trkpt><trkpt lat="25.818940109849226" lon="-80.48243347784862"><ele>8.4</ele><time>2026-04-19T11:09:54Z</time></trkpt><trkpt lat="25.81904995761142" lon="-80.48243579650155"><ele>9.0</ele><time>2026-04-19T11:09:55Z</time></trkpt><trkpt lat="25.819160383463306" lon="-80.48244219952628"><ele>9.0</ele><time>2026-04-19T11:09:56Z</time></trkpt><trkpt lat="25.81927118689045" lon="-80.48244922048687"><ele>9.0</ele><time>2026-04-19T11:09:57Z</time></trkpt><trkpt lat="25.819381702776074" lon="-80.48245202484972"><ele>9.0</ele><time>2026-04-19T11:09:58Z</time></trkpt><trkpt lat="25.819489500072066" lon="-80.48245542048511"><ele>9.0</ele><time>2026-04-19T11:09:59Z</time></trkpt><trkpt lat="25.81959781561521" lon="-80.48245957020816"><ele>9.0</ele><time>2026-04-19T11:10:00Z</time></trkpt><trkpt lat="25.819703065388488" lon="-80.48246051859832"><ele>9.0</ele><time>2026-04-19T11:10:01Z</time></trkpt><trkpt lat="25.81980697271917" lon="-80.48246766550815"><ele>9.0</ele><time>2026-04-19T11:10:02Z</time></trkpt><trkpt lat="25.819909666375374" lon="-80.48247334925243"><ele>9.0</ele><time>2026-04-19T11:10:03Z</time></trkpt><trkpt lat="25.82001243359604" lon="-80.48247572325408"><ele>9.0</ele><time>2026-04-19T11:10:04Z</time></trkpt><trkpt lat="25.82011599945405" lon="-80.48248091291806"><ele>9.0</ele><time>2026-04-19T11:10:05Z</time></trkpt><trkpt lat="25.820218908009352" lon="-80.48248583718664"><ele>9.0</ele><time>2026-04-19T11:10:06Z</time></trkpt><trkpt lat="25.820320523445105" lon="-80.48248727034282"><ele>9.0</ele><time>2026-04-19T11:10:07Z</time></trkpt><trkpt lat="25.82042447851042" lon="-80.48249042804372"><ele>9.0</ele><time>2026-04-19T11:10:08Z</time></trkpt><trkpt lat="25.820528661353844" lon="-80.48249464770504"><ele>9.0</ele><time>2026-04-19T11:10:09Z</time></trkpt><trkpt lat="25.82063486843958" lon="-80.48249699471269"><ele>9.0</ele><time>2026-04-19T11:10:10Z</time></trkpt><trkpt lat="25.820741008626623" lon="-80.48249462282813"><ele>9.0</ele><time>2026-04-19T11:10:11Z</time></trkpt><trkpt lat="25.82084739062919" lon="-80.48249614480163"><ele>9.0</ele><time>2026-04-19T11:10:12Z</time></trkpt><trkpt lat="25.820955014813187" lon="-80.48250202504583"><ele>9.0</ele><time>2026-04-19T11:10:13Z</time></trkpt><trkpt lat="25.821062722416325" lon="-80.48250715366217"><ele>9.0</ele><time>2026-04-19T11:10:14Z</time></trkpt><trkpt lat="25.821170925324836" lon="-80.48251092843824"><ele>9.0</ele><time>2026-04-19T11:10:15Z</time></trkpt><trkpt lat="25.82128144689484" lon="-80.48251776755718"><ele>8.6</ele><time>2026-04-19T11:10:16Z</time></trkpt><trkpt lat="25.8213894950425" lon="-80.48252188076967"><ele>8.2</ele><time>2026-04-19T11:10:17Z</time></trkpt><trkpt lat="25.82149886018492" lon="-80.48252784587056"><ele>7.799999999999999</ele><time>2026-04-19T11:10:18Z</time></trkpt><trkpt lat="25.82160704009184" lon="-80.48253245176544"><ele>7.3999999999999995</ele><time>2026-04-19T11:10:19Z</time></trkpt><trkpt lat="25.821715289195396" lon="-80.48253629663164"><ele>7.0</ele><time>2026-04-19T11:10:20Z</time></trkpt><trkpt lat="25.821824224434145" lon="-80.48254170031863"><ele>7.0</ele><time>2026-04-19T11:10:21Z</time></trkpt><trkpt lat="25.82193288429189" lon="-80.48254873798524"><ele>6.999999999999999</ele><time>2026-04-19T11:10:22Z</time></trkpt><trkpt lat="25.822041411788902" lon="-80.48255612514009"><ele>6.999999999999999</ele><time>2026-04-19T11:10:23Z</time></trkpt><trkpt lat="25.822150301167714" lon="-80.48255797099509"><ele>7.0</ele><time>2026-04-19T11:10:24Z</time></trkpt><trkpt lat="25.822258586477506" lon="-80.48256068178867"><ele>7.0</ele><time>2026-04-19T11:10:25Z</time></trkpt><trkpt lat="25.822363671334113" lon="-80.48256407195598"><ele>7.0</ele><time>2026-04-19T11:10:26Z</time></trkpt><trkpt lat="25.822468088904508" lon="-80.48257015675168"><ele>6.999999999999999</ele><time>2026-04-19T11:10:27Z</time></trkpt><trkpt lat="25.822571331158855" lon="-80.48257529173164"><ele>6.999999999999999</ele><time>2026-04-19T11:10:28Z</time></trkpt><trkpt lat="25.822674205680894" lon="-80.48258050922108"><ele>7.0</ele><time>2026-04-19T11:10:29Z</time></trkpt><trkpt lat="25.822775613435514" lon="-80.48258322881523"><ele>7.0</ele><time>2026-04-19T11:10:30Z</time></trkpt><trkpt lat="25.82287800860669" lon="-80.48258448182877"><ele>7.0</ele><time>2026-04-19T11:10:31Z</time></trkpt><trkpt lat="25.82297997302031" lon="-80.48258899548638"><ele>6.999999999999999</ele><time>2026-04-19T11:10:32Z</time></trkpt><trkpt lat="25.823082176553854" lon="-80.48258921489592"><ele>6.999999999999999</ele><time>2026-04-19T11:10:33Z</time></trkpt><trkpt lat="25.823185165737314" lon="-80.48258987210349"><ele>7.0</ele><time>2026-04-19T11:10:34Z</time></trkpt><trkpt lat="25.823288192791505" lon="-80.48259418218308"><ele>7.0</ele><time>2026-04-19T11:10:35Z</time></trkpt><trkpt lat="25.823390932932615" lon="-80.4825992973552"><ele>7.199999999999999</ele><time>2026-04-19T11:10:36Z</time></trkpt><trkpt lat="25.82349336718081" lon="-80.48260376562517"><ele>7.3999999999999995</ele><time>2026-04-19T11:10:37Z</time></trkpt><trkpt lat="25.823596297964436" lon="-80.48260513246453"><ele>7.6000000000000005</ele><time>2026-04-19T11:10:38Z</time></trkpt><trkpt lat="25.823697110090833" lon="-80.48260375695024"><ele>7.800000000000001</ele><time>2026-04-19T11:10:39Z</time></trkpt><trkpt lat="25.823797784433882" lon="-80.4826091231816"><ele>8.0</ele><time>2026-04-19T11:10:40Z</time></trkpt><trkpt lat="25.823897330988142" lon="-80.48261399054913"><ele>8.0</ele><time>2026-04-19T11:10:41Z</time></trkpt><trkpt lat="25.823998859279396" lon="-80.48262067502456"><ele>8.0</ele><time>2026-04-19T11:10:42Z</time></trkpt><trkpt lat="25.824102777237005" lon="-80.48262393527338"><ele>8.0</ele><time>2026-04-19T11:10:43Z</time></trkpt><trkpt lat="25.824207122010662" lon="-80.4826265099312"><ele>8.0</ele><time>2026-04-19T11:10:44Z</time></trkpt><trkpt lat="25.824312110634224" lon="-80.48262999274243"><ele>8.0</ele><time>2026-04-19T11:10:45Z</time></trkpt><trkpt lat="25.824416923573978" lon="-80.48263524317696"><ele>8.200000000000001</ele><time>2026-04-19T11:10:46Z</time></trkpt><trkpt lat="25.824522274255262" lon="-80.48263993908927"><ele>8.4</ele><time>2026-04-19T11:10:47Z</time></trkpt><trkpt lat="25.824628072172423" lon="-80.48264489102722"><ele>8.600000000000001</ele><time>2026-04-19T11:10:48Z</time></trkpt><trkpt lat="25.82473594041117" lon="-80.48265028884299"><ele>8.8</ele><time>2026-04-19T11:10:49Z</time></trkpt><trkpt lat="25.824845531390388" lon="-80.4826538860822"><ele>9.0</ele><time>2026-04-19T11:10:50Z</time></trkpt><trkpt lat="25.82495677527936" lon="-80.48265287648884"><ele>9.0</ele><time>2026-04-19T11:10:51Z</time></trkpt><trkpt lat="25.8250681289" lon="-80.48265533812503"><ele>9.0</ele><time>2026-04-19T11:10:52Z</time></trkpt><trkpt lat="25.825178234848394" lon="-80.48266033520537"><ele>9.0</ele><time>2026-04-19T11:10:53Z</time></trkpt><trkpt lat="25.82528605025072" lon="-80.4826645549446"><ele>9.0</ele><time>2026-04-19T11:10:54Z</time></trkpt><trkpt lat="25.82539291369815" lon="-80.48266873996349"><ele>9.0</ele><time>2026-04-19T11:10:55Z</time></trkpt><trkpt lat="25.82549547736627" lon="-80.48267143548823"><ele>8.6</ele><time>2026-04-19T11:10:56Z</time></trkpt><trkpt lat="25.82559726009679" lon="-80.48267288630466"><ele>8.2</ele><time>2026-04-19T11:10:57Z</time></trkpt><trkpt lat="25.825702330196872" lon="-80.48267969183387"><ele>7.799999999999999</ele><time>2026-04-19T11:10:58Z</time></trkpt><trkpt lat="25.82580979808087" lon="-80.48268541710799"><ele>7.3999999999999995</ele><time>2026-04-19T11:10:59Z</time></trkpt><trkpt lat="25.825918174371786" lon="-80.48269371183704"><ele>7.0</ele><time>2026-04-19T11:10:59.999Z</time></trkpt><trkpt lat="25.826025207260024" lon="-80.48269891844622"><ele>6.8</ele><time>2026-04-19T11:11:00.999Z</time></trkpt><trkpt lat="25.826132157929212" lon="-80.48270686848932"><ele>6.6</ele><time>2026-04-19T11:11:01.999Z</time></trkpt><trkpt lat="25.82623924871379" lon="-80.48271035959118"><ele>6.3999999999999995</ele><time>2026-04-19T11:11:02.999Z</time></trkpt><trkpt lat="25.82634359065227" lon="-80.48270775430811"><ele>6.199999999999999</ele><time>2026-04-19T11:11:03.999Z</time></trkpt><trkpt lat="25.826450635734332" lon="-80.48270675100467"><ele>6.0</ele><time>2026-04-19T11:11:04.999Z</time></trkpt><trkpt lat="25.826558520779248" lon="-80.48271171348021"><ele>6.0</ele><time>2026-04-19T11:11:05.999Z</time></trkpt><trkpt lat="25.826665080344775" lon="-80.48271557569794"><ele>6.0</ele><time>2026-04-19T11:11:06.999Z</time></trkpt><trkpt lat="25.82677321840925" lon="-80.48272221594289"><ele>6.0</ele><time>2026-04-19T11:11:07.999Z</time></trkpt><trkpt lat="25.826881510299025" lon="-80.48272568737686"><ele>6.0</ele><time>2026-04-19T11:11:08.999Z</time></trkpt><trkpt lat="25.826989076501373" lon="-80.48273138336049"><ele>6.0</ele><time>2026-04-19T11:11:09.999Z</time></trkpt><trkpt lat="25.827095612220393" lon="-80.48273450100925"><ele>5.8</ele><time>2026-04-19T11:11:10.999Z</time></trkpt><trkpt lat="25.827201646243225" lon="-80.48274074011573"><ele>5.6</ele><time>2026-04-19T11:11:11.999Z</time></trkpt><trkpt lat="25.827309479283283" lon="-80.48274829559195"><ele>5.4</ele><time>2026-04-19T11:11:12.999Z</time></trkpt><trkpt lat="25.82741690690886" lon="-80.48275244155673"><ele>5.2</ele><time>2026-04-19T11:11:13.999Z</time></trkpt><trkpt lat="25.827524813913115" lon="-80.48275652396319"><ele>5.0</ele><time>2026-04-19T11:11:14.999Z</time></trkpt><trkpt lat="25.82763271998439" lon="-80.48276257374089"><ele>5.0</ele><time>2026-04-19T11:11:15.999Z</time></trkpt><trkpt lat="25.827737791443607" lon="-80.48276507629288"><ele>5.0</ele><time>2026-04-19T11:11:16.999Z</time></trkpt><trkpt lat="25.827844600907653" lon="-80.48276309795767"><ele>5.0</ele><time>2026-04-19T11:11:17.999Z</time></trkpt><trkpt lat="25.827950227382516" lon="-80.48276583897258"><ele>5.0</ele><time>2026-04-19T11:11:18.999Z</time></trkpt><trkpt lat="25.828055742524274" lon="-80.48276958031504"><ele>5.0</ele><time>2026-04-19T11:11:19.999Z</time></trkpt><trkpt lat="25.828163781898297" lon="-80.48277220166737"><ele>5.0</ele><time>2026-04-19T11:11:20.999Z</time></trkpt><trkpt lat="25.82827297207196" lon="-80.48277706987302"><ele>5.0</ele><time>2026-04-19T11:11:21.999Z</time></trkpt><trkpt lat="25.828383251634946" lon="-80.48278402221439"><ele>5.0</ele><time>2026-04-19T11:11:22.999Z</time></trkpt><trkpt lat="25.828492721595445" lon="-80.48278781899465"><ele>5.0</ele><time>2026-04-19T11:11:23.999Z</time></trkpt><trkpt lat="25.828600437073483" lon="-80.48279215209874"><ele>5.0</ele><time>2026-04-19T11:11:24.999Z</time></trkpt><trkpt lat="25.82870810276881" lon="-80.48279862125591"><ele>5.0</ele><time>2026-04-19T11:11:25.999Z</time></trkpt><trkpt lat="25.8288149476819" lon="-80.48280297037627"><ele>5.0</ele><time>2026-04-19T11:11:26.999Z</time></trkpt><trkpt lat="25.828920786424494" lon="-80.48280729355888"><ele>5.0</ele><time>2026-04-19T11:11:27.999Z</time></trkpt><trkpt lat="25.829025861669184" lon="-80.48281171664262"><ele>5.0</ele><time>2026-04-19T11:11:28.999Z</time></trkpt><trkpt lat="25.82913317027636" lon="-80.48281378599312"><ele>5.0</ele><time>2026-04-19T11:11:29.999Z</time></trkpt><trkpt lat="25.82924054956299" lon="-80.48281660964125"><ele>5.0</ele><time>2026-04-19T11:11:30.999Z</time></trkpt><trkpt lat="25.82934978673649" lon="-80.4828244741055"><ele>5.0</ele><time>2026-04-19T11:11:31.999Z</time></trkpt><trkpt lat="25.829459095069424" lon="-80.48282913419165"><ele>5.0</ele><time>2026-04-19T11:11:32.999Z</time></trkpt><trkpt lat="25.82956776413846" lon="-80.48283168860993"><ele>5.0</ele><time>2026-04-19T11:11:33.999Z</time></trkpt><trkpt lat="25.829676723610586" lon="-80.48283446219544"><ele>5.0</ele><time>2026-04-19T11:11:34.999Z</time></trkpt><trkpt lat="25.82978495914556" lon="-80.482841884479"><ele>5.0</ele><time>2026-04-19T11:11:35.999Z</time></trkpt><trkpt lat="25.829894356618187" lon="-80.48284679029562"><ele>5.0</ele><time>2026-04-19T11:11:36.999Z</time></trkpt><trkpt lat="25.830003235011244" lon="-80.48285113093347"><ele>5.0</ele><time>2026-04-19T11:11:37.999Z</time></trkpt><trkpt lat="25.830114587802637" lon="-80.48285559212381"><ele>5.0</ele><time>2026-04-19T11:11:38.999Z</time></trkpt><trkpt lat="25.830225286979907" lon="-80.48286286296278"><ele>5.0</ele><time>2026-04-19T11:11:39.999Z</time></trkpt><trkpt lat="25.83033525479808" lon="-80.48286712118244"><ele>5.0</ele><time>2026-04-19T11:11:40.999Z</time></trkpt><trkpt lat="25.830445665080944" lon="-80.48287232067239"><ele>5.0</ele><time>2026-04-19T11:11:41.999Z</time></trkpt><trkpt lat="25.830554840259797" lon="-80.48287565259064"><ele>5.0</ele><time>2026-04-19T11:11:42.999Z</time></trkpt><trkpt lat="25.83066293592669" lon="-80.48287794649053"><ele>5.0</ele><time>2026-04-19T11:11:43.999Z</time></trkpt><trkpt lat="25.830773043114714" lon="-80.4828806048766"><ele>5.0</ele><time>2026-04-19T11:11:44.999Z</time></trkpt><trkpt lat="25.830884865552775" lon="-80.48288606909041"><ele>4.8</ele><time>2026-04-19T11:11:46Z</time></trkpt><trkpt lat="25.83099191950303" lon="-80.4828913543275"><ele>4.6</ele><time>2026-04-19T11:11:47Z</time></trkpt><trkpt lat="25.831101482285423" lon="-80.48289717704152"><ele>4.4</ele><time>2026-04-19T11:11:48Z</time></trkpt><trkpt lat="25.831211207513586" lon="-80.48290302859287"><ele>4.2</ele><time>2026-04-19T11:11:49Z</time></trkpt><trkpt lat="25.831321388062882" lon="-80.48290511359886"><ele>4.0</ele><time>2026-04-19T11:11:50Z</time></trkpt><trkpt lat="25.831430511180635" lon="-80.48290751417503"><ele>4.0</ele><time>2026-04-19T11:11:51Z</time></trkpt><trkpt lat="25.831540381438913" lon="-80.48290989380587"><ele>4.0</ele><time>2026-04-19T11:11:52Z</time></trkpt><trkpt lat="25.831649860262136" lon="-80.48291244850378"><ele>4.0</ele><time>2026-04-19T11:11:53Z</time></trkpt><trkpt lat="25.83175738035911" lon="-80.48291540194712"><ele>4.0</ele><time>2026-04-19T11:11:54Z</time></trkpt><trkpt lat="25.831865732361155" lon="-80.48292377357436"><ele>4.0</ele><time>2026-04-19T11:11:55Z</time></trkpt><trkpt lat="25.8319727238445" lon="-80.48292568735029"><ele>4.4</ele><time>2026-04-19T11:11:56Z</time></trkpt><trkpt lat="25.8320788938531" lon="-80.48293129175339"><ele>4.800000000000001</ele><time>2026-04-19T11:11:57Z</time></trkpt><trkpt lat="25.832185210883146" lon="-80.48293851763523"><ele>5.199999999999999</ele><time>2026-04-19T11:11:58Z</time></trkpt><trkpt lat="25.832291915253137" lon="-80.48294200481611"><ele>5.6</ele><time>2026-04-19T11:11:59Z</time></trkpt><trkpt lat="25.83240061218338" lon="-80.48294832729457"><ele>6.0</ele><time>2026-04-19T11:12:00Z</time></trkpt><trkpt lat="25.83250774837526" lon="-80.48295111624341"><ele>6.0</ele><time>2026-04-19T11:12:01Z</time></trkpt><trkpt lat="25.83261543763273" lon="-80.48295549222762"><ele>6.0</ele><time>2026-04-19T11:12:02Z</time></trkpt><trkpt lat="25.832721253344566" lon="-80.48296086613007"><ele>6.0</ele><time>2026-04-19T11:12:03Z</time></trkpt><trkpt lat="25.832827927477943" lon="-80.48296253709597"><ele>6.0</ele><time>2026-04-19T11:12:04Z</time></trkpt><trkpt lat="25.832933502984748" lon="-80.48296651778683"><ele>6.0</ele><time>2026-04-19T11:12:05Z</time></trkpt><trkpt lat="25.83304047905401" lon="-80.48297359805265"><ele>6.0</ele><time>2026-04-19T11:12:06Z</time></trkpt><trkpt lat="25.833148217931843" lon="-80.48297755480868"><ele>6.0</ele><time>2026-04-19T11:12:07Z</time></trkpt><trkpt lat="25.83325711785279" lon="-80.48298368195977"><ele>6.0</ele><time>2026-04-19T11:12:08Z</time></trkpt><trkpt lat="25.833365748224356" lon="-80.48299276986674"><ele>6.0</ele><time>2026-04-19T11:12:09Z</time></trkpt><trkpt lat="25.833472998420284" lon="-80.48299929177502"><ele>6.0</ele><time>2026-04-19T11:12:10Z</time></trkpt><trkpt lat="25.833580362225376" lon="-80.48300075263847"><ele>6.0</ele><time>2026-04-19T11:12:11Z</time></trkpt><trkpt lat="25.833686569323564" lon="-80.48300445663699"><ele>6.0</ele><time>2026-04-19T11:12:12Z</time></trkpt><trkpt lat="25.833795045323225" lon="-80.48301279969337"><ele>6.0</ele><time>2026-04-19T11:12:13Z</time></trkpt><trkpt lat="25.833902742204764" lon="-80.48301676700115"><ele>6.0</ele><time>2026-04-19T11:12:14Z</time></trkpt><trkpt lat="25.834012096120535" lon="-80.48301783113237"><ele>6.0</ele><time>2026-04-19T11:12:15Z</time></trkpt><trkpt lat="25.83412115142007" lon="-80.48302255423422"><ele>6.0</ele><time>2026-04-19T11:12:16Z</time></trkpt><trkpt lat="25.834230244737498" lon="-80.48302624661244"><ele>6.0</ele><time>2026-04-19T11:12:17Z</time></trkpt><trkpt lat="25.834337932187974" lon="-80.48302742679833"><ele>6.0</ele><time>2026-04-19T11:12:18Z</time></trkpt><trkpt lat="25.834446604373653" lon="-80.48303023362654"><ele>6.0</ele><time>2026-04-19T11:12:19Z</time></trkpt><trkpt lat="25.834555361813358" lon="-80.48303502952916"><ele>6.0</ele><time>2026-04-19T11:12:20Z</time></trkpt><trkpt lat="25.83466095918712" lon="-80.48303644852562"><ele>6.0</ele><time>2026-04-19T11:12:21Z</time></trkpt><trkpt lat="25.834764467081" lon="-80.48303986783932"><ele>6.0</ele><time>2026-04-19T11:12:22Z</time></trkpt><trkpt lat="25.83486914771587" lon="-80.48304824778103"><ele>6.0</ele><time>2026-04-19T11:12:23Z</time></trkpt><trkpt lat="25.834973847593936" lon="-80.4830547546992"><ele>6.0</ele><time>2026-04-19T11:12:24Z</time></trkpt><trkpt lat="25.83507893155289" lon="-80.48306051141667"><ele>6.0</ele><time>2026-04-19T11:12:25Z</time></trkpt><trkpt lat="25.8351851068349" lon="-80.48306439793629"><ele>5.8</ele><time>2026-04-19T11:12:26Z</time></trkpt><trkpt lat="25.835291258759444" lon="-80.48306668630856"><ele>5.6</ele><time>2026-04-19T11:12:27Z</time></trkpt><trkpt lat="25.83539790386007" lon="-80.48306808046412"><ele>5.4</ele><time>2026-04-19T11:12:28Z</time></trkpt><trkpt lat="25.835504892715864" lon="-80.4830747094865"><ele>5.2</ele><time>2026-04-19T11:12:29Z</time></trkpt><trkpt lat="25.83561142392798" lon="-80.48308144788733"><ele>5.0</ele><time>2026-04-19T11:12:30Z</time></trkpt><trkpt lat="25.835718098770815" lon="-80.48308261411553"><ele>5.0</ele><time>2026-04-19T11:12:31Z</time></trkpt><trkpt lat="25.835824585552157" lon="-80.48308652285073"><ele>5.0</ele><time>2026-04-19T11:12:32Z</time></trkpt><trkpt lat="25.83593042985211" lon="-80.48308763542026"><ele>5.0</ele><time>2026-04-19T11:12:33Z</time></trkpt><trkpt lat="25.836038014078213" lon="-80.4830905446386"><ele>5.0</ele><time>2026-04-19T11:12:34Z</time></trkpt><trkpt lat="25.83614908180287" lon="-80.48309722081441"><ele>5.0</ele><time>2026-04-19T11:12:35Z</time></trkpt><trkpt lat="25.83626186864124" lon="-80.48310403938382"><ele>5.0</ele><time>2026-04-19T11:12:36Z</time></trkpt><trkpt lat="25.83637490356928" lon="-80.48310459931899"><ele>5.0</ele><time>2026-04-19T11:12:37Z</time></trkpt><trkpt lat="25.83648848836442" lon="-80.48310743956942"><ele>5.0</ele><time>2026-04-19T11:12:38Z</time></trkpt><trkpt lat="25.836599067224583" lon="-80.48311044252141"><ele>5.0</ele><time>2026-04-19T11:12:39Z</time></trkpt><trkpt lat="25.836709248271355" lon="-80.48311346421467"><ele>5.0</ele><time>2026-04-19T11:12:40Z</time></trkpt><trkpt lat="25.836816273577234" lon="-80.48311990849382"><ele>5.2</ele><time>2026-04-19T11:12:41Z</time></trkpt><trkpt lat="25.836922015446312" lon="-80.48312309974622"><ele>5.4</ele><time>2026-04-19T11:12:42Z</time></trkpt><trkpt lat="25.837027656575284" lon="-80.48312936333474"><ele>5.6</ele><time>2026-04-19T11:12:43Z</time></trkpt><trkpt lat="25.83713304248979" lon="-80.4831352665596"><ele>5.8</ele><time>2026-04-19T11:12:44Z</time></trkpt><trkpt lat="25.8372396702161" lon="-80.4831388527667"><ele>6.0</ele><time>2026-04-19T11:12:45Z</time></trkpt><trkpt lat="25.837346533869937" lon="-80.4831435821684"><ele>6.0</ele><time>2026-04-19T11:12:46Z</time></trkpt><trkpt lat="25.837454061114702" lon="-80.48314674711318"><ele>6.0</ele><time>2026-04-19T11:12:47Z</time></trkpt><trkpt lat="25.837561820656827" lon="-80.4831516669898"><ele>6.0</ele><time>2026-04-19T11:12:48Z</time></trkpt><trkpt lat="25.837670498432168" lon="-80.48315770892948"><ele>6.0</ele><time>2026-04-19T11:12:49Z</time></trkpt><trkpt lat="25.837778796364642" lon="-80.48316131538304"><ele>6.0</ele><time>2026-04-19T11:12:50Z</time></trkpt><trkpt lat="25.83788886251898" lon="-80.48316610442774"><ele>5.8</ele><time>2026-04-19T11:12:51Z</time></trkpt><trkpt lat="25.83800076177821" lon="-80.48317021747212"><ele>5.6</ele><time>2026-04-19T11:12:52Z</time></trkpt><trkpt lat="25.838113155775616" lon="-80.48317790142859"><ele>5.4</ele><time>2026-04-19T11:12:53Z</time></trkpt><trkpt lat="25.838222755667513" lon="-80.48318343865614"><ele>5.2</ele><time>2026-04-19T11:12:54Z</time></trkpt><trkpt lat="25.838330174008323" lon="-80.48318702087076"><ele>5.0</ele><time>2026-04-19T11:12:55Z</time></trkpt><trkpt lat="25.838437460664323" lon="-80.48319323596375"><ele>5.4</ele><time>2026-04-19T11:12:56Z</time></trkpt><trkpt lat="25.838545013672537" lon="-80.48319479384521"><ele>5.8</ele><time>2026-04-19T11:12:57Z</time></trkpt><trkpt lat="25.838651156824483" lon="-80.48319885271322"><ele>6.199999999999999</ele><time>2026-04-19T11:12:58Z</time></trkpt><trkpt lat="25.838758950230467" lon="-80.4832047308927"><ele>6.6</ele><time>2026-04-19T11:12:59Z</time></trkpt><trkpt lat="25.838864697608695" lon="-80.48320974232418"><ele>7.0</ele><time>2026-04-19T11:13:00Z</time></trkpt><trkpt lat="25.83897213730326" lon="-80.48321386454276"><ele>7.0</ele><time>2026-04-19T11:13:01Z</time></trkpt><trkpt lat="25.839081212834046" lon="-80.48321783861732"><ele>6.999999999999999</ele><time>2026-04-19T11:13:02Z</time></trkpt><trkpt lat="25.839188690465313" lon="-80.48322237980506"><ele>6.999999999999999</ele><time>2026-04-19T11:13:02.999Z</time></trkpt><trkpt lat="25.83929753844666" lon="-80.483227494333"><ele>7.0</ele><time>2026-04-19T11:13:03.999Z</time></trkpt><trkpt lat="25.83940542714004" lon="-80.48323087659759"><ele>7.0</ele><time>2026-04-19T11:13:04.999Z</time></trkpt><trkpt lat="25.839512190659537" lon="-80.48323284568494"><ele>7.0</ele><time>2026-04-19T11:13:05.999Z</time></trkpt><trkpt lat="25.839618921875452" lon="-80.483234995303"><ele>6.999999999999999</ele><time>2026-04-19T11:13:06.999Z</time></trkpt><trkpt lat="25.839727085538236" lon="-80.48324035762215"><ele>6.999999999999999</ele><time>2026-04-19T11:13:07.999Z</time></trkpt><trkpt lat="25.83983310679082" lon="-80.48324542404377"><ele>7.0</ele><time>2026-04-19T11:13:08.999Z</time></trkpt><trkpt lat="25.839938160396738" lon="-80.4832501548955"><ele>7.0</ele><time>2026-04-19T11:13:09.999Z</time></trkpt><trkpt lat="25.840044140097724" lon="-80.4832525318131"><ele>7.0</ele><time>2026-04-19T11:13:10.999Z</time></trkpt><trkpt lat="25.840148768569136" lon="-80.48325769964296"><ele>6.999999999999999</ele><time>2026-04-19T11:13:11.999Z</time></trkpt><trkpt lat="25.840254529339123" lon="-80.48325849852993"><ele>6.999999999999999</ele><time>2026-04-19T11:13:12.999Z</time></trkpt><trkpt lat="25.840361462068373" lon="-80.4832624812852"><ele>7.0</ele><time>2026-04-19T11:13:13.999Z</time></trkpt><trkpt lat="25.8404680559588" lon="-80.48326720886186"><ele>7.0</ele><time>2026-04-19T11:13:14.999Z</time></trkpt><trkpt lat="25.840573907457287" lon="-80.4832695583233"><ele>7.0</ele><time>2026-04-19T11:13:15.999Z</time></trkpt><trkpt lat="25.84067904020527" lon="-80.48327237473518"><ele>6.999999999999999</ele><time>2026-04-19T11:13:16.999Z</time></trkpt><trkpt lat="25.84078429724233" lon="-80.48327596565758"><ele>6.999999999999999</ele><time>2026-04-19T11:13:17.999Z</time></trkpt><trkpt lat="25.84089119205886" lon="-80.48328265977526"><ele>7.0</ele><time>2026-04-19T11:13:18.999Z</time></trkpt><trkpt lat="25.840998438167954" lon="-80.4832852856247"><ele>7.0</ele><time>2026-04-19T11:13:19.999Z</time></trkpt><trkpt lat="25.84110579180905" lon="-80.48328914596759"><ele>6.8</ele><time>2026-04-19T11:13:20.999Z</time></trkpt><trkpt lat="25.841214569326347" lon="-80.48329280335112"><ele>6.6</ele><time>2026-04-19T11:13:21.999Z</time></trkpt><trkpt lat="25.841322794215486" lon="-80.48329596768949"><ele>6.3999999999999995</ele><time>2026-04-19T11:13:22.999Z</time></trkpt><trkpt lat="25.84143182726543" lon="-80.48329940104156"><ele>6.199999999999999</ele><time>2026-04-19T11:13:23.999Z</time></trkpt><trkpt lat="25.84153992153492" lon="-80.48330407251967"><ele>6.0</ele><time>2026-04-19T11:13:24.999Z</time></trkpt><trkpt lat="25.8416462130373" lon="-80.48331019230412"><ele>6.0</ele><time>2026-04-19T11:13:25.999Z</time></trkpt><trkpt lat="25.841753449181734" lon="-80.4833173513084"><ele>6.0</ele><time>2026-04-19T11:13:26.999Z</time></trkpt><trkpt lat="25.841859962111812" lon="-80.48332235071823"><ele>6.0</ele><time>2026-04-19T11:13:27.999Z</time></trkpt><trkpt lat="25.841966603765602" lon="-80.48332687247789"><ele>6.0</ele><time>2026-04-19T11:13:28.999Z</time></trkpt><trkpt lat="25.842075007192538" lon="-80.48333148959976"><ele>6.0</ele><time>2026-04-19T11:13:29.999Z</time></trkpt><trkpt lat="25.842180989076837" lon="-80.48333081784656"><ele>5.8</ele><time>2026-04-19T11:13:30.999Z</time></trkpt><trkpt lat="25.842288377783987" lon="-80.48333505375952"><ele>5.6</ele><time>2026-04-19T11:13:31.999Z</time></trkpt><trkpt lat="25.84239643315735" lon="-80.48334026934425"><ele>5.4</ele><time>2026-04-19T11:13:32.999Z</time></trkpt><trkpt lat="25.842502650034415" lon="-80.48334743450728"><ele>5.2</ele><time>2026-04-19T11:13:33.999Z</time></trkpt><trkpt lat="25.842608935282257" lon="-80.48335057953908"><ele>5.0</ele><time>2026-04-19T11:13:34.999Z</time></trkpt><trkpt lat="25.842717302746298" lon="-80.48335355014925"><ele>5.0</ele><time>2026-04-19T11:13:35.999Z</time></trkpt><trkpt lat="25.842825596336237" lon="-80.48335912592056"><ele>5.0</ele><time>2026-04-19T11:13:36.999Z</time></trkpt><trkpt lat="25.842934387500343" lon="-80.48336292273844"><ele>5.0</ele><time>2026-04-19T11:13:37.999Z</time></trkpt><trkpt lat="25.84303887335526" lon="-80.48337009972406"><ele>5.0</ele><time>2026-04-19T11:13:38.999Z</time></trkpt><trkpt lat="25.843146271579037" lon="-80.4833750877954"><ele>5.0</ele><time>2026-04-19T11:13:39.999Z</time></trkpt><trkpt lat="25.843251370950487" lon="-80.48337867801251"><ele>5.0</ele><time>2026-04-19T11:13:40.999Z</time></trkpt><trkpt lat="25.84335718481561" lon="-80.48338147414924"><ele>5.0</ele><time>2026-04-19T11:13:41.999Z</time></trkpt><trkpt lat="25.843463115611172" lon="-80.48338199357873"><ele>5.0</ele><time>2026-04-19T11:13:42.999Z</time></trkpt><trkpt lat="25.84356905990874" lon="-80.48338910037909"><ele>5.0</ele><time>2026-04-19T11:13:43.999Z</time></trkpt><trkpt lat="25.843679122415487" lon="-80.48339544675297"><ele>5.0</ele><time>2026-04-19T11:13:44.999Z</time></trkpt><trkpt lat="25.8437874258872" lon="-80.48339982837145"><ele>5.0</ele><time>2026-04-19T11:13:45.999Z</time></trkpt><trkpt lat="25.843897410518625" lon="-80.48340487735592"><ele>5.0</ele><time>2026-04-19T11:13:46.999Z</time></trkpt><trkpt lat="25.844005177766263" lon="-80.48340759776212"><ele>5.0</ele><time>2026-04-19T11:13:47.999Z</time></trkpt><trkpt lat="25.844116221504045" lon="-80.48340994745928"><ele>5.0</ele><time>2026-04-19T11:13:48.999Z</time></trkpt><trkpt lat="25.84422515774099" lon="-80.48341467308708"><ele>5.0</ele><time>2026-04-19T11:13:49.999Z</time></trkpt><trkpt lat="25.844334283183393" lon="-80.48341659484512"><ele>5.0</ele><time>2026-04-19T11:13:50.999Z</time></trkpt><trkpt lat="25.844443807068554" lon="-80.48342434446995"><ele>5.0</ele><time>2026-04-19T11:13:52Z</time></trkpt><trkpt lat="25.84455279252587" lon="-80.48343163476184"><ele>5.0</ele><time>2026-04-19T11:13:53Z</time></trkpt><trkpt lat="25.844660488642386" lon="-80.48343614042125"><ele>5.0</ele><time>2026-04-19T11:13:54Z</time></trkpt><trkpt lat="25.84476661035191" lon="-80.48343492618837"><ele>5.0</ele><time>2026-04-19T11:13:55Z</time></trkpt><trkpt lat="25.844873573618017" lon="-80.48343539879926"><ele>5.0</ele><time>2026-04-19T11:13:56Z</time></trkpt><trkpt lat="25.844979514510246" lon="-80.48343749210746"><ele>5.0</ele><time>2026-04-19T11:13:57Z</time></trkpt><trkpt lat="25.845084611413146" lon="-80.4834429240678"><ele>5.0</ele><time>2026-04-19T11:13:58Z</time></trkpt><trkpt lat="25.84519041898292" lon="-80.48344700409689"><ele>5.0</ele><time>2026-04-19T11:13:59Z</time></trkpt><trkpt lat="25.845295412122557" lon="-80.48345095186887"><ele>5.0</ele><time>2026-04-19T11:14:00Z</time></trkpt><trkpt lat="25.84540233428235" lon="-80.48345719495448"><ele>5.0</ele><time>2026-04-19T11:14:01Z</time></trkpt><trkpt lat="25.845509293684426" lon="-80.48346143009603"><ele>5.0</ele><time>2026-04-19T11:14:02Z</time></trkpt><trkpt lat="25.84562022524825" lon="-80.48346493643226"><ele>5.0</ele><time>2026-04-19T11:14:03Z</time></trkpt><trkpt lat="25.84573046176491" lon="-80.48347033513099"><ele>5.0</ele><time>2026-04-19T11:14:04Z</time></trkpt><trkpt lat="25.845840590023126" lon="-80.48347393370811"><ele>5.0</ele><time>2026-04-19T11:14:05Z</time></trkpt><trkpt lat="25.845949398127757" lon="-80.48347601056985"><ele>5.2</ele><time>2026-04-19T11:14:06Z</time></trkpt><trkpt lat="25.846056220253427" lon="-80.48348099457637"><ele>5.4</ele><time>2026-04-19T11:14:07Z</time></trkpt><trkpt lat="25.846162957164346" lon="-80.48348448614941"><ele>5.6</ele><time>2026-04-19T11:14:08Z</time></trkpt><trkpt lat="25.84626917170042" lon="-80.48349091976023"><ele>5.8</ele><time>2026-04-19T11:14:09Z</time></trkpt><trkpt lat="25.846376461812905" lon="-80.4834948371016"><ele>6.0</ele><time>2026-04-19T11:14:10Z</time></trkpt><trkpt lat="25.846480624114598" lon="-80.48350088600198"><ele>6.0</ele><time>2026-04-19T11:14:11Z</time></trkpt><trkpt lat="25.84658628829955" lon="-80.48350478613554"><ele>6.0</ele><time>2026-04-19T11:14:12Z</time></trkpt><trkpt lat="25.846690342521306" lon="-80.48350915579856"><ele>6.0</ele><time>2026-04-19T11:14:13Z</time></trkpt><trkpt lat="25.846797039114865" lon="-80.48351488050491"><ele>6.0</ele><time>2026-04-19T11:14:14Z</time></trkpt><trkpt lat="25.846902488134806" lon="-80.483515476275"><ele>6.0</ele><time>2026-04-19T11:14:15Z</time></trkpt><trkpt lat="25.847009151750417" lon="-80.48352132906344"><ele>5.6</ele><time>2026-04-19T11:14:16Z</time></trkpt><trkpt lat="25.847115814416462" lon="-80.48352824026021"><ele>5.199999999999999</ele><time>2026-04-19T11:14:17Z</time></trkpt><trkpt lat="25.847222763132756" lon="-80.48353108271"><ele>4.800000000000001</ele><time>2026-04-19T11:14:18Z</time></trkpt><trkpt lat="25.847330131276493" lon="-80.48353528851382"><ele>4.4</ele><time>2026-04-19T11:14:19Z</time></trkpt><trkpt lat="25.847437824743842" lon="-80.48354025216109"><ele>4.0</ele><time>2026-04-19T11:14:20Z</time></trkpt><trkpt lat="25.847546906565142" lon="-80.48354327908801"><ele>4.4</ele><time>2026-04-19T11:14:21Z</time></trkpt><trkpt lat="25.84765493590062" lon="-80.4835460256472"><ele>4.800000000000001</ele><time>2026-04-19T11:14:22Z</time></trkpt><trkpt lat="25.84776209853737" lon="-80.48355013298168"><ele>5.199999999999999</ele><time>2026-04-19T11:14:23Z</time></trkpt><trkpt lat="25.84786955855495" lon="-80.48355912794679"><ele>5.6</ele><time>2026-04-19T11:14:24Z</time></trkpt><trkpt lat="25.847975186331535" lon="-80.48356107580187"><ele>6.0</ele><time>2026-04-19T11:14:25Z</time></trkpt><trkpt lat="25.84808152918644" lon="-80.48356452639464"><ele>6.0</ele><time>2026-04-19T11:14:26Z</time></trkpt><trkpt lat="25.848188538356492" lon="-80.48356978598144"><ele>6.0</ele><time>2026-04-19T11:14:27Z</time></trkpt><trkpt lat="25.848295619562066" lon="-80.48357176119072"><ele>6.0</ele><time>2026-04-19T11:14:28Z</time></trkpt><trkpt lat="25.848402469350013" lon="-80.48357538375329"><ele>6.0</ele><time>2026-04-19T11:14:28.999Z</time></trkpt><trkpt lat="25.84851025103652" lon="-80.4835820526975"><ele>6.0</ele><time>2026-04-19T11:14:29.999Z</time></trkpt><trkpt lat="25.848617246948393" lon="-80.48358580113359"><ele>6.199999999999999</ele><time>2026-04-19T11:14:30.999Z</time></trkpt><trkpt lat="25.848725231054512" lon="-80.48358694274577"><ele>6.3999999999999995</ele><time>2026-04-19T11:14:31.999Z</time></trkpt><trkpt lat="25.84883057486701" lon="-80.48358882313929"><ele>6.6</ele><time>2026-04-19T11:14:32.999Z</time></trkpt><trkpt lat="25.848934619464448" lon="-80.48359380898673"><ele>6.8</ele><time>2026-04-19T11:14:33.999Z</time></trkpt><trkpt lat="25.849039516429848" lon="-80.48359957515801"><ele>7.0</ele><time>2026-04-19T11:14:34.999Z</time></trkpt><trkpt lat="25.849143288405614" lon="-80.48360280841288"><ele>7.0</ele><time>2026-04-19T11:14:35.999Z</time></trkpt><trkpt lat="25.849246774660998" lon="-80.48360423763617"><ele>6.999999999999999</ele><time>2026-04-19T11:14:36.999Z</time></trkpt><trkpt lat="25.849351653895194" lon="-80.48360642625705"><ele>6.999999999999999</ele><time>2026-04-19T11:14:37.999Z</time></trkpt><trkpt lat="25.849457292755794" lon="-80.48361289472139"><ele>7.0</ele><time>2026-04-19T11:14:38.999Z</time></trkpt><trkpt lat="25.849564817328677" lon="-80.48361980188352"><ele>7.0</ele><time>2026-04-19T11:14:39.999Z</time></trkpt><trkpt lat="25.84967203938174" lon="-80.48362564571117"><ele>6.8</ele><time>2026-04-19T11:14:40.999Z</time></trkpt><trkpt lat="25.849777365585936" lon="-80.48362966857047"><ele>6.6</ele><time>2026-04-19T11:14:41.999Z</time></trkpt><trkpt lat="25.84988158406792" lon="-80.48363247046778"><ele>6.3999999999999995</ele><time>2026-04-19T11:14:42.999Z</time></trkpt><trkpt lat="25.84998472909433" lon="-80.48363937424693"><ele>6.199999999999999</ele><time>2026-04-19T11:14:43.999Z</time></trkpt><trkpt lat="25.850088525098606" lon="-80.48364639201236"><ele>6.0</ele><time>2026-04-19T11:14:44.999Z</time></trkpt><trkpt lat="25.85019172172815" lon="-80.48364973616464"><ele>6.0</ele><time>2026-04-19T11:14:45.999Z</time></trkpt><trkpt lat="25.850295158830928" lon="-80.48365544314545"><ele>6.0</ele><time>2026-04-19T11:14:46.999Z</time></trkpt><trkpt lat="25.850400191049026" lon="-80.48366146919052"><ele>6.0</ele><time>2026-04-19T11:14:47.999Z</time></trkpt><trkpt lat="25.850502936157966" lon="-80.48366518505894"><ele>6.0</ele><time>2026-04-19T11:14:48.999Z</time></trkpt><trkpt lat="25.850608715862517" lon="-80.48366900866799"><ele>6.0</ele><time>2026-04-19T11:14:49.999Z</time></trkpt><trkpt lat="25.85071493271135" lon="-80.48367199899461"><ele>6.0</ele><time>2026-04-19T11:14:50.999Z</time></trkpt><trkpt lat="25.850822194895354" lon="-80.48367507014397"><ele>6.0</ele><time>2026-04-19T11:14:51.999Z</time></trkpt><trkpt lat="25.850928681210803" lon="-80.48367684505209"><ele>6.0</ele><time>2026-04-19T11:14:52.999Z</time></trkpt><trkpt lat="25.851035997474447" lon="-80.48367825235246"><ele>6.0</ele><time>2026-04-19T11:14:53.999Z</time></trkpt><trkpt lat="25.851140022817397" lon="-80.48368258402061"><ele>6.0</ele><time>2026-04-19T11:14:54.999Z</time></trkpt><trkpt lat="25.851242319461434" lon="-80.48368882218377"><ele>5.6</ele><time>2026-04-19T11:14:55.999Z</time></trkpt><trkpt lat="25.851344290239716" lon="-80.48369497381277"><ele>5.199999999999999</ele><time>2026-04-19T11:14:56.999Z</time></trkpt><trkpt lat="25.85144570974415" lon="-80.48370028111448"><ele>4.800000000000001</ele><time>2026-04-19T11:14:57.999Z</time></trkpt><trkpt lat="25.851550374931925" lon="-80.48370344358935"><ele>4.4</ele><time>2026-04-19T11:14:58.999Z</time></trkpt><trkpt lat="25.851656025163212" lon="-80.4837082143183"><ele>4.0</ele><time>2026-04-19T11:14:59.999Z</time></trkpt><trkpt lat="25.85176240218172" lon="-80.48370973656678"><ele>4.2</ele><time>2026-04-19T11:15:00.999Z</time></trkpt><trkpt lat="25.85186733324842" lon="-80.48371391977933"><ele>4.4</ele><time>2026-04-19T11:15:01.999Z</time></trkpt><trkpt lat="25.851972766352702" lon="-80.48371946929389"><ele>4.6</ele><time>2026-04-19T11:15:02.999Z</time></trkpt><trkpt lat="25.852077673574932" lon="-80.48372236733385"><ele>4.8</ele><time>2026-04-19T11:15:03.999Z</time></trkpt><trkpt lat="25.852184513688304" lon="-80.48372699065561"><ele>5.0</ele><time>2026-04-19T11:15:04.999Z</time></trkpt><trkpt lat="25.852291120727433" lon="-80.48373249202663"><ele>5.0</ele><time>2026-04-19T11:15:05.999Z</time></trkpt><trkpt lat="25.852397907301963" lon="-80.48373600407739"><ele>5.0</ele><time>2026-04-19T11:15:06.999Z</time></trkpt><trkpt lat="25.85250362274374" lon="-80.48373739484141"><ele>5.0</ele><time>2026-04-19T11:15:07.999Z</time></trkpt><trkpt lat="25.852607678913454" lon="-80.4837378813991"><ele>5.0</ele><time>2026-04-19T11:15:08.999Z</time></trkpt><trkpt lat="25.852711961023566" lon="-80.4837402622886"><ele>5.0</ele><time>2026-04-19T11:15:09.999Z</time></trkpt><trkpt lat="25.852815980197594" lon="-80.48374578604853"><ele>5.4</ele><time>2026-04-19T11:15:10.999Z</time></trkpt><trkpt lat="25.85291968988595" lon="-80.48375030866534"><ele>5.8</ele><time>2026-04-19T11:15:11.999Z</time></trkpt><trkpt lat="25.85302343424388" lon="-80.483755867388"><ele>6.199999999999999</ele><time>2026-04-19T11:15:12.999Z</time></trkpt><trkpt lat="25.85312583346888" lon="-80.48375970537825"><ele>6.6</ele><time>2026-04-19T11:15:13.999Z</time></trkpt><trkpt lat="25.853230930963008" lon="-80.48376398488018"><ele>7.0</ele><time>2026-04-19T11:15:14.999Z</time></trkpt><trkpt lat="25.85333602616806" lon="-80.48376900659105"><ele>7.199999999999999</ele><time>2026-04-19T11:15:15.999Z</time></trkpt><trkpt lat="25.853442460254794" lon="-80.48377565627597"><ele>7.3999999999999995</ele><time>2026-04-19T11:15:16.999Z</time></trkpt><trkpt lat="25.85355043608605" lon="-80.48378042252737"><ele>7.6000000000000005</ele><time>2026-04-19T11:15:17.999Z</time></trkpt><trkpt lat="25.853657430216103" lon="-80.48378464387625"><ele>7.800000000000001</ele><time>2026-04-19T11:15:18.999Z</time></trkpt><trkpt lat="25.853764767864817" lon="-80.48378724454683"><ele>8.0</ele><time>2026-04-19T11:15:19.999Z</time></trkpt><trkpt lat="25.853869073374995" lon="-80.4837931999921"><ele>7.6000000000000005</ele><time>2026-04-19T11:15:20.999Z</time></trkpt><trkpt lat="25.853975093907334" lon="-80.48380153885346"><ele>7.200000000000001</ele><time>2026-04-19T11:15:21.999Z</time></trkpt><trkpt lat="25.85407952646193" lon="-80.48380607454385"><ele>6.8</ele><time>2026-04-19T11:15:22.999Z</time></trkpt><trkpt lat="25.854183925561422" lon="-80.48380765475464"><ele>6.4</ele><time>2026-04-19T11:15:23.999Z</time></trkpt><trkpt lat="25.854289002797913" lon="-80.48381074848754"><ele>6.0</ele><time>2026-04-19T11:15:24.999Z</time></trkpt><trkpt lat="25.854394088779728" lon="-80.48381892171838"><ele>6.0</ele><time>2026-04-19T11:15:25.999Z</time></trkpt><trkpt lat="25.854498712002236" lon="-80.48382313351834"><ele>6.0</ele><time>2026-04-19T11:15:26.999Z</time></trkpt><trkpt lat="25.854603007369427" lon="-80.48382644054013"><ele>6.0</ele><time>2026-04-19T11:15:27.999Z</time></trkpt><trkpt lat="25.85470729128982" lon="-80.48382910741816"><ele>6.0</ele><time>2026-04-19T11:15:28.999Z</time></trkpt><trkpt lat="25.85481145468031" lon="-80.48383000831878"><ele>6.0</ele><time>2026-04-19T11:15:29.999Z</time></trkpt><trkpt lat="25.85491760296297" lon="-80.48383471847784"><ele>6.0</ele><time>2026-04-19T11:15:30.999Z</time></trkpt><trkpt lat="25.85502500443482" lon="-80.48383937176837"><ele>6.0</ele><time>2026-04-19T11:15:31.999Z</time></trkpt><trkpt lat="25.855133497448612" lon="-80.48384172329509"><ele>6.0</ele><time>2026-04-19T11:15:32.999Z</time></trkpt><trkpt lat="25.8552428434241" lon="-80.48384433022726"><ele>6.0</ele><time>2026-04-19T11:15:33.999Z</time></trkpt><trkpt lat="25.855350314277782" lon="-80.48385073326256"><ele>6.0</ele><time>2026-04-19T11:15:34.999Z</time></trkpt><trkpt lat="25.855455050345054" lon="-80.48385251367235"><ele>6.0</ele><time>2026-04-19T11:15:35.999Z</time></trkpt><trkpt lat="25.85556046229966" lon="-80.4838560021776"><ele>6.0</ele><time>2026-04-19T11:15:36.999Z</time></trkpt><trkpt lat="25.855667810878693" lon="-80.48386099858007"><ele>6.0</ele><time>2026-04-19T11:15:37.999Z</time></trkpt><trkpt lat="25.855777245791586" lon="-80.4838658127607"><ele>6.0</ele><time>2026-04-19T11:15:38.999Z</time></trkpt><trkpt lat="25.855884613655284" lon="-80.48386871844669"><ele>6.0</ele><time>2026-04-19T11:15:39.999Z</time></trkpt><trkpt lat="25.855990690585777" lon="-80.48386965426491"><ele>6.0</ele><time>2026-04-19T11:15:40.999Z</time></trkpt><trkpt lat="25.85609667172146" lon="-80.4838720042596"><ele>6.0</ele><time>2026-04-19T11:15:41.998Z</time></trkpt><trkpt lat="25.856202145130712" lon="-80.48387716167419"><ele>6.0</ele><time>2026-04-19T11:15:42.998Z</time></trkpt><trkpt lat="25.856306621238797" lon="-80.48387350507763"><ele>6.0</ele><time>2026-04-19T11:15:43.998Z</time></trkpt><trkpt lat="25.856411918455617" lon="-80.4838712553189"><ele>6.0</ele><time>2026-04-19T11:15:44.998Z</time></trkpt><trkpt lat="25.85651839055676" lon="-80.48387279591441"><ele>6.0</ele><time>2026-04-19T11:15:45.998Z</time></trkpt><trkpt lat="25.85662533507185" lon="-80.48387386827989"><ele>6.0</ele><time>2026-04-19T11:15:46.998Z</time></trkpt><trkpt lat="25.856731834464313" lon="-80.48387559970409"><ele>6.0</ele><time>2026-04-19T11:15:47.998Z</time></trkpt><trkpt lat="25.856836943093867" lon="-80.48387791372366"><ele>6.0</ele><time>2026-04-19T11:15:48.998Z</time></trkpt><trkpt lat="25.856943130822675" lon="-80.48387802886522"><ele>6.0</ele><time>2026-04-19T11:15:49.998Z</time></trkpt><trkpt lat="25.85704707688653" lon="-80.48387578933037"><ele>6.0</ele><time>2026-04-19T11:15:50.998Z</time></trkpt><trkpt lat="25.85715174346004" lon="-80.48387763897165"><ele>6.0</ele><time>2026-04-19T11:15:51.998Z</time></trkpt><trkpt lat="25.85725529602728" lon="-80.48387960471337"><ele>6.0</ele><time>2026-04-19T11:15:52.998Z</time></trkpt><trkpt lat="25.857359868896413" lon="-80.48387853591171"><ele>6.0</ele><time>2026-04-19T11:15:53.998Z</time></trkpt><trkpt lat="25.857463709670846" lon="-80.48387280980319"><ele>6.0</ele><time>2026-04-19T11:15:54.998Z</time></trkpt><trkpt lat="25.85756753872" lon="-80.48387273964715"><ele>5.8</ele><time>2026-04-19T11:15:55.998Z</time></trkpt><trkpt lat="25.857673713957425" lon="-80.48387625997991"><ele>5.6</ele><time>2026-04-19T11:15:56.998Z</time></trkpt><trkpt lat="25.857777455458756" lon="-80.48387728553082"><ele>5.4</ele><time>2026-04-19T11:15:58Z</time></trkpt><trkpt lat="25.85788311316266" lon="-80.483867985987"><ele>5.2</ele><time>2026-04-19T11:15:59Z</time></trkpt><trkpt lat="25.857989229677322" lon="-80.48386705920818"><ele>5.0</ele><time>2026-04-19T11:16:00Z</time></trkpt><trkpt lat="25.85809492470741" lon="-80.48387186132454"><ele>5.0</ele><time>2026-04-19T11:16:01Z</time></trkpt><trkpt lat="25.858200445971153" lon="-80.48387790741528"><ele>5.0</ele><time>2026-04-19T11:16:02Z</time></trkpt><trkpt lat="25.85830597028534" lon="-80.48387859805884"><ele>5.0</ele><time>2026-04-19T11:16:03Z</time></trkpt><trkpt lat="25.858409034352377" lon="-80.48387757315803"><ele>5.0</ele><time>2026-04-19T11:16:04Z</time></trkpt><trkpt lat="25.858512011605086" lon="-80.48387927657724"><ele>5.0</ele><time>2026-04-19T11:16:05Z</time></trkpt><trkpt lat="25.858616272723104" lon="-80.48388153026436"><ele>5.4</ele><time>2026-04-19T11:16:06Z</time></trkpt><trkpt lat="25.858719861822447" lon="-80.48388037635485"><ele>5.8</ele><time>2026-04-19T11:16:07Z</time></trkpt><trkpt lat="25.858823030316913" lon="-80.48388006879122"><ele>6.199999999999999</ele><time>2026-04-19T11:16:08Z</time></trkpt><trkpt lat="25.858926517810303" lon="-80.48388388502346"><ele>6.6</ele><time>2026-04-19T11:16:09Z</time></trkpt><trkpt lat="25.859029791702348" lon="-80.48388861018609"><ele>7.0</ele><time>2026-04-19T11:16:10Z</time></trkpt><trkpt lat="25.859132529834508" lon="-80.48388983529655"><ele>7.0</ele><time>2026-04-19T11:16:11Z</time></trkpt><trkpt lat="25.859236703907452" lon="-80.4838884633104"><ele>6.999999999999999</ele><time>2026-04-19T11:16:12Z</time></trkpt><trkpt lat="25.859340019395937" lon="-80.48388925749035"><ele>6.999999999999999</ele><time>2026-04-19T11:16:13Z</time></trkpt><trkpt lat="25.85944427459006" lon="-80.48389201004899"><ele>7.0</ele><time>2026-04-19T11:16:14Z</time></trkpt><trkpt lat="25.859547813121893" lon="-80.48389457021777"><ele>7.0</ele><time>2026-04-19T11:16:15Z</time></trkpt><trkpt lat="25.85965215721468" lon="-80.48389245848658"><ele>6.8</ele><time>2026-04-19T11:16:16Z</time></trkpt><trkpt lat="25.85975578261153" lon="-80.48388709005"><ele>6.6</ele><time>2026-04-19T11:16:17Z</time></trkpt><trkpt lat="25.85986070482089" lon="-80.48388597364112"><ele>6.3999999999999995</ele><time>2026-04-19T11:16:18Z</time></trkpt><trkpt lat="25.85996482419427" lon="-80.48388673875816"><ele>6.199999999999999</ele><time>2026-04-19T11:16:19Z</time></trkpt><trkpt lat="25.860069753150338" lon="-80.48389082705921"><ele>6.0</ele><time>2026-04-19T11:16:20Z</time></trkpt><trkpt lat="25.860176397098364" lon="-80.48389294132967"><ele>6.0</ele><time>2026-04-19T11:16:21Z</time></trkpt><trkpt lat="25.86028375068072" lon="-80.48389452516304"><ele>6.0</ele><time>2026-04-19T11:16:22Z</time></trkpt><trkpt lat="25.8603900693475" lon="-80.4838936573329"><ele>6.0</ele><time>2026-04-19T11:16:23Z</time></trkpt><trkpt lat="25.860496175880602" lon="-80.48389355982403"><ele>6.0</ele><time>2026-04-19T11:16:24Z</time></trkpt><trkpt lat="25.86060078140288" lon="-80.48389403061708"><ele>6.0</ele><time>2026-04-19T11:16:25Z</time></trkpt><trkpt lat="25.860706137795898" lon="-80.48389334577591"><ele>6.0</ele><time>2026-04-19T11:16:26Z</time></trkpt><trkpt lat="25.860811349878883" lon="-80.48389545720838"><ele>6.0</ele><time>2026-04-19T11:16:27Z</time></trkpt><trkpt lat="25.860915958579753" lon="-80.48389543993129"><ele>6.0</ele><time>2026-04-19T11:16:28Z</time></trkpt><trkpt lat="25.861021301874022" lon="-80.48389796782196"><ele>6.0</ele><time>2026-04-19T11:16:29Z</time></trkpt><trkpt lat="25.861129161517432" lon="-80.48390078867841"><ele>6.0</ele><time>2026-04-19T11:16:30Z</time></trkpt><trkpt lat="25.86123634654769" lon="-80.48390240996267"><ele>6.4</ele><time>2026-04-19T11:16:31Z</time></trkpt><trkpt lat="25.8613438826301" lon="-80.4839034442782"><ele>6.8</ele><time>2026-04-19T11:16:32Z</time></trkpt><trkpt lat="25.8614494123896" lon="-80.48390446101773"><ele>7.200000000000001</ele><time>2026-04-19T11:16:33Z</time></trkpt><trkpt lat="25.861555337153753" lon="-80.48390686692902"><ele>7.6000000000000005</ele><time>2026-04-19T11:16:34Z</time></trkpt><trkpt lat="25.861660122486377" lon="-80.48390392820545"><ele>8.0</ele><time>2026-04-19T11:16:35Z</time></trkpt><trkpt lat="25.861766698356448" lon="-80.48390017906796"><ele>7.6000000000000005</ele><time>2026-04-19T11:16:36Z</time></trkpt><trkpt lat="25.861872730440705" lon="-80.48389996865143"><ele>7.200000000000001</ele><time>2026-04-19T11:16:37Z</time></trkpt><trkpt lat="25.861977437811607" lon="-80.48390198116465"><ele>6.8</ele><time>2026-04-19T11:16:38Z</time></trkpt><trkpt lat="25.86208295184852" lon="-80.4839003394123"><ele>6.4</ele><time>2026-04-19T11:16:39Z</time></trkpt><trkpt lat="25.862186189366334" lon="-80.48390007798133"><ele>6.0</ele><time>2026-04-19T11:16:40Z</time></trkpt><trkpt lat="25.862292285576256" lon="-80.48390042015238"><ele>6.0</ele><time>2026-04-19T11:16:41Z</time></trkpt><trkpt lat="25.862395564513026" lon="-80.48389925547116"><ele>6.0</ele><time>2026-04-19T11:16:42Z</time></trkpt><trkpt lat="25.86249982514352" lon="-80.48390298527158"><ele>6.0</ele><time>2026-04-19T11:16:43Z</time></trkpt><trkpt lat="25.862605756580855" lon="-80.48390560713271"><ele>6.0</ele><time>2026-04-19T11:16:44Z</time></trkpt><trkpt lat="25.86271108512839" lon="-80.48390866319136"><ele>6.0</ele><time>2026-04-19T11:16:45Z</time></trkpt><trkpt lat="25.862817186476175" lon="-80.48390948610495"><ele>5.8</ele><time>2026-04-19T11:16:46Z</time></trkpt><trkpt lat="25.86292209614232" lon="-80.4839098494431"><ele>5.6</ele><time>2026-04-19T11:16:47Z</time></trkpt><trkpt lat="25.86302682168149" lon="-80.48390726064584"><ele>5.4</ele><time>2026-04-19T11:16:48Z</time></trkpt><trkpt lat="25.863129710097486" lon="-80.48390756568573"><ele>5.2</ele><time>2026-04-19T11:16:49Z</time></trkpt><trkpt lat="25.86323432871453" lon="-80.4839103099201"><ele>5.0</ele><time>2026-04-19T11:16:50Z</time></trkpt><trkpt lat="25.86333745457965" lon="-80.48391253618036"><ele>5.0</ele><time>2026-04-19T11:16:51Z</time></trkpt><trkpt lat="25.863442641180267" lon="-80.48391341701415"><ele>5.0</ele><time>2026-04-19T11:16:52Z</time></trkpt><trkpt lat="25.863547691075404" lon="-80.4839166889898"><ele>5.0</ele><time>2026-04-19T11:16:53Z</time></trkpt><trkpt lat="25.863653016906003" lon="-80.4839161108041"><ele>5.0</ele><time>2026-04-19T11:16:54Z</time></trkpt><trkpt lat="25.863758071589366" lon="-80.48391526653957"><ele>5.0</ele><time>2026-04-19T11:16:55Z</time></trkpt><trkpt lat="25.863863156093768" lon="-80.48391661037685"><ele>5.2</ele><time>2026-04-19T11:16:56Z</time></trkpt><trkpt lat="25.86396884189969" lon="-80.48391563556906"><ele>5.4</ele><time>2026-04-19T11:16:57Z</time></trkpt><trkpt lat="25.864073571181756" lon="-80.48391500025626"><ele>5.6</ele><time>2026-04-19T11:16:58Z</time></trkpt><trkpt lat="25.864178512625802" lon="-80.48391812933423"><ele>5.8</ele><time>2026-04-19T11:16:59Z</time></trkpt><trkpt lat="25.86428103447786" lon="-80.48391704216415"><ele>6.0</ele><time>2026-04-19T11:17:00Z</time></trkpt><trkpt lat="25.864384751226805" lon="-80.4839144797467"><ele>5.6</ele><time>2026-04-19T11:17:01Z</time></trkpt><trkpt lat="25.86448825730885" lon="-80.48391362498245"><ele>5.199999999999999</ele><time>2026-04-19T11:17:02Z</time></trkpt><trkpt lat="25.86459135804095" lon="-80.4839114993908"><ele>4.800000000000001</ele><time>2026-04-19T11:17:03Z</time></trkpt><trkpt lat="25.864695341601784" lon="-80.48391279144555"><ele>4.4</ele><time>2026-04-19T11:17:04Z</time></trkpt><trkpt lat="25.86479943025758" lon="-80.48391408230361"><ele>4.0</ele><time>2026-04-19T11:17:05Z</time></trkpt><trkpt lat="25.86490302743298" lon="-80.48390900368281"><ele>4.0</ele><time>2026-04-19T11:17:06Z</time></trkpt><trkpt lat="25.865005572715727" lon="-80.48390888623835"><ele>4.0</ele><time>2026-04-19T11:17:06.999Z</time></trkpt><trkpt lat="25.865107369332193" lon="-80.48390836719176"><ele>4.0</ele><time>2026-04-19T11:17:07.999Z</time></trkpt><trkpt lat="25.86520776135343" lon="-80.48390880037184"><ele>4.0</ele><time>2026-04-19T11:17:08.999Z</time></trkpt><trkpt lat="25.865311050682056" lon="-80.4839094338477"><ele>4.0</ele><time>2026-04-19T11:17:09.999Z</time></trkpt><trkpt lat="25.86541497083592" lon="-80.48391290276246"><ele>4.2</ele><time>2026-04-19T11:17:10.999Z</time></trkpt><trkpt lat="25.865519106093263" lon="-80.48391413146454"><ele>4.4</ele><time>2026-04-19T11:17:11.999Z</time></trkpt><trkpt lat="25.865621191412135" lon="-80.48391626594241"><ele>4.6</ele><time>2026-04-19T11:17:12.999Z</time></trkpt><trkpt lat="25.86572390950213" lon="-80.48392168417138"><ele>4.8</ele><time>2026-04-19T11:17:13.999Z</time></trkpt><trkpt lat="25.86582951718292" lon="-80.48392360078658"><ele>5.0</ele><time>2026-04-19T11:17:14.999Z</time></trkpt><trkpt lat="25.865934494933253" lon="-80.48392348733115"><ele>5.2</ele><time>2026-04-19T11:17:15.999Z</time></trkpt><trkpt lat="25.86603943938045" lon="-80.48392238307677"><ele>5.4</ele><time>2026-04-19T11:17:16.999Z</time></trkpt><trkpt lat="25.86614340101153" lon="-80.48392294536268"><ele>5.6</ele><time>2026-04-19T11:17:17.999Z</time></trkpt><trkpt lat="25.86624645677757" lon="-80.48392565071843"><ele>5.8</ele><time>2026-04-19T11:17:18.999Z</time></trkpt><trkpt lat="25.866350069965897" lon="-80.48392533442832"><ele>6.0</ele><time>2026-04-19T11:17:19.999Z</time></trkpt><trkpt lat="25.86645224027247" lon="-80.48392816425479"><ele>6.0</ele><time>2026-04-19T11:17:20.999Z</time></trkpt><trkpt lat="25.86655717569604" lon="-80.48393081207178"><ele>6.0</ele><time>2026-04-19T11:17:21.999Z</time></trkpt><trkpt lat="25.8666644643094" lon="-80.48393465791851"><ele>6.0</ele><time>2026-04-19T11:17:22.999Z</time></trkpt><trkpt lat="25.866774556449233" lon="-80.48393205022953"><ele>6.0</ele><time>2026-04-19T11:17:23.999Z</time></trkpt><trkpt lat="25.866888198284908" lon="-80.48393047487113"><ele>6.0</ele><time>2026-04-19T11:17:24.999Z</time></trkpt><trkpt lat="25.86700297478384" lon="-80.48392894200113"><ele>6.25</ele><time>2026-04-19T11:17:25.999Z</time></trkpt><trkpt lat="25.867119621068245" lon="-80.48392655371391"><ele>6.5</ele><time>2026-04-19T11:17:26.999Z</time></trkpt><trkpt lat="25.867239875412448" lon="-80.48392420802924"><ele>6.75</ele><time>2026-04-19T11:17:27.999Z</time></trkpt><trkpt lat="25.867361144640245" lon="-80.48392360663952"><ele>7.0</ele><time>2026-04-19T11:17:28.999Z</time></trkpt><trkpt lat="25.867482642088635" lon="-80.48392183978456"><ele>7.0</ele><time>2026-04-19T11:17:29.999Z</time></trkpt><trkpt lat="25.867607787038644" lon="-80.48391944793023"><ele>7.0</ele><time>2026-04-19T11:17:30.999Z</time></trkpt><trkpt lat="25.867730450452328" lon="-80.48391855576479"><ele>7.0</ele><time>2026-04-19T11:17:31.999Z</time></trkpt><trkpt lat="25.867855122406166" lon="-80.48392510849438"><ele>7.0</ele><time>2026-04-19T11:17:32.999Z</time></trkpt><trkpt lat="25.8679816068764" lon="-80.48392923736711"><ele>7.0</ele><time>2026-04-19T11:17:33.999Z</time></trkpt><trkpt lat="25.86810736001039" lon="-80.4839282541074"><ele>7.0</ele><time>2026-04-19T11:17:34.999Z</time></trkpt><trkpt lat="25.868233950560818" lon="-80.4839277117069"><ele>7.0</ele><time>2026-04-19T11:17:35.999Z</time></trkpt><trkpt lat="25.8683618800819" lon="-80.48392796859518"><ele>7.0</ele><time>2026-04-19T11:17:36.999Z</time></trkpt><trkpt lat="25.868490042221094" lon="-80.48392828387036"><ele>7.0</ele><time>2026-04-19T11:17:37.999Z</time></trkpt><trkpt lat="25.86861774993597" lon="-80.4839312837278"><ele>7.0</ele><time>2026-04-19T11:17:38.999Z</time></trkpt><trkpt lat="25.868745234195526" lon="-80.48393402763985"><ele>7.0</ele><time>2026-04-19T11:17:39.999Z</time></trkpt><trkpt lat="25.86887362336692" lon="-80.48393819613473"><ele>7.0</ele><time>2026-04-19T11:17:40.999Z</time></trkpt><trkpt lat="25.869003704503946" lon="-80.48394083457357"><ele>7.0</ele><time>2026-04-19T11:17:41.999Z</time></trkpt><trkpt lat="25.869132902870142" lon="-80.48394324221309"><ele>7.0</ele><time>2026-04-19T11:17:42.999Z</time></trkpt><trkpt lat="25.86926258882816" lon="-80.48394727250826"><ele>7.0</ele><time>2026-04-19T11:17:43.999Z</time></trkpt><trkpt lat="25.869392046148807" lon="-80.48394885620215"><ele>7.0</ele><time>2026-04-19T11:17:44.999Z</time></trkpt><trkpt lat="25.869521381454003" lon="-80.48395219197654"><ele>7.0</ele><time>2026-04-19T11:17:45.999Z</time></trkpt><trkpt lat="25.86965088996696" lon="-80.48395485432685"><ele>7.0</ele><time>2026-04-19T11:17:46.999Z</time></trkpt><trkpt lat="25.869777396280313" lon="-80.48395457635962"><ele>7.0</ele><time>2026-04-19T11:17:47.999Z</time></trkpt><trkpt lat="25.869899856129777" lon="-80.48395339041316"><ele>7.0</ele><time>2026-04-19T11:17:48.999Z</time></trkpt><trkpt lat="25.870019043945444" lon="-80.48395532549732"><ele>6.25</ele><time>2026-04-19T11:17:49.999Z</time></trkpt><trkpt lat="25.870135842984688" lon="-80.48395794494415"><ele>5.5</ele><time>2026-04-19T11:17:50.999Z</time></trkpt><trkpt lat="25.870250802817534" lon="-80.48396449200524"><ele>4.75</ele><time>2026-04-19T11:17:51.999Z</time></trkpt><trkpt lat="25.87036444692947" lon="-80.48396667513484"><ele>4.0</ele><time>2026-04-19T11:17:52.999Z</time></trkpt><trkpt lat="25.87047741499816" lon="-80.48396934374266"><ele>4.0</ele><time>2026-04-19T11:17:53.999Z</time></trkpt><trkpt lat="25.870589213305614" lon="-80.48396663663577"><ele>4.0</ele><time>2026-04-19T11:17:54.999Z</time></trkpt><trkpt lat="25.870699872336235" lon="-80.48396844062032"><ele>4.0</ele><time>2026-04-19T11:17:55.999Z</time></trkpt><trkpt lat="25.870810739481026" lon="-80.48397237590876"><ele>4.0</ele><time>2026-04-19T11:17:56.999Z</time></trkpt><trkpt lat="25.870920505870114" lon="-80.48397636304458"><ele>4.0</ele><time>2026-04-19T11:17:57.999Z</time></trkpt><trkpt lat="25.871029446574372" lon="-80.48397867000598"><ele>4.2</ele><time>2026-04-19T11:17:58.999Z</time></trkpt><trkpt lat="25.871138032836253" lon="-80.48398208136774"><ele>4.4</ele><time>2026-04-19T11:17:59.999Z</time></trkpt><trkpt lat="25.871244979497586" lon="-80.48398576041323"><ele>4.6</ele><time>2026-04-19T11:18:00.999Z</time></trkpt><trkpt lat="25.87135017765394" lon="-80.48398853058794"><ele>4.8</ele><time>2026-04-19T11:18:01.999Z</time></trkpt><trkpt lat="25.871454828497257" lon="-80.48399070353672"><ele>5.0</ele><time>2026-04-19T11:18:02.999Z</time></trkpt><trkpt lat="25.871557699902972" lon="-80.48399401818152"><ele>5.0</ele><time>2026-04-19T11:18:04Z</time></trkpt><trkpt lat="25.87165939426652" lon="-80.48399772613345"><ele>5.0</ele><time>2026-04-19T11:18:05Z</time></trkpt><trkpt lat="25.87176018352529" lon="-80.4840008586183"><ele>5.0</ele><time>2026-04-19T11:18:06Z</time></trkpt><trkpt lat="25.87186175598925" lon="-80.48400531816137"><ele>5.0</ele><time>2026-04-19T11:18:07Z</time></trkpt><trkpt lat="25.871963869609495" lon="-80.48400912133141"><ele>5.0</ele><time>2026-04-19T11:18:08Z</time></trkpt><trkpt lat="25.872068762571693" lon="-80.48401286572424"><ele>5.4</ele><time>2026-04-19T11:18:09Z</time></trkpt><trkpt lat="25.872172024120864" lon="-80.48401591714065"><ele>5.8</ele><time>2026-04-19T11:18:10Z</time></trkpt><trkpt lat="25.872274967605442" lon="-80.48401942263877"><ele>6.199999999999999</ele><time>2026-04-19T11:18:11Z</time></trkpt><trkpt lat="25.872378028557176" lon="-80.48402233266567"><ele>6.6</ele><time>2026-04-19T11:18:12Z</time></trkpt><trkpt lat="25.87248188507653" lon="-80.48402589628658"><ele>7.0</ele><time>2026-04-19T11:18:13Z</time></trkpt><trkpt lat="25.872585246541952" lon="-80.48403041746"><ele>7.0</ele><time>2026-04-19T11:18:14Z</time></trkpt><trkpt lat="25.872688082659067" lon="-80.48403273100712"><ele>6.999999999999999</ele><time>2026-04-19T11:18:15Z</time></trkpt><trkpt lat="25.87279194164378" lon="-80.48403601790848"><ele>6.999999999999999</ele><time>2026-04-19T11:18:16Z</time></trkpt><trkpt lat="25.872895066844986" lon="-80.48403899903876"><ele>7.0</ele><time>2026-04-19T11:18:17Z</time></trkpt><trkpt lat="25.87299833829386" lon="-80.48403890013144"><ele>7.0</ele><time>2026-04-19T11:18:18Z</time></trkpt><trkpt lat="25.87310198645646" lon="-80.4840410372333"><ele>7.0</ele><time>2026-04-19T11:18:19Z</time></trkpt><trkpt lat="25.873203147359245" lon="-80.48404627437047"><ele>6.999999999999999</ele><time>2026-04-19T11:18:20Z</time></trkpt><trkpt lat="25.873300675777504" lon="-80.48405079796503"><ele>6.999999999999999</ele><time>2026-04-19T11:18:21Z</time></trkpt><trkpt lat="25.873395126539837" lon="-80.48405425118455"><ele>7.0</ele><time>2026-04-19T11:18:22Z</time></trkpt><trkpt lat="25.87348871897127" lon="-80.48405565808218"><ele>7.0</ele><time>2026-04-19T11:18:23Z</time></trkpt><trkpt lat="25.873582613659302" lon="-80.4840576197713"><ele>6.3999999999999995</ele><time>2026-04-19T11:18:24Z</time></trkpt><trkpt lat="25.87367298620112" lon="-80.48406068094656"><ele>5.799999999999999</ele><time>2026-04-19T11:18:25Z</time></trkpt><trkpt lat="25.873761813306466" lon="-80.48406330987635"><ele>5.2</ele><time>2026-04-19T11:18:26Z</time></trkpt><trkpt lat="25.87385095333567" lon="-80.48406815033078"><ele>4.6</ele><time>2026-04-19T11:18:27Z</time></trkpt><trkpt lat="25.873942483626255" lon="-80.4840706981782"><ele>4.0</ele><time>2026-04-19T11:18:28Z</time></trkpt><trkpt lat="25.874035351855177" lon="-80.4840749492425"><ele>4.0</ele><time>2026-04-19T11:18:29Z</time></trkpt><trkpt lat="25.874127051639274" lon="-80.48407730080778"><ele>4.0</ele><time>2026-04-19T11:18:30Z</time></trkpt><trkpt lat="25.87421971706178" lon="-80.48407922237655"><ele>4.0</ele><time>2026-04-19T11:18:31Z</time></trkpt><trkpt lat="25.874318195664376" lon="-80.48408252940936"><ele>4.0</ele><time>2026-04-19T11:18:32Z</time></trkpt><trkpt lat="25.874417787282464" lon="-80.48408743355922"><ele>4.0</ele><time>2026-04-19T11:18:33Z</time></trkpt><trkpt lat="25.874519139522306" lon="-80.48409344212112"><ele>4.4</ele><time>2026-04-19T11:18:34Z</time></trkpt><trkpt lat="25.87461953611247" lon="-80.48409613675928"><ele>4.800000000000001</ele><time>2026-04-19T11:18:35Z</time></trkpt><trkpt lat="25.874720760933588" lon="-80.48409937507374"><ele>5.199999999999999</ele><time>2026-04-19T11:18:36Z</time></trkpt><trkpt lat="25.874820239018185" lon="-80.48410025897945"><ele>5.6</ele><time>2026-04-19T11:18:37Z</time></trkpt><trkpt lat="25.874918922620637" lon="-80.48410379695902"><ele>6.0</ele><time>2026-04-19T11:18:38Z</time></trkpt><trkpt lat="25.875019887871424" lon="-80.48410856757424"><ele>6.4</ele><time>2026-04-19T11:18:39Z</time></trkpt><trkpt lat="25.87511894183903" lon="-80.48411178503594"><ele>6.8</ele><time>2026-04-19T11:18:40Z</time></trkpt><trkpt lat="25.87521839449051" lon="-80.4841157606198"><ele>7.200000000000001</ele><time>2026-04-19T11:18:41Z</time></trkpt><trkpt lat="25.87531747937943" lon="-80.48412042512804"><ele>7.6000000000000005</ele><time>2026-04-19T11:18:42Z</time></trkpt><trkpt lat="25.8754159885412" lon="-80.48412448493288"><ele>8.0</ele><time>2026-04-19T11:18:43Z</time></trkpt><trkpt lat="25.875515165192514" lon="-80.48413025985278"><ele>8.0</ele><time>2026-04-19T11:18:44Z</time></trkpt><trkpt lat="25.875615092057284" lon="-80.48413236757416"><ele>8.0</ele><time>2026-04-19T11:18:45Z</time></trkpt><trkpt lat="25.875717597675198" lon="-80.48413502274451"><ele>8.0</ele><time>2026-04-19T11:18:46Z</time></trkpt><trkpt lat="25.875819023365306" lon="-80.48413483946545"><ele>8.0</ele><time>2026-04-19T11:18:47Z</time></trkpt><trkpt lat="25.875918894933353" lon="-80.4841367206514"><ele>8.0</ele><time>2026-04-19T11:18:48Z</time></trkpt><trkpt lat="25.876018900865592" lon="-80.48414020594647"><ele>7.800000000000001</ele><time>2026-04-19T11:18:49Z</time></trkpt><trkpt lat="25.876118247933984" lon="-80.48414460789837"><ele>7.6000000000000005</ele><time>2026-04-19T11:18:50Z</time></trkpt><trkpt lat="25.876215440047854" lon="-80.48414814782286"><ele>7.3999999999999995</ele><time>2026-04-19T11:18:51Z</time></trkpt><trkpt lat="25.876312494144752" lon="-80.4841513716623"><ele>7.199999999999999</ele><time>2026-04-19T11:18:52Z</time></trkpt><trkpt lat="25.876412975633293" lon="-80.48415553859117"><ele>7.0</ele><time>2026-04-19T11:18:53Z</time></trkpt><trkpt lat="25.876513102717503" lon="-80.48415723669252"><ele>7.0</ele><time>2026-04-19T11:18:54Z</time></trkpt><trkpt lat="25.876613810332742" lon="-80.48415863848432"><ele>6.999999999999999</ele><time>2026-04-19T11:18:55Z</time></trkpt><trkpt lat="25.87671560262239" lon="-80.48416377025713"><ele>6.999999999999999</ele><time>2026-04-19T11:18:56Z</time></trkpt><trkpt lat="25.87681917624155" lon="-80.48416819861858"><ele>7.0</ele><time>2026-04-19T11:18:57Z</time></trkpt><trkpt lat="25.876921679427692" lon="-80.48417035396949"><ele>7.0</ele><time>2026-04-19T11:18:58Z</time></trkpt><trkpt lat="25.877024345574732" lon="-80.4841742177931"><ele>7.0</ele><time>2026-04-19T11:18:59Z</time></trkpt><trkpt lat="25.877125869362366" lon="-80.48417732131696"><ele>6.999999999999999</ele><time>2026-04-19T11:19:00Z</time></trkpt><trkpt lat="25.877226968500004" lon="-80.48418321238796"><ele>6.999999999999999</ele><time>2026-04-19T11:19:01Z</time></trkpt><trkpt lat="25.877328596162286" lon="-80.48418767373325"><ele>7.0</ele><time>2026-04-19T11:19:02Z</time></trkpt><trkpt lat="25.877430496179972" lon="-80.4841887448436"><ele>7.0</ele><time>2026-04-19T11:19:03Z</time></trkpt><trkpt lat="25.87753162186609" lon="-80.48419189846796"><ele>7.0</ele><time>2026-04-19T11:19:04Z</time></trkpt><trkpt lat="25.877630680710897" lon="-80.48419551579894"><ele>6.999999999999999</ele><time>2026-04-19T11:19:05Z</time></trkpt><trkpt lat="25.877726565184872" lon="-80.4842001010916"><ele>6.999999999999999</ele><time>2026-04-19T11:19:06Z</time></trkpt><trkpt lat="25.877821054906597" lon="-80.4842033216782"><ele>7.0</ele><time>2026-04-19T11:19:06.999Z</time></trkpt><trkpt lat="25.877914267198307" lon="-80.48420631703965"><ele>7.0</ele><time>2026-04-19T11:19:07.999Z</time></trkpt><trkpt lat="25.878008964419475" lon="-80.4842099030018"><ele>7.0</ele><time>2026-04-19T11:19:08.999Z</time></trkpt><trkpt lat="25.878103769205495" lon="-80.48421556577154"><ele>6.999999999999999</ele><time>2026-04-19T11:19:09.999Z</time></trkpt><trkpt lat="25.87820095890228" lon="-80.48421663062068"><ele>6.999999999999999</ele><time>2026-04-19T11:19:10.999Z</time></trkpt><trkpt lat="25.878299821975865" lon="-80.48422026370919"><ele>7.0</ele><time>2026-04-19T11:19:11.999Z</time></trkpt><trkpt lat="25.878400544352488" lon="-80.48422373423725"><ele>7.0</ele><time>2026-04-19T11:19:12.999Z</time></trkpt><trkpt lat="25.87849954204987" lon="-80.48422926017764"><ele>6.8</ele><time>2026-04-19T11:19:13.999Z</time></trkpt><trkpt lat="25.878601611448993" lon="-80.48423510053932"><ele>6.6</ele><time>2026-04-19T11:19:14.999Z</time></trkpt><trkpt lat="25.8787039485432" lon="-80.4842402199527"><ele>6.3999999999999995</ele><time>2026-04-19T11:19:15.999Z</time></trkpt><trkpt lat="25.878806856992153" lon="-80.48424349926007"><ele>6.199999999999999</ele><time>2026-04-19T11:19:16.999Z</time></trkpt><trkpt lat="25.878908061692368" lon="-80.48424589531405"><ele>6.0</ele><time>2026-04-19T11:19:17.999Z</time></trkpt><trkpt lat="25.879009091407084" lon="-80.4842469920937"><ele>6.0</ele><time>2026-04-19T11:19:18.999Z</time></trkpt><trkpt lat="25.87910967045517" lon="-80.48425241360913"><ele>6.0</ele><time>2026-04-19T11:19:19.999Z</time></trkpt><trkpt lat="25.879210624456366" lon="-80.48425987218667"><ele>6.0</ele><time>2026-04-19T11:19:20.999Z</time></trkpt><trkpt lat="25.879311945520175" lon="-80.48426252181025"><ele>6.0</ele><time>2026-04-19T11:19:21.999Z</time></trkpt><trkpt lat="25.879415626981547" lon="-80.4842631409493"><ele>6.0</ele><time>2026-04-19T11:19:22.999Z</time></trkpt><trkpt lat="25.87952033317662" lon="-80.48427027005259"><ele>6.199999999999999</ele><time>2026-04-19T11:19:23.999Z</time></trkpt><trkpt lat="25.879627348286455" lon="-80.4842767596879"><ele>6.3999999999999995</ele><time>2026-04-19T11:19:24.999Z</time></trkpt><trkpt lat="25.87973255107386" lon="-80.48427718523146"><ele>6.6</ele><time>2026-04-19T11:19:25.999Z</time></trkpt><trkpt lat="25.87983378260291" lon="-80.4842776028603"><ele>6.8</ele><time>2026-04-19T11:19:26.999Z</time></trkpt><trkpt lat="25.87993288113493" lon="-80.48428208773467"><ele>7.0</ele><time>2026-04-19T11:19:27.999Z</time></trkpt><trkpt lat="25.88002826105408" lon="-80.48428456658372"><ele>6.6</ele><time>2026-04-19T11:19:28.999Z</time></trkpt><trkpt lat="25.88012299724107" lon="-80.48428671757276"><ele>6.199999999999999</ele><time>2026-04-19T11:19:29.999Z</time></trkpt><trkpt lat="25.880212771868724" lon="-80.48429011430288"><ele>5.8</ele><time>2026-04-19T11:19:30.999Z</time></trkpt><trkpt lat="25.88030370090075" lon="-80.48429299183846"><ele>5.4</ele><time>2026-04-19T11:19:31.999Z</time></trkpt><trkpt lat="25.88039554069418" lon="-80.48429590638492"><ele>5.0</ele><time>2026-04-19T11:19:32.999Z</time></trkpt><trkpt lat="25.880484754203742" lon="-80.48429754006659"><ele>5.0</ele><time>2026-04-19T11:19:33.999Z</time></trkpt><trkpt lat="25.880576445541667" lon="-80.48430067748153"><ele>5.0</ele><time>2026-04-19T11:19:34.999Z</time></trkpt><trkpt lat="25.880670372420152" lon="-80.48430606697713"><ele>5.0</ele><time>2026-04-19T11:19:35.999Z</time></trkpt><trkpt lat="25.880764856906325" lon="-80.48430688544242"><ele>5.0</ele><time>2026-04-19T11:19:36.999Z</time></trkpt><trkpt lat="25.88085982764218" lon="-80.48431041994098"><ele>5.0</ele><time>2026-04-19T11:19:37.999Z</time></trkpt><trkpt lat="25.88095489609986" lon="-80.48431406124747"><ele>5.6</ele><time>2026-04-19T11:19:38.999Z</time></trkpt><trkpt lat="25.88105092317706" lon="-80.48431749279536"><ele>6.2</ele><time>2026-04-19T11:19:39.999Z</time></trkpt><trkpt lat="25.881147311608913" lon="-80.48432110060914"><ele>6.800000000000001</ele><time>2026-04-19T11:19:40.999Z</time></trkpt><trkpt lat="25.88124383208291" lon="-80.48432282824965"><ele>7.4</ele><time>2026-04-19T11:19:41.999Z</time></trkpt><trkpt lat="25.88134084861441" lon="-80.48432561384817"><ele>8.0</ele><time>2026-04-19T11:19:42.999Z</time></trkpt><trkpt lat="25.881437629105637" lon="-80.48432748884711"><ele>8.0</ele><time>2026-04-19T11:19:43.999Z</time></trkpt><trkpt lat="25.881533731971604" lon="-80.48433113211996"><ele>8.0</ele><time>2026-04-19T11:19:44.999Z</time></trkpt><trkpt lat="25.88163051287162" lon="-80.48433610621855"><ele>8.0</ele><time>2026-04-19T11:19:45.999Z</time></trkpt><trkpt lat="25.881723973373756" lon="-80.48433861233048"><ele>8.0</ele><time>2026-04-19T11:19:46.999Z</time></trkpt><trkpt lat="25.881818510663873" lon="-80.48434120754908"><ele>8.0</ele><time>2026-04-19T11:19:47.999Z</time></trkpt><trkpt lat="25.881914451680583" lon="-80.48434607756457"><ele>7.6000000000000005</ele><time>2026-04-19T11:19:48.999Z</time></trkpt><trkpt lat="25.882012954564278" lon="-80.48434758331369"><ele>7.200000000000001</ele><time>2026-04-19T11:19:49.999Z</time></trkpt><trkpt lat="25.882111047541724" lon="-80.48435023311526"><ele>6.8</ele><time>2026-04-19T11:19:50.999Z</time></trkpt><trkpt lat="25.882208189514287" lon="-80.48435814375587"><ele>6.4</ele><time>2026-04-19T11:19:51.999Z</time></trkpt><trkpt lat="25.882305380113767" lon="-80.48436265370457"><ele>6.0</ele><time>2026-04-19T11:19:52.999Z</time></trkpt><trkpt lat="25.88240317742013" lon="-80.48436444748758"><ele>6.0</ele><time>2026-04-19T11:19:53.999Z</time></trkpt><trkpt lat="25.88250231412108" lon="-80.48436558579182"><ele>6.0</ele><time>2026-04-19T11:19:54.999Z</time></trkpt><trkpt lat="25.882601013941624" lon="-80.48436803064877"><ele>6.0</ele><time>2026-04-19T11:19:55.999Z</time></trkpt><trkpt lat="25.882697282125115" lon="-80.48437194029309"><ele>6.0</ele><time>2026-04-19T11:19:56.999Z</time></trkpt><trkpt lat="25.882795440058256" lon="-80.48437411095286"><ele>6.0</ele><time>2026-04-19T11:19:57.999Z</time></trkpt><trkpt lat="25.882895367674433" lon="-80.48437519042291"><ele>6.199999999999999</ele><time>2026-04-19T11:19:58.999Z</time></trkpt><trkpt lat="25.882993671575814" lon="-80.48437839108178"><ele>6.3999999999999995</ele><time>2026-04-19T11:19:59.999Z</time></trkpt><trkpt lat="25.883093541017736" lon="-80.48438027025429"><ele>6.6</ele><time>2026-04-19T11:20:00.999Z</time></trkpt><trkpt lat="25.883195249821433" lon="-80.48438368934785"><ele>6.8</ele><time>2026-04-19T11:20:01.999Z</time></trkpt><trkpt lat="25.883296448602824" lon="-80.48438683216962"><ele>7.0</ele><time>2026-04-19T11:20:02.999Z</time></trkpt><trkpt lat="25.883397257844575" lon="-80.48438985064625"><ele>7.199999999999999</ele><time>2026-04-19T11:20:03.999Z</time></trkpt><trkpt lat="25.88349572431592" lon="-80.48439387821526"><ele>7.3999999999999995</ele><time>2026-04-19T11:20:04.999Z</time></trkpt><trkpt lat="25.88359578099594" lon="-80.48439789981491"><ele>7.6000000000000005</ele><time>2026-04-19T11:20:05.999Z</time></trkpt><trkpt lat="25.883696815108667" lon="-80.48440284227128"><ele>7.800000000000001</ele><time>2026-04-19T11:20:06.999Z</time></trkpt><trkpt lat="25.883799295386126" lon="-80.48440510485942"><ele>8.0</ele><time>2026-04-19T11:20:07.999Z</time></trkpt><trkpt lat="25.883901438654526" lon="-80.48440820144677"><ele>8.0</ele><time>2026-04-19T11:20:08.999Z</time></trkpt><trkpt lat="25.884003882911458" lon="-80.48441331581965"><ele>8.0</ele><time>2026-04-19T11:20:10Z</time></trkpt><trkpt lat="25.884107464734964" lon="-80.4844187693058"><ele>8.0</ele><time>2026-04-19T11:20:11Z</time></trkpt><trkpt lat="25.884208840176427" lon="-80.48442442027405"><ele>8.0</ele><time>2026-04-19T11:20:12Z</time></trkpt><trkpt lat="25.88430872665505" lon="-80.48442938783916"><ele>8.0</ele><time>2026-04-19T11:20:13Z</time></trkpt><trkpt lat="25.884409599939705" lon="-80.48443079096785"><ele>7.4</ele><time>2026-04-19T11:20:14Z</time></trkpt><trkpt lat="25.8845114675443" lon="-80.48443172345583"><ele>6.800000000000001</ele><time>2026-04-19T11:20:15Z</time></trkpt><trkpt lat="25.884614766330948" lon="-80.48443579257432"><ele>6.2</ele><time>2026-04-19T11:20:16Z</time></trkpt><trkpt lat="25.884717197577032" lon="-80.48444095312486"><ele>5.6</ele><time>2026-04-19T11:20:17Z</time></trkpt><trkpt lat="25.8848212413768" lon="-80.4844451057397"><ele>5.0</ele><time>2026-04-19T11:20:18Z</time></trkpt><trkpt lat="25.884924251073503" lon="-80.4844484150289"><ele>5.0</ele><time>2026-04-19T11:20:19Z</time></trkpt><trkpt lat="25.88502880022387" lon="-80.48445424007062"><ele>5.0</ele><time>2026-04-19T11:20:20Z</time></trkpt><trkpt lat="25.885133606168736" lon="-80.4844602194163"><ele>5.0</ele><time>2026-04-19T11:20:21Z</time></trkpt><trkpt lat="25.885235610961534" lon="-80.48446333157125"><ele>5.0</ele><time>2026-04-19T11:20:22Z</time></trkpt><trkpt lat="25.885338146488547" lon="-80.48446586087229"><ele>5.0</ele><time>2026-04-19T11:20:23Z</time></trkpt><trkpt lat="25.885430926277284" lon="-80.48446670731133"><ele>5.0</ele><time>2026-04-19T11:20:24Z</time></trkpt><trkpt lat="25.88552374509858" lon="-80.48446917108218"><ele>5.0</ele><time>2026-04-19T11:20:25Z</time></trkpt><trkpt lat="25.88561927893963" lon="-80.4844750825862"><ele>5.0</ele><time>2026-04-19T11:20:26Z</time></trkpt><trkpt lat="25.885716693126728" lon="-80.48448327107823"><ele>5.0</ele><time>2026-04-19T11:20:27Z</time></trkpt><trkpt lat="25.885814306036" lon="-80.48448867098539"><ele>5.0</ele><time>2026-04-19T11:20:28Z</time></trkpt><trkpt lat="25.885912265769303" lon="-80.48449349497791"><ele>5.4</ele><time>2026-04-19T11:20:29Z</time></trkpt><trkpt lat="25.886011234956896" lon="-80.48449600174605"><ele>5.8</ele><time>2026-04-19T11:20:30Z</time></trkpt><trkpt lat="25.88610899387949" lon="-80.48449703936538"><ele>6.199999999999999</ele><time>2026-04-19T11:20:31Z</time></trkpt><trkpt lat="25.886205820709" lon="-80.48450314865529"><ele>6.6</ele><time>2026-04-19T11:20:32Z</time></trkpt><trkpt lat="25.8862983877112" lon="-80.48450890055237"><ele>7.0</ele><time>2026-04-19T11:20:33Z</time></trkpt><trkpt lat="25.88639064422187" lon="-80.48451622239459"><ele>7.0</ele><time>2026-04-19T11:20:34Z</time></trkpt><trkpt lat="25.88648371937339" lon="-80.48452175936522"><ele>6.999999999999999</ele><time>2026-04-19T11:20:35Z</time></trkpt><trkpt lat="25.88657805968754" lon="-80.48452425612578"><ele>6.999999999999999</ele><time>2026-04-19T11:20:36Z</time></trkpt><trkpt lat="25.886675100376127" lon="-80.48452580800982"><ele>7.0</ele><time>2026-04-19T11:20:37Z</time></trkpt><trkpt lat="25.886773598601174" lon="-80.48453061452234"><ele>7.0</ele><time>2026-04-19T11:20:38Z</time></trkpt><trkpt lat="25.88687142494492" lon="-80.48453671428857"><ele>6.8</ele><time>2026-04-19T11:20:39Z</time></trkpt><trkpt lat="25.886969056959803" lon="-80.48454139611141"><ele>6.6</ele><time>2026-04-19T11:20:40Z</time></trkpt><trkpt lat="25.887068854724735" lon="-80.48454511778745"><ele>6.3999999999999995</ele><time>2026-04-19T11:20:41Z</time></trkpt><trkpt lat="25.887167743619447" lon="-80.48454737101662"><ele>6.199999999999999</ele><time>2026-04-19T11:20:42Z</time></trkpt><trkpt lat="25.88726750953949" lon="-80.48455114441275"><ele>6.0</ele><time>2026-04-19T11:20:43Z</time></trkpt><trkpt lat="25.88736785554227" lon="-80.48455676088125"><ele>6.0</ele><time>2026-04-19T11:20:44Z</time></trkpt><trkpt lat="25.88746675311248" lon="-80.48456250568569"><ele>6.0</ele><time>2026-04-19T11:20:45Z</time></trkpt><trkpt lat="25.887566752989326" lon="-80.48456861170477"><ele>6.0</ele><time>2026-04-19T11:20:46Z</time></trkpt><trkpt lat="25.887666421353362" lon="-80.48457322771971"><ele>6.0</ele><time>2026-04-19T11:20:47Z</time></trkpt><trkpt lat="25.88776659465706" lon="-80.48457984565734"><ele>6.0</ele><time>2026-04-19T11:20:48Z</time></trkpt><trkpt lat="25.887867376343113" lon="-80.48458142734471"><ele>6.0</ele><time>2026-04-19T11:20:49Z</time></trkpt><trkpt lat="25.887968718079108" lon="-80.48458463154277"><ele>6.0</ele><time>2026-04-19T11:20:50Z</time></trkpt><trkpt lat="25.888071262337128" lon="-80.48459390549523"><ele>6.0</ele><time>2026-04-19T11:20:51Z</time></trkpt><trkpt lat="25.888176648842215" lon="-80.48459865524973"><ele>6.0</ele><time>2026-04-19T11:20:52Z</time></trkpt><trkpt lat="25.888282206391953" lon="-80.48460194712723"><ele>6.0</ele><time>2026-04-19T11:20:53Z</time></trkpt><trkpt lat="25.888385634765573" lon="-80.48460533373046"><ele>5.8</ele><time>2026-04-19T11:20:54Z</time></trkpt><trkpt lat="25.888486794477977" lon="-80.48461155078546"><ele>5.6</ele><time>2026-04-19T11:20:55Z</time></trkpt><trkpt lat="25.888587291798302" lon="-80.48461815064795"><ele>5.4</ele><time>2026-04-19T11:20:56Z</time></trkpt><trkpt lat="25.888685285679156" lon="-80.48462414469972"><ele>5.2</ele><time>2026-04-19T11:20:57Z</time></trkpt><trkpt lat="25.88878301745222" lon="-80.48462883633647"><ele>5.0</ele><time>2026-04-19T11:20:58Z</time></trkpt><trkpt lat="25.888880781948856" lon="-80.48463258361373"><ele>5.0</ele><time>2026-04-19T11:20:59Z</time></trkpt><trkpt lat="25.888978761612638" lon="-80.48463350501812"><ele>5.0</ele><time>2026-04-19T11:21:00Z</time></trkpt><trkpt lat="25.88907672176865" lon="-80.48463540297257"><ele>5.0</ele><time>2026-04-19T11:21:01Z</time></trkpt><trkpt lat="25.889176311707786" lon="-80.48463690802902"><ele>5.0</ele><time>2026-04-19T11:21:02Z</time></trkpt><trkpt lat="25.88928050783383" lon="-80.48464018222619"><ele>5.0</ele><time>2026-04-19T11:21:03Z</time></trkpt><trkpt lat="25.889382570960247" lon="-80.48464311362362"><ele>5.2</ele><time>2026-04-19T11:21:04Z</time></trkpt><trkpt lat="25.8894854999587" lon="-80.48464851634866"><ele>5.4</ele><time>2026-04-19T11:21:05Z</time></trkpt><trkpt lat="25.88958856911976" lon="-80.48465469690278"><ele>5.6</ele><time>2026-04-19T11:21:06Z</time></trkpt><trkpt lat="25.889691369824273" lon="-80.48465841740911"><ele>5.8</ele><time>2026-04-19T11:21:07Z</time></trkpt><trkpt lat="25.889794014899472" lon="-80.48466011703823"><ele>6.0</ele><time>2026-04-19T11:21:07.999Z</time></trkpt><trkpt lat="25.88989629625528" lon="-80.48465788360593"><ele>6.0</ele><time>2026-04-19T11:21:08.999Z</time></trkpt><trkpt lat="25.889999930942274" lon="-80.48465482487994"><ele>6.0</ele><time>2026-04-19T11:21:09.999Z</time></trkpt><trkpt lat="25.890102192691902" lon="-80.48464847491006"><ele>6.0</ele><time>2026-04-19T11:21:10.999Z</time></trkpt><trkpt lat="25.89020346954746" lon="-80.48464020312117"><ele>6.0</ele><time>2026-04-19T11:21:11.999Z</time></trkpt><trkpt lat="25.890303738592085" lon="-80.48463121709838"><ele>6.0</ele><time>2026-04-19T11:21:12.999Z</time></trkpt><trkpt lat="25.890401750237654" lon="-80.4846184572093"><ele>6.199999999999999</ele><time>2026-04-19T11:21:13.999Z</time></trkpt><trkpt lat="25.89050003110237" lon="-80.48460193789721"><ele>6.3999999999999995</ele><time>2026-04-19T11:21:14.999Z</time></trkpt><trkpt lat="25.8905977710905" lon="-80.48458232235866"><ele>6.6</ele><time>2026-04-19T11:21:15.999Z</time></trkpt><trkpt lat="25.890696944227212" lon="-80.48456207675211"><ele>6.8</ele><time>2026-04-19T11:21:16.999Z</time></trkpt><trkpt lat="25.890797436152972" lon="-80.48453976921246"><ele>7.0</ele><time>2026-04-19T11:21:17.999Z</time></trkpt><trkpt lat="25.890897271973866" lon="-80.48451499355848"><ele>6.8</ele><time>2026-04-19T11:21:18.999Z</time></trkpt><trkpt lat="25.89099884372281" lon="-80.48448732809607"><ele>6.6</ele><time>2026-04-19T11:21:19.999Z</time></trkpt><trkpt lat="25.89110261760317" lon="-80.48445803660078"><ele>6.3999999999999995</ele><time>2026-04-19T11:21:20.999Z</time></trkpt><trkpt lat="25.891204604686855" lon="-80.48442753691404"><ele>6.199999999999999</ele><time>2026-04-19T11:21:21.999Z</time></trkpt><trkpt lat="25.89130842600112" lon="-80.48439545826454"><ele>6.0</ele><time>2026-04-19T11:21:22.999Z</time></trkpt><trkpt lat="25.891408033772613" lon="-80.48436021319739"><ele>6.0</ele><time>2026-04-19T11:21:23.999Z</time></trkpt><trkpt lat="25.891505481990393" lon="-80.48432257345077"><ele>6.0</ele><time>2026-04-19T11:21:24.999Z</time></trkpt><trkpt lat="25.891602286032203" lon="-80.48428260815538"><ele>6.0</ele><time>2026-04-19T11:21:25.999Z</time></trkpt><trkpt lat="25.891698852843046" lon="-80.4842391263404"><ele>6.0</ele><time>2026-04-19T11:21:26.999Z</time></trkpt><trkpt lat="25.891794627341017" lon="-80.48419691276501"><ele>6.0</ele><time>2026-04-19T11:21:27.999Z</time></trkpt><trkpt lat="25.89188901105042" lon="-80.48415292636518"><ele>5.8</ele><time>2026-04-19T11:21:28.999Z</time></trkpt><trkpt lat="25.891982602407374" lon="-80.48410727756146"><ele>5.6</ele><time>2026-04-19T11:21:29.999Z</time></trkpt><trkpt lat="25.89207000216528" lon="-80.48405858805478"><ele>5.4</ele><time>2026-04-19T11:21:30.999Z</time></trkpt><trkpt lat="25.892156803066637" lon="-80.48400839167238"><ele>5.2</ele><time>2026-04-19T11:21:31.999Z</time></trkpt><trkpt lat="25.892243842032883" lon="-80.4839552892764"><ele>5.0</ele><time>2026-04-19T11:21:32.999Z</time></trkpt><trkpt lat="25.892330864935392" lon="-80.4838998141447"><ele>5.0</ele><time>2026-04-19T11:21:33.999Z</time></trkpt><trkpt lat="25.892419590026392" lon="-80.4838431837418"><ele>5.0</ele><time>2026-04-19T11:21:34.999Z</time></trkpt><trkpt lat="25.892508437287432" lon="-80.48378132316154"><ele>5.0</ele><time>2026-04-19T11:21:35.999Z</time></trkpt><trkpt lat="25.892594941937023" lon="-80.48371763026238"><ele>5.0</ele><time>2026-04-19T11:21:36.999Z</time></trkpt><trkpt lat="25.892681963463357" lon="-80.48365282052237"><ele>5.0</ele><time>2026-04-19T11:21:37.999Z</time></trkpt><trkpt lat="25.89276862299537" lon="-80.48358918186936"><ele>5.0</ele><time>2026-04-19T11:21:38.999Z</time></trkpt><trkpt lat="25.892852416528925" lon="-80.48352461683265"><ele>5.0</ele><time>2026-04-19T11:21:39.999Z</time></trkpt><trkpt lat="25.892934317801277" lon="-80.48345818570384"><ele>5.0</ele><time>2026-04-19T11:21:40.999Z</time></trkpt><trkpt lat="25.893012315207287" lon="-80.4833905138699"><ele>5.0</ele><time>2026-04-19T11:21:41.999Z</time></trkpt><trkpt lat="25.89309041439243" lon="-80.48332090984783"><ele>5.0</ele><time>2026-04-19T11:21:42.999Z</time></trkpt><trkpt lat="25.893169927010817" lon="-80.48325036962925"><ele>5.0</ele><time>2026-04-19T11:21:43.999Z</time></trkpt><trkpt lat="25.893246473729437" lon="-80.4831796673671"><ele>5.0</ele><time>2026-04-19T11:21:44.999Z</time></trkpt><trkpt lat="25.893322848928957" lon="-80.48310768136723"><ele>5.0</ele><time>2026-04-19T11:21:45.999Z</time></trkpt><trkpt lat="25.893401605699026" lon="-80.48303800357613"><ele>5.0</ele><time>2026-04-19T11:21:46.999Z</time></trkpt><trkpt lat="25.893477422895337" lon="-80.48296784153365"><ele>5.0</ele><time>2026-04-19T11:21:47.999Z</time></trkpt><trkpt lat="25.893553535920017" lon="-80.48289943876883"><ele>5.2</ele><time>2026-04-19T11:21:48.999Z</time></trkpt><trkpt lat="25.89362902945074" lon="-80.48283137490354"><ele>5.4</ele><time>2026-04-19T11:21:49.999Z</time></trkpt><trkpt lat="25.893706397076155" lon="-80.48276339176174"><ele>5.6</ele><time>2026-04-19T11:21:50.999Z</time></trkpt><trkpt lat="25.893785788785475" lon="-80.48269338955335"><ele>5.8</ele><time>2026-04-19T11:21:51.999Z</time></trkpt><trkpt lat="25.89386526414925" lon="-80.48262246618901"><ele>6.0</ele><time>2026-04-19T11:21:52.999Z</time></trkpt><trkpt lat="25.893943726215326" lon="-80.48255136621015"><ele>6.0</ele><time>2026-04-19T11:21:53.999Z</time></trkpt><trkpt lat="25.89402442510419" lon="-80.48247936064493"><ele>6.0</ele><time>2026-04-19T11:21:54.999Z</time></trkpt><trkpt lat="25.89410489457343" lon="-80.48240885073994"><ele>6.0</ele><time>2026-04-19T11:21:55.999Z</time></trkpt><trkpt lat="25.894183054336697" lon="-80.48233588577209"><ele>6.0</ele><time>2026-04-19T11:21:56.999Z</time></trkpt><trkpt lat="25.89425902355583" lon="-80.48226199215942"><ele>6.0</ele><time>2026-04-19T11:21:57.999Z</time></trkpt><trkpt lat="25.894338586655664" lon="-80.48219149745299"><ele>6.0</ele><time>2026-04-19T11:21:58.999Z</time></trkpt><trkpt lat="25.894417530660125" lon="-80.48212197741486"><ele>6.0</ele><time>2026-04-19T11:21:59.999Z</time></trkpt><trkpt lat="25.894494760517766" lon="-80.48205327578165"><ele>6.0</ele><time>2026-04-19T11:22:00.999Z</time></trkpt><trkpt lat="25.89457270619894" lon="-80.48198159799817"><ele>6.0</ele><time>2026-04-19T11:22:01.999Z</time></trkpt><trkpt lat="25.894650880901366" lon="-80.48191033152641"><ele>6.0</ele><time>2026-04-19T11:22:02.999Z</time></trkpt><trkpt lat="25.89473058409203" lon="-80.48183839951699"><ele>6.0</ele><time>2026-04-19T11:22:03.999Z</time></trkpt><trkpt lat="25.894809247685078" lon="-80.48176514530675"><ele>6.0</ele><time>2026-04-19T11:22:04.999Z</time></trkpt><trkpt lat="25.894887831442592" lon="-80.4816942198358"><ele>6.0</ele><time>2026-04-19T11:22:05.999Z</time></trkpt><trkpt lat="25.89496755129038" lon="-80.48162272638162"><ele>6.0</ele><time>2026-04-19T11:22:06.999Z</time></trkpt><trkpt lat="25.89504728223202" lon="-80.48154971834673"><ele>6.0</ele><time>2026-04-19T11:22:07.999Z</time></trkpt><trkpt lat="25.895127941452532" lon="-80.48147637006079"><ele>6.199999999999999</ele><time>2026-04-19T11:22:08.999Z</time></trkpt><trkpt lat="25.895208494579" lon="-80.48140440251136"><ele>6.3999999999999995</ele><time>2026-04-19T11:22:09.999Z</time></trkpt><trkpt lat="25.89529196260552" lon="-80.4813303963805"><ele>6.6</ele><time>2026-04-19T11:22:10.999Z</time></trkpt><trkpt lat="25.895373151520378" lon="-80.48125458459535"><ele>6.8</ele><time>2026-04-19T11:22:11.999Z</time></trkpt><trkpt lat="25.89545641803459" lon="-80.48118138378929"><ele>7.0</ele><time>2026-04-19T11:22:12.999Z</time></trkpt><trkpt lat="25.895536760321576" lon="-80.48110776968421"><ele>7.199999999999999</ele><time>2026-04-19T11:22:13.999Z</time></trkpt><trkpt lat="25.895614428404112" lon="-80.48103353469584"><ele>7.3999999999999995</ele><time>2026-04-19T11:22:14.999Z</time></trkpt><trkpt lat="25.895692977895134" lon="-80.4809619093771"><ele>7.6000000000000005</ele><time>2026-04-19T11:22:16Z</time></trkpt><trkpt lat="25.895769612620583" lon="-80.48089359105437"><ele>7.800000000000001</ele><time>2026-04-19T11:22:17Z</time></trkpt><trkpt lat="25.89584625967153" lon="-80.48082586198389"><ele>8.0</ele><time>2026-04-19T11:22:18Z</time></trkpt><trkpt lat="25.89591982545782" lon="-80.48075629276202"><ele>7.800000000000001</ele><time>2026-04-19T11:22:19Z</time></trkpt><trkpt lat="25.895997452408693" lon="-80.48068789858985"><ele>7.6000000000000005</ele><time>2026-04-19T11:22:20Z</time></trkpt><trkpt lat="25.89607334242392" lon="-80.48061862912408"><ele>7.3999999999999995</ele><time>2026-04-19T11:22:21Z</time></trkpt><trkpt lat="25.89615316583642" lon="-80.48055076092645"><ele>7.199999999999999</ele><time>2026-04-19T11:22:22Z</time></trkpt><trkpt lat="25.896230048070827" lon="-80.48047982104356"><ele>7.0</ele><time>2026-04-19T11:22:23Z</time></trkpt><trkpt lat="25.896309119995326" lon="-80.48040917874987"><ele>7.0</ele><time>2026-04-19T11:22:24Z</time></trkpt><trkpt lat="25.8963859701749" lon="-80.48033652718823"><ele>6.999999999999999</ele><time>2026-04-19T11:22:25Z</time></trkpt><trkpt lat="25.89646363424948" lon="-80.48026387592728"><ele>6.999999999999999</ele><time>2026-04-19T11:22:26Z</time></trkpt><trkpt lat="25.896543528237505" lon="-80.48018990163226"><ele>7.0</ele><time>2026-04-19T11:22:27Z</time></trkpt><trkpt lat="25.896623241187292" lon="-80.4801178903259"><ele>7.0</ele><time>2026-04-19T11:22:28Z</time></trkpt><trkpt lat="25.896705112622563" lon="-80.48004318445453"><ele>6.6</ele><time>2026-04-19T11:22:29Z</time></trkpt><trkpt lat="25.896787798849314" lon="-80.47996848811455"><ele>6.199999999999999</ele><time>2026-04-19T11:22:30Z</time></trkpt><trkpt lat="25.896873749443234" lon="-80.47989192510958"><ele>5.8</ele><time>2026-04-19T11:22:31Z</time></trkpt><trkpt lat="25.896959311525578" lon="-80.47981571971818"><ele>5.4</ele><time>2026-04-19T11:22:32Z</time></trkpt><trkpt lat="25.897047654498873" lon="-80.47973711007178"><ele>5.0</ele><time>2026-04-19T11:22:33Z</time></trkpt><trkpt lat="25.897135124815776" lon="-80.4796564604257"><ele>5.0</ele><time>2026-04-19T11:22:34Z</time></trkpt><trkpt lat="25.89722355201318" lon="-80.47957782417136"><ele>5.0</ele><time>2026-04-19T11:22:35Z</time></trkpt><trkpt lat="25.897312041533024" lon="-80.47949899879448"><ele>5.0</ele><time>2026-04-19T11:22:36Z</time></trkpt><trkpt lat="25.8974009949606" lon="-80.47942051591954"><ele>5.0</ele><time>2026-04-19T11:22:37Z</time></trkpt><trkpt lat="25.897486246345874" lon="-80.47934009955077"><ele>5.0</ele><time>2026-04-19T11:22:38Z</time></trkpt><trkpt lat="25.897572961152335" lon="-80.47926381356403"><ele>5.0</ele><time>2026-04-19T11:22:39Z</time></trkpt><trkpt lat="25.897657290935864" lon="-80.47918758736591"><ele>5.0</ele><time>2026-04-19T11:22:40Z</time></trkpt><trkpt lat="25.89773853985635" lon="-80.47911498983717"><ele>5.0</ele><time>2026-04-19T11:22:41Z</time></trkpt><trkpt lat="25.897818741289136" lon="-80.47904005987264"><ele>5.0</ele><time>2026-04-19T11:22:42Z</time></trkpt><trkpt lat="25.89789868841042" lon="-80.47896561176091"><ele>5.2</ele><time>2026-04-19T11:22:43Z</time></trkpt><trkpt lat="25.897978730428903" lon="-80.47889221243977"><ele>5.4</ele><time>2026-04-19T11:22:44Z</time></trkpt><trkpt lat="25.898058905107227" lon="-80.47882034450238"><ele>5.6</ele><time>2026-04-19T11:22:45Z</time></trkpt><trkpt lat="25.89813952114383" lon="-80.478748019678"><ele>5.8</ele><time>2026-04-19T11:22:46Z</time></trkpt><trkpt lat="25.898221621478935" lon="-80.47867527111583"><ele>6.0</ele><time>2026-04-19T11:22:47Z</time></trkpt><trkpt lat="25.89830407486381" lon="-80.47860200771888"><ele>6.0</ele><time>2026-04-19T11:22:48Z</time></trkpt><trkpt lat="25.898385362190428" lon="-80.47852874302392"><ele>6.0</ele><time>2026-04-19T11:22:49Z</time></trkpt><trkpt lat="25.89846413164122" lon="-80.47845393831999"><ele>6.0</ele><time>2026-04-19T11:22:50Z</time></trkpt><trkpt lat="25.89854379393921" lon="-80.47838287739029"><ele>6.0</ele><time>2026-04-19T11:22:51Z</time></trkpt><trkpt lat="25.89861990133964" lon="-80.47831074443651"><ele>6.0</ele><time>2026-04-19T11:22:52Z</time></trkpt><trkpt lat="25.898695022101084" lon="-80.47824324807173"><ele>6.0</ele><time>2026-04-19T11:22:53Z</time></trkpt><trkpt lat="25.898770546497374" lon="-80.478175998661"><ele>6.0</ele><time>2026-04-19T11:22:54Z</time></trkpt><trkpt lat="25.898842806151563" lon="-80.47810926040346"><ele>6.0</ele><time>2026-04-19T11:22:55Z</time></trkpt><trkpt lat="25.898915899758222" lon="-80.47804344324918"><ele>6.0</ele><time>2026-04-19T11:22:56Z</time></trkpt><trkpt lat="25.898990018834095" lon="-80.47797415477456"><ele>6.0</ele><time>2026-04-19T11:22:57Z</time></trkpt><trkpt lat="25.899064870446786" lon="-80.47790474026979"><ele>6.6</ele><time>2026-04-19T11:22:58Z</time></trkpt><trkpt lat="25.899141174977075" lon="-80.47783667218589"><ele>7.199999999999999</ele><time>2026-04-19T11:22:59Z</time></trkpt><trkpt lat="25.89921897830073" lon="-80.47776678135894"><ele>7.800000000000001</ele><time>2026-04-19T11:23:00Z</time></trkpt><trkpt lat="25.899298869029867" lon="-80.47769666823658"><ele>8.4</ele><time>2026-04-19T11:23:01Z</time></trkpt><trkpt lat="25.89937913023798" lon="-80.47762513217891"><ele>9.0</ele><time>2026-04-19T11:23:02Z</time></trkpt><trkpt lat="25.899457733783553" lon="-80.47755267446726"><ele>9.0</ele><time>2026-04-19T11:23:03Z</time></trkpt><trkpt lat="25.89953737831106" lon="-80.47748103640139"><ele>9.0</ele><time>2026-04-19T11:23:04Z</time></trkpt><trkpt lat="25.899616807759237" lon="-80.47740808661372"><ele>9.0</ele><time>2026-04-19T11:23:05Z</time></trkpt><trkpt lat="25.89969757034219" lon="-80.47733589254098"><ele>9.0</ele><time>2026-04-19T11:23:06Z</time></trkpt><trkpt lat="25.8997764582856" lon="-80.47726146621032"><ele>9.0</ele><time>2026-04-19T11:23:07Z</time></trkpt><trkpt lat="25.89985889703493" lon="-80.47719079656436"><ele>9.0</ele><time>2026-04-19T11:23:08Z</time></trkpt><trkpt lat="25.899942211638205" lon="-80.47711726303818"><ele>9.0</ele><time>2026-04-19T11:23:09Z</time></trkpt><trkpt lat="25.900026411907422" lon="-80.47704024666672"><ele>9.0</ele><time>2026-04-19T11:23:09.999Z</time></trkpt><trkpt lat="25.900113349004528" lon="-80.47696499204378"><ele>9.0</ele><time>2026-04-19T11:23:10.999Z</time></trkpt><trkpt lat="25.90019779307504" lon="-80.4768874993154"><ele>9.0</ele><time>2026-04-19T11:23:11.999Z</time></trkpt><trkpt lat="25.900282868602986" lon="-80.47681057202604"><ele>8.2</ele><time>2026-04-19T11:23:12.999Z</time></trkpt><trkpt lat="25.900370189217142" lon="-80.47673259153564"><ele>7.4</ele><time>2026-04-19T11:23:13.999Z</time></trkpt><trkpt lat="25.900456868524724" lon="-80.47665457572998"><ele>6.6</ele><time>2026-04-19T11:23:14.999Z</time></trkpt><trkpt lat="25.90054184203052" lon="-80.47657669492415"><ele>5.8</ele><time>2026-04-19T11:23:15.999Z</time></trkpt><trkpt lat="25.900624411944623" lon="-80.47649857072824"><ele>5.0</ele><time>2026-04-19T11:23:16.999Z</time></trkpt><trkpt lat="25.900706173511583" lon="-80.47642307922177"><ele>5.0</ele><time>2026-04-19T11:23:17.999Z</time></trkpt><trkpt lat="25.900789200620263" lon="-80.47635003659973"><ele>5.0</ele><time>2026-04-19T11:23:18.999Z</time></trkpt><trkpt lat="25.90087081636285" lon="-80.47627818402421"><ele>5.0</ele><time>2026-04-19T11:23:19.999Z</time></trkpt><trkpt lat="25.900954253022544" lon="-80.47620520454454"><ele>5.0</ele><time>2026-04-19T11:23:20.999Z</time></trkpt><trkpt lat="25.9010361544737" lon="-80.47613036791415"><ele>5.0</ele><time>2026-04-19T11:23:21.999Z</time></trkpt><trkpt lat="25.901117999952316" lon="-80.47605799166668"><ele>5.2</ele><time>2026-04-19T11:23:22.999Z</time></trkpt><trkpt lat="25.901200116616476" lon="-80.47598621302072"><ele>5.4</ele><time>2026-04-19T11:23:23.999Z</time></trkpt><trkpt lat="25.901278841712752" lon="-80.47591183751918"><ele>5.6</ele><time>2026-04-19T11:23:24.999Z</time></trkpt><trkpt lat="25.901358475244578" lon="-80.47583796050368"><ele>5.8</ele><time>2026-04-19T11:23:25.999Z</time></trkpt><trkpt lat="25.901438343859386" lon="-80.4757641118099"><ele>6.0</ele><time>2026-04-19T11:23:26.999Z</time></trkpt><trkpt lat="25.901518261198163" lon="-80.47569264916355"><ele>6.0</ele><time>2026-04-19T11:23:27.999Z</time></trkpt><trkpt lat="25.90159663526889" lon="-80.47562298110721"><ele>6.0</ele><time>2026-04-19T11:23:28.999Z</time></trkpt><trkpt lat="25.901676093893247" lon="-80.4755529186641"><ele>6.0</ele><time>2026-04-19T11:23:29.999Z</time></trkpt><trkpt lat="25.901755100805346" lon="-80.47548282449411"><ele>6.0</ele><time>2026-04-19T11:23:30.999Z</time></trkpt><trkpt lat="25.9018309218541" lon="-80.47541244535434"><ele>6.0</ele><time>2026-04-19T11:23:31.999Z</time></trkpt><trkpt lat="25.901907343535736" lon="-80.4753426385112"><ele>6.0</ele><time>2026-04-19T11:23:32.999Z</time></trkpt><trkpt lat="25.901985363832036" lon="-80.4752746054704"><ele>6.0</ele><time>2026-04-19T11:23:33.999Z</time></trkpt><trkpt lat="25.902061640939774" lon="-80.47520540387163"><ele>6.0</ele><time>2026-04-19T11:23:34.999Z</time></trkpt><trkpt lat="25.90213864188222" lon="-80.4751388553112"><ele>6.0</ele><time>2026-04-19T11:23:35.999Z</time></trkpt><trkpt lat="25.902212831408704" lon="-80.47507116508653"><ele>6.0</ele><time>2026-04-19T11:23:36.999Z</time></trkpt><trkpt lat="25.902286499251613" lon="-80.47500367113696"><ele>6.0</ele><time>2026-04-19T11:23:37.999Z</time></trkpt><trkpt lat="25.902359905805614" lon="-80.47493609499202"><ele>6.0</ele><time>2026-04-19T11:23:38.999Z</time></trkpt><trkpt lat="25.902435017533993" lon="-80.47486644035561"><ele>6.0</ele><time>2026-04-19T11:23:39.999Z</time></trkpt><trkpt lat="25.90251113636011" lon="-80.47479660672097"><ele>6.0</ele><time>2026-04-19T11:23:40.999Z</time></trkpt><trkpt lat="25.9025883875406" lon="-80.47472772910888"><ele>6.0</ele><time>2026-04-19T11:23:41.999Z</time></trkpt><trkpt lat="25.902669998959666" lon="-80.47465724872588"><ele>6.0</ele><time>2026-04-19T11:23:42.999Z</time></trkpt><trkpt lat="25.90275357327393" lon="-80.47458566908433"><ele>6.0</ele><time>2026-04-19T11:23:43.999Z</time></trkpt><trkpt lat="25.902838769347102" lon="-80.47451423809669"><ele>6.0</ele><time>2026-04-19T11:23:44.999Z</time></trkpt><trkpt lat="25.902925917422824" lon="-80.47444448056031"><ele>6.0</ele><time>2026-04-19T11:23:45.999Z</time></trkpt><trkpt lat="25.903012118910812" lon="-80.47437340524041"><ele>6.0</ele><time>2026-04-19T11:23:46.999Z</time></trkpt><trkpt lat="25.903095637131912" lon="-80.47429913552891"><ele>6.0</ele><time>2026-04-19T11:23:47.999Z</time></trkpt><trkpt lat="25.90317699184236" lon="-80.47422440126506"><ele>6.0</ele><time>2026-04-19T11:23:48.999Z</time></trkpt><trkpt lat="25.90326015853037" lon="-80.47415170205853"><ele>6.0</ele><time>2026-04-19T11:23:49.999Z</time></trkpt><trkpt lat="25.90334260402828" lon="-80.47407773390594"><ele>6.0</ele><time>2026-04-19T11:23:50.999Z</time></trkpt><trkpt lat="25.903425345423635" lon="-80.4740049355545"><ele>6.0</ele><time>2026-04-19T11:23:51.999Z</time></trkpt><trkpt lat="25.903508184658193" lon="-80.47393273662725"><ele>5.8</ele><time>2026-04-19T11:23:52.999Z</time></trkpt><trkpt lat="25.903594513466924" lon="-80.47386176749676"><ele>5.6</ele><time>2026-04-19T11:23:53.999Z</time></trkpt><trkpt lat="25.90367420990559" lon="-80.47378628090104"><ele>5.4</ele><time>2026-04-19T11:23:54.999Z</time></trkpt><trkpt lat="25.903754472888874" lon="-80.47371263504787"><ele>5.2</ele><time>2026-04-19T11:23:55.999Z</time></trkpt><trkpt lat="25.903842914979847" lon="-80.4736373488819"><ele>5.0</ele><time>2026-04-19T11:23:56.999Z</time></trkpt><trkpt lat="25.903928149898732" lon="-80.473560078926"><ele>5.0</ele><time>2026-04-19T11:23:57.999Z</time></trkpt><trkpt lat="25.904014669018004" lon="-80.47347949108432"><ele>5.0</ele><time>2026-04-19T11:23:58.999Z</time></trkpt><trkpt lat="25.904104024627838" lon="-80.47340218754101"><ele>5.0</ele><time>2026-04-19T11:23:59.999Z</time></trkpt><trkpt lat="25.90418628408015" lon="-80.4733199546269"><ele>5.0</ele><time>2026-04-19T11:24:00.999Z</time></trkpt><trkpt lat="25.904274345877" lon="-80.47323919080263"><ele>5.0</ele><time>2026-04-19T11:24:01.999Z</time></trkpt><trkpt lat="25.90435922863139" lon="-80.47315810952124"><ele>5.0</ele><time>2026-04-19T11:24:02.999Z</time></trkpt><trkpt lat="25.904444400358816" lon="-80.47307811139514"><ele>5.0</ele><time>2026-04-19T11:24:03.999Z</time></trkpt><trkpt lat="25.90453303949184" lon="-80.47299935666378"><ele>5.0</ele><time>2026-04-19T11:24:04.999Z</time></trkpt><trkpt lat="25.904621903612966" lon="-80.47292006432411"><ele>5.2</ele><time>2026-04-19T11:24:05.999Z</time></trkpt><trkpt lat="25.90471008329881" lon="-80.47284089434515"><ele>5.4</ele><time>2026-04-19T11:24:06.999Z</time></trkpt><trkpt lat="25.90479737815309" lon="-80.47276434883216"><ele>5.6</ele><time>2026-04-19T11:24:07.999Z</time></trkpt><trkpt lat="25.90488263834519" lon="-80.47268842756601"><ele>5.8</ele><time>2026-04-19T11:24:08.999Z</time></trkpt><trkpt lat="25.904964318548465" lon="-80.47260849811381"><ele>6.0</ele><time>2026-04-19T11:24:09.999Z</time></trkpt><trkpt lat="25.905048626755722" lon="-80.47253069933977"><ele>6.0</ele><time>2026-04-19T11:24:10.999Z</time></trkpt><trkpt lat="25.905134026356123" lon="-80.47245246609212"><ele>6.0</ele><time>2026-04-19T11:24:11.999Z</time></trkpt><trkpt lat="25.90521905041017" lon="-80.472375529718"><ele>6.0</ele><time>2026-04-19T11:24:12.999Z</time></trkpt><trkpt lat="25.905305133085346" lon="-80.47229793783394"><ele>6.0</ele><time>2026-04-19T11:24:13.999Z</time></trkpt><trkpt lat="25.90539100658346" lon="-80.47222248240773"><ele>6.0</ele><time>2026-04-19T11:24:14.999Z</time></trkpt><trkpt lat="25.905476940291983" lon="-80.4721447390673"><ele>6.199999999999999</ele><time>2026-04-19T11:24:15.999Z</time></trkpt><trkpt lat="25.905560610149237" lon="-80.47206663635276"><ele>6.3999999999999995</ele><time>2026-04-19T11:24:16.999Z</time></trkpt><trkpt lat="25.905647027558743" lon="-80.4719909351531"><ele>6.6</ele><time>2026-04-19T11:24:17.999Z</time></trkpt><trkpt lat="25.90573141596661" lon="-80.47191755680075"><ele>6.8</ele><time>2026-04-19T11:24:18.999Z</time></trkpt><trkpt lat="25.90581458191673" lon="-80.47184389038225"><ele>7.0</ele><time>2026-04-19T11:24:19.999Z</time></trkpt><trkpt lat="25.90589566896963" lon="-80.47177178632191"><ele>6.6</ele><time>2026-04-19T11:24:20.999Z</time></trkpt><trkpt lat="25.905972667940244" lon="-80.47170152441423"><ele>6.199999999999999</ele><time>2026-04-19T11:24:22Z</time></trkpt><trkpt lat="25.90604874554173" lon="-80.47162885843207"><ele>5.8</ele><time>2026-04-19T11:24:23Z</time></trkpt><trkpt lat="25.906126300719794" lon="-80.47155605115566"><ele>5.4</ele><time>2026-04-19T11:24:24Z</time></trkpt><trkpt lat="25.906204838349023" lon="-80.47148452341531"><ele>5.0</ele><time>2026-04-19T11:24:25Z</time></trkpt><trkpt lat="25.906287121553564" lon="-80.47141476027384"><ele>5.0</ele><time>2026-04-19T11:24:26Z</time></trkpt><trkpt lat="25.906368694566233" lon="-80.47134197923597"><ele>5.0</ele><time>2026-04-19T11:24:27Z</time></trkpt><trkpt lat="25.906453403854904" lon="-80.47126861180753"><ele>5.0</ele><time>2026-04-19T11:24:28Z</time></trkpt><trkpt lat="25.906536496854294" lon="-80.47119299112165"><ele>5.0</ele><time>2026-04-19T11:24:29Z</time></trkpt><trkpt lat="25.906615503588593" lon="-80.47111609247509"><ele>5.0</ele><time>2026-04-19T11:24:30Z</time></trkpt><trkpt lat="25.9066946198524" lon="-80.47103778003212"><ele>5.0</ele><time>2026-04-19T11:24:31Z</time></trkpt><trkpt lat="25.906776960149205" lon="-80.47096302206316"><ele>5.0</ele><time>2026-04-19T11:24:32Z</time></trkpt><trkpt lat="25.9068609748655" lon="-80.47089024196893"><ele>5.0</ele><time>2026-04-19T11:24:33Z</time></trkpt><trkpt lat="25.906940995988627" lon="-80.47081627071617"><ele>5.0</ele><time>2026-04-19T11:24:34Z</time></trkpt><trkpt lat="25.907021792392825" lon="-80.47074356140072"><ele>5.0</ele><time>2026-04-19T11:24:35Z</time></trkpt><trkpt lat="25.90710096308687" lon="-80.47067230852258"><ele>5.0</ele><time>2026-04-19T11:24:36Z</time></trkpt><trkpt lat="25.90717969477981" lon="-80.47060021368753"><ele>5.0</ele><time>2026-04-19T11:24:37Z</time></trkpt><trkpt lat="25.907259847335038" lon="-80.4705294674666"><ele>5.0</ele><time>2026-04-19T11:24:38Z</time></trkpt><trkpt lat="25.9073401923444" lon="-80.47045652063088"><ele>5.0</ele><time>2026-04-19T11:24:39Z</time></trkpt><trkpt lat="25.907417755571284" lon="-80.4703842568935"><ele>5.0</ele><time>2026-04-19T11:24:40Z</time></trkpt><trkpt lat="25.907497113167892" lon="-80.47031284243768"><ele>5.2</ele><time>2026-04-19T11:24:41Z</time></trkpt><trkpt lat="25.907578144804642" lon="-80.47024030672141"><ele>5.4</ele><time>2026-04-19T11:24:42Z</time></trkpt><trkpt lat="25.90766063185135" lon="-80.4701683154558"><ele>5.6</ele><time>2026-04-19T11:24:43Z</time></trkpt><trkpt lat="25.907743788402513" lon="-80.4700962889382"><ele>5.8</ele><time>2026-04-19T11:24:44Z</time></trkpt><trkpt lat="25.907827850753726" lon="-80.47002214567438"><ele>6.0</ele><time>2026-04-19T11:24:45Z</time></trkpt><trkpt lat="25.907910981018258" lon="-80.4699473685379"><ele>6.0</ele><time>2026-04-19T11:24:46Z</time></trkpt><trkpt lat="25.90799212349804" lon="-80.46987198352278"><ele>6.0</ele><time>2026-04-19T11:24:47Z</time></trkpt><trkpt lat="25.908075594380556" lon="-80.46979655904165"><ele>6.0</ele><time>2026-04-19T11:24:48Z</time></trkpt><trkpt lat="25.908159377176574" lon="-80.4697234455926"><ele>6.0</ele><time>2026-04-19T11:24:49Z</time></trkpt><trkpt lat="25.90824158382996" lon="-80.46964811298626"><ele>6.0</ele><time>2026-04-19T11:24:50Z</time></trkpt><trkpt lat="25.908324303780844" lon="-80.46957058201595"><ele>6.0</ele><time>2026-04-19T11:24:51Z</time></trkpt><trkpt lat="25.90840579168186" lon="-80.46949535047447"><ele>6.0</ele><time>2026-04-19T11:24:52Z</time></trkpt><trkpt lat="25.908484541752447" lon="-80.46941653374077"><ele>6.0</ele><time>2026-04-19T11:24:53Z</time></trkpt><trkpt lat="25.908565118029625" lon="-80.46934259133761"><ele>6.0</ele><time>2026-04-19T11:24:54Z</time></trkpt><trkpt lat="25.9086489554496" lon="-80.46927114880566"><ele>6.0</ele><time>2026-04-19T11:24:55Z</time></trkpt><trkpt lat="25.908732824991183" lon="-80.46919679620989"><ele>6.0</ele><time>2026-04-19T11:24:56Z</time></trkpt><trkpt lat="25.908817808339386" lon="-80.46912397500788"><ele>6.0</ele><time>2026-04-19T11:24:57Z</time></trkpt><trkpt lat="25.908900988425952" lon="-80.46905008531932"><ele>6.0</ele><time>2026-04-19T11:24:58Z</time></trkpt><trkpt lat="25.908983880767664" lon="-80.46897743104019"><ele>6.0</ele><time>2026-04-19T11:24:59Z</time></trkpt><trkpt lat="25.909062151551378" lon="-80.46890149131767"><ele>6.0</ele><time>2026-04-19T11:25:00Z</time></trkpt><trkpt lat="25.90914416540852" lon="-80.46882828044762"><ele>6.0</ele><time>2026-04-19T11:25:01Z</time></trkpt><trkpt lat="25.909228728217645" lon="-80.46875564473353"><ele>6.0</ele><time>2026-04-19T11:25:02Z</time></trkpt><trkpt lat="25.90931182981735" lon="-80.46868456255687"><ele>6.0</ele><time>2026-04-19T11:25:03Z</time></trkpt><trkpt lat="25.909391230156785" lon="-80.46860851145962"><ele>6.0</ele><time>2026-04-19T11:25:04Z</time></trkpt><trkpt lat="25.90946817330178" lon="-80.46852880409783"><ele>6.0</ele><time>2026-04-19T11:25:05Z</time></trkpt><trkpt lat="25.909539577571568" lon="-80.46845164231837"><ele>6.0</ele><time>2026-04-19T11:25:06Z</time></trkpt><trkpt lat="25.909616714865678" lon="-80.46838122508262"><ele>6.0</ele><time>2026-04-19T11:25:07Z</time></trkpt><trkpt lat="25.90969591112281" lon="-80.46830909300438"><ele>6.0</ele><time>2026-04-19T11:25:08Z</time></trkpt><trkpt lat="25.909776987458642" lon="-80.468239842189"><ele>6.0</ele><time>2026-04-19T11:25:09Z</time></trkpt><trkpt lat="25.909854965654947" lon="-80.46816920726755"><ele>6.0</ele><time>2026-04-19T11:25:10Z</time></trkpt><trkpt lat="25.909934041953314" lon="-80.46809895685215"><ele>6.0</ele><time>2026-04-19T11:25:10.999Z</time></trkpt><trkpt lat="25.910012862311103" lon="-80.46802825498881"><ele>6.0</ele><time>2026-04-19T11:25:11.999Z</time></trkpt><trkpt lat="25.91009508719686" lon="-80.46795660030695"><ele>6.0</ele><time>2026-04-19T11:25:12.999Z</time></trkpt><trkpt lat="25.910173096985336" lon="-80.4678841515625"><ele>6.0</ele><time>2026-04-19T11:25:13.999Z</time></trkpt><trkpt lat="25.910251294795042" lon="-80.4678151105409"><ele>6.0</ele><time>2026-04-19T11:25:14.999Z</time></trkpt><trkpt lat="25.91032968069893" lon="-80.46774706465798"><ele>6.199999999999999</ele><time>2026-04-19T11:25:15.999Z</time></trkpt><trkpt lat="25.910407328823403" lon="-80.46767657668526"><ele>6.3999999999999995</ele><time>2026-04-19T11:25:16.999Z</time></trkpt><trkpt lat="25.910486075388675" lon="-80.46760442085545"><ele>6.6</ele><time>2026-04-19T11:25:17.999Z</time></trkpt><trkpt lat="25.910562557065656" lon="-80.46753341751437"><ele>6.8</ele><time>2026-04-19T11:25:18.999Z</time></trkpt><trkpt lat="25.910641009584598" lon="-80.46746393889497"><ele>7.0</ele><time>2026-04-19T11:25:19.999Z</time></trkpt><trkpt lat="25.910716728404548" lon="-80.467395655741"><ele>7.0</ele><time>2026-04-19T11:25:20.999Z</time></trkpt><trkpt lat="25.91079314000208" lon="-80.46732743841785"><ele>6.999999999999999</ele><time>2026-04-19T11:25:21.999Z</time></trkpt><trkpt lat="25.91086998942264" lon="-80.4672598103855"><ele>6.999999999999999</ele><time>2026-04-19T11:25:22.999Z</time></trkpt><trkpt lat="25.910944617165264" lon="-80.46718997555683"><ele>7.0</ele><time>2026-04-19T11:25:23.999Z</time></trkpt><trkpt lat="25.911019820037744" lon="-80.46712258531727"><ele>7.0</ele><time>2026-04-19T11:25:24.999Z</time></trkpt><trkpt lat="25.911097003011342" lon="-80.4670560967333"><ele>7.199999999999999</ele><time>2026-04-19T11:25:25.999Z</time></trkpt><trkpt lat="25.911174075524674" lon="-80.46698975626"><ele>7.3999999999999995</ele><time>2026-04-19T11:25:26.999Z</time></trkpt><trkpt lat="25.911250553631053" lon="-80.46692159448757"><ele>7.6000000000000005</ele><time>2026-04-19T11:25:27.999Z</time></trkpt><trkpt lat="25.91132738082718" lon="-80.46685212008512"><ele>7.800000000000001</ele><time>2026-04-19T11:25:28.999Z</time></trkpt><trkpt lat="25.911404260826263" lon="-80.46678275872021"><ele>8.0</ele><time>2026-04-19T11:25:29.999Z</time></trkpt><trkpt lat="25.911479256575745" lon="-80.4667113258399"><ele>8.0</ele><time>2026-04-19T11:25:30.999Z</time></trkpt><trkpt lat="25.91155647426958" lon="-80.46663930021207"><ele>8.0</ele><time>2026-04-19T11:25:31.999Z</time></trkpt><trkpt lat="25.911636660789778" lon="-80.4665699807222"><ele>8.0</ele><time>2026-04-19T11:25:32.999Z</time></trkpt><trkpt lat="25.911712832559605" lon="-80.46649743271082"><ele>8.0</ele><time>2026-04-19T11:25:33.999Z</time></trkpt><trkpt lat="25.911790311663196" lon="-80.46642470272735"><ele>8.0</ele><time>2026-04-19T11:25:34.999Z</time></trkpt><trkpt lat="25.911866550351103" lon="-80.46635134199917"><ele>7.6000000000000005</ele><time>2026-04-19T11:25:35.999Z</time></trkpt><trkpt lat="25.911941545329945" lon="-80.46627862753665"><ele>7.200000000000001</ele><time>2026-04-19T11:25:36.999Z</time></trkpt><trkpt lat="25.912016462578183" lon="-80.46620641231952"><ele>6.8</ele><time>2026-04-19T11:25:37.999Z</time></trkpt><trkpt lat="25.91209325181098" lon="-80.4661333288716"><ele>6.4</ele><time>2026-04-19T11:25:38.999Z</time></trkpt><trkpt lat="25.912169727634616" lon="-80.4660625973601"><ele>6.0</ele><time>2026-04-19T11:25:39.999Z</time></trkpt><trkpt lat="25.91224476291172" lon="-80.46599309062925"><ele>6.0</ele><time>2026-04-19T11:25:40.999Z</time></trkpt><trkpt lat="25.912321525964362" lon="-80.46592678159907"><ele>6.0</ele><time>2026-04-19T11:25:41.999Z</time></trkpt><trkpt lat="25.912398774078035" lon="-80.46585942113983"><ele>6.0</ele><time>2026-04-19T11:25:42.999Z</time></trkpt><trkpt lat="25.912476672975313" lon="-80.46579160474995"><ele>6.0</ele><time>2026-04-19T11:25:43.999Z</time></trkpt><trkpt lat="25.91255496404731" lon="-80.46572528320796"><ele>6.0</ele><time>2026-04-19T11:25:44.999Z</time></trkpt><trkpt lat="25.912632708910195" lon="-80.46565698011733"><ele>6.0</ele><time>2026-04-19T11:25:45.999Z</time></trkpt><trkpt lat="25.912707216596562" lon="-80.46558729481688"><ele>6.0</ele><time>2026-04-19T11:25:46.999Z</time></trkpt><trkpt lat="25.91277971725744" lon="-80.46551589284881"><ele>6.0</ele><time>2026-04-19T11:25:47.999Z</time></trkpt><trkpt lat="25.912854626760435" lon="-80.46544545382694"><ele>6.0</ele><time>2026-04-19T11:25:48.999Z</time></trkpt><trkpt lat="25.91293123542475" lon="-80.46537528653575"><ele>6.0</ele><time>2026-04-19T11:25:49.999Z</time></trkpt><trkpt lat="25.913006665920307" lon="-80.46530696981011"><ele>6.4</ele><time>2026-04-19T11:25:50.999Z</time></trkpt><trkpt lat="25.91307770495216" lon="-80.46524378749207"><ele>6.8</ele><time>2026-04-19T11:25:51.999Z</time></trkpt><trkpt lat="25.913148351361286" lon="-80.46518134598016"><ele>7.200000000000001</ele><time>2026-04-19T11:25:52.999Z</time></trkpt><trkpt lat="25.9132192808691" lon="-80.4651195519378"><ele>7.6000000000000005</ele><time>2026-04-19T11:25:53.999Z</time></trkpt><trkpt lat="25.913287845367428" lon="-80.46505815916055"><ele>8.0</ele><time>2026-04-19T11:25:54.999Z</time></trkpt><trkpt lat="25.913360045642666" lon="-80.46499334193304"><ele>7.4</ele><time>2026-04-19T11:25:55.999Z</time></trkpt><trkpt lat="25.913433593986674" lon="-80.46492850193674"><ele>6.800000000000001</ele><time>2026-04-19T11:25:56.999Z</time></trkpt><trkpt lat="25.913507771912418" lon="-80.46485918950589"><ele>6.2</ele><time>2026-04-19T11:25:57.999Z</time></trkpt><trkpt lat="25.913581349861886" lon="-80.46478785536544"><ele>5.6</ele><time>2026-04-19T11:25:58.999Z</time></trkpt><trkpt lat="25.91365683167166" lon="-80.46471666950411"><ele>5.0</ele><time>2026-04-19T11:25:59.999Z</time></trkpt><trkpt lat="25.91373101451083" lon="-80.46464663702729"><ele>5.0</ele><time>2026-04-19T11:26:00.999Z</time></trkpt><trkpt lat="25.913804057824642" lon="-80.46458363206791"><ele>5.0</ele><time>2026-04-19T11:26:01.999Z</time></trkpt><trkpt lat="25.913875413064428" lon="-80.46452190803203"><ele>5.0</ele><time>2026-04-19T11:26:02.999Z</time></trkpt><trkpt lat="25.9139455791584" lon="-80.46446024158492"><ele>5.0</ele><time>2026-04-19T11:26:03.999Z</time></trkpt><trkpt lat="25.914017242540066" lon="-80.46439490564278"><ele>5.0</ele><time>2026-04-19T11:26:04.999Z</time></trkpt><trkpt lat="25.914090648314296" lon="-80.46432867501042"><ele>5.0</ele><time>2026-04-19T11:26:05.999Z</time></trkpt><trkpt lat="25.914163830195037" lon="-80.46426196798303"><ele>5.0</ele><time>2026-04-19T11:26:06.999Z</time></trkpt><trkpt lat="25.914235437576824" lon="-80.46419363363448"><ele>5.0</ele><time>2026-04-19T11:26:07.999Z</time></trkpt><trkpt lat="25.914309929301027" lon="-80.46412752108289"><ele>5.0</ele><time>2026-04-19T11:26:08.999Z</time></trkpt><trkpt lat="25.91438234826969" lon="-80.464060876923"><ele>5.0</ele><time>2026-04-19T11:26:09.999Z</time></trkpt><trkpt lat="25.914454721952353" lon="-80.46399697757288"><ele>5.2</ele><time>2026-04-19T11:26:10.999Z</time></trkpt><trkpt lat="25.91452590329038" lon="-80.46393166560944"><ele>5.4</ele><time>2026-04-19T11:26:11.999Z</time></trkpt><trkpt lat="25.91459765337424" lon="-80.46386799152684"><ele>5.6</ele><time>2026-04-19T11:26:12.999Z</time></trkpt><trkpt lat="25.91466978146745" lon="-80.46380368952761"><ele>5.8</ele><time>2026-04-19T11:26:13.999Z</time></trkpt><trkpt lat="25.914739557113187" lon="-80.46373817019331"><ele>6.0</ele><time>2026-04-19T11:26:14.999Z</time></trkpt><trkpt lat="25.914809922327326" lon="-80.46367390626392"><ele>6.0</ele><time>2026-04-19T11:26:15.999Z</time></trkpt><trkpt lat="25.914880755812412" lon="-80.46361068810373"><ele>6.0</ele><time>2026-04-19T11:26:16.999Z</time></trkpt><trkpt lat="25.914951484740044" lon="-80.46354669026674"><ele>6.0</ele><time>2026-04-19T11:26:17.999Z</time></trkpt><trkpt lat="25.915022132891547" lon="-80.46348135632866"><ele>6.0</ele><time>2026-04-19T11:26:18.999Z</time></trkpt><trkpt lat="25.915091199619553" lon="-80.46342182995019"><ele>6.0</ele><time>2026-04-19T11:26:19.999Z</time></trkpt><trkpt lat="25.915155775622964" lon="-80.4633668035582"><ele>6.0</ele><time>2026-04-19T11:26:20.999Z</time></trkpt><trkpt lat="25.915220955015254" lon="-80.46330749960033"><ele>6.0</ele><time>2026-04-19T11:26:21.999Z</time></trkpt><trkpt lat="25.91528666560686" lon="-80.46324587089596"><ele>6.0</ele><time>2026-04-19T11:26:22.999Z</time></trkpt><trkpt lat="25.91535404817979" lon="-80.46318333844455"><ele>6.0</ele><time>2026-04-19T11:26:23.999Z</time></trkpt><trkpt lat="25.915422526699004" lon="-80.46312212330274"><ele>6.0</ele><time>2026-04-19T11:26:24.999Z</time></trkpt><trkpt lat="25.915491493163877" lon="-80.46306240039631"><ele>6.0</ele><time>2026-04-19T11:26:25.999Z</time></trkpt><trkpt lat="25.915561821859953" lon="-80.46300001897801"><ele>6.0</ele><time>2026-04-19T11:26:26.999Z</time></trkpt><trkpt lat="25.915629565995452" lon="-80.46293793463003"><ele>6.0</ele><time>2026-04-19T11:26:28Z</time></trkpt><trkpt lat="25.915700539990247" lon="-80.46287675138925"><ele>6.0</ele><time>2026-04-19T11:26:29Z</time></trkpt><trkpt lat="25.91577044488058" lon="-80.46281036782696"><ele>6.0</ele><time>2026-04-19T11:26:30Z</time></trkpt><trkpt lat="25.91584284756781" lon="-80.4627429378163"><ele>6.0</ele><time>2026-04-19T11:26:31Z</time></trkpt><trkpt lat="25.915916050312187" lon="-80.46267521943525"><ele>6.0</ele><time>2026-04-19T11:26:32Z</time></trkpt><trkpt lat="25.91599070012124" lon="-80.46260575476147"><ele>5.8</ele><time>2026-04-19T11:26:33Z</time></trkpt><trkpt lat="25.916067715768648" lon="-80.4625338293064"><ele>5.6</ele><time>2026-04-19T11:26:34Z</time></trkpt><trkpt lat="25.916146339180674" lon="-80.46246513807947"><ele>5.4</ele><time>2026-04-19T11:26:35Z</time></trkpt><trkpt lat="25.916222348803462" lon="-80.46239551964274"><ele>5.2</ele><time>2026-04-19T11:26:36Z</time></trkpt><trkpt lat="25.916301238695137" lon="-80.46232840788177"><ele>5.0</ele><time>2026-04-19T11:26:37Z</time></trkpt><trkpt lat="25.916377634500268" lon="-80.46225801579376"><ele>5.0</ele><time>2026-04-19T11:26:38Z</time></trkpt><trkpt lat="25.916458070535775" lon="-80.46218761426475"><ele>5.0</ele><time>2026-04-19T11:26:39Z</time></trkpt><trkpt lat="25.91653673064539" lon="-80.46211612608062"><ele>5.0</ele><time>2026-04-19T11:26:40Z</time></trkpt><trkpt lat="25.916617436952162" lon="-80.46204507245305"><ele>5.0</ele><time>2026-04-19T11:26:41Z</time></trkpt><trkpt lat="25.91669463417956" lon="-80.46197166532265"><ele>5.0</ele><time>2026-04-19T11:26:42Z</time></trkpt><trkpt lat="25.91677600066091" lon="-80.46190095049077"><ele>5.2</ele><time>2026-04-19T11:26:43Z</time></trkpt><trkpt lat="25.91685568603239" lon="-80.46182981265937"><ele>5.4</ele><time>2026-04-19T11:26:44Z</time></trkpt><trkpt lat="25.916935512529573" lon="-80.46175732994526"><ele>5.6</ele><time>2026-04-19T11:26:45Z</time></trkpt><trkpt lat="25.917016521651085" lon="-80.46168669454224"><ele>5.8</ele><time>2026-04-19T11:26:46Z</time></trkpt><trkpt lat="25.917096066192595" lon="-80.46161438960952"><ele>6.0</ele><time>2026-04-19T11:26:47Z</time></trkpt><trkpt lat="25.917178704552754" lon="-80.46154129587568"><ele>6.0</ele><time>2026-04-19T11:26:48Z</time></trkpt><trkpt lat="25.917258694175363" lon="-80.46146440535401"><ele>6.0</ele><time>2026-04-19T11:26:49Z</time></trkpt><trkpt lat="25.91734022789829" lon="-80.46139021741891"><ele>6.0</ele><time>2026-04-19T11:26:50Z</time></trkpt><trkpt lat="25.91742325222294" lon="-80.46131442978485"><ele>6.0</ele><time>2026-04-19T11:26:51Z</time></trkpt><trkpt lat="25.917503168370782" lon="-80.46124133852456"><ele>6.0</ele><time>2026-04-19T11:26:52Z</time></trkpt><trkpt lat="25.917582796932635" lon="-80.46117026342321"><ele>6.0</ele><time>2026-04-19T11:26:53Z</time></trkpt><trkpt lat="25.917663114010466" lon="-80.4611002967778"><ele>6.0</ele><time>2026-04-19T11:26:54Z</time></trkpt><trkpt lat="25.91774069963124" lon="-80.46102949869677"><ele>6.0</ele><time>2026-04-19T11:26:55Z</time></trkpt><trkpt lat="25.91781829893345" lon="-80.46095736397339"><ele>6.0</ele><time>2026-04-19T11:26:56Z</time></trkpt><trkpt lat="25.91789689315467" lon="-80.46088555385256"><ele>6.0</ele><time>2026-04-19T11:26:57Z</time></trkpt><trkpt lat="25.917976563460858" lon="-80.46081413471198"><ele>6.0</ele><time>2026-04-19T11:26:58Z</time></trkpt><trkpt lat="25.91805640271822" lon="-80.46074142563965"><ele>6.0</ele><time>2026-04-19T11:26:59Z</time></trkpt><trkpt lat="25.918136793336426" lon="-80.46066812212416"><ele>6.0</ele><time>2026-04-19T11:27:00Z</time></trkpt><trkpt lat="25.918220311745447" lon="-80.46059580621792"><ele>6.0</ele><time>2026-04-19T11:27:01Z</time></trkpt><trkpt lat="25.91830095233324" lon="-80.4605235561723"><ele>6.0</ele><time>2026-04-19T11:27:02Z</time></trkpt><trkpt lat="25.918381861561347" lon="-80.46045018680769"><ele>6.4</ele><time>2026-04-19T11:27:03Z</time></trkpt><trkpt lat="25.91846190461067" lon="-80.46037718965373"><ele>6.8</ele><time>2026-04-19T11:27:04Z</time></trkpt><trkpt lat="25.918540293985778" lon="-80.46030469840036"><ele>7.200000000000001</ele><time>2026-04-19T11:27:05Z</time></trkpt><trkpt lat="25.918619821911122" lon="-80.46023209695576"><ele>7.6000000000000005</ele><time>2026-04-19T11:27:06Z</time></trkpt><trkpt lat="25.9187000006712" lon="-80.46016098910948"><ele>8.0</ele><time>2026-04-19T11:27:07Z</time></trkpt><trkpt lat="25.918780263131335" lon="-80.46008936109074"><ele>8.0</ele><time>2026-04-19T11:27:08Z</time></trkpt><trkpt lat="25.918862395426714" lon="-80.46001664294981"><ele>8.0</ele><time>2026-04-19T11:27:09Z</time></trkpt><trkpt lat="25.91894592154861" lon="-80.45994247666339"><ele>8.0</ele><time>2026-04-19T11:27:10Z</time></trkpt><trkpt lat="25.919029518316368" lon="-80.45986563042001"><ele>8.0</ele><time>2026-04-19T11:27:10.999Z</time></trkpt><trkpt lat="25.919112192799563" lon="-80.45978936558744"><ele>8.0</ele><time>2026-04-19T11:27:11.999Z</time></trkpt><trkpt lat="25.919194650355333" lon="-80.45971486695008"><ele>7.4</ele><time>2026-04-19T11:27:12.999Z</time></trkpt><trkpt lat="25.91927618539448" lon="-80.45963955291981"><ele>6.800000000000001</ele><time>2026-04-19T11:27:13.999Z</time></trkpt><trkpt lat="25.919356159101262" lon="-80.45956712114196"><ele>6.2</ele><time>2026-04-19T11:27:14.999Z</time></trkpt><trkpt lat="25.919433455650875" lon="-80.45949958575184"><ele>5.6</ele><time>2026-04-19T11:27:15.999Z</time></trkpt><trkpt lat="25.919510726876908" lon="-80.45943246925788"><ele>5.0</ele><time>2026-04-19T11:27:16.999Z</time></trkpt><trkpt lat="25.91958514353061" lon="-80.45936236639241"><ele>5.0</ele><time>2026-04-19T11:27:17.999Z</time></trkpt><trkpt lat="25.919660123338367" lon="-80.45929405710139"><ele>5.0</ele><time>2026-04-19T11:27:18.999Z</time></trkpt><trkpt lat="25.919735728663255" lon="-80.4592279607339"><ele>5.0</ele><time>2026-04-19T11:27:19.999Z</time></trkpt><trkpt lat="25.91981011689144" lon="-80.45915850635225"><ele>5.0</ele><time>2026-04-19T11:27:20.999Z</time></trkpt><trkpt lat="25.91988606505906" lon="-80.45908826573518"><ele>5.0</ele><time>2026-04-19T11:27:21.999Z</time></trkpt><trkpt lat="25.919963616204907" lon="-80.45901596391188"><ele>5.0</ele><time>2026-04-19T11:27:22.999Z</time></trkpt><trkpt lat="25.92004244846137" lon="-80.45894464072838"><ele>5.0</ele><time>2026-04-19T11:27:23.999Z</time></trkpt><trkpt lat="25.92012013685723" lon="-80.45887450389715"><ele>5.0</ele><time>2026-04-19T11:27:24.999Z</time></trkpt><trkpt lat="25.92019931960965" lon="-80.45880474163876"><ele>5.0</ele><time>2026-04-19T11:27:25.999Z</time></trkpt><trkpt lat="25.920277362425416" lon="-80.4587304111881"><ele>5.0</ele><time>2026-04-19T11:27:26.999Z</time></trkpt><trkpt lat="25.920355337306248" lon="-80.45865929381353"><ele>5.2</ele><time>2026-04-19T11:27:27.999Z</time></trkpt><trkpt lat="25.920436437226268" lon="-80.45858602555981"><ele>5.4</ele><time>2026-04-19T11:27:28.999Z</time></trkpt><trkpt lat="25.92051923063161" lon="-80.45851389298178"><ele>5.6</ele><time>2026-04-19T11:27:29.999Z</time></trkpt><trkpt lat="25.920603508040244" lon="-80.45844141809137"><ele>5.8</ele><time>2026-04-19T11:27:30.999Z</time></trkpt><trkpt lat="25.920686117437565" lon="-80.45836515521736"><ele>6.0</ele><time>2026-04-19T11:27:31.999Z</time></trkpt><trkpt lat="25.9207718591935" lon="-80.45828862355278"><ele>6.0</ele><time>2026-04-19T11:27:32.999Z</time></trkpt><trkpt lat="25.920858357552113" lon="-80.45821010227311"><ele>6.0</ele><time>2026-04-19T11:27:33.999Z</time></trkpt><trkpt lat="25.92094211982728" lon="-80.45813403158586"><ele>6.0</ele><time>2026-04-19T11:27:34.999Z</time></trkpt><trkpt lat="25.921025003283134" lon="-80.45805809628497"><ele>6.0</ele><time>2026-04-19T11:27:35.999Z</time></trkpt><trkpt lat="25.921108702425013" lon="-80.45798543120448"><ele>6.0</ele><time>2026-04-19T11:27:36.999Z</time></trkpt><trkpt lat="25.921191072262804" lon="-80.45790970349412"><ele>6.199999999999999</ele><time>2026-04-19T11:27:37.999Z</time></trkpt><trkpt lat="25.92127458822378" lon="-80.4578352921877"><ele>6.3999999999999995</ele><time>2026-04-19T11:27:38.999Z</time></trkpt><trkpt lat="25.921357315606624" lon="-80.45776257320252"><ele>6.6</ele><time>2026-04-19T11:27:39.999Z</time></trkpt><trkpt lat="25.921441023286683" lon="-80.45768816181548"><ele>6.8</ele><time>2026-04-19T11:27:40.999Z</time></trkpt><trkpt lat="25.921522312499807" lon="-80.45761296487605"><ele>7.0</ele><time>2026-04-19T11:27:41.999Z</time></trkpt><trkpt lat="25.92160542986188" lon="-80.4575393871958"><ele>7.0</ele><time>2026-04-19T11:27:42.999Z</time></trkpt><trkpt lat="25.921684168385063" lon="-80.45746461150945"><ele>6.999999999999999</ele><time>2026-04-19T11:27:43.999Z</time></trkpt><trkpt lat="25.921765579646124" lon="-80.45739126921409"><ele>6.999999999999999</ele><time>2026-04-19T11:27:44.999Z</time></trkpt><trkpt lat="25.921848865514157" lon="-80.45731572378911"><ele>7.0</ele><time>2026-04-19T11:27:45.999Z</time></trkpt><trkpt lat="25.921935043235653" lon="-80.45724013065961"><ele>7.0</ele><time>2026-04-19T11:27:46.999Z</time></trkpt><trkpt lat="25.9220248849242" lon="-80.45716192583454"><ele>7.0</ele><time>2026-04-19T11:27:47.999Z</time></trkpt><trkpt lat="25.92211477689137" lon="-80.45708054751348"><ele>7.0</ele><time>2026-04-19T11:27:48.999Z</time></trkpt><trkpt lat="25.92220149796457" lon="-80.45699946579639"><ele>7.0</ele><time>2026-04-19T11:27:49.999Z</time></trkpt><trkpt lat="25.92228595781396" lon="-80.45692058019169"><ele>7.0</ele><time>2026-04-19T11:27:50.999Z</time></trkpt><trkpt lat="25.922371034670075" lon="-80.45684042808368"><ele>7.0</ele><time>2026-04-19T11:27:51.999Z</time></trkpt><trkpt lat="25.922455513837356" lon="-80.45676051787399"><ele>6.999999999999999</ele><time>2026-04-19T11:27:52.999Z</time></trkpt><trkpt lat="25.92254170753158" lon="-80.45668533080955"><ele>6.999999999999999</ele><time>2026-04-19T11:27:53.999Z</time></trkpt><trkpt lat="25.922626861981943" lon="-80.45661070370467"><ele>7.0</ele><time>2026-04-19T11:27:54.999Z</time></trkpt><trkpt lat="25.922713224417762" lon="-80.45653970174612"><ele>7.0</ele><time>2026-04-19T11:27:55.999Z</time></trkpt><trkpt lat="25.92279724872497" lon="-80.45646648027567"><ele>7.199999999999999</ele><time>2026-04-19T11:27:56.999Z</time></trkpt><trkpt lat="25.922878253903065" lon="-80.45639202992292"><ele>7.3999999999999995</ele><time>2026-04-19T11:27:57.999Z</time></trkpt><trkpt lat="25.92295794347929" lon="-80.45631651502151"><ele>7.6000000000000005</ele><time>2026-04-19T11:27:58.999Z</time></trkpt><trkpt lat="25.923037333958597" lon="-80.45624223425868"><ele>7.800000000000001</ele><time>2026-04-19T11:27:59.999Z</time></trkpt><trkpt lat="25.923117424015977" lon="-80.4561689949543"><ele>8.0</ele><time>2026-04-19T11:28:00.999Z</time></trkpt><trkpt lat="25.923199273434623" lon="-80.4560970523415"><ele>8.0</ele><time>2026-04-19T11:28:01.999Z</time></trkpt><trkpt lat="25.923280568220065" lon="-80.45602732356524"><ele>8.0</ele><time>2026-04-19T11:28:02.999Z</time></trkpt><trkpt lat="25.92336147039762" lon="-80.45595521514576"><ele>8.0</ele><time>2026-04-19T11:28:03.999Z</time></trkpt><trkpt lat="25.923443490055345" lon="-80.45588343411804"><ele>8.0</ele><time>2026-04-19T11:28:04.999Z</time></trkpt><trkpt lat="25.923524604502308" lon="-80.45581069069132"><ele>8.0</ele><time>2026-04-19T11:28:05.999Z</time></trkpt><trkpt lat="25.92360140253613" lon="-80.45573590928412"><ele>7.800000000000001</ele><time>2026-04-19T11:28:06.999Z</time></trkpt><trkpt lat="25.923681384355564" lon="-80.45566298363406"><ele>7.6000000000000005</ele><time>2026-04-19T11:28:07.999Z</time></trkpt><trkpt lat="25.923760782575812" lon="-80.45559032317716"><ele>7.3999999999999995</ele><time>2026-04-19T11:28:08.999Z</time></trkpt><trkpt lat="25.923840603050127" lon="-80.45551782730011"><ele>7.199999999999999</ele><time>2026-04-19T11:28:09.999Z</time></trkpt><trkpt lat="25.923920678179307" lon="-80.45544510892421"><ele>7.0</ele><time>2026-04-19T11:28:10.999Z</time></trkpt><trkpt lat="25.924000662589187" lon="-80.45537357035974"><ele>7.0</ele><time>2026-04-19T11:28:11.999Z</time></trkpt><trkpt lat="25.92408113446517" lon="-80.45530273619177"><ele>6.999999999999999</ele><time>2026-04-19T11:28:12.999Z</time></trkpt><trkpt lat="25.92416049497631" lon="-80.45523296776265"><ele>6.999999999999999</ele><time>2026-04-19T11:28:13.999Z</time></trkpt><trkpt lat="25.924239228776784" lon="-80.45516246280889"><ele>7.0</ele><time>2026-04-19T11:28:14.999Z</time></trkpt><trkpt lat="25.924318625658152" lon="-80.4550920825864"><ele>7.0</ele><time>2026-04-19T11:28:15.999Z</time></trkpt><trkpt lat="25.92439777771645" lon="-80.45502053779917"><ele>7.0</ele><time>2026-04-19T11:28:16.999Z</time></trkpt><trkpt lat="25.924476140549128" lon="-80.45494544316493"><ele>6.999999999999999</ele><time>2026-04-19T11:28:17.999Z</time></trkpt><trkpt lat="25.924556942537677" lon="-80.45487021855915"><ele>6.999999999999999</ele><time>2026-04-19T11:28:18.999Z</time></trkpt><trkpt lat="25.924637197015343" lon="-80.45479532346555"><ele>7.0</ele><time>2026-04-19T11:28:19.999Z</time></trkpt><trkpt lat="25.92471873467848" lon="-80.4547198987742"><ele>7.0</ele><time>2026-04-19T11:28:20.999Z</time></trkpt><trkpt lat="25.924801034957127" lon="-80.45464721163555"><ele>7.0</ele><time>2026-04-19T11:28:21.999Z</time></trkpt><trkpt lat="25.924884154278963" lon="-80.45457318278011"><ele>6.999999999999999</ele><time>2026-04-19T11:28:22.999Z</time></trkpt><trkpt lat="25.924967537349822" lon="-80.45449903202127"><ele>6.999999999999999</ele><time>2026-04-19T11:28:23.999Z</time></trkpt><trkpt lat="25.925049466975132" lon="-80.45442465543174"><ele>7.0</ele><time>2026-04-19T11:28:24.999Z</time></trkpt><trkpt lat="25.925132140100224" lon="-80.4543488424634"><ele>7.0</ele><time>2026-04-19T11:28:25.999Z</time></trkpt><trkpt lat="25.925215868230847" lon="-80.45427151869062"><ele>6.8</ele><time>2026-04-19T11:28:26.999Z</time></trkpt><trkpt lat="25.92529803547231" lon="-80.45419609953353"><ele>6.6</ele><time>2026-04-19T11:28:27.999Z</time></trkpt><trkpt lat="25.925380815911467" lon="-80.45412219921774"><ele>6.3999999999999995</ele><time>2026-04-19T11:28:28.999Z</time></trkpt><trkpt lat="25.92546033449668" lon="-80.45404795433441"><ele>6.199999999999999</ele><time>2026-04-19T11:28:29.999Z</time></trkpt><trkpt lat="25.92554025921421" lon="-80.4539749794648"><ele>6.0</ele><time>2026-04-19T11:28:30.999Z</time></trkpt><trkpt lat="25.92561851438973" lon="-80.45389998726301"><ele>6.0</ele><time>2026-04-19T11:28:31.999Z</time></trkpt><trkpt lat="25.92569647126262" lon="-80.45382425819338"><ele>6.0</ele><time>2026-04-19T11:28:32.998Z</time></trkpt><trkpt lat="25.92577732699915" lon="-80.45374869603522"><ele>6.0</ele><time>2026-04-19T11:28:34Z</time></trkpt><trkpt lat="25.92585858909638" lon="-80.45367304910876"><ele>6.0</ele><time>2026-04-19T11:28:35Z</time></trkpt><trkpt lat="25.925939924948434" lon="-80.45359988390783"><ele>6.0</ele><time>2026-04-19T11:28:36Z</time></trkpt><trkpt lat="25.926020402331197" lon="-80.45352845753364"><ele>6.0</ele><time>2026-04-19T11:28:37Z</time></trkpt><trkpt lat="25.926099666403992" lon="-80.45345871954471"><ele>6.0</ele><time>2026-04-19T11:28:38Z</time></trkpt><trkpt lat="25.926178831166975" lon="-80.45338830942424"><ele>6.0</ele><time>2026-04-19T11:28:39Z</time></trkpt><trkpt lat="25.926259668219142" lon="-80.45331454837724"><ele>6.0</ele><time>2026-04-19T11:28:40Z</time></trkpt><trkpt lat="25.926340371298643" lon="-80.45324127607006"><ele>6.0</ele><time>2026-04-19T11:28:41Z</time></trkpt><trkpt lat="25.9264215750378" lon="-80.45316837327563"><ele>6.0</ele><time>2026-04-19T11:28:42Z</time></trkpt><trkpt lat="25.926502109691675" lon="-80.45309897702576"><ele>6.0</ele><time>2026-04-19T11:28:43Z</time></trkpt><trkpt lat="25.92658011458954" lon="-80.45303017265968"><ele>6.0</ele><time>2026-04-19T11:28:44Z</time></trkpt><trkpt lat="25.92665630294432" lon="-80.4529607423613"><ele>6.0</ele><time>2026-04-19T11:28:45Z</time></trkpt><trkpt lat="25.926731258703" lon="-80.45289196262249"><ele>6.0</ele><time>2026-04-19T11:28:46Z</time></trkpt><trkpt lat="25.9268060225099" lon="-80.45282193807071"><ele>5.8</ele><time>2026-04-19T11:28:47Z</time></trkpt><trkpt lat="25.926883050324978" lon="-80.45274875054149"><ele>5.6</ele><time>2026-04-19T11:28:48Z</time></trkpt><trkpt lat="25.926963076047084" lon="-80.45267803314027"><ele>5.4</ele><time>2026-04-19T11:28:49Z</time></trkpt><trkpt lat="25.927043175205938" lon="-80.45260602107166"><ele>5.2</ele><time>2026-04-19T11:28:50Z</time></trkpt><trkpt lat="25.927123048666974" lon="-80.45253278964461"><ele>5.0</ele><time>2026-04-19T11:28:51Z</time></trkpt><trkpt lat="25.9272041739188" lon="-80.45245926414405"><ele>5.0</ele><time>2026-04-19T11:28:52Z</time></trkpt><trkpt lat="25.92728477954712" lon="-80.45238785597897"><ele>5.0</ele><time>2026-04-19T11:28:53Z</time></trkpt><trkpt lat="25.927362859570266" lon="-80.4523165158584"><ele>5.0</ele><time>2026-04-19T11:28:54Z</time></trkpt><trkpt lat="25.927441712984184" lon="-80.45224861998696"><ele>5.0</ele><time>2026-04-19T11:28:55Z</time></trkpt><trkpt lat="25.92752358121001" lon="-80.45217782472774"><ele>5.0</ele><time>2026-04-19T11:28:56Z</time></trkpt><trkpt lat="25.9276028383801" lon="-80.45210608797115"><ele>5.6</ele><time>2026-04-19T11:28:57Z</time></trkpt><trkpt lat="25.92768125181264" lon="-80.4520361119355"><ele>6.2</ele><time>2026-04-19T11:28:58Z</time></trkpt><trkpt lat="25.927758349619626" lon="-80.451965599919"><ele>6.800000000000001</ele><time>2026-04-19T11:28:59Z</time></trkpt><trkpt lat="25.927834942114202" lon="-80.45189480667752"><ele>7.4</ele><time>2026-04-19T11:29:00Z</time></trkpt><trkpt lat="25.927913704890575" lon="-80.45182216119649"><ele>8.0</ele><time>2026-04-19T11:29:01Z</time></trkpt><trkpt lat="25.927993038072227" lon="-80.45174941053158"><ele>8.0</ele><time>2026-04-19T11:29:02Z</time></trkpt><trkpt lat="25.92807202951924" lon="-80.45167709749576"><ele>8.0</ele><time>2026-04-19T11:29:03Z</time></trkpt><trkpt lat="25.92815235185029" lon="-80.45160517632182"><ele>8.0</ele><time>2026-04-19T11:29:04Z</time></trkpt><trkpt lat="25.928230992576157" lon="-80.45153436845482"><ele>8.0</ele><time>2026-04-19T11:29:05Z</time></trkpt><trkpt lat="25.928311956742522" lon="-80.45146481973639"><ele>8.0</ele><time>2026-04-19T11:29:06Z</time></trkpt><trkpt lat="25.928392008816374" lon="-80.45139456988964"><ele>7.4</ele><time>2026-04-19T11:29:07Z</time></trkpt><trkpt lat="25.928472241662117" lon="-80.45132269276885"><ele>6.800000000000001</ele><time>2026-04-19T11:29:08Z</time></trkpt><trkpt lat="25.92855162087852" lon="-80.4512504125312"><ele>6.2</ele><time>2026-04-19T11:29:09Z</time></trkpt><trkpt lat="25.92862772361962" lon="-80.45117746311949"><ele>5.6</ele><time>2026-04-19T11:29:10Z</time></trkpt><trkpt lat="25.92870352314646" lon="-80.45110548735745"><ele>5.0</ele><time>2026-04-19T11:29:11Z</time></trkpt><trkpt lat="25.928780966419723" lon="-80.45103268081297"><ele>5.0</ele><time>2026-04-19T11:29:12Z</time></trkpt><trkpt lat="25.92886035594901" lon="-80.45096392763826"><ele>5.0</ele><time>2026-04-19T11:29:13Z</time></trkpt><trkpt lat="25.92893658526706" lon="-80.45089508805343"><ele>5.0</ele><time>2026-04-19T11:29:14Z</time></trkpt><trkpt lat="25.929014642867962" lon="-80.45082555074467"><ele>5.0</ele><time>2026-04-19T11:29:14.999Z</time></trkpt><trkpt lat="25.92909343736864" lon="-80.45075644432872"><ele>5.0</ele><time>2026-04-19T11:29:15.999Z</time></trkpt><trkpt lat="25.929172208706834" lon="-80.45068465750148"><ele>5.2</ele><time>2026-04-19T11:29:16.999Z</time></trkpt><trkpt lat="25.92924886978902" lon="-80.4506122796089"><ele>5.4</ele><time>2026-04-19T11:29:17.999Z</time></trkpt><trkpt lat="25.929326818065544" lon="-80.45054263896074"><ele>5.6</ele><time>2026-04-19T11:29:18.999Z</time></trkpt><trkpt lat="25.929405261392553" lon="-80.45047489534284"><ele>5.8</ele><time>2026-04-19T11:29:19.999Z</time></trkpt><trkpt lat="25.92948238409516" lon="-80.45040654072093"><ele>6.0</ele><time>2026-04-19T11:29:20.999Z</time></trkpt><trkpt lat="25.929561457362784" lon="-80.4503321490206"><ele>6.0</ele><time>2026-04-19T11:29:21.999Z</time></trkpt><trkpt lat="25.92964547056333" lon="-80.45025862989499"><ele>6.0</ele><time>2026-04-19T11:29:22.999Z</time></trkpt><trkpt lat="25.92972964500506" lon="-80.45018078243011"><ele>6.0</ele><time>2026-04-19T11:29:23.999Z</time></trkpt><trkpt lat="25.929816683552563" lon="-80.45010135980935"><ele>6.0</ele><time>2026-04-19T11:29:24.999Z</time></trkpt><trkpt lat="25.929903536248663" lon="-80.45002199962384"><ele>6.0</ele><time>2026-04-19T11:29:25.999Z</time></trkpt><trkpt lat="25.9299906827602" lon="-80.44994157273887"><ele>6.5</ele><time>2026-04-19T11:29:26.999Z</time></trkpt><trkpt lat="25.930079156605153" lon="-80.44985971272223"><ele>7.0</ele><time>2026-04-19T11:29:27.999Z</time></trkpt><trkpt lat="25.93017031334954" lon="-80.44977847731292"><ele>7.5</ele><time>2026-04-19T11:29:28.999Z</time></trkpt><trkpt lat="25.93026024618681" lon="-80.44969848488707"><ele>8.0</ele><time>2026-04-19T11:29:29.999Z</time></trkpt><trkpt lat="25.930352594999153" lon="-80.44962129483964"><ele>8.0</ele><time>2026-04-19T11:29:30.999Z</time></trkpt><trkpt lat="25.930442250556233" lon="-80.44954176741123"><ele>8.0</ele><time>2026-04-19T11:29:31.999Z</time></trkpt><trkpt lat="25.930525468513853" lon="-80.44945687500085"><ele>8.0</ele><time>2026-04-19T11:29:32.999Z</time></trkpt><trkpt lat="25.930607732551504" lon="-80.44937433861641"><ele>8.0</ele><time>2026-04-19T11:29:33.999Z</time></trkpt><trkpt lat="25.930691223135096" lon="-80.44929629955921"><ele>8.0</ele><time>2026-04-19T11:29:34.999Z</time></trkpt><trkpt lat="25.930773699182517" lon="-80.44921952919992"><ele>8.0</ele><time>2026-04-19T11:29:35.999Z</time></trkpt><trkpt lat="25.93085674119866" lon="-80.44915026214966"><ele>8.0</ele><time>2026-04-19T11:29:36.999Z</time></trkpt><trkpt lat="25.93094165524101" lon="-80.44907710229666"><ele>8.0</ele><time>2026-04-19T11:29:37.999Z</time></trkpt><trkpt lat="25.93102175648955" lon="-80.44900193170999"><ele>8.0</ele><time>2026-04-19T11:29:38.999Z</time></trkpt><trkpt lat="25.931102202954992" lon="-80.44892687627399"><ele>8.0</ele><time>2026-04-19T11:29:39.999Z</time></trkpt><trkpt lat="25.931184362820197" lon="-80.44885177523416"><ele>8.200000000000001</ele><time>2026-04-19T11:29:40.999Z</time></trkpt><trkpt lat="25.931266409125783" lon="-80.44877739693732"><ele>8.4</ele><time>2026-04-19T11:29:41.999Z</time></trkpt><trkpt lat="25.931350270003033" lon="-80.44870312301907"><ele>8.600000000000001</ele><time>2026-04-19T11:29:42.999Z</time></trkpt><trkpt lat="25.931435789347244" lon="-80.44862887325145"><ele>8.8</ele><time>2026-04-19T11:29:43.999Z</time></trkpt><trkpt lat="25.931517435918032" lon="-80.44855265189099"><ele>9.0</ele><time>2026-04-19T11:29:44.999Z</time></trkpt><trkpt lat="25.931596084793338" lon="-80.44847699090559"><ele>9.0</ele><time>2026-04-19T11:29:45.999Z</time></trkpt><trkpt lat="25.931676727474997" lon="-80.44840608629023"><ele>9.0</ele><time>2026-04-19T11:29:46.999Z</time></trkpt><trkpt lat="25.93175928949209" lon="-80.44833498276215"><ele>9.0</ele><time>2026-04-19T11:29:47.999Z</time></trkpt><trkpt lat="25.93184161770399" lon="-80.44826133006671"><ele>9.0</ele><time>2026-04-19T11:29:48.999Z</time></trkpt><trkpt lat="25.931924978153305" lon="-80.44818624926938"><ele>9.0</ele><time>2026-04-19T11:29:49.999Z</time></trkpt><trkpt lat="25.93200811932522" lon="-80.44811153984708"><ele>9.0</ele><time>2026-04-19T11:29:50.999Z</time></trkpt><trkpt lat="25.932092484514946" lon="-80.4480375748677"><ele>9.0</ele><time>2026-04-19T11:29:51.999Z</time></trkpt><trkpt lat="25.932174405525252" lon="-80.44796323100495"><ele>9.0</ele><time>2026-04-19T11:29:52.999Z</time></trkpt><trkpt lat="25.932257536101027" lon="-80.44788770567695"><ele>9.0</ele><time>2026-04-19T11:29:53.999Z</time></trkpt><trkpt lat="25.932340118279097" lon="-80.44781124648425"><ele>9.0</ele><time>2026-04-19T11:29:54.999Z</time></trkpt><trkpt lat="25.93242403562745" lon="-80.44773603452182"><ele>9.0</ele><time>2026-04-19T11:29:55.999Z</time></trkpt><trkpt lat="25.93250638060107" lon="-80.44766087389722"><ele>9.0</ele><time>2026-04-19T11:29:56.999Z</time></trkpt><trkpt lat="25.932589681499227" lon="-80.44758691123782"><ele>9.0</ele><time>2026-04-19T11:29:57.999Z</time></trkpt><trkpt lat="25.932669231453772" lon="-80.4475118346924"><ele>9.0</ele><time>2026-04-19T11:29:58.999Z</time></trkpt><trkpt lat="25.932751416777343" lon="-80.44743942300154"><ele>9.0</ele><time>2026-04-19T11:29:59.999Z</time></trkpt><trkpt lat="25.932833789537955" lon="-80.4473645671973"><ele>8.8</ele><time>2026-04-19T11:30:00.999Z</time></trkpt><trkpt lat="25.932916560422353" lon="-80.44729094987495"><ele>8.600000000000001</ele><time>2026-04-19T11:30:01.999Z</time></trkpt><trkpt lat="25.93299876197305" lon="-80.44721471276323"><ele>8.4</ele><time>2026-04-19T11:30:02.999Z</time></trkpt><trkpt lat="25.933082209795366" lon="-80.44714332304974"><ele>8.200000000000001</ele><time>2026-04-19T11:30:03.999Z</time></trkpt><trkpt lat="25.933167706058303" lon="-80.44707037499492"><ele>8.0</ele><time>2026-04-19T11:30:04.999Z</time></trkpt><trkpt lat="25.933252105042165" lon="-80.4469940076765"><ele>8.0</ele><time>2026-04-19T11:30:05.999Z</time></trkpt><trkpt lat="25.933336750180167" lon="-80.44692021135052"><ele>8.0</ele><time>2026-04-19T11:30:06.999Z</time></trkpt><trkpt lat="25.933419434194505" lon="-80.44684098794173"><ele>8.0</ele><time>2026-04-19T11:30:07.999Z</time></trkpt><trkpt lat="25.93350230754212" lon="-80.44676241882593"><ele>8.0</ele><time>2026-04-19T11:30:08.999Z</time></trkpt><trkpt lat="25.933587204347855" lon="-80.44668529791879"><ele>8.0</ele><time>2026-04-19T11:30:09.999Z</time></trkpt><trkpt lat="25.933671747167114" lon="-80.44660511044977"><ele>8.0</ele><time>2026-04-19T11:30:10.999Z</time></trkpt><trkpt lat="25.933758779319895" lon="-80.4465300941272"><ele>8.0</ele><time>2026-04-19T11:30:11.999Z</time></trkpt><trkpt lat="25.93384585491076" lon="-80.44645509383665"><ele>8.0</ele><time>2026-04-19T11:30:12.999Z</time></trkpt><trkpt lat="25.933932585190092" lon="-80.44638010712069"><ele>8.0</ele><time>2026-04-19T11:30:13.999Z</time></trkpt><trkpt lat="25.934016147387283" lon="-80.44630780620037"><ele>8.0</ele><time>2026-04-19T11:30:14.999Z</time></trkpt><trkpt lat="25.934098816246536" lon="-80.44623478239829"><ele>8.200000000000001</ele><time>2026-04-19T11:30:15.999Z</time></trkpt><trkpt lat="25.934181351503437" lon="-80.44616268757113"><ele>8.4</ele><time>2026-04-19T11:30:16.999Z</time></trkpt><trkpt lat="25.934261443201255" lon="-80.44609073419544"><ele>8.600000000000001</ele><time>2026-04-19T11:30:17.999Z</time></trkpt><trkpt lat="25.934341389346613" lon="-80.44601769311488"><ele>8.8</ele><time>2026-04-19T11:30:18.999Z</time></trkpt><trkpt lat="25.934421079951424" lon="-80.4459439613786"><ele>9.0</ele><time>2026-04-19T11:30:19.999Z</time></trkpt><trkpt lat="25.934504962886543" lon="-80.44587004575693"><ele>9.2</ele><time>2026-04-19T11:30:20.999Z</time></trkpt><trkpt lat="25.934590228127952" lon="-80.44579598926731"><ele>9.4</ele><time>2026-04-19T11:30:21.999Z</time></trkpt><trkpt lat="25.934675449652644" lon="-80.44572023563617"><ele>9.6</ele><time>2026-04-19T11:30:22.999Z</time></trkpt><trkpt lat="25.93476328796573" lon="-80.44564437299155"><ele>9.8</ele><time>2026-04-19T11:30:23.999Z</time></trkpt><trkpt lat="25.934853145049495" lon="-80.44556749786223"><ele>10.0</ele><time>2026-04-19T11:30:24.999Z</time></trkpt><trkpt lat="25.934943383920437" lon="-80.44549123576985"><ele>10.0</ele><time>2026-04-19T11:30:25.999Z</time></trkpt><trkpt lat="25.935029893456086" lon="-80.44541674690385"><ele>10.0</ele><time>2026-04-19T11:30:26.999Z</time></trkpt><trkpt lat="25.93511323956867" lon="-80.44534191686826"><ele>10.0</ele><time>2026-04-19T11:30:27.999Z</time></trkpt><trkpt lat="25.935196542189978" lon="-80.44526685541642"><ele>10.0</ele><time>2026-04-19T11:30:28.999Z</time></trkpt><trkpt lat="25.935280334501794" lon="-80.44519205320773"><ele>10.0</ele><time>2026-04-19T11:30:29.999Z</time></trkpt><trkpt lat="25.935363553005608" lon="-80.44511888175882"><ele>10.0</ele><time>2026-04-19T11:30:30.999Z</time></trkpt><trkpt lat="25.93544708166987" lon="-80.44504477677488"><ele>10.0</ele><time>2026-04-19T11:30:31.999Z</time></trkpt><trkpt lat="25.935529092180595" lon="-80.44497238673874"><ele>10.0</ele><time>2026-04-19T11:30:32.999Z</time></trkpt><trkpt lat="25.935609109412923" lon="-80.44490198818713"><ele>10.0</ele><time>2026-04-19T11:30:33.999Z</time></trkpt><trkpt lat="25.935688879954455" lon="-80.4448302360974"><ele>10.0</ele><time>2026-04-19T11:30:34.999Z</time></trkpt><trkpt lat="25.935767378151674" lon="-80.44475894493632"><ele>10.0</ele><time>2026-04-19T11:30:35.999Z</time></trkpt><trkpt lat="25.935845763478074" lon="-80.44468969800658"><ele>10.0</ele><time>2026-04-19T11:30:36.998Z</time></trkpt><trkpt lat="25.93592391403578" lon="-80.4446188583601"><ele>10.0</ele><time>2026-04-19T11:30:37.998Z</time></trkpt><trkpt lat="25.936001873007115" lon="-80.44454629003995"><ele>10.0</ele><time>2026-04-19T11:30:39Z</time></trkpt><trkpt lat="25.93607979071397" lon="-80.4444739918308"><ele>10.0</ele><time>2026-04-19T11:30:40Z</time></trkpt><trkpt lat="25.936158131899415" lon="-80.44440196275768"><ele>9.8</ele><time>2026-04-19T11:30:41Z</time></trkpt><trkpt lat="25.936237264254547" lon="-80.44433095657443"><ele>9.6</ele><time>2026-04-19T11:30:42Z</time></trkpt><trkpt lat="25.936313632254773" lon="-80.44425833836218"><ele>9.4</ele><time>2026-04-19T11:30:43Z</time></trkpt><trkpt lat="25.93639287219514" lon="-80.4441875663242"><ele>9.2</ele><time>2026-04-19T11:30:44Z</time></trkpt><trkpt lat="25.936472818186004" lon="-80.44411653237606"><ele>9.0</ele><time>2026-04-19T11:30:45Z</time></trkpt><trkpt lat="25.936552341277974" lon="-80.44404412158782"><ele>9.0</ele><time>2026-04-19T11:30:46Z</time></trkpt><trkpt lat="25.93662968383516" lon="-80.44397099937144"><ele>9.0</ele><time>2026-04-19T11:30:47Z</time></trkpt><trkpt lat="25.936711325328275" lon="-80.44390115808565"><ele>9.0</ele><time>2026-04-19T11:30:48Z</time></trkpt><trkpt lat="25.93678951632822" lon="-80.44382624220329"><ele>9.0</ele><time>2026-04-19T11:30:49Z</time></trkpt><trkpt lat="25.93687179714484" lon="-80.44375269985593"><ele>9.0</ele><time>2026-04-19T11:30:50Z</time></trkpt><trkpt lat="25.936953238736837" lon="-80.44367777804605"><ele>8.8</ele><time>2026-04-19T11:30:51Z</time></trkpt><trkpt lat="25.937035915994816" lon="-80.44360595649597"><ele>8.600000000000001</ele><time>2026-04-19T11:30:52Z</time></trkpt><trkpt lat="25.93711794764144" lon="-80.44353398867032"><ele>8.4</ele><time>2026-04-19T11:30:53Z</time></trkpt><trkpt lat="25.937199042026503" lon="-80.44346030161881"><ele>8.200000000000001</ele><time>2026-04-19T11:30:54Z</time></trkpt><trkpt lat="25.93728234013894" lon="-80.44338456629546"><ele>8.0</ele><time>2026-04-19T11:30:55Z</time></trkpt><trkpt lat="25.9373628127674" lon="-80.44330536341175"><ele>8.0</ele><time>2026-04-19T11:30:56Z</time></trkpt><trkpt lat="25.937450149188436" lon="-80.44322952514628"><ele>8.0</ele><time>2026-04-19T11:30:57Z</time></trkpt><trkpt lat="25.93753827249763" lon="-80.44315020259803"><ele>8.0</ele><time>2026-04-19T11:30:58Z</time></trkpt><trkpt lat="25.93762328884968" lon="-80.44307150835196"><ele>8.0</ele><time>2026-04-19T11:30:59Z</time></trkpt><trkpt lat="25.937710693253223" lon="-80.44299695621613"><ele>8.0</ele><time>2026-04-19T11:31:00Z</time></trkpt><trkpt lat="25.937793007302233" lon="-80.44292002860294"><ele>8.4</ele><time>2026-04-19T11:31:01Z</time></trkpt><trkpt lat="25.93787386989473" lon="-80.44284849466523"><ele>8.8</ele><time>2026-04-19T11:31:02Z</time></trkpt><trkpt lat="25.937953952611267" lon="-80.44277612929078"><ele>9.2</ele><time>2026-04-19T11:31:03Z</time></trkpt><trkpt lat="25.938033685432817" lon="-80.44270400606385"><ele>9.6</ele><time>2026-04-19T11:31:04Z</time></trkpt><trkpt lat="25.93811172110164" lon="-80.44263419539774"><ele>10.0</ele><time>2026-04-19T11:31:05Z</time></trkpt><trkpt lat="25.938186561332525" lon="-80.44256358938394"><ele>10.0</ele><time>2026-04-19T11:31:06Z</time></trkpt><trkpt lat="25.938261072290313" lon="-80.4424956518907"><ele>10.0</ele><time>2026-04-19T11:31:07Z</time></trkpt><trkpt lat="25.938334122464145" lon="-80.44242940742967"><ele>10.0</ele><time>2026-04-19T11:31:08Z</time></trkpt><trkpt lat="25.938404384650237" lon="-80.44236575796299"><ele>10.0</ele><time>2026-04-19T11:31:09Z</time></trkpt><trkpt lat="25.938470179296754" lon="-80.44230797253915"><ele>10.0</ele><time>2026-04-19T11:31:10Z</time></trkpt><trkpt lat="25.93852171479486" lon="-80.44225480482683"><ele>10.0</ele><time>2026-04-19T11:31:11Z</time></trkpt><trkpt lat="25.93857572912799" lon="-80.44219912324004"><ele>9.833333333333334</ele><time>2026-04-19T11:31:12Z</time></trkpt><trkpt lat="25.938636872783373" lon="-80.44214756891033"><ele>9.666666666666668</ele><time>2026-04-19T11:31:13Z</time></trkpt><trkpt lat="25.93869662423416" lon="-80.4420936475167"><ele>9.5</ele><time>2026-04-19T11:31:14Z</time></trkpt><trkpt lat="25.938759946843064" lon="-80.44203905969863"><ele>9.333333333333334</ele><time>2026-04-19T11:31:15Z</time></trkpt><trkpt lat="25.93881977384221" lon="-80.441987081356"><ele>9.166666666666666</ele><time>2026-04-19T11:31:15.999Z</time></trkpt><trkpt lat="25.938872411832744" lon="-80.4419422827041"><ele>9.0</ele><time>2026-04-19T11:31:16.999Z</time></trkpt><trkpt lat="25.938972076543894" lon="-80.44188273562943"><ele>9.0</ele><time>2026-04-19T11:31:18.999Z</time></trkpt><trkpt lat="25.93906280423519" lon="-80.44189579625157"><ele>9.0</ele><time>2026-04-19T11:31:20.999Z</time></trkpt><trkpt lat="25.939114852790286" lon="-80.44198602524249"><ele>9.0</ele><time>2026-04-19T11:31:22.999Z</time></trkpt><trkpt lat="25.9390809871864" lon="-80.44211149233622"><ele>9.0</ele><time>2026-04-19T11:31:24.999Z</time></trkpt><trkpt lat="25.939026925872973" lon="-80.44216089332875"><ele>9.0</ele><time>2026-04-19T11:31:25.999Z</time></trkpt><trkpt lat="25.938967540696186" lon="-80.4422040621838"><ele>9.0</ele><time>2026-04-19T11:31:26.999Z</time></trkpt><trkpt lat="25.938907097148583" lon="-80.44225628005643"><ele>9.0</ele><time>2026-04-19T11:31:27.999Z</time></trkpt><trkpt lat="25.938844711644723" lon="-80.44231218133878"><ele>9.0</ele><time>2026-04-19T11:31:28.999Z</time></trkpt><trkpt lat="25.938779656336916" lon="-80.4423724651419"><ele>9.0</ele><time>2026-04-19T11:31:29.999Z</time></trkpt><trkpt lat="25.938705239068604" lon="-80.44243383743303"><ele>9.0</ele><time>2026-04-19T11:31:30.999Z</time></trkpt><trkpt lat="25.938627992756494" lon="-80.44249513591743"><ele>9.0</ele><time>2026-04-19T11:31:31.999Z</time></trkpt><trkpt lat="25.938550260149377" lon="-80.44256530103453"><ele>9.0</ele><time>2026-04-19T11:31:32.999Z</time></trkpt><trkpt lat="25.938470044960344" lon="-80.44263259624937"><ele>9.0</ele><time>2026-04-19T11:31:33.999Z</time></trkpt><trkpt lat="25.938385545262545" lon="-80.442697690849"><ele>9.0</ele><time>2026-04-19T11:31:34.999Z</time></trkpt><trkpt lat="25.93829908684105" lon="-80.44276925226701"><ele>9.0</ele><time>2026-04-19T11:31:35.999Z</time></trkpt><trkpt lat="25.938213618184577" lon="-80.44284385866774"><ele>9.0</ele><time>2026-04-19T11:31:36.999Z</time></trkpt><trkpt lat="25.938132102842538" lon="-80.44292057723467"><ele>8.75</ele><time>2026-04-19T11:31:37.999Z</time></trkpt><trkpt lat="25.938048596438104" lon="-80.44300208724052"><ele>8.5</ele><time>2026-04-19T11:31:38.999Z</time></trkpt><trkpt lat="25.937961150071487" lon="-80.44308300843983"><ele>8.25</ele><time>2026-04-19T11:31:39.999Z</time></trkpt><trkpt lat="25.937872773963335" lon="-80.44316293340928"><ele>8.0</ele><time>2026-04-19T11:31:40.999Z</time></trkpt><trkpt lat="25.937780466913978" lon="-80.44324454992618"><ele>8.0</ele><time>2026-04-19T11:31:41.999Z</time></trkpt><trkpt lat="25.937687013958083" lon="-80.44332533297664"><ele>8.0</ele><time>2026-04-19T11:31:42.999Z</time></trkpt><trkpt lat="25.937594838876628" lon="-80.4434089076879"><ele>8.0</ele><time>2026-04-19T11:31:43.999Z</time></trkpt><trkpt lat="25.937500847981596" lon="-80.4434924246207"><ele>8.0</ele><time>2026-04-19T11:31:44.999Z</time></trkpt><trkpt lat="25.937406965132773" lon="-80.44357396799447"><ele>8.0</ele><time>2026-04-19T11:31:45.999Z</time></trkpt><trkpt lat="25.937312146941068" lon="-80.4436575381203"><ele>8.0</ele><time>2026-04-19T11:31:46.999Z</time></trkpt><trkpt lat="25.937217130430124" lon="-80.44374201341451"><ele>8.0</ele><time>2026-04-19T11:31:47.999Z</time></trkpt><trkpt lat="25.937123387904553" lon="-80.4438258882323"><ele>8.0</ele><time>2026-04-19T11:31:48.999Z</time></trkpt><trkpt lat="25.937028782512392" lon="-80.44390935431495"><ele>8.0</ele><time>2026-04-19T11:31:49.999Z</time></trkpt><trkpt lat="25.9369369900174" lon="-80.44399323634731"><ele>8.0</ele><time>2026-04-19T11:31:50.999Z</time></trkpt><trkpt lat="25.936847170477076" lon="-80.44407656612076"><ele>8.0</ele><time>2026-04-19T11:31:51.999Z</time></trkpt><trkpt lat="25.93676008642409" lon="-80.44415802599791"><ele>8.0</ele><time>2026-04-19T11:31:52.999Z</time></trkpt><trkpt lat="25.9366736915329" lon="-80.44423968580408"><ele>8.25</ele><time>2026-04-19T11:31:53.999Z</time></trkpt><trkpt lat="25.93658467841905" lon="-80.44431845164061"><ele>8.5</ele><time>2026-04-19T11:31:54.999Z</time></trkpt><trkpt lat="25.936496710270387" lon="-80.44440047366176"><ele>8.75</ele><time>2026-04-19T11:31:55.999Z</time></trkpt><trkpt lat="25.93640428983366" lon="-80.44448083586734"><ele>9.0</ele><time>2026-04-19T11:31:56.999Z</time></trkpt><trkpt lat="25.936315453785614" lon="-80.44456439153748"><ele>9.0</ele><time>2026-04-19T11:31:57.999Z</time></trkpt><trkpt lat="25.936226170585968" lon="-80.44464586135477"><ele>9.0</ele><time>2026-04-19T11:31:58.999Z</time></trkpt><trkpt lat="25.936138842155433" lon="-80.44472571802304"><ele>9.0</ele><time>2026-04-19T11:31:59.999Z</time></trkpt><trkpt lat="25.936054611784346" lon="-80.4448047599688"><ele>9.0</ele><time>2026-04-19T11:32:00.999Z</time></trkpt><trkpt lat="25.935969286513576" lon="-80.44487968249634"><ele>9.0</ele><time>2026-04-19T11:32:01.999Z</time></trkpt><trkpt lat="25.935884144421056" lon="-80.44495440119402"><ele>9.2</ele><time>2026-04-19T11:32:02.999Z</time></trkpt><trkpt lat="25.935796662684922" lon="-80.44502759042548"><ele>9.4</ele><time>2026-04-19T11:32:03.999Z</time></trkpt><trkpt lat="25.93570994073146" lon="-80.4451055278061"><ele>9.6</ele><time>2026-04-19T11:32:04.999Z</time></trkpt><trkpt lat="25.935623636132306" lon="-80.44518199020696"><ele>9.8</ele><time>2026-04-19T11:32:05.999Z</time></trkpt><trkpt lat="25.93553935080711" lon="-80.44526229811069"><ele>10.0</ele><time>2026-04-19T11:32:06.999Z</time></trkpt><trkpt lat="25.93545181155167" lon="-80.44533904990277"><ele>10.0</ele><time>2026-04-19T11:32:07.999Z</time></trkpt><trkpt lat="25.935365270031653" lon="-80.44541569124321"><ele>10.0</ele><time>2026-04-19T11:32:08.999Z</time></trkpt><trkpt lat="25.935280000702864" lon="-80.44548895699799"><ele>10.0</ele><time>2026-04-19T11:32:09.999Z</time></trkpt><trkpt lat="25.93519071332344" lon="-80.44556396339696"><ele>10.0</ele><time>2026-04-19T11:32:10.999Z</time></trkpt><trkpt lat="25.935105407089676" lon="-80.44564143110956"><ele>10.0</ele><time>2026-04-19T11:32:11.999Z</time></trkpt><trkpt lat="25.935018109255132" lon="-80.44571928143259"><ele>10.0</ele><time>2026-04-19T11:32:12.999Z</time></trkpt><trkpt lat="25.93493117338976" lon="-80.44579529946753"><ele>10.0</ele><time>2026-04-19T11:32:13.999Z</time></trkpt><trkpt lat="25.934846803370128" lon="-80.44587082615102"><ele>10.0</ele><time>2026-04-19T11:32:14.999Z</time></trkpt><trkpt lat="25.934762781594333" lon="-80.44594597385911"><ele>10.0</ele><time>2026-04-19T11:32:15.999Z</time></trkpt><trkpt lat="25.934677799991967" lon="-80.44602114610954"><ele>10.0</ele><time>2026-04-19T11:32:16.999Z</time></trkpt><trkpt lat="25.934595817137556" lon="-80.4460945200474"><ele>10.0</ele><time>2026-04-19T11:32:17.999Z</time></trkpt><trkpt lat="25.93451392025414" lon="-80.4461672850478"><ele>10.0</ele><time>2026-04-19T11:32:18.999Z</time></trkpt><trkpt lat="25.934430922591545" lon="-80.44623897281176"><ele>10.0</ele><time>2026-04-19T11:32:19.999Z</time></trkpt><trkpt lat="25.934349646023975" lon="-80.44631266248814"><ele>10.0</ele><time>2026-04-19T11:32:20.999Z</time></trkpt><trkpt lat="25.934266947306227" lon="-80.44638906158487"><ele>10.0</ele><time>2026-04-19T11:32:21.999Z</time></trkpt><trkpt lat="25.93418327128207" lon="-80.44646452278569"><ele>9.6</ele><time>2026-04-19T11:32:22.999Z</time></trkpt><trkpt lat="25.93410107243376" lon="-80.4465385172437"><ele>9.2</ele><time>2026-04-19T11:32:23.999Z</time></trkpt><trkpt lat="25.934017088696393" lon="-80.44660867710529"><ele>8.8</ele><time>2026-04-19T11:32:24.999Z</time></trkpt><trkpt lat="25.933931356224004" lon="-80.44667974957076"><ele>8.4</ele><time>2026-04-19T11:32:25.999Z</time></trkpt><trkpt lat="25.933848001799202" lon="-80.44675202474038"><ele>8.0</ele><time>2026-04-19T11:32:26.999Z</time></trkpt><trkpt lat="25.93376534137505" lon="-80.44682458279291"><ele>8.0</ele><time>2026-04-19T11:32:27.999Z</time></trkpt><trkpt lat="25.93368427497079" lon="-80.4468961697508"><ele>8.0</ele><time>2026-04-19T11:32:28.999Z</time></trkpt><trkpt lat="25.933604680081732" lon="-80.44696877576361"><ele>8.0</ele><time>2026-04-19T11:32:29.999Z</time></trkpt><trkpt lat="25.933523558949947" lon="-80.44703717729865"><ele>8.0</ele><time>2026-04-19T11:32:30.999Z</time></trkpt><trkpt lat="25.933445432174004" lon="-80.44710591810697"><ele>8.0</ele><time>2026-04-19T11:32:31.999Z</time></trkpt><trkpt lat="25.933368368498762" lon="-80.44717512332446"><ele>8.0</ele><time>2026-04-19T11:32:32.999Z</time></trkpt><trkpt lat="25.933292608069266" lon="-80.44724537018561"><ele>8.0</ele><time>2026-04-19T11:32:33.999Z</time></trkpt><trkpt lat="25.933218553213035" lon="-80.44731533128889"><ele>8.0</ele><time>2026-04-19T11:32:34.999Z</time></trkpt><trkpt lat="25.933143222277614" lon="-80.44738558146716"><ele>8.0</ele><time>2026-04-19T11:32:35.999Z</time></trkpt><trkpt lat="25.93306703649558" lon="-80.44745245489298"><ele>8.0</ele><time>2026-04-19T11:32:36.999Z</time></trkpt><trkpt lat="25.93299179866562" lon="-80.44751901860296"><ele>8.0</ele><time>2026-04-19T11:32:37.999Z</time></trkpt><trkpt lat="25.93291734192917" lon="-80.44758507640029"><ele>8.0</ele><time>2026-04-19T11:32:38.999Z</time></trkpt><trkpt lat="25.932841550000635" lon="-80.44765058890107"><ele>8.0</ele><time>2026-04-19T11:32:39.998Z</time></trkpt><trkpt lat="25.932767986243796" lon="-80.44772004171507"><ele>8.0</ele><time>2026-04-19T11:32:40.998Z</time></trkpt><trkpt lat="25.932691446617714" lon="-80.44779070071198"><ele>8.0</ele><time>2026-04-19T11:32:41.998Z</time></trkpt><trkpt lat="25.93261403116581" lon="-80.44786166535364"><ele>8.0</ele><time>2026-04-19T11:32:42.998Z</time></trkpt><trkpt lat="25.932533779765908" lon="-80.44793314759028"><ele>8.0</ele><time>2026-04-19T11:32:43.998Z</time></trkpt><trkpt lat="25.932452990597895" lon="-80.44800308081712"><ele>8.0</ele><time>2026-04-19T11:32:45Z</time></trkpt><trkpt lat="25.932369596439255" lon="-80.44807431932102"><ele>8.0</ele><time>2026-04-19T11:32:46Z</time></trkpt><trkpt lat="25.93228839543311" lon="-80.448146775692"><ele>8.0</ele><time>2026-04-19T11:32:47Z</time></trkpt><trkpt lat="25.932208662808975" lon="-80.44822218070452"><ele>8.0</ele><time>2026-04-19T11:32:48Z</time></trkpt><trkpt lat="25.932128496388408" lon="-80.44829778322037"><ele>8.0</ele><time>2026-04-19T11:32:49Z</time></trkpt><trkpt lat="25.932048238306468" lon="-80.44836887640936"><ele>8.0</ele><time>2026-04-19T11:32:50Z</time></trkpt><trkpt lat="25.931968328415813" lon="-80.44844004350132"><ele>8.0</ele><time>2026-04-19T11:32:51Z</time></trkpt><trkpt lat="25.931887706877255" lon="-80.44850855687507"><ele>8.0</ele><time>2026-04-19T11:32:52Z</time></trkpt><trkpt lat="25.931809542321407" lon="-80.44858293010323"><ele>8.0</ele><time>2026-04-19T11:32:53Z</time></trkpt><trkpt lat="25.93172954335456" lon="-80.44865534107926"><ele>8.0</ele><time>2026-04-19T11:32:54Z</time></trkpt><trkpt lat="25.931646970811194" lon="-80.44872770833277"><ele>8.0</ele><time>2026-04-19T11:32:55Z</time></trkpt><trkpt lat="25.931565571016012" lon="-80.44880116014835"><ele>8.0</ele><time>2026-04-19T11:32:56Z</time></trkpt><trkpt lat="25.931486573086847" lon="-80.44887503715172"><ele>8.0</ele><time>2026-04-19T11:32:57Z</time></trkpt><trkpt lat="25.93140619689345" lon="-80.44895220775491"><ele>8.200000000000001</ele><time>2026-04-19T11:32:58Z</time></trkpt><trkpt lat="25.931323819823128" lon="-80.44902557746397"><ele>8.4</ele><time>2026-04-19T11:32:59Z</time></trkpt><trkpt lat="25.931241003245123" lon="-80.44910042598212"><ele>8.600000000000001</ele><time>2026-04-19T11:33:00Z</time></trkpt><trkpt lat="25.931158845674116" lon="-80.44917333426497"><ele>8.8</ele><time>2026-04-19T11:33:01Z</time></trkpt><trkpt lat="25.931076538465362" lon="-80.44924635371613"><ele>9.0</ele><time>2026-04-19T11:33:02Z</time></trkpt><trkpt lat="25.930997760696762" lon="-80.44932230926764"><ele>9.0</ele><time>2026-04-19T11:33:03Z</time></trkpt><trkpt lat="25.930917244205617" lon="-80.44939409426202"><ele>9.0</ele><time>2026-04-19T11:33:04Z</time></trkpt><trkpt lat="25.93083758136361" lon="-80.44946436396042"><ele>9.0</ele><time>2026-04-19T11:33:05Z</time></trkpt><trkpt lat="25.930759358924895" lon="-80.44953294051722"><ele>9.0</ele><time>2026-04-19T11:33:06Z</time></trkpt><trkpt lat="25.930681869304358" lon="-80.44960207911863"><ele>9.0</ele><time>2026-04-19T11:33:07Z</time></trkpt><trkpt lat="25.930604372224288" lon="-80.44967195520067"><ele>9.0</ele><time>2026-04-19T11:33:08Z</time></trkpt><trkpt lat="25.93052700313088" lon="-80.44974275801185"><ele>9.0</ele><time>2026-04-19T11:33:09Z</time></trkpt><trkpt lat="25.93044800021229" lon="-80.44981394987138"><ele>9.0</ele><time>2026-04-19T11:33:10Z</time></trkpt><trkpt lat="25.93036793761964" lon="-80.44988595634457"><ele>9.0</ele><time>2026-04-19T11:33:11Z</time></trkpt><trkpt lat="25.930284113602482" lon="-80.44995731655295"><ele>9.0</ele><time>2026-04-19T11:33:12Z</time></trkpt><trkpt lat="25.930202239773408" lon="-80.45003019791972"><ele>9.0</ele><time>2026-04-19T11:33:13Z</time></trkpt><trkpt lat="25.930121155429404" lon="-80.45010084094032"><ele>9.0</ele><time>2026-04-19T11:33:14Z</time></trkpt><trkpt lat="25.930041548388978" lon="-80.45017136626181"><ele>9.0</ele><time>2026-04-19T11:33:15Z</time></trkpt><trkpt lat="25.929961693729588" lon="-80.45024338735377"><ele>9.0</ele><time>2026-04-19T11:33:15.999Z</time></trkpt><trkpt lat="25.929882017836633" lon="-80.45031256218269"><ele>9.0</ele><time>2026-04-19T11:33:16.999Z</time></trkpt><trkpt lat="25.92980422668137" lon="-80.45037868725446"><ele>8.4</ele><time>2026-04-19T11:33:17.999Z</time></trkpt><trkpt lat="25.929735609310914" lon="-80.45044246700488"><ele>7.800000000000001</ele><time>2026-04-19T11:33:18.999Z</time></trkpt><trkpt lat="25.929663437232577" lon="-80.45050998488347"><ele>7.199999999999999</ele><time>2026-04-19T11:33:19.999Z</time></trkpt><trkpt lat="25.929585946449073" lon="-80.450579624089"><ele>6.6</ele><time>2026-04-19T11:33:20.999Z</time></trkpt><trkpt lat="25.92950960698192" lon="-80.45065314748358"><ele>6.0</ele><time>2026-04-19T11:33:21.999Z</time></trkpt><trkpt lat="25.92942966517434" lon="-80.4507249724367"><ele>6.0</ele><time>2026-04-19T11:33:22.999Z</time></trkpt><trkpt lat="25.929346407344415" lon="-80.45080008851076"><ele>6.0</ele><time>2026-04-19T11:33:23.999Z</time></trkpt><trkpt lat="25.92926017652721" lon="-80.45087600354599"><ele>6.0</ele><time>2026-04-19T11:33:24.999Z</time></trkpt><trkpt lat="25.929175782443885" lon="-80.45095247632659"><ele>6.0</ele><time>2026-04-19T11:33:25.999Z</time></trkpt><trkpt lat="25.92909114079875" lon="-80.45102983615607"><ele>6.0</ele><time>2026-04-19T11:33:26.999Z</time></trkpt><trkpt lat="25.929005689891902" lon="-80.45110484526666"><ele>5.8</ele><time>2026-04-19T11:33:27.999Z</time></trkpt><trkpt lat="25.92891830510567" lon="-80.45117870280475"><ele>5.6</ele><time>2026-04-19T11:33:28.999Z</time></trkpt><trkpt lat="25.928831541973008" lon="-80.45125613554838"><ele>5.4</ele><time>2026-04-19T11:33:29.999Z</time></trkpt><trkpt lat="25.928746211809244" lon="-80.45133601906548"><ele>5.2</ele><time>2026-04-19T11:33:30.999Z</time></trkpt><trkpt lat="25.92866198947567" lon="-80.4514148692099"><ele>5.0</ele><time>2026-04-19T11:33:31.999Z</time></trkpt><trkpt lat="25.928574897813146" lon="-80.45149251779786"><ele>4.5</ele><time>2026-04-19T11:33:32.999Z</time></trkpt><trkpt lat="25.928486084877644" lon="-80.45157246762301"><ele>4.0</ele><time>2026-04-19T11:33:33.999Z</time></trkpt><trkpt lat="25.928396768148215" lon="-80.45165004840757"><ele>3.5</ele><time>2026-04-19T11:33:34.999Z</time></trkpt><trkpt lat="25.928310300134836" lon="-80.45173076430024"><ele>3.0</ele><time>2026-04-19T11:33:35.999Z</time></trkpt><trkpt lat="25.92822252168188" lon="-80.45181108852279"><ele>3.2</ele><time>2026-04-19T11:33:36.999Z</time></trkpt><trkpt lat="25.928135409449855" lon="-80.45189109819317"><ele>3.4</ele><time>2026-04-19T11:33:37.999Z</time></trkpt><trkpt lat="25.92804786551201" lon="-80.4519687272484"><ele>3.6000000000000005</ele><time>2026-04-19T11:33:38.999Z</time></trkpt><trkpt lat="25.927962266191003" lon="-80.45204722129388"><ele>3.8000000000000003</ele><time>2026-04-19T11:33:39.999Z</time></trkpt><trkpt lat="25.92787839916382" lon="-80.45212513627864"><ele>4.0</ele><time>2026-04-19T11:33:40.999Z</time></trkpt><trkpt lat="25.927795032274485" lon="-80.45220158351356"><ele>4.0</ele><time>2026-04-19T11:33:41.999Z</time></trkpt><trkpt lat="25.92771591964907" lon="-80.45227335753029"><ele>4.0</ele><time>2026-04-19T11:33:42.999Z</time></trkpt><trkpt lat="25.92763885632174" lon="-80.45234911576095"><ele>4.0</ele><time>2026-04-19T11:33:43.999Z</time></trkpt><trkpt lat="25.92756002187016" lon="-80.45242695872544"><ele>4.0</ele><time>2026-04-19T11:33:44.999Z</time></trkpt><trkpt lat="25.927477759479356" lon="-80.45250195810411"><ele>4.0</ele><time>2026-04-19T11:33:45.999Z</time></trkpt><trkpt lat="25.927394990485894" lon="-80.452577108471"><ele>4.2</ele><time>2026-04-19T11:33:46.999Z</time></trkpt><trkpt lat="25.92731420117519" lon="-80.45265143117376"><ele>4.4</ele><time>2026-04-19T11:33:47.999Z</time></trkpt><trkpt lat="25.927235329427955" lon="-80.45272477629719"><ele>4.6</ele><time>2026-04-19T11:33:48.999Z</time></trkpt><trkpt lat="25.92715473838204" lon="-80.45279860711327"><ele>4.8</ele><time>2026-04-19T11:33:49.999Z</time></trkpt><trkpt lat="25.927075617052846" lon="-80.45287260144212"><ele>5.0</ele><time>2026-04-19T11:33:50.999Z</time></trkpt><trkpt lat="25.926992753231197" lon="-80.4529460764531"><ele>5.2</ele><time>2026-04-19T11:33:51.999Z</time></trkpt><trkpt lat="25.926912487265152" lon="-80.45302138861064"><ele>5.4</ele><time>2026-04-19T11:33:52.999Z</time></trkpt><trkpt lat="25.926834202411065" lon="-80.45309494428443"><ele>5.6</ele><time>2026-04-19T11:33:53.999Z</time></trkpt><trkpt lat="25.926756682285717" lon="-80.45316694894726"><ele>5.8</ele><time>2026-04-19T11:33:54.999Z</time></trkpt><trkpt lat="25.926679258838444" lon="-80.45323890068164"><ele>6.0</ele><time>2026-04-19T11:33:55.999Z</time></trkpt><trkpt lat="25.926601698315455" lon="-80.45330938116797"><ele>6.0</ele><time>2026-04-19T11:33:56.999Z</time></trkpt><trkpt lat="25.926522959279342" lon="-80.45338199472205"><ele>6.0</ele><time>2026-04-19T11:33:57.999Z</time></trkpt><trkpt lat="25.926444855433765" lon="-80.45345460469329"><ele>6.0</ele><time>2026-04-19T11:33:58.999Z</time></trkpt><trkpt lat="25.926364422143042" lon="-80.45352556640113"><ele>6.0</ele><time>2026-04-19T11:33:59.999Z</time></trkpt><trkpt lat="25.92628469092834" lon="-80.45359564387115"><ele>6.0</ele><time>2026-04-19T11:34:00.999Z</time></trkpt><trkpt lat="25.92620619966588" lon="-80.45366535134251"><ele>6.0</ele><time>2026-04-19T11:34:01.999Z</time></trkpt><trkpt lat="25.92612694125649" lon="-80.45373482266267"><ele>6.0</ele><time>2026-04-19T11:34:02.999Z</time></trkpt><trkpt lat="25.926045918923244" lon="-80.45380834633023"><ele>6.0</ele><time>2026-04-19T11:34:03.999Z</time></trkpt><trkpt lat="25.925965852027893" lon="-80.45388219246898"><ele>6.0</ele><time>2026-04-19T11:34:04.999Z</time></trkpt><trkpt lat="25.925886034878857" lon="-80.45395531736304"><ele>6.0</ele><time>2026-04-19T11:34:05.999Z</time></trkpt><trkpt lat="25.92580671359102" lon="-80.45402858945609"><ele>6.0</ele><time>2026-04-19T11:34:06.999Z</time></trkpt><trkpt lat="25.925726224868015" lon="-80.45410085385926"><ele>6.0</ele><time>2026-04-19T11:34:07.999Z</time></trkpt><trkpt lat="25.925646389013814" lon="-80.45417388554372"><ele>6.0</ele><time>2026-04-19T11:34:08.999Z</time></trkpt><trkpt lat="25.925567396292315" lon="-80.45424730992835"><ele>6.0</ele><time>2026-04-19T11:34:09.999Z</time></trkpt><trkpt lat="25.925489372119284" lon="-80.45431956087732"><ele>6.0</ele><time>2026-04-19T11:34:10.999Z</time></trkpt><trkpt lat="25.925410593246077" lon="-80.45439248373718"><ele>6.0</ele><time>2026-04-19T11:34:11.999Z</time></trkpt><trkpt lat="25.92532961621637" lon="-80.454467611888"><ele>6.0</ele><time>2026-04-19T11:34:12.999Z</time></trkpt><trkpt lat="25.925248210228585" lon="-80.45454020131008"><ele>6.0</ele><time>2026-04-19T11:34:13.999Z</time></trkpt><trkpt lat="25.925165168374033" lon="-80.45461145516164"><ele>6.0</ele><time>2026-04-19T11:34:14.999Z</time></trkpt><trkpt lat="25.92508451041617" lon="-80.45468501123659"><ele>6.0</ele><time>2026-04-19T11:34:15.999Z</time></trkpt><trkpt lat="25.92500375659331" lon="-80.45475786479145"><ele>6.199999999999999</ele><time>2026-04-19T11:34:16.999Z</time></trkpt><trkpt lat="25.92492341498308" lon="-80.45482896380608"><ele>6.3999999999999995</ele><time>2026-04-19T11:34:17.999Z</time></trkpt><trkpt lat="25.92484529313229" lon="-80.4549009079123"><ele>6.6</ele><time>2026-04-19T11:34:18.999Z</time></trkpt><trkpt lat="25.9247661416438" lon="-80.45497288203357"><ele>6.8</ele><time>2026-04-19T11:34:19.999Z</time></trkpt><trkpt lat="25.924686000277916" lon="-80.45504336791822"><ele>7.0</ele><time>2026-04-19T11:34:20.999Z</time></trkpt><trkpt lat="25.924607462129796" lon="-80.45511120823176"><ele>7.0</ele><time>2026-04-19T11:34:21.999Z</time></trkpt><trkpt lat="25.924529052910255" lon="-80.45518083151094"><ele>6.999999999999999</ele><time>2026-04-19T11:34:22.999Z</time></trkpt><trkpt lat="25.92445206424041" lon="-80.45525061194654"><ele>6.999999999999999</ele><time>2026-04-19T11:34:23.999Z</time></trkpt><trkpt lat="25.924376083643935" lon="-80.45532085191404"><ele>7.0</ele><time>2026-04-19T11:34:24.999Z</time></trkpt><trkpt lat="25.92429795579012" lon="-80.45539122150541"><ele>7.0</ele><time>2026-04-19T11:34:25.999Z</time></trkpt><trkpt lat="25.924217130265344" lon="-80.4554630428307"><ele>6.8</ele><time>2026-04-19T11:34:26.999Z</time></trkpt><trkpt lat="25.924135063456042" lon="-80.4555360404547"><ele>6.6</ele><time>2026-04-19T11:34:27.999Z</time></trkpt><trkpt lat="25.92405589968774" lon="-80.4556100713141"><ele>6.3999999999999995</ele><time>2026-04-19T11:34:28.999Z</time></trkpt><trkpt lat="25.923975183746037" lon="-80.4556874635855"><ele>6.199999999999999</ele><time>2026-04-19T11:34:29.999Z</time></trkpt><trkpt lat="25.923894010502448" lon="-80.45576238716895"><ele>6.0</ele><time>2026-04-19T11:34:30.999Z</time></trkpt><trkpt lat="25.923808972106237" lon="-80.45583620510536"><ele>6.0</ele><time>2026-04-19T11:34:31.999Z</time></trkpt><trkpt lat="25.92372555302983" lon="-80.45590985493256"><ele>6.0</ele><time>2026-04-19T11:34:32.999Z</time></trkpt><trkpt lat="25.923641566536602" lon="-80.45598403969417"><ele>6.0</ele><time>2026-04-19T11:34:33.999Z</time></trkpt><trkpt lat="25.92355863249516" lon="-80.45605733975843"><ele>6.0</ele><time>2026-04-19T11:34:34.999Z</time></trkpt><trkpt lat="25.923477949432744" lon="-80.45612979347001"><ele>6.0</ele><time>2026-04-19T11:34:35.999Z</time></trkpt><trkpt lat="25.923397099654142" lon="-80.45620338057644"><ele>6.4</ele><time>2026-04-19T11:34:36.999Z</time></trkpt><trkpt lat="25.923316327677444" lon="-80.45627521704898"><ele>6.8</ele><time>2026-04-19T11:34:37.999Z</time></trkpt><trkpt lat="25.923232914898428" lon="-80.45634977446933"><ele>7.200000000000001</ele><time>2026-04-19T11:34:38.999Z</time></trkpt><trkpt lat="25.923152143168668" lon="-80.45642655201002"><ele>7.6000000000000005</ele><time>2026-04-19T11:34:39.998Z</time></trkpt><trkpt lat="25.92306620227433" lon="-80.45650463530185"><ele>8.0</ele><time>2026-04-19T11:34:40.998Z</time></trkpt><trkpt lat="25.922978135950057" lon="-80.45658337142406"><ele>7.0</ele><time>2026-04-19T11:34:41.998Z</time></trkpt><trkpt lat="25.922890067217015" lon="-80.45666220105903"><ele>6.0</ele><time>2026-04-19T11:34:42.998Z</time></trkpt><trkpt lat="25.922801923123966" lon="-80.45674152386118"><ele>5.0</ele><time>2026-04-19T11:34:43.998Z</time></trkpt><trkpt lat="25.922715442496802" lon="-80.45681990320345"><ele>4.0</ele><time>2026-04-19T11:34:44.998Z</time></trkpt><trkpt lat="25.92262808456261" lon="-80.45689821828311"><ele>4.2</ele><time>2026-04-19T11:34:45.998Z</time></trkpt><trkpt lat="25.922542055255747" lon="-80.45697836848363"><ele>4.4</ele><time>2026-04-19T11:34:46.998Z</time></trkpt><trkpt lat="25.922453327035303" lon="-80.45705615152086"><ele>4.6</ele><time>2026-04-19T11:34:47.998Z</time></trkpt><trkpt lat="25.9223683989571" lon="-80.4571376384824"><ele>4.8</ele><time>2026-04-19T11:34:48.998Z</time></trkpt><trkpt lat="25.92228526849638" lon="-80.45721784322014"><ele>5.0</ele><time>2026-04-19T11:34:49.999Z</time></trkpt><trkpt lat="25.922201167497533" lon="-80.45729594347372"><ele>5.0</ele><time>2026-04-19T11:34:50.999Z</time></trkpt><trkpt lat="25.922114146433767" lon="-80.45737297785966"><ele>5.0</ele><time>2026-04-19T11:34:51.999Z</time></trkpt><trkpt lat="25.922025761521848" lon="-80.45745090043198"><ele>5.0</ele><time>2026-04-19T11:34:52.999Z</time></trkpt><trkpt lat="25.921939107530683" lon="-80.45753075828411"><ele>5.0</ele><time>2026-04-19T11:34:53.999Z</time></trkpt><trkpt lat="25.9218505779009" lon="-80.45760889632578"><ele>5.0</ele><time>2026-04-19T11:34:54.999Z</time></trkpt><trkpt lat="25.921761435860045" lon="-80.45768821560453"><ele>5.0</ele><time>2026-04-19T11:34:55.999Z</time></trkpt><trkpt lat="25.921675335686842" lon="-80.45776706441838"><ele>5.0</ele><time>2026-04-19T11:34:56.999Z</time></trkpt><trkpt lat="25.921589636711705" lon="-80.45784824911026"><ele>5.0</ele><time>2026-04-19T11:34:57.999Z</time></trkpt><trkpt lat="25.921501847698085" lon="-80.45792786596996"><ele>5.5</ele><time>2026-04-19T11:34:59Z</time></trkpt><trkpt lat="25.92141416107885" lon="-80.4580082530532"><ele>6.0</ele><time>2026-04-19T11:35:00Z</time></trkpt><trkpt lat="25.92132533666366" lon="-80.45808620927913"><ele>6.5</ele><time>2026-04-19T11:35:01Z</time></trkpt><trkpt lat="25.921235629866757" lon="-80.45816463288769"><ele>7.0</ele><time>2026-04-19T11:35:02Z</time></trkpt><trkpt lat="25.921147195467192" lon="-80.458245042007"><ele>7.0</ele><time>2026-04-19T11:35:03Z</time></trkpt><trkpt lat="25.92105631339499" lon="-80.45832581316543"><ele>7.0</ele><time>2026-04-19T11:35:04Z</time></trkpt><trkpt lat="25.92096848749922" lon="-80.45840878770542"><ele>7.0</ele><time>2026-04-19T11:35:05Z</time></trkpt><trkpt lat="25.920881357637693" lon="-80.45848928518562"><ele>7.0</ele><time>2026-04-19T11:35:06Z</time></trkpt><trkpt lat="25.92079517981985" lon="-80.45856845757541"><ele>6.8</ele><time>2026-04-19T11:35:06.999Z</time></trkpt><trkpt lat="25.920708246132385" lon="-80.45864711769919"><ele>6.6</ele><time>2026-04-19T11:35:07.999Z</time></trkpt><trkpt lat="25.920620708358715" lon="-80.45872598668464"><ele>6.3999999999999995</ele><time>2026-04-19T11:35:08.999Z</time></trkpt><trkpt lat="25.920533772200088" lon="-80.45880445272125"><ele>6.199999999999999</ele><time>2026-04-19T11:35:09.999Z</time></trkpt><trkpt lat="25.92044825255046" lon="-80.4588844644949"><ele>6.0</ele><time>2026-04-19T11:35:10.999Z</time></trkpt><trkpt lat="25.92035931305969" lon="-80.45896269639329"><ele>6.0</ele><time>2026-04-19T11:35:11.999Z</time></trkpt><trkpt lat="25.920271600306325" lon="-80.45904201929145"><ele>6.0</ele><time>2026-04-19T11:35:12.999Z</time></trkpt><trkpt lat="25.920183739096306" lon="-80.45912121653538"><ele>6.0</ele><time>2026-04-19T11:35:13.999Z</time></trkpt><trkpt lat="25.920096455365563" lon="-80.45920181617275"><ele>6.0</ele><time>2026-04-19T11:35:14.999Z</time></trkpt><trkpt lat="25.920007830726824" lon="-80.45928157609211"><ele>5.75</ele><time>2026-04-19T11:35:15.999Z</time></trkpt><trkpt lat="25.91991999960896" lon="-80.45936239486217"><ele>5.5</ele><time>2026-04-19T11:35:16.999Z</time></trkpt><trkpt lat="25.919833125246715" lon="-80.45944376357076"><ele>5.25</ele><time>2026-04-19T11:35:17.999Z</time></trkpt><trkpt lat="25.91974462240614" lon="-80.45952346391431"><ele>5.0</ele><time>2026-04-19T11:35:18.999Z</time></trkpt><trkpt lat="25.919654702412522" lon="-80.45960324597738"><ele>5.0</ele><time>2026-04-19T11:35:19.999Z</time></trkpt><trkpt lat="25.919564149033633" lon="-80.4596812231429"><ele>5.0</ele><time>2026-04-19T11:35:20.999Z</time></trkpt><trkpt lat="25.91947393281966" lon="-80.45976150161637"><ele>5.0</ele><time>2026-04-19T11:35:21.999Z</time></trkpt><trkpt lat="25.919382515816217" lon="-80.45984199213171"><ele>5.0</ele><time>2026-04-19T11:35:22.999Z</time></trkpt><trkpt lat="25.919292266878017" lon="-80.45992378679337"><ele>5.75</ele><time>2026-04-19T11:35:23.999Z</time></trkpt><trkpt lat="25.919202008177688" lon="-80.46000825564093"><ele>6.5</ele><time>2026-04-19T11:35:24.999Z</time></trkpt><trkpt lat="25.919110249978374" lon="-80.46009215346375"><ele>7.25</ele><time>2026-04-19T11:35:25.999Z</time></trkpt><trkpt lat="25.91901630555513" lon="-80.46017327412244"><ele>8.0</ele><time>2026-04-19T11:35:26.999Z</time></trkpt><trkpt lat="25.91892575849133" lon="-80.46025848924528"><ele>8.0</ele><time>2026-04-19T11:35:27.999Z</time></trkpt><trkpt lat="25.918836309235786" lon="-80.46034348823525"><ele>8.0</ele><time>2026-04-19T11:35:28.999Z</time></trkpt><trkpt lat="25.918744838558354" lon="-80.46042590164987"><ele>8.0</ele><time>2026-04-19T11:35:29.999Z</time></trkpt><trkpt lat="25.91865472466943" lon="-80.46050699667693"><ele>8.0</ele><time>2026-04-19T11:35:30.999Z</time></trkpt><trkpt lat="25.91856242715286" lon="-80.46058752050244"><ele>7.5</ele><time>2026-04-19T11:35:31.999Z</time></trkpt><trkpt lat="25.918473686946115" lon="-80.46067021747315"><ele>7.0</ele><time>2026-04-19T11:35:32.999Z</time></trkpt><trkpt lat="25.91838607128047" lon="-80.46075194393322"><ele>6.5</ele><time>2026-04-19T11:35:33.999Z</time></trkpt><trkpt lat="25.918297589381325" lon="-80.46083129034416"><ele>6.0</ele><time>2026-04-19T11:35:34.999Z</time></trkpt><trkpt lat="25.91820508408236" lon="-80.46091114523033"><ele>6.0</ele><time>2026-04-19T11:35:35.999Z</time></trkpt><trkpt lat="25.91811157475667" lon="-80.46099215903095"><ele>6.0</ele><time>2026-04-19T11:35:36.999Z</time></trkpt><trkpt lat="25.918022022873487" lon="-80.46107532261777"><ele>6.0</ele><time>2026-04-19T11:35:37.999Z</time></trkpt><trkpt lat="25.917930433263276" lon="-80.46116002779038"><ele>6.0</ele><time>2026-04-19T11:35:38.999Z</time></trkpt><trkpt lat="25.917839633146084" lon="-80.46124305966924"><ele>6.0</ele><time>2026-04-19T11:35:39.999Z</time></trkpt><trkpt lat="25.91775130227563" lon="-80.46132290482159"><ele>6.0</ele><time>2026-04-19T11:35:40.999Z</time></trkpt><trkpt lat="25.917661088281037" lon="-80.46140448923961"><ele>6.0</ele><time>2026-04-19T11:35:41.999Z</time></trkpt><trkpt lat="25.91757078368302" lon="-80.46148550169072"><ele>6.0</ele><time>2026-04-19T11:35:42.999Z</time></trkpt><trkpt lat="25.917478545527782" lon="-80.46156372123004"><ele>6.0</ele><time>2026-04-19T11:35:43.999Z</time></trkpt><trkpt lat="25.917388980626207" lon="-80.46164472026925"><ele>6.0</ele><time>2026-04-19T11:35:44.999Z</time></trkpt><trkpt lat="25.917299101380216" lon="-80.46172767111048"><ele>6.0</ele><time>2026-04-19T11:35:45.999Z</time></trkpt><trkpt lat="25.917211168541805" lon="-80.46181049462554"><ele>6.0</ele><time>2026-04-19T11:35:46.999Z</time></trkpt><trkpt lat="25.917122155505844" lon="-80.46189285169487"><ele>6.0</ele><time>2026-04-19T11:35:47.999Z</time></trkpt><trkpt lat="25.917030922992655" lon="-80.46197309260972"><ele>6.0</ele><time>2026-04-19T11:35:48.999Z</time></trkpt><trkpt lat="25.916940254136737" lon="-80.46205206173337"><ele>6.0</ele><time>2026-04-19T11:35:49.999Z</time></trkpt><trkpt lat="25.916851148088274" lon="-80.46213326351116"><ele>6.0</ele><time>2026-04-19T11:35:50.999Z</time></trkpt><trkpt lat="25.91676345961331" lon="-80.46221346937166"><ele>5.75</ele><time>2026-04-19T11:35:51.999Z</time></trkpt><trkpt lat="25.916674359832445" lon="-80.4622940823636"><ele>5.5</ele><time>2026-04-19T11:35:52.999Z</time></trkpt><trkpt lat="25.91658280203652" lon="-80.46237333377223"><ele>5.25</ele><time>2026-04-19T11:35:53.999Z</time></trkpt><trkpt lat="25.916493215036486" lon="-80.46245627269437"><ele>5.0</ele><time>2026-04-19T11:35:54.999Z</time></trkpt><trkpt lat="25.916403302641378" lon="-80.4625357670647"><ele>5.0</ele><time>2026-04-19T11:35:55.999Z</time></trkpt><trkpt lat="25.916311518643287" lon="-80.46261734063377"><ele>5.0</ele><time>2026-04-19T11:35:56.999Z</time></trkpt><trkpt lat="25.91621987737997" lon="-80.46270055447035"><ele>5.0</ele><time>2026-04-19T11:35:57.999Z</time></trkpt><trkpt lat="25.916127035010305" lon="-80.46278372755151"><ele>5.0</ele><time>2026-04-19T11:35:58.999Z</time></trkpt><trkpt lat="25.91603180719797" lon="-80.46286732233726"><ele>5.25</ele><time>2026-04-19T11:35:59.999Z</time></trkpt><trkpt lat="25.915939682560705" lon="-80.46295130634164"><ele>5.5</ele><time>2026-04-19T11:36:00.999Z</time></trkpt><trkpt lat="25.915846756499025" lon="-80.46303524671694"><ele>5.75</ele><time>2026-04-19T11:36:01.999Z</time></trkpt><trkpt lat="25.91575561569889" lon="-80.46311856515813"><ele>6.0</ele><time>2026-04-19T11:36:02.999Z</time></trkpt><trkpt lat="25.91566290700801" lon="-80.46319960097999"><ele>5.5</ele><time>2026-04-19T11:36:03.999Z</time></trkpt><trkpt lat="25.915571217555495" lon="-80.463280642266"><ele>5.0</ele><time>2026-04-19T11:36:04.999Z</time></trkpt><trkpt lat="25.9154807298839" lon="-80.46336541919094"><ele>4.5</ele><time>2026-04-19T11:36:05.999Z</time></trkpt><trkpt lat="25.915390481679154" lon="-80.4634471751471"><ele>4.0</ele><time>2026-04-19T11:36:06.999Z</time></trkpt><trkpt lat="25.91529769260782" lon="-80.46352847091059"><ele>4.0</ele><time>2026-04-19T11:36:07.999Z</time></trkpt><trkpt lat="25.91520781371915" lon="-80.46361199354224"><ele>4.0</ele><time>2026-04-19T11:36:08.999Z</time></trkpt><trkpt lat="25.91511755732839" lon="-80.46369752661546"><ele>4.0</ele><time>2026-04-19T11:36:09.999Z</time></trkpt><trkpt lat="25.91502615815636" lon="-80.4637808071341"><ele>4.0</ele><time>2026-04-19T11:36:10.999Z</time></trkpt><trkpt lat="25.9149336335096" lon="-80.4638663830163"><ele>4.75</ele><time>2026-04-19T11:36:11.999Z</time></trkpt><trkpt lat="25.914841500049366" lon="-80.4639503075608"><ele>5.5</ele><time>2026-04-19T11:36:12.999Z</time></trkpt><trkpt lat="25.914745932012448" lon="-80.46403310354144"><ele>6.25</ele><time>2026-04-19T11:36:13.999Z</time></trkpt><trkpt lat="25.914653984741076" lon="-80.46411770028818"><ele>7.0</ele><time>2026-04-19T11:36:14.999Z</time></trkpt><trkpt lat="25.914559709430446" lon="-80.46420001008313"><ele>7.0</ele><time>2026-04-19T11:36:15.999Z</time></trkpt><trkpt lat="25.91446771463315" lon="-80.46428470962948"><ele>7.0</ele><time>2026-04-19T11:36:16.999Z</time></trkpt><trkpt lat="25.914378532304283" lon="-80.46437032282097"><ele>7.0</ele><time>2026-04-19T11:36:17.999Z</time></trkpt><trkpt lat="25.91428953568451" lon="-80.46445256164851"><ele>7.0</ele><time>2026-04-19T11:36:18.999Z</time></trkpt><trkpt lat="25.914199657067005" lon="-80.46453219097398"><ele>6.5</ele><time>2026-04-19T11:36:19.999Z</time></trkpt><trkpt lat="25.91411030711019" lon="-80.46461244336903"><ele>6.0</ele><time>2026-04-19T11:36:20.999Z</time></trkpt><trkpt lat="25.914019866325752" lon="-80.46469077006343"><ele>5.5</ele><time>2026-04-19T11:36:21.999Z</time></trkpt><trkpt lat="25.913928852923185" lon="-80.46476905342963"><ele>5.0</ele><time>2026-04-19T11:36:22.999Z</time></trkpt><trkpt lat="25.913842391379866" lon="-80.46485193018623"><ele>5.0</ele><time>2026-04-19T11:36:23.999Z</time></trkpt><trkpt lat="25.913754513832426" lon="-80.46493706554554"><ele>5.0</ele><time>2026-04-19T11:36:24.999Z</time></trkpt><trkpt lat="25.91366687553522" lon="-80.46501988201669"><ele>5.0</ele><time>2026-04-19T11:36:25.999Z</time></trkpt><trkpt lat="25.91357627326768" lon="-80.46509732549251"><ele>5.0</ele><time>2026-04-19T11:36:26.999Z</time></trkpt><trkpt lat="25.913486025268693" lon="-80.46517654749385"><ele>5.25</ele><time>2026-04-19T11:36:27.999Z</time></trkpt><trkpt lat="25.913397275621456" lon="-80.46525897663243"><ele>5.5</ele><time>2026-04-19T11:36:28.999Z</time></trkpt><trkpt lat="25.913307313769028" lon="-80.46533854979704"><ele>5.75</ele><time>2026-04-19T11:36:29.999Z</time></trkpt><trkpt lat="25.91321893890591" lon="-80.4654200648592"><ele>6.0</ele><time>2026-04-19T11:36:30.999Z</time></trkpt><trkpt lat="25.913126672529916" lon="-80.46550010001363"><ele>6.0</ele><time>2026-04-19T11:36:31.999Z</time></trkpt><trkpt lat="25.91303753490872" lon="-80.46557921900475"><ele>6.0</ele><time>2026-04-19T11:36:32.999Z</time></trkpt><trkpt lat="25.912948084125716" lon="-80.46565819892206"><ele>6.0</ele><time>2026-04-19T11:36:33.999Z</time></trkpt><trkpt lat="25.912861243375215" lon="-80.46573853147284"><ele>6.0</ele><time>2026-04-19T11:36:34.999Z</time></trkpt><trkpt lat="25.912775994517883" lon="-80.46581992706776"><ele>6.0</ele><time>2026-04-19T11:36:35.999Z</time></trkpt><trkpt lat="25.91269228313298" lon="-80.4659012931653"><ele>6.0</ele><time>2026-04-19T11:36:36.999Z</time></trkpt><trkpt lat="25.91260663149651" lon="-80.46598060554327"><ele>6.0</ele><time>2026-04-19T11:36:37.999Z</time></trkpt><trkpt lat="25.91251771837152" lon="-80.46605672849485"><ele>6.0</ele><time>2026-04-19T11:36:38.999Z</time></trkpt><trkpt lat="25.912428981077394" lon="-80.46613487278574"><ele>6.0</ele><time>2026-04-19T11:36:39.998Z</time></trkpt><trkpt lat="25.912340421104815" lon="-80.46621197656971"><ele>5.6</ele><time>2026-04-19T11:36:40.998Z</time></trkpt><trkpt lat="25.912253759949138" lon="-80.46629103858862"><ele>5.199999999999999</ele><time>2026-04-19T11:36:41.998Z</time></trkpt><trkpt lat="25.912168311939453" lon="-80.46637037523223"><ele>4.800000000000001</ele><time>2026-04-19T11:36:42.998Z</time></trkpt><trkpt lat="25.912083984621503" lon="-80.46644954637542"><ele>4.4</ele><time>2026-04-19T11:36:43.998Z</time></trkpt><trkpt lat="25.911998172782962" lon="-80.46652778867981"><ele>4.0</ele><time>2026-04-19T11:36:44.998Z</time></trkpt><trkpt lat="25.91191157480059" lon="-80.46660409407683"><ele>4.0</ele><time>2026-04-19T11:36:45.998Z</time></trkpt><trkpt lat="25.911826648478492" lon="-80.46668018933617"><ele>4.0</ele><time>2026-04-19T11:36:46.998Z</time></trkpt><trkpt lat="25.911743670926995" lon="-80.4667566725671"><ele>4.0</ele><time>2026-04-19T11:36:47.998Z</time></trkpt><trkpt lat="25.91165812295644" lon="-80.4668322009461"><ele>4.0</ele><time>2026-04-19T11:36:48.998Z</time></trkpt><trkpt lat="25.911573205898566" lon="-80.4669076985032"><ele>4.0</ele><time>2026-04-19T11:36:49.998Z</time></trkpt><trkpt lat="25.911489104445458" lon="-80.46698683671465"><ele>4.6</ele><time>2026-04-19T11:36:50.998Z</time></trkpt><trkpt lat="25.911402865475335" lon="-80.46706549165066"><ele>5.2</ele><time>2026-04-19T11:36:51.998Z</time></trkpt><trkpt lat="25.911315821843534" lon="-80.46714296514163"><ele>5.799999999999999</ele><time>2026-04-19T11:36:52.998Z</time></trkpt><trkpt lat="25.911227763374686" lon="-80.46721951239377"><ele>6.3999999999999995</ele><time>2026-04-19T11:36:53.998Z</time></trkpt><trkpt lat="25.911141848527052" lon="-80.46729456154262"><ele>7.0</ele><time>2026-04-19T11:36:54.998Z</time></trkpt><trkpt lat="25.911054093965273" lon="-80.4673707917181"><ele>7.0</ele><time>2026-04-19T11:36:56Z</time></trkpt><trkpt lat="25.910968124586503" lon="-80.46744840171314"><ele>6.999999999999999</ele><time>2026-04-19T11:36:57Z</time></trkpt><trkpt lat="25.910882274615446" lon="-80.46752856359643"><ele>6.999999999999999</ele><time>2026-04-19T11:36:58Z</time></trkpt><trkpt lat="25.910796043182458" lon="-80.46760678576592"><ele>7.0</ele><time>2026-04-19T11:36:59Z</time></trkpt><trkpt lat="25.910709577554634" lon="-80.46768448202955"><ele>7.0</ele><time>2026-04-19T11:37:00Z</time></trkpt><trkpt lat="25.910623424491288" lon="-80.46776379449331"><ele>7.0</ele><time>2026-04-19T11:37:01Z</time></trkpt><trkpt lat="25.9105378816086" lon="-80.46784273543898"><ele>6.999999999999999</ele><time>2026-04-19T11:37:02Z</time></trkpt><trkpt lat="25.91045173147183" lon="-80.4679192991301"><ele>6.999999999999999</ele><time>2026-04-19T11:37:03Z</time></trkpt><trkpt lat="25.91036633173244" lon="-80.46799676421956"><ele>7.0</ele><time>2026-04-19T11:37:04Z</time></trkpt><trkpt lat="25.910283141120335" lon="-80.4680743243401"><ele>7.0</ele><time>2026-04-19T11:37:05Z</time></trkpt><trkpt lat="25.910200576288588" lon="-80.46814997237755"><ele>6.8</ele><time>2026-04-19T11:37:06Z</time></trkpt><trkpt lat="25.910116794865033" lon="-80.46822103356563"><ele>6.6</ele><time>2026-04-19T11:37:07Z</time></trkpt><trkpt lat="25.910032740481252" lon="-80.46829634260008"><ele>6.3999999999999995</ele><time>2026-04-19T11:37:08Z</time></trkpt><trkpt lat="25.90994809514045" lon="-80.46837410568932"><ele>6.199999999999999</ele><time>2026-04-19T11:37:09Z</time></trkpt><trkpt lat="25.90986283505384" lon="-80.46845078376856"><ele>6.0</ele><time>2026-04-19T11:37:10Z</time></trkpt><trkpt lat="25.909777839134808" lon="-80.46852719568517"><ele>6.0</ele><time>2026-04-19T11:37:11Z</time></trkpt><trkpt lat="25.909694693423408" lon="-80.46860524609457"><ele>6.0</ele><time>2026-04-19T11:37:12Z</time></trkpt><trkpt lat="25.909608673415956" lon="-80.4686841708097"><ele>6.0</ele><time>2026-04-19T11:37:13Z</time></trkpt><trkpt lat="25.909525520899496" lon="-80.46876349775629"><ele>6.0</ele><time>2026-04-19T11:37:14Z</time></trkpt><trkpt lat="25.909437617259456" lon="-80.46884128330228"><ele>6.0</ele><time>2026-04-19T11:37:14.999Z</time></trkpt><trkpt lat="25.90934956160238" lon="-80.46891611852115"><ele>6.0</ele><time>2026-04-19T11:37:15.999Z</time></trkpt><trkpt lat="25.909260941867387" lon="-80.46899414217167"><ele>6.0</ele><time>2026-04-19T11:37:16.999Z</time></trkpt><trkpt lat="25.909170444724374" lon="-80.46907295458645"><ele>6.0</ele><time>2026-04-19T11:37:17.999Z</time></trkpt><trkpt lat="25.9090848373596" lon="-80.46915231399333"><ele>6.0</ele><time>2026-04-19T11:37:18.999Z</time></trkpt><trkpt lat="25.90899888947379" lon="-80.46923263758441"><ele>6.0</ele><time>2026-04-19T11:37:19.999Z</time></trkpt><trkpt lat="25.90891510389442" lon="-80.46931140726291"><ele>6.0</ele><time>2026-04-19T11:37:20.999Z</time></trkpt><trkpt lat="25.908831480179273" lon="-80.46939049589884"><ele>6.0</ele><time>2026-04-19T11:37:21.999Z</time></trkpt><trkpt lat="25.90874501479122" lon="-80.46946996176433"><ele>6.0</ele><time>2026-04-19T11:37:22.999Z</time></trkpt><trkpt lat="25.90865863402634" lon="-80.4695489561431"><ele>6.0</ele><time>2026-04-19T11:37:23.999Z</time></trkpt><trkpt lat="25.90857218170769" lon="-80.46962771871763"><ele>6.0</ele><time>2026-04-19T11:37:24.999Z</time></trkpt><trkpt lat="25.908486342878376" lon="-80.46970499198781"><ele>6.0</ele><time>2026-04-19T11:37:25.999Z</time></trkpt><trkpt lat="25.90840092429456" lon="-80.46978036188443"><ele>6.0</ele><time>2026-04-19T11:37:26.999Z</time></trkpt><trkpt lat="25.9083151287471" lon="-80.4698574759054"><ele>6.0</ele><time>2026-04-19T11:37:27.999Z</time></trkpt><trkpt lat="25.9082286447854" lon="-80.46993474398592"><ele>6.0</ele><time>2026-04-19T11:37:28.999Z</time></trkpt><trkpt lat="25.9081425218073" lon="-80.47001379256298"><ele>6.0</ele><time>2026-04-19T11:37:29.999Z</time></trkpt><trkpt lat="25.908056562890195" lon="-80.47008963042514"><ele>6.0</ele><time>2026-04-19T11:37:30.999Z</time></trkpt><trkpt lat="25.90797327211551" lon="-80.470165043171"><ele>6.0</ele><time>2026-04-19T11:37:31.999Z</time></trkpt><trkpt lat="25.90788952684989" lon="-80.47024041825179"><ele>6.0</ele><time>2026-04-19T11:37:32.999Z</time></trkpt><trkpt lat="25.907807579210253" lon="-80.47031461831557"><ele>6.0</ele><time>2026-04-19T11:37:33.999Z</time></trkpt><trkpt lat="25.907723003345414" lon="-80.47038853265911"><ele>6.0</ele><time>2026-04-19T11:37:34.999Z</time></trkpt><trkpt lat="25.907642464406095" lon="-80.47046455346481"><ele>6.0</ele><time>2026-04-19T11:37:35.999Z</time></trkpt><trkpt lat="25.907563136995858" lon="-80.470539060907"><ele>6.0</ele><time>2026-04-19T11:37:36.999Z</time></trkpt><trkpt lat="25.90748296391569" lon="-80.47061309788945"><ele>6.0</ele><time>2026-04-19T11:37:37.999Z</time></trkpt><trkpt lat="25.907400563063376" lon="-80.47068638121952"><ele>6.0</ele><time>2026-04-19T11:37:38.999Z</time></trkpt><trkpt lat="25.907319477637657" lon="-80.47075939963227"><ele>5.8</ele><time>2026-04-19T11:37:39.999Z</time></trkpt><trkpt lat="25.90723715746487" lon="-80.47083232533925"><ele>5.6</ele><time>2026-04-19T11:37:40.999Z</time></trkpt><trkpt lat="25.907154257809747" lon="-80.47090645997334"><ele>5.4</ele><time>2026-04-19T11:37:41.999Z</time></trkpt><trkpt lat="25.907073921901805" lon="-80.47098232311026"><ele>5.2</ele><time>2026-04-19T11:37:42.999Z</time></trkpt><trkpt lat="25.906990237240798" lon="-80.47105471677246"><ele>5.0</ele><time>2026-04-19T11:37:43.999Z</time></trkpt><trkpt lat="25.90690619497606" lon="-80.47112873512837"><ele>5.0</ele><time>2026-04-19T11:37:44.999Z</time></trkpt><trkpt lat="25.906821506120814" lon="-80.47120162975533"><ele>5.0</ele><time>2026-04-19T11:37:45.999Z</time></trkpt><trkpt lat="25.906739399460083" lon="-80.47127791454483"><ele>5.0</ele><time>2026-04-19T11:37:46.999Z</time></trkpt><trkpt lat="25.90665766470891" lon="-80.47135481139212"><ele>5.0</ele><time>2026-04-19T11:37:47.999Z</time></trkpt><trkpt lat="25.90657652157636" lon="-80.47143043477156"><ele>5.0</ele><time>2026-04-19T11:37:48.999Z</time></trkpt><trkpt lat="25.9064934909172" lon="-80.4715046497835"><ele>5.0</ele><time>2026-04-19T11:37:49.999Z</time></trkpt><trkpt lat="25.906411386152588" lon="-80.47158191656044"><ele>5.0</ele><time>2026-04-19T11:37:50.999Z</time></trkpt><trkpt lat="25.90632660419274" lon="-80.47165762501045"><ele>5.0</ele><time>2026-04-19T11:37:51.999Z</time></trkpt><trkpt lat="25.90624236856617" lon="-80.4717348606014"><ele>5.0</ele><time>2026-04-19T11:37:52.999Z</time></trkpt><trkpt lat="25.90615965722254" lon="-80.47181077622515"><ele>5.0</ele><time>2026-04-19T11:37:53.999Z</time></trkpt><trkpt lat="25.906075743110602" lon="-80.47188874803912"><ele>5.0</ele><time>2026-04-19T11:37:54.999Z</time></trkpt><trkpt lat="25.905991393919646" lon="-80.47196403397645"><ele>5.0</ele><time>2026-04-19T11:37:55.999Z</time></trkpt><trkpt lat="25.90590892865281" lon="-80.47203854935057"><ele>5.0</ele><time>2026-04-19T11:37:56.999Z</time></trkpt><trkpt lat="25.905827177765595" lon="-80.47211200085097"><ele>5.0</ele><time>2026-04-19T11:37:57.999Z</time></trkpt><trkpt lat="25.90574204955128" lon="-80.47218687576495"><ele>5.0</ele><time>2026-04-19T11:37:58.999Z</time></trkpt><trkpt lat="25.90565678835695" lon="-80.4722620076777"><ele>5.2</ele><time>2026-04-19T11:37:59.999Z</time></trkpt><trkpt lat="25.905570571561817" lon="-80.47233918615326"><ele>5.4</ele><time>2026-04-19T11:38:00.999Z</time></trkpt><trkpt lat="25.905485022475244" lon="-80.47241773263387"><ele>5.6</ele><time>2026-04-19T11:38:01.999Z</time></trkpt><trkpt lat="25.90540239350046" lon="-80.47249729904014"><ele>5.8</ele><time>2026-04-19T11:38:02.999Z</time></trkpt><trkpt lat="25.90531697128456" lon="-80.47257718547127"><ele>6.0</ele><time>2026-04-19T11:38:03.999Z</time></trkpt><trkpt lat="25.905229820209687" lon="-80.47265642722793"><ele>6.0</ele><time>2026-04-19T11:38:04.999Z</time></trkpt><trkpt lat="25.90514329714986" lon="-80.47273640194979"><ele>6.0</ele><time>2026-04-19T11:38:05.999Z</time></trkpt><trkpt lat="25.905057484934392" lon="-80.47281259898585"><ele>6.0</ele><time>2026-04-19T11:38:06.999Z</time></trkpt><trkpt lat="25.904971883757046" lon="-80.47289015256803"><ele>6.0</ele><time>2026-04-19T11:38:07.999Z</time></trkpt><trkpt lat="25.904888313896237" lon="-80.47296466197422"><ele>6.0</ele><time>2026-04-19T11:38:08.999Z</time></trkpt><trkpt lat="25.904804449905317" lon="-80.47303865586657"><ele>5.8</ele><time>2026-04-19T11:38:09.999Z</time></trkpt><trkpt lat="25.904722425599573" lon="-80.47311331327712"><ele>5.6</ele><time>2026-04-19T11:38:10.999Z</time></trkpt><trkpt lat="25.904639817719843" lon="-80.47318892055053"><ele>5.4</ele><time>2026-04-19T11:38:11.999Z</time></trkpt><trkpt lat="25.9045574349731" lon="-80.47326430549641"><ele>5.2</ele><time>2026-04-19T11:38:12.999Z</time></trkpt><trkpt lat="25.904474995854603" lon="-80.47333783832768"><ele>5.0</ele><time>2026-04-19T11:38:13.999Z</time></trkpt><trkpt lat="25.904393381454888" lon="-80.4734112116103"><ele>5.0</ele><time>2026-04-19T11:38:14.999Z</time></trkpt><trkpt lat="25.90431326825007" lon="-80.47348407627771"><ele>5.0</ele><time>2026-04-19T11:38:15.999Z</time></trkpt><trkpt lat="25.904230816272246" lon="-80.47355819647615"><ele>5.0</ele><time>2026-04-19T11:38:16.999Z</time></trkpt><trkpt lat="25.904144296529076" lon="-80.47363404551736"><ele>5.0</ele><time>2026-04-19T11:38:17.999Z</time></trkpt><trkpt lat="25.904061026494894" lon="-80.47371085433302"><ele>5.0</ele><time>2026-04-19T11:38:18.999Z</time></trkpt><trkpt lat="25.903974599675152" lon="-80.47378848410334"><ele>5.0</ele><time>2026-04-19T11:38:19.999Z</time></trkpt><trkpt lat="25.90388660520789" lon="-80.47386656031183"><ele>5.0</ele><time>2026-04-19T11:38:20.999Z</time></trkpt><trkpt lat="25.903797029112926" lon="-80.47394543785533"><ele>5.0</ele><time>2026-04-19T11:38:21.999Z</time></trkpt><trkpt lat="25.903708595325934" lon="-80.47402528505974"><ele>5.0</ele><time>2026-04-19T11:38:22.999Z</time></trkpt><trkpt lat="25.903621199842338" lon="-80.4741054378301"><ele>5.0</ele><time>2026-04-19T11:38:23.999Z</time></trkpt><trkpt lat="25.903533059289032" lon="-80.47418539330555"><ele>5.0</ele><time>2026-04-19T11:38:24.999Z</time></trkpt><trkpt lat="25.903444273926475" lon="-80.47426464262436"><ele>5.0</ele><time>2026-04-19T11:38:25.999Z</time></trkpt><trkpt lat="25.90335530957191" lon="-80.4743457164653"><ele>5.0</ele><time>2026-04-19T11:38:26.999Z</time></trkpt><trkpt lat="25.903265421374446" lon="-80.47442679441286"><ele>5.25</ele><time>2026-04-19T11:38:27.999Z</time></trkpt><trkpt lat="25.903178061551735" lon="-80.47451063462938"><ele>5.5</ele><time>2026-04-19T11:38:28.999Z</time></trkpt><trkpt lat="25.9030875423131" lon="-80.47459070908157"><ele>5.75</ele><time>2026-04-19T11:38:29.999Z</time></trkpt><trkpt lat="25.902992796855514" lon="-80.47467005968291"><ele>6.0</ele><time>2026-04-19T11:38:30.999Z</time></trkpt><trkpt lat="25.902903812011303" lon="-80.47475111713604"><ele>6.0</ele><time>2026-04-19T11:38:31.999Z</time></trkpt><trkpt lat="25.902812482039355" lon="-80.47483217793706"><ele>6.0</ele><time>2026-04-19T11:38:32.999Z</time></trkpt><trkpt lat="25.902721214437143" lon="-80.47491442047091"><ele>6.0</ele><time>2026-04-19T11:38:33.999Z</time></trkpt><trkpt lat="25.902631178550287" lon="-80.47499764677"><ele>6.0</ele><time>2026-04-19T11:38:34.999Z</time></trkpt><trkpt lat="25.902543144659777" lon="-80.47507766351775"><ele>6.0</ele><time>2026-04-19T11:38:35.999Z</time></trkpt><trkpt lat="25.902454654377365" lon="-80.47515689819377"><ele>6.0</ele><time>2026-04-19T11:38:36.999Z</time></trkpt><trkpt lat="25.902365278185908" lon="-80.47523184692677"><ele>6.0</ele><time>2026-04-19T11:38:37.999Z</time></trkpt><trkpt lat="25.90227652118934" lon="-80.47531139948413"><ele>6.0</ele><time>2026-04-19T11:38:38.999Z</time></trkpt><trkpt lat="25.902189948522288" lon="-80.47538968131867"><ele>6.0</ele><time>2026-04-19T11:38:39.999Z</time></trkpt><trkpt lat="25.902104153900286" lon="-80.4754679406802"><ele>6.0</ele><time>2026-04-19T11:38:40.999Z</time></trkpt><trkpt lat="25.90201588804277" lon="-80.47554472245393"><ele>6.0</ele><time>2026-04-19T11:38:41.999Z</time></trkpt><trkpt lat="25.901931011673078" lon="-80.47562253933259"><ele>6.0</ele><time>2026-04-19T11:38:42.999Z</time></trkpt><trkpt lat="25.90184761933504" lon="-80.47570070128428"><ele>6.0</ele><time>2026-04-19T11:38:43.999Z</time></trkpt><trkpt lat="25.90176343974857" lon="-80.47577623686486"><ele>6.0</ele><time>2026-04-19T11:38:44.999Z</time></trkpt><trkpt lat="25.901679869947547" lon="-80.47584925736939"><ele>6.0</ele><time>2026-04-19T11:38:45.999Z</time></trkpt><trkpt lat="25.901597067567593" lon="-80.47592215310493"><ele>6.0</ele><time>2026-04-19T11:38:46.999Z</time></trkpt><trkpt lat="25.901514129757828" lon="-80.47599497031331"><ele>6.0</ele><time>2026-04-19T11:38:47.998Z</time></trkpt><trkpt lat="25.901430493231814" lon="-80.47606810732162"><ele>6.0</ele><time>2026-04-19T11:38:48.998Z</time></trkpt><trkpt lat="25.901345205374632" lon="-80.47614404877187"><ele>6.0</ele><time>2026-04-19T11:38:49.998Z</time></trkpt><trkpt lat="25.901261939909837" lon="-80.47622263497593"><ele>6.0</ele><time>2026-04-19T11:38:50.998Z</time></trkpt><trkpt lat="25.901176631533534" lon="-80.4763023807904"><ele>6.0</ele><time>2026-04-19T11:38:51.998Z</time></trkpt><trkpt lat="25.901091040619313" lon="-80.47638051123732"><ele>6.0</ele><time>2026-04-19T11:38:52.998Z</time></trkpt><trkpt lat="25.901006682825958" lon="-80.47645871250069"><ele>6.0</ele><time>2026-04-19T11:38:53.998Z</time></trkpt><trkpt lat="25.900922056353995" lon="-80.47653613036368"><ele>5.8</ele><time>2026-04-19T11:38:54.998Z</time></trkpt><trkpt lat="25.900839835514518" lon="-80.47661265347269"><ele>5.6</ele><time>2026-04-19T11:38:55.998Z</time></trkpt><trkpt lat="25.90075665206965" lon="-80.47668936680024"><ele>5.4</ele><time>2026-04-19T11:38:56.998Z</time></trkpt><trkpt lat="25.9006733508291" lon="-80.47676516785585"><ele>5.2</ele><time>2026-04-19T11:38:57.998Z</time></trkpt><trkpt lat="25.90059141784074" lon="-80.47684059029062"><ele>5.0</ele><time>2026-04-19T11:38:58.998Z</time></trkpt><trkpt lat="25.90050999058059" lon="-80.47691442426816"><ele>5.0</ele><time>2026-04-19T11:38:59.998Z</time></trkpt><trkpt lat="25.90043014656991" lon="-80.47698789539464"><ele>5.0</ele><time>2026-04-19T11:39:00.999Z</time></trkpt><trkpt lat="25.900349359287983" lon="-80.47706097436522"><ele>5.0</ele><time>2026-04-19T11:39:01.999Z</time></trkpt><trkpt lat="25.900268224661932" lon="-80.4771350167431"><ele>5.0</ele><time>2026-04-19T11:39:02.999Z</time></trkpt><trkpt lat="25.900187382139823" lon="-80.47720809067549"><ele>5.0</ele><time>2026-04-19T11:39:03.999Z</time></trkpt><trkpt lat="25.900105278954488" lon="-80.47728333681287"><ele>5.8</ele><time>2026-04-19T11:39:04.999Z</time></trkpt><trkpt lat="25.900021735064026" lon="-80.47735782725397"><ele>6.6</ele><time>2026-04-19T11:39:05.999Z</time></trkpt><trkpt lat="25.899936893271292" lon="-80.47743461377391"><ele>7.4</ele><time>2026-04-19T11:39:06.999Z</time></trkpt><trkpt lat="25.899849150196435" lon="-80.47751142991149"><ele>8.2</ele><time>2026-04-19T11:39:07.999Z</time></trkpt><trkpt lat="25.899764896781207" lon="-80.47758967377935"><ele>9.0</ele><time>2026-04-19T11:39:08.999Z</time></trkpt><trkpt lat="25.899678855006993" lon="-80.4776665459365"><ele>9.0</ele><time>2026-04-19T11:39:09.999Z</time></trkpt><trkpt lat="25.899595799445795" lon="-80.47774168684366"><ele>9.0</ele><time>2026-04-19T11:39:11Z</time></trkpt><trkpt lat="25.89951146062287" lon="-80.4778177446559"><ele>9.0</ele><time>2026-04-19T11:39:11.999Z</time></trkpt><trkpt lat="25.899426339275532" lon="-80.47789473454871"><ele>9.0</ele><time>2026-04-19T11:39:13Z</time></trkpt><trkpt lat="25.899339265176252" lon="-80.47797185534058"><ele>9.0</ele><time>2026-04-19T11:39:14Z</time></trkpt><trkpt lat="25.89925148859254" lon="-80.4780501858627"><ele>8.25</ele><time>2026-04-19T11:39:14.999Z</time></trkpt><trkpt lat="25.899164581594935" lon="-80.47813010763234"><ele>7.5</ele><time>2026-04-19T11:39:15.999Z</time></trkpt><trkpt lat="25.899078720759416" lon="-80.47821190066009"><ele>6.75</ele><time>2026-04-19T11:39:16.999Z</time></trkpt><trkpt lat="25.89899173797907" lon="-80.47829248083065"><ele>6.0</ele><time>2026-04-19T11:39:17.999Z</time></trkpt><trkpt lat="25.898903834592673" lon="-80.47837052609117"><ele>6.0</ele><time>2026-04-19T11:39:18.999Z</time></trkpt><trkpt lat="25.898815252315778" lon="-80.47844418046154"><ele>6.0</ele><time>2026-04-19T11:39:19.999Z</time></trkpt><trkpt lat="25.8987290017019" lon="-80.47852214075671"><ele>6.0</ele><time>2026-04-19T11:39:20.999Z</time></trkpt><trkpt lat="25.898641917257628" lon="-80.47860015525605"><ele>6.0</ele><time>2026-04-19T11:39:21.999Z</time></trkpt><trkpt lat="25.898556220717342" lon="-80.47867768243724"><ele>6.0</ele><time>2026-04-19T11:39:22.999Z</time></trkpt><trkpt lat="25.898471207112824" lon="-80.47875312089968"><ele>6.0</ele><time>2026-04-19T11:39:23.999Z</time></trkpt><trkpt lat="25.89839005523413" lon="-80.47882971499143"><ele>6.0</ele><time>2026-04-19T11:39:24.999Z</time></trkpt><trkpt lat="25.89830777134466" lon="-80.47890321457433"><ele>6.0</ele><time>2026-04-19T11:39:25.999Z</time></trkpt><trkpt lat="25.898226780781822" lon="-80.47897878586865"><ele>6.0</ele><time>2026-04-19T11:39:26.999Z</time></trkpt><trkpt lat="25.898145499630957" lon="-80.47905189921812"><ele>6.0</ele><time>2026-04-19T11:39:27.999Z</time></trkpt><trkpt lat="25.89806296995271" lon="-80.47912683437906"><ele>6.0</ele><time>2026-04-19T11:39:28.999Z</time></trkpt><trkpt lat="25.897980240480027" lon="-80.47920063586142"><ele>6.0</ele><time>2026-04-19T11:39:29.999Z</time></trkpt><trkpt lat="25.89789827801533" lon="-80.47927464764825"><ele>6.0</ele><time>2026-04-19T11:39:30.999Z</time></trkpt><trkpt lat="25.897816270506933" lon="-80.47934867238044"><ele>6.0</ele><time>2026-04-19T11:39:31.999Z</time></trkpt><trkpt lat="25.89773433291231" lon="-80.47942410925928"><ele>6.0</ele><time>2026-04-19T11:39:32.999Z</time></trkpt><trkpt lat="25.897652248852786" lon="-80.47949927027285"><ele>5.8</ele><time>2026-04-19T11:39:33.999Z</time></trkpt><trkpt lat="25.897571972624466" lon="-80.47957317075661"><ele>5.6</ele><time>2026-04-19T11:39:34.999Z</time></trkpt><trkpt lat="25.897491839412716" lon="-80.47964465228145"><ele>5.4</ele><time>2026-04-19T11:39:35.999Z</time></trkpt><trkpt lat="25.89741311936371" lon="-80.479710968175"><ele>5.2</ele><time>2026-04-19T11:39:36.999Z</time></trkpt><trkpt lat="25.897335225310883" lon="-80.47977980542267"><ele>5.0</ele><time>2026-04-19T11:39:37.999Z</time></trkpt><trkpt lat="25.897258096865478" lon="-80.4798512928494"><ele>5.0</ele><time>2026-04-19T11:39:38.999Z</time></trkpt><trkpt lat="25.897180876795694" lon="-80.47992370894397"><ele>5.0</ele><time>2026-04-19T11:39:39.999Z</time></trkpt><trkpt lat="25.8971034488779" lon="-80.47999669338368"><ele>5.0</ele><time>2026-04-19T11:39:40.999Z</time></trkpt><trkpt lat="25.897024753830426" lon="-80.480070919338"><ele>5.0</ele><time>2026-04-19T11:39:41.999Z</time></trkpt><trkpt lat="25.896945614647617" lon="-80.48014450378841"><ele>5.0</ele><time>2026-04-19T11:39:42.999Z</time></trkpt><trkpt lat="25.896864045357933" lon="-80.48021758240726"><ele>5.0</ele><time>2026-04-19T11:39:43.999Z</time></trkpt><trkpt lat="25.89678022154153" lon="-80.48029149880598"><ele>5.0</ele><time>2026-04-19T11:39:44.999Z</time></trkpt><trkpt lat="25.89669474846413" lon="-80.48036506195747"><ele>5.0</ele><time>2026-04-19T11:39:45.999Z</time></trkpt><trkpt lat="25.896612454942336" lon="-80.48044007949224"><ele>5.0</ele><time>2026-04-19T11:39:46.999Z</time></trkpt><trkpt lat="25.89653050901851" lon="-80.48051510175546"><ele>5.0</ele><time>2026-04-19T11:39:47.999Z</time></trkpt><trkpt lat="25.896449347835283" lon="-80.48059103956737"><ele>5.2</ele><time>2026-04-19T11:39:48.999Z</time></trkpt><trkpt lat="25.896367537410352" lon="-80.48066807180643"><ele>5.4</ele><time>2026-04-19T11:39:49.999Z</time></trkpt><trkpt lat="25.89628423012484" lon="-80.48074449583697"><ele>5.6</ele><time>2026-04-19T11:39:50.999Z</time></trkpt><trkpt lat="25.89620048629732" lon="-80.48081976472918"><ele>5.8</ele><time>2026-04-19T11:39:51.999Z</time></trkpt><trkpt lat="25.896115388709173" lon="-80.48089622510798"><ele>6.0</ele><time>2026-04-19T11:39:52.999Z</time></trkpt><trkpt lat="25.89602911232459" lon="-80.48097413048932"><ele>6.0</ele><time>2026-04-19T11:39:53.999Z</time></trkpt><trkpt lat="25.89594336633157" lon="-80.48105164257049"><ele>6.0</ele><time>2026-04-19T11:39:54.999Z</time></trkpt><trkpt lat="25.89585928881191" lon="-80.48113032692632"><ele>6.0</ele><time>2026-04-19T11:39:55.999Z</time></trkpt><trkpt lat="25.895772619553295" lon="-80.48121034176114"><ele>6.0</ele><time>2026-04-19T11:39:56.999Z</time></trkpt><trkpt lat="25.89568351571698" lon="-80.48128663661066"><ele>6.0</ele><time>2026-04-19T11:39:57.999Z</time></trkpt><trkpt lat="25.895594201415776" lon="-80.48136409299802"><ele>6.199999999999999</ele><time>2026-04-19T11:39:58.999Z</time></trkpt><trkpt lat="25.895506554631684" lon="-80.48144358326363"><ele>6.3999999999999995</ele><time>2026-04-19T11:39:59.999Z</time></trkpt><trkpt lat="25.895419550600142" lon="-80.4815213483175"><ele>6.6</ele><time>2026-04-19T11:40:00.999Z</time></trkpt><trkpt lat="25.895334275268226" lon="-80.48159877863696"><ele>6.8</ele><time>2026-04-19T11:40:01.999Z</time></trkpt><trkpt lat="25.8952468973894" lon="-80.48167587609358"><ele>7.0</ele><time>2026-04-19T11:40:02.999Z</time></trkpt><trkpt lat="25.89516120364433" lon="-80.48175356333583"><ele>6.8</ele><time>2026-04-19T11:40:03.999Z</time></trkpt><trkpt lat="25.895078399606547" lon="-80.48182881491122"><ele>6.6</ele><time>2026-04-19T11:40:04.999Z</time></trkpt><trkpt lat="25.89499497202116" lon="-80.48190399783704"><ele>6.3999999999999995</ele><time>2026-04-19T11:40:05.999Z</time></trkpt><trkpt lat="25.8949130953521" lon="-80.48197810132501"><ele>6.199999999999999</ele><time>2026-04-19T11:40:06.999Z</time></trkpt><trkpt lat="25.89483114153605" lon="-80.48205299214898"><ele>6.0</ele><time>2026-04-19T11:40:07.999Z</time></trkpt><trkpt lat="25.894751865959627" lon="-80.48212861560596"><ele>5.8</ele><time>2026-04-19T11:40:08.999Z</time></trkpt><trkpt lat="25.89466920086803" lon="-80.48220329097023"><ele>5.6</ele><time>2026-04-19T11:40:09.999Z</time></trkpt><trkpt lat="25.894585944447286" lon="-80.4822765857142"><ele>5.4</ele><time>2026-04-19T11:40:10.999Z</time></trkpt><trkpt lat="25.894502472391082" lon="-80.48235034770582"><ele>5.2</ele><time>2026-04-19T11:40:11.999Z</time></trkpt><trkpt lat="25.894420358948437" lon="-80.48242639997927"><ele>5.0</ele><time>2026-04-19T11:40:12.999Z</time></trkpt><trkpt lat="25.894338426043245" lon="-80.4825033912693"><ele>5.2</ele><time>2026-04-19T11:40:13.999Z</time></trkpt><trkpt lat="25.894253373623574" lon="-80.48257823009297"><ele>5.4</ele><time>2026-04-19T11:40:14.999Z</time></trkpt><trkpt lat="25.894170539342" lon="-80.4826520106387"><ele>5.6</ele><time>2026-04-19T11:40:15.999Z</time></trkpt><trkpt lat="25.89408706574556" lon="-80.48272293253277"><ele>5.8</ele><time>2026-04-19T11:40:16.999Z</time></trkpt><trkpt lat="25.89400416977295" lon="-80.48279450092821"><ele>6.0</ele><time>2026-04-19T11:40:17.999Z</time></trkpt><trkpt lat="25.89392191635843" lon="-80.48286930272951"><ele>5.2</ele><time>2026-04-19T11:40:18.999Z</time></trkpt><trkpt lat="25.893841512629997" lon="-80.48294435880592"><ele>4.3999999999999995</ele><time>2026-04-19T11:40:19.999Z</time></trkpt><trkpt lat="25.89376171245921" lon="-80.48301803485302"><ele>3.6</ele><time>2026-04-19T11:40:20.999Z</time></trkpt><trkpt lat="25.89367898920293" lon="-80.48309204445196"><ele>2.8</ele><time>2026-04-19T11:40:21.999Z</time></trkpt><trkpt lat="25.893595149400642" lon="-80.48316406936215"><ele>2.0</ele><time>2026-04-19T11:40:22.999Z</time></trkpt><trkpt lat="25.893509386271745" lon="-80.48323815465369"><ele>2.0</ele><time>2026-04-19T11:40:23.999Z</time></trkpt><trkpt lat="25.893426583086434" lon="-80.4833149692653"><ele>2.0</ele><time>2026-04-19T11:40:24.999Z</time></trkpt><trkpt lat="25.89334147790517" lon="-80.48338920960487"><ele>2.0</ele><time>2026-04-19T11:40:25.999Z</time></trkpt><trkpt lat="25.893258437018343" lon="-80.48346627275168"><ele>2.0</ele><time>2026-04-19T11:40:26.999Z</time></trkpt><trkpt lat="25.893173080866852" lon="-80.48353996679847"><ele>2.0</ele><time>2026-04-19T11:40:27.999Z</time></trkpt><trkpt lat="25.893090900879415" lon="-80.48361285308756"><ele>2.6</ele><time>2026-04-19T11:40:28.999Z</time></trkpt><trkpt lat="25.893004534019152" lon="-80.48368475767899"><ele>3.2</ele><time>2026-04-19T11:40:29.999Z</time></trkpt><trkpt lat="25.89291979998549" lon="-80.48375561947016"><ele>3.8</ele><time>2026-04-19T11:40:30.999Z</time></trkpt><trkpt lat="25.892834450567918" lon="-80.48382548973096"><ele>4.4</ele><time>2026-04-19T11:40:31.999Z</time></trkpt><trkpt lat="25.892747769970818" lon="-80.4838919076153"><ele>5.0</ele><time>2026-04-19T11:40:32.999Z</time></trkpt><trkpt lat="25.892657172567286" lon="-80.48395621682747"><ele>5.0</ele><time>2026-04-19T11:40:33.999Z</time></trkpt><trkpt lat="25.892567514341703" lon="-80.48401820250481"><ele>5.0</ele><time>2026-04-19T11:40:34.999Z</time></trkpt><trkpt lat="25.892476142200255" lon="-80.4840780449269"><ele>5.0</ele><time>2026-04-19T11:40:35.999Z</time></trkpt><trkpt lat="25.892383148282008" lon="-80.48413906299605"><ele>5.0</ele><time>2026-04-19T11:40:36.999Z</time></trkpt><trkpt lat="25.89229192584429" lon="-80.48419808040472"><ele>5.0</ele><time>2026-04-19T11:40:37.999Z</time></trkpt><trkpt lat="25.892199322625125" lon="-80.48425145329283"><ele>5.0</ele><time>2026-04-19T11:40:38.999Z</time></trkpt><trkpt lat="25.892105964913245" lon="-80.48430235371852"><ele>5.0</ele><time>2026-04-19T11:40:39.999Z</time></trkpt><trkpt lat="25.892012233163378" lon="-80.48435103812285"><ele>5.0</ele><time>2026-04-19T11:40:40.999Z</time></trkpt><trkpt lat="25.891914924221332" lon="-80.48439776814595"><ele>5.0</ele><time>2026-04-19T11:40:41.999Z</time></trkpt><trkpt lat="25.891817060226767" lon="-80.48444283476978"><ele>5.0</ele><time>2026-04-19T11:40:42.999Z</time></trkpt><trkpt lat="25.89171986754736" lon="-80.48448589744429"><ele>5.2</ele><time>2026-04-19T11:40:43.999Z</time></trkpt><trkpt lat="25.891620375718386" lon="-80.48452868727843"><ele>5.4</ele><time>2026-04-19T11:40:44.999Z</time></trkpt><trkpt lat="25.891518763306166" lon="-80.48456832882422"><ele>5.6</ele><time>2026-04-19T11:40:45.999Z</time></trkpt><trkpt lat="25.89141241319906" lon="-80.484608003448"><ele>5.8</ele><time>2026-04-19T11:40:46.999Z</time></trkpt><trkpt lat="25.891306019804293" lon="-80.48464757951457"><ele>6.0</ele><time>2026-04-19T11:40:47.999Z</time></trkpt><trkpt lat="25.89119912677048" lon="-80.48468158430035"><ele>6.0</ele><time>2026-04-19T11:40:48.999Z</time></trkpt><trkpt lat="25.8910923086479" lon="-80.48471347468218"><ele>6.0</ele><time>2026-04-19T11:40:49.998Z</time></trkpt><trkpt lat="25.890984885188296" lon="-80.48474317221995"><ele>6.0</ele><time>2026-04-19T11:40:50.998Z</time></trkpt><trkpt lat="25.890879929435656" lon="-80.48477376290727"><ele>6.0</ele><time>2026-04-19T11:40:51.998Z</time></trkpt><trkpt lat="25.89077504962126" lon="-80.48479738580201"><ele>6.0</ele><time>2026-04-19T11:40:52.998Z</time></trkpt><trkpt lat="25.890670523100937" lon="-80.48482023163903"><ele>6.199999999999999</ele><time>2026-04-19T11:40:53.998Z</time></trkpt><trkpt lat="25.8905648277152" lon="-80.48483574816495"><ele>6.3999999999999995</ele><time>2026-04-19T11:40:54.998Z</time></trkpt><trkpt lat="25.890458772975734" lon="-80.48485143035256"><ele>6.6</ele><time>2026-04-19T11:40:55.998Z</time></trkpt><trkpt lat="25.890352270831208" lon="-80.48486622282707"><ele>6.8</ele><time>2026-04-19T11:40:56.998Z</time></trkpt><trkpt lat="25.890244178518092" lon="-80.48487750142958"><ele>7.0</ele><time>2026-04-19T11:40:57.998Z</time></trkpt><trkpt lat="25.890138062091438" lon="-80.48488824158807"><ele>6.8</ele><time>2026-04-19T11:40:58.998Z</time></trkpt><trkpt lat="25.890030764925775" lon="-80.48489658585676"><ele>6.6</ele><time>2026-04-19T11:40:59.998Z</time></trkpt><trkpt lat="25.889924587331038" lon="-80.48490193920777"><ele>6.3999999999999995</ele><time>2026-04-19T11:41:00.998Z</time></trkpt><trkpt lat="25.88981637950007" lon="-80.4849046562772"><ele>6.199999999999999</ele><time>2026-04-19T11:41:01.998Z</time></trkpt><trkpt lat="25.88970735246117" lon="-80.48490625248492"><ele>6.0</ele><time>2026-04-19T11:41:02.998Z</time></trkpt><trkpt lat="25.889599957937065" lon="-80.48490339077074"><ele>6.0</ele><time>2026-04-19T11:41:03.998Z</time></trkpt><trkpt lat="25.889491224175817" lon="-80.48489734745547"><ele>6.0</ele><time>2026-04-19T11:41:04.998Z</time></trkpt><trkpt lat="25.88938360841134" lon="-80.48489149586183"><ele>6.0</ele><time>2026-04-19T11:41:05.998Z</time></trkpt><trkpt lat="25.889275832690423" lon="-80.4848850938661"><ele>6.0</ele><time>2026-04-19T11:41:07Z</time></trkpt><trkpt lat="25.88916965380781" lon="-80.48488225397041"><ele>6.0</ele><time>2026-04-19T11:41:08Z</time></trkpt><trkpt lat="25.889059757691495" lon="-80.48487894000286"><ele>5.8</ele><time>2026-04-19T11:41:09Z</time></trkpt><trkpt lat="25.888950586824567" lon="-80.48487463179593"><ele>5.6</ele><time>2026-04-19T11:41:10Z</time></trkpt><trkpt lat="25.88883752740069" lon="-80.48487180049733"><ele>5.4</ele><time>2026-04-19T11:41:11Z</time></trkpt><trkpt lat="25.888725848147114" lon="-80.4848665419577"><ele>5.2</ele><time>2026-04-19T11:41:12Z</time></trkpt><trkpt lat="25.888612132308268" lon="-80.4848606285342"><ele>5.0</ele><time>2026-04-19T11:41:13Z</time></trkpt><trkpt lat="25.888500753424633" lon="-80.48485624367741"><ele>5.2</ele><time>2026-04-19T11:41:14Z</time></trkpt><trkpt lat="25.88838902462099" lon="-80.48485191491245"><ele>5.4</ele><time>2026-04-19T11:41:15Z</time></trkpt><trkpt lat="25.888277440190073" lon="-80.48484625869095"><ele>5.6</ele><time>2026-04-19T11:41:16Z</time></trkpt><trkpt lat="25.88816702731509" lon="-80.48484075544727"><ele>5.8</ele><time>2026-04-19T11:41:17Z</time></trkpt><trkpt lat="25.888057451322027" lon="-80.48483537910646"><ele>6.0</ele><time>2026-04-19T11:41:18Z</time></trkpt><trkpt lat="25.88794759541789" lon="-80.48482946816259"><ele>6.0</ele><time>2026-04-19T11:41:19Z</time></trkpt><trkpt lat="25.88783945924976" lon="-80.48482348479777"><ele>6.0</ele><time>2026-04-19T11:41:20Z</time></trkpt><trkpt lat="25.88773174114448" lon="-80.48481958275434"><ele>6.0</ele><time>2026-04-19T11:41:21Z</time></trkpt><trkpt lat="25.88762163412626" lon="-80.48481627099216"><ele>6.0</ele><time>2026-04-19T11:41:22Z</time></trkpt><trkpt lat="25.88751097615587" lon="-80.48480924874936"><ele>6.0</ele><time>2026-04-19T11:41:22.999Z</time></trkpt><trkpt lat="25.887400121051606" lon="-80.4848035158285"><ele>6.0</ele><time>2026-04-19T11:41:23.999Z</time></trkpt><trkpt lat="25.887289404958697" lon="-80.48479877786309"><ele>6.0</ele><time>2026-04-19T11:41:24.999Z</time></trkpt><trkpt lat="25.88717838028403" lon="-80.48479281705244"><ele>6.0</ele><time>2026-04-19T11:41:25.999Z</time></trkpt><trkpt lat="25.8870691136465" lon="-80.48478737251051"><ele>6.0</ele><time>2026-04-19T11:41:26.999Z</time></trkpt><trkpt lat="25.88696183581245" lon="-80.48478099566135"><ele>6.0</ele><time>2026-04-19T11:41:27.999Z</time></trkpt><trkpt lat="25.886854600037232" lon="-80.48477570430879"><ele>5.8</ele><time>2026-04-19T11:41:28.999Z</time></trkpt><trkpt lat="25.886747762452366" lon="-80.48477032651228"><ele>5.6</ele><time>2026-04-19T11:41:29.999Z</time></trkpt><trkpt lat="25.88664298377237" lon="-80.48476557868757"><ele>5.4</ele><time>2026-04-19T11:41:30.999Z</time></trkpt><trkpt lat="25.88653749359879" lon="-80.48475997885419"><ele>5.2</ele><time>2026-04-19T11:41:31.999Z</time></trkpt><trkpt lat="25.886431197163233" lon="-80.48475507214573"><ele>5.0</ele><time>2026-04-19T11:41:32.999Z</time></trkpt><trkpt lat="25.886327773717245" lon="-80.48475090329725"><ele>5.0</ele><time>2026-04-19T11:41:33.999Z</time></trkpt><trkpt lat="25.88622421939863" lon="-80.48474544477511"><ele>5.0</ele><time>2026-04-19T11:41:34.999Z</time></trkpt><trkpt lat="25.886122151149525" lon="-80.48474224749465"><ele>5.0</ele><time>2026-04-19T11:41:35.999Z</time></trkpt><trkpt lat="25.88602121455437" lon="-80.4847380531516"><ele>5.0</ele><time>2026-04-19T11:41:36.999Z</time></trkpt><trkpt lat="25.885918301051888" lon="-80.48473349678316"><ele>5.0</ele><time>2026-04-19T11:41:37.999Z</time></trkpt><trkpt lat="25.885814853520074" lon="-80.48472836488291"><ele>4.6</ele><time>2026-04-19T11:41:38.999Z</time></trkpt><trkpt lat="25.885712118095128" lon="-80.48472183073008"><ele>4.2</ele><time>2026-04-19T11:41:39.999Z</time></trkpt><trkpt lat="25.88560819235742" lon="-80.48471791308444"><ele>3.8</ele><time>2026-04-19T11:41:40.999Z</time></trkpt><trkpt lat="25.88550475663266" lon="-80.4847124067435"><ele>3.4</ele><time>2026-04-19T11:41:41.999Z</time></trkpt><trkpt lat="25.88540086905021" lon="-80.48470506520388"><ele>3.0</ele><time>2026-04-19T11:41:42.999Z</time></trkpt><trkpt lat="25.885301194816016" lon="-80.48470078233089"><ele>3.0</ele><time>2026-04-19T11:41:43.999Z</time></trkpt><trkpt lat="25.88519760519675" lon="-80.48469618883375"><ele>3.0</ele><time>2026-04-19T11:41:44.999Z</time></trkpt><trkpt lat="25.885095235213782" lon="-80.48469115553755"><ele>3.0</ele><time>2026-04-19T11:41:45.999Z</time></trkpt><trkpt lat="25.884990976615857" lon="-80.48468713202344"><ele>3.0</ele><time>2026-04-19T11:41:46.999Z</time></trkpt><trkpt lat="25.884889266337087" lon="-80.48468493303525"><ele>3.0</ele><time>2026-04-19T11:41:47.999Z</time></trkpt><trkpt lat="25.88478663040031" lon="-80.48468076630466"><ele>2.8</ele><time>2026-04-19T11:41:48.999Z</time></trkpt><trkpt lat="25.88468478631073" lon="-80.48467624364766"><ele>2.5999999999999996</ele><time>2026-04-19T11:41:49.999Z</time></trkpt><trkpt lat="25.884583146256734" lon="-80.48467110068665"><ele>2.4000000000000004</ele><time>2026-04-19T11:41:50.999Z</time></trkpt><trkpt lat="25.8844806729821" lon="-80.48466812187313"><ele>2.2</ele><time>2026-04-19T11:41:51.999Z</time></trkpt><trkpt lat="25.88437929270498" lon="-80.48466640063005"><ele>2.0</ele><time>2026-04-19T11:41:52.999Z</time></trkpt><trkpt lat="25.884276925029923" lon="-80.48466147602858"><ele>2.2</ele><time>2026-04-19T11:41:53.999Z</time></trkpt><trkpt lat="25.884174273038425" lon="-80.4846599081019"><ele>2.4000000000000004</ele><time>2026-04-19T11:41:54.999Z</time></trkpt><trkpt lat="25.884072483680473" lon="-80.48465460444531"><ele>2.5999999999999996</ele><time>2026-04-19T11:41:55.999Z</time></trkpt><trkpt lat="25.883972050066443" lon="-80.48465045268138"><ele>2.8</ele><time>2026-04-19T11:41:56.999Z</time></trkpt><trkpt lat="25.883869188458362" lon="-80.48464527219166"><ele>3.0</ele><time>2026-04-19T11:41:57.999Z</time></trkpt><trkpt lat="25.88376443833856" lon="-80.48464483449968"><ele>3.0</ele><time>2026-04-19T11:41:58.999Z</time></trkpt><trkpt lat="25.883659719404655" lon="-80.48464031718918"><ele>3.0</ele><time>2026-04-19T11:41:59.999Z</time></trkpt><trkpt lat="25.883555194128494" lon="-80.48463605043068"><ele>3.0</ele><time>2026-04-19T11:42:00.999Z</time></trkpt><trkpt lat="25.883449317369436" lon="-80.48463302972455"><ele>3.0</ele><time>2026-04-19T11:42:01.999Z</time></trkpt><trkpt lat="25.88334250136973" lon="-80.4846304888799"><ele>3.0</ele><time>2026-04-19T11:42:02.999Z</time></trkpt><trkpt lat="25.883235547190964" lon="-80.48462577520519"><ele>3.4</ele><time>2026-04-19T11:42:03.999Z</time></trkpt><trkpt lat="25.883128464226036" lon="-80.48462350829693"><ele>3.8</ele><time>2026-04-19T11:42:04.999Z</time></trkpt><trkpt lat="25.883020783373468" lon="-80.48461786741082"><ele>4.2</ele><time>2026-04-19T11:42:05.999Z</time></trkpt><trkpt lat="25.882912368399055" lon="-80.48461271935537"><ele>4.6</ele><time>2026-04-19T11:42:06.999Z</time></trkpt><trkpt lat="25.88280263578206" lon="-80.48460818718947"><ele>5.0</ele><time>2026-04-19T11:42:07.999Z</time></trkpt><trkpt lat="25.88269172478657" lon="-80.4846043942983"><ele>5.2</ele><time>2026-04-19T11:42:08.999Z</time></trkpt><trkpt lat="25.882580217547343" lon="-80.48460063591057"><ele>5.4</ele><time>2026-04-19T11:42:09.999Z</time></trkpt><trkpt lat="25.88247056393643" lon="-80.48459703750679"><ele>5.6</ele><time>2026-04-19T11:42:10.999Z</time></trkpt><trkpt lat="25.882358787486858" lon="-80.48459259493168"><ele>5.8</ele><time>2026-04-19T11:42:11.999Z</time></trkpt><trkpt lat="25.882246929778688" lon="-80.48458705397935"><ele>6.0</ele><time>2026-04-19T11:42:12.999Z</time></trkpt><trkpt lat="25.88213581170326" lon="-80.48458260416152"><ele>6.0</ele><time>2026-04-19T11:42:13.999Z</time></trkpt><trkpt lat="25.882022397853763" lon="-80.4845804586118"><ele>6.0</ele><time>2026-04-19T11:42:14.999Z</time></trkpt><trkpt lat="25.88190778794171" lon="-80.48457963687567"><ele>6.0</ele><time>2026-04-19T11:42:15.999Z</time></trkpt><trkpt lat="25.88179404931991" lon="-80.48457700798234"><ele>6.0</ele><time>2026-04-19T11:42:16.999Z</time></trkpt><trkpt lat="25.881679787268197" lon="-80.48457374351928"><ele>6.5</ele><time>2026-04-19T11:42:17.999Z</time></trkpt><trkpt lat="25.881566087063405" lon="-80.48456820654053"><ele>7.0</ele><time>2026-04-19T11:42:18.999Z</time></trkpt><trkpt lat="25.88144973822794" lon="-80.48456207727112"><ele>7.5</ele><time>2026-04-19T11:42:19.999Z</time></trkpt><trkpt lat="25.881333448968817" lon="-80.48455861687599"><ele>8.0</ele><time>2026-04-19T11:42:20.999Z</time></trkpt><trkpt lat="25.881218305514942" lon="-80.48455383931879"><ele>8.0</ele><time>2026-04-19T11:42:21.999Z</time></trkpt><trkpt lat="25.881103318230466" lon="-80.4845511198633"><ele>8.0</ele><time>2026-04-19T11:42:22.999Z</time></trkpt><trkpt lat="25.880987176775125" lon="-80.48455056287014"><ele>8.0</ele><time>2026-04-19T11:42:23.999Z</time></trkpt><trkpt lat="25.88087176823065" lon="-80.48454626162308"><ele>8.0</ele><time>2026-04-19T11:42:24.999Z</time></trkpt><trkpt lat="25.880756673342592" lon="-80.48454335710954"><ele>7.25</ele><time>2026-04-19T11:42:25.999Z</time></trkpt><trkpt lat="25.880640158381993" lon="-80.48454042884057"><ele>6.5</ele><time>2026-04-19T11:42:26.999Z</time></trkpt><trkpt lat="25.880522982102324" lon="-80.48453427668824"><ele>5.75</ele><time>2026-04-19T11:42:27.999Z</time></trkpt><trkpt lat="25.880405801945205" lon="-80.48453037106381"><ele>5.0</ele><time>2026-04-19T11:42:28.999Z</time></trkpt><trkpt lat="25.880289680741505" lon="-80.48452407624252"><ele>5.0</ele><time>2026-04-19T11:42:29.999Z</time></trkpt><trkpt lat="25.880171832556243" lon="-80.48452162455227"><ele>5.0</ele><time>2026-04-19T11:42:30.999Z</time></trkpt><trkpt lat="25.880055013919154" lon="-80.48451908727544"><ele>5.0</ele><time>2026-04-19T11:42:31.999Z</time></trkpt><trkpt lat="25.879939086865743" lon="-80.48451861169461"><ele>5.0</ele><time>2026-04-19T11:42:32.999Z</time></trkpt><trkpt lat="25.879825271387674" lon="-80.48451667004444"><ele>5.5</ele><time>2026-04-19T11:42:33.999Z</time></trkpt><trkpt lat="25.879712729694276" lon="-80.48451159826179"><ele>6.0</ele><time>2026-04-19T11:42:34.999Z</time></trkpt><trkpt lat="25.879600881916105" lon="-80.48450747073623"><ele>6.5</ele><time>2026-04-19T11:42:35.999Z</time></trkpt><trkpt lat="25.879487521081096" lon="-80.48450364448918"><ele>7.0</ele><time>2026-04-19T11:42:36.999Z</time></trkpt><trkpt lat="25.879374532373983" lon="-80.48449808793517"><ele>6.8</ele><time>2026-04-19T11:42:37.999Z</time></trkpt><trkpt lat="25.879260706262826" lon="-80.48449520917859"><ele>6.6</ele><time>2026-04-19T11:42:38.999Z</time></trkpt><trkpt lat="25.879148500289766" lon="-80.48449439867991"><ele>6.3999999999999995</ele><time>2026-04-19T11:42:39.999Z</time></trkpt><trkpt lat="25.879040079405993" lon="-80.48448918283867"><ele>6.199999999999999</ele><time>2026-04-19T11:42:40.999Z</time></trkpt><trkpt lat="25.87893162841035" lon="-80.48448299753561"><ele>6.0</ele><time>2026-04-19T11:42:41.999Z</time></trkpt><trkpt lat="25.87882350698128" lon="-80.48447819620392"><ele>6.0</ele><time>2026-04-19T11:42:42.999Z</time></trkpt><trkpt lat="25.878717042858526" lon="-80.48447370102389"><ele>6.0</ele><time>2026-04-19T11:42:43.999Z</time></trkpt><trkpt lat="25.878610382988356" lon="-80.48447180011397"><ele>6.0</ele><time>2026-04-19T11:42:44.999Z</time></trkpt><trkpt lat="25.87850292680847" lon="-80.48446907150898"><ele>6.0</ele><time>2026-04-19T11:42:45.999Z</time></trkpt><trkpt lat="25.87839258987068" lon="-80.48446508963228"><ele>6.0</ele><time>2026-04-19T11:42:46.999Z</time></trkpt><trkpt lat="25.87828299586482" lon="-80.48446062486329"><ele>6.199999999999999</ele><time>2026-04-19T11:42:47.999Z</time></trkpt><trkpt lat="25.87817249454511" lon="-80.48445863567497"><ele>6.3999999999999995</ele><time>2026-04-19T11:42:48.999Z</time></trkpt><trkpt lat="25.878060565748513" lon="-80.4844553166664"><ele>6.6</ele><time>2026-04-19T11:42:49.999Z</time></trkpt><trkpt lat="25.877949624860552" lon="-80.48445264258596"><ele>6.8</ele><time>2026-04-19T11:42:50.999Z</time></trkpt><trkpt lat="25.877838016284873" lon="-80.48444825759337"><ele>7.0</ele><time>2026-04-19T11:42:51.999Z</time></trkpt><trkpt lat="25.877726894534025" lon="-80.4844440328483"><ele>7.0</ele><time>2026-04-19T11:42:52.999Z</time></trkpt><trkpt lat="25.877616469260676" lon="-80.48444102093558"><ele>6.999999999999999</ele><time>2026-04-19T11:42:53.999Z</time></trkpt><trkpt lat="25.877509097427993" lon="-80.4844379629344"><ele>6.999999999999999</ele><time>2026-04-19T11:42:54.999Z</time></trkpt><trkpt lat="25.877399361425713" lon="-80.48443371006091"><ele>7.0</ele><time>2026-04-19T11:42:55.999Z</time></trkpt><trkpt lat="25.877291076701336" lon="-80.48442926882407"><ele>7.0</ele><time>2026-04-19T11:42:56.999Z</time></trkpt><trkpt lat="25.87718330159109" lon="-80.48442611900369"><ele>7.0</ele><time>2026-04-19T11:42:57.998Z</time></trkpt><trkpt lat="25.877073705389833" lon="-80.48442186905281"><ele>6.999999999999999</ele><time>2026-04-19T11:42:58.998Z</time></trkpt><trkpt lat="25.87696424997091" lon="-80.48441887673778"><ele>6.999999999999999</ele><time>2026-04-19T11:42:59.998Z</time></trkpt><trkpt lat="25.87685263353835" lon="-80.48441533991507"><ele>7.0</ele><time>2026-04-19T11:43:00.998Z</time></trkpt><trkpt lat="25.876740392415172" lon="-80.48441118108583"><ele>7.0</ele><time>2026-04-19T11:43:01.998Z</time></trkpt><trkpt lat="25.87662721029489" lon="-80.48440594537733"><ele>7.0</ele><time>2026-04-19T11:43:02.998Z</time></trkpt><trkpt lat="25.87651137203777" lon="-80.48440118970323"><ele>7.0</ele><time>2026-04-19T11:43:03.998Z</time></trkpt><trkpt lat="25.876395065182123" lon="-80.48439756799044"><ele>7.0</ele><time>2026-04-19T11:43:04.998Z</time></trkpt><trkpt lat="25.876277715124957" lon="-80.48439426040379"><ele>7.0</ele><time>2026-04-19T11:43:05.998Z</time></trkpt><trkpt lat="25.876159694940498" lon="-80.48439073825615"><ele>7.0</ele><time>2026-04-19T11:43:06.998Z</time></trkpt><trkpt lat="25.876042234513" lon="-80.48438739163247"><ele>7.0</ele><time>2026-04-19T11:43:07.998Z</time></trkpt><trkpt lat="25.87592163283535" lon="-80.48438546299587"><ele>7.0</ele><time>2026-04-19T11:43:08.998Z</time></trkpt><trkpt lat="25.875803114431065" lon="-80.48437986100353"><ele>7.0</ele><time>2026-04-19T11:43:09.998Z</time></trkpt><trkpt lat="25.875685110249208" lon="-80.48437628138751"><ele>7.25</ele><time>2026-04-19T11:43:10.998Z</time></trkpt><trkpt lat="25.8755699698625" lon="-80.48437389169575"><ele>7.5</ele><time>2026-04-19T11:43:11.998Z</time></trkpt><trkpt lat="25.875452315195737" lon="-80.48436890350287"><ele>7.75</ele><time>2026-04-19T11:43:13Z</time></trkpt><trkpt lat="25.875335443654567" lon="-80.48436270460235"><ele>8.0</ele><time>2026-04-19T11:43:14Z</time></trkpt><trkpt lat="25.87521750521521" lon="-80.48435937954564"><ele>7.5</ele><time>2026-04-19T11:43:15Z</time></trkpt><trkpt lat="25.875099118635784" lon="-80.48435667127927"><ele>7.0</ele><time>2026-04-19T11:43:16Z</time></trkpt><trkpt lat="25.874980863793553" lon="-80.4843520284707"><ele>6.5</ele><time>2026-04-19T11:43:17Z</time></trkpt><trkpt lat="25.874862391912362" lon="-80.48434817117023"><ele>6.0</ele><time>2026-04-19T11:43:18Z</time></trkpt><trkpt lat="25.87474553146056" lon="-80.48434437417131"><ele>6.0</ele><time>2026-04-19T11:43:19Z</time></trkpt><trkpt lat="25.874627857460734" lon="-80.4843412046689"><ele>6.0</ele><time>2026-04-19T11:43:20Z</time></trkpt><trkpt lat="25.874511634641138" lon="-80.48433753802352"><ele>6.0</ele><time>2026-04-19T11:43:21Z</time></trkpt><trkpt lat="25.874395902176218" lon="-80.48433268045638"><ele>6.0</ele><time>2026-04-19T11:43:22Z</time></trkpt><trkpt lat="25.87428151828236" lon="-80.48432778971035"><ele>5.5</ele><time>2026-04-19T11:43:23Z</time></trkpt><trkpt lat="25.874166746226766" lon="-80.48432489392854"><ele>5.0</ele><time>2026-04-19T11:43:24Z</time></trkpt><trkpt lat="25.874049196994836" lon="-80.48432047538836"><ele>4.5</ele><time>2026-04-19T11:43:25Z</time></trkpt><trkpt lat="25.873931505576248" lon="-80.48431478825776"><ele>4.0</ele><time>2026-04-19T11:43:26Z</time></trkpt><trkpt lat="25.873815462999488" lon="-80.48431208437898"><ele>4.0</ele><time>2026-04-19T11:43:27Z</time></trkpt><trkpt lat="25.873698930814342" lon="-80.48430486574024"><ele>4.0</ele><time>2026-04-19T11:43:28Z</time></trkpt><trkpt lat="25.873583158302914" lon="-80.48430041756899"><ele>4.0</ele><time>2026-04-19T11:43:29Z</time></trkpt><trkpt lat="25.87346877338132" lon="-80.48429462088964"><ele>4.0</ele><time>2026-04-19T11:43:30Z</time></trkpt><trkpt lat="25.873354798913297" lon="-80.4842902401773"><ele>4.75</ele><time>2026-04-19T11:43:31Z</time></trkpt><trkpt lat="25.873241085359048" lon="-80.48428667052657"><ele>5.5</ele><time>2026-04-19T11:43:31.999Z</time></trkpt><trkpt lat="25.8731287271383" lon="-80.4842825608496"><ele>6.25</ele><time>2026-04-19T11:43:32.999Z</time></trkpt><trkpt lat="25.87301401712767" lon="-80.48427921084269"><ele>7.0</ele><time>2026-04-19T11:43:33.999Z</time></trkpt><trkpt lat="25.872900131053775" lon="-80.48427469742654"><ele>7.0</ele><time>2026-04-19T11:43:34.999Z</time></trkpt><trkpt lat="25.872787413541108" lon="-80.48427120822328"><ele>7.0</ele><time>2026-04-19T11:43:35.999Z</time></trkpt><trkpt lat="25.872673411674175" lon="-80.4842665419275"><ele>7.0</ele><time>2026-04-19T11:43:36.999Z</time></trkpt><trkpt lat="25.872561092510306" lon="-80.48426249834365"><ele>7.0</ele><time>2026-04-19T11:43:37.999Z</time></trkpt><trkpt lat="25.872446964972823" lon="-80.4842602439221"><ele>7.0</ele><time>2026-04-19T11:43:38.999Z</time></trkpt><trkpt lat="25.872332841142363" lon="-80.48425925948898"><ele>7.0</ele><time>2026-04-19T11:43:39.999Z</time></trkpt><trkpt lat="25.872218349753464" lon="-80.4842561832684"><ele>7.0</ele><time>2026-04-19T11:43:40.999Z</time></trkpt><trkpt lat="25.872103206683597" lon="-80.48425337579722"><ele>7.0</ele><time>2026-04-19T11:43:41.999Z</time></trkpt><trkpt lat="25.871991457795072" lon="-80.48425069081657"><ele>7.0</ele><time>2026-04-19T11:43:42.999Z</time></trkpt><trkpt lat="25.871877898523813" lon="-80.4842451693169"><ele>7.0</ele><time>2026-04-19T11:43:43.999Z</time></trkpt><trkpt lat="25.87176446751952" lon="-80.48424201031166"><ele>7.0</ele><time>2026-04-19T11:43:44.999Z</time></trkpt><trkpt lat="25.87164750344471" lon="-80.48423731841648"><ele>7.0</ele><time>2026-04-19T11:43:45.999Z</time></trkpt><trkpt lat="25.87153168989489" lon="-80.484233775614"><ele>6.5</ele><time>2026-04-19T11:43:46.999Z</time></trkpt><trkpt lat="25.871416281288607" lon="-80.48423180375556"><ele>6.0</ele><time>2026-04-19T11:43:47.999Z</time></trkpt><trkpt lat="25.871303450999715" lon="-80.48422895295907"><ele>5.5</ele><time>2026-04-19T11:43:48.999Z</time></trkpt><trkpt lat="25.871191596368753" lon="-80.48422615987856"><ele>5.0</ele><time>2026-04-19T11:43:49.999Z</time></trkpt><trkpt lat="25.871081077506144" lon="-80.4842232891851"><ele>5.0</ele><time>2026-04-19T11:43:50.999Z</time></trkpt><trkpt lat="25.870968448622488" lon="-80.48422113353658"><ele>5.0</ele><time>2026-04-19T11:43:51.999Z</time></trkpt><trkpt lat="25.87085507741391" lon="-80.48421912935832"><ele>5.0</ele><time>2026-04-19T11:43:52.999Z</time></trkpt><trkpt lat="25.870739705294387" lon="-80.48421633268097"><ele>5.0</ele><time>2026-04-19T11:43:53.999Z</time></trkpt><trkpt lat="25.87062616876792" lon="-80.48421422144946"><ele>4.75</ele><time>2026-04-19T11:43:54.999Z</time></trkpt><trkpt lat="25.870509945934618" lon="-80.48421027531509"><ele>4.5</ele><time>2026-04-19T11:43:55.999Z</time></trkpt><trkpt lat="25.870394764231587" lon="-80.48420723913179"><ele>4.25</ele><time>2026-04-19T11:43:56.999Z</time></trkpt><trkpt lat="25.870279917892677" lon="-80.48420423285063"><ele>4.0</ele><time>2026-04-19T11:43:57.999Z</time></trkpt><trkpt lat="25.870163353600955" lon="-80.48420241905843"><ele>4.75</ele><time>2026-04-19T11:43:58.999Z</time></trkpt><trkpt lat="25.87004747011989" lon="-80.48419979281209"><ele>5.5</ele><time>2026-04-19T11:43:59.999Z</time></trkpt><trkpt lat="25.86993098207605" lon="-80.48419747320678"><ele>6.25</ele><time>2026-04-19T11:44:00.999Z</time></trkpt><trkpt lat="25.86981599290064" lon="-80.48419606805281"><ele>7.0</ele><time>2026-04-19T11:44:01.999Z</time></trkpt><trkpt lat="25.86970274874673" lon="-80.48419297717835"><ele>7.0</ele><time>2026-04-19T11:44:02.999Z</time></trkpt><trkpt lat="25.869589163690108" lon="-80.48419149376906"><ele>7.0</ele><time>2026-04-19T11:44:03.999Z</time></trkpt><trkpt lat="25.86947530917015" lon="-80.4841879547573"><ele>7.0</ele><time>2026-04-19T11:44:04.999Z</time></trkpt><trkpt lat="25.869360671214306" lon="-80.48418514899238"><ele>7.0</ele><time>2026-04-19T11:44:05.999Z</time></trkpt><trkpt lat="25.86924492191611" lon="-80.48418365514478"><ele>7.0</ele><time>2026-04-19T11:44:06.999Z</time></trkpt><trkpt lat="25.869130042615144" lon="-80.48418260707683"><ele>7.0</ele><time>2026-04-19T11:44:07.999Z</time></trkpt><trkpt lat="25.869016116620696" lon="-80.48418455068472"><ele>7.0</ele><time>2026-04-19T11:44:08.999Z</time></trkpt><trkpt lat="25.868903593519835" lon="-80.4841810319823"><ele>7.0</ele><time>2026-04-19T11:44:09.999Z</time></trkpt><trkpt lat="25.868791483709355" lon="-80.4841785131124"><ele>7.0</ele><time>2026-04-19T11:44:10.999Z</time></trkpt><trkpt lat="25.868678734514056" lon="-80.48417639369997"><ele>6.999999999999999</ele><time>2026-04-19T11:44:11.999Z</time></trkpt><trkpt lat="25.868566406718084" lon="-80.48417492801636"><ele>6.999999999999999</ele><time>2026-04-19T11:44:12.999Z</time></trkpt><trkpt lat="25.868456515799732" lon="-80.48417055315792"><ele>7.0</ele><time>2026-04-19T11:44:13.999Z</time></trkpt><trkpt lat="25.868345072527287" lon="-80.48416893767813"><ele>7.0</ele><time>2026-04-19T11:44:14.999Z</time></trkpt><trkpt lat="25.86823205674532" lon="-80.4841674341436"><ele>6.75</ele><time>2026-04-19T11:44:15.999Z</time></trkpt><trkpt lat="25.868121015762444" lon="-80.48416712138288"><ele>6.5</ele><time>2026-04-19T11:44:16.999Z</time></trkpt><trkpt lat="25.86800945115176" lon="-80.48416704014059"><ele>6.25</ele><time>2026-04-19T11:44:17.999Z</time></trkpt><trkpt lat="25.86789506957628" lon="-80.48416709460959"><ele>6.0</ele><time>2026-04-19T11:44:18.999Z</time></trkpt><trkpt lat="25.86778090312694" lon="-80.48416733544633"><ele>6.0</ele><time>2026-04-19T11:44:19.999Z</time></trkpt><trkpt lat="25.86766390797101" lon="-80.4841671453894"><ele>6.0</ele><time>2026-04-19T11:44:20.999Z</time></trkpt><trkpt lat="25.867547191155147" lon="-80.48416693276464"><ele>6.0</ele><time>2026-04-19T11:44:21.999Z</time></trkpt><trkpt lat="25.867430976413047" lon="-80.4841669748168"><ele>6.0</ele><time>2026-04-19T11:44:22.999Z</time></trkpt><trkpt lat="25.86731329574853" lon="-80.4841655629562"><ele>6.25</ele><time>2026-04-19T11:44:23.999Z</time></trkpt><trkpt lat="25.867198497359833" lon="-80.48416390290254"><ele>6.5</ele><time>2026-04-19T11:44:24.999Z</time></trkpt><trkpt lat="25.867082609442793" lon="-80.48416345449263"><ele>6.75</ele><time>2026-04-19T11:44:25.999Z</time></trkpt><trkpt lat="25.866967230619803" lon="-80.48416271754807"><ele>7.0</ele><time>2026-04-19T11:44:26.999Z</time></trkpt><trkpt lat="25.866850985295006" lon="-80.48416045823872"><ele>6.75</ele><time>2026-04-19T11:44:27.999Z</time></trkpt><trkpt lat="25.866733846825582" lon="-80.4841577732959"><ele>6.5</ele><time>2026-04-19T11:44:28.999Z</time></trkpt><trkpt lat="25.866617025217927" lon="-80.48416049811767"><ele>6.25</ele><time>2026-04-19T11:44:29.999Z</time></trkpt><trkpt lat="25.86649834889529" lon="-80.48415770326613"><ele>6.0</ele><time>2026-04-19T11:44:30.999Z</time></trkpt><trkpt lat="25.866379301126134" lon="-80.48415558726171"><ele>6.0</ele><time>2026-04-19T11:44:31.999Z</time></trkpt><trkpt lat="25.866260154161957" lon="-80.48415470931602"><ele>6.0</ele><time>2026-04-19T11:44:32.999Z</time></trkpt><trkpt lat="25.866140414331287" lon="-80.48415430906029"><ele>6.0</ele><time>2026-04-19T11:44:33.999Z</time></trkpt><trkpt lat="25.866022022132377" lon="-80.48415670636425"><ele>6.0</ele><time>2026-04-19T11:44:34.999Z</time></trkpt><trkpt lat="25.865903030970426" lon="-80.48415655946945"><ele>5.75</ele><time>2026-04-19T11:44:35.999Z</time></trkpt><trkpt lat="25.865783577606397" lon="-80.48415631508463"><ele>5.5</ele><time>2026-04-19T11:44:36.999Z</time></trkpt><trkpt lat="25.865665322982384" lon="-80.484155752625"><ele>5.25</ele><time>2026-04-19T11:44:37.999Z</time></trkpt><trkpt lat="25.865546490789413" lon="-80.48415736415565"><ele>5.0</ele><time>2026-04-19T11:44:38.999Z</time></trkpt><trkpt lat="25.86543057248101" lon="-80.48415502553941"><ele>5.0</ele><time>2026-04-19T11:44:39.999Z</time></trkpt><trkpt lat="25.86531487639688" lon="-80.48415591110101"><ele>5.0</ele><time>2026-04-19T11:44:40.999Z</time></trkpt><trkpt lat="25.86520016179993" lon="-80.48415380102254"><ele>5.0</ele><time>2026-04-19T11:44:41.999Z</time></trkpt><trkpt lat="25.86508694545911" lon="-80.48415271399797"><ele>5.0</ele><time>2026-04-19T11:44:42.999Z</time></trkpt><trkpt lat="25.86497638945237" lon="-80.48415102366535"><ele>4.8</ele><time>2026-04-19T11:44:43.999Z</time></trkpt><trkpt lat="25.864866074141943" lon="-80.48415400042227"><ele>4.6</ele><time>2026-04-19T11:44:44.999Z</time></trkpt><trkpt lat="25.864755204358886" lon="-80.48415152574728"><ele>4.4</ele><time>2026-04-19T11:44:45.999Z</time></trkpt><trkpt lat="25.864645887890735" lon="-80.48415231858215"><ele>4.2</ele><time>2026-04-19T11:44:46.999Z</time></trkpt><trkpt lat="25.864534880902763" lon="-80.48415138902307"><ele>4.0</ele><time>2026-04-19T11:44:47.999Z</time></trkpt><trkpt lat="25.864424820174357" lon="-80.48415206462869"><ele>4.0</ele><time>2026-04-19T11:44:48.999Z</time></trkpt><trkpt lat="25.864314399449523" lon="-80.48414982485649"><ele>4.0</ele><time>2026-04-19T11:44:49.999Z</time></trkpt><trkpt lat="25.86420482676054" lon="-80.48414701742396"><ele>4.0</ele><time>2026-04-19T11:44:51Z</time></trkpt><trkpt lat="25.86409415503524" lon="-80.48414675696114"><ele>4.0</ele><time>2026-04-19T11:44:52Z</time></trkpt><trkpt lat="25.86398391765708" lon="-80.4841473749909"><ele>4.0</ele><time>2026-04-19T11:44:53Z</time></trkpt><trkpt lat="25.86387215470675" lon="-80.48414884906897"><ele>4.25</ele><time>2026-04-19T11:44:54Z</time></trkpt><trkpt lat="25.863758242841087" lon="-80.48414702294144"><ele>4.5</ele><time>2026-04-19T11:44:55Z</time></trkpt><trkpt lat="25.86364556237129" lon="-80.48414486771716"><ele>4.75</ele><time>2026-04-19T11:44:56Z</time></trkpt><trkpt lat="25.86353315982664" lon="-80.48414437733197"><ele>5.0</ele><time>2026-04-19T11:44:57Z</time></trkpt><trkpt lat="25.86342265051061" lon="-80.48414314356694"><ele>5.0</ele><time>2026-04-19T11:44:58Z</time></trkpt><trkpt lat="25.86331049272826" lon="-80.48414140516262"><ele>5.0</ele><time>2026-04-19T11:44:59Z</time></trkpt><trkpt lat="25.863199604004237" lon="-80.4841411385626"><ele>5.0</ele><time>2026-04-19T11:45:00Z</time></trkpt><trkpt lat="25.86308783555493" lon="-80.48414354617707"><ele>5.0</ele><time>2026-04-19T11:45:01Z</time></trkpt><trkpt lat="25.862976494268235" lon="-80.48414287257394"><ele>5.0</ele><time>2026-04-19T11:45:01.999Z</time></trkpt><trkpt lat="25.86286754931161" lon="-80.48413903529261"><ele>5.0</ele><time>2026-04-19T11:45:02.999Z</time></trkpt><trkpt lat="25.8627595817066" lon="-80.48413732637216"><ele>5.0</ele><time>2026-04-19T11:45:03.999Z</time></trkpt><trkpt lat="25.862652894509875" lon="-80.48413889592744"><ele>5.0</ele><time>2026-04-19T11:45:04.999Z</time></trkpt><trkpt lat="25.86254611663608" lon="-80.48414092282212"><ele>5.0</ele><time>2026-04-19T11:45:05.999Z</time></trkpt><trkpt lat="25.862437651558196" lon="-80.48414227898164"><ele>5.0</ele><time>2026-04-19T11:45:06.999Z</time></trkpt><trkpt lat="25.862329277548774" lon="-80.48414068402991"><ele>5.2</ele><time>2026-04-19T11:45:07.999Z</time></trkpt><trkpt lat="25.862218802648666" lon="-80.4841413412763"><ele>5.4</ele><time>2026-04-19T11:45:08.999Z</time></trkpt><trkpt lat="25.86210867380957" lon="-80.48413979044504"><ele>5.6</ele><time>2026-04-19T11:45:09.999Z</time></trkpt><trkpt lat="25.861995843959946" lon="-80.48413941159062"><ele>5.8</ele><time>2026-04-19T11:45:10.999Z</time></trkpt><trkpt lat="25.861881435001106" lon="-80.48413806918606"><ele>6.0</ele><time>2026-04-19T11:45:11.999Z</time></trkpt><trkpt lat="25.86176715606216" lon="-80.4841347664691"><ele>6.5</ele><time>2026-04-19T11:45:12.999Z</time></trkpt><trkpt lat="25.861651645014454" lon="-80.48413502629626"><ele>7.0</ele><time>2026-04-19T11:45:13.999Z</time></trkpt><trkpt lat="25.86153441774359" lon="-80.48413580830548"><ele>7.5</ele><time>2026-04-19T11:45:14.999Z</time></trkpt><trkpt lat="25.86141995667976" lon="-80.48413399286596"><ele>8.0</ele><time>2026-04-19T11:45:15.999Z</time></trkpt><trkpt lat="25.86130756902143" lon="-80.48413075076041"><ele>8.0</ele><time>2026-04-19T11:45:16.999Z</time></trkpt><trkpt lat="25.861197130598256" lon="-80.48413002715984"><ele>8.0</ele><time>2026-04-19T11:45:17.999Z</time></trkpt><trkpt lat="25.86108642224546" lon="-80.48412958835493"><ele>8.0</ele><time>2026-04-19T11:45:19.001Z</time></trkpt><trkpt lat="25.86097790451044" lon="-80.48413100221259"><ele>8.0</ele><time>2026-04-19T11:45:20.001Z</time></trkpt><trkpt lat="25.86086849058269" lon="-80.48413048492796"><ele>8.0</ele><time>2026-04-19T11:45:21.001Z</time></trkpt><trkpt lat="25.860755463904972" lon="-80.4841289857672"><ele>7.5</ele><time>2026-04-19T11:45:22.001Z</time></trkpt><trkpt lat="25.860645211690233" lon="-80.4841268264425"><ele>7.0</ele><time>2026-04-19T11:45:23.001Z</time></trkpt><trkpt lat="25.86053318423978" lon="-80.48412930308034"><ele>6.5</ele><time>2026-04-19T11:45:24.001Z</time></trkpt><trkpt lat="25.860419691500372" lon="-80.48413048393436"><ele>6.0</ele><time>2026-04-19T11:45:25.001Z</time></trkpt><trkpt lat="25.860305015767235" lon="-80.48413097226886"><ele>6.0</ele><time>2026-04-19T11:45:26.001Z</time></trkpt><trkpt lat="25.860186455769654" lon="-80.48412790335053"><ele>6.0</ele><time>2026-04-19T11:45:27.001Z</time></trkpt><trkpt lat="25.86006664872892" lon="-80.48412588615878"><ele>6.0</ele><time>2026-04-19T11:45:28.001Z</time></trkpt><trkpt lat="25.859945593895866" lon="-80.48412447565738"><ele>6.0</ele><time>2026-04-19T11:45:29.001Z</time></trkpt><trkpt lat="25.859822432415697" lon="-80.4841242842575"><ele>5.75</ele><time>2026-04-19T11:45:30.001Z</time></trkpt><trkpt lat="25.859703923437845" lon="-80.48412584849008"><ele>5.5</ele><time>2026-04-19T11:45:31.001Z</time></trkpt><trkpt lat="25.85958631234903" lon="-80.48412812490054"><ele>5.25</ele><time>2026-04-19T11:45:32.001Z</time></trkpt><trkpt lat="25.85947055647655" lon="-80.48412509797663"><ele>5.0</ele><time>2026-04-19T11:45:33.001Z</time></trkpt><trkpt lat="25.859354948270184" lon="-80.48412247479983"><ele>5.5</ele><time>2026-04-19T11:45:34.001Z</time></trkpt><trkpt lat="25.859239070135807" lon="-80.48412207436346"><ele>6.0</ele><time>2026-04-19T11:45:35.001Z</time></trkpt><trkpt lat="25.859121865353178" lon="-80.48412039227003"><ele>6.5</ele><time>2026-04-19T11:45:36Z</time></trkpt><trkpt lat="25.859003959195416" lon="-80.48411836534403"><ele>7.0</ele><time>2026-04-19T11:45:37Z</time></trkpt><trkpt lat="25.858886599239263" lon="-80.48411728314437"><ele>7.0</ele><time>2026-04-19T11:45:38Z</time></trkpt><trkpt lat="25.858770463372" lon="-80.48411744332617"><ele>7.0</ele><time>2026-04-19T11:45:39Z</time></trkpt><trkpt lat="25.85865555116961" lon="-80.4841175591952"><ele>7.0</ele><time>2026-04-19T11:45:40Z</time></trkpt><trkpt lat="25.85854228847564" lon="-80.48411637840022"><ele>7.0</ele><time>2026-04-19T11:45:41Z</time></trkpt><trkpt lat="25.85842852673871" lon="-80.48411592389856"><ele>6.6</ele><time>2026-04-19T11:45:42Z</time></trkpt><trkpt lat="25.85831572292086" lon="-80.48411434570495"><ele>6.199999999999999</ele><time>2026-04-19T11:45:43Z</time></trkpt><trkpt lat="25.85820378932434" lon="-80.48411488065422"><ele>5.8</ele><time>2026-04-19T11:45:44Z</time></trkpt><trkpt lat="25.858093622184114" lon="-80.48411463542766"><ele>5.4</ele><time>2026-04-19T11:45:45Z</time></trkpt><trkpt lat="25.857985136662688" lon="-80.48411322157853"><ele>5.0</ele><time>2026-04-19T11:45:46Z</time></trkpt><trkpt lat="25.857875516018048" lon="-80.48411297685796"><ele>5.0</ele><time>2026-04-19T11:45:47Z</time></trkpt><trkpt lat="25.857765674011915" lon="-80.4841123784079"><ele>5.0</ele><time>2026-04-19T11:45:48Z</time></trkpt><trkpt lat="25.85765493482261" lon="-80.48411069527947"><ele>5.0</ele><time>2026-04-19T11:45:49Z</time></trkpt><trkpt lat="25.857547473814694" lon="-80.48410909347726"><ele>5.0</ele><time>2026-04-19T11:45:50Z</time></trkpt><trkpt lat="25.857441443927545" lon="-80.48410864916507"><ele>5.0</ele><time>2026-04-19T11:45:51Z</time></trkpt><trkpt lat="25.857334423970773" lon="-80.4841078302916"><ele>5.2</ele><time>2026-04-19T11:45:52Z</time></trkpt><trkpt lat="25.857226566931857" lon="-80.48410741382008"><ele>5.4</ele><time>2026-04-19T11:45:53Z</time></trkpt><trkpt lat="25.857119281678074" lon="-80.48410747316836"><ele>5.6</ele><time>2026-04-19T11:45:54Z</time></trkpt><trkpt lat="25.85701245865525" lon="-80.48410767224019"><ele>5.8</ele><time>2026-04-19T11:45:55Z</time></trkpt><trkpt lat="25.856905037482615" lon="-80.48410816817984"><ele>6.0</ele><time>2026-04-19T11:45:56Z</time></trkpt><trkpt lat="25.85679653851956" lon="-80.48410527095079"><ele>6.0</ele><time>2026-04-19T11:45:57Z</time></trkpt><trkpt lat="25.8566883308584" lon="-80.48410515919748"><ele>6.0</ele><time>2026-04-19T11:45:58Z</time></trkpt><trkpt lat="25.856580542306414" lon="-80.48410405215603"><ele>6.0</ele><time>2026-04-19T11:45:59Z</time></trkpt><trkpt lat="25.856472902309704" lon="-80.48410315529742"><ele>6.0</ele><time>2026-04-19T11:46:00Z</time></trkpt><trkpt lat="25.856365790045476" lon="-80.48410114003879"><ele>6.0</ele><time>2026-04-19T11:46:01Z</time></trkpt><trkpt lat="25.8562576557308" lon="-80.48409878757914"><ele>6.0</ele><time>2026-04-19T11:46:02Z</time></trkpt><trkpt lat="25.856150455232093" lon="-80.48409830674377"><ele>6.0</ele><time>2026-04-19T11:46:03Z</time></trkpt><trkpt lat="25.85604125587648" lon="-80.48409675883774"><ele>6.0</ele><time>2026-04-19T11:46:04Z</time></trkpt><trkpt lat="25.855932498321966" lon="-80.48409586661086"><ele>6.0</ele><time>2026-04-19T11:46:05Z</time></trkpt><trkpt lat="25.8558205828252" lon="-80.48409428278364"><ele>6.0</ele><time>2026-04-19T11:46:06Z</time></trkpt><trkpt lat="25.855709209894293" lon="-80.48409174480973"><ele>5.75</ele><time>2026-04-19T11:46:07Z</time></trkpt><trkpt lat="25.855597647698826" lon="-80.484089147244"><ele>5.5</ele><time>2026-04-19T11:46:08Z</time></trkpt><trkpt lat="25.85548423722589" lon="-80.48408675734498"><ele>5.25</ele><time>2026-04-19T11:46:09Z</time></trkpt><trkpt lat="25.85537083029208" lon="-80.48408413780298"><ele>5.0</ele><time>2026-04-19T11:46:10Z</time></trkpt><trkpt lat="25.85525704646337" lon="-80.48407884651417"><ele>5.0</ele><time>2026-04-19T11:46:11Z</time></trkpt><trkpt lat="25.855145394774812" lon="-80.48407546262266"><ele>5.0</ele><time>2026-04-19T11:46:12Z</time></trkpt><trkpt lat="25.855032226903358" lon="-80.48407072631373"><ele>5.0</ele><time>2026-04-19T11:46:13Z</time></trkpt><trkpt lat="25.854921664112197" lon="-80.48406486332695"><ele>5.0</ele><time>2026-04-19T11:46:14Z</time></trkpt><trkpt lat="25.85481203103733" lon="-80.48406019050901"><ele>5.0</ele><time>2026-04-19T11:46:15Z</time></trkpt><trkpt lat="25.85470374158662" lon="-80.48405510981985"><ele>5.2</ele><time>2026-04-19T11:46:16Z</time></trkpt><trkpt lat="25.854596459414218" lon="-80.48405137679816"><ele>5.4</ele><time>2026-04-19T11:46:17Z</time></trkpt><trkpt lat="25.85449065838086" lon="-80.48404879243468"><ele>5.6</ele><time>2026-04-19T11:46:18Z</time></trkpt><trkpt lat="25.854385316947823" lon="-80.48404409191095"><ele>5.8</ele><time>2026-04-19T11:46:19Z</time></trkpt><trkpt lat="25.854279759375178" lon="-80.4840418560882"><ele>6.0</ele><time>2026-04-19T11:46:20Z</time></trkpt><trkpt lat="25.85417114286907" lon="-80.48403477112878"><ele>6.0</ele><time>2026-04-19T11:46:21Z</time></trkpt><trkpt lat="25.85406441630756" lon="-80.48403041306283"><ele>6.0</ele><time>2026-04-19T11:46:22Z</time></trkpt><trkpt lat="25.853955792406754" lon="-80.48402720973152"><ele>6.0</ele><time>2026-04-19T11:46:23Z</time></trkpt><trkpt lat="25.85384728776701" lon="-80.48402628668613"><ele>6.0</ele><time>2026-04-19T11:46:24Z</time></trkpt><trkpt lat="25.85373894099553" lon="-80.48402462492925"><ele>6.0</ele><time>2026-04-19T11:46:25Z</time></trkpt><trkpt lat="25.853629989935097" lon="-80.48402010748191"><ele>6.0</ele><time>2026-04-19T11:46:26Z</time></trkpt><trkpt lat="25.853519575551047" lon="-80.48401548232097"><ele>6.0</ele><time>2026-04-19T11:46:27Z</time></trkpt><trkpt lat="25.85341009127544" lon="-80.48401192170216"><ele>6.0</ele><time>2026-04-19T11:46:28Z</time></trkpt><trkpt lat="25.85329973240181" lon="-80.48400769373895"><ele>6.0</ele><time>2026-04-19T11:46:29Z</time></trkpt><trkpt lat="25.853189363536597" lon="-80.48400135649572"><ele>6.0</ele><time>2026-04-19T11:46:30Z</time></trkpt><trkpt lat="25.85307924703217" lon="-80.48399704765617"><ele>6.0</ele><time>2026-04-19T11:46:31Z</time></trkpt><trkpt lat="25.852969551893747" lon="-80.4839947441828"><ele>6.0</ele><time>2026-04-19T11:46:32Z</time></trkpt><trkpt lat="25.8528584645484" lon="-80.48399097031547"><ele>6.0</ele><time>2026-04-19T11:46:33Z</time></trkpt><trkpt lat="25.852748554898344" lon="-80.48398589088494"><ele>6.0</ele><time>2026-04-19T11:46:34Z</time></trkpt><trkpt lat="25.852638472170373" lon="-80.483979097215"><ele>6.0</ele><time>2026-04-19T11:46:35Z</time></trkpt><trkpt lat="25.8525275131848" lon="-80.48397393878693"><ele>6.0</ele><time>2026-04-19T11:46:36Z</time></trkpt><trkpt lat="25.85241627441419" lon="-80.48397086787283"><ele>6.0</ele><time>2026-04-19T11:46:37Z</time></trkpt><trkpt lat="25.852304979456537" lon="-80.48396694558518"><ele>6.0</ele><time>2026-04-19T11:46:38Z</time></trkpt><trkpt lat="25.852191576305618" lon="-80.48396432445277"><ele>6.0</ele><time>2026-04-19T11:46:39Z</time></trkpt><trkpt lat="25.85207586698356" lon="-80.4839580664165"><ele>6.0</ele><time>2026-04-19T11:46:40Z</time></trkpt><trkpt lat="25.851958453165327" lon="-80.48395210370303"><ele>6.0</ele><time>2026-04-19T11:46:41Z</time></trkpt><trkpt lat="25.851841616024664" lon="-80.48394725847109"><ele>6.0</ele><time>2026-04-19T11:46:42Z</time></trkpt><trkpt lat="25.851726074976664" lon="-80.48394366370894"><ele>6.0</ele><time>2026-04-19T11:46:43Z</time></trkpt><trkpt lat="25.85161316648518" lon="-80.48394151978397"><ele>5.8</ele><time>2026-04-19T11:46:44Z</time></trkpt><trkpt lat="25.851499729299" lon="-80.48393891863235"><ele>5.6</ele><time>2026-04-19T11:46:45Z</time></trkpt><trkpt lat="25.851391098643393" lon="-80.48393361404895"><ele>5.4</ele><time>2026-04-19T11:46:46Z</time></trkpt><trkpt lat="25.851283920021675" lon="-80.48392872114465"><ele>5.2</ele><time>2026-04-19T11:46:47Z</time></trkpt><trkpt lat="25.851177711284834" lon="-80.48392371749325"><ele>5.0</ele><time>2026-04-19T11:46:48Z</time></trkpt><trkpt lat="25.85106823955533" lon="-80.48391876453815"><ele>5.0</ele><time>2026-04-19T11:46:49Z</time></trkpt><trkpt lat="25.850959449567558" lon="-80.48391618576984"><ele>5.0</ele><time>2026-04-19T11:46:50Z</time></trkpt><trkpt lat="25.850850796531955" lon="-80.48391122282912"><ele>5.0</ele><time>2026-04-19T11:46:51Z</time></trkpt><trkpt lat="25.85074176476758" lon="-80.4839045163609"><ele>5.0</ele><time>2026-04-19T11:46:52Z</time></trkpt><trkpt lat="25.85063154145778" lon="-80.48390162093537"><ele>5.0</ele><time>2026-04-19T11:46:53Z</time></trkpt><trkpt lat="25.85052173031852" lon="-80.48389911261447"><ele>5.0</ele><time>2026-04-19T11:46:54Z</time></trkpt><trkpt lat="25.8504128644038" lon="-80.48389580698998"><ele>5.0</ele><time>2026-04-19T11:46:55Z</time></trkpt><trkpt lat="25.850306371871017" lon="-80.48389085468814"><ele>5.0</ele><time>2026-04-19T11:46:56Z</time></trkpt><trkpt lat="25.85019869226959" lon="-80.48388665519487"><ele>5.0</ele><time>2026-04-19T11:46:57Z</time></trkpt><trkpt lat="25.850090170763522" lon="-80.48388226607005"><ele>5.0</ele><time>2026-04-19T11:46:58Z</time></trkpt><trkpt lat="25.849980764098536" lon="-80.48387665001648"><ele>5.0</ele><time>2026-04-19T11:46:59Z</time></trkpt><trkpt lat="25.849872080141374" lon="-80.48387120427468"><ele>5.0</ele><time>2026-04-19T11:47:00Z</time></trkpt><trkpt lat="25.849762128912506" lon="-80.48386685905606"><ele>5.0</ele><time>2026-04-19T11:47:01Z</time></trkpt><trkpt lat="25.849652657075485" lon="-80.48386475619154"><ele>5.0</ele><time>2026-04-19T11:47:02Z</time></trkpt><trkpt lat="25.849539563839993" lon="-80.48386090713075"><ele>5.0</ele><time>2026-04-19T11:47:03Z</time></trkpt><trkpt lat="25.849426197466023" lon="-80.48385524627649"><ele>5.0</ele><time>2026-04-19T11:47:04Z</time></trkpt><trkpt lat="25.849313368707083" lon="-80.4838509308031"><ele>5.0</ele><time>2026-04-19T11:47:05Z</time></trkpt><trkpt lat="25.849200389491504" lon="-80.48384596617029"><ele>5.0</ele><time>2026-04-19T11:47:06Z</time></trkpt><trkpt lat="25.84908770238677" lon="-80.48384129214321"><ele>5.0</ele><time>2026-04-19T11:47:06.999Z</time></trkpt><trkpt lat="25.84897299203573" lon="-80.48383613934435"><ele>4.75</ele><time>2026-04-19T11:47:07.999Z</time></trkpt><trkpt lat="25.84885822528233" lon="-80.48383304362932"><ele>4.5</ele><time>2026-04-19T11:47:08.999Z</time></trkpt><trkpt lat="25.848743410115585" lon="-80.48382843174528"><ele>4.25</ele><time>2026-04-19T11:47:09.999Z</time></trkpt><trkpt lat="25.848629376587557" lon="-80.48382359629122"><ele>4.0</ele><time>2026-04-19T11:47:10.999Z</time></trkpt><trkpt lat="25.848514098804518" lon="-80.48381753262613"><ele>4.25</ele><time>2026-04-19T11:47:11.999Z</time></trkpt><trkpt lat="25.848398751688322" lon="-80.48381475404217"><ele>4.5</ele><time>2026-04-19T11:47:12.999Z</time></trkpt><trkpt lat="25.848282031516103" lon="-80.4838100022082"><ele>4.75</ele><time>2026-04-19T11:47:13.999Z</time></trkpt><trkpt lat="25.848165709553466" lon="-80.48380708069188"><ele>5.0</ele><time>2026-04-19T11:47:14.999Z</time></trkpt><trkpt lat="25.84804761690375" lon="-80.48380124710721"><ele>5.0</ele><time>2026-04-19T11:47:15.999Z</time></trkpt><trkpt lat="25.84792862130095" lon="-80.48379604986236"><ele>5.0</ele><time>2026-04-19T11:47:16.999Z</time></trkpt><trkpt lat="25.847810891709283" lon="-80.48379319709093"><ele>5.0</ele><time>2026-04-19T11:47:17.999Z</time></trkpt><trkpt lat="25.847691390028995" lon="-80.48378858326807"><ele>5.0</ele><time>2026-04-19T11:47:18.999Z</time></trkpt><trkpt lat="25.847571575116508" lon="-80.4837832103843"><ele>5.0</ele><time>2026-04-19T11:47:19.999Z</time></trkpt><trkpt lat="25.84745210334745" lon="-80.48377975650448"><ele>5.0</ele><time>2026-04-19T11:47:20.999Z</time></trkpt><trkpt lat="25.847332708528416" lon="-80.48377409952022"><ele>5.0</ele><time>2026-04-19T11:47:21.999Z</time></trkpt><trkpt lat="25.847216468283715" lon="-80.48376662834804"><ele>5.0</ele><time>2026-04-19T11:47:22.999Z</time></trkpt><trkpt lat="25.847100581094026" lon="-80.4837626632168"><ele>4.75</ele><time>2026-04-19T11:47:23.999Z</time></trkpt><trkpt lat="25.846986147027597" lon="-80.48375893328529"><ele>4.5</ele><time>2026-04-19T11:47:25.001Z</time></trkpt><trkpt lat="25.846870022139893" lon="-80.48375520030518"><ele>4.25</ele><time>2026-04-19T11:47:26.001Z</time></trkpt><trkpt lat="25.846756262866265" lon="-80.48375231075578"><ele>4.0</ele><time>2026-04-19T11:47:27.001Z</time></trkpt><trkpt lat="25.846643865680424" lon="-80.48374738481797"><ele>4.4</ele><time>2026-04-19T11:47:28.001Z</time></trkpt><trkpt lat="25.84653800180817" lon="-80.48374279590942"><ele>4.800000000000001</ele><time>2026-04-19T11:47:29.001Z</time></trkpt><trkpt lat="25.84643413171607" lon="-80.48373828937348"><ele>5.199999999999999</ele><time>2026-04-19T11:47:30.001Z</time></trkpt><trkpt lat="25.846330629166733" lon="-80.48373336847467"><ele>5.6</ele><time>2026-04-19T11:47:31.001Z</time></trkpt><trkpt lat="25.846224549314734" lon="-80.48372923904975"><ele>6.0</ele><time>2026-04-19T11:47:32.001Z</time></trkpt><trkpt lat="25.8461193125786" lon="-80.4837248349954"><ele>6.0</ele><time>2026-04-19T11:47:33.001Z</time></trkpt><trkpt lat="25.84601126250107" lon="-80.48372131468835"><ele>6.0</ele><time>2026-04-19T11:47:34.001Z</time></trkpt><trkpt lat="25.84590403416202" lon="-80.48371946104868"><ele>6.0</ele><time>2026-04-19T11:47:35.001Z</time></trkpt><trkpt lat="25.845795836191108" lon="-80.48371606530807"><ele>6.0</ele><time>2026-04-19T11:47:36.001Z</time></trkpt><trkpt lat="25.845686890106563" lon="-80.48371206594615"><ele>6.0</ele><time>2026-04-19T11:47:37.001Z</time></trkpt><trkpt lat="25.84557841172007" lon="-80.48370843618532"><ele>5.8</ele><time>2026-04-19T11:47:38.001Z</time></trkpt><trkpt lat="25.84546898584464" lon="-80.48370483110017"><ele>5.6</ele><time>2026-04-19T11:47:39.001Z</time></trkpt><trkpt lat="25.845360838101612" lon="-80.48369966762293"><ele>5.4</ele><time>2026-04-19T11:47:40Z</time></trkpt><trkpt lat="25.845254284390602" lon="-80.48369573814294"><ele>5.2</ele><time>2026-04-19T11:47:41Z</time></trkpt><trkpt lat="25.845146796188335" lon="-80.483690663066"><ele>5.0</ele><time>2026-04-19T11:47:42Z</time></trkpt><trkpt lat="25.845040425351634" lon="-80.4836874213124"><ele>5.0</ele><time>2026-04-19T11:47:43Z</time></trkpt><trkpt lat="25.844934405086313" lon="-80.48368390414193"><ele>5.0</ele><time>2026-04-19T11:47:44Z</time></trkpt><trkpt lat="25.84483079759916" lon="-80.48367945908953"><ele>5.0</ele><time>2026-04-19T11:47:45Z</time></trkpt><trkpt lat="25.844725906732627" lon="-80.48367424287242"><ele>5.0</ele><time>2026-04-19T11:47:46Z</time></trkpt><trkpt lat="25.844620224392738" lon="-80.48366985719302"><ele>5.0</ele><time>2026-04-19T11:47:47Z</time></trkpt><trkpt lat="25.84451402947456" lon="-80.48366647775144"><ele>5.0</ele><time>2026-04-19T11:47:48Z</time></trkpt><trkpt lat="25.844406157871497" lon="-80.48366291966134"><ele>5.0</ele><time>2026-04-19T11:47:49Z</time></trkpt><trkpt lat="25.844297976312145" lon="-80.48365994429446"><ele>5.0</ele><time>2026-04-19T11:47:50Z</time></trkpt><trkpt lat="25.84419024872065" lon="-80.48365346594655"><ele>5.0</ele><time>2026-04-19T11:47:51Z</time></trkpt><trkpt lat="25.844085408401163" lon="-80.4836474948709"><ele>5.0</ele><time>2026-04-19T11:47:52Z</time></trkpt><trkpt lat="25.843981717665873" lon="-80.48364489396211"><ele>5.0</ele><time>2026-04-19T11:47:53Z</time></trkpt><trkpt lat="25.843875763082618" lon="-80.48364233481222"><ele>5.0</ele><time>2026-04-19T11:47:54Z</time></trkpt><trkpt lat="25.843768731496375" lon="-80.48363916698678"><ele>5.0</ele><time>2026-04-19T11:47:55Z</time></trkpt><trkpt lat="25.84366004908954" lon="-80.48363593932527"><ele>5.0</ele><time>2026-04-19T11:47:56Z</time></trkpt><trkpt lat="25.843549457340625" lon="-80.48363102074447"><ele>5.0</ele><time>2026-04-19T11:47:57Z</time></trkpt><trkpt lat="25.843438903353718" lon="-80.4836250922026"><ele>5.0</ele><time>2026-04-19T11:47:58Z</time></trkpt><trkpt lat="25.84332551490988" lon="-80.48361899295173"><ele>5.0</ele><time>2026-04-19T11:47:59Z</time></trkpt><trkpt lat="25.84321264095129" lon="-80.48361549195579"><ele>5.0</ele><time>2026-04-19T11:48:00Z</time></trkpt><trkpt lat="25.843098749498587" lon="-80.4836125624315"><ele>5.0</ele><time>2026-04-19T11:48:01Z</time></trkpt><trkpt lat="25.842985183639424" lon="-80.48360971165856"><ele>5.0</ele><time>2026-04-19T11:48:02Z</time></trkpt><trkpt lat="25.842872123517054" lon="-80.48360470158143"><ele>5.0</ele><time>2026-04-19T11:48:03Z</time></trkpt><trkpt lat="25.84275950348269" lon="-80.4835991622631"><ele>5.0</ele><time>2026-04-19T11:48:04Z</time></trkpt><trkpt lat="25.84264881730854" lon="-80.48359455815665"><ele>5.0</ele><time>2026-04-19T11:48:05Z</time></trkpt><trkpt lat="25.84253833783093" lon="-80.48359040809723"><ele>5.0</ele><time>2026-04-19T11:48:06Z</time></trkpt><trkpt lat="25.842427876126525" lon="-80.48358533796474"><ele>5.0</ele><time>2026-04-19T11:48:07Z</time></trkpt><trkpt lat="25.842318240408694" lon="-80.4835792490167"><ele>5.0</ele><time>2026-04-19T11:48:08Z</time></trkpt><trkpt lat="25.842209617426427" lon="-80.4835731592845"><ele>5.0</ele><time>2026-04-19T11:48:09Z</time></trkpt><trkpt lat="25.84210122047538" lon="-80.48357100113812"><ele>5.0</ele><time>2026-04-19T11:48:10Z</time></trkpt><trkpt lat="25.841993380761153" lon="-80.48356838464336"><ele>5.0</ele><time>2026-04-19T11:48:11Z</time></trkpt><trkpt lat="25.841885314163402" lon="-80.48356413228258"><ele>5.2</ele><time>2026-04-19T11:48:12Z</time></trkpt><trkpt lat="25.84177665567376" lon="-80.48355876507779"><ele>5.4</ele><time>2026-04-19T11:48:13Z</time></trkpt><trkpt lat="25.841667122132918" lon="-80.48355316728733"><ele>5.6</ele><time>2026-04-19T11:48:14Z</time></trkpt><trkpt lat="25.841557994659645" lon="-80.4835501688048"><ele>5.8</ele><time>2026-04-19T11:48:15Z</time></trkpt><trkpt lat="25.841446497883886" lon="-80.48354444975222"><ele>6.0</ele><time>2026-04-19T11:48:16Z</time></trkpt><trkpt lat="25.841333941646578" lon="-80.48353781433505"><ele>6.0</ele><time>2026-04-19T11:48:17Z</time></trkpt><trkpt lat="25.841221585135195" lon="-80.48353350407253"><ele>6.0</ele><time>2026-04-19T11:48:18Z</time></trkpt><trkpt lat="25.841109117074062" lon="-80.483530883695"><ele>6.0</ele><time>2026-04-19T11:48:19Z</time></trkpt><trkpt lat="25.840997332477553" lon="-80.48352438691944"><ele>6.0</ele><time>2026-04-19T11:48:20Z</time></trkpt><trkpt lat="25.840885491776607" lon="-80.48351968766013"><ele>6.0</ele><time>2026-04-19T11:48:21Z</time></trkpt><trkpt lat="25.84077344850581" lon="-80.48351583711911"><ele>6.199999999999999</ele><time>2026-04-19T11:48:22Z</time></trkpt><trkpt lat="25.84066168605077" lon="-80.48351221297547"><ele>6.3999999999999995</ele><time>2026-04-19T11:48:23Z</time></trkpt><trkpt lat="25.840549261607745" lon="-80.48350851601512"><ele>6.6</ele><time>2026-04-19T11:48:24Z</time></trkpt><trkpt lat="25.84043771571966" lon="-80.48350308271536"><ele>6.8</ele><time>2026-04-19T11:48:25Z</time></trkpt><trkpt lat="25.84032645324536" lon="-80.48350021590001"><ele>7.0</ele><time>2026-04-19T11:48:26Z</time></trkpt><trkpt lat="25.84021523223804" lon="-80.483499376012"><ele>7.0</ele><time>2026-04-19T11:48:27Z</time></trkpt><trkpt lat="25.84010403194979" lon="-80.48349562063535"><ele>7.0</ele><time>2026-04-19T11:48:28Z</time></trkpt><trkpt lat="25.839991550876718" lon="-80.48348787300182"><ele>7.0</ele><time>2026-04-19T11:48:29Z</time></trkpt><trkpt lat="25.839878154629172" lon="-80.48348289487207"><ele>7.0</ele><time>2026-04-19T11:48:30Z</time></trkpt><trkpt lat="25.839765330533968" lon="-80.48347790145452"><ele>7.0</ele><time>2026-04-19T11:48:31Z</time></trkpt><trkpt lat="25.839650508108594" lon="-80.48347533216699"><ele>7.0</ele><time>2026-04-19T11:48:32Z</time></trkpt><trkpt lat="25.83953723109078" lon="-80.48347162547601"><ele>7.0</ele><time>2026-04-19T11:48:33Z</time></trkpt><trkpt lat="25.839419265461604" lon="-80.48346442537328"><ele>7.0</ele><time>2026-04-19T11:48:34Z</time></trkpt><trkpt lat="25.839303947969192" lon="-80.48345941054828"><ele>7.0</ele><time>2026-04-19T11:48:35Z</time></trkpt><trkpt lat="25.83918984350675" lon="-80.48345242274098"><ele>6.999999999999999</ele><time>2026-04-19T11:48:36Z</time></trkpt><trkpt lat="25.839077596984737" lon="-80.48344855009124"><ele>6.999999999999999</ele><time>2026-04-19T11:48:37Z</time></trkpt><trkpt lat="25.83896686606921" lon="-80.4834445514564"><ele>7.0</ele><time>2026-04-19T11:48:38Z</time></trkpt><trkpt lat="25.83885515393024" lon="-80.48344092107952"><ele>7.0</ele><time>2026-04-19T11:48:39Z</time></trkpt><trkpt lat="25.838747671184667" lon="-80.48343826052246"><ele>7.0</ele><time>2026-04-19T11:48:40Z</time></trkpt><trkpt lat="25.838636807726978" lon="-80.48343473743734"><ele>7.0</ele><time>2026-04-19T11:48:41Z</time></trkpt><trkpt lat="25.83852372832514" lon="-80.48342860740193"><ele>7.0</ele><time>2026-04-19T11:48:42Z</time></trkpt><trkpt lat="25.838411994864302" lon="-80.48342596688185"><ele>7.0</ele><time>2026-04-19T11:48:43Z</time></trkpt><trkpt lat="25.83829657061907" lon="-80.4834215599201"><ele>6.5</ele><time>2026-04-19T11:48:44Z</time></trkpt><trkpt lat="25.838181679224316" lon="-80.48341760341754"><ele>6.0</ele><time>2026-04-19T11:48:45Z</time></trkpt><trkpt lat="25.838065107406013" lon="-80.48341289550675"><ele>5.5</ele><time>2026-04-19T11:48:46Z</time></trkpt><trkpt lat="25.8379512408716" lon="-80.48340782775345"><ele>5.0</ele><time>2026-04-19T11:48:47Z</time></trkpt><trkpt lat="25.837835844959404" lon="-80.48340411401783"><ele>5.0</ele><time>2026-04-19T11:48:48Z</time></trkpt><trkpt lat="25.837721326944425" lon="-80.48339845717767"><ele>5.0</ele><time>2026-04-19T11:48:49Z</time></trkpt><trkpt lat="25.837605591045484" lon="-80.48339476363196"><ele>5.0</ele><time>2026-04-19T11:48:50Z</time></trkpt><trkpt lat="25.837489467613914" lon="-80.48338928743607"><ele>5.0</ele><time>2026-04-19T11:48:51Z</time></trkpt><trkpt lat="25.83737015976326" lon="-80.48338300601148"><ele>5.25</ele><time>2026-04-19T11:48:52Z</time></trkpt><trkpt lat="25.837252291916712" lon="-80.48338069658985"><ele>5.5</ele><time>2026-04-19T11:48:53Z</time></trkpt><trkpt lat="25.83713038892856" lon="-80.48337668139635"><ele>5.75</ele><time>2026-04-19T11:48:54Z</time></trkpt><trkpt lat="25.837010243724098" lon="-80.4833725925265"><ele>6.0</ele><time>2026-04-19T11:48:55Z</time></trkpt><trkpt lat="25.836890346340454" lon="-80.4833678183197"><ele>5.75</ele><time>2026-04-19T11:48:56Z</time></trkpt><trkpt lat="25.836772078314368" lon="-80.4833606226672"><ele>5.5</ele><time>2026-04-19T11:48:57Z</time></trkpt><trkpt lat="25.836656680410517" lon="-80.48335436668344"><ele>5.25</ele><time>2026-04-19T11:48:58Z</time></trkpt><trkpt lat="25.83654134970011" lon="-80.4833495297116"><ele>5.0</ele><time>2026-04-19T11:48:59Z</time></trkpt><trkpt lat="25.83642848683448" lon="-80.48334522519552"><ele>5.0</ele><time>2026-04-19T11:49:00Z</time></trkpt><trkpt lat="25.836316574885792" lon="-80.48334032958218"><ele>5.0</ele><time>2026-04-19T11:49:01Z</time></trkpt><trkpt lat="25.83620318085211" lon="-80.48333646431718"><ele>5.0</ele><time>2026-04-19T11:49:02Z</time></trkpt><trkpt lat="25.836089629002394" lon="-80.48333450606155"><ele>5.0</ele><time>2026-04-19T11:49:03Z</time></trkpt><trkpt lat="25.835975629602352" lon="-80.48333199725383"><ele>5.0</ele><time>2026-04-19T11:49:04Z</time></trkpt><trkpt lat="25.83585892872208" lon="-80.48332839435038"><ele>5.0</ele><time>2026-04-19T11:49:05Z</time></trkpt><trkpt lat="25.83574401419513" lon="-80.48332264071037"><ele>5.0</ele><time>2026-04-19T11:49:05.999Z</time></trkpt><trkpt lat="25.835628231439976" lon="-80.48331645659428"><ele>5.0</ele><time>2026-04-19T11:49:06.999Z</time></trkpt><trkpt lat="25.835511992919255" lon="-80.48331001442534"><ele>5.0</ele><time>2026-04-19T11:49:07.999Z</time></trkpt><trkpt lat="25.83539835555755" lon="-80.48330631630283"><ele>5.0</ele><time>2026-04-19T11:49:08.999Z</time></trkpt><trkpt lat="25.835283355987844" lon="-80.48329977024446"><ele>5.0</ele><time>2026-04-19T11:49:09.999Z</time></trkpt><trkpt lat="25.835170232906716" lon="-80.48329679653926"><ele>5.0</ele><time>2026-04-19T11:49:10.999Z</time></trkpt><trkpt lat="25.835058279908875" lon="-80.48329137009968"><ele>5.2</ele><time>2026-04-19T11:49:11.999Z</time></trkpt><trkpt lat="25.83494706837705" lon="-80.48328726251312"><ele>5.4</ele><time>2026-04-19T11:49:12.999Z</time></trkpt><trkpt lat="25.834837560049063" lon="-80.48328430639992"><ele>5.6</ele><time>2026-04-19T11:49:13.999Z</time></trkpt><trkpt lat="25.834730009674637" lon="-80.48327816097583"><ele>5.8</ele><time>2026-04-19T11:49:14.999Z</time></trkpt><trkpt lat="25.834622478546716" lon="-80.48327244091816"><ele>6.0</ele><time>2026-04-19T11:49:15.999Z</time></trkpt><trkpt lat="25.8345174417019" lon="-80.48327024406412"><ele>6.0</ele><time>2026-04-19T11:49:16.999Z</time></trkpt><trkpt lat="25.83441185719882" lon="-80.4832670323216"><ele>6.0</ele><time>2026-04-19T11:49:17.999Z</time></trkpt><trkpt lat="25.834306798456858" lon="-80.48326164700245"><ele>6.0</ele><time>2026-04-19T11:49:18.999Z</time></trkpt><trkpt lat="25.834200352477527" lon="-80.48326044844916"><ele>6.0</ele><time>2026-04-19T11:49:19.999Z</time></trkpt><trkpt lat="25.834092584450808" lon="-80.48325617119711"><ele>6.0</ele><time>2026-04-19T11:49:20.999Z</time></trkpt><trkpt lat="25.833985534726434" lon="-80.48325031099492"><ele>6.0</ele><time>2026-04-19T11:49:21.999Z</time></trkpt><trkpt lat="25.833877852019505" lon="-80.48324711474837"><ele>6.0</ele><time>2026-04-19T11:49:22.999Z</time></trkpt><trkpt lat="25.833769909432036" lon="-80.48324157168278"><ele>6.0</ele><time>2026-04-19T11:49:23.999Z</time></trkpt><trkpt lat="25.833660469397994" lon="-80.48323756796253"><ele>6.0</ele><time>2026-04-19T11:49:24.999Z</time></trkpt><trkpt lat="25.833553834567155" lon="-80.4832329596709"><ele>6.0</ele><time>2026-04-19T11:49:25.999Z</time></trkpt><trkpt lat="25.833444979667338" lon="-80.48322888749681"><ele>6.199999999999999</ele><time>2026-04-19T11:49:26.999Z</time></trkpt><trkpt lat="25.833337869627712" lon="-80.48322397191707"><ele>6.3999999999999995</ele><time>2026-04-19T11:49:27.999Z</time></trkpt><trkpt lat="25.833230791091996" lon="-80.48321924587195"><ele>6.6</ele><time>2026-04-19T11:49:28.999Z</time></trkpt><trkpt lat="25.833123042022425" lon="-80.48321493973276"><ele>6.8</ele><time>2026-04-19T11:49:29.999Z</time></trkpt><trkpt lat="25.83301526041466" lon="-80.48320831362837"><ele>7.0</ele><time>2026-04-19T11:49:31Z</time></trkpt><trkpt lat="25.832907901116158" lon="-80.48320666209797"><ele>7.0</ele><time>2026-04-19T11:49:32Z</time></trkpt><trkpt lat="25.832799602609146" lon="-80.48320216622605"><ele>6.999999999999999</ele><time>2026-04-19T11:49:33Z</time></trkpt><trkpt lat="25.832691242530185" lon="-80.48319694657556"><ele>6.999999999999999</ele><time>2026-04-19T11:49:34Z</time></trkpt><trkpt lat="25.83258511878262" lon="-80.48319067365429"><ele>7.0</ele><time>2026-04-19T11:49:35Z</time></trkpt><trkpt lat="25.832477410369297" lon="-80.4831864330464"><ele>7.0</ele><time>2026-04-19T11:49:36Z</time></trkpt><trkpt lat="25.832368542613622" lon="-80.48318143869265"><ele>6.8</ele><time>2026-04-19T11:49:37Z</time></trkpt><trkpt lat="25.832258612157954" lon="-80.48317398565224"><ele>6.6</ele><time>2026-04-19T11:49:38Z</time></trkpt><trkpt lat="25.83215113528839" lon="-80.48316685826549"><ele>6.3999999999999995</ele><time>2026-04-19T11:49:39Z</time></trkpt><trkpt lat="25.83204090924073" lon="-80.48316731418932"><ele>6.199999999999999</ele><time>2026-04-19T11:49:40Z</time></trkpt><trkpt lat="25.83192929918599" lon="-80.48316921955958"><ele>6.0</ele><time>2026-04-19T11:49:41Z</time></trkpt><trkpt lat="25.83181631881743" lon="-80.48316415625717"><ele>6.0</ele><time>2026-04-19T11:49:42Z</time></trkpt><trkpt lat="25.83170282027387" lon="-80.48315609948119"><ele>6.0</ele><time>2026-04-19T11:49:43Z</time></trkpt><trkpt lat="25.831588404302035" lon="-80.48314817857906"><ele>6.0</ele><time>2026-04-19T11:49:44Z</time></trkpt><trkpt lat="25.831473991318447" lon="-80.48314437867829"><ele>6.0</ele><time>2026-04-19T11:49:45Z</time></trkpt><trkpt lat="25.831359100614282" lon="-80.48314048939365"><ele>6.0</ele><time>2026-04-19T11:49:46Z</time></trkpt><trkpt lat="25.831244106592496" lon="-80.48313649712685"><ele>6.0</ele><time>2026-04-19T11:49:47Z</time></trkpt><trkpt lat="25.831130919830475" lon="-80.48313262364576"><ele>6.0</ele><time>2026-04-19T11:49:48Z</time></trkpt><trkpt lat="25.831017130466645" lon="-80.48312774769987"><ele>6.0</ele><time>2026-04-19T11:49:49Z</time></trkpt><trkpt lat="25.830902915910446" lon="-80.48312305253712"><ele>5.75</ele><time>2026-04-19T11:49:50Z</time></trkpt><trkpt lat="25.83078556542047" lon="-80.48311882587241"><ele>5.5</ele><time>2026-04-19T11:49:51Z</time></trkpt><trkpt lat="25.830665097086367" lon="-80.48311729463688"><ele>5.25</ele><time>2026-04-19T11:49:52Z</time></trkpt><trkpt lat="25.8305425027817" lon="-80.48311604824535"><ele>5.0</ele><time>2026-04-19T11:49:53Z</time></trkpt><trkpt lat="25.830423959852986" lon="-80.48311271390484"><ele>5.0</ele><time>2026-04-19T11:49:54Z</time></trkpt><trkpt lat="25.830304831328593" lon="-80.48310638060836"><ele>5.0</ele><time>2026-04-19T11:49:55Z</time></trkpt><trkpt lat="25.83018684769182" lon="-80.48310079469728"><ele>5.0</ele><time>2026-04-19T11:49:56Z</time></trkpt><trkpt lat="25.830071015560247" lon="-80.48309361916581"><ele>5.0</ele><time>2026-04-19T11:49:57Z</time></trkpt><trkpt lat="25.829957393336628" lon="-80.48308912496105"><ele>5.0</ele><time>2026-04-19T11:49:58Z</time></trkpt><trkpt lat="25.82984600896671" lon="-80.48308396703374"><ele>5.0</ele><time>2026-04-19T11:49:59Z</time></trkpt><trkpt lat="25.82973976853395" lon="-80.4830788150209"><ele>5.0</ele><time>2026-04-19T11:50:00Z</time></trkpt><trkpt lat="25.829633773805924" lon="-80.48307572472915"><ele>5.0</ele><time>2026-04-19T11:50:01Z</time></trkpt><trkpt lat="25.82953098877707" lon="-80.48307350729763"><ele>5.0</ele><time>2026-04-19T11:50:02Z</time></trkpt><trkpt lat="25.829429981274323" lon="-80.48306843114287"><ele>5.0</ele><time>2026-04-19T11:50:03Z</time></trkpt><trkpt lat="25.829328105889733" lon="-80.48306401150187"><ele>5.0</ele><time>2026-04-19T11:50:04Z</time></trkpt><trkpt lat="25.829224268924097" lon="-80.48306259795368"><ele>5.0</ele><time>2026-04-19T11:50:05Z</time></trkpt><trkpt lat="25.829120553370164" lon="-80.48305860706961"><ele>5.0</ele><time>2026-04-19T11:50:06Z</time></trkpt><trkpt lat="25.82901833190444" lon="-80.48305464818232"><ele>5.0</ele><time>2026-04-19T11:50:07Z</time></trkpt><trkpt lat="25.828913982098815" lon="-80.48305005860445"><ele>5.0</ele><time>2026-04-19T11:50:08Z</time></trkpt><trkpt lat="25.828811533628237" lon="-80.48304701133834"><ele>5.0</ele><time>2026-04-19T11:50:09Z</time></trkpt><trkpt lat="25.82870884721456" lon="-80.48304259863617"><ele>5.0</ele><time>2026-04-19T11:50:10Z</time></trkpt><trkpt lat="25.82860599538974" lon="-80.48303676309332"><ele>5.0</ele><time>2026-04-19T11:50:11Z</time></trkpt><trkpt lat="25.828503454189708" lon="-80.48303419574549"><ele>5.0</ele><time>2026-04-19T11:50:12Z</time></trkpt><trkpt lat="25.828401833758193" lon="-80.4830318390559"><ele>5.4</ele><time>2026-04-19T11:50:13Z</time></trkpt><trkpt lat="25.828299137753145" lon="-80.48302783989718"><ele>5.8</ele><time>2026-04-19T11:50:14Z</time></trkpt><trkpt lat="25.828195432546096" lon="-80.4830238185304"><ele>6.199999999999999</ele><time>2026-04-19T11:50:15Z</time></trkpt><trkpt lat="25.828091106983766" lon="-80.48301961870399"><ele>6.6</ele><time>2026-04-19T11:50:16Z</time></trkpt><trkpt lat="25.827986721687154" lon="-80.48301434532456"><ele>7.0</ele><time>2026-04-19T11:50:17Z</time></trkpt><trkpt lat="25.827883048396554" lon="-80.48301168053169"><ele>7.0</ele><time>2026-04-19T11:50:18Z</time></trkpt><trkpt lat="25.82777763947769" lon="-80.48300783395555"><ele>6.999999999999999</ele><time>2026-04-19T11:50:19Z</time></trkpt><trkpt lat="25.827671849534756" lon="-80.48300405139705"><ele>6.999999999999999</ele><time>2026-04-19T11:50:20Z</time></trkpt><trkpt lat="25.82756617337534" lon="-80.48299801801737"><ele>7.0</ele><time>2026-04-19T11:50:21Z</time></trkpt><trkpt lat="25.827459155133766" lon="-80.48299195239913"><ele>7.0</ele><time>2026-04-19T11:50:22Z</time></trkpt><trkpt lat="25.82735326640279" lon="-80.48298804005367"><ele>7.0</ele><time>2026-04-19T11:50:23Z</time></trkpt><trkpt lat="25.82724822933624" lon="-80.48298418063777"><ele>6.999999999999999</ele><time>2026-04-19T11:50:24Z</time></trkpt><trkpt lat="25.827142374573125" lon="-80.48297851194486"><ele>6.999999999999999</ele><time>2026-04-19T11:50:25Z</time></trkpt><trkpt lat="25.827037474555755" lon="-80.48297235082637"><ele>7.0</ele><time>2026-04-19T11:50:26Z</time></trkpt><trkpt lat="25.826934184056256" lon="-80.48296818547121"><ele>7.0</ele><time>2026-04-19T11:50:27Z</time></trkpt><trkpt lat="25.82683247620569" lon="-80.48296417609812"><ele>7.0</ele><time>2026-04-19T11:50:28Z</time></trkpt><trkpt lat="25.82673120922398" lon="-80.48296203968133"><ele>6.999999999999999</ele><time>2026-04-19T11:50:29Z</time></trkpt><trkpt lat="25.82663084257936" lon="-80.48295990275756"><ele>6.999999999999999</ele><time>2026-04-19T11:50:30Z</time></trkpt><trkpt lat="25.82653000594249" lon="-80.48295712030907"><ele>7.0</ele><time>2026-04-19T11:50:31Z</time></trkpt><trkpt lat="25.826430344329992" lon="-80.4829508307213"><ele>7.0</ele><time>2026-04-19T11:50:32Z</time></trkpt><trkpt lat="25.826331659379996" lon="-80.48294568718987"><ele>7.0</ele><time>2026-04-19T11:50:33Z</time></trkpt><trkpt lat="25.826232205709054" lon="-80.4829412950337"><ele>6.999999999999999</ele><time>2026-04-19T11:50:34Z</time></trkpt><trkpt lat="25.826133098057817" lon="-80.48293685247417"><ele>6.999999999999999</ele><time>2026-04-19T11:50:35Z</time></trkpt><trkpt lat="25.826036511096095" lon="-80.48293582051076"><ele>7.0</ele><time>2026-04-19T11:50:36Z</time></trkpt><trkpt lat="25.82593890471111" lon="-80.48293060784427"><ele>7.0</ele><time>2026-04-19T11:50:37Z</time></trkpt><trkpt lat="25.825840627076467" lon="-80.48292588154446"><ele>7.0</ele><time>2026-04-19T11:50:38Z</time></trkpt><trkpt lat="25.825741815708497" lon="-80.48292165208917"><ele>6.999999999999999</ele><time>2026-04-19T11:50:39Z</time></trkpt><trkpt lat="25.825642142492292" lon="-80.48291808217304"><ele>6.999999999999999</ele><time>2026-04-19T11:50:40Z</time></trkpt><trkpt lat="25.825542637599533" lon="-80.48291561506505"><ele>7.0</ele><time>2026-04-19T11:50:41Z</time></trkpt><trkpt lat="25.825443055473304" lon="-80.48291128565451"><ele>7.0</ele><time>2026-04-19T11:50:42Z</time></trkpt><trkpt lat="25.82534572096837" lon="-80.48290642795853"><ele>7.000000000000001</ele><time>2026-04-19T11:50:43Z</time></trkpt><trkpt lat="25.825269041130554" lon="-80.48290247140882"><ele>7.0</ele><time>2026-04-19T11:50:44Z</time></trkpt><trkpt lat="25.82518847778912" lon="-80.48289476212967"><ele>7.0</ele><time>2026-04-19T11:50:45Z</time></trkpt><trkpt lat="25.82510367963117" lon="-80.4828913115612"><ele>7.0</ele><time>2026-04-19T11:50:46Z</time></trkpt><trkpt lat="25.82501573332893" lon="-80.48289109108457"><ele>7.000000000000001</ele><time>2026-04-19T11:50:47Z</time></trkpt><trkpt lat="25.824922670357576" lon="-80.48289142764108"><ele>7.0</ele><time>2026-04-19T11:50:48Z</time></trkpt><trkpt lat="25.82483188638878" lon="-80.48289221601466"><ele>7.3999999999999995</ele><time>2026-04-19T11:50:49Z</time></trkpt><trkpt lat="25.824735802943014" lon="-80.48288743407134"><ele>7.799999999999999</ele><time>2026-04-19T11:50:50Z</time></trkpt><trkpt lat="25.824634882588093" lon="-80.48288178772403"><ele>8.2</ele><time>2026-04-19T11:50:51Z</time></trkpt><trkpt lat="25.82453105314013" lon="-80.48287668793701"><ele>8.6</ele><time>2026-04-19T11:50:52Z</time></trkpt><trkpt lat="25.824424422185714" lon="-80.48287164206536"><ele>9.0</ele><time>2026-04-19T11:50:53Z</time></trkpt><trkpt lat="25.824320747814607" lon="-80.48286547410979"><ele>8.8</ele><time>2026-04-19T11:50:54Z</time></trkpt><trkpt lat="25.824217571113984" lon="-80.48286205061902"><ele>8.600000000000001</ele><time>2026-04-19T11:50:55Z</time></trkpt><trkpt lat="25.82411124750509" lon="-80.48285739794605"><ele>8.4</ele><time>2026-04-19T11:50:56Z</time></trkpt><trkpt lat="25.82400506531884" lon="-80.48285348604988"><ele>8.200000000000001</ele><time>2026-04-19T11:50:57Z</time></trkpt><trkpt lat="25.82389799591809" lon="-80.48284981835529"><ele>8.0</ele><time>2026-04-19T11:50:58Z</time></trkpt><trkpt lat="25.823790983997963" lon="-80.48284588258312"><ele>8.0</ele><time>2026-04-19T11:50:59Z</time></trkpt><trkpt lat="25.82368364445056" lon="-80.48284148369919"><ele>8.0</ele><time>2026-04-19T11:51:00Z</time></trkpt><trkpt lat="25.82357702583149" lon="-80.48283618406433"><ele>8.0</ele><time>2026-04-19T11:51:01Z</time></trkpt><trkpt lat="25.823472027866654" lon="-80.48283081027503"><ele>8.0</ele><time>2026-04-19T11:51:02Z</time></trkpt><trkpt lat="25.823368824025398" lon="-80.48282746699354"><ele>8.0</ele><time>2026-04-19T11:51:03Z</time></trkpt><trkpt lat="25.823266611662888" lon="-80.48282491420349"><ele>7.800000000000001</ele><time>2026-04-19T11:51:04Z</time></trkpt><trkpt lat="25.82316816537699" lon="-80.48282208241926"><ele>7.6000000000000005</ele><time>2026-04-19T11:51:05Z</time></trkpt><trkpt lat="25.823071104190976" lon="-80.48281832764313"><ele>7.3999999999999995</ele><time>2026-04-19T11:51:06Z</time></trkpt><trkpt lat="25.822973351803142" lon="-80.48281384910418"><ele>7.199999999999999</ele><time>2026-04-19T11:51:07Z</time></trkpt><trkpt lat="25.822875134358515" lon="-80.48280911731044"><ele>7.0</ele><time>2026-04-19T11:51:08Z</time></trkpt><trkpt lat="25.822775250996727" lon="-80.48280783988163"><ele>7.0</ele><time>2026-04-19T11:51:09Z</time></trkpt><trkpt lat="25.822675677788677" lon="-80.48280537849448"><ele>6.999999999999999</ele><time>2026-04-19T11:51:09.999Z</time></trkpt><trkpt lat="25.822577681942825" lon="-80.48280017405638"><ele>6.999999999999999</ele><time>2026-04-19T11:51:10.999Z</time></trkpt><trkpt lat="25.822480809986956" lon="-80.48279531239997"><ele>7.0</ele><time>2026-04-19T11:51:11.999Z</time></trkpt><trkpt lat="25.822382199277115" lon="-80.48279136470315"><ele>7.0</ele><time>2026-04-19T11:51:12.999Z</time></trkpt><trkpt lat="25.822282191835356" lon="-80.4827896819341"><ele>7.0</ele><time>2026-04-19T11:51:13.999Z</time></trkpt><trkpt lat="25.82218040284999" lon="-80.48278502306249"><ele>6.999999999999999</ele><time>2026-04-19T11:51:14.999Z</time></trkpt><trkpt lat="25.82207836244096" lon="-80.48278074982693"><ele>6.999999999999999</ele><time>2026-04-19T11:51:15.999Z</time></trkpt><trkpt lat="25.82197684542045" lon="-80.48277671084854"><ele>7.0</ele><time>2026-04-19T11:51:16.999Z</time></trkpt><trkpt lat="25.82187540521199" lon="-80.48277295436965"><ele>7.0</ele><time>2026-04-19T11:51:17.999Z</time></trkpt><trkpt lat="25.82177561764075" lon="-80.48277018160006"><ele>7.0</ele><time>2026-04-19T11:51:18.999Z</time></trkpt><trkpt lat="25.82167871150809" lon="-80.48276617696223"><ele>6.999999999999999</ele><time>2026-04-19T11:51:19.999Z</time></trkpt><trkpt lat="25.82158266604568" lon="-80.48276070907451"><ele>6.999999999999999</ele><time>2026-04-19T11:51:20.999Z</time></trkpt><trkpt lat="25.82148265287431" lon="-80.48275603101406"><ele>7.0</ele><time>2026-04-19T11:51:21.999Z</time></trkpt><trkpt lat="25.821380287315346" lon="-80.48275110204192"><ele>7.0</ele><time>2026-04-19T11:51:22.999Z</time></trkpt><trkpt lat="25.821278420382278" lon="-80.4827466735092"><ele>7.0</ele><time>2026-04-19T11:51:23.999Z</time></trkpt><trkpt lat="25.821177237286758" lon="-80.48274296245003"><ele>6.999999999999999</ele><time>2026-04-19T11:51:24.999Z</time></trkpt><trkpt lat="25.821075383052918" lon="-80.48274144343009"><ele>6.999999999999999</ele><time>2026-04-19T11:51:25.999Z</time></trkpt><trkpt lat="25.820974375440077" lon="-80.48273812722486"><ele>7.0</ele><time>2026-04-19T11:51:26.999Z</time></trkpt><trkpt lat="25.820872621806412" lon="-80.48273362165499"><ele>7.0</ele><time>2026-04-19T11:51:27.999Z</time></trkpt><trkpt lat="25.820772094797835" lon="-80.48272956462881"><ele>7.3999999999999995</ele><time>2026-04-19T11:51:28.999Z</time></trkpt><trkpt lat="25.82067018848686" lon="-80.48272622732165"><ele>7.799999999999999</ele><time>2026-04-19T11:51:29.999Z</time></trkpt><trkpt lat="25.820570177044782" lon="-80.48272201632709"><ele>8.2</ele><time>2026-04-19T11:51:30.999Z</time></trkpt><trkpt lat="25.820468970470195" lon="-80.48271561102405"><ele>8.6</ele><time>2026-04-19T11:51:31.999Z</time></trkpt><trkpt lat="25.820368199898073" lon="-80.48271191604393"><ele>9.0</ele><time>2026-04-19T11:51:32.999Z</time></trkpt><trkpt lat="25.82026625558284" lon="-80.48270645496862"><ele>9.0</ele><time>2026-04-19T11:51:33.999Z</time></trkpt><trkpt lat="25.82016537757138" lon="-80.48270492648035"><ele>9.0</ele><time>2026-04-19T11:51:34.999Z</time></trkpt><trkpt lat="25.820063470948227" lon="-80.48269988528614"><ele>9.0</ele><time>2026-04-19T11:51:35.999Z</time></trkpt><trkpt lat="25.819961548011314" lon="-80.48269539904967"><ele>9.0</ele><time>2026-04-19T11:51:37Z</time></trkpt><trkpt lat="25.81985954273623" lon="-80.48269058154432"><ele>9.0</ele><time>2026-04-19T11:51:38Z</time></trkpt><trkpt lat="25.81975583049741" lon="-80.48268611673107"><ele>9.0</ele><time>2026-04-19T11:51:39Z</time></trkpt><trkpt lat="25.819653196154274" lon="-80.48268255238804"><ele>9.0</ele><time>2026-04-19T11:51:40Z</time></trkpt><trkpt lat="25.81954952192377" lon="-80.48267814554421"><ele>9.0</ele><time>2026-04-19T11:51:41Z</time></trkpt><trkpt lat="25.81944685933382" lon="-80.48267355540564"><ele>9.0</ele><time>2026-04-19T11:51:42Z</time></trkpt><trkpt lat="25.819343359056074" lon="-80.4826677847164"><ele>9.0</ele><time>2026-04-19T11:51:43Z</time></trkpt><trkpt lat="25.819239572063957" lon="-80.48266356196011"><ele>9.0</ele><time>2026-04-19T11:51:44Z</time></trkpt><trkpt lat="25.819135095686136" lon="-80.48266158096273"><ele>9.0</ele><time>2026-04-19T11:51:45Z</time></trkpt><trkpt lat="25.81903079940329" lon="-80.48265783585033"><ele>9.0</ele><time>2026-04-19T11:51:46Z</time></trkpt><trkpt lat="25.818927167920616" lon="-80.48265258176167"><ele>9.0</ele><time>2026-04-19T11:51:47Z</time></trkpt><trkpt lat="25.818826264803292" lon="-80.48264911299142"><ele>9.0</ele><time>2026-04-19T11:51:48Z</time></trkpt><trkpt lat="25.818724850616594" lon="-80.48264580489607"><ele>9.0</ele><time>2026-04-19T11:51:49Z</time></trkpt><trkpt lat="25.818624838607956" lon="-80.48264108765318"><ele>9.0</ele><time>2026-04-19T11:51:50Z</time></trkpt><trkpt lat="25.818525471988764" lon="-80.48263601227463"><ele>9.0</ele><time>2026-04-19T11:51:51Z</time></trkpt><trkpt lat="25.818426699283943" lon="-80.4826323016371"><ele>9.0</ele><time>2026-04-19T11:51:52Z</time></trkpt><trkpt lat="25.818329364415593" lon="-80.48262789650909"><ele>9.0</ele><time>2026-04-19T11:51:53Z</time></trkpt><trkpt lat="25.81823160706282" lon="-80.48262343574517"><ele>8.4</ele><time>2026-04-19T11:51:54Z</time></trkpt><trkpt lat="25.81813844877265" lon="-80.48262096952003"><ele>7.800000000000001</ele><time>2026-04-19T11:51:55Z</time></trkpt><trkpt lat="25.818046803292926" lon="-80.48261953451764"><ele>7.199999999999999</ele><time>2026-04-19T11:51:56Z</time></trkpt><trkpt lat="25.817952047413243" lon="-80.48261735329284"><ele>6.6</ele><time>2026-04-19T11:51:57Z</time></trkpt><trkpt lat="25.81785730308488" lon="-80.48261151345076"><ele>6.0</ele><time>2026-04-19T11:51:58Z</time></trkpt><trkpt lat="25.817760238847395" lon="-80.48260684464148"><ele>6.0</ele><time>2026-04-19T11:51:59Z</time></trkpt><trkpt lat="25.817662683584878" lon="-80.48260165478445"><ele>6.0</ele><time>2026-04-19T11:52:00Z</time></trkpt><trkpt lat="25.81756596495307" lon="-80.4825995805061"><ele>6.0</ele><time>2026-04-19T11:52:01Z</time></trkpt><trkpt lat="25.81746681938618" lon="-80.4825980710047"><ele>6.0</ele><time>2026-04-19T11:52:02Z</time></trkpt><trkpt lat="25.817365619956025" lon="-80.4825943238247"><ele>6.0</ele><time>2026-04-19T11:52:03Z</time></trkpt><trkpt lat="25.8172654372276" lon="-80.48259065414787"><ele>6.4</ele><time>2026-04-19T11:52:04Z</time></trkpt><trkpt lat="25.817165419622274" lon="-80.48258446352952"><ele>6.8</ele><time>2026-04-19T11:52:05Z</time></trkpt><trkpt lat="25.81706701350069" lon="-80.48257871579588"><ele>7.200000000000001</ele><time>2026-04-19T11:52:06Z</time></trkpt><trkpt lat="25.81696805950867" lon="-80.48257499954164"><ele>7.6000000000000005</ele><time>2026-04-19T11:52:07Z</time></trkpt><trkpt lat="25.816875136399016" lon="-80.48256996683175"><ele>8.0</ele><time>2026-04-19T11:52:08Z</time></trkpt><trkpt lat="25.81678981698119" lon="-80.4825673064102"><ele>8.200000000000001</ele><time>2026-04-19T11:52:09Z</time></trkpt><trkpt lat="25.816700942389808" lon="-80.48256555182178"><ele>8.4</ele><time>2026-04-19T11:52:10Z</time></trkpt><trkpt lat="25.816606398077703" lon="-80.4825644008085"><ele>8.600000000000001</ele><time>2026-04-19T11:52:11Z</time></trkpt><trkpt lat="25.816512385605183" lon="-80.48256126549902"><ele>8.8</ele><time>2026-04-19T11:52:12Z</time></trkpt><trkpt lat="25.816415967259225" lon="-80.48255589529327"><ele>9.0</ele><time>2026-04-19T11:52:13Z</time></trkpt><trkpt lat="25.8163189273045" lon="-80.48255263105523"><ele>9.0</ele><time>2026-04-19T11:52:14Z</time></trkpt><trkpt lat="25.81621958307539" lon="-80.48254977095505"><ele>9.0</ele><time>2026-04-19T11:52:15Z</time></trkpt><trkpt lat="25.816119171147204" lon="-80.48254612213402"><ele>9.0</ele><time>2026-04-19T11:52:16Z</time></trkpt><trkpt lat="25.81601871686608" lon="-80.48254355760906"><ele>9.0</ele><time>2026-04-19T11:52:17Z</time></trkpt><trkpt lat="25.815915676748183" lon="-80.48253839242396"><ele>9.0</ele><time>2026-04-19T11:52:18Z</time></trkpt><trkpt lat="25.81581035716407" lon="-80.48253387808623"><ele>8.4</ele><time>2026-04-19T11:52:19Z</time></trkpt><trkpt lat="25.815702338803867" lon="-80.48253008946006"><ele>7.800000000000001</ele><time>2026-04-19T11:52:20Z</time></trkpt><trkpt lat="25.81559326833334" lon="-80.48252608685942"><ele>7.199999999999999</ele><time>2026-04-19T11:52:21Z</time></trkpt><trkpt lat="25.815483251351072" lon="-80.48252267346967"><ele>6.6</ele><time>2026-04-19T11:52:22Z</time></trkpt><trkpt lat="25.815373675673463" lon="-80.48251775514998"><ele>6.0</ele><time>2026-04-19T11:52:23Z</time></trkpt><trkpt lat="25.815265754446873" lon="-80.48251334118149"><ele>6.0</ele><time>2026-04-19T11:52:24Z</time></trkpt><trkpt lat="25.815158845222427" lon="-80.48251010675531"><ele>6.0</ele><time>2026-04-19T11:52:25Z</time></trkpt><trkpt lat="25.81505240442419" lon="-80.48250643056343"><ele>6.0</ele><time>2026-04-19T11:52:26Z</time></trkpt><trkpt lat="25.8149470631755" lon="-80.4825004712589"><ele>6.0</ele><time>2026-04-19T11:52:27Z</time></trkpt><trkpt lat="25.814843191572514" lon="-80.48249720421954"><ele>6.0</ele><time>2026-04-19T11:52:28Z</time></trkpt><trkpt lat="25.8147375047831" lon="-80.4824929321894"><ele>6.4</ele><time>2026-04-19T11:52:29Z</time></trkpt><trkpt lat="25.81463155603294" lon="-80.48248932338748"><ele>6.8</ele><time>2026-04-19T11:52:30Z</time></trkpt><trkpt lat="25.814526667665234" lon="-80.48248514220946"><ele>7.200000000000001</ele><time>2026-04-19T11:52:31Z</time></trkpt><trkpt lat="25.814421745011217" lon="-80.48248722098485"><ele>7.6000000000000005</ele><time>2026-04-19T11:52:32Z</time></trkpt><trkpt lat="25.81431649578924" lon="-80.48247911201256"><ele>8.0</ele><time>2026-04-19T11:52:33Z</time></trkpt><trkpt lat="25.814210831665648" lon="-80.48247499886808"><ele>8.4</ele><time>2026-04-19T11:52:34Z</time></trkpt><trkpt lat="25.81410680790938" lon="-80.48247220593868"><ele>8.8</ele><time>2026-04-19T11:52:35Z</time></trkpt><trkpt lat="25.81400200590873" lon="-80.48246816230792"><ele>9.2</ele><time>2026-04-19T11:52:36Z</time></trkpt><trkpt lat="25.813899777756184" lon="-80.48246213528252"><ele>9.6</ele><time>2026-04-19T11:52:37Z</time></trkpt><trkpt lat="25.81379651705322" lon="-80.48245774703882"><ele>10.0</ele><time>2026-04-19T11:52:38Z</time></trkpt><trkpt lat="25.813692329140803" lon="-80.48245277273145"><ele>10.0</ele><time>2026-04-19T11:52:39Z</time></trkpt><trkpt lat="25.813588223621835" lon="-80.48244674182584"><ele>10.0</ele><time>2026-04-19T11:52:40Z</time></trkpt><trkpt lat="25.81348344237818" lon="-80.48244144930744"><ele>10.0</ele><time>2026-04-19T11:52:41Z</time></trkpt><trkpt lat="25.813380769080766" lon="-80.48244011335076"><ele>10.0</ele><time>2026-04-19T11:52:42Z</time></trkpt><trkpt lat="25.81327903199639" lon="-80.48243802423988"><ele>10.0</ele><time>2026-04-19T11:52:43Z</time></trkpt><trkpt lat="25.81317664046059" lon="-80.48243461132978"><ele>9.6</ele><time>2026-04-19T11:52:44Z</time></trkpt><trkpt lat="25.813070188009895" lon="-80.48242838220965"><ele>9.2</ele><time>2026-04-19T11:52:45Z</time></trkpt><trkpt lat="25.812964752660495" lon="-80.48242583139954"><ele>8.8</ele><time>2026-04-19T11:52:46Z</time></trkpt><trkpt lat="25.81285714967707" lon="-80.48242363041312"><ele>8.4</ele><time>2026-04-19T11:52:47Z</time></trkpt><trkpt lat="25.81274875348661" lon="-80.48241931564024"><ele>8.0</ele><time>2026-04-19T11:52:48Z</time></trkpt><trkpt lat="25.812639882711117" lon="-80.48241605735575"><ele>8.0</ele><time>2026-04-19T11:52:49Z</time></trkpt><trkpt lat="25.81253201172722" lon="-80.48241310030123"><ele>8.0</ele><time>2026-04-19T11:52:50Z</time></trkpt><trkpt lat="25.812424059647487" lon="-80.48241306296015"><ele>8.0</ele><time>2026-04-19T11:52:51Z</time></trkpt><trkpt lat="25.812317548718053" lon="-80.48241193847382"><ele>8.0</ele><time>2026-04-19T11:52:52Z</time></trkpt><trkpt lat="25.81220978890364" lon="-80.48241057467682"><ele>8.0</ele><time>2026-04-19T11:52:53Z</time></trkpt><trkpt lat="25.812103404417993" lon="-80.48240882018025"><ele>8.0</ele><time>2026-04-19T11:52:54Z</time></trkpt><trkpt lat="25.811997229295983" lon="-80.4824081814262"><ele>8.0</ele><time>2026-04-19T11:52:55Z</time></trkpt><trkpt lat="25.811891839019175" lon="-80.4824090016408"><ele>8.0</ele><time>2026-04-19T11:52:56Z</time></trkpt><trkpt lat="25.811787502996896" lon="-80.48240919307047"><ele>8.0</ele><time>2026-04-19T11:52:57Z</time></trkpt><trkpt lat="25.81168074994605" lon="-80.48240874306633"><ele>8.0</ele><time>2026-04-19T11:52:58Z</time></trkpt><trkpt lat="25.811573041419596" lon="-80.48240975556118"><ele>8.0</ele><time>2026-04-19T11:52:59Z</time></trkpt><trkpt lat="25.81146404551268" lon="-80.48240859929376"><ele>8.0</ele><time>2026-04-19T11:53:00Z</time></trkpt><trkpt lat="25.811355014301128" lon="-80.48241147084056"><ele>8.0</ele><time>2026-04-19T11:53:01Z</time></trkpt><trkpt lat="25.811245735259195" lon="-80.48241318327212"><ele>8.0</ele><time>2026-04-19T11:53:02Z</time></trkpt><trkpt lat="25.811136094127622" lon="-80.48241541530487"><ele>8.0</ele><time>2026-04-19T11:53:03Z</time></trkpt><trkpt lat="25.81102465970447" lon="-80.48241668002622"><ele>7.6000000000000005</ele><time>2026-04-19T11:53:04Z</time></trkpt><trkpt lat="25.810913716067184" lon="-80.48241787361208"><ele>7.200000000000001</ele><time>2026-04-19T11:53:05Z</time></trkpt><trkpt lat="25.810803049612197" lon="-80.48242295699751"><ele>6.8</ele><time>2026-04-19T11:53:06Z</time></trkpt><trkpt lat="25.810693486170187" lon="-80.48242841861651"><ele>6.4</ele><time>2026-04-19T11:53:07Z</time></trkpt><trkpt lat="25.81058486316067" lon="-80.48243538950713"><ele>6.0</ele><time>2026-04-19T11:53:08Z</time></trkpt><trkpt lat="25.81047740569531" lon="-80.48244099451838"><ele>6.0</ele><time>2026-04-19T11:53:09Z</time></trkpt><trkpt lat="25.810372246435055" lon="-80.48244696975527"><ele>6.0</ele><time>2026-04-19T11:53:09.999Z</time></trkpt><trkpt lat="25.810266423972113" lon="-80.48245023031026"><ele>6.0</ele><time>2026-04-19T11:53:10.999Z</time></trkpt><trkpt lat="25.810164154111018" lon="-80.48245360072049"><ele>6.0</ele><time>2026-04-19T11:53:11.999Z</time></trkpt><trkpt lat="25.810062979150956" lon="-80.48245702984902"><ele>6.0</ele><time>2026-04-19T11:53:12.999Z</time></trkpt><trkpt lat="25.809961060063518" lon="-80.4824635031123"><ele>6.199999999999999</ele><time>2026-04-19T11:53:13.999Z</time></trkpt><trkpt lat="25.809854988539247" lon="-80.48246648868518"><ele>6.3999999999999995</ele><time>2026-04-19T11:53:14.999Z</time></trkpt><trkpt lat="25.80975049427759" lon="-80.48246759121261"><ele>6.6</ele><time>2026-04-19T11:53:15.999Z</time></trkpt><trkpt lat="25.809645368543883" lon="-80.48247254659674"><ele>6.8</ele><time>2026-04-19T11:53:16.999Z</time></trkpt><trkpt lat="25.809541837933274" lon="-80.48247619323996"><ele>7.0</ele><time>2026-04-19T11:53:17.999Z</time></trkpt><trkpt lat="25.809436829152993" lon="-80.48248266604325"><ele>7.0</ele><time>2026-04-19T11:53:18.999Z</time></trkpt><trkpt lat="25.809330186016904" lon="-80.48248915411327"><ele>6.999999999999999</ele><time>2026-04-19T11:53:19.999Z</time></trkpt><trkpt lat="25.809223157551617" lon="-80.48249128789982"><ele>6.999999999999999</ele><time>2026-04-19T11:53:20.999Z</time></trkpt><trkpt lat="25.809117383042835" lon="-80.48249222605547"><ele>7.0</ele><time>2026-04-19T11:53:21.999Z</time></trkpt><trkpt lat="25.80900969971681" lon="-80.48249581016515"><ele>7.0</ele><time>2026-04-19T11:53:22.999Z</time></trkpt><trkpt lat="25.808903711115985" lon="-80.48250099613176"><ele>7.3999999999999995</ele><time>2026-04-19T11:53:23.999Z</time></trkpt><trkpt lat="25.808797647615993" lon="-80.48250758478507"><ele>7.799999999999999</ele><time>2026-04-19T11:53:24.999Z</time></trkpt><trkpt lat="25.808692732132055" lon="-80.48251231584626"><ele>8.2</ele><time>2026-04-19T11:53:25.999Z</time></trkpt><trkpt lat="25.808588554554483" lon="-80.48251756396282"><ele>8.6</ele><time>2026-04-19T11:53:26.999Z</time></trkpt><trkpt lat="25.808484533226135" lon="-80.48252355217465"><ele>9.0</ele><time>2026-04-19T11:53:27.999Z</time></trkpt><trkpt lat="25.808381514374656" lon="-80.4825270101905"><ele>9.0</ele><time>2026-04-19T11:53:28.999Z</time></trkpt><trkpt lat="25.80827958253833" lon="-80.48253109164482"><ele>9.0</ele><time>2026-04-19T11:53:29.999Z</time></trkpt><trkpt lat="25.808179116328006" lon="-80.48253614476018"><ele>9.0</ele><time>2026-04-19T11:53:30.999Z</time></trkpt><trkpt lat="25.808078755268138" lon="-80.48253889217987"><ele>9.0</ele><time>2026-04-19T11:53:31.999Z</time></trkpt><trkpt lat="25.807981125254848" lon="-80.48254049287765"><ele>9.0</ele><time>2026-04-19T11:53:32.999Z</time></trkpt><trkpt lat="25.80787972556329" lon="-80.48254446827443"><ele>9.0</ele><time>2026-04-19T11:53:33.999Z</time></trkpt><trkpt lat="25.807778203490436" lon="-80.4825504219875"><ele>9.0</ele><time>2026-04-19T11:53:34.999Z</time></trkpt><trkpt lat="25.807677299800066" lon="-80.48255354316406"><ele>9.0</ele><time>2026-04-19T11:53:35.999Z</time></trkpt><trkpt lat="25.807576786885672" lon="-80.48255615814529"><ele>9.0</ele><time>2026-04-19T11:53:36.999Z</time></trkpt><trkpt lat="25.8074780571075" lon="-80.48256055621789"><ele>9.0</ele><time>2026-04-19T11:53:37.999Z</time></trkpt><trkpt lat="25.80737939256456" lon="-80.48256460064862"><ele>8.8</ele><time>2026-04-19T11:53:38.999Z</time></trkpt><trkpt lat="25.807280461389272" lon="-80.4825705765791"><ele>8.600000000000001</ele><time>2026-04-19T11:53:39.999Z</time></trkpt><trkpt lat="25.807178600315666" lon="-80.48257250994524"><ele>8.4</ele><time>2026-04-19T11:53:40.999Z</time></trkpt><trkpt lat="25.80707650095822" lon="-80.48257901847218"><ele>8.200000000000001</ele><time>2026-04-19T11:53:42Z</time></trkpt><trkpt lat="25.806973291630737" lon="-80.48258399687016"><ele>8.0</ele><time>2026-04-19T11:53:43Z</time></trkpt><trkpt lat="25.80686864933911" lon="-80.48258901438739"><ele>8.200000000000001</ele><time>2026-04-19T11:53:44Z</time></trkpt><trkpt lat="25.806764857179925" lon="-80.48259040422657"><ele>8.4</ele><time>2026-04-19T11:53:45Z</time></trkpt><trkpt lat="25.806660137534358" lon="-80.48259412905256"><ele>8.600000000000001</ele><time>2026-04-19T11:53:46Z</time></trkpt><trkpt lat="25.806555423322248" lon="-80.48259750210046"><ele>8.8</ele><time>2026-04-19T11:53:47Z</time></trkpt><trkpt lat="25.80645011791021" lon="-80.48260178892471"><ele>9.0</ele><time>2026-04-19T11:53:48Z</time></trkpt><trkpt lat="25.806345414566483" lon="-80.48260477694078"><ele>9.0</ele><time>2026-04-19T11:53:49Z</time></trkpt><trkpt lat="25.806241466565147" lon="-80.48260905986582"><ele>9.0</ele><time>2026-04-19T11:53:50Z</time></trkpt><trkpt lat="25.806137302986787" lon="-80.48261375080844"><ele>9.0</ele><time>2026-04-19T11:53:51Z</time></trkpt><trkpt lat="25.806030799498707" lon="-80.48262017830493"><ele>9.0</ele><time>2026-04-19T11:53:52Z</time></trkpt><trkpt lat="25.80592505123467" lon="-80.48262788525133"><ele>9.0</ele><time>2026-04-19T11:53:53Z</time></trkpt><trkpt lat="25.80581609710038" lon="-80.48263338233104"><ele>8.8</ele><time>2026-04-19T11:53:54Z</time></trkpt><trkpt lat="25.805705113110985" lon="-80.48263710531809"><ele>8.600000000000001</ele><time>2026-04-19T11:53:55Z</time></trkpt><trkpt lat="25.805591055835386" lon="-80.48264010390074"><ele>8.4</ele><time>2026-04-19T11:53:56Z</time></trkpt><trkpt lat="25.805478324896495" lon="-80.48264744027742"><ele>8.200000000000001</ele><time>2026-04-19T11:53:57Z</time></trkpt><trkpt lat="25.80536779429973" lon="-80.48264734199134"><ele>8.0</ele><time>2026-04-19T11:53:58Z</time></trkpt><trkpt lat="25.80525766622083" lon="-80.48264935936285"><ele>7.4</ele><time>2026-04-19T11:53:59Z</time></trkpt><trkpt lat="25.805149821698805" lon="-80.48265301830516"><ele>6.800000000000001</ele><time>2026-04-19T11:54:00Z</time></trkpt><trkpt lat="25.8050430199053" lon="-80.48265775585679"><ele>6.2</ele><time>2026-04-19T11:54:01Z</time></trkpt><trkpt lat="25.80493707589766" lon="-80.48266229444766"><ele>5.6</ele><time>2026-04-19T11:54:02Z</time></trkpt><trkpt lat="25.80483135456218" lon="-80.4826668085028"><ele>5.0</ele><time>2026-04-19T11:54:03Z</time></trkpt><trkpt lat="25.804726653285694" lon="-80.48267091155931"><ele>5.0</ele><time>2026-04-19T11:54:04Z</time></trkpt><trkpt lat="25.804622128560226" lon="-80.48267360389912"><ele>5.0</ele><time>2026-04-19T11:54:05Z</time></trkpt><trkpt lat="25.80451958110585" lon="-80.48267846964393"><ele>5.0</ele><time>2026-04-19T11:54:06Z</time></trkpt><trkpt lat="25.804417099821116" lon="-80.48268318284155"><ele>5.0</ele><time>2026-04-19T11:54:07Z</time></trkpt><trkpt lat="25.804315479915562" lon="-80.48268704559466"><ele>5.0</ele><time>2026-04-19T11:54:08Z</time></trkpt><trkpt lat="25.80421604838741" lon="-80.48269285894212"><ele>5.0</ele><time>2026-04-19T11:54:09Z</time></trkpt><trkpt lat="25.804115393478778" lon="-80.48269616306263"><ele>5.0</ele><time>2026-04-19T11:54:10Z</time></trkpt><trkpt lat="25.80401435971058" lon="-80.48269910405462"><ele>5.0</ele><time>2026-04-19T11:54:11Z</time></trkpt><trkpt lat="25.803911813766454" lon="-80.48270287056046"><ele>5.0</ele><time>2026-04-19T11:54:12Z</time></trkpt><trkpt lat="25.803811200079288" lon="-80.48270798512084"><ele>5.0</ele><time>2026-04-19T11:54:13Z</time></trkpt><trkpt lat="25.803711856624325" lon="-80.4827120814069"><ele>5.0</ele><time>2026-04-19T11:54:14Z</time></trkpt><trkpt lat="25.803611692847955" lon="-80.48271565098305"><ele>5.0</ele><time>2026-04-19T11:54:15Z</time></trkpt><trkpt lat="25.80351105334891" lon="-80.48272017108653"><ele>5.0</ele><time>2026-04-19T11:54:16Z</time></trkpt><trkpt lat="25.803410350838547" lon="-80.48272344390377"><ele>5.0</ele><time>2026-04-19T11:54:17Z</time></trkpt><trkpt lat="25.80331021194799" lon="-80.48272530956254"><ele>5.0</ele><time>2026-04-19T11:54:18Z</time></trkpt><trkpt lat="25.803211708564106" lon="-80.48272788197067"><ele>5.0</ele><time>2026-04-19T11:54:19Z</time></trkpt><trkpt lat="25.8031135549205" lon="-80.48272928804184"><ele>5.0</ele><time>2026-04-19T11:54:20Z</time></trkpt><trkpt lat="25.80301679507179" lon="-80.48273169741101"><ele>5.0</ele><time>2026-04-19T11:54:21Z</time></trkpt><trkpt lat="25.80292060069562" lon="-80.48273671190047"><ele>5.0</ele><time>2026-04-19T11:54:22Z</time></trkpt><trkpt lat="25.80282526295444" lon="-80.48274038960746"><ele>5.0</ele><time>2026-04-19T11:54:23Z</time></trkpt><trkpt lat="25.802730448393355" lon="-80.48274341374318"><ele>4.8</ele><time>2026-04-19T11:54:24Z</time></trkpt><trkpt lat="25.80263450933766" lon="-80.48274630424321"><ele>4.6</ele><time>2026-04-19T11:54:25Z</time></trkpt><trkpt lat="25.80253672869996" lon="-80.48275318159037"><ele>4.4</ele><time>2026-04-19T11:54:26Z</time></trkpt><trkpt lat="25.80243909374928" lon="-80.48275905395991"><ele>4.2</ele><time>2026-04-19T11:54:27Z</time></trkpt><trkpt lat="25.802341878505505" lon="-80.4827629095319"><ele>4.0</ele><time>2026-04-19T11:54:28Z</time></trkpt><trkpt lat="25.80224398507564" lon="-80.48276643945995"><ele>4.0</ele><time>2026-04-19T11:54:29Z</time></trkpt><trkpt lat="25.80214627810412" lon="-80.4827756693094"><ele>4.0</ele><time>2026-04-19T11:54:30Z</time></trkpt><trkpt lat="25.802047866346996" lon="-80.48278312481557"><ele>4.0</ele><time>2026-04-19T11:54:31Z</time></trkpt><trkpt lat="25.801949173042825" lon="-80.48279027683013"><ele>4.0</ele><time>2026-04-19T11:54:32Z</time></trkpt><trkpt lat="25.801850835281524" lon="-80.48279954065761"><ele>4.0</ele><time>2026-04-19T11:54:33Z</time></trkpt><trkpt lat="25.801749892351648" lon="-80.48280739345753"><ele>4.4</ele><time>2026-04-19T11:54:34Z</time></trkpt><trkpt lat="25.801648124505483" lon="-80.48281630290558"><ele>4.800000000000001</ele><time>2026-04-19T11:54:35Z</time></trkpt><trkpt lat="25.801543640402564" lon="-80.48282365164998"><ele>5.199999999999999</ele><time>2026-04-19T11:54:36Z</time></trkpt><trkpt lat="25.801440063435585" lon="-80.48282553905945"><ele>5.6</ele><time>2026-04-19T11:54:37Z</time></trkpt><trkpt lat="25.801336923690947" lon="-80.48283243069417"><ele>6.0</ele><time>2026-04-19T11:54:38Z</time></trkpt><trkpt lat="25.801236675031983" lon="-80.48283993751318"><ele>6.0</ele><time>2026-04-19T11:54:39Z</time></trkpt><trkpt lat="25.80113580012171" lon="-80.48284815844468"><ele>6.0</ele><time>2026-04-19T11:54:40Z</time></trkpt><trkpt lat="25.80103062923952" lon="-80.482852374401"><ele>6.0</ele><time>2026-04-19T11:54:41Z</time></trkpt><trkpt lat="25.800923300926453" lon="-80.48285549910142"><ele>6.0</ele><time>2026-04-19T11:54:42Z</time></trkpt><trkpt lat="25.8008138052351" lon="-80.4828604593293"><ele>6.0</ele><time>2026-04-19T11:54:43Z</time></trkpt><trkpt lat="25.80070623021437" lon="-80.48286721260233"><ele>5.6</ele><time>2026-04-19T11:54:44Z</time></trkpt><trkpt lat="25.800600684482557" lon="-80.48287413998338"><ele>5.199999999999999</ele><time>2026-04-19T11:54:45Z</time></trkpt><trkpt lat="25.80049393966256" lon="-80.4828802643822"><ele>4.800000000000001</ele><time>2026-04-19T11:54:46Z</time></trkpt><trkpt lat="25.80038661025294" lon="-80.48288487531381"><ele>4.4</ele><time>2026-04-19T11:54:47Z</time></trkpt><trkpt lat="25.800278529398707" lon="-80.48288923841699"><ele>4.0</ele><time>2026-04-19T11:54:48Z</time></trkpt><trkpt lat="25.80016993675343" lon="-80.48289512433128"><ele>4.2</ele><time>2026-04-19T11:54:49Z</time></trkpt><trkpt lat="25.800060989422587" lon="-80.48290003637229"><ele>4.4</ele><time>2026-04-19T11:54:50Z</time></trkpt><trkpt lat="25.79995291025174" lon="-80.48290407945996"><ele>4.6</ele><time>2026-04-19T11:54:51Z</time></trkpt><trkpt lat="25.799844922784956" lon="-80.48290785752646"><ele>4.8</ele><time>2026-04-19T11:54:52Z</time></trkpt><trkpt lat="25.79973695929855" lon="-80.48291260395779"><ele>5.0</ele><time>2026-04-19T11:54:53Z</time></trkpt><trkpt lat="25.79962779224719" lon="-80.48291540872603"><ele>5.0</ele><time>2026-04-19T11:54:54Z</time></trkpt><trkpt lat="25.7995198764939" lon="-80.48292038748214"><ele>5.0</ele><time>2026-04-19T11:54:55Z</time></trkpt><trkpt lat="25.79941243795845" lon="-80.48292510927966"><ele>5.0</ele><time>2026-04-19T11:54:56Z</time></trkpt><trkpt lat="25.79930599233501" lon="-80.48292847406601"><ele>5.0</ele><time>2026-04-19T11:54:57Z</time></trkpt><trkpt lat="25.799196739918028" lon="-80.48293239481971"><ele>5.0</ele><time>2026-04-19T11:54:58Z</time></trkpt><trkpt lat="25.79908738104272" lon="-80.48293631253486"><ele>5.2</ele><time>2026-04-19T11:54:59Z</time></trkpt><trkpt lat="25.798977995304973" lon="-80.48293925785507"><ele>5.4</ele><time>2026-04-19T11:55:00Z</time></trkpt><trkpt lat="25.798871466969068" lon="-80.48294278616767"><ele>5.6</ele><time>2026-04-19T11:55:01Z</time></trkpt><trkpt lat="25.798765314558505" lon="-80.48294753053335"><ele>5.8</ele><time>2026-04-19T11:55:02Z</time></trkpt><trkpt lat="25.798661492812744" lon="-80.48295151651766"><ele>6.0</ele><time>2026-04-19T11:55:03Z</time></trkpt><trkpt lat="25.79855614967044" lon="-80.48295377624517"><ele>6.199999999999999</ele><time>2026-04-19T11:55:04Z</time></trkpt><trkpt lat="25.798450116147787" lon="-80.48295552267464"><ele>6.3999999999999995</ele><time>2026-04-19T11:55:05Z</time></trkpt><trkpt lat="25.798343048854758" lon="-80.48295584087333"><ele>6.6</ele><time>2026-04-19T11:55:06Z</time></trkpt><trkpt lat="25.798235629362974" lon="-80.4829559219949"><ele>6.8</ele><time>2026-04-19T11:55:07Z</time></trkpt><trkpt lat="25.798129710336543" lon="-80.4829600030166"><ele>7.0</ele><time>2026-04-19T11:55:08Z</time></trkpt><trkpt lat="25.798023235004404" lon="-80.48296168404168"><ele>7.0</ele><time>2026-04-19T11:55:09Z</time></trkpt><trkpt lat="25.79791697270525" lon="-80.48296046189317"><ele>6.999999999999999</ele><time>2026-04-19T11:55:10Z</time></trkpt><trkpt lat="25.797811005215983" lon="-80.4829616257693"><ele>6.999999999999999</ele><time>2026-04-19T11:55:10.999Z</time></trkpt><trkpt lat="25.797707383628467" lon="-80.48296038632742"><ele>7.0</ele><time>2026-04-19T11:55:11.999Z</time></trkpt><trkpt lat="25.797605178154217" lon="-80.48295616295404"><ele>7.0</ele><time>2026-04-19T11:55:12.999Z</time></trkpt><trkpt lat="25.797504012322527" lon="-80.48295063020163"><ele>7.0</ele><time>2026-04-19T11:55:13.999Z</time></trkpt><trkpt lat="25.797403731017507" lon="-80.48294764790693"><ele>6.999999999999999</ele><time>2026-04-19T11:55:14.999Z</time></trkpt><trkpt lat="25.7973074182188" lon="-80.4829443267195"><ele>6.999999999999999</ele><time>2026-04-19T11:55:15.999Z</time></trkpt><trkpt lat="25.797212309565833" lon="-80.4829400928108"><ele>7.0</ele><time>2026-04-19T11:55:16.999Z</time></trkpt><trkpt lat="25.797117189443473" lon="-80.48293647504175"><ele>7.0</ele><time>2026-04-19T11:55:17.999Z</time></trkpt><trkpt lat="25.797022702879776" lon="-80.48293372868473"><ele>7.199999999999999</ele><time>2026-04-19T11:55:18.999Z</time></trkpt><trkpt lat="25.79692865296543" lon="-80.482929853773"><ele>7.3999999999999995</ele><time>2026-04-19T11:55:19.999Z</time></trkpt><trkpt lat="25.79683659188649" lon="-80.4829221274128"><ele>7.6000000000000005</ele><time>2026-04-19T11:55:20.999Z</time></trkpt><trkpt lat="25.79674460070371" lon="-80.48291560199274"><ele>7.800000000000001</ele><time>2026-04-19T11:55:21.999Z</time></trkpt><trkpt lat="25.796652649555284" lon="-80.48290952977017"><ele>8.0</ele><time>2026-04-19T11:55:22.999Z</time></trkpt><trkpt lat="25.79655874795043" lon="-80.4829023451871"><ele>8.600000000000001</ele><time>2026-04-19T11:55:23.999Z</time></trkpt><trkpt lat="25.79646330914263" lon="-80.4828941999082"><ele>9.200000000000001</ele><time>2026-04-19T11:55:24.999Z</time></trkpt><trkpt lat="25.796364936096865" lon="-80.48288593934063"><ele>9.8</ele><time>2026-04-19T11:55:25.999Z</time></trkpt><trkpt lat="25.79626735668558" lon="-80.48287984936768"><ele>10.4</ele><time>2026-04-19T11:55:26.999Z</time></trkpt><trkpt lat="25.796167812843557" lon="-80.48287089264976"><ele>11.0</ele><time>2026-04-19T11:55:27.999Z</time></trkpt><trkpt lat="25.79606898756569" lon="-80.48286145644535"><ele>10.8</ele><time>2026-04-19T11:55:28.999Z</time></trkpt><trkpt lat="25.795968712265537" lon="-80.48285315623036"><ele>10.600000000000001</ele><time>2026-04-19T11:55:29.999Z</time></trkpt><trkpt lat="25.795868816846948" lon="-80.48284553732918"><ele>10.4</ele><time>2026-04-19T11:55:30.999Z</time></trkpt><trkpt lat="25.795767359577685" lon="-80.48283599357642"><ele>10.2</ele><time>2026-04-19T11:55:31.999Z</time></trkpt><trkpt lat="25.795662893313875" lon="-80.48282408925206"><ele>10.0</ele><time>2026-04-19T11:55:32.999Z</time></trkpt><trkpt lat="25.795556416857657" lon="-80.48281657487988"><ele>10.0</ele><time>2026-04-19T11:55:33.999Z</time></trkpt><trkpt lat="25.795447332775407" lon="-80.48281051554916"><ele>10.0</ele><time>2026-04-19T11:55:34.999Z</time></trkpt><trkpt lat="25.7953392868331" lon="-80.48280040124645"><ele>10.0</ele><time>2026-04-19T11:55:35.999Z</time></trkpt><trkpt lat="25.795233917830437" lon="-80.4827890947504"><ele>10.0</ele><time>2026-04-19T11:55:36.999Z</time></trkpt><trkpt lat="25.795127158838035" lon="-80.48277798903118"><ele>10.0</ele><time>2026-04-19T11:55:37.999Z</time></trkpt><trkpt lat="25.795020182152005" lon="-80.48276406075233"><ele>10.0</ele><time>2026-04-19T11:55:38.999Z</time></trkpt><trkpt lat="25.794913863908143" lon="-80.48275559725825"><ele>10.0</ele><time>2026-04-19T11:55:39.999Z</time></trkpt><trkpt lat="25.794806632548482" lon="-80.48274785414903"><ele>10.0</ele><time>2026-04-19T11:55:40.999Z</time></trkpt><trkpt lat="25.794698108385763" lon="-80.4827375008199"><ele>10.0</ele><time>2026-04-19T11:55:41.999Z</time></trkpt><trkpt lat="25.794590915093384" lon="-80.48273103606066"><ele>10.0</ele><time>2026-04-19T11:55:42.999Z</time></trkpt><trkpt lat="25.794483952098734" lon="-80.48272333612265"><ele>10.0</ele><time>2026-04-19T11:55:43.999Z</time></trkpt><trkpt lat="25.794378023773927" lon="-80.48271659868156"><ele>10.0</ele><time>2026-04-19T11:55:44.999Z</time></trkpt><trkpt lat="25.79427436994322" lon="-80.48271445087741"><ele>10.0</ele><time>2026-04-19T11:55:45.999Z</time></trkpt><trkpt lat="25.794168428166152" lon="-80.48271226499658"><ele>10.0</ele><time>2026-04-19T11:55:46.999Z</time></trkpt><trkpt lat="25.794062250706126" lon="-80.48270317517883"><ele>10.0</ele><time>2026-04-19T11:55:48Z</time></trkpt><trkpt lat="25.793955087788373" lon="-80.48269417615832"><ele>9.8</ele><time>2026-04-19T11:55:49Z</time></trkpt><trkpt lat="25.793850684774682" lon="-80.48268449085066"><ele>9.6</ele><time>2026-04-19T11:55:50Z</time></trkpt><trkpt lat="25.79374647081191" lon="-80.48267594047155"><ele>9.4</ele><time>2026-04-19T11:55:51Z</time></trkpt><trkpt lat="25.793640707269276" lon="-80.48266573281967"><ele>9.2</ele><time>2026-04-19T11:55:52Z</time></trkpt><trkpt lat="25.793532443246555" lon="-80.4826561356148"><ele>9.0</ele><time>2026-04-19T11:55:53Z</time></trkpt><trkpt lat="25.79342381350375" lon="-80.48264905387516"><ele>8.8</ele><time>2026-04-19T11:55:54Z</time></trkpt><trkpt lat="25.793313120706223" lon="-80.4826385188549"><ele>8.600000000000001</ele><time>2026-04-19T11:55:55Z</time></trkpt><trkpt lat="25.793202741610067" lon="-80.4826281394509"><ele>8.4</ele><time>2026-04-19T11:55:56Z</time></trkpt><trkpt lat="25.79309150727409" lon="-80.48261955632087"><ele>8.200000000000001</ele><time>2026-04-19T11:55:57Z</time></trkpt><trkpt lat="25.792978253133946" lon="-80.4826099724"><ele>8.0</ele><time>2026-04-19T11:55:58Z</time></trkpt><trkpt lat="25.792864532221678" lon="-80.482601985222"><ele>8.0</ele><time>2026-04-19T11:55:59Z</time></trkpt><trkpt lat="25.792749275771317" lon="-80.48259183777412"><ele>8.0</ele><time>2026-04-19T11:56:00Z</time></trkpt><trkpt lat="25.792634541721647" lon="-80.48258283251296"><ele>8.0</ele><time>2026-04-19T11:56:01Z</time></trkpt><trkpt lat="25.792518412960412" lon="-80.48257243312968"><ele>8.0</ele><time>2026-04-19T11:56:02Z</time></trkpt><trkpt lat="25.79240320783837" lon="-80.48256417224248"><ele>8.25</ele><time>2026-04-19T11:56:03Z</time></trkpt><trkpt lat="25.7922895834234" lon="-80.48255355328287"><ele>8.5</ele><time>2026-04-19T11:56:04Z</time></trkpt><trkpt lat="25.792176880438873" lon="-80.48254462404289"><ele>8.75</ele><time>2026-04-19T11:56:05Z</time></trkpt><trkpt lat="25.792063358279613" lon="-80.48253350888301"><ele>9.0</ele><time>2026-04-19T11:56:06Z</time></trkpt><trkpt lat="25.79195292504732" lon="-80.48252240993517"><ele>9.0</ele><time>2026-04-19T11:56:07Z</time></trkpt><trkpt lat="25.79184355602864" lon="-80.4825134608899"><ele>9.0</ele><time>2026-04-19T11:56:08Z</time></trkpt><trkpt lat="25.79173470297867" lon="-80.48250639082198"><ele>9.0</ele><time>2026-04-19T11:56:09Z</time></trkpt><trkpt lat="25.791625631473448" lon="-80.48249735723222"><ele>9.0</ele><time>2026-04-19T11:56:10Z</time></trkpt><trkpt lat="25.79151566737233" lon="-80.48248751225634"><ele>9.0</ele><time>2026-04-19T11:56:11Z</time></trkpt><trkpt lat="25.79140430860214" lon="-80.48247798617695"><ele>9.2</ele><time>2026-04-19T11:56:12Z</time></trkpt><trkpt lat="25.791293194817875" lon="-80.4824667897822"><ele>9.4</ele><time>2026-04-19T11:56:13Z</time></trkpt><trkpt lat="25.79118124573896" lon="-80.4824506831906"><ele>9.6</ele><time>2026-04-19T11:56:14Z</time></trkpt><trkpt lat="25.791069667960677" lon="-80.48243613959798"><ele>9.8</ele><time>2026-04-19T11:56:15Z</time></trkpt><trkpt lat="25.790957716384252" lon="-80.4824223294025"><ele>10.0</ele><time>2026-04-19T11:56:16Z</time></trkpt><trkpt lat="25.790844371193224" lon="-80.48241173993007"><ele>10.5</ele><time>2026-04-19T11:56:17Z</time></trkpt><trkpt lat="25.790730885546292" lon="-80.48240006552929"><ele>11.0</ele><time>2026-04-19T11:56:18Z</time></trkpt><trkpt lat="25.790617733547087" lon="-80.48239133246969"><ele>11.5</ele><time>2026-04-19T11:56:19Z</time></trkpt><trkpt lat="25.7905035520518" lon="-80.48238354523116"><ele>12.0</ele><time>2026-04-19T11:56:20Z</time></trkpt><trkpt lat="25.79038935446043" lon="-80.48237731604969"><ele>12.0</ele><time>2026-04-19T11:56:21Z</time></trkpt><trkpt lat="25.79027538225292" lon="-80.48237368444681"><ele>12.0</ele><time>2026-04-19T11:56:22Z</time></trkpt><trkpt lat="25.79016355747518" lon="-80.48236590460506"><ele>12.0</ele><time>2026-04-19T11:56:23Z</time></trkpt><trkpt lat="25.790052850299407" lon="-80.48235558763533"><ele>12.0</ele><time>2026-04-19T11:56:24Z</time></trkpt><trkpt lat="25.789940509478242" lon="-80.48234609381792"><ele>11.5</ele><time>2026-04-19T11:56:25Z</time></trkpt><trkpt lat="25.789828461086056" lon="-80.48233927160459"><ele>11.0</ele><time>2026-04-19T11:56:26Z</time></trkpt><trkpt lat="25.789713679218227" lon="-80.4823308506748"><ele>10.5</ele><time>2026-04-19T11:56:27Z</time></trkpt><trkpt lat="25.78960065445543" lon="-80.48232250678667"><ele>10.0</ele><time>2026-04-19T11:56:28Z</time></trkpt><trkpt lat="25.789490372651628" lon="-80.48231297915662"><ele>10.0</ele><time>2026-04-19T11:56:29Z</time></trkpt><trkpt lat="25.789379111060622" lon="-80.48230654690903"><ele>10.0</ele><time>2026-04-19T11:56:30Z</time></trkpt><trkpt lat="25.789265654156466" lon="-80.48229726755905"><ele>10.0</ele><time>2026-04-19T11:56:31Z</time></trkpt><trkpt lat="25.789153437576452" lon="-80.48228839271776"><ele>10.0</ele><time>2026-04-19T11:56:32Z</time></trkpt><trkpt lat="25.78904309446946" lon="-80.48227793012863"><ele>10.0</ele><time>2026-04-19T11:56:33Z</time></trkpt><trkpt lat="25.7889336018087" lon="-80.48226944415792"><ele>9.6</ele><time>2026-04-19T11:56:34Z</time></trkpt><trkpt lat="25.7888261135881" lon="-80.48225992584823"><ele>9.2</ele><time>2026-04-19T11:56:35Z</time></trkpt><trkpt lat="25.788717618596362" lon="-80.48225031164449"><ele>8.8</ele><time>2026-04-19T11:56:36Z</time></trkpt><trkpt lat="25.788608534823528" lon="-80.48224193436954"><ele>8.4</ele><time>2026-04-19T11:56:37Z</time></trkpt><trkpt lat="25.788497157149422" lon="-80.48223223736443"><ele>8.0</ele><time>2026-04-19T11:56:38Z</time></trkpt><trkpt lat="25.78838797453875" lon="-80.48222534785468"><ele>7.800000000000001</ele><time>2026-04-19T11:56:39Z</time></trkpt><trkpt lat="25.788279395228777" lon="-80.48221545745731"><ele>7.6000000000000005</ele><time>2026-04-19T11:56:40Z</time></trkpt><trkpt lat="25.788172979598407" lon="-80.48220634159462"><ele>7.3999999999999995</ele><time>2026-04-19T11:56:41Z</time></trkpt><trkpt lat="25.788068530179974" lon="-80.48219852127124"><ele>7.199999999999999</ele><time>2026-04-19T11:56:42Z</time></trkpt><trkpt lat="25.78796224692723" lon="-80.48218900120813"><ele>7.0</ele><time>2026-04-19T11:56:43Z</time></trkpt><trkpt lat="25.787856484867447" lon="-80.48217991778665"><ele>7.0</ele><time>2026-04-19T11:56:44Z</time></trkpt><trkpt lat="25.78775200347904" lon="-80.48217235514707"><ele>6.999999999999999</ele><time>2026-04-19T11:56:45Z</time></trkpt><trkpt lat="25.78764749779183" lon="-80.48216455768615"><ele>6.999999999999999</ele><time>2026-04-19T11:56:46Z</time></trkpt><trkpt lat="25.787540047456" lon="-80.482153376024"><ele>7.0</ele><time>2026-04-19T11:56:47Z</time></trkpt><trkpt lat="25.787434367239303" lon="-80.48214569249852"><ele>7.0</ele><time>2026-04-19T11:56:48Z</time></trkpt><trkpt lat="25.787327753213788" lon="-80.48213357664054"><ele>7.199999999999999</ele><time>2026-04-19T11:56:49Z</time></trkpt><trkpt lat="25.787219496664708" lon="-80.48212373088113"><ele>7.3999999999999995</ele><time>2026-04-19T11:56:50Z</time></trkpt><trkpt lat="25.787111910924363" lon="-80.48211715823845"><ele>7.6000000000000005</ele><time>2026-04-19T11:56:51Z</time></trkpt><trkpt lat="25.787003390932302" lon="-80.48210861184587"><ele>7.800000000000001</ele><time>2026-04-19T11:56:52Z</time></trkpt><trkpt lat="25.786893622627623" lon="-80.48209992260661"><ele>8.0</ele><time>2026-04-19T11:56:53Z</time></trkpt><trkpt lat="25.786784511003937" lon="-80.48209038283304"><ele>8.4</ele><time>2026-04-19T11:56:54Z</time></trkpt><trkpt lat="25.786677709449357" lon="-80.48208302766335"><ele>8.8</ele><time>2026-04-19T11:56:55Z</time></trkpt><trkpt lat="25.78657177372808" lon="-80.48207371032984"><ele>9.2</ele><time>2026-04-19T11:56:56Z</time></trkpt><trkpt lat="25.786465822040658" lon="-80.48206486377931"><ele>9.6</ele><time>2026-04-19T11:56:57Z</time></trkpt><trkpt lat="25.786362621772597" lon="-80.48205544624135"><ele>10.0</ele><time>2026-04-19T11:56:58Z</time></trkpt><trkpt lat="25.7862537494226" lon="-80.48204432771686"><ele>10.0</ele><time>2026-04-19T11:56:59Z</time></trkpt><trkpt lat="25.78614583187366" lon="-80.48203592350144"><ele>10.0</ele><time>2026-04-19T11:57:00Z</time></trkpt><trkpt lat="25.786037476316327" lon="-80.48202508958944"><ele>10.0</ele><time>2026-04-19T11:57:01Z</time></trkpt><trkpt lat="25.785929347261256" lon="-80.48201559856464"><ele>10.0</ele><time>2026-04-19T11:57:02Z</time></trkpt><trkpt lat="25.785818545872463" lon="-80.48200350190984"><ele>10.0</ele><time>2026-04-19T11:57:03Z</time></trkpt><trkpt lat="25.785707541754608" lon="-80.4819926457976"><ele>10.25</ele><time>2026-04-19T11:57:04Z</time></trkpt><trkpt lat="25.785595470635062" lon="-80.48198049709475"><ele>10.5</ele><time>2026-04-19T11:57:05Z</time></trkpt><trkpt lat="25.785482558138277" lon="-80.48196890598824"><ele>10.75</ele><time>2026-04-19T11:57:06Z</time></trkpt><trkpt lat="25.785370828516342" lon="-80.48196308054078"><ele>11.0</ele><time>2026-04-19T11:57:07Z</time></trkpt><trkpt lat="25.785258852018934" lon="-80.48195318318947"><ele>10.8</ele><time>2026-04-19T11:57:08Z</time></trkpt><trkpt lat="25.78514877994686" lon="-80.48194175219427"><ele>10.600000000000001</ele><time>2026-04-19T11:57:09Z</time></trkpt><trkpt lat="25.785039940454062" lon="-80.48193166193144"><ele>10.4</ele><time>2026-04-19T11:57:10Z</time></trkpt><trkpt lat="25.784930269866056" lon="-80.48192082315379"><ele>10.2</ele><time>2026-04-19T11:57:10.999Z</time></trkpt><trkpt lat="25.784820660034708" lon="-80.48190919003518"><ele>10.0</ele><time>2026-04-19T11:57:11.999Z</time></trkpt><trkpt lat="25.78471178508438" lon="-80.4818995565865"><ele>10.0</ele><time>2026-04-19T11:57:12.999Z</time></trkpt><trkpt lat="25.784601561427145" lon="-80.48189018781949"><ele>10.0</ele><time>2026-04-19T11:57:13.999Z</time></trkpt><trkpt lat="25.784492697067762" lon="-80.48188237040982"><ele>10.0</ele><time>2026-04-19T11:57:14.999Z</time></trkpt><trkpt lat="25.784383608766454" lon="-80.48186933312293"><ele>10.0</ele><time>2026-04-19T11:57:15.999Z</time></trkpt><trkpt lat="25.784274992477265" lon="-80.48185776853556"><ele>10.0</ele><time>2026-04-19T11:57:16.999Z</time></trkpt><trkpt lat="25.78416574264913" lon="-80.48184475206492"><ele>9.6</ele><time>2026-04-19T11:57:17.999Z</time></trkpt><trkpt lat="25.784056161807055" lon="-80.48183519675788"><ele>9.2</ele><time>2026-04-19T11:57:18.999Z</time></trkpt><trkpt lat="25.78394522013308" lon="-80.4818272998889"><ele>8.8</ele><time>2026-04-19T11:57:19.999Z</time></trkpt><trkpt lat="25.78383163118679" lon="-80.48181685720296"><ele>8.4</ele><time>2026-04-19T11:57:20.999Z</time></trkpt><trkpt lat="25.783720228586297" lon="-80.48180861777972"><ele>8.0</ele><time>2026-04-19T11:57:21.999Z</time></trkpt><trkpt lat="25.78360814012129" lon="-80.48180352299454"><ele>8.0</ele><time>2026-04-19T11:57:22.999Z</time></trkpt><trkpt lat="25.783497632705256" lon="-80.4817964193158"><ele>8.0</ele><time>2026-04-19T11:57:23.999Z</time></trkpt><trkpt lat="25.78338508858562" lon="-80.48179182752472"><ele>8.0</ele><time>2026-04-19T11:57:24.999Z</time></trkpt><trkpt lat="25.783272742277564" lon="-80.4817857794451"><ele>8.0</ele><time>2026-04-19T11:57:25.999Z</time></trkpt><trkpt lat="25.78315998877485" lon="-80.48178339466064"><ele>8.0</ele><time>2026-04-19T11:57:26.999Z</time></trkpt><trkpt lat="25.78304994535767" lon="-80.48178302768588"><ele>8.0</ele><time>2026-04-19T11:57:27.999Z</time></trkpt><trkpt lat="25.782941272823678" lon="-80.48178251626115"><ele>8.0</ele><time>2026-04-19T11:57:28.999Z</time></trkpt><trkpt lat="25.78283371636255" lon="-80.48178267433826"><ele>8.0</ele><time>2026-04-19T11:57:29.999Z</time></trkpt><trkpt lat="25.782727489741546" lon="-80.48178239166803"><ele>8.0</ele><time>2026-04-19T11:57:30.999Z</time></trkpt><trkpt lat="25.78262018346425" lon="-80.48178201673215"><ele>8.0</ele><time>2026-04-19T11:57:31.999Z</time></trkpt><trkpt lat="25.78251470061473" lon="-80.48178484277442"><ele>7.800000000000001</ele><time>2026-04-19T11:57:32.999Z</time></trkpt><trkpt lat="25.78240921261392" lon="-80.48178991422617"><ele>7.6000000000000005</ele><time>2026-04-19T11:57:33.999Z</time></trkpt><trkpt lat="25.782303559734594" lon="-80.48179494822702"><ele>7.3999999999999995</ele><time>2026-04-19T11:57:34.999Z</time></trkpt><trkpt lat="25.782195550705364" lon="-80.4817992084644"><ele>7.199999999999999</ele><time>2026-04-19T11:57:35.999Z</time></trkpt><trkpt lat="25.782088570498473" lon="-80.4818060326969"><ele>7.0</ele><time>2026-04-19T11:57:36.999Z</time></trkpt><trkpt lat="25.7819823327523" lon="-80.48181272903737"><ele>7.0</ele><time>2026-04-19T11:57:37.999Z</time></trkpt><trkpt lat="25.781875427069746" lon="-80.48182114056678"><ele>6.999999999999999</ele><time>2026-04-19T11:57:38.999Z</time></trkpt><trkpt lat="25.78176684374223" lon="-80.48182743639532"><ele>6.999999999999999</ele><time>2026-04-19T11:57:39.999Z</time></trkpt><trkpt lat="25.781659693453086" lon="-80.48183644989838"><ele>7.0</ele><time>2026-04-19T11:57:40.999Z</time></trkpt><trkpt lat="25.781552770183296" lon="-80.48184628119868"><ele>7.0</ele><time>2026-04-19T11:57:41.999Z</time></trkpt><trkpt lat="25.78144850911677" lon="-80.48185652235058"><ele>7.199999999999999</ele><time>2026-04-19T11:57:42.999Z</time></trkpt><trkpt lat="25.781345288488456" lon="-80.48186550035841"><ele>7.3999999999999995</ele><time>2026-04-19T11:57:43.999Z</time></trkpt><trkpt lat="25.781242811009726" lon="-80.4818743775056"><ele>7.6000000000000005</ele><time>2026-04-19T11:57:44.999Z</time></trkpt><trkpt lat="25.781143548821632" lon="-80.4818847011767"><ele>7.800000000000001</ele><time>2026-04-19T11:57:45.999Z</time></trkpt><trkpt lat="25.781043831283295" lon="-80.48189288081926"><ele>8.0</ele><time>2026-04-19T11:57:46.999Z</time></trkpt><trkpt lat="25.78094461688182" lon="-80.4819011708022"><ele>8.0</ele><time>2026-04-19T11:57:47.999Z</time></trkpt><trkpt lat="25.78084665941501" lon="-80.48190945869773"><ele>8.0</ele><time>2026-04-19T11:57:48.999Z</time></trkpt><trkpt lat="25.780749059004467" lon="-80.48191893729225"><ele>8.0</ele><time>2026-04-19T11:57:49.999Z</time></trkpt><trkpt lat="25.780652554304115" lon="-80.4819304600772"><ele>8.0</ele><time>2026-04-19T11:57:50.999Z</time></trkpt><trkpt lat="25.780555010275602" lon="-80.4819432684488"><ele>8.0</ele><time>2026-04-19T11:57:51.999Z</time></trkpt><trkpt lat="25.78045720451677" lon="-80.4819557698451"><ele>8.0</ele><time>2026-04-19T11:57:52.999Z</time></trkpt><trkpt lat="25.780361346425547" lon="-80.48196641871293"><ele>8.0</ele><time>2026-04-19T11:57:54Z</time></trkpt><trkpt lat="25.780266802587498" lon="-80.48197507800032"><ele>8.0</ele><time>2026-04-19T11:57:55Z</time></trkpt><trkpt lat="25.78017137665604" lon="-80.48198496221231"><ele>8.0</ele><time>2026-04-19T11:57:56Z</time></trkpt><trkpt lat="25.780076291815245" lon="-80.48199244363367"><ele>8.0</ele><time>2026-04-19T11:57:57Z</time></trkpt><trkpt lat="25.77997825142388" lon="-80.48200214364259"><ele>8.0</ele><time>2026-04-19T11:57:58Z</time></trkpt><trkpt lat="25.779881384533077" lon="-80.48201170239324"><ele>8.0</ele><time>2026-04-19T11:57:59Z</time></trkpt><trkpt lat="25.779779617943074" lon="-80.48202160405798"><ele>8.0</ele><time>2026-04-19T11:58:00Z</time></trkpt><trkpt lat="25.77967915485506" lon="-80.48203234730215"><ele>8.0</ele><time>2026-04-19T11:58:01Z</time></trkpt><trkpt lat="25.77957789317315" lon="-80.48204009812237"><ele>8.0</ele><time>2026-04-19T11:58:02Z</time></trkpt><trkpt lat="25.77947868983314" lon="-80.48205099874505"><ele>8.0</ele><time>2026-04-19T11:58:03Z</time></trkpt><trkpt lat="25.77937879948791" lon="-80.48206205851459"><ele>8.0</ele><time>2026-04-19T11:58:04Z</time></trkpt><trkpt lat="25.779281679655124" lon="-80.48207229549557"><ele>8.0</ele><time>2026-04-19T11:58:05Z</time></trkpt><trkpt lat="25.779182368275702" lon="-80.48207879556209"><ele>8.0</ele><time>2026-04-19T11:58:06Z</time></trkpt><trkpt lat="25.779082645595803" lon="-80.48208795521128"><ele>8.0</ele><time>2026-04-19T11:58:07Z</time></trkpt><trkpt lat="25.778982195454315" lon="-80.48209690645074"><ele>7.800000000000001</ele><time>2026-04-19T11:58:08Z</time></trkpt><trkpt lat="25.77888162975192" lon="-80.4821069749578"><ele>7.6000000000000005</ele><time>2026-04-19T11:58:09Z</time></trkpt><trkpt lat="25.778779713619848" lon="-80.4821178932993"><ele>7.3999999999999995</ele><time>2026-04-19T11:58:10Z</time></trkpt><trkpt lat="25.778678333078116" lon="-80.4821256166548"><ele>7.199999999999999</ele><time>2026-04-19T11:58:11Z</time></trkpt><trkpt lat="25.778575733455444" lon="-80.48213506388987"><ele>7.0</ele><time>2026-04-19T11:58:12Z</time></trkpt><trkpt lat="25.77847295633616" lon="-80.4821476190673"><ele>7.0</ele><time>2026-04-19T11:58:13Z</time></trkpt><trkpt lat="25.778368414651446" lon="-80.48215518230222"><ele>6.999999999999999</ele><time>2026-04-19T11:58:14Z</time></trkpt><trkpt lat="25.77826458146283" lon="-80.48216531863523"><ele>6.999999999999999</ele><time>2026-04-19T11:58:15Z</time></trkpt><trkpt lat="25.77816006110868" lon="-80.4821765504697"><ele>7.0</ele><time>2026-04-19T11:58:16Z</time></trkpt><trkpt lat="25.77805697100247" lon="-80.48218521593587"><ele>7.0</ele><time>2026-04-19T11:58:17Z</time></trkpt><trkpt lat="25.777954327379696" lon="-80.48219555610723"><ele>7.0</ele><time>2026-04-19T11:58:18Z</time></trkpt><trkpt lat="25.777854198445084" lon="-80.48220357838947"><ele>6.999999999999999</ele><time>2026-04-19T11:58:19Z</time></trkpt><trkpt lat="25.777754823881924" lon="-80.48221107741598"><ele>6.999999999999999</ele><time>2026-04-19T11:58:20Z</time></trkpt><trkpt lat="25.777656037378577" lon="-80.4822178506815"><ele>7.0</ele><time>2026-04-19T11:58:21Z</time></trkpt><trkpt lat="25.777558551524365" lon="-80.48222465030292"><ele>7.0</ele><time>2026-04-19T11:58:22Z</time></trkpt><trkpt lat="25.777460268710783" lon="-80.48223255059148"><ele>7.3999999999999995</ele><time>2026-04-19T11:58:23Z</time></trkpt><trkpt lat="25.777363736442336" lon="-80.48223950987118"><ele>7.799999999999999</ele><time>2026-04-19T11:58:24Z</time></trkpt><trkpt lat="25.777265112232897" lon="-80.48224607546923"><ele>8.2</ele><time>2026-04-19T11:58:25Z</time></trkpt><trkpt lat="25.777166728956832" lon="-80.48225409760354"><ele>8.6</ele><time>2026-04-19T11:58:26Z</time></trkpt><trkpt lat="25.77706896761442" lon="-80.48226406414373"><ele>9.0</ele><time>2026-04-19T11:58:27Z</time></trkpt><trkpt lat="25.7769709716975" lon="-80.48227235731649"><ele>9.0</ele><time>2026-04-19T11:58:28Z</time></trkpt><trkpt lat="25.77687595185495" lon="-80.48227867367466"><ele>9.0</ele><time>2026-04-19T11:58:29Z</time></trkpt><trkpt lat="25.776780316598646" lon="-80.48228626089679"><ele>9.0</ele><time>2026-04-19T11:58:30Z</time></trkpt><trkpt lat="25.776683668628003" lon="-80.4822951924469"><ele>9.0</ele><time>2026-04-19T11:58:31Z</time></trkpt><trkpt lat="25.77658673920427" lon="-80.48230235522921"><ele>9.0</ele><time>2026-04-19T11:58:32Z</time></trkpt><trkpt lat="25.776488551470027" lon="-80.48231134659767"><ele>8.6</ele><time>2026-04-19T11:58:33Z</time></trkpt><trkpt lat="25.776392173492823" lon="-80.48232002923125"><ele>8.2</ele><time>2026-04-19T11:58:34Z</time></trkpt><trkpt lat="25.776294175562274" lon="-80.48232847853002"><ele>7.799999999999999</ele><time>2026-04-19T11:58:35Z</time></trkpt><trkpt lat="25.776195893625676" lon="-80.48233893575043"><ele>7.3999999999999995</ele><time>2026-04-19T11:58:36Z</time></trkpt><trkpt lat="25.77609728166133" lon="-80.4823457021457"><ele>7.0</ele><time>2026-04-19T11:58:37Z</time></trkpt><trkpt lat="25.775998437665788" lon="-80.48235306072887"><ele>6.8</ele><time>2026-04-19T11:58:38Z</time></trkpt><trkpt lat="25.77589701628304" lon="-80.48236169403229"><ele>6.6</ele><time>2026-04-19T11:58:39Z</time></trkpt><trkpt lat="25.77579430648391" lon="-80.4823703004912"><ele>6.3999999999999995</ele><time>2026-04-19T11:58:40Z</time></trkpt><trkpt lat="25.77569089260694" lon="-80.48237740095942"><ele>6.199999999999999</ele><time>2026-04-19T11:58:41Z</time></trkpt><trkpt lat="25.775585367565657" lon="-80.48238455703361"><ele>6.0</ele><time>2026-04-19T11:58:42Z</time></trkpt><trkpt lat="25.775479053526198" lon="-80.48239143623323"><ele>6.0</ele><time>2026-04-19T11:58:43Z</time></trkpt><trkpt lat="25.77537509824371" lon="-80.48239839837056"><ele>6.0</ele><time>2026-04-19T11:58:44Z</time></trkpt><trkpt lat="25.775273257752175" lon="-80.48240792577447"><ele>6.0</ele><time>2026-04-19T11:58:45Z</time></trkpt><trkpt lat="25.77517265293492" lon="-80.4824176577351"><ele>6.0</ele><time>2026-04-19T11:58:46Z</time></trkpt><trkpt lat="25.77507280576029" lon="-80.48242491251509"><ele>6.0</ele><time>2026-04-19T11:58:47Z</time></trkpt><trkpt lat="25.774973616566534" lon="-80.48243493561141"><ele>7.4</ele><time>2026-04-19T11:58:48Z</time></trkpt><trkpt lat="25.774874385035396" lon="-80.48244248545338"><ele>8.8</ele><time>2026-04-19T11:58:49Z</time></trkpt><trkpt lat="25.774774816313368" lon="-80.48244714354719"><ele>10.200000000000001</ele><time>2026-04-19T11:58:50Z</time></trkpt><trkpt lat="25.77467555041833" lon="-80.48245396196528"><ele>11.6</ele><time>2026-04-19T11:58:51Z</time></trkpt><trkpt lat="25.774575900807832" lon="-80.48246070612117"><ele>13.0</ele><time>2026-04-19T11:58:52Z</time></trkpt><trkpt lat="25.774475438638827" lon="-80.48246717901058"><ele>13.0</ele><time>2026-04-19T11:58:53Z</time></trkpt><trkpt lat="25.774373260232093" lon="-80.48247342789368"><ele>13.0</ele><time>2026-04-19T11:58:54Z</time></trkpt><trkpt lat="25.774271802060166" lon="-80.48247700736032"><ele>13.0</ele><time>2026-04-19T11:58:55Z</time></trkpt><trkpt lat="25.774169377824403" lon="-80.48248270973085"><ele>13.0</ele><time>2026-04-19T11:58:56Z</time></trkpt><trkpt lat="25.774067891279223" lon="-80.48248770570682"><ele>13.0</ele><time>2026-04-19T11:58:57Z</time></trkpt><trkpt lat="25.773966107860996" lon="-80.48249224673667"><ele>12.8</ele><time>2026-04-19T11:58:58Z</time></trkpt><trkpt lat="25.773865880809595" lon="-80.48249639920427"><ele>12.600000000000001</ele><time>2026-04-19T11:58:59Z</time></trkpt><trkpt lat="25.773764815441144" lon="-80.48249902307977"><ele>12.399999999999999</ele><time>2026-04-19T11:59:00Z</time></trkpt><trkpt lat="25.773665138689662" lon="-80.48250549530253"><ele>12.2</ele><time>2026-04-19T11:59:01Z</time></trkpt><trkpt lat="25.77356703213569" lon="-80.48250862293138"><ele>12.0</ele><time>2026-04-19T11:59:02Z</time></trkpt><trkpt lat="25.773468925503796" lon="-80.48250811100803"><ele>11.4</ele><time>2026-04-19T11:59:03Z</time></trkpt><trkpt lat="25.77337286972594" lon="-80.48250816106304"><ele>10.799999999999999</ele><time>2026-04-19T11:59:04Z</time></trkpt><trkpt lat="25.773276009682043" lon="-80.48250619701277"><ele>10.2</ele><time>2026-04-19T11:59:05Z</time></trkpt><trkpt lat="25.77317650713456" lon="-80.48250452970784"><ele>9.6</ele><time>2026-04-19T11:59:06Z</time></trkpt><trkpt lat="25.773076872051707" lon="-80.48250391982877"><ele>9.0</ele><time>2026-04-19T11:59:07Z</time></trkpt><trkpt lat="25.772975887732667" lon="-80.48250149718876"><ele>9.0</ele><time>2026-04-19T11:59:08Z</time></trkpt><trkpt lat="25.77287433557158" lon="-80.4824978800167"><ele>9.0</ele><time>2026-04-19T11:59:09Z</time></trkpt><trkpt lat="25.772772996782695" lon="-80.48249222950021"><ele>9.0</ele><time>2026-04-19T11:59:09.999Z</time></trkpt><trkpt lat="25.7726748797629" lon="-80.4824885878568"><ele>9.0</ele><time>2026-04-19T11:59:10.999Z</time></trkpt><trkpt lat="25.772578261407805" lon="-80.48248584748451"><ele>9.0</ele><time>2026-04-19T11:59:11.999Z</time></trkpt><trkpt lat="25.772481543842055" lon="-80.48247948943066"><ele>9.0</ele><time>2026-04-19T11:59:12.999Z</time></trkpt><trkpt lat="25.77238451100947" lon="-80.48247318757184"><ele>9.0</ele><time>2026-04-19T11:59:13.999Z</time></trkpt><trkpt lat="25.772286242716387" lon="-80.48246657029527"><ele>9.0</ele><time>2026-04-19T11:59:14.999Z</time></trkpt><trkpt lat="25.772186885168285" lon="-80.48246264434894"><ele>9.0</ele><time>2026-04-19T11:59:15.999Z</time></trkpt><trkpt lat="25.772087457679483" lon="-80.48245622145005"><ele>9.0</ele><time>2026-04-19T11:59:16.999Z</time></trkpt><trkpt lat="25.771988444703396" lon="-80.4824474743372"><ele>9.0</ele><time>2026-04-19T11:59:17.999Z</time></trkpt><trkpt lat="25.77188822983492" lon="-80.48243618266518"><ele>9.0</ele><time>2026-04-19T11:59:18.999Z</time></trkpt><trkpt lat="25.771786089476404" lon="-80.48242812934467"><ele>9.0</ele><time>2026-04-19T11:59:19.999Z</time></trkpt><trkpt lat="25.7716812764643" lon="-80.48241925859452"><ele>9.0</ele><time>2026-04-19T11:59:20.999Z</time></trkpt><trkpt lat="25.77157531752126" lon="-80.48241082043587"><ele>9.0</ele><time>2026-04-19T11:59:21.999Z</time></trkpt><trkpt lat="25.77146834368701" lon="-80.48240456305399"><ele>8.6</ele><time>2026-04-19T11:59:22.999Z</time></trkpt><trkpt lat="25.771361677392626" lon="-80.48239940340996"><ele>8.2</ele><time>2026-04-19T11:59:23.999Z</time></trkpt><trkpt lat="25.7712558534688" lon="-80.48239138725138"><ele>7.799999999999999</ele><time>2026-04-19T11:59:24.999Z</time></trkpt><trkpt lat="25.77115258284207" lon="-80.48238654629212"><ele>7.3999999999999995</ele><time>2026-04-19T11:59:25.999Z</time></trkpt><trkpt lat="25.7710503959245" lon="-80.48237943891507"><ele>7.0</ele><time>2026-04-19T11:59:26.999Z</time></trkpt><trkpt lat="25.770949671539196" lon="-80.4823739636468"><ele>7.0</ele><time>2026-04-19T11:59:27.999Z</time></trkpt><trkpt lat="25.770852882066276" lon="-80.48236630767859"><ele>6.999999999999999</ele><time>2026-04-19T11:59:28.999Z</time></trkpt><trkpt lat="25.770755871934046" lon="-80.48235553857702"><ele>6.999999999999999</ele><time>2026-04-19T11:59:29.999Z</time></trkpt><trkpt lat="25.770655824552247" lon="-80.48234767411162"><ele>7.0</ele><time>2026-04-19T11:59:30.999Z</time></trkpt><trkpt lat="25.77055595924114" lon="-80.48233957743902"><ele>7.0</ele><time>2026-04-19T11:59:31.999Z</time></trkpt><trkpt lat="25.770455548030625" lon="-80.4823321828977"><ele>7.0</ele><time>2026-04-19T11:59:32.999Z</time></trkpt><trkpt lat="25.770356284622324" lon="-80.48232155465041"><ele>6.999999999999999</ele><time>2026-04-19T11:59:33.999Z</time></trkpt><trkpt lat="25.770252710533676" lon="-80.48231581744442"><ele>6.999999999999999</ele><time>2026-04-19T11:59:34.999Z</time></trkpt><trkpt lat="25.770151901527253" lon="-80.48230603383918"><ele>7.0</ele><time>2026-04-19T11:59:35.999Z</time></trkpt><trkpt lat="25.770050628905853" lon="-80.48229739678536"><ele>7.0</ele><time>2026-04-19T11:59:36.999Z</time></trkpt><trkpt lat="25.769949344149047" lon="-80.48229065638505"><ele>7.0</ele><time>2026-04-19T11:59:37.999Z</time></trkpt><trkpt lat="25.76984880974236" lon="-80.48228071352386"><ele>6.999999999999999</ele><time>2026-04-19T11:59:38.999Z</time></trkpt><trkpt lat="25.769747246687533" lon="-80.48227163535414"><ele>6.999999999999999</ele><time>2026-04-19T11:59:39.999Z</time></trkpt><trkpt lat="25.76964654743696" lon="-80.48226675250936"><ele>7.0</ele><time>2026-04-19T11:59:40.999Z</time></trkpt><trkpt lat="25.7695451486402" lon="-80.48225844710966"><ele>7.0</ele><time>2026-04-19T11:59:41.999Z</time></trkpt><trkpt lat="25.76944408084954" lon="-80.48225217895221"><ele>7.0</ele><time>2026-04-19T11:59:42.999Z</time></trkpt><trkpt lat="25.76934197178302" lon="-80.48224710317439"><ele>6.999999999999999</ele><time>2026-04-19T11:59:43.999Z</time></trkpt><trkpt lat="25.769240887007808" lon="-80.48223741382286"><ele>6.999999999999999</ele><time>2026-04-19T11:59:44.999Z</time></trkpt><trkpt lat="25.769137864133693" lon="-80.48222501350541"><ele>7.0</ele><time>2026-04-19T11:59:45.999Z</time></trkpt><trkpt lat="25.769032520912752" lon="-80.48221696923491"><ele>7.0</ele><time>2026-04-19T11:59:46.999Z</time></trkpt><trkpt lat="25.76892630603208" lon="-80.48220879160255"><ele>7.0</ele><time>2026-04-19T11:59:47.999Z</time></trkpt><trkpt lat="25.768821626834793" lon="-80.48220222688514"><ele>6.999999999999999</ele><time>2026-04-19T11:59:48.999Z</time></trkpt><trkpt lat="25.768713789781515" lon="-80.48219386656797"><ele>6.999999999999999</ele><time>2026-04-19T11:59:49.999Z</time></trkpt><trkpt lat="25.76860389246856" lon="-80.482186103687"><ele>7.0</ele><time>2026-04-19T11:59:50.999Z</time></trkpt><trkpt lat="25.768493564034248" lon="-80.4821774123942"><ele>7.0</ele><time>2026-04-19T11:59:51.999Z</time></trkpt><trkpt lat="25.76838414018536" lon="-80.48217046834111"><ele>7.199999999999999</ele><time>2026-04-19T11:59:52.999Z</time></trkpt><trkpt lat="25.768275014029015" lon="-80.48216215709215"><ele>7.3999999999999995</ele><time>2026-04-19T11:59:53.999Z</time></trkpt><trkpt lat="25.768165677106516" lon="-80.48215432863687"><ele>7.6000000000000005</ele><time>2026-04-19T11:59:54.999Z</time></trkpt><trkpt lat="25.76805626690625" lon="-80.48214731939815"><ele>7.800000000000001</ele><time>2026-04-19T11:59:55.999Z</time></trkpt><trkpt lat="25.767947787874494" lon="-80.48213680418603"><ele>8.0</ele><time>2026-04-19T11:59:56.999Z</time></trkpt><trkpt lat="25.7678390632552" lon="-80.482128706718"><ele>8.0</ele><time>2026-04-19T11:59:57.999Z</time></trkpt><trkpt lat="25.767729021251427" lon="-80.48212342964241"><ele>8.0</ele><time>2026-04-19T11:59:58.999Z</time></trkpt><trkpt lat="25.76761869157535" lon="-80.48211744795734"><ele>8.0</ele><time>2026-04-19T12:00:00Z</time></trkpt><trkpt lat="25.767509588018857" lon="-80.48211143535387"><ele>8.0</ele><time>2026-04-19T12:00:01Z</time></trkpt><trkpt lat="25.767405148233095" lon="-80.48210710713785"><ele>8.0</ele><time>2026-04-19T12:00:02Z</time></trkpt><trkpt lat="25.76730415884765" lon="-80.48210019498663"><ele>8.200000000000001</ele><time>2026-04-19T12:00:03Z</time></trkpt><trkpt lat="25.76720487094129" lon="-80.48208774270428"><ele>8.4</ele><time>2026-04-19T12:00:04Z</time></trkpt><trkpt lat="25.767100556145945" lon="-80.48207355520795"><ele>8.600000000000001</ele><time>2026-04-19T12:00:05Z</time></trkpt><trkpt lat="25.76699589532475" lon="-80.48206365148731"><ele>8.8</ele><time>2026-04-19T12:00:06Z</time></trkpt><trkpt lat="25.766890108693" lon="-80.48205173614943"><ele>9.0</ele><time>2026-04-19T12:00:07Z</time></trkpt><trkpt lat="25.766785176604337" lon="-80.48203968799638"><ele>9.2</ele><time>2026-04-19T12:00:08Z</time></trkpt><trkpt lat="25.766684616235718" lon="-80.48202969263583"><ele>9.4</ele><time>2026-04-19T12:00:09Z</time></trkpt><trkpt lat="25.76658455954192" lon="-80.48201827461406"><ele>9.6</ele><time>2026-04-19T12:00:10Z</time></trkpt><trkpt lat="25.766483313399817" lon="-80.48200772513135"><ele>9.8</ele><time>2026-04-19T12:00:11Z</time></trkpt><trkpt lat="25.766380820901492" lon="-80.48199822991562"><ele>10.0</ele><time>2026-04-19T12:00:12Z</time></trkpt><trkpt lat="25.766279594925212" lon="-80.48199000480312"><ele>10.0</ele><time>2026-04-19T12:00:13Z</time></trkpt><trkpt lat="25.76617820539608" lon="-80.48197882676189"><ele>10.0</ele><time>2026-04-19T12:00:14Z</time></trkpt><trkpt lat="25.766079220603455" lon="-80.48196881332456"><ele>10.0</ele><time>2026-04-19T12:00:15Z</time></trkpt><trkpt lat="25.765981402626338" lon="-80.48195965244881"><ele>10.0</ele><time>2026-04-19T12:00:16Z</time></trkpt><trkpt lat="25.765886655877036" lon="-80.48195499372812"><ele>10.0</ele><time>2026-04-19T12:00:17Z</time></trkpt><trkpt lat="25.765796042305478" lon="-80.48194938505239"><ele>10.2</ele><time>2026-04-19T12:00:18Z</time></trkpt><trkpt lat="25.765714891010987" lon="-80.48194158281261"><ele>10.4</ele><time>2026-04-19T12:00:19Z</time></trkpt><trkpt lat="25.76564647250981" lon="-80.48193368353387"><ele>10.600000000000001</ele><time>2026-04-19T12:00:20Z</time></trkpt><trkpt lat="25.76553461808902" lon="-80.48191446620966"><ele>10.8</ele><time>2026-04-19T12:00:22Z</time></trkpt><trkpt lat="25.765446207156568" lon="-80.48185744255491"><ele>11.0</ele><time>2026-04-19T12:00:24Z</time></trkpt><trkpt lat="25.76531893095371" lon="-80.48168283706524"><ele>11.0</ele><time>2026-04-19T12:00:27Z</time></trkpt><trkpt lat="25.76556534551758" lon="-80.48168029131693"><ele>11.0</ele><time>2026-04-19T12:00:28Z</time></trkpt><trkpt lat="25.76563803455572" lon="-80.48167414286328"><ele>11.0</ele><time>2026-04-19T12:00:29Z</time></trkpt><trkpt lat="25.765714155019975" lon="-80.48167331452882"><ele>11.0</ele><time>2026-04-19T12:00:30Z</time></trkpt><trkpt lat="25.765795878881633" lon="-80.48168155172067"><ele>11.0</ele><time>2026-04-19T12:00:31Z</time></trkpt><trkpt lat="25.76588017789539" lon="-80.48169229140406"><ele>11.0</ele><time>2026-04-19T12:00:32Z</time></trkpt><trkpt lat="25.765967262809088" lon="-80.48170342373172"><ele>11.0</ele><time>2026-04-19T12:00:33Z</time></trkpt><trkpt lat="25.766055403207105" lon="-80.4817146125515"><ele>11.0</ele><time>2026-04-19T12:00:34Z</time></trkpt><trkpt lat="25.766146153914097" lon="-80.4817265525768"><ele>11.0</ele><time>2026-04-19T12:00:35Z</time></trkpt><trkpt lat="25.766238925803105" lon="-80.48173617252287"><ele>11.0</ele><time>2026-04-19T12:00:36Z</time></trkpt><trkpt lat="25.766333340635498" lon="-80.48174872543501"><ele>10.8</ele><time>2026-04-19T12:00:37Z</time></trkpt><trkpt lat="25.76643108393976" lon="-80.48175875711402"><ele>10.600000000000001</ele><time>2026-04-19T12:00:38Z</time></trkpt><trkpt lat="25.766533354890086" lon="-80.48176949516385"><ele>10.4</ele><time>2026-04-19T12:00:39Z</time></trkpt><trkpt lat="25.766639345284243" lon="-80.48178161617014"><ele>10.2</ele><time>2026-04-19T12:00:40Z</time></trkpt><trkpt lat="25.76674431068467" lon="-80.48179422013983"><ele>10.0</ele><time>2026-04-19T12:00:41Z</time></trkpt><trkpt lat="25.766848873802502" lon="-80.4818040014608"><ele>9.8</ele><time>2026-04-19T12:00:42Z</time></trkpt><trkpt lat="25.76695324117167" lon="-80.48181431164525"><ele>9.6</ele><time>2026-04-19T12:00:43Z</time></trkpt><trkpt lat="25.7670613158806" lon="-80.48182555107331"><ele>9.4</ele><time>2026-04-19T12:00:44Z</time></trkpt><trkpt lat="25.767166078944733" lon="-80.48183589765884"><ele>9.2</ele><time>2026-04-19T12:00:45Z</time></trkpt><trkpt lat="25.767271468499445" lon="-80.4818447235279"><ele>9.0</ele><time>2026-04-19T12:00:46Z</time></trkpt><trkpt lat="25.767374521099836" lon="-80.48185434828567"><ele>9.0</ele><time>2026-04-19T12:00:47Z</time></trkpt><trkpt lat="25.767476321835517" lon="-80.48186189000141"><ele>9.0</ele><time>2026-04-19T12:00:48Z</time></trkpt><trkpt lat="25.767575863452794" lon="-80.4818694784769"><ele>9.0</ele><time>2026-04-19T12:00:49Z</time></trkpt><trkpt lat="25.767670817157665" lon="-80.48187723157322"><ele>9.0</ele><time>2026-04-19T12:00:50Z</time></trkpt><trkpt lat="25.76776634484415" lon="-80.48188594872352"><ele>9.0</ele><time>2026-04-19T12:00:51Z</time></trkpt><trkpt lat="25.76786201639657" lon="-80.48189279985205"><ele>9.8</ele><time>2026-04-19T12:00:52Z</time></trkpt><trkpt lat="25.767959897966396" lon="-80.48189914519482"><ele>10.600000000000001</ele><time>2026-04-19T12:00:53Z</time></trkpt><trkpt lat="25.768058033698225" lon="-80.48190553505685"><ele>11.4</ele><time>2026-04-19T12:00:54Z</time></trkpt><trkpt lat="25.768154914806512" lon="-80.48191297765422"><ele>12.200000000000001</ele><time>2026-04-19T12:00:55Z</time></trkpt><trkpt lat="25.768254239629545" lon="-80.48192317748533"><ele>13.0</ele><time>2026-04-19T12:00:56Z</time></trkpt><trkpt lat="25.768351574554835" lon="-80.48193077616001"><ele>13.0</ele><time>2026-04-19T12:00:57Z</time></trkpt><trkpt lat="25.76844871325931" lon="-80.4819405542867"><ele>13.0</ele><time>2026-04-19T12:00:58Z</time></trkpt><trkpt lat="25.76854488820627" lon="-80.4819498031382"><ele>13.0</ele><time>2026-04-19T12:00:59Z</time></trkpt><trkpt lat="25.768641250838012" lon="-80.48195692726338"><ele>13.0</ele><time>2026-04-19T12:01:00Z</time></trkpt><trkpt lat="25.7687361658823" lon="-80.48196358089922"><ele>13.0</ele><time>2026-04-19T12:01:01Z</time></trkpt><trkpt lat="25.768832902668155" lon="-80.4819704570281"><ele>13.0</ele><time>2026-04-19T12:01:02Z</time></trkpt><trkpt lat="25.76892877490076" lon="-80.48197759544037"><ele>13.0</ele><time>2026-04-19T12:01:03Z</time></trkpt><trkpt lat="25.76902472055511" lon="-80.48198353838046"><ele>13.0</ele><time>2026-04-19T12:01:04Z</time></trkpt><trkpt lat="25.769120916878293" lon="-80.48198803509509"><ele>13.0</ele><time>2026-04-19T12:01:05Z</time></trkpt><trkpt lat="25.76921841500802" lon="-80.48199540007909"><ele>13.0</ele><time>2026-04-19T12:01:06Z</time></trkpt><trkpt lat="25.769314330565123" lon="-80.48200391713723"><ele>12.600000000000001</ele><time>2026-04-19T12:01:07Z</time></trkpt><trkpt lat="25.769411636050204" lon="-80.48201080388354"><ele>12.200000000000001</ele><time>2026-04-19T12:01:08Z</time></trkpt><trkpt lat="25.76950966544227" lon="-80.48201751881292"><ele>11.8</ele><time>2026-04-19T12:01:09Z</time></trkpt><trkpt lat="25.769607295361016" lon="-80.48202484885995"><ele>11.4</ele><time>2026-04-19T12:01:10Z</time></trkpt><trkpt lat="25.76970259197324" lon="-80.48203221603838"><ele>11.0</ele><time>2026-04-19T12:01:10.999Z</time></trkpt><trkpt lat="25.769799139054197" lon="-80.48203881144102"><ele>11.0</ele><time>2026-04-19T12:01:11.999Z</time></trkpt><trkpt lat="25.76989681003979" lon="-80.48204614894235"><ele>11.0</ele><time>2026-04-19T12:01:12.999Z</time></trkpt><trkpt lat="25.769996328446574" lon="-80.48205300800363"><ele>11.0</ele><time>2026-04-19T12:01:13.999Z</time></trkpt><trkpt lat="25.770094600821007" lon="-80.48206096201243"><ele>11.0</ele><time>2026-04-19T12:01:14.999Z</time></trkpt><trkpt lat="25.77019491149877" lon="-80.4820696874272"><ele>11.0</ele><time>2026-04-19T12:01:15.999Z</time></trkpt><trkpt lat="25.770294045573653" lon="-80.48207758522622"><ele>11.600000000000001</ele><time>2026-04-19T12:01:16.999Z</time></trkpt><trkpt lat="25.770395201305895" lon="-80.4820840199471"><ele>12.2</ele><time>2026-04-19T12:01:17.999Z</time></trkpt><trkpt lat="25.77049638970723" lon="-80.48209306334381"><ele>12.799999999999999</ele><time>2026-04-19T12:01:18.999Z</time></trkpt><trkpt lat="25.770596646492795" lon="-80.48210193404557"><ele>13.399999999999999</ele><time>2026-04-19T12:01:19.999Z</time></trkpt><trkpt lat="25.77069705186744" lon="-80.4821121436665"><ele>14.0</ele><time>2026-04-19T12:01:20.999Z</time></trkpt><trkpt lat="25.77079694044654" lon="-80.48211739319134"><ele>12.6</ele><time>2026-04-19T12:01:21.999Z</time></trkpt><trkpt lat="25.770897667014207" lon="-80.48212400313965"><ele>11.2</ele><time>2026-04-19T12:01:22.999Z</time></trkpt><trkpt lat="25.7709964549449" lon="-80.48213053701548"><ele>9.799999999999999</ele><time>2026-04-19T12:01:23.999Z</time></trkpt><trkpt lat="25.77109569417075" lon="-80.48213816438512"><ele>8.399999999999999</ele><time>2026-04-19T12:01:24.999Z</time></trkpt><trkpt lat="25.77119405879128" lon="-80.4821477438547"><ele>7.0</ele><time>2026-04-19T12:01:25.999Z</time></trkpt><trkpt lat="25.77129359289727" lon="-80.48215979071618"><ele>7.0</ele><time>2026-04-19T12:01:26.999Z</time></trkpt><trkpt lat="25.771392402377828" lon="-80.4821673834849"><ele>6.999999999999999</ele><time>2026-04-19T12:01:27.999Z</time></trkpt><trkpt lat="25.77149046372152" lon="-80.48217454687293"><ele>6.999999999999999</ele><time>2026-04-19T12:01:28.999Z</time></trkpt><trkpt lat="25.771591148346058" lon="-80.48217970711228"><ele>7.0</ele><time>2026-04-19T12:01:29.999Z</time></trkpt><trkpt lat="25.771691881199533" lon="-80.48218573346979"><ele>7.0</ele><time>2026-04-19T12:01:30.999Z</time></trkpt><trkpt lat="25.771790967311635" lon="-80.48219316408326"><ele>7.3999999999999995</ele><time>2026-04-19T12:01:31.999Z</time></trkpt><trkpt lat="25.771890484108848" lon="-80.48220092305613"><ele>7.799999999999999</ele><time>2026-04-19T12:01:32.999Z</time></trkpt><trkpt lat="25.771988679673292" lon="-80.48220920432689"><ele>8.2</ele><time>2026-04-19T12:01:33.999Z</time></trkpt><trkpt lat="25.772088278149987" lon="-80.4822178929148"><ele>8.6</ele><time>2026-04-19T12:01:34.999Z</time></trkpt><trkpt lat="25.77218658419754" lon="-80.4822255958703"><ele>9.0</ele><time>2026-04-19T12:01:35.999Z</time></trkpt><trkpt lat="25.772284658622993" lon="-80.48223349702847"><ele>9.0</ele><time>2026-04-19T12:01:36.999Z</time></trkpt><trkpt lat="25.772383719827733" lon="-80.48223856857585"><ele>9.0</ele><time>2026-04-19T12:01:37.999Z</time></trkpt><trkpt lat="25.77248363385887" lon="-80.48224414897449"><ele>9.0</ele><time>2026-04-19T12:01:38.999Z</time></trkpt><trkpt lat="25.772582378335514" lon="-80.48224979504475"><ele>9.0</ele><time>2026-04-19T12:01:39.999Z</time></trkpt><trkpt lat="25.772681713360257" lon="-80.48225530814541"><ele>9.0</ele><time>2026-04-19T12:01:40.999Z</time></trkpt><trkpt lat="25.772780416169994" lon="-80.4822599583403"><ele>9.0</ele><time>2026-04-19T12:01:41.999Z</time></trkpt><trkpt lat="25.772879465498054" lon="-80.48226147882059"><ele>9.0</ele><time>2026-04-19T12:01:42.999Z</time></trkpt><trkpt lat="25.772979575118406" lon="-80.48226752429571"><ele>9.0</ele><time>2026-04-19T12:01:43.999Z</time></trkpt><trkpt lat="25.77307934308546" lon="-80.48227149011564"><ele>9.0</ele><time>2026-04-19T12:01:44.999Z</time></trkpt><trkpt lat="25.77318111742658" lon="-80.482273551528"><ele>9.0</ele><time>2026-04-19T12:01:45.999Z</time></trkpt><trkpt lat="25.773282250388373" lon="-80.48227110011602"><ele>9.0</ele><time>2026-04-19T12:01:46.999Z</time></trkpt><trkpt lat="25.77338302295494" lon="-80.48227099132333"><ele>9.0</ele><time>2026-04-19T12:01:47.999Z</time></trkpt><trkpt lat="25.773483791735" lon="-80.48227232350067"><ele>9.0</ele><time>2026-04-19T12:01:48.999Z</time></trkpt><trkpt lat="25.7735845032389" lon="-80.48227179707935"><ele>9.0</ele><time>2026-04-19T12:01:49.999Z</time></trkpt><trkpt lat="25.77368616024442" lon="-80.48226933682992"><ele>9.0</ele><time>2026-04-19T12:01:50.999Z</time></trkpt><trkpt lat="25.773789313009228" lon="-80.48226938117104"><ele>9.6</ele><time>2026-04-19T12:01:51.999Z</time></trkpt><trkpt lat="25.77389344248176" lon="-80.48226674219319"><ele>10.2</ele><time>2026-04-19T12:01:52.999Z</time></trkpt><trkpt lat="25.773997887661253" lon="-80.48226229366846"><ele>10.799999999999999</ele><time>2026-04-19T12:01:53.999Z</time></trkpt><trkpt lat="25.774104794285613" lon="-80.48225673722075"><ele>11.4</ele><time>2026-04-19T12:01:54.999Z</time></trkpt><trkpt lat="25.77421240297371" lon="-80.48225346290184"><ele>12.0</ele><time>2026-04-19T12:01:55.999Z</time></trkpt><trkpt lat="25.77431969498179" lon="-80.48224784612351"><ele>12.2</ele><time>2026-04-19T12:01:56.999Z</time></trkpt><trkpt lat="25.774427066078122" lon="-80.48224162249095"><ele>12.399999999999999</ele><time>2026-04-19T12:01:57.999Z</time></trkpt><trkpt lat="25.774534039703223" lon="-80.48223377982184"><ele>12.600000000000001</ele><time>2026-04-19T12:01:58.999Z</time></trkpt><trkpt lat="25.774641001256903" lon="-80.48222570609943"><ele>12.8</ele><time>2026-04-19T12:01:59.999Z</time></trkpt><trkpt lat="25.774747584048214" lon="-80.48221568718598"><ele>13.0</ele><time>2026-04-19T12:02:00.999Z</time></trkpt><trkpt lat="25.7748533028282" lon="-80.48220716237687"><ele>13.0</ele><time>2026-04-19T12:02:01.999Z</time></trkpt><trkpt lat="25.774957512723702" lon="-80.48219816753897"><ele>13.0</ele><time>2026-04-19T12:02:02.999Z</time></trkpt><trkpt lat="25.775061277158326" lon="-80.48219071884846"><ele>13.0</ele><time>2026-04-19T12:02:03.999Z</time></trkpt><trkpt lat="25.775165860149293" lon="-80.48218259201329"><ele>13.0</ele><time>2026-04-19T12:02:04.999Z</time></trkpt><trkpt lat="25.775269443520152" lon="-80.48217381769625"><ele>13.0</ele><time>2026-04-19T12:02:06Z</time></trkpt><trkpt lat="25.77537292541475" lon="-80.48216565165184"><ele>11.6</ele><time>2026-04-19T12:02:07Z</time></trkpt><trkpt lat="25.77547546660894" lon="-80.48215756077975"><ele>10.200000000000001</ele><time>2026-04-19T12:02:08Z</time></trkpt><trkpt lat="25.775578255681513" lon="-80.4821507416498"><ele>8.8</ele><time>2026-04-19T12:02:09Z</time></trkpt><trkpt lat="25.775681667018944" lon="-80.48214141964331"><ele>7.4</ele><time>2026-04-19T12:02:10Z</time></trkpt><trkpt lat="25.775783937714607" lon="-80.48213156698924"><ele>6.0</ele><time>2026-04-19T12:02:11Z</time></trkpt><trkpt lat="25.77588740154107" lon="-80.4821224095304"><ele>6.0</ele><time>2026-04-19T12:02:12Z</time></trkpt><trkpt lat="25.775988923616453" lon="-80.48211219279722"><ele>6.0</ele><time>2026-04-19T12:02:13Z</time></trkpt><trkpt lat="25.776087500715686" lon="-80.48210362922299"><ele>6.0</ele><time>2026-04-19T12:02:14Z</time></trkpt><trkpt lat="25.77618605739051" lon="-80.48209637163649"><ele>6.0</ele><time>2026-04-19T12:02:15Z</time></trkpt><trkpt lat="25.77628572196361" lon="-80.48208669314212"><ele>6.0</ele><time>2026-04-19T12:02:16Z</time></trkpt><trkpt lat="25.776384508095195" lon="-80.48207954310422"><ele>6.4</ele><time>2026-04-19T12:02:17Z</time></trkpt><trkpt lat="25.776482050078414" lon="-80.48207087641515"><ele>6.8</ele><time>2026-04-19T12:02:18Z</time></trkpt><trkpt lat="25.776579974328374" lon="-80.48206086291273"><ele>7.200000000000001</ele><time>2026-04-19T12:02:19Z</time></trkpt><trkpt lat="25.776680145920917" lon="-80.4820532533261"><ele>7.6000000000000005</ele><time>2026-04-19T12:02:20Z</time></trkpt><trkpt lat="25.776781749776628" lon="-80.48204484435007"><ele>8.0</ele><time>2026-04-19T12:02:21Z</time></trkpt><trkpt lat="25.776885308239642" lon="-80.48203782594437"><ele>8.0</ele><time>2026-04-19T12:02:22Z</time></trkpt><trkpt lat="25.776986793781866" lon="-80.48202892231527"><ele>8.0</ele><time>2026-04-19T12:02:23Z</time></trkpt><trkpt lat="25.77708831602432" lon="-80.48202056726653"><ele>8.0</ele><time>2026-04-19T12:02:24Z</time></trkpt><trkpt lat="25.777190539596038" lon="-80.48201133310114"><ele>8.0</ele><time>2026-04-19T12:02:25Z</time></trkpt><trkpt lat="25.777292466875437" lon="-80.48200138338676"><ele>8.0</ele><time>2026-04-19T12:02:26Z</time></trkpt><trkpt lat="25.77739527747544" lon="-80.48199429844964"><ele>8.0</ele><time>2026-04-19T12:02:27Z</time></trkpt><trkpt lat="25.777497716711498" lon="-80.4819870814911"><ele>8.0</ele><time>2026-04-19T12:02:28Z</time></trkpt><trkpt lat="25.777600422942015" lon="-80.48198023806175"><ele>8.0</ele><time>2026-04-19T12:02:29Z</time></trkpt><trkpt lat="25.77770457682298" lon="-80.48196973760365"><ele>8.0</ele><time>2026-04-19T12:02:30Z</time></trkpt><trkpt lat="25.77780975048782" lon="-80.48196244008915"><ele>8.0</ele><time>2026-04-19T12:02:31Z</time></trkpt><trkpt lat="25.777915801685847" lon="-80.48195644224242"><ele>8.4</ele><time>2026-04-19T12:02:32Z</time></trkpt><trkpt lat="25.77802353423832" lon="-80.4819470655341"><ele>8.8</ele><time>2026-04-19T12:02:33Z</time></trkpt><trkpt lat="25.778132326665848" lon="-80.48193890051616"><ele>9.2</ele><time>2026-04-19T12:02:34Z</time></trkpt><trkpt lat="25.778241140982498" lon="-80.48192817598691"><ele>9.6</ele><time>2026-04-19T12:02:35Z</time></trkpt><trkpt lat="25.778350630802105" lon="-80.48191841254354"><ele>10.0</ele><time>2026-04-19T12:02:36Z</time></trkpt><trkpt lat="25.778460454960005" lon="-80.48190772074909"><ele>10.0</ele><time>2026-04-19T12:02:37Z</time></trkpt><trkpt lat="25.77857128144909" lon="-80.4818976616709"><ele>10.0</ele><time>2026-04-19T12:02:38Z</time></trkpt><trkpt lat="25.778678673742643" lon="-80.48189174503906"><ele>10.0</ele><time>2026-04-19T12:02:39Z</time></trkpt><trkpt lat="25.778784748308045" lon="-80.48188332457066"><ele>10.0</ele><time>2026-04-19T12:02:40Z</time></trkpt><trkpt lat="25.778887728392682" lon="-80.48187294680991"><ele>10.0</ele><time>2026-04-19T12:02:41Z</time></trkpt><trkpt lat="25.778990115158873" lon="-80.48186204552725"><ele>10.0</ele><time>2026-04-19T12:02:42Z</time></trkpt><trkpt lat="25.779092679125856" lon="-80.48185115659238"><ele>10.0</ele><time>2026-04-19T12:02:43Z</time></trkpt><trkpt lat="25.779192181379774" lon="-80.48184241630636"><ele>10.0</ele><time>2026-04-19T12:02:44Z</time></trkpt><trkpt lat="25.77929176988235" lon="-80.48183703106648"><ele>10.0</ele><time>2026-04-19T12:02:45Z</time></trkpt><trkpt lat="25.77938873747981" lon="-80.48183033422028"><ele>10.0</ele><time>2026-04-19T12:02:46Z</time></trkpt><trkpt lat="25.779483720130504" lon="-80.48182321146315"><ele>9.6</ele><time>2026-04-19T12:02:47Z</time></trkpt><trkpt lat="25.779576964451095" lon="-80.48181353743608"><ele>9.2</ele><time>2026-04-19T12:02:48Z</time></trkpt><trkpt lat="25.77966832864549" lon="-80.48180056176943"><ele>8.8</ele><time>2026-04-19T12:02:49Z</time></trkpt><trkpt lat="25.77975751973288" lon="-80.48178590914856"><ele>8.4</ele><time>2026-04-19T12:02:50Z</time></trkpt><trkpt lat="25.779847617768194" lon="-80.48177733918575"><ele>8.0</ele><time>2026-04-19T12:02:51Z</time></trkpt><trkpt lat="25.77993935253337" lon="-80.48176733614078"><ele>7.999999999999999</ele><time>2026-04-19T12:02:52Z</time></trkpt><trkpt lat="25.7800314814145" lon="-80.48175625443594"><ele>8.0</ele><time>2026-04-19T12:02:53Z</time></trkpt><trkpt lat="25.780118568404507" lon="-80.48174886183654"><ele>8.0</ele><time>2026-04-19T12:02:54Z</time></trkpt><trkpt lat="25.78020637247644" lon="-80.48174186151515"><ele>8.0</ele><time>2026-04-19T12:02:55Z</time></trkpt><trkpt lat="25.780292291385962" lon="-80.4817349556782"><ele>7.999999999999999</ele><time>2026-04-19T12:02:56Z</time></trkpt><trkpt lat="25.780375988532914" lon="-80.48172419147865"><ele>8.0</ele><time>2026-04-19T12:02:57Z</time></trkpt><trkpt lat="25.780455359937402" lon="-80.48171254997986"><ele>7.999999999999999</ele><time>2026-04-19T12:02:58Z</time></trkpt><trkpt lat="25.78053259690645" lon="-80.48170366851524"><ele>8.0</ele><time>2026-04-19T12:02:59Z</time></trkpt><trkpt lat="25.78061034595615" lon="-80.4816973540073"><ele>8.0</ele><time>2026-04-19T12:03:00Z</time></trkpt><trkpt lat="25.780691316601164" lon="-80.4816937534751"><ele>8.0</ele><time>2026-04-19T12:03:01Z</time></trkpt><trkpt lat="25.78077510526707" lon="-80.48168736653791"><ele>7.999999999999999</ele><time>2026-04-19T12:03:02Z</time></trkpt><trkpt lat="25.780859464474094" lon="-80.48167681162413"><ele>8.0</ele><time>2026-04-19T12:03:03Z</time></trkpt><trkpt lat="25.7809451494563" lon="-80.48166651391561"><ele>7.999999999999999</ele><time>2026-04-19T12:03:04Z</time></trkpt><trkpt lat="25.781032677126067" lon="-80.48165672605036"><ele>8.0</ele><time>2026-04-19T12:03:05Z</time></trkpt><trkpt lat="25.781119284429483" lon="-80.4816458466924"><ele>8.0</ele><time>2026-04-19T12:03:06Z</time></trkpt><trkpt lat="25.781204729507753" lon="-80.48163557842636"><ele>8.0</ele><time>2026-04-19T12:03:07Z</time></trkpt><trkpt lat="25.781290260768024" lon="-80.48162795645173"><ele>7.999999999999999</ele><time>2026-04-19T12:03:08Z</time></trkpt><trkpt lat="25.78137279065258" lon="-80.48161997554823"><ele>8.0</ele><time>2026-04-19T12:03:09Z</time></trkpt><trkpt lat="25.781456815052255" lon="-80.48161243227219"><ele>7.999999999999999</ele><time>2026-04-19T12:03:10Z</time></trkpt><trkpt lat="25.781540231240704" lon="-80.48160512052551"><ele>8.0</ele><time>2026-04-19T12:03:11Z</time></trkpt><trkpt lat="25.78162554829136" lon="-80.48159851206353"><ele>8.0</ele><time>2026-04-19T12:03:11.999Z</time></trkpt><trkpt lat="25.781715773385354" lon="-80.48159186448115"><ele>8.0</ele><time>2026-04-19T12:03:12.999Z</time></trkpt><trkpt lat="25.781805737576015" lon="-80.48158602602831"><ele>7.999999999999999</ele><time>2026-04-19T12:03:13.999Z</time></trkpt><trkpt lat="25.781895953400124" lon="-80.48157643928043"><ele>8.0</ele><time>2026-04-19T12:03:14.999Z</time></trkpt><trkpt lat="25.781985252328298" lon="-80.48156866315728"><ele>7.833333333333333</ele><time>2026-04-19T12:03:15.999Z</time></trkpt><trkpt lat="25.782072197489565" lon="-80.48156229693578"><ele>7.666666666666666</ele><time>2026-04-19T12:03:16.999Z</time></trkpt><trkpt lat="25.782158854172614" lon="-80.48155875418027"><ele>7.5</ele><time>2026-04-19T12:03:17.999Z</time></trkpt><trkpt lat="25.78224553626688" lon="-80.4815542447063"><ele>7.333333333333334</ele><time>2026-04-19T12:03:18.999Z</time></trkpt><trkpt lat="25.782334727567545" lon="-80.48155120723665"><ele>7.166666666666667</ele><time>2026-04-19T12:03:19.999Z</time></trkpt><trkpt lat="25.782424981428846" lon="-80.48154906042386"><ele>7.0</ele><time>2026-04-19T12:03:20.999Z</time></trkpt><trkpt lat="25.782518108548203" lon="-80.48154644056146"><ele>7.0</ele><time>2026-04-19T12:03:21.999Z</time></trkpt><trkpt lat="25.782611588375673" lon="-80.48154162638603"><ele>6.999999999999999</ele><time>2026-04-19T12:03:22.999Z</time></trkpt><trkpt lat="25.782703518609964" lon="-80.48153986935127"><ele>6.999999999999999</ele><time>2026-04-19T12:03:23.999Z</time></trkpt><trkpt lat="25.78279250083848" lon="-80.48154074953125"><ele>7.0</ele><time>2026-04-19T12:03:24.999Z</time></trkpt><trkpt lat="25.782882051871198" lon="-80.48154050533907"><ele>7.0</ele><time>2026-04-19T12:03:25.999Z</time></trkpt><trkpt lat="25.78297217273731" lon="-80.48153937055929"><ele>7.199999999999999</ele><time>2026-04-19T12:03:26.999Z</time></trkpt><trkpt lat="25.783064429231146" lon="-80.48153937399181"><ele>7.3999999999999995</ele><time>2026-04-19T12:03:27.999Z</time></trkpt><trkpt lat="25.78315662368785" lon="-80.48154087796387"><ele>7.6000000000000005</ele><time>2026-04-19T12:03:28.999Z</time></trkpt><trkpt lat="25.783248089492464" lon="-80.48154335731567"><ele>7.800000000000001</ele><time>2026-04-19T12:03:29.999Z</time></trkpt><trkpt lat="25.783339048947816" lon="-80.48154419932223"><ele>8.0</ele><time>2026-04-19T12:03:30.999Z</time></trkpt><trkpt lat="25.78342848476808" lon="-80.48154718798399"><ele>7.999999999999999</ele><time>2026-04-19T12:03:31.999Z</time></trkpt><trkpt lat="25.7835173484269" lon="-80.48155176219267"><ele>8.0</ele><time>2026-04-19T12:03:32.999Z</time></trkpt><trkpt lat="25.78360392653803" lon="-80.4815580793065"><ele>8.0</ele><time>2026-04-19T12:03:33.999Z</time></trkpt><trkpt lat="25.78369001722791" lon="-80.48156391773502"><ele>8.0</ele><time>2026-04-19T12:03:34.999Z</time></trkpt><trkpt lat="25.78377462827602" lon="-80.48156653891684"><ele>7.999999999999999</ele><time>2026-04-19T12:03:35.999Z</time></trkpt><trkpt lat="25.783858355077495" lon="-80.48157309873041"><ele>8.0</ele><time>2026-04-19T12:03:36.999Z</time></trkpt><trkpt lat="25.783943769167532" lon="-80.48158044604624"><ele>8.0</ele><time>2026-04-19T12:03:37.999Z</time></trkpt><trkpt lat="25.784033204323837" lon="-80.48158879218155"><ele>8.0</ele><time>2026-04-19T12:03:38.999Z</time></trkpt><trkpt lat="25.784123207206193" lon="-80.4815961505562"><ele>8.0</ele><time>2026-04-19T12:03:39.999Z</time></trkpt><trkpt lat="25.784213683349517" lon="-80.48160212211012"><ele>8.0</ele><time>2026-04-19T12:03:40.999Z</time></trkpt><trkpt lat="25.784305108241124" lon="-80.48161020774329"><ele>8.0</ele><time>2026-04-19T12:03:41.999Z</time></trkpt><trkpt lat="25.784393011580466" lon="-80.48162023860522"><ele>8.4</ele><time>2026-04-19T12:03:42.999Z</time></trkpt><trkpt lat="25.784482629611002" lon="-80.48163170597833"><ele>8.8</ele><time>2026-04-19T12:03:43.999Z</time></trkpt><trkpt lat="25.784575985874525" lon="-80.48163972606989"><ele>9.2</ele><time>2026-04-19T12:03:44.999Z</time></trkpt><trkpt lat="25.784673364104616" lon="-80.48165177153298"><ele>9.6</ele><time>2026-04-19T12:03:45.999Z</time></trkpt><trkpt lat="25.78477409332363" lon="-80.48166068794932"><ele>10.0</ele><time>2026-04-19T12:03:46.999Z</time></trkpt><trkpt lat="25.784873694623155" lon="-80.48166865246503"><ele>10.0</ele><time>2026-04-19T12:03:47.999Z</time></trkpt><trkpt lat="25.78497194525676" lon="-80.48167805603303"><ele>10.0</ele><time>2026-04-19T12:03:48.999Z</time></trkpt><trkpt lat="25.78506646345856" lon="-80.48168812990339"><ele>10.0</ele><time>2026-04-19T12:03:49.999Z</time></trkpt><trkpt lat="25.78516061748916" lon="-80.48169634660618"><ele>10.0</ele><time>2026-04-19T12:03:50.999Z</time></trkpt><trkpt lat="25.785252217836543" lon="-80.48170712484762"><ele>10.0</ele><time>2026-04-19T12:03:51.999Z</time></trkpt><trkpt lat="25.785344999344087" lon="-80.48171567786837"><ele>10.2</ele><time>2026-04-19T12:03:52.999Z</time></trkpt><trkpt lat="25.785437471544824" lon="-80.48172456258297"><ele>10.4</ele><time>2026-04-19T12:03:53.999Z</time></trkpt><trkpt lat="25.785528665367895" lon="-80.4817346875909"><ele>10.600000000000001</ele><time>2026-04-19T12:03:54.999Z</time></trkpt><trkpt lat="25.78561965739932" lon="-80.48174547204718"><ele>10.8</ele><time>2026-04-19T12:03:55.999Z</time></trkpt><trkpt lat="25.785711025493722" lon="-80.48175602730802"><ele>11.0</ele><time>2026-04-19T12:03:56.999Z</time></trkpt><trkpt lat="25.785802144157646" lon="-80.48176213246737"><ele>11.0</ele><time>2026-04-19T12:03:57.999Z</time></trkpt><trkpt lat="25.78589333513855" lon="-80.48176932660611"><ele>11.0</ele><time>2026-04-19T12:03:58.999Z</time></trkpt><trkpt lat="25.785983018567627" lon="-80.48178000935606"><ele>11.0</ele><time>2026-04-19T12:03:59.999Z</time></trkpt><trkpt lat="25.786071703879724" lon="-80.48178936356062"><ele>11.0</ele><time>2026-04-19T12:04:00.999Z</time></trkpt><trkpt lat="25.786156473160204" lon="-80.4817976165313"><ele>11.0</ele><time>2026-04-19T12:04:01.999Z</time></trkpt><trkpt lat="25.78623926549072" lon="-80.4818038614191"><ele>11.0</ele><time>2026-04-19T12:04:02.999Z</time></trkpt><trkpt lat="25.786324645633872" lon="-80.48181121679352"><ele>10.833333333333332</ele><time>2026-04-19T12:04:03.999Z</time></trkpt><trkpt lat="25.786410968038176" lon="-80.4818170044871"><ele>10.666666666666666</ele><time>2026-04-19T12:04:04.999Z</time></trkpt><trkpt lat="25.78649983001036" lon="-80.48182314037024"><ele>10.5</ele><time>2026-04-19T12:04:05.999Z</time></trkpt><trkpt lat="25.786590258286886" lon="-80.48183027339657"><ele>10.333333333333334</ele><time>2026-04-19T12:04:06.999Z</time></trkpt><trkpt lat="25.786679979248913" lon="-80.48183650772701"><ele>10.166666666666668</ele><time>2026-04-19T12:04:07.999Z</time></trkpt><trkpt lat="25.786771084686716" lon="-80.48184508682127"><ele>10.0</ele><time>2026-04-19T12:04:08.999Z</time></trkpt><trkpt lat="25.78686079100282" lon="-80.48185252667642"><ele>10.4</ele><time>2026-04-19T12:04:09.999Z</time></trkpt><trkpt lat="25.786952897273146" lon="-80.48186226200623"><ele>10.8</ele><time>2026-04-19T12:04:10.999Z</time></trkpt><trkpt lat="25.78704433666675" lon="-80.48187026815022"><ele>11.2</ele><time>2026-04-19T12:04:12Z</time></trkpt><trkpt lat="25.7871357723502" lon="-80.48187897109446"><ele>11.6</ele><time>2026-04-19T12:04:13Z</time></trkpt><trkpt lat="25.78722837278395" lon="-80.48188738590494"><ele>12.0</ele><time>2026-04-19T12:04:14Z</time></trkpt><trkpt lat="25.787319926518943" lon="-80.48189605365155"><ele>12.0</ele><time>2026-04-19T12:04:15Z</time></trkpt><trkpt lat="25.787413579474126" lon="-80.48190298611038"><ele>12.0</ele><time>2026-04-19T12:04:16Z</time></trkpt><trkpt lat="25.787505069133463" lon="-80.48191174557088"><ele>12.0</ele><time>2026-04-19T12:04:17Z</time></trkpt><trkpt lat="25.787597558634825" lon="-80.48191915734952"><ele>12.0</ele><time>2026-04-19T12:04:18Z</time></trkpt><trkpt lat="25.787689954979108" lon="-80.48192538801759"><ele>12.0</ele><time>2026-04-19T12:04:19Z</time></trkpt><trkpt lat="25.787779742470217" lon="-80.4819315759786"><ele>11.333333333333334</ele><time>2026-04-19T12:04:20Z</time></trkpt><trkpt lat="25.787869881949554" lon="-80.4819388016513"><ele>10.666666666666666</ele><time>2026-04-19T12:04:21Z</time></trkpt><trkpt lat="25.78795868000448" lon="-80.4819479204965"><ele>10.0</ele><time>2026-04-19T12:04:22Z</time></trkpt><trkpt lat="25.788047311704812" lon="-80.4819583971301"><ele>9.333333333333332</ele><time>2026-04-19T12:04:23Z</time></trkpt><trkpt lat="25.788136822502707" lon="-80.48196222939347"><ele>8.666666666666666</ele><time>2026-04-19T12:04:24Z</time></trkpt><trkpt lat="25.788227516432848" lon="-80.48196800597125"><ele>8.0</ele><time>2026-04-19T12:04:25Z</time></trkpt><trkpt lat="25.788315558834416" lon="-80.48197486454629"><ele>7.999999999999999</ele><time>2026-04-19T12:04:26Z</time></trkpt><trkpt lat="25.78840162852195" lon="-80.48198202393864"><ele>8.0</ele><time>2026-04-19T12:04:27Z</time></trkpt><trkpt lat="25.788486823428585" lon="-80.48199073844353"><ele>8.0</ele><time>2026-04-19T12:04:28Z</time></trkpt><trkpt lat="25.78857215638969" lon="-80.48199845464218"><ele>8.0</ele><time>2026-04-19T12:04:29Z</time></trkpt><trkpt lat="25.788659694114756" lon="-80.48200411502016"><ele>7.999999999999999</ele><time>2026-04-19T12:04:30Z</time></trkpt><trkpt lat="25.788749551985916" lon="-80.48201094195022"><ele>8.0</ele><time>2026-04-19T12:04:31Z</time></trkpt><trkpt lat="25.78884045535756" lon="-80.48202066602198"><ele>8.4</ele><time>2026-04-19T12:04:32Z</time></trkpt><trkpt lat="25.788931133307166" lon="-80.48202816838324"><ele>8.8</ele><time>2026-04-19T12:04:33Z</time></trkpt><trkpt lat="25.789023374691553" lon="-80.48203537436842"><ele>9.2</ele><time>2026-04-19T12:04:34Z</time></trkpt><trkpt lat="25.789115219820303" lon="-80.48204426657597"><ele>9.6</ele><time>2026-04-19T12:04:35Z</time></trkpt><trkpt lat="25.7892059614496" lon="-80.48205142260419"><ele>10.0</ele><time>2026-04-19T12:04:36Z</time></trkpt><trkpt lat="25.789297205096027" lon="-80.48206069551998"><ele>11.0</ele><time>2026-04-19T12:04:37Z</time></trkpt><trkpt lat="25.789388259798244" lon="-80.48206837400625"><ele>12.0</ele><time>2026-04-19T12:04:38Z</time></trkpt><trkpt lat="25.789478372364776" lon="-80.48207461940966"><ele>13.0</ele><time>2026-04-19T12:04:39Z</time></trkpt><trkpt lat="25.789568489746" lon="-80.48208117075501"><ele>14.0</ele><time>2026-04-19T12:04:40Z</time></trkpt><trkpt lat="25.78965603429023" lon="-80.48208948291554"><ele>15.0</ele><time>2026-04-19T12:04:41Z</time></trkpt><trkpt lat="25.78974659364344" lon="-80.48209729852513"><ele>14.4</ele><time>2026-04-19T12:04:42Z</time></trkpt><trkpt lat="25.789838546085733" lon="-80.48210522816143"><ele>13.8</ele><time>2026-04-19T12:04:43Z</time></trkpt><trkpt lat="25.78992935838263" lon="-80.48211380831268"><ele>13.2</ele><time>2026-04-19T12:04:44Z</time></trkpt><trkpt lat="25.790021535811675" lon="-80.48212094073716"><ele>12.6</ele><time>2026-04-19T12:04:45Z</time></trkpt><trkpt lat="25.790111498858906" lon="-80.4821286654665"><ele>12.0</ele><time>2026-04-19T12:04:46Z</time></trkpt><trkpt lat="25.790200472299148" lon="-80.48213710172614"><ele>12.0</ele><time>2026-04-19T12:04:47Z</time></trkpt><trkpt lat="25.790290223574175" lon="-80.48214354145263"><ele>12.0</ele><time>2026-04-19T12:04:48Z</time></trkpt><trkpt lat="25.790379935389684" lon="-80.48215099878858"><ele>12.0</ele><time>2026-04-19T12:04:49Z</time></trkpt><trkpt lat="25.79047221355262" lon="-80.48215779468956"><ele>12.0</ele><time>2026-04-19T12:04:50Z</time></trkpt><trkpt lat="25.790564852269323" lon="-80.48216422529802"><ele>12.0</ele><time>2026-04-19T12:04:51Z</time></trkpt><trkpt lat="25.790655809207337" lon="-80.48217092196901"><ele>12.0</ele><time>2026-04-19T12:04:52Z</time></trkpt><trkpt lat="25.79074507877317" lon="-80.48217947937421"><ele>12.0</ele><time>2026-04-19T12:04:53Z</time></trkpt><trkpt lat="25.790833622108266" lon="-80.48218800934463"><ele>12.0</ele><time>2026-04-19T12:04:54Z</time></trkpt><trkpt lat="25.790922040413598" lon="-80.48219409826467"><ele>12.0</ele><time>2026-04-19T12:04:55Z</time></trkpt><trkpt lat="25.79101053605266" lon="-80.48220169143374"><ele>12.0</ele><time>2026-04-19T12:04:56Z</time></trkpt><trkpt lat="25.791100023275447" lon="-80.48221006842965"><ele>12.0</ele><time>2026-04-19T12:04:57Z</time></trkpt><trkpt lat="25.791187799956898" lon="-80.48221705239875"><ele>11.6</ele><time>2026-04-19T12:04:58Z</time></trkpt><trkpt lat="25.791276497462288" lon="-80.48222528706933"><ele>11.2</ele><time>2026-04-19T12:04:59Z</time></trkpt><trkpt lat="25.791366300716962" lon="-80.4822325673971"><ele>10.8</ele><time>2026-04-19T12:05:00Z</time></trkpt><trkpt lat="25.791460492681964" lon="-80.4822410253017"><ele>10.4</ele><time>2026-04-19T12:05:01Z</time></trkpt><trkpt lat="25.791554803452453" lon="-80.48224737704561"><ele>10.0</ele><time>2026-04-19T12:05:02Z</time></trkpt><trkpt lat="25.79165127018182" lon="-80.48225572272632"><ele>10.0</ele><time>2026-04-19T12:05:03Z</time></trkpt><trkpt lat="25.79174962991059" lon="-80.48226449012319"><ele>10.0</ele><time>2026-04-19T12:05:04Z</time></trkpt><trkpt lat="25.791849851707482" lon="-80.48227384276753"><ele>10.0</ele><time>2026-04-19T12:05:05Z</time></trkpt><trkpt lat="25.791950066133612" lon="-80.48227959913663"><ele>10.0</ele><time>2026-04-19T12:05:06Z</time></trkpt><trkpt lat="25.792049972382628" lon="-80.48228812912143"><ele>10.0</ele><time>2026-04-19T12:05:07Z</time></trkpt><trkpt lat="25.79214893737575" lon="-80.48229573802956"><ele>9.8</ele><time>2026-04-19T12:05:08Z</time></trkpt><trkpt lat="25.792246789759645" lon="-80.48230505425225"><ele>9.6</ele><time>2026-04-19T12:05:09Z</time></trkpt><trkpt lat="25.79234329908677" lon="-80.48231408227691"><ele>9.4</ele><time>2026-04-19T12:05:10Z</time></trkpt><trkpt lat="25.792438827505347" lon="-80.48232150304621"><ele>9.2</ele><time>2026-04-19T12:05:11Z</time></trkpt><trkpt lat="25.792534384312738" lon="-80.48233018666298"><ele>9.0</ele><time>2026-04-19T12:05:12Z</time></trkpt><trkpt lat="25.792632626410757" lon="-80.48233687148506"><ele>8.8</ele><time>2026-04-19T12:05:13Z</time></trkpt><trkpt lat="25.79272919794334" lon="-80.48234739112375"><ele>8.600000000000001</ele><time>2026-04-19T12:05:14Z</time></trkpt><trkpt lat="25.79282540847466" lon="-80.48235432377906"><ele>8.4</ele><time>2026-04-19T12:05:15Z</time></trkpt><trkpt lat="25.79292199129296" lon="-80.4823624658753"><ele>8.200000000000001</ele><time>2026-04-19T12:05:15.999Z</time></trkpt><trkpt lat="25.793019044891896" lon="-80.48237116954563"><ele>8.0</ele><time>2026-04-19T12:05:16.999Z</time></trkpt><trkpt lat="25.793116146903223" lon="-80.48237938271623"><ele>8.0</ele><time>2026-04-19T12:05:17.999Z</time></trkpt><trkpt lat="25.793213458648758" lon="-80.4823855204152"><ele>8.0</ele><time>2026-04-19T12:05:18.999Z</time></trkpt><trkpt lat="25.793309548620233" lon="-80.48239130899401"><ele>8.0</ele><time>2026-04-19T12:05:19.999Z</time></trkpt><trkpt lat="25.793404220510947" lon="-80.48240003160467"><ele>8.0</ele><time>2026-04-19T12:05:20.999Z</time></trkpt><trkpt lat="25.793499320643036" lon="-80.48241173918315"><ele>8.0</ele><time>2026-04-19T12:05:21.999Z</time></trkpt><trkpt lat="25.793592327897215" lon="-80.48242069221178"><ele>8.200000000000001</ele><time>2026-04-19T12:05:22.999Z</time></trkpt><trkpt lat="25.79368791029402" lon="-80.48242808005918"><ele>8.4</ele><time>2026-04-19T12:05:23.999Z</time></trkpt><trkpt lat="25.79378149173133" lon="-80.48243334652396"><ele>8.600000000000001</ele><time>2026-04-19T12:05:24.999Z</time></trkpt><trkpt lat="25.793874309742364" lon="-80.48244149665206"><ele>8.8</ele><time>2026-04-19T12:05:25.999Z</time></trkpt><trkpt lat="25.793965910657384" lon="-80.48245219653336"><ele>9.0</ele><time>2026-04-19T12:05:26.999Z</time></trkpt><trkpt lat="25.794056000529284" lon="-80.48245997655783"><ele>9.0</ele><time>2026-04-19T12:05:27.999Z</time></trkpt><trkpt lat="25.794149533482077" lon="-80.48246861338919"><ele>9.0</ele><time>2026-04-19T12:05:28.999Z</time></trkpt><trkpt lat="25.794242885863756" lon="-80.48247433740934"><ele>9.0</ele><time>2026-04-19T12:05:29.999Z</time></trkpt><trkpt lat="25.794340116778713" lon="-80.48247883686379"><ele>9.0</ele><time>2026-04-19T12:05:30.999Z</time></trkpt><trkpt lat="25.794436783457485" lon="-80.48248763477488"><ele>9.0</ele><time>2026-04-19T12:05:31.999Z</time></trkpt><trkpt lat="25.794533516614973" lon="-80.48249510188958"><ele>9.2</ele><time>2026-04-19T12:05:32.999Z</time></trkpt><trkpt lat="25.79463128379504" lon="-80.48250452917674"><ele>9.4</ele><time>2026-04-19T12:05:33.999Z</time></trkpt><trkpt lat="25.794725458864082" lon="-80.48251003304833"><ele>9.6</ele><time>2026-04-19T12:05:34.999Z</time></trkpt><trkpt lat="25.79481832316804" lon="-80.4825171881164"><ele>9.8</ele><time>2026-04-19T12:05:35.999Z</time></trkpt><trkpt lat="25.79491045095648" lon="-80.48252662626075"><ele>10.0</ele><time>2026-04-19T12:05:36.999Z</time></trkpt><trkpt lat="25.79500216017049" lon="-80.48253537007231"><ele>10.0</ele><time>2026-04-19T12:05:37.999Z</time></trkpt><trkpt lat="25.795093202275268" lon="-80.48254355949881"><ele>10.0</ele><time>2026-04-19T12:05:38.999Z</time></trkpt><trkpt lat="25.79518506128107" lon="-80.48255322268473"><ele>10.0</ele><time>2026-04-19T12:05:39.999Z</time></trkpt><trkpt lat="25.79526158165542" lon="-80.48259969428506"><ele>10.0</ele><time>2026-04-19T12:05:40.999Z</time></trkpt><trkpt lat="25.79533593846659" lon="-80.48263648813925"><ele>10.0</ele><time>2026-04-19T12:05:41.999Z</time></trkpt><trkpt lat="25.79546578927171" lon="-80.48257031949105"><ele>10.0</ele><time>2026-04-19T12:05:42.999Z</time></trkpt><trkpt lat="25.795559216014656" lon="-80.48258070019416"><ele>10.0</ele><time>2026-04-19T12:05:43.999Z</time></trkpt><trkpt lat="25.795649179013907" lon="-80.48258656341457"><ele>10.0</ele><time>2026-04-19T12:05:44.999Z</time></trkpt><trkpt lat="25.795736640267076" lon="-80.48259695103698"><ele>10.0</ele><time>2026-04-19T12:05:45.999Z</time></trkpt><trkpt lat="25.795828119943444" lon="-80.4826072772684"><ele>10.0</ele><time>2026-04-19T12:05:46.999Z</time></trkpt><trkpt lat="25.79591987245355" lon="-80.48261405687111"><ele>10.166666666666668</ele><time>2026-04-19T12:05:47.999Z</time></trkpt><trkpt lat="25.796006967185246" lon="-80.48262081035081"><ele>10.333333333333334</ele><time>2026-04-19T12:05:48.999Z</time></trkpt><trkpt lat="25.79609297465419" lon="-80.48262886926834"><ele>10.5</ele><time>2026-04-19T12:05:49.999Z</time></trkpt><trkpt lat="25.796177736848115" lon="-80.48263788593799"><ele>10.666666666666666</ele><time>2026-04-19T12:05:50.999Z</time></trkpt><trkpt lat="25.796264474744863" lon="-80.48264783655566"><ele>10.833333333333332</ele><time>2026-04-19T12:05:51.999Z</time></trkpt><trkpt lat="25.796354771839404" lon="-80.48265507200243"><ele>11.0</ele><time>2026-04-19T12:05:52.999Z</time></trkpt><trkpt lat="25.796444674212456" lon="-80.48265998414007"><ele>11.0</ele><time>2026-04-19T12:05:53.999Z</time></trkpt><trkpt lat="25.796534088776593" lon="-80.48266155587771"><ele>11.0</ele><time>2026-04-19T12:05:54.999Z</time></trkpt><trkpt lat="25.79662335672923" lon="-80.48267707366642"><ele>11.0</ele><time>2026-04-19T12:05:55.999Z</time></trkpt><trkpt lat="25.796713233033824" lon="-80.48268451696053"><ele>11.0</ele><time>2026-04-19T12:05:56.999Z</time></trkpt><trkpt lat="25.796810351801497" lon="-80.48268896520291"><ele>11.0</ele><time>2026-04-19T12:05:57.999Z</time></trkpt><trkpt lat="25.79689906712921" lon="-80.482691589869"><ele>10.5</ele><time>2026-04-19T12:05:58.999Z</time></trkpt><trkpt lat="25.79698616117967" lon="-80.48269621356464"><ele>10.0</ele><time>2026-04-19T12:05:59.999Z</time></trkpt><trkpt lat="25.797073317125474" lon="-80.4827066577537"><ele>9.5</ele><time>2026-04-19T12:06:00.999Z</time></trkpt><trkpt lat="25.797162877091274" lon="-80.48270744156024"><ele>9.0</ele><time>2026-04-19T12:06:01.999Z</time></trkpt><trkpt lat="25.79725665861534" lon="-80.4827134546795"><ele>8.5</ele><time>2026-04-19T12:06:02.999Z</time></trkpt><trkpt lat="25.79734552892041" lon="-80.48271876433142"><ele>8.0</ele><time>2026-04-19T12:06:03.999Z</time></trkpt><trkpt lat="25.797435342469164" lon="-80.48272053629877"><ele>8.0</ele><time>2026-04-19T12:06:04.999Z</time></trkpt><trkpt lat="25.79753069356844" lon="-80.48272143687107"><ele>8.0</ele><time>2026-04-19T12:06:05.999Z</time></trkpt><trkpt lat="25.797623812415033" lon="-80.48273168468015"><ele>8.0</ele><time>2026-04-19T12:06:06.999Z</time></trkpt><trkpt lat="25.797716737212276" lon="-80.48272999836642"><ele>8.0</ele><time>2026-04-19T12:06:07.999Z</time></trkpt><trkpt lat="25.797808631619393" lon="-80.48273303090643"><ele>8.0</ele><time>2026-04-19T12:06:08.999Z</time></trkpt><trkpt lat="25.79790322260843" lon="-80.48273736986991"><ele>7.800000000000001</ele><time>2026-04-19T12:06:09.999Z</time></trkpt><trkpt lat="25.797995392040622" lon="-80.48273950284909"><ele>7.6000000000000005</ele><time>2026-04-19T12:06:10.999Z</time></trkpt><trkpt lat="25.79808777614811" lon="-80.4827345477446"><ele>7.3999999999999995</ele><time>2026-04-19T12:06:11.999Z</time></trkpt><trkpt lat="25.79818031747754" lon="-80.48273849938504"><ele>7.199999999999999</ele><time>2026-04-19T12:06:12.999Z</time></trkpt><trkpt lat="25.798273761117382" lon="-80.48273489166898"><ele>7.0</ele><time>2026-04-19T12:06:13.999Z</time></trkpt><trkpt lat="25.798365424064883" lon="-80.48273661088987"><ele>7.0</ele><time>2026-04-19T12:06:14.999Z</time></trkpt><trkpt lat="25.79845819606046" lon="-80.48272858119081"><ele>6.999999999999999</ele><time>2026-04-19T12:06:15.999Z</time></trkpt><trkpt lat="25.798547917751424" lon="-80.48272547500869"><ele>6.999999999999999</ele><time>2026-04-19T12:06:16.999Z</time></trkpt><trkpt lat="25.798640816483633" lon="-80.48272713851749"><ele>7.0</ele><time>2026-04-19T12:06:18Z</time></trkpt><trkpt lat="25.79873419904979" lon="-80.48272454760085"><ele>7.0</ele><time>2026-04-19T12:06:19Z</time></trkpt><trkpt lat="25.798824259595623" lon="-80.48271796134209"><ele>6.8</ele><time>2026-04-19T12:06:20Z</time></trkpt><trkpt lat="25.798924858025387" lon="-80.48271048039275"><ele>6.6</ele><time>2026-04-19T12:06:21Z</time></trkpt><trkpt lat="25.79901942244928" lon="-80.48270634740501"><ele>6.3999999999999995</ele><time>2026-04-19T12:06:22Z</time></trkpt><trkpt lat="25.79911310362549" lon="-80.48270262941314"><ele>6.199999999999999</ele><time>2026-04-19T12:06:23Z</time></trkpt><trkpt lat="25.799206097927144" lon="-80.48269506385685"><ele>6.0</ele><time>2026-04-19T12:06:24Z</time></trkpt><trkpt lat="25.799303053384307" lon="-80.48269121966977"><ele>5.8</ele><time>2026-04-19T12:06:25Z</time></trkpt><trkpt lat="25.79940011493663" lon="-80.48268938132571"><ele>5.6</ele><time>2026-04-19T12:06:26Z</time></trkpt><trkpt lat="25.799502816913154" lon="-80.48268712146232"><ele>5.4</ele><time>2026-04-19T12:06:27Z</time></trkpt><trkpt lat="25.799603176787738" lon="-80.48268595240147"><ele>5.2</ele><time>2026-04-19T12:06:28Z</time></trkpt><trkpt lat="25.79970262277683" lon="-80.48268079693948"><ele>5.0</ele><time>2026-04-19T12:06:29Z</time></trkpt><trkpt lat="25.799803815023797" lon="-80.48267644824836"><ele>5.0</ele><time>2026-04-19T12:06:30Z</time></trkpt><trkpt lat="25.799904547164836" lon="-80.48267043652298"><ele>5.0</ele><time>2026-04-19T12:06:31Z</time></trkpt><trkpt lat="25.80000749524695" lon="-80.48266335755072"><ele>5.0</ele><time>2026-04-19T12:06:32Z</time></trkpt><trkpt lat="25.800110563308408" lon="-80.48266350440035"><ele>5.0</ele><time>2026-04-19T12:06:33Z</time></trkpt><trkpt lat="25.800215733998275" lon="-80.48266054681672"><ele>5.0</ele><time>2026-04-19T12:06:34Z</time></trkpt><trkpt lat="25.800319857830473" lon="-80.48265134477015"><ele>4.8</ele><time>2026-04-19T12:06:35Z</time></trkpt><trkpt lat="25.80042289256621" lon="-80.48264634545649"><ele>4.6</ele><time>2026-04-19T12:06:36Z</time></trkpt><trkpt lat="25.800524415378558" lon="-80.48264286335183"><ele>4.4</ele><time>2026-04-19T12:06:37Z</time></trkpt><trkpt lat="25.800630325216417" lon="-80.4826384026987"><ele>4.2</ele><time>2026-04-19T12:06:38Z</time></trkpt><trkpt lat="25.800739699353194" lon="-80.48263318930073"><ele>4.0</ele><time>2026-04-19T12:06:39Z</time></trkpt><trkpt lat="25.800850617450894" lon="-80.48262684170035"><ele>4.0</ele><time>2026-04-19T12:06:40Z</time></trkpt><trkpt lat="25.800962662541153" lon="-80.48261872659897"><ele>4.0</ele><time>2026-04-19T12:06:41Z</time></trkpt><trkpt lat="25.80107616392445" lon="-80.48261002799619"><ele>4.0</ele><time>2026-04-19T12:06:42Z</time></trkpt><trkpt lat="25.801182326019266" lon="-80.48260993976982"><ele>4.0</ele><time>2026-04-19T12:06:43Z</time></trkpt><trkpt lat="25.801290382233304" lon="-80.48260441824142"><ele>4.0</ele><time>2026-04-19T12:06:44Z</time></trkpt><trkpt lat="25.801395450096894" lon="-80.4825978075111"><ele>4.0</ele><time>2026-04-19T12:06:45Z</time></trkpt><trkpt lat="25.80149842918768" lon="-80.48259280490582"><ele>4.0</ele><time>2026-04-19T12:06:46Z</time></trkpt><trkpt lat="25.8016035652923" lon="-80.48258723925117"><ele>4.0</ele><time>2026-04-19T12:06:47Z</time></trkpt><trkpt lat="25.801700039379785" lon="-80.48258123036757"><ele>4.0</ele><time>2026-04-19T12:06:48Z</time></trkpt><trkpt lat="25.801801109514923" lon="-80.48257719128341"><ele>4.0</ele><time>2026-04-19T12:06:49Z</time></trkpt><trkpt lat="25.80189442881389" lon="-80.4825658221168"><ele>4.0</ele><time>2026-04-19T12:06:50Z</time></trkpt><trkpt lat="25.80199139569967" lon="-80.482561216559"><ele>4.0</ele><time>2026-04-19T12:06:51Z</time></trkpt><trkpt lat="25.802092452428724" lon="-80.48255850328343"><ele>4.0</ele><time>2026-04-19T12:06:52Z</time></trkpt><trkpt lat="25.802190954478956" lon="-80.48255167098519"><ele>4.0</ele><time>2026-04-19T12:06:53Z</time></trkpt><trkpt lat="25.80228765021453" lon="-80.48254928230627"><ele>4.0</ele><time>2026-04-19T12:06:54Z</time></trkpt><trkpt lat="25.80238576856436" lon="-80.48254313108502"><ele>4.0</ele><time>2026-04-19T12:06:55Z</time></trkpt><trkpt lat="25.802481808306034" lon="-80.48253642030875"><ele>4.0</ele><time>2026-04-19T12:06:56Z</time></trkpt><trkpt lat="25.8025774052998" lon="-80.48252790085559"><ele>4.0</ele><time>2026-04-19T12:06:57Z</time></trkpt><trkpt lat="25.80267424460627" lon="-80.4825207586138"><ele>4.0</ele><time>2026-04-19T12:06:58Z</time></trkpt><trkpt lat="25.80277190510778" lon="-80.4825128107283"><ele>4.0</ele><time>2026-04-19T12:06:59Z</time></trkpt><trkpt lat="25.802870509366908" lon="-80.48250787848015"><ele>4.2</ele><time>2026-04-19T12:07:00Z</time></trkpt><trkpt lat="25.802970930853338" lon="-80.48250310702127"><ele>4.4</ele><time>2026-04-19T12:07:01Z</time></trkpt><trkpt lat="25.80307089499672" lon="-80.48249985405829"><ele>4.6</ele><time>2026-04-19T12:07:02Z</time></trkpt><trkpt lat="25.803170325953552" lon="-80.48249581343117"><ele>4.8</ele><time>2026-04-19T12:07:03Z</time></trkpt><trkpt lat="25.80326722255308" lon="-80.48249274256065"><ele>5.0</ele><time>2026-04-19T12:07:04Z</time></trkpt><trkpt lat="25.80336464634257" lon="-80.48248728204439"><ele>5.0</ele><time>2026-04-19T12:07:05Z</time></trkpt><trkpt lat="25.803463671805282" lon="-80.48248497035226"><ele>5.0</ele><time>2026-04-19T12:07:06Z</time></trkpt><trkpt lat="25.803561120939783" lon="-80.48248171513977"><ele>5.0</ele><time>2026-04-19T12:07:07Z</time></trkpt><trkpt lat="25.8036579104994" lon="-80.48247953603918"><ele>5.0</ele><time>2026-04-19T12:07:08Z</time></trkpt><trkpt lat="25.803753029417216" lon="-80.48247547966257"><ele>5.0</ele><time>2026-04-19T12:07:09Z</time></trkpt><trkpt lat="25.803848150643248" lon="-80.48247158239401"><ele>5.0</ele><time>2026-04-19T12:07:10Z</time></trkpt><trkpt lat="25.80394304542597" lon="-80.48246857172431"><ele>5.0</ele><time>2026-04-19T12:07:11Z</time></trkpt><trkpt lat="25.804039672339922" lon="-80.48246440689253"><ele>5.0</ele><time>2026-04-19T12:07:12Z</time></trkpt><trkpt lat="25.80413497834624" lon="-80.4824593663543"><ele>5.0</ele><time>2026-04-19T12:07:13Z</time></trkpt><trkpt lat="25.804228936480204" lon="-80.48245570702449"><ele>5.0</ele><time>2026-04-19T12:07:14Z</time></trkpt><trkpt lat="25.804323143879632" lon="-80.4824522366624"><ele>5.0</ele><time>2026-04-19T12:07:15Z</time></trkpt><trkpt lat="25.80441862544486" lon="-80.48244898264781"><ele>5.0</ele><time>2026-04-19T12:07:16Z</time></trkpt><trkpt lat="25.80451547514113" lon="-80.48244239820251"><ele>5.0</ele><time>2026-04-19T12:07:17Z</time></trkpt><trkpt lat="25.804612096042277" lon="-80.48243883217857"><ele>5.0</ele><time>2026-04-19T12:07:17.999Z</time></trkpt><trkpt lat="25.804709296347575" lon="-80.48243667361336"><ele>5.0</ele><time>2026-04-19T12:07:18.999Z</time></trkpt><trkpt lat="25.804809806359252" lon="-80.48243362003772"><ele>5.0</ele><time>2026-04-19T12:07:19.999Z</time></trkpt><trkpt lat="25.804911811742425" lon="-80.48242957091531"><ele>5.0</ele><time>2026-04-19T12:07:20.999Z</time></trkpt><trkpt lat="25.805013916097646" lon="-80.48242484783616"><ele>5.0</ele><time>2026-04-19T12:07:21.999Z</time></trkpt><trkpt lat="25.805117176127677" lon="-80.48242132264848"><ele>5.0</ele><time>2026-04-19T12:07:22.999Z</time></trkpt><trkpt lat="25.805222571955817" lon="-80.48241836930835"><ele>5.0</ele><time>2026-04-19T12:07:23.999Z</time></trkpt><trkpt lat="25.805323241902858" lon="-80.48241381498991"><ele>5.6</ele><time>2026-04-19T12:07:24.999Z</time></trkpt><trkpt lat="25.80542672397747" lon="-80.48241015124492"><ele>6.2</ele><time>2026-04-19T12:07:25.999Z</time></trkpt><trkpt lat="25.80553029326259" lon="-80.48240565211057"><ele>6.800000000000001</ele><time>2026-04-19T12:07:26.999Z</time></trkpt><trkpt lat="25.805633932803843" lon="-80.48240221092921"><ele>7.4</ele><time>2026-04-19T12:07:27.999Z</time></trkpt><trkpt lat="25.80573740645278" lon="-80.48239967305443"><ele>8.0</ele><time>2026-04-19T12:07:28.999Z</time></trkpt><trkpt lat="25.805839815938658" lon="-80.48239491283928"><ele>8.0</ele><time>2026-04-19T12:07:29.999Z</time></trkpt><trkpt lat="25.805943174702783" lon="-80.48238871962859"><ele>8.0</ele><time>2026-04-19T12:07:30.999Z</time></trkpt><trkpt lat="25.8060432529199" lon="-80.48238680058651"><ele>8.0</ele><time>2026-04-19T12:07:31.999Z</time></trkpt><trkpt lat="25.8061445485958" lon="-80.48238336470739"><ele>8.0</ele><time>2026-04-19T12:07:32.999Z</time></trkpt><trkpt lat="25.806247427339702" lon="-80.48237917232517"><ele>8.0</ele><time>2026-04-19T12:07:33.999Z</time></trkpt><trkpt lat="25.8063503249549" lon="-80.48237393345615"><ele>8.0</ele><time>2026-04-19T12:07:34.999Z</time></trkpt><trkpt lat="25.806455070965406" lon="-80.48236939263191"><ele>8.0</ele><time>2026-04-19T12:07:35.999Z</time></trkpt><trkpt lat="25.806560846518266" lon="-80.48236417220076"><ele>8.0</ele><time>2026-04-19T12:07:36.999Z</time></trkpt><trkpt lat="25.806665868005684" lon="-80.48236159493761"><ele>8.0</ele><time>2026-04-19T12:07:37.999Z</time></trkpt><trkpt lat="25.80677221116415" lon="-80.48235794363849"><ele>8.0</ele><time>2026-04-19T12:07:38.999Z</time></trkpt><trkpt lat="25.806878084623253" lon="-80.48235425604561"><ele>8.0</ele><time>2026-04-19T12:07:39.999Z</time></trkpt><trkpt lat="25.806980961970982" lon="-80.48234943629211"><ele>8.0</ele><time>2026-04-19T12:07:40.999Z</time></trkpt><trkpt lat="25.807084313137214" lon="-80.48234670236124"><ele>8.0</ele><time>2026-04-19T12:07:41.999Z</time></trkpt><trkpt lat="25.80718557525713" lon="-80.48234319735472"><ele>8.0</ele><time>2026-04-19T12:07:42.999Z</time></trkpt><trkpt lat="25.807286520024494" lon="-80.48233994537007"><ele>8.0</ele><time>2026-04-19T12:07:43.999Z</time></trkpt><trkpt lat="25.80738595804255" lon="-80.48233336283074"><ele>8.0</ele><time>2026-04-19T12:07:44.999Z</time></trkpt><trkpt lat="25.807484255797856" lon="-80.48232773929412"><ele>8.0</ele><time>2026-04-19T12:07:45.999Z</time></trkpt><trkpt lat="25.807582415537695" lon="-80.48232609292562"><ele>8.0</ele><time>2026-04-19T12:07:46.999Z</time></trkpt><trkpt lat="25.80768114782735" lon="-80.48232335481694"><ele>8.0</ele><time>2026-04-19T12:07:47.999Z</time></trkpt><trkpt lat="25.807780876333393" lon="-80.48231897858946"><ele>8.0</ele><time>2026-04-19T12:07:48.999Z</time></trkpt><trkpt lat="25.80788019270979" lon="-80.48231317508191"><ele>8.200000000000001</ele><time>2026-04-19T12:07:49.999Z</time></trkpt><trkpt lat="25.807979186889945" lon="-80.48230883041118"><ele>8.4</ele><time>2026-04-19T12:07:50.999Z</time></trkpt><trkpt lat="25.808077609365647" lon="-80.48230619722108"><ele>8.600000000000001</ele><time>2026-04-19T12:07:51.999Z</time></trkpt><trkpt lat="25.808176807807822" lon="-80.48230232986091"><ele>8.8</ele><time>2026-04-19T12:07:52.999Z</time></trkpt><trkpt lat="25.808276884396797" lon="-80.48229912762069"><ele>9.0</ele><time>2026-04-19T12:07:53.999Z</time></trkpt><trkpt lat="25.808379803374752" lon="-80.48229873429926"><ele>9.0</ele><time>2026-04-19T12:07:54.999Z</time></trkpt><trkpt lat="25.808482611296313" lon="-80.48229334151281"><ele>9.0</ele><time>2026-04-19T12:07:55.999Z</time></trkpt><trkpt lat="25.808587882868824" lon="-80.48228917520635"><ele>9.0</ele><time>2026-04-19T12:07:56.999Z</time></trkpt><trkpt lat="25.80869389308056" lon="-80.48228424528857"><ele>9.0</ele><time>2026-04-19T12:07:57.999Z</time></trkpt><trkpt lat="25.80879987770501" lon="-80.48228023236044"><ele>9.0</ele><time>2026-04-19T12:07:58.999Z</time></trkpt><trkpt lat="25.80890555018636" lon="-80.4822756056164"><ele>9.0</ele><time>2026-04-19T12:07:59.999Z</time></trkpt><trkpt lat="25.80900979858617" lon="-80.48227129677181"><ele>9.0</ele><time>2026-04-19T12:08:00.999Z</time></trkpt><trkpt lat="25.809113889444056" lon="-80.48226624715055"><ele>9.0</ele><time>2026-04-19T12:08:01.999Z</time></trkpt><trkpt lat="25.809217627042152" lon="-80.48226486944922"><ele>9.0</ele><time>2026-04-19T12:08:02.999Z</time></trkpt><trkpt lat="25.809321308841625" lon="-80.48226249798256"><ele>9.0</ele><time>2026-04-19T12:08:03.999Z</time></trkpt><trkpt lat="25.80942606440964" lon="-80.48225780704405"><ele>8.6</ele><time>2026-04-19T12:08:04.999Z</time></trkpt><trkpt lat="25.809531737915652" lon="-80.48225358159485"><ele>8.2</ele><time>2026-04-19T12:08:05.999Z</time></trkpt><trkpt lat="25.80963643295111" lon="-80.48225000087604"><ele>7.799999999999999</ele><time>2026-04-19T12:08:06.999Z</time></trkpt><trkpt lat="25.80974005807563" lon="-80.48224568453024"><ele>7.3999999999999995</ele><time>2026-04-19T12:08:07.999Z</time></trkpt><trkpt lat="25.80984212000176" lon="-80.48224213571287"><ele>7.0</ele><time>2026-04-19T12:08:08.999Z</time></trkpt><trkpt lat="25.80994599354764" lon="-80.48223912046821"><ele>7.0</ele><time>2026-04-19T12:08:09.999Z</time></trkpt><trkpt lat="25.810049278903133" lon="-80.48223260915624"><ele>6.999999999999999</ele><time>2026-04-19T12:08:10.999Z</time></trkpt><trkpt lat="25.810152425937662" lon="-80.4822255693312"><ele>6.999999999999999</ele><time>2026-04-19T12:08:11.999Z</time></trkpt><trkpt lat="25.81025789131164" lon="-80.48222267827632"><ele>7.0</ele><time>2026-04-19T12:08:12.999Z</time></trkpt><trkpt lat="25.8103624742597" lon="-80.48221785288791"><ele>7.0</ele><time>2026-04-19T12:08:13.999Z</time></trkpt><trkpt lat="25.810469808971686" lon="-80.48221547599772"><ele>6.8</ele><time>2026-04-19T12:08:14.999Z</time></trkpt><trkpt lat="25.810575379909643" lon="-80.48221042240156"><ele>6.6</ele><time>2026-04-19T12:08:15.999Z</time></trkpt><trkpt lat="25.810680905153852" lon="-80.48220384240138"><ele>6.3999999999999995</ele><time>2026-04-19T12:08:16.999Z</time></trkpt><trkpt lat="25.810783241772306" lon="-80.48220049102542"><ele>6.199999999999999</ele><time>2026-04-19T12:08:17.999Z</time></trkpt><trkpt lat="25.810885439359563" lon="-80.48219801271341"><ele>6.0</ele><time>2026-04-19T12:08:18.999Z</time></trkpt><trkpt lat="25.810985914389473" lon="-80.48219428837555"><ele>6.4</ele><time>2026-04-19T12:08:19.999Z</time></trkpt><trkpt lat="25.811084609216504" lon="-80.48218910279125"><ele>6.8</ele><time>2026-04-19T12:08:20.999Z</time></trkpt><trkpt lat="25.811182653346062" lon="-80.48218836173756"><ele>7.200000000000001</ele><time>2026-04-19T12:08:21.999Z</time></trkpt><trkpt lat="25.811279622362772" lon="-80.48218914073826"><ele>7.6000000000000005</ele><time>2026-04-19T12:08:22.999Z</time></trkpt><trkpt lat="25.811374927066577" lon="-80.48218789634268"><ele>8.0</ele><time>2026-04-19T12:08:24Z</time></trkpt><trkpt lat="25.811470352698247" lon="-80.48218639614161"><ele>8.0</ele><time>2026-04-19T12:08:25Z</time></trkpt><trkpt lat="25.811566569618652" lon="-80.48218581298202"><ele>8.0</ele><time>2026-04-19T12:08:26Z</time></trkpt><trkpt lat="25.811662847294894" lon="-80.48218270721344"><ele>8.0</ele><time>2026-04-19T12:08:27Z</time></trkpt><trkpt lat="25.811758179086905" lon="-80.48218268152574"><ele>8.0</ele><time>2026-04-19T12:08:28Z</time></trkpt><trkpt lat="25.811853161964947" lon="-80.48218205718368"><ele>8.0</ele><time>2026-04-19T12:08:29Z</time></trkpt><trkpt lat="25.811948987285597" lon="-80.48218144178483"><ele>8.0</ele><time>2026-04-19T12:08:30Z</time></trkpt><trkpt lat="25.812043206663215" lon="-80.48217959845174"><ele>8.0</ele><time>2026-04-19T12:08:31Z</time></trkpt><trkpt lat="25.812137755762087" lon="-80.48218239055606"><ele>8.0</ele><time>2026-04-19T12:08:32Z</time></trkpt><trkpt lat="25.81223326622876" lon="-80.48218280965096"><ele>8.0</ele><time>2026-04-19T12:08:33Z</time></trkpt><trkpt lat="25.81232838425766" lon="-80.48218417265237"><ele>8.0</ele><time>2026-04-19T12:08:34Z</time></trkpt><trkpt lat="25.812423931449988" lon="-80.48218419750967"><ele>8.0</ele><time>2026-04-19T12:08:35Z</time></trkpt><trkpt lat="25.812517637496605" lon="-80.48218367691005"><ele>8.0</ele><time>2026-04-19T12:08:36Z</time></trkpt><trkpt lat="25.81261013475999" lon="-80.48218420317377"><ele>8.0</ele><time>2026-04-19T12:08:37Z</time></trkpt><trkpt lat="25.812700986781838" lon="-80.4821862059048"><ele>8.0</ele><time>2026-04-19T12:08:38Z</time></trkpt><trkpt lat="25.812790241011754" lon="-80.48218725910235"><ele>8.0</ele><time>2026-04-19T12:08:39Z</time></trkpt><trkpt lat="25.812882599088343" lon="-80.48219218640267"><ele>8.0</ele><time>2026-04-19T12:08:40Z</time></trkpt><trkpt lat="25.81297584366169" lon="-80.48219558704557"><ele>8.0</ele><time>2026-04-19T12:08:41Z</time></trkpt><trkpt lat="25.813071132365355" lon="-80.4821998760105"><ele>8.0</ele><time>2026-04-19T12:08:42Z</time></trkpt><trkpt lat="25.81316663922125" lon="-80.48220357588173"><ele>8.0</ele><time>2026-04-19T12:08:43Z</time></trkpt><trkpt lat="25.813262459501722" lon="-80.48220632464302"><ele>8.0</ele><time>2026-04-19T12:08:44Z</time></trkpt><trkpt lat="25.813357933966635" lon="-80.48220885977138"><ele>8.0</ele><time>2026-04-19T12:08:45Z</time></trkpt><trkpt lat="25.813454284915068" lon="-80.48221395837386"><ele>8.0</ele><time>2026-04-19T12:08:46Z</time></trkpt><trkpt lat="25.813549944930504" lon="-80.4822195365637"><ele>8.0</ele><time>2026-04-19T12:08:47Z</time></trkpt><trkpt lat="25.813646494484665" lon="-80.48222424338321"><ele>8.0</ele><time>2026-04-19T12:08:48Z</time></trkpt><trkpt lat="25.813741239407467" lon="-80.48222781510661"><ele>8.0</ele><time>2026-04-19T12:08:49Z</time></trkpt><trkpt lat="25.813837590258952" lon="-80.4822313671035"><ele>8.4</ele><time>2026-04-19T12:08:50Z</time></trkpt><trkpt lat="25.813931715437057" lon="-80.48223325294089"><ele>8.8</ele><time>2026-04-19T12:08:51Z</time></trkpt><trkpt lat="25.81402489477112" lon="-80.48223576587263"><ele>9.2</ele><time>2026-04-19T12:08:52Z</time></trkpt><trkpt lat="25.81411740037749" lon="-80.48224111607261"><ele>9.6</ele><time>2026-04-19T12:08:53Z</time></trkpt><trkpt lat="25.81421039033161" lon="-80.48224444459616"><ele>10.0</ele><time>2026-04-19T12:08:54Z</time></trkpt><trkpt lat="25.814306195020226" lon="-80.48224870005545"><ele>9.6</ele><time>2026-04-19T12:08:55Z</time></trkpt><trkpt lat="25.814404280792722" lon="-80.482254653253"><ele>9.2</ele><time>2026-04-19T12:08:56Z</time></trkpt><trkpt lat="25.814502232682514" lon="-80.4822604353588"><ele>8.8</ele><time>2026-04-19T12:08:57Z</time></trkpt><trkpt lat="25.814600447222006" lon="-80.4822622133124"><ele>8.4</ele><time>2026-04-19T12:08:58Z</time></trkpt><trkpt lat="25.814700449835602" lon="-80.48226878627716"><ele>8.0</ele><time>2026-04-19T12:08:59Z</time></trkpt><trkpt lat="25.814800470124908" lon="-80.48227124694714"><ele>8.0</ele><time>2026-04-19T12:09:00Z</time></trkpt><trkpt lat="25.81490132889755" lon="-80.48227670354304"><ele>8.0</ele><time>2026-04-19T12:09:01Z</time></trkpt><trkpt lat="25.81500078808306" lon="-80.48228124065686"><ele>8.0</ele><time>2026-04-19T12:09:02Z</time></trkpt><trkpt lat="25.815099249780516" lon="-80.48228338611946"><ele>8.0</ele><time>2026-04-19T12:09:03Z</time></trkpt><trkpt lat="25.815195089921055" lon="-80.48228627260072"><ele>8.0</ele><time>2026-04-19T12:09:04Z</time></trkpt><trkpt lat="25.81529074597964" lon="-80.48228842003026"><ele>7.6000000000000005</ele><time>2026-04-19T12:09:05Z</time></trkpt><trkpt lat="25.81538610027177" lon="-80.48229214378237"><ele>7.200000000000001</ele><time>2026-04-19T12:09:06Z</time></trkpt><trkpt lat="25.81548333750403" lon="-80.48229578354665"><ele>6.8</ele><time>2026-04-19T12:09:07Z</time></trkpt><trkpt lat="25.815581738498015" lon="-80.48229722631861"><ele>6.4</ele><time>2026-04-19T12:09:08Z</time></trkpt><trkpt lat="25.81568097269382" lon="-80.48230189523177"><ele>6.0</ele><time>2026-04-19T12:09:09Z</time></trkpt><trkpt lat="25.815779660840885" lon="-80.48230537314818"><ele>6.0</ele><time>2026-04-19T12:09:10Z</time></trkpt><trkpt lat="25.815880533990295" lon="-80.48231055839454"><ele>6.0</ele><time>2026-04-19T12:09:11Z</time></trkpt><trkpt lat="25.815982671202093" lon="-80.48231335953967"><ele>6.0</ele><time>2026-04-19T12:09:12Z</time></trkpt><trkpt lat="25.81608687332443" lon="-80.48231913350536"><ele>6.0</ele><time>2026-04-19T12:09:13Z</time></trkpt><trkpt lat="25.816192428995326" lon="-80.48232310727613"><ele>6.0</ele><time>2026-04-19T12:09:14Z</time></trkpt><trkpt lat="25.816296625723073" lon="-80.48232616677235"><ele>6.4</ele><time>2026-04-19T12:09:15Z</time></trkpt><trkpt lat="25.816401915581125" lon="-80.48232978581677"><ele>6.8</ele><time>2026-04-19T12:09:16Z</time></trkpt><trkpt lat="25.816506629035555" lon="-80.48233360091162"><ele>7.200000000000001</ele><time>2026-04-19T12:09:17Z</time></trkpt><trkpt lat="25.81661189415052" lon="-80.48233742750452"><ele>7.6000000000000005</ele><time>2026-04-19T12:09:18Z</time></trkpt><trkpt lat="25.81671743106512" lon="-80.4823437923933"><ele>8.0</ele><time>2026-04-19T12:09:19Z</time></trkpt><trkpt lat="25.816825210770126" lon="-80.48234781071622"><ele>8.0</ele><time>2026-04-19T12:09:19.999Z</time></trkpt><trkpt lat="25.81693579566326" lon="-80.48235059751725"><ele>8.0</ele><time>2026-04-19T12:09:20.999Z</time></trkpt><trkpt lat="25.81704733851793" lon="-80.48235583752461"><ele>8.0</ele><time>2026-04-19T12:09:21.999Z</time></trkpt><trkpt lat="25.81715469502998" lon="-80.48235724391742"><ele>8.0</ele><time>2026-04-19T12:09:22.999Z</time></trkpt><trkpt lat="25.817258697267135" lon="-80.48236173064434"><ele>8.0</ele><time>2026-04-19T12:09:23.999Z</time></trkpt><trkpt lat="25.817361084938504" lon="-80.48236774909553"><ele>8.0</ele><time>2026-04-19T12:09:24.999Z</time></trkpt><trkpt lat="25.817463426083652" lon="-80.48237144226313"><ele>8.0</ele><time>2026-04-19T12:09:25.999Z</time></trkpt><trkpt lat="25.817564551353108" lon="-80.48237742948237"><ele>8.0</ele><time>2026-04-19T12:09:26.999Z</time></trkpt><trkpt lat="25.817663699987648" lon="-80.4823812037776"><ele>8.0</ele><time>2026-04-19T12:09:27.999Z</time></trkpt><trkpt lat="25.81775995493745" lon="-80.48238339151257"><ele>8.0</ele><time>2026-04-19T12:09:28.999Z</time></trkpt><trkpt lat="25.817856011849667" lon="-80.48238591572712"><ele>7.6000000000000005</ele><time>2026-04-19T12:09:29.999Z</time></trkpt><trkpt lat="25.81795196432653" lon="-80.48239160640281"><ele>7.200000000000001</ele><time>2026-04-19T12:09:30.999Z</time></trkpt><trkpt lat="25.81804949948744" lon="-80.4823944902018"><ele>6.8</ele><time>2026-04-19T12:09:31.999Z</time></trkpt><trkpt lat="25.818148714029046" lon="-80.48239933936588"><ele>6.4</ele><time>2026-04-19T12:09:32.999Z</time></trkpt><trkpt lat="25.818248187274268" lon="-80.48240247396733"><ele>6.0</ele><time>2026-04-19T12:09:33.999Z</time></trkpt><trkpt lat="25.81834807485582" lon="-80.48240667392183"><ele>6.0</ele><time>2026-04-19T12:09:34.999Z</time></trkpt><trkpt lat="25.818448958782426" lon="-80.48241271946448"><ele>6.0</ele><time>2026-04-19T12:09:35.999Z</time></trkpt><trkpt lat="25.81855042899828" lon="-80.48241644533374"><ele>6.0</ele><time>2026-04-19T12:09:36.999Z</time></trkpt><trkpt lat="25.818653304468768" lon="-80.48241984838276"><ele>6.0</ele><time>2026-04-19T12:09:37.999Z</time></trkpt><trkpt lat="25.81875481686289" lon="-80.48242422184309"><ele>6.0</ele><time>2026-04-19T12:09:38.999Z</time></trkpt><trkpt lat="25.8188546247486" lon="-80.48242711059866"><ele>6.6</ele><time>2026-04-19T12:09:39.999Z</time></trkpt><trkpt lat="25.818954539545633" lon="-80.48243001419603"><ele>7.199999999999999</ele><time>2026-04-19T12:09:40.999Z</time></trkpt><trkpt lat="25.81905613784292" lon="-80.48243432488316"><ele>7.800000000000001</ele><time>2026-04-19T12:09:41.999Z</time></trkpt><trkpt lat="25.819158829572274" lon="-80.48243660323106"><ele>8.4</ele><time>2026-04-19T12:09:42.999Z</time></trkpt><trkpt lat="25.81926322036613" lon="-80.48244330942744"><ele>9.0</ele><time>2026-04-19T12:09:43.999Z</time></trkpt><trkpt lat="25.819367070311646" lon="-80.48244788966838"><ele>9.0</ele><time>2026-04-19T12:09:44.999Z</time></trkpt><trkpt lat="25.819472363066215" lon="-80.48245261190986"><ele>9.0</ele><time>2026-04-19T12:09:45.999Z</time></trkpt><trkpt lat="25.81957623669283" lon="-80.4824569502391"><ele>9.0</ele><time>2026-04-19T12:09:46.999Z</time></trkpt><trkpt lat="25.819678836353336" lon="-80.48246090031652"><ele>9.0</ele><time>2026-04-19T12:09:47.999Z</time></trkpt><trkpt lat="25.819781063050044" lon="-80.48246588159807"><ele>9.0</ele><time>2026-04-19T12:09:48.999Z</time></trkpt><trkpt lat="25.819882474133976" lon="-80.48246770241263"><ele>9.0</ele><time>2026-04-19T12:09:49.999Z</time></trkpt><trkpt lat="25.819983570583847" lon="-80.48246733509511"><ele>9.0</ele><time>2026-04-19T12:09:50.999Z</time></trkpt><trkpt lat="25.82008275239764" lon="-80.48247239996907"><ele>9.0</ele><time>2026-04-19T12:09:51.999Z</time></trkpt><trkpt lat="25.820181780929897" lon="-80.48247785465843"><ele>9.0</ele><time>2026-04-19T12:09:52.999Z</time></trkpt><trkpt lat="25.820280779036796" lon="-80.48248422222339"><ele>9.0</ele><time>2026-04-19T12:09:53.999Z</time></trkpt><trkpt lat="25.820382953973187" lon="-80.48248894144018"><ele>9.0</ele><time>2026-04-19T12:09:54.999Z</time></trkpt><trkpt lat="25.8204829347383" lon="-80.4824938334359"><ele>9.0</ele><time>2026-04-19T12:09:55.999Z</time></trkpt><trkpt lat="25.820583536739512" lon="-80.4824979454672"><ele>9.0</ele><time>2026-04-19T12:09:56.999Z</time></trkpt><trkpt lat="25.820681943954742" lon="-80.48250241418253"><ele>9.0</ele><time>2026-04-19T12:09:57.999Z</time></trkpt><trkpt lat="25.82078274991827" lon="-80.48250804779062"><ele>9.0</ele><time>2026-04-19T12:09:58.999Z</time></trkpt><trkpt lat="25.82088199133335" lon="-80.48251115579454"><ele>9.0</ele><time>2026-04-19T12:09:59.999Z</time></trkpt><trkpt lat="25.820981795285853" lon="-80.48251296858237"><ele>9.0</ele><time>2026-04-19T12:10:00.999Z</time></trkpt><trkpt lat="25.821081046234298" lon="-80.48251775351129"><ele>9.0</ele><time>2026-04-19T12:10:01.999Z</time></trkpt><trkpt lat="25.821178420179788" lon="-80.48252319768768"><ele>9.0</ele><time>2026-04-19T12:10:02.999Z</time></trkpt><trkpt lat="25.821274282695292" lon="-80.48252441472164"><ele>9.0</ele><time>2026-04-19T12:10:03.999Z</time></trkpt><trkpt lat="25.82136900679897" lon="-80.48252719056718"><ele>8.6</ele><time>2026-04-19T12:10:04.999Z</time></trkpt><trkpt lat="25.82146465266131" lon="-80.48253102224811"><ele>8.2</ele><time>2026-04-19T12:10:05.999Z</time></trkpt><trkpt lat="25.821561110902042" lon="-80.48253317066191"><ele>7.799999999999999</ele><time>2026-04-19T12:10:06.999Z</time></trkpt><trkpt lat="25.821658108586323" lon="-80.48253781459891"><ele>7.3999999999999995</ele><time>2026-04-19T12:10:07.999Z</time></trkpt><trkpt lat="25.821754772244883" lon="-80.48254117832583"><ele>7.0</ele><time>2026-04-19T12:10:08.999Z</time></trkpt><trkpt lat="25.821851776371805" lon="-80.48254433535234"><ele>7.0</ele><time>2026-04-19T12:10:09.999Z</time></trkpt><trkpt lat="25.821948919321162" lon="-80.48254723951555"><ele>6.999999999999999</ele><time>2026-04-19T12:10:10.999Z</time></trkpt><trkpt lat="25.82204541527822" lon="-80.48255258999338"><ele>6.999999999999999</ele><time>2026-04-19T12:10:11.999Z</time></trkpt><trkpt lat="25.822142388642515" lon="-80.48255612936732"><ele>7.0</ele><time>2026-04-19T12:10:12.999Z</time></trkpt><trkpt lat="25.822241092602525" lon="-80.48255963050846"><ele>7.0</ele><time>2026-04-19T12:10:13.999Z</time></trkpt><trkpt lat="25.822341019205428" lon="-80.48256265706605"><ele>7.0</ele><time>2026-04-19T12:10:14.999Z</time></trkpt><trkpt lat="25.822441008488813" lon="-80.48256661798108"><ele>6.999999999999999</ele><time>2026-04-19T12:10:15.999Z</time></trkpt><trkpt lat="25.82254072566331" lon="-80.48256954005787"><ele>6.999999999999999</ele><time>2026-04-19T12:10:16.999Z</time></trkpt><trkpt lat="25.822641336076927" lon="-80.48257348085743"><ele>7.0</ele><time>2026-04-19T12:10:17.999Z</time></trkpt><trkpt lat="25.82274100446896" lon="-80.48257818807208"><ele>7.0</ele><time>2026-04-19T12:10:18.999Z</time></trkpt><trkpt lat="25.822840832788657" lon="-80.48258166458164"><ele>7.0</ele><time>2026-04-19T12:10:19.999Z</time></trkpt><trkpt lat="25.822940361097373" lon="-80.48258562520854"><ele>6.999999999999999</ele><time>2026-04-19T12:10:20.999Z</time></trkpt><trkpt lat="25.823041305086576" lon="-80.48258959085204"><ele>6.999999999999999</ele><time>2026-04-19T12:10:21.999Z</time></trkpt><trkpt lat="25.823142069308442" lon="-80.48259427720436"><ele>7.0</ele><time>2026-04-19T12:10:22.999Z</time></trkpt><trkpt lat="25.823244413691167" lon="-80.48259721187776"><ele>7.0</ele><time>2026-04-19T12:10:23.999Z</time></trkpt><trkpt lat="25.82334801206264" lon="-80.48260086933324"><ele>7.0</ele><time>2026-04-19T12:10:24.999Z</time></trkpt><trkpt lat="25.82345115635282" lon="-80.48260653011874"><ele>6.999999999999999</ele><time>2026-04-19T12:10:25.999Z</time></trkpt><trkpt lat="25.823554760294847" lon="-80.48261011677734"><ele>6.999999999999999</ele><time>2026-04-19T12:10:26.999Z</time></trkpt><trkpt lat="25.823658617110656" lon="-80.48261293397287"><ele>7.0</ele><time>2026-04-19T12:10:27.999Z</time></trkpt><trkpt lat="25.823762367954966" lon="-80.48261566987233"><ele>7.0</ele><time>2026-04-19T12:10:28.999Z</time></trkpt><trkpt lat="25.8238663315586" lon="-80.48261886738892"><ele>7.199999999999999</ele><time>2026-04-19T12:10:30Z</time></trkpt><trkpt lat="25.823969882033918" lon="-80.48262420267633"><ele>7.3999999999999995</ele><time>2026-04-19T12:10:31Z</time></trkpt><trkpt lat="25.824072332759016" lon="-80.48262848039077"><ele>7.6000000000000005</ele><time>2026-04-19T12:10:32Z</time></trkpt><trkpt lat="25.824176839938467" lon="-80.48263383912034"><ele>7.800000000000001</ele><time>2026-04-19T12:10:33Z</time></trkpt><trkpt lat="25.824280230381557" lon="-80.48263725096007"><ele>8.0</ele><time>2026-04-19T12:10:34Z</time></trkpt><trkpt lat="25.82438107483732" lon="-80.48264077713725"><ele>8.200000000000001</ele><time>2026-04-19T12:10:35Z</time></trkpt><trkpt lat="25.824481434113427" lon="-80.48264414425739"><ele>8.4</ele><time>2026-04-19T12:10:36Z</time></trkpt><trkpt lat="25.824579543459112" lon="-80.48264928328649"><ele>8.600000000000001</ele><time>2026-04-19T12:10:37Z</time></trkpt><trkpt lat="25.824679436438338" lon="-80.48265428433426"><ele>8.8</ele><time>2026-04-19T12:10:38Z</time></trkpt><trkpt lat="25.82477850404181" lon="-80.48265539433685"><ele>9.0</ele><time>2026-04-19T12:10:39Z</time></trkpt><trkpt lat="25.824878859699563" lon="-80.48266037550724"><ele>9.0</ele><time>2026-04-19T12:10:40Z</time></trkpt><trkpt lat="25.82497950526827" lon="-80.48266371096565"><ele>9.0</ele><time>2026-04-19T12:10:41Z</time></trkpt><trkpt lat="25.825081816549694" lon="-80.48267074014835"><ele>9.0</ele><time>2026-04-19T12:10:42Z</time></trkpt><trkpt lat="25.825183321930332" lon="-80.48267479346259"><ele>9.0</ele><time>2026-04-19T12:10:43Z</time></trkpt><trkpt lat="25.825284672425884" lon="-80.48267806786144"><ele>9.0</ele><time>2026-04-19T12:10:44Z</time></trkpt><trkpt lat="25.825387584076186" lon="-80.48268033084348"><ele>8.6</ele><time>2026-04-19T12:10:45Z</time></trkpt><trkpt lat="25.82549143382461" lon="-80.48268589145795"><ele>8.2</ele><time>2026-04-19T12:10:46Z</time></trkpt><trkpt lat="25.82559658049595" lon="-80.48268857338408"><ele>7.799999999999999</ele><time>2026-04-19T12:10:47Z</time></trkpt><trkpt lat="25.825704912791355" lon="-80.48269335998644"><ele>7.3999999999999995</ele><time>2026-04-19T12:10:48Z</time></trkpt><trkpt lat="25.825815081678748" lon="-80.48269549107846"><ele>7.0</ele><time>2026-04-19T12:10:49Z</time></trkpt><trkpt lat="25.825925151540805" lon="-80.48270066905455"><ele>6.8</ele><time>2026-04-19T12:10:50Z</time></trkpt><trkpt lat="25.826036569497752" lon="-80.48270964068645"><ele>6.6</ele><time>2026-04-19T12:10:51Z</time></trkpt><trkpt lat="25.82614618969426" lon="-80.48271281180227"><ele>6.3999999999999995</ele><time>2026-04-19T12:10:52Z</time></trkpt><trkpt lat="25.82625408447946" lon="-80.48271624369144"><ele>6.199999999999999</ele><time>2026-04-19T12:10:53Z</time></trkpt><trkpt lat="25.826363647009256" lon="-80.48271864696888"><ele>6.0</ele><time>2026-04-19T12:10:54Z</time></trkpt><trkpt lat="25.826472087631082" lon="-80.4827207493731"><ele>6.0</ele><time>2026-04-19T12:10:55Z</time></trkpt><trkpt lat="25.82658106369051" lon="-80.48272810500224"><ele>6.0</ele><time>2026-04-19T12:10:56Z</time></trkpt><trkpt lat="25.826690601009695" lon="-80.48273303367634"><ele>6.0</ele><time>2026-04-19T12:10:57Z</time></trkpt><trkpt lat="25.82679810372159" lon="-80.4827375696452"><ele>6.0</ele><time>2026-04-19T12:10:58Z</time></trkpt><trkpt lat="25.826904459823098" lon="-80.48273988458814"><ele>6.0</ele><time>2026-04-19T12:10:59Z</time></trkpt><trkpt lat="25.827008695395087" lon="-80.48274485502793"><ele>5.8</ele><time>2026-04-19T12:11:00Z</time></trkpt><trkpt lat="25.827113154990506" lon="-80.48275105657143"><ele>5.6</ele><time>2026-04-19T12:11:01Z</time></trkpt><trkpt lat="25.8272152675661" lon="-80.48275472896353"><ele>5.4</ele><time>2026-04-19T12:11:02Z</time></trkpt><trkpt lat="25.827316131063668" lon="-80.48275759004012"><ele>5.2</ele><time>2026-04-19T12:11:03Z</time></trkpt><trkpt lat="25.827418634937768" lon="-80.48276030637582"><ele>5.0</ele><time>2026-04-19T12:11:04Z</time></trkpt><trkpt lat="25.827522967814982" lon="-80.48276310768091"><ele>5.0</ele><time>2026-04-19T12:11:05Z</time></trkpt><trkpt lat="25.827625268951532" lon="-80.48276833085107"><ele>5.0</ele><time>2026-04-19T12:11:06Z</time></trkpt><trkpt lat="25.827727579986234" lon="-80.48277310378141"><ele>5.0</ele><time>2026-04-19T12:11:07Z</time></trkpt><trkpt lat="25.827830053124107" lon="-80.48277563302096"><ele>5.0</ele><time>2026-04-19T12:11:08Z</time></trkpt><trkpt lat="25.82793318686133" lon="-80.48277951333793"><ele>5.0</ele><time>2026-04-19T12:11:09Z</time></trkpt><trkpt lat="25.828037962370974" lon="-80.48278397128162"><ele>5.0</ele><time>2026-04-19T12:11:10Z</time></trkpt><trkpt lat="25.828143124114405" lon="-80.48278781975299"><ele>5.0</ele><time>2026-04-19T12:11:11Z</time></trkpt><trkpt lat="25.82825109205837" lon="-80.48279269931949"><ele>5.0</ele><time>2026-04-19T12:11:12Z</time></trkpt><trkpt lat="25.82835974113879" lon="-80.48279616367807"><ele>5.0</ele><time>2026-04-19T12:11:13Z</time></trkpt><trkpt lat="25.828468265232704" lon="-80.48279888987479"><ele>5.0</ele><time>2026-04-19T12:11:14Z</time></trkpt><trkpt lat="25.82857749780487" lon="-80.48280314251394"><ele>5.0</ele><time>2026-04-19T12:11:15Z</time></trkpt><trkpt lat="25.828685388935902" lon="-80.48280834072678"><ele>5.0</ele><time>2026-04-19T12:11:16Z</time></trkpt><trkpt lat="25.828793805606214" lon="-80.48281328964815"><ele>5.0</ele><time>2026-04-19T12:11:17Z</time></trkpt><trkpt lat="25.82889904384596" lon="-80.4828194387499"><ele>5.0</ele><time>2026-04-19T12:11:18Z</time></trkpt><trkpt lat="25.82900336760746" lon="-80.48282554958172"><ele>5.0</ele><time>2026-04-19T12:11:19Z</time></trkpt><trkpt lat="25.829106161530103" lon="-80.48283125817593"><ele>5.0</ele><time>2026-04-19T12:11:20Z</time></trkpt><trkpt lat="25.829208729852418" lon="-80.482833244194"><ele>5.0</ele><time>2026-04-19T12:11:21Z</time></trkpt><trkpt lat="25.829310826670085" lon="-80.48283539029397"><ele>5.0</ele><time>2026-04-19T12:11:22Z</time></trkpt><trkpt lat="25.829411432687436" lon="-80.48284128993004"><ele>5.0</ele><time>2026-04-19T12:11:23Z</time></trkpt><trkpt lat="25.82951180562989" lon="-80.48284563120612"><ele>5.0</ele><time>2026-04-19T12:11:23.999Z</time></trkpt><trkpt lat="25.829609015196002" lon="-80.48284625909083"><ele>5.0</ele><time>2026-04-19T12:11:24.999Z</time></trkpt><trkpt lat="25.82971110651366" lon="-80.48285049624612"><ele>5.0</ele><time>2026-04-19T12:11:25.999Z</time></trkpt><trkpt lat="25.829811019783104" lon="-80.48285435996488"><ele>5.0</ele><time>2026-04-19T12:11:26.999Z</time></trkpt><trkpt lat="25.829910998775357" lon="-80.48285862979122"><ele>5.0</ele><time>2026-04-19T12:11:27.999Z</time></trkpt><trkpt lat="25.83001124148952" lon="-80.48286204289028"><ele>5.0</ele><time>2026-04-19T12:11:28.999Z</time></trkpt><trkpt lat="25.83011315766202" lon="-80.48286793894269"><ele>5.0</ele><time>2026-04-19T12:11:29.999Z</time></trkpt><trkpt lat="25.830214424099218" lon="-80.48287072157561"><ele>5.0</ele><time>2026-04-19T12:11:30.999Z</time></trkpt><trkpt lat="25.830314990517774" lon="-80.48287292519998"><ele>5.0</ele><time>2026-04-19T12:11:31.999Z</time></trkpt><trkpt lat="25.830415920085315" lon="-80.48287888527494"><ele>5.0</ele><time>2026-04-19T12:11:32.999Z</time></trkpt><trkpt lat="25.83051560422354" lon="-80.48288364089375"><ele>5.0</ele><time>2026-04-19T12:11:33.999Z</time></trkpt><trkpt lat="25.83061349062544" lon="-80.48288512568033"><ele>5.0</ele><time>2026-04-19T12:11:34.999Z</time></trkpt><trkpt lat="25.830710324618202" lon="-80.48288832838476"><ele>5.0</ele><time>2026-04-19T12:11:35.999Z</time></trkpt><trkpt lat="25.830805158269268" lon="-80.48289244704945"><ele>5.0</ele><time>2026-04-19T12:11:36.999Z</time></trkpt><trkpt lat="25.830902930855164" lon="-80.48289829699482"><ele>5.0</ele><time>2026-04-19T12:11:37.999Z</time></trkpt><trkpt lat="25.831000972178053" lon="-80.48290525215947"><ele>5.0</ele><time>2026-04-19T12:11:38.999Z</time></trkpt><trkpt lat="25.831100678500217" lon="-80.4829075889518"><ele>4.8</ele><time>2026-04-19T12:11:39.999Z</time></trkpt><trkpt lat="25.831200072928127" lon="-80.48290736192638"><ele>4.6</ele><time>2026-04-19T12:11:40.999Z</time></trkpt><trkpt lat="25.831296324624113" lon="-80.48291057984228"><ele>4.4</ele><time>2026-04-19T12:11:41.999Z</time></trkpt><trkpt lat="25.83139463717957" lon="-80.48291381325403"><ele>4.2</ele><time>2026-04-19T12:11:42.999Z</time></trkpt><trkpt lat="25.831495895889617" lon="-80.48291845773839"><ele>4.0</ele><time>2026-04-19T12:11:43.999Z</time></trkpt><trkpt lat="25.831595226884755" lon="-80.48292212931206"><ele>4.0</ele><time>2026-04-19T12:11:44.999Z</time></trkpt><trkpt lat="25.831695649397577" lon="-80.48292605470785"><ele>4.0</ele><time>2026-04-19T12:11:45.999Z</time></trkpt><trkpt lat="25.831795833017207" lon="-80.48292859583793"><ele>4.0</ele><time>2026-04-19T12:11:46.999Z</time></trkpt><trkpt lat="25.83189653429443" lon="-80.48293325652277"><ele>4.0</ele><time>2026-04-19T12:11:47.999Z</time></trkpt><trkpt lat="25.83199629068958" lon="-80.48293696586431"><ele>4.0</ele><time>2026-04-19T12:11:48.999Z</time></trkpt><trkpt lat="25.832097344542" lon="-80.48294153948615"><ele>4.4</ele><time>2026-04-19T12:11:49.999Z</time></trkpt><trkpt lat="25.83219862197504" lon="-80.48294456303356"><ele>4.800000000000001</ele><time>2026-04-19T12:11:50.999Z</time></trkpt><trkpt lat="25.832302542537025" lon="-80.48294987345116"><ele>5.199999999999999</ele><time>2026-04-19T12:11:51.999Z</time></trkpt><trkpt lat="25.83240696721251" lon="-80.48295411916003"><ele>5.6</ele><time>2026-04-19T12:11:52.999Z</time></trkpt><trkpt lat="25.832509158539782" lon="-80.48295825444937"><ele>6.0</ele><time>2026-04-19T12:11:53.999Z</time></trkpt><trkpt lat="25.8326100821037" lon="-80.48296224378892"><ele>6.199999999999999</ele><time>2026-04-19T12:11:54.999Z</time></trkpt><trkpt lat="25.83271045755614" lon="-80.48296720658685"><ele>6.3999999999999995</ele><time>2026-04-19T12:11:55.999Z</time></trkpt><trkpt lat="25.832808043727276" lon="-80.48297061750252"><ele>6.6</ele><time>2026-04-19T12:11:56.999Z</time></trkpt><trkpt lat="25.832904882473816" lon="-80.48297608954044"><ele>6.8</ele><time>2026-04-19T12:11:57.999Z</time></trkpt><trkpt lat="25.83300108827424" lon="-80.48297924384198"><ele>7.0</ele><time>2026-04-19T12:11:58.999Z</time></trkpt><trkpt lat="25.833098524680516" lon="-80.48298182809691"><ele>7.0</ele><time>2026-04-19T12:11:59.999Z</time></trkpt><trkpt lat="25.833194228652452" lon="-80.48298442117412"><ele>6.999999999999999</ele><time>2026-04-19T12:12:00.999Z</time></trkpt><trkpt lat="25.833288424607634" lon="-80.48298823741807"><ele>6.999999999999999</ele><time>2026-04-19T12:12:01.999Z</time></trkpt><trkpt lat="25.83338285202589" lon="-80.48299376838645"><ele>7.0</ele><time>2026-04-19T12:12:02.999Z</time></trkpt><trkpt lat="25.833476216576273" lon="-80.4829989496601"><ele>7.0</ele><time>2026-04-19T12:12:03.999Z</time></trkpt><trkpt lat="25.833567606427252" lon="-80.48300235395268"><ele>6.8</ele><time>2026-04-19T12:12:04.999Z</time></trkpt><trkpt lat="25.833661034147717" lon="-80.48300539398788"><ele>6.6</ele><time>2026-04-19T12:12:05.999Z</time></trkpt><trkpt lat="25.83375583200432" lon="-80.48300648411838"><ele>6.3999999999999995</ele><time>2026-04-19T12:12:06.999Z</time></trkpt><trkpt lat="25.833851614115208" lon="-80.48300849266855"><ele>6.199999999999999</ele><time>2026-04-19T12:12:07.999Z</time></trkpt><trkpt lat="25.833947699216438" lon="-80.48301173129393"><ele>6.0</ele><time>2026-04-19T12:12:08.999Z</time></trkpt><trkpt lat="25.834047262586374" lon="-80.48301779790306"><ele>6.0</ele><time>2026-04-19T12:12:09.999Z</time></trkpt><trkpt lat="25.834147955271906" lon="-80.48302195392674"><ele>6.0</ele><time>2026-04-19T12:12:10.999Z</time></trkpt><trkpt lat="25.834248953652832" lon="-80.48302725633101"><ele>6.0</ele><time>2026-04-19T12:12:11.999Z</time></trkpt><trkpt lat="25.834351182851435" lon="-80.48302946707291"><ele>6.0</ele><time>2026-04-19T12:12:12.999Z</time></trkpt><trkpt lat="25.834455739522063" lon="-80.48303348313988"><ele>6.0</ele><time>2026-04-19T12:12:13.999Z</time></trkpt><trkpt lat="25.834561500499326" lon="-80.48303928042343"><ele>6.0</ele><time>2026-04-19T12:12:14.999Z</time></trkpt><trkpt lat="25.834666761849903" lon="-80.48304393803772"><ele>6.0</ele><time>2026-04-19T12:12:15.999Z</time></trkpt><trkpt lat="25.834771752431415" lon="-80.48304648774341"><ele>6.0</ele><time>2026-04-19T12:12:16.999Z</time></trkpt><trkpt lat="25.83487370092729" lon="-80.48304776393995"><ele>6.0</ele><time>2026-04-19T12:12:17.999Z</time></trkpt><trkpt lat="25.834974219607584" lon="-80.4830549745054"><ele>6.0</ele><time>2026-04-19T12:12:18.999Z</time></trkpt><trkpt lat="25.83507441416947" lon="-80.48305945722298"><ele>5.8</ele><time>2026-04-19T12:12:19.999Z</time></trkpt><trkpt lat="25.83517469731885" lon="-80.48306552428647"><ele>5.6</ele><time>2026-04-19T12:12:20.999Z</time></trkpt><trkpt lat="25.83527717554094" lon="-80.48306867986946"><ele>5.4</ele><time>2026-04-19T12:12:21.999Z</time></trkpt><trkpt lat="25.835376918652752" lon="-80.48307187834257"><ele>5.2</ele><time>2026-04-19T12:12:22.999Z</time></trkpt><trkpt lat="25.83547638065653" lon="-80.48307460167864"><ele>5.0</ele><time>2026-04-19T12:12:23.999Z</time></trkpt><trkpt lat="25.835576197084354" lon="-80.48307907031317"><ele>5.0</ele><time>2026-04-19T12:12:24.999Z</time></trkpt><trkpt lat="25.835672842502287" lon="-80.48308297720016"><ele>5.0</ele><time>2026-04-19T12:12:25.999Z</time></trkpt><trkpt lat="25.835768918274923" lon="-80.48308564673384"><ele>5.0</ele><time>2026-04-19T12:12:26.999Z</time></trkpt><trkpt lat="25.835866480722295" lon="-80.48309078532574"><ele>5.0</ele><time>2026-04-19T12:12:27.999Z</time></trkpt><trkpt lat="25.835964518277233" lon="-80.48309596912421"><ele>5.0</ele><time>2026-04-19T12:12:28.999Z</time></trkpt><trkpt lat="25.836063028561327" lon="-80.4831013151134"><ele>5.0</ele><time>2026-04-19T12:12:29.999Z</time></trkpt><trkpt lat="25.83616239906875" lon="-80.48310570612556"><ele>5.0</ele><time>2026-04-19T12:12:30.999Z</time></trkpt><trkpt lat="25.83626261536201" lon="-80.48310804545967"><ele>5.0</ele><time>2026-04-19T12:12:31.999Z</time></trkpt><trkpt lat="25.83636269278993" lon="-80.48311094452207"><ele>5.0</ele><time>2026-04-19T12:12:32.999Z</time></trkpt><trkpt lat="25.83646347279689" lon="-80.48311334808538"><ele>5.0</ele><time>2026-04-19T12:12:33.999Z</time></trkpt><trkpt lat="25.83656593479111" lon="-80.4831199189328"><ele>5.0</ele><time>2026-04-19T12:12:34.999Z</time></trkpt><trkpt lat="25.83666800675164" lon="-80.48312510793023"><ele>5.0</ele><time>2026-04-19T12:12:36Z</time></trkpt><trkpt lat="25.83676879115634" lon="-80.48312984760793"><ele>5.0</ele><time>2026-04-19T12:12:37Z</time></trkpt><trkpt lat="25.8368707216295" lon="-80.48313381834032"><ele>5.0</ele><time>2026-04-19T12:12:38Z</time></trkpt><trkpt lat="25.836971914860875" lon="-80.48313687963174"><ele>5.0</ele><time>2026-04-19T12:12:39Z</time></trkpt><trkpt lat="25.83707178683615" lon="-80.48313877661069"><ele>5.2</ele><time>2026-04-19T12:12:40Z</time></trkpt><trkpt lat="25.837172006758898" lon="-80.4831393732481"><ele>5.4</ele><time>2026-04-19T12:12:41Z</time></trkpt><trkpt lat="25.83726847973675" lon="-80.48314412639809"><ele>5.6</ele><time>2026-04-19T12:12:42Z</time></trkpt><trkpt lat="25.83736485731777" lon="-80.48315082754114"><ele>5.8</ele><time>2026-04-19T12:12:43Z</time></trkpt><trkpt lat="25.837459128558216" lon="-80.48315630934174"><ele>6.0</ele><time>2026-04-19T12:12:44Z</time></trkpt><trkpt lat="25.83755314960124" lon="-80.48316057962428"><ele>5.8</ele><time>2026-04-19T12:12:45Z</time></trkpt><trkpt lat="25.8376480223799" lon="-80.48316494915879"><ele>5.6</ele><time>2026-04-19T12:12:46Z</time></trkpt><trkpt lat="25.83774400051711" lon="-80.48316986424923"><ele>5.4</ele><time>2026-04-19T12:12:47Z</time></trkpt><trkpt lat="25.83783988432817" lon="-80.4831714387244"><ele>5.2</ele><time>2026-04-19T12:12:48Z</time></trkpt><trkpt lat="25.83793665795106" lon="-80.48317173450863"><ele>5.0</ele><time>2026-04-19T12:12:49Z</time></trkpt><trkpt lat="25.838033103265527" lon="-80.48317477939212"><ele>5.0</ele><time>2026-04-19T12:12:50Z</time></trkpt><trkpt lat="25.83812821483898" lon="-80.4831804461168"><ele>5.0</ele><time>2026-04-19T12:12:51Z</time></trkpt><trkpt lat="25.838223145679716" lon="-80.48318483607171"><ele>5.0</ele><time>2026-04-19T12:12:52Z</time></trkpt><trkpt lat="25.8383163964193" lon="-80.48318875887121"><ele>5.0</ele><time>2026-04-19T12:12:53Z</time></trkpt><trkpt lat="25.838411380873136" lon="-80.48319174864515"><ele>5.0</ele><time>2026-04-19T12:12:54Z</time></trkpt><trkpt lat="25.838506705505292" lon="-80.4831940995873"><ele>5.4</ele><time>2026-04-19T12:12:55Z</time></trkpt><trkpt lat="25.838601520444307" lon="-80.4831969724298"><ele>5.8</ele><time>2026-04-19T12:12:56Z</time></trkpt><trkpt lat="25.83869779717812" lon="-80.48320323964863"><ele>6.199999999999999</ele><time>2026-04-19T12:12:57Z</time></trkpt><trkpt lat="25.838795332726804" lon="-80.4832070598627"><ele>6.6</ele><time>2026-04-19T12:12:58Z</time></trkpt><trkpt lat="25.838889587438434" lon="-80.48321008460917"><ele>7.0</ele><time>2026-04-19T12:12:59Z</time></trkpt><trkpt lat="25.83898400522665" lon="-80.48321571863575"><ele>7.0</ele><time>2026-04-19T12:13:00Z</time></trkpt><trkpt lat="25.839078179917166" lon="-80.4832199863054"><ele>6.999999999999999</ele><time>2026-04-19T12:13:01Z</time></trkpt><trkpt lat="25.839174793623908" lon="-80.48322115836656"><ele>6.999999999999999</ele><time>2026-04-19T12:13:02Z</time></trkpt><trkpt lat="25.83927067571772" lon="-80.48322572924042"><ele>7.0</ele><time>2026-04-19T12:13:03Z</time></trkpt><trkpt lat="25.83936563065436" lon="-80.48322931056236"><ele>7.0</ele><time>2026-04-19T12:13:04Z</time></trkpt><trkpt lat="25.839459778444205" lon="-80.48323320957901"><ele>7.0</ele><time>2026-04-19T12:13:05Z</time></trkpt><trkpt lat="25.83955288236043" lon="-80.48323779532588"><ele>6.999999999999999</ele><time>2026-04-19T12:13:06Z</time></trkpt><trkpt lat="25.83964414284425" lon="-80.48323995007884"><ele>6.999999999999999</ele><time>2026-04-19T12:13:07Z</time></trkpt><trkpt lat="25.83973471736775" lon="-80.48324124110358"><ele>7.0</ele><time>2026-04-19T12:13:08Z</time></trkpt><trkpt lat="25.839825760171887" lon="-80.48324418757065"><ele>7.0</ele><time>2026-04-19T12:13:09Z</time></trkpt><trkpt lat="25.839916769392545" lon="-80.4832492064227"><ele>7.000000000000001</ele><time>2026-04-19T12:13:10Z</time></trkpt><trkpt lat="25.84000826333657" lon="-80.48325550473824"><ele>7.0</ele><time>2026-04-19T12:13:11Z</time></trkpt><trkpt lat="25.840097163201282" lon="-80.48325959594581"><ele>7.0</ele><time>2026-04-19T12:13:12Z</time></trkpt><trkpt lat="25.840184859484534" lon="-80.48326121133572"><ele>7.0</ele><time>2026-04-19T12:13:13Z</time></trkpt><trkpt lat="25.84027444161621" lon="-80.48326731414338"><ele>7.000000000000001</ele><time>2026-04-19T12:13:14Z</time></trkpt><trkpt lat="25.84036386666837" lon="-80.4832705718854"><ele>7.0</ele><time>2026-04-19T12:13:15Z</time></trkpt><trkpt lat="25.84045486712251" lon="-80.48327423347887"><ele>7.0</ele><time>2026-04-19T12:13:16Z</time></trkpt><trkpt lat="25.84054583116232" lon="-80.48327516671216"><ele>6.999999999999999</ele><time>2026-04-19T12:13:17Z</time></trkpt><trkpt lat="25.840637268313476" lon="-80.48327956152926"><ele>6.999999999999999</ele><time>2026-04-19T12:13:18Z</time></trkpt><trkpt lat="25.840729468965097" lon="-80.48328287399373"><ele>7.0</ele><time>2026-04-19T12:13:19Z</time></trkpt><trkpt lat="25.84082224748044" lon="-80.48328544107129"><ele>7.0</ele><time>2026-04-19T12:13:20Z</time></trkpt><trkpt lat="25.840913178331586" lon="-80.48328858092742"><ele>6.833333333333334</ele><time>2026-04-19T12:13:21Z</time></trkpt><trkpt lat="25.841002618450418" lon="-80.48329292707643"><ele>6.666666666666667</ele><time>2026-04-19T12:13:22Z</time></trkpt><trkpt lat="25.841090362459394" lon="-80.48329884937742"><ele>6.5</ele><time>2026-04-19T12:13:23Z</time></trkpt><trkpt lat="25.841177703291812" lon="-80.48330038398161"><ele>6.333333333333334</ele><time>2026-04-19T12:13:23.999Z</time></trkpt><trkpt lat="25.841268588530138" lon="-80.48330219712963"><ele>6.166666666666667</ele><time>2026-04-19T12:13:24.999Z</time></trkpt><trkpt lat="25.841356544259387" lon="-80.48330563295214"><ele>6.0</ele><time>2026-04-19T12:13:25.999Z</time></trkpt><trkpt lat="25.841446319293734" lon="-80.4833089928826"><ele>6.0</ele><time>2026-04-19T12:13:26.999Z</time></trkpt><trkpt lat="25.84153851220422" lon="-80.4833129024546"><ele>6.0</ele><time>2026-04-19T12:13:27.999Z</time></trkpt><trkpt lat="25.841632722073342" lon="-80.48331624576316"><ele>6.0</ele><time>2026-04-19T12:13:28.999Z</time></trkpt><trkpt lat="25.841726716604157" lon="-80.48332091137759"><ele>6.0</ele><time>2026-04-19T12:13:29.999Z</time></trkpt><trkpt lat="25.84182008036306" lon="-80.48332693495692"><ele>6.0</ele><time>2026-04-19T12:13:30.999Z</time></trkpt><trkpt lat="25.84191393545347" lon="-80.48333043033392"><ele>5.8</ele><time>2026-04-19T12:13:31.999Z</time></trkpt><trkpt lat="25.84200644875154" lon="-80.48333250518841"><ele>5.6</ele><time>2026-04-19T12:13:32.999Z</time></trkpt><trkpt lat="25.842099694957287" lon="-80.483334116009"><ele>5.4</ele><time>2026-04-19T12:13:33.999Z</time></trkpt><trkpt lat="25.842193140276024" lon="-80.4833392655854"><ele>5.2</ele><time>2026-04-19T12:13:34.999Z</time></trkpt><trkpt lat="25.842285275213737" lon="-80.48334484068683"><ele>5.0</ele><time>2026-04-19T12:13:35.999Z</time></trkpt><trkpt lat="25.842375968849247" lon="-80.48334962340441"><ele>5.0</ele><time>2026-04-19T12:13:36.999Z</time></trkpt><trkpt lat="25.842468808747626" lon="-80.4833537093308"><ele>5.0</ele><time>2026-04-19T12:13:37.999Z</time></trkpt><trkpt lat="25.842560415470764" lon="-80.48335614043017"><ele>5.0</ele><time>2026-04-19T12:13:38.999Z</time></trkpt><trkpt lat="25.842651997696695" lon="-80.48336013542202"><ele>5.0</ele><time>2026-04-19T12:13:39.999Z</time></trkpt><trkpt lat="25.84274455622274" lon="-80.48336583888351"><ele>5.0</ele><time>2026-04-19T12:13:40.999Z</time></trkpt><trkpt lat="25.84283695854432" lon="-80.48336584197686"><ele>5.0</ele><time>2026-04-19T12:13:41.999Z</time></trkpt><trkpt lat="25.842928729894965" lon="-80.48336976493798"><ele>5.0</ele><time>2026-04-19T12:13:42.999Z</time></trkpt><trkpt lat="25.843020961406758" lon="-80.48337258861892"><ele>5.0</ele><time>2026-04-19T12:13:43.999Z</time></trkpt><trkpt lat="25.8431133680881" lon="-80.483376430177"><ele>5.0</ele><time>2026-04-19T12:13:44.999Z</time></trkpt><trkpt lat="25.84320520798549" lon="-80.48338015944445"><ele>5.0</ele><time>2026-04-19T12:13:45.999Z</time></trkpt><trkpt lat="25.84329881937222" lon="-80.48338610144212"><ele>5.0</ele><time>2026-04-19T12:13:46.999Z</time></trkpt><trkpt lat="25.84339315575313" lon="-80.48338902975175"><ele>5.0</ele><time>2026-04-19T12:13:47.999Z</time></trkpt><trkpt lat="25.843487456765985" lon="-80.48338880820334"><ele>5.0</ele><time>2026-04-19T12:13:48.999Z</time></trkpt><trkpt lat="25.843581409567165" lon="-80.48339270622846"><ele>5.0</ele><time>2026-04-19T12:13:49.999Z</time></trkpt><trkpt lat="25.843675309681213" lon="-80.4833971527807"><ele>5.0</ele><time>2026-04-19T12:13:50.999Z</time></trkpt><trkpt lat="25.843769507750302" lon="-80.48340088982441"><ele>5.2</ele><time>2026-04-19T12:13:51.999Z</time></trkpt><trkpt lat="25.843864042900588" lon="-80.48340585297497"><ele>5.4</ele><time>2026-04-19T12:13:52.999Z</time></trkpt><trkpt lat="25.843956077614337" lon="-80.48340876333658"><ele>5.6</ele><time>2026-04-19T12:13:53.999Z</time></trkpt><trkpt lat="25.844050869883958" lon="-80.48341214942651"><ele>5.8</ele><time>2026-04-19T12:13:54.999Z</time></trkpt><trkpt lat="25.84414200959853" lon="-80.48341433902219"><ele>6.0</ele><time>2026-04-19T12:13:55.999Z</time></trkpt><trkpt lat="25.844230373666342" lon="-80.48341636515548"><ele>5.833333333333333</ele><time>2026-04-19T12:13:56.999Z</time></trkpt><trkpt lat="25.84431869716314" lon="-80.48342215776407"><ele>5.666666666666667</ele><time>2026-04-19T12:13:57.999Z</time></trkpt><trkpt lat="25.844408616655308" lon="-80.48342641828904"><ele>5.5</ele><time>2026-04-19T12:13:58.999Z</time></trkpt><trkpt lat="25.844498123632043" lon="-80.48343036004721"><ele>5.333333333333334</ele><time>2026-04-19T12:13:59.999Z</time></trkpt><trkpt lat="25.844589033272403" lon="-80.48343265429297"><ele>5.166666666666667</ele><time>2026-04-19T12:14:00.999Z</time></trkpt><trkpt lat="25.84467948252163" lon="-80.4834367846118"><ele>5.0</ele><time>2026-04-19T12:14:01.999Z</time></trkpt><trkpt lat="25.844769813992787" lon="-80.4834415811223"><ele>5.0</ele><time>2026-04-19T12:14:02.999Z</time></trkpt><trkpt lat="25.84486249518865" lon="-80.483444334194"><ele>5.0</ele><time>2026-04-19T12:14:03.999Z</time></trkpt><trkpt lat="25.844957322707604" lon="-80.48344819328064"><ele>5.0</ele><time>2026-04-19T12:14:04.999Z</time></trkpt><trkpt lat="25.84505166894193" lon="-80.48344942768611"><ele>5.0</ele><time>2026-04-19T12:14:05.999Z</time></trkpt><trkpt lat="25.845149643677082" lon="-80.48345391298673"><ele>5.0</ele><time>2026-04-19T12:14:06.999Z</time></trkpt><trkpt lat="25.84524487526274" lon="-80.48345894719813"><ele>5.0</ele><time>2026-04-19T12:14:07.999Z</time></trkpt><trkpt lat="25.845341987805835" lon="-80.48346334680623"><ele>5.0</ele><time>2026-04-19T12:14:08.999Z</time></trkpt><trkpt lat="25.84543809084447" lon="-80.48346762048922"><ele>5.0</ele><time>2026-04-19T12:14:09.999Z</time></trkpt><trkpt lat="25.84553745317842" lon="-80.48347400795359"><ele>5.0</ele><time>2026-04-19T12:14:10.999Z</time></trkpt><trkpt lat="25.8456388642331" lon="-80.48348228239992"><ele>5.0</ele><time>2026-04-19T12:14:11.999Z</time></trkpt><trkpt lat="25.845740371096277" lon="-80.4834844068498"><ele>5.0</ele><time>2026-04-19T12:14:12.999Z</time></trkpt><trkpt lat="25.845842516919095" lon="-80.48348894286057"><ele>5.0</ele><time>2026-04-19T12:14:13.999Z</time></trkpt><trkpt lat="25.84594034952481" lon="-80.4834925159543"><ele>5.0</ele><time>2026-04-19T12:14:14.999Z</time></trkpt><trkpt lat="25.846043717961702" lon="-80.4834944865729"><ele>5.0</ele><time>2026-04-19T12:14:15.999Z</time></trkpt><trkpt lat="25.84614806367616" lon="-80.48350071639273"><ele>5.0</ele><time>2026-04-19T12:14:16.999Z</time></trkpt><trkpt lat="25.846251076972507" lon="-80.48350377301978"><ele>5.2</ele><time>2026-04-19T12:14:17.999Z</time></trkpt><trkpt lat="25.84635373037269" lon="-80.48350926754897"><ele>5.4</ele><time>2026-04-19T12:14:18.999Z</time></trkpt><trkpt lat="25.846457820676317" lon="-80.48351221434586"><ele>5.6</ele><time>2026-04-19T12:14:19.999Z</time></trkpt><trkpt lat="25.846563424816356" lon="-80.48351763040682"><ele>5.8</ele><time>2026-04-19T12:14:20.999Z</time></trkpt><trkpt lat="25.8466684782232" lon="-80.48351948136342"><ele>6.0</ele><time>2026-04-19T12:14:21.999Z</time></trkpt><trkpt lat="25.846773272112518" lon="-80.48352510474263"><ele>5.6</ele><time>2026-04-19T12:14:22.999Z</time></trkpt><trkpt lat="25.846879965779483" lon="-80.48352978818498"><ele>5.199999999999999</ele><time>2026-04-19T12:14:23.999Z</time></trkpt><trkpt lat="25.846988814159225" lon="-80.48353707974425"><ele>4.800000000000001</ele><time>2026-04-19T12:14:24.999Z</time></trkpt><trkpt lat="25.847097556479117" lon="-80.48353931296604"><ele>4.4</ele><time>2026-04-19T12:14:25.999Z</time></trkpt><trkpt lat="25.84721046884357" lon="-80.48354215237606"><ele>4.0</ele><time>2026-04-19T12:14:26.999Z</time></trkpt><trkpt lat="25.847323918805706" lon="-80.48354395587364"><ele>4.0</ele><time>2026-04-19T12:14:27.999Z</time></trkpt><trkpt lat="25.847439952117075" lon="-80.48354796426747"><ele>4.0</ele><time>2026-04-19T12:14:28.999Z</time></trkpt><trkpt lat="25.847553093538647" lon="-80.48355186718497"><ele>4.0</ele><time>2026-04-19T12:14:29.999Z</time></trkpt><trkpt lat="25.847666524110828" lon="-80.48355901901164"><ele>4.0</ele><time>2026-04-19T12:14:30.999Z</time></trkpt><trkpt lat="25.84778039319262" lon="-80.48356590805113"><ele>4.4</ele><time>2026-04-19T12:14:31.999Z</time></trkpt><trkpt lat="25.84789370356104" lon="-80.48357145512287"><ele>4.800000000000001</ele><time>2026-04-19T12:14:32.999Z</time></trkpt><trkpt lat="25.848006204679187" lon="-80.48357384184627"><ele>5.199999999999999</ele><time>2026-04-19T12:14:33.999Z</time></trkpt><trkpt lat="25.84811663363919" lon="-80.48357598550086"><ele>5.6</ele><time>2026-04-19T12:14:34.999Z</time></trkpt><trkpt lat="25.848229391400075" lon="-80.48357984135501"><ele>6.0</ele><time>2026-04-19T12:14:35.999Z</time></trkpt><trkpt lat="25.848342630237706" lon="-80.48358295103974"><ele>6.0</ele><time>2026-04-19T12:14:36.999Z</time></trkpt><trkpt lat="25.848455011797263" lon="-80.48358711313149"><ele>6.0</ele><time>2026-04-19T12:14:37.999Z</time></trkpt><trkpt lat="25.848567882940177" lon="-80.48359327124781"><ele>6.0</ele><time>2026-04-19T12:14:38.999Z</time></trkpt><trkpt lat="25.848680681438953" lon="-80.4835965217203"><ele>6.0</ele><time>2026-04-19T12:14:39.999Z</time></trkpt><trkpt lat="25.848793833023347" lon="-80.48360253372675"><ele>6.25</ele><time>2026-04-19T12:14:40.999Z</time></trkpt><trkpt lat="25.848904949673273" lon="-80.48360829772275"><ele>6.5</ele><time>2026-04-19T12:14:42Z</time></trkpt><trkpt lat="25.849018285952017" lon="-80.48361148396802"><ele>6.75</ele><time>2026-04-19T12:14:43Z</time></trkpt><trkpt lat="25.849132200424208" lon="-80.4836163246982"><ele>7.0</ele><time>2026-04-19T12:14:44Z</time></trkpt><trkpt lat="25.849244799119408" lon="-80.48361967091513"><ele>6.6</ele><time>2026-04-19T12:14:45Z</time></trkpt><trkpt lat="25.849355391445762" lon="-80.48362330664132"><ele>6.199999999999999</ele><time>2026-04-19T12:14:46Z</time></trkpt><trkpt lat="25.84946343563321" lon="-80.48362663568939"><ele>5.8</ele><time>2026-04-19T12:14:47Z</time></trkpt><trkpt lat="25.849571314323832" lon="-80.48362869597898"><ele>5.4</ele><time>2026-04-19T12:14:48Z</time></trkpt><trkpt lat="25.849679665206853" lon="-80.48363019089503"><ele>5.0</ele><time>2026-04-19T12:14:49Z</time></trkpt><trkpt lat="25.84978888426958" lon="-80.48363368452996"><ele>5.0</ele><time>2026-04-19T12:14:50Z</time></trkpt><trkpt lat="25.849898947505515" lon="-80.48363853973125"><ele>5.0</ele><time>2026-04-19T12:14:51Z</time></trkpt><trkpt lat="25.85001020360322" lon="-80.48364219843218"><ele>5.0</ele><time>2026-04-19T12:14:52Z</time></trkpt><trkpt lat="25.85012136551602" lon="-80.48364750544805"><ele>5.0</ele><time>2026-04-19T12:14:53Z</time></trkpt><trkpt lat="25.850231582187792" lon="-80.48364937704717"><ele>5.0</ele><time>2026-04-19T12:14:54Z</time></trkpt><trkpt lat="25.85034341962205" lon="-80.48365331115518"><ele>5.2</ele><time>2026-04-19T12:14:55Z</time></trkpt><trkpt lat="25.85045450195327" lon="-80.48365865419105"><ele>5.4</ele><time>2026-04-19T12:14:56Z</time></trkpt><trkpt lat="25.85056604944961" lon="-80.48366567476793"><ele>5.6</ele><time>2026-04-19T12:14:57Z</time></trkpt><trkpt lat="25.850677897752544" lon="-80.48367167547038"><ele>5.8</ele><time>2026-04-19T12:14:58Z</time></trkpt><trkpt lat="25.850791189367374" lon="-80.4836751052113"><ele>6.0</ele><time>2026-04-19T12:14:59Z</time></trkpt><trkpt lat="25.85090162414182" lon="-80.48367842038341"><ele>5.6</ele><time>2026-04-19T12:15:00Z</time></trkpt><trkpt lat="25.851012021619024" lon="-80.48368273297733"><ele>5.199999999999999</ele><time>2026-04-19T12:15:01Z</time></trkpt><trkpt lat="25.851121962233563" lon="-80.48368782495812"><ele>4.800000000000001</ele><time>2026-04-19T12:15:02Z</time></trkpt><trkpt lat="25.851231362925642" lon="-80.48369182110093"><ele>4.4</ele><time>2026-04-19T12:15:03Z</time></trkpt><trkpt lat="25.85134156290042" lon="-80.48369838322613"><ele>4.0</ele><time>2026-04-19T12:15:04Z</time></trkpt><trkpt lat="25.851452168784423" lon="-80.48370399979363"><ele>4.0</ele><time>2026-04-19T12:15:05Z</time></trkpt><trkpt lat="25.85156308526066" lon="-80.48370762739324"><ele>4.0</ele><time>2026-04-19T12:15:06Z</time></trkpt><trkpt lat="25.851676002678992" lon="-80.48371084231518"><ele>4.0</ele><time>2026-04-19T12:15:07Z</time></trkpt><trkpt lat="25.851791145667963" lon="-80.48371324466515"><ele>4.0</ele><time>2026-04-19T12:15:08Z</time></trkpt><trkpt lat="25.85190669550326" lon="-80.48371499942918"><ele>4.2</ele><time>2026-04-19T12:15:09Z</time></trkpt><trkpt lat="25.85201915867327" lon="-80.483719052511"><ele>4.4</ele><time>2026-04-19T12:15:10Z</time></trkpt><trkpt lat="25.852129104146737" lon="-80.48372356812128"><ele>4.6</ele><time>2026-04-19T12:15:11Z</time></trkpt><trkpt lat="25.85223694634471" lon="-80.4837294251488"><ele>4.8</ele><time>2026-04-19T12:15:12Z</time></trkpt><trkpt lat="25.852348202945073" lon="-80.48373560676424"><ele>5.0</ele><time>2026-04-19T12:15:13Z</time></trkpt><trkpt lat="25.852458550386213" lon="-80.48374108648765"><ele>5.0</ele><time>2026-04-19T12:15:14Z</time></trkpt><trkpt lat="25.852567872877042" lon="-80.48374535513712"><ele>5.0</ele><time>2026-04-19T12:15:15Z</time></trkpt><trkpt lat="25.852679414902422" lon="-80.48374854825362"><ele>5.0</ele><time>2026-04-19T12:15:16Z</time></trkpt><trkpt lat="25.852789426048684" lon="-80.48375358053674"><ele>5.0</ele><time>2026-04-19T12:15:17Z</time></trkpt><trkpt lat="25.852901602615525" lon="-80.4837578605497"><ele>5.0</ele><time>2026-04-19T12:15:18Z</time></trkpt><trkpt lat="25.853012268618436" lon="-80.48376280485198"><ele>5.2</ele><time>2026-04-19T12:15:19Z</time></trkpt><trkpt lat="25.85312661955909" lon="-80.4837697355081"><ele>5.4</ele><time>2026-04-19T12:15:20Z</time></trkpt><trkpt lat="25.8532379124275" lon="-80.48377389167815"><ele>5.6</ele><time>2026-04-19T12:15:21Z</time></trkpt><trkpt lat="25.853348208168384" lon="-80.48377637858604"><ele>5.8</ele><time>2026-04-19T12:15:22Z</time></trkpt><trkpt lat="25.853457178891702" lon="-80.48377916308202"><ele>6.0</ele><time>2026-04-19T12:15:23Z</time></trkpt><trkpt lat="25.853568320320978" lon="-80.48378737457529"><ele>6.0</ele><time>2026-04-19T12:15:24Z</time></trkpt><trkpt lat="25.8536773695621" lon="-80.48379215793007"><ele>6.0</ele><time>2026-04-19T12:15:25Z</time></trkpt><trkpt lat="25.853786186330552" lon="-80.48379402966306"><ele>6.0</ele><time>2026-04-19T12:15:26Z</time></trkpt><trkpt lat="25.85389415182956" lon="-80.48379707589879"><ele>6.0</ele><time>2026-04-19T12:15:27Z</time></trkpt><trkpt lat="25.854001830461858" lon="-80.48379836608446"><ele>6.0</ele><time>2026-04-19T12:15:27.999Z</time></trkpt><trkpt lat="25.854110118448084" lon="-80.48380319835728"><ele>6.0</ele><time>2026-04-19T12:15:28.999Z</time></trkpt><trkpt lat="25.85421753793936" lon="-80.48380791633592"><ele>6.0</ele><time>2026-04-19T12:15:29.999Z</time></trkpt><trkpt lat="25.854325225229534" lon="-80.48381345059468"><ele>6.0</ele><time>2026-04-19T12:15:30.999Z</time></trkpt><trkpt lat="25.854429326601707" lon="-80.48381792013414"><ele>6.0</ele><time>2026-04-19T12:15:31.999Z</time></trkpt><trkpt lat="25.85453216998586" lon="-80.48381914803"><ele>6.0</ele><time>2026-04-19T12:15:32.999Z</time></trkpt><trkpt lat="25.85463546848103" lon="-80.48382203130888"><ele>6.0</ele><time>2026-04-19T12:15:33.999Z</time></trkpt><trkpt lat="25.854736062663914" lon="-80.48382499985459"><ele>6.0</ele><time>2026-04-19T12:15:34.999Z</time></trkpt><trkpt lat="25.854835086890848" lon="-80.48383070475506"><ele>6.0</ele><time>2026-04-19T12:15:35.999Z</time></trkpt><trkpt lat="25.854934364334323" lon="-80.4838350372179"><ele>6.0</ele><time>2026-04-19T12:15:36.999Z</time></trkpt><trkpt lat="25.855035483195106" lon="-80.48383937348562"><ele>6.0</ele><time>2026-04-19T12:15:37.999Z</time></trkpt><trkpt lat="25.85513836017989" lon="-80.48384223222342"><ele>5.8</ele><time>2026-04-19T12:15:38.999Z</time></trkpt><trkpt lat="25.85523933081054" lon="-80.48384674299588"><ele>5.6</ele><time>2026-04-19T12:15:39.999Z</time></trkpt><trkpt lat="25.855343596433965" lon="-80.48385016265266"><ele>5.4</ele><time>2026-04-19T12:15:40.999Z</time></trkpt><trkpt lat="25.8554459623515" lon="-80.4838534360967"><ele>5.2</ele><time>2026-04-19T12:15:41.999Z</time></trkpt><trkpt lat="25.855550127049643" lon="-80.48385474368288"><ele>5.0</ele><time>2026-04-19T12:15:42.999Z</time></trkpt><trkpt lat="25.855655284143143" lon="-80.48385930483057"><ele>5.0</ele><time>2026-04-19T12:15:43.999Z</time></trkpt><trkpt lat="25.85575871166409" lon="-80.48385930851727"><ele>5.0</ele><time>2026-04-19T12:15:44.999Z</time></trkpt><trkpt lat="25.855865020088704" lon="-80.48386308212112"><ele>5.0</ele><time>2026-04-19T12:15:45.999Z</time></trkpt><trkpt lat="25.855971004000587" lon="-80.48386648108769"><ele>5.0</ele><time>2026-04-19T12:15:46.999Z</time></trkpt><trkpt lat="25.856074871312703" lon="-80.48387012508627"><ele>5.0</ele><time>2026-04-19T12:15:47.999Z</time></trkpt><trkpt lat="25.85617925387993" lon="-80.48387155120437"><ele>5.2</ele><time>2026-04-19T12:15:48.999Z</time></trkpt><trkpt lat="25.85628578921132" lon="-80.48387264885275"><ele>5.4</ele><time>2026-04-19T12:15:49.999Z</time></trkpt><trkpt lat="25.856391794833506" lon="-80.48387185260995"><ele>5.6</ele><time>2026-04-19T12:15:50.999Z</time></trkpt><trkpt lat="25.856496878326755" lon="-80.48387531486742"><ele>5.8</ele><time>2026-04-19T12:15:51.999Z</time></trkpt><trkpt lat="25.856602158494095" lon="-80.48387490854498"><ele>6.0</ele><time>2026-04-19T12:15:52.999Z</time></trkpt><trkpt lat="25.8567055736206" lon="-80.48387431298353"><ele>6.0</ele><time>2026-04-19T12:15:53.999Z</time></trkpt><trkpt lat="25.85681040806763" lon="-80.48387432013587"><ele>6.0</ele><time>2026-04-19T12:15:54.999Z</time></trkpt><trkpt lat="25.856913213642024" lon="-80.48387354745377"><ele>6.0</ele><time>2026-04-19T12:15:55.999Z</time></trkpt><trkpt lat="25.857017793843898" lon="-80.483876234205"><ele>6.0</ele><time>2026-04-19T12:15:56.999Z</time></trkpt><trkpt lat="25.857120751481848" lon="-80.48387852218988"><ele>6.0</ele><time>2026-04-19T12:15:57.999Z</time></trkpt><trkpt lat="25.857226872741165" lon="-80.48388254698227"><ele>6.0</ele><time>2026-04-19T12:15:58.999Z</time></trkpt><trkpt lat="25.857331721151713" lon="-80.48388282160934"><ele>6.0</ele><time>2026-04-19T12:15:59.999Z</time></trkpt><trkpt lat="25.85743925837888" lon="-80.48388559921345"><ele>6.0</ele><time>2026-04-19T12:16:00.999Z</time></trkpt><trkpt lat="25.857547065580956" lon="-80.48388555762905"><ele>6.0</ele><time>2026-04-19T12:16:01.999Z</time></trkpt><trkpt lat="25.85765581337899" lon="-80.48388671630072"><ele>6.0</ele><time>2026-04-19T12:16:02.999Z</time></trkpt><trkpt lat="25.85776341482506" lon="-80.48388744315548"><ele>5.8</ele><time>2026-04-19T12:16:03.999Z</time></trkpt><trkpt lat="25.85787159267308" lon="-80.48388793769188"><ele>5.6</ele><time>2026-04-19T12:16:04.999Z</time></trkpt><trkpt lat="25.857980532936594" lon="-80.48388744532274"><ele>5.4</ele><time>2026-04-19T12:16:05.999Z</time></trkpt><trkpt lat="25.85808804212252" lon="-80.48388385680408"><ele>5.2</ele><time>2026-04-19T12:16:06.999Z</time></trkpt><trkpt lat="25.858196736055866" lon="-80.48388443432431"><ele>5.0</ele><time>2026-04-19T12:16:07.999Z</time></trkpt><trkpt lat="25.85830201347014" lon="-80.48388539084452"><ele>5.0</ele><time>2026-04-19T12:16:08.999Z</time></trkpt><trkpt lat="25.858406541942152" lon="-80.48388386195163"><ele>5.0</ele><time>2026-04-19T12:16:09.999Z</time></trkpt><trkpt lat="25.85850735670495" lon="-80.48388340431461"><ele>5.0</ele><time>2026-04-19T12:16:10.999Z</time></trkpt><trkpt lat="25.858606350905063" lon="-80.48388607292496"><ele>5.0</ele><time>2026-04-19T12:16:11.999Z</time></trkpt><trkpt lat="25.85870957176099" lon="-80.4838863760215"><ele>5.0</ele><time>2026-04-19T12:16:12.999Z</time></trkpt><trkpt lat="25.85881402197652" lon="-80.48388446508913"><ele>5.0</ele><time>2026-04-19T12:16:13.999Z</time></trkpt><trkpt lat="25.858919432072557" lon="-80.48388451627915"><ele>5.0</ele><time>2026-04-19T12:16:14.999Z</time></trkpt><trkpt lat="25.859025637872765" lon="-80.48388563544357"><ele>5.0</ele><time>2026-04-19T12:16:15.999Z</time></trkpt><trkpt lat="25.85913027824186" lon="-80.4838871437077"><ele>5.0</ele><time>2026-04-19T12:16:16.999Z</time></trkpt><trkpt lat="25.85923454800114" lon="-80.48388699402682"><ele>5.0</ele><time>2026-04-19T12:16:17.999Z</time></trkpt><trkpt lat="25.85933762499137" lon="-80.48388621171533"><ele>5.0</ele><time>2026-04-19T12:16:18.999Z</time></trkpt><trkpt lat="25.859438125515833" lon="-80.48388814484075"><ele>5.0</ele><time>2026-04-19T12:16:19.999Z</time></trkpt><trkpt lat="25.85953819994137" lon="-80.48388938107377"><ele>5.0</ele><time>2026-04-19T12:16:20.999Z</time></trkpt><trkpt lat="25.859635406720184" lon="-80.48388832799708"><ele>5.0</ele><time>2026-04-19T12:16:21.999Z</time></trkpt><trkpt lat="25.859731553518056" lon="-80.48388832008963"><ele>5.0</ele><time>2026-04-19T12:16:22.999Z</time></trkpt><trkpt lat="25.85983189785101" lon="-80.48389152230118"><ele>5.0</ele><time>2026-04-19T12:16:23.999Z</time></trkpt><trkpt lat="25.859932932946943" lon="-80.48389142618394"><ele>5.0</ele><time>2026-04-19T12:16:24.999Z</time></trkpt><trkpt lat="25.860035785255953" lon="-80.48388952350308"><ele>5.0</ele><time>2026-04-19T12:16:25.999Z</time></trkpt><trkpt lat="25.860139080750645" lon="-80.48388997542283"><ele>5.0</ele><time>2026-04-19T12:16:26.999Z</time></trkpt><trkpt lat="25.860243284169755" lon="-80.48388864728928"><ele>5.0</ele><time>2026-04-19T12:16:27.999Z</time></trkpt><trkpt lat="25.860347124125358" lon="-80.48389115038381"><ele>5.2</ele><time>2026-04-19T12:16:28.999Z</time></trkpt><trkpt lat="25.860449686286742" lon="-80.48389284512088"><ele>5.4</ele><time>2026-04-19T12:16:29.999Z</time></trkpt><trkpt lat="25.860553587358723" lon="-80.48389102977166"><ele>5.6</ele><time>2026-04-19T12:16:30.999Z</time></trkpt><trkpt lat="25.86065668460086" lon="-80.48389298487477"><ele>5.8</ele><time>2026-04-19T12:16:31.999Z</time></trkpt><trkpt lat="25.86075980317416" lon="-80.48389301704934"><ele>6.0</ele><time>2026-04-19T12:16:32.999Z</time></trkpt><trkpt lat="25.860864771102992" lon="-80.48389552072464"><ele>6.4</ele><time>2026-04-19T12:16:33.999Z</time></trkpt><trkpt lat="25.860970367969184" lon="-80.48389576227078"><ele>6.8</ele><time>2026-04-19T12:16:34.999Z</time></trkpt><trkpt lat="25.861078090563915" lon="-80.48389765425439"><ele>7.200000000000001</ele><time>2026-04-19T12:16:35.999Z</time></trkpt><trkpt lat="25.861184271262363" lon="-80.48389873254268"><ele>7.6000000000000005</ele><time>2026-04-19T12:16:36.999Z</time></trkpt><trkpt lat="25.86129273827841" lon="-80.4838991101855"><ele>8.0</ele><time>2026-04-19T12:16:37.999Z</time></trkpt><trkpt lat="25.861400777607763" lon="-80.48389862715392"><ele>8.0</ele><time>2026-04-19T12:16:38.999Z</time></trkpt><trkpt lat="25.86150859413028" lon="-80.48389725960365"><ele>8.0</ele><time>2026-04-19T12:16:39.999Z</time></trkpt><trkpt lat="25.861614439698254" lon="-80.48389873963214"><ele>8.0</ele><time>2026-04-19T12:16:40.999Z</time></trkpt><trkpt lat="25.861718200628513" lon="-80.48390149987259"><ele>8.0</ele><time>2026-04-19T12:16:41.999Z</time></trkpt><trkpt lat="25.86182419073519" lon="-80.48390116813003"><ele>8.0</ele><time>2026-04-19T12:16:42.999Z</time></trkpt><trkpt lat="25.861930545423988" lon="-80.48390227361972"><ele>7.6000000000000005</ele><time>2026-04-19T12:16:43.999Z</time></trkpt><trkpt lat="25.86203621377536" lon="-80.48390114012687"><ele>7.200000000000001</ele><time>2026-04-19T12:16:44.999Z</time></trkpt><trkpt lat="25.862144021024214" lon="-80.48390206637889"><ele>6.8</ele><time>2026-04-19T12:16:45.999Z</time></trkpt><trkpt lat="25.86225151355186" lon="-80.48390243689089"><ele>6.4</ele><time>2026-04-19T12:16:46.999Z</time></trkpt><trkpt lat="25.86235824851881" lon="-80.48390045153235"><ele>6.0</ele><time>2026-04-19T12:16:48Z</time></trkpt><trkpt lat="25.862464960987374" lon="-80.48390022986074"><ele>6.0</ele><time>2026-04-19T12:16:49Z</time></trkpt><trkpt lat="25.86257012743474" lon="-80.48390198263921"><ele>6.0</ele><time>2026-04-19T12:16:50Z</time></trkpt><trkpt lat="25.862675989350432" lon="-80.48390331752577"><ele>6.0</ele><time>2026-04-19T12:16:51Z</time></trkpt><trkpt lat="25.86278196955999" lon="-80.48390287455841"><ele>6.0</ele><time>2026-04-19T12:16:52Z</time></trkpt><trkpt lat="25.86288827257917" lon="-80.48390365180161"><ele>6.0</ele><time>2026-04-19T12:16:53Z</time></trkpt><trkpt lat="25.862995562033035" lon="-80.48390723501878"><ele>6.0</ele><time>2026-04-19T12:16:54Z</time></trkpt><trkpt lat="25.86310222408328" lon="-80.48390805974054"><ele>6.0</ele><time>2026-04-19T12:16:55Z</time></trkpt><trkpt lat="25.863209274416498" lon="-80.48390787664684"><ele>6.0</ele><time>2026-04-19T12:16:56Z</time></trkpt><trkpt lat="25.863316537477058" lon="-80.48390690777444"><ele>6.0</ele><time>2026-04-19T12:16:57Z</time></trkpt><trkpt lat="25.86341991922444" lon="-80.48390587140352"><ele>6.0</ele><time>2026-04-19T12:16:58Z</time></trkpt><trkpt lat="25.863523395228082" lon="-80.48390826488178"><ele>6.0</ele><time>2026-04-19T12:16:59Z</time></trkpt><trkpt lat="25.86362870008858" lon="-80.48390713830797"><ele>6.0</ele><time>2026-04-19T12:17:00Z</time></trkpt><trkpt lat="25.86373575777981" lon="-80.48390860349298"><ele>6.0</ele><time>2026-04-19T12:17:01Z</time></trkpt><trkpt lat="25.863844759740676" lon="-80.48391010164806"><ele>6.0</ele><time>2026-04-19T12:17:02Z</time></trkpt><trkpt lat="25.86395483818404" lon="-80.48391037804002"><ele>6.0</ele><time>2026-04-19T12:17:03Z</time></trkpt><trkpt lat="25.864067202967803" lon="-80.48391023456722"><ele>6.0</ele><time>2026-04-19T12:17:04Z</time></trkpt><trkpt lat="25.864178657575376" lon="-80.4839158106162"><ele>6.0</ele><time>2026-04-19T12:17:05Z</time></trkpt><trkpt lat="25.864289511564053" lon="-80.48391619154319"><ele>6.0</ele><time>2026-04-19T12:17:06Z</time></trkpt><trkpt lat="25.86440238451592" lon="-80.48391640510167"><ele>6.0</ele><time>2026-04-19T12:17:07Z</time></trkpt><trkpt lat="25.864515420657035" lon="-80.48391587331356"><ele>6.0</ele><time>2026-04-19T12:17:08Z</time></trkpt><trkpt lat="25.86462737371736" lon="-80.48391584411601"><ele>5.8</ele><time>2026-04-19T12:17:09Z</time></trkpt><trkpt lat="25.864739216141967" lon="-80.48391649247525"><ele>5.6</ele><time>2026-04-19T12:17:10Z</time></trkpt><trkpt lat="25.864849952343825" lon="-80.48391784238564"><ele>5.4</ele><time>2026-04-19T12:17:11Z</time></trkpt><trkpt lat="25.86496104905601" lon="-80.4839200316403"><ele>5.2</ele><time>2026-04-19T12:17:12Z</time></trkpt><trkpt lat="25.865072709386766" lon="-80.48391756481405"><ele>5.0</ele><time>2026-04-19T12:17:13Z</time></trkpt><trkpt lat="25.86518435525831" lon="-80.48391822855041"><ele>5.0</ele><time>2026-04-19T12:17:14Z</time></trkpt><trkpt lat="25.86529649310337" lon="-80.4839195017235"><ele>5.0</ele><time>2026-04-19T12:17:15Z</time></trkpt><trkpt lat="25.865409951580972" lon="-80.4839205288178"><ele>5.0</ele><time>2026-04-19T12:17:16Z</time></trkpt><trkpt lat="25.86552186984496" lon="-80.48391999132618"><ele>5.0</ele><time>2026-04-19T12:17:17Z</time></trkpt><trkpt lat="25.865632112917545" lon="-80.48392114092235"><ele>5.0</ele><time>2026-04-19T12:17:18Z</time></trkpt><trkpt lat="25.865742577599946" lon="-80.48392080197603"><ele>5.0</ele><time>2026-04-19T12:17:19Z</time></trkpt><trkpt lat="25.865853437960137" lon="-80.48392160898626"><ele>5.0</ele><time>2026-04-19T12:17:20Z</time></trkpt><trkpt lat="25.865963785877913" lon="-80.48392051823755"><ele>5.0</ele><time>2026-04-19T12:17:21Z</time></trkpt><trkpt lat="25.866074559011327" lon="-80.48392189034087"><ele>5.0</ele><time>2026-04-19T12:17:22Z</time></trkpt><trkpt lat="25.866184191592538" lon="-80.48392400342128"><ele>5.0</ele><time>2026-04-19T12:17:23Z</time></trkpt><trkpt lat="25.86629357139616" lon="-80.48392609290356"><ele>5.2</ele><time>2026-04-19T12:17:24Z</time></trkpt><trkpt lat="25.86640601304494" lon="-80.48392606842161"><ele>5.4</ele><time>2026-04-19T12:17:25Z</time></trkpt><trkpt lat="25.866515940130842" lon="-80.48392603141173"><ele>5.6</ele><time>2026-04-19T12:17:26Z</time></trkpt><trkpt lat="25.8666249758596" lon="-80.48392827326626"><ele>5.8</ele><time>2026-04-19T12:17:27Z</time></trkpt><trkpt lat="25.866731167096468" lon="-80.48393123943556"><ele>6.0</ele><time>2026-04-19T12:17:28Z</time></trkpt><trkpt lat="25.866836260892555" lon="-80.48393104151916"><ele>6.199999999999999</ele><time>2026-04-19T12:17:29Z</time></trkpt><trkpt lat="25.866941655948125" lon="-80.48392990866306"><ele>6.3999999999999995</ele><time>2026-04-19T12:17:30Z</time></trkpt><trkpt lat="25.867048197693286" lon="-80.48393127235694"><ele>6.6</ele><time>2026-04-19T12:17:31Z</time></trkpt><trkpt lat="25.867155136149126" lon="-80.48393195186499"><ele>6.8</ele><time>2026-04-19T12:17:32Z</time></trkpt><trkpt lat="25.867261084963165" lon="-80.48392944032928"><ele>7.0</ele><time>2026-04-19T12:17:32.999Z</time></trkpt><trkpt lat="25.867368791764672" lon="-80.48392707270558"><ele>7.0</ele><time>2026-04-19T12:17:33.999Z</time></trkpt><trkpt lat="25.867477368239783" lon="-80.48392700353716"><ele>6.999999999999999</ele><time>2026-04-19T12:17:34.999Z</time></trkpt><trkpt lat="25.867584980835158" lon="-80.48392587289516"><ele>6.999999999999999</ele><time>2026-04-19T12:17:35.999Z</time></trkpt><trkpt lat="25.867692815821005" lon="-80.48392709759891"><ele>7.0</ele><time>2026-04-19T12:17:36.999Z</time></trkpt><trkpt lat="25.867801805132853" lon="-80.48393027870415"><ele>7.0</ele><time>2026-04-19T12:17:37.999Z</time></trkpt><trkpt lat="25.867910358379206" lon="-80.48393153666346"><ele>7.0</ele><time>2026-04-19T12:17:38.999Z</time></trkpt><trkpt lat="25.86801860777182" lon="-80.48393265528155"><ele>6.999999999999999</ele><time>2026-04-19T12:17:39.999Z</time></trkpt><trkpt lat="25.868126934504502" lon="-80.48393384590221"><ele>6.999999999999999</ele><time>2026-04-19T12:17:40.999Z</time></trkpt><trkpt lat="25.86823508807466" lon="-80.48393576953741"><ele>7.0</ele><time>2026-04-19T12:17:41.999Z</time></trkpt><trkpt lat="25.868343547146868" lon="-80.4839386828681"><ele>7.0</ele><time>2026-04-19T12:17:42.999Z</time></trkpt><trkpt lat="25.868454545842948" lon="-80.48394060794493"><ele>7.0</ele><time>2026-04-19T12:17:43.999Z</time></trkpt><trkpt lat="25.868566528462935" lon="-80.4839442272713"><ele>6.999999999999999</ele><time>2026-04-19T12:17:44.999Z</time></trkpt><trkpt lat="25.868678671296742" lon="-80.48394844790226"><ele>6.999999999999999</ele><time>2026-04-19T12:17:45.999Z</time></trkpt><trkpt lat="25.868790021402926" lon="-80.48394888910248"><ele>7.0</ele><time>2026-04-19T12:17:46.999Z</time></trkpt><trkpt lat="25.868899140290573" lon="-80.48394843473399"><ele>7.0</ele><time>2026-04-19T12:17:47.999Z</time></trkpt><trkpt lat="25.869009327644708" lon="-80.48395073656214"><ele>7.0</ele><time>2026-04-19T12:17:48.999Z</time></trkpt><trkpt lat="25.86912040595158" lon="-80.48395256021844"><ele>6.999999999999999</ele><time>2026-04-19T12:17:49.999Z</time></trkpt><trkpt lat="25.869231738294086" lon="-80.48395414895697"><ele>6.999999999999999</ele><time>2026-04-19T12:17:50.999Z</time></trkpt><trkpt lat="25.869342632085644" lon="-80.48395710412625"><ele>7.0</ele><time>2026-04-19T12:17:51.999Z</time></trkpt><trkpt lat="25.869453636206796" lon="-80.48396169208556"><ele>7.0</ele><time>2026-04-19T12:17:52.999Z</time></trkpt><trkpt lat="25.869564853570925" lon="-80.483963927906"><ele>7.0</ele><time>2026-04-19T12:17:53.999Z</time></trkpt><trkpt lat="25.86967655416474" lon="-80.48396472483614"><ele>6.999999999999999</ele><time>2026-04-19T12:17:54.999Z</time></trkpt><trkpt lat="25.86978743685086" lon="-80.48396484091725"><ele>6.999999999999999</ele><time>2026-04-19T12:17:55.999Z</time></trkpt><trkpt lat="25.869896281526053" lon="-80.48396639435906"><ele>7.0</ele><time>2026-04-19T12:17:56.999Z</time></trkpt><trkpt lat="25.870003999225673" lon="-80.4839691429765"><ele>7.0</ele><time>2026-04-19T12:17:57.999Z</time></trkpt><trkpt lat="25.870109509371083" lon="-80.48396945787158"><ele>6.3999999999999995</ele><time>2026-04-19T12:17:58.999Z</time></trkpt><trkpt lat="25.87021451781701" lon="-80.48396911668208"><ele>5.799999999999999</ele><time>2026-04-19T12:17:59.999Z</time></trkpt><trkpt lat="25.87031901977223" lon="-80.48397176502871"><ele>5.2</ele><time>2026-04-19T12:18:00.999Z</time></trkpt><trkpt lat="25.87042198254264" lon="-80.48397671787093"><ele>4.6</ele><time>2026-04-19T12:18:01.999Z</time></trkpt><trkpt lat="25.870526573249432" lon="-80.48398120283363"><ele>4.0</ele><time>2026-04-19T12:18:02.999Z</time></trkpt><trkpt lat="25.870631123677516" lon="-80.48398328365911"><ele>4.0</ele><time>2026-04-19T12:18:03.999Z</time></trkpt><trkpt lat="25.87073510030117" lon="-80.48398685799467"><ele>4.0</ele><time>2026-04-19T12:18:04.999Z</time></trkpt><trkpt lat="25.870837846054272" lon="-80.48398701735874"><ele>4.0</ele><time>2026-04-19T12:18:05.999Z</time></trkpt><trkpt lat="25.870939916800328" lon="-80.48399117937024"><ele>4.0</ele><time>2026-04-19T12:18:06.999Z</time></trkpt><trkpt lat="25.871040355933378" lon="-80.48399468404253"><ele>4.0</ele><time>2026-04-19T12:18:07.999Z</time></trkpt><trkpt lat="25.871140009803934" lon="-80.48399756360412"><ele>4.2</ele><time>2026-04-19T12:18:08.999Z</time></trkpt><trkpt lat="25.87124008579737" lon="-80.48399783153279"><ele>4.4</ele><time>2026-04-19T12:18:09.999Z</time></trkpt><trkpt lat="25.871340166087062" lon="-80.48399915946496"><ele>4.6</ele><time>2026-04-19T12:18:10.999Z</time></trkpt><trkpt lat="25.871441217255185" lon="-80.48400401186926"><ele>4.8</ele><time>2026-04-19T12:18:11.999Z</time></trkpt><trkpt lat="25.871542221951522" lon="-80.48400579127194"><ele>5.0</ele><time>2026-04-19T12:18:12.999Z</time></trkpt><trkpt lat="25.87164544033258" lon="-80.48400631870747"><ele>5.0</ele><time>2026-04-19T12:18:13.999Z</time></trkpt><trkpt lat="25.8717487252826" lon="-80.48400829688148"><ele>5.0</ele><time>2026-04-19T12:18:14.999Z</time></trkpt><trkpt lat="25.871854090312617" lon="-80.48401429898763"><ele>5.0</ele><time>2026-04-19T12:18:15.999Z</time></trkpt><trkpt lat="25.871958596093176" lon="-80.48401731223908"><ele>5.0</ele><time>2026-04-19T12:18:16.999Z</time></trkpt><trkpt lat="25.872064336431844" lon="-80.48402116510658"><ele>5.0</ele><time>2026-04-19T12:18:17.999Z</time></trkpt><trkpt lat="25.87216975925585" lon="-80.48402429522348"><ele>5.4</ele><time>2026-04-19T12:18:18.999Z</time></trkpt><trkpt lat="25.87227469024527" lon="-80.48402485470739"><ele>5.8</ele><time>2026-04-19T12:18:19.999Z</time></trkpt><trkpt lat="25.872381135684055" lon="-80.48402842562962"><ele>6.199999999999999</ele><time>2026-04-19T12:18:20.999Z</time></trkpt><trkpt lat="25.872488234193558" lon="-80.48403431073653"><ele>6.6</ele><time>2026-04-19T12:18:21.999Z</time></trkpt><trkpt lat="25.87259945759253" lon="-80.48403982601874"><ele>7.0</ele><time>2026-04-19T12:18:22.999Z</time></trkpt><trkpt lat="25.872709257944884" lon="-80.48404513348005"><ele>7.0</ele><time>2026-04-19T12:18:23.999Z</time></trkpt><trkpt lat="25.872820364004816" lon="-80.48404362029642"><ele>6.999999999999999</ele><time>2026-04-19T12:18:24.999Z</time></trkpt><trkpt lat="25.87293300019487" lon="-80.48404744442291"><ele>6.999999999999999</ele><time>2026-04-19T12:18:25.999Z</time></trkpt><trkpt lat="25.873044698862767" lon="-80.48405226044834"><ele>7.0</ele><time>2026-04-19T12:18:26.999Z</time></trkpt><trkpt lat="25.87315615595245" lon="-80.48405890233346"><ele>7.0</ele><time>2026-04-19T12:18:27.999Z</time></trkpt><trkpt lat="25.873267698193466" lon="-80.48406144336784"><ele>7.0</ele><time>2026-04-19T12:18:28.999Z</time></trkpt><trkpt lat="25.873375565051973" lon="-80.48406477828415"><ele>6.999999999999999</ele><time>2026-04-19T12:18:29.999Z</time></trkpt><trkpt lat="25.873481842487756" lon="-80.48406646058783"><ele>6.999999999999999</ele><time>2026-04-19T12:18:30.999Z</time></trkpt><trkpt lat="25.873586395764775" lon="-80.48407030537624"><ele>7.0</ele><time>2026-04-19T12:18:31.999Z</time></trkpt><trkpt lat="25.873691111416214" lon="-80.48407477709868"><ele>7.0</ele><time>2026-04-19T12:18:32.999Z</time></trkpt><trkpt lat="25.873798861738333" lon="-80.48407765603693"><ele>6.8</ele><time>2026-04-19T12:18:33.999Z</time></trkpt><trkpt lat="25.873904094764743" lon="-80.48407743449032"><ele>6.6</ele><time>2026-04-19T12:18:34.999Z</time></trkpt><trkpt lat="25.874008607329557" lon="-80.4840823788234"><ele>6.3999999999999995</ele><time>2026-04-19T12:18:35.999Z</time></trkpt><trkpt lat="25.874112063434932" lon="-80.48408845842175"><ele>6.199999999999999</ele><time>2026-04-19T12:18:36.999Z</time></trkpt><trkpt lat="25.874215897676777" lon="-80.48409112097394"><ele>6.0</ele><time>2026-04-19T12:18:37.999Z</time></trkpt><trkpt lat="25.87431886086387" lon="-80.4840956497371"><ele>6.0</ele><time>2026-04-19T12:18:38.999Z</time></trkpt><trkpt lat="25.874424798305576" lon="-80.48409853573848"><ele>6.0</ele><time>2026-04-19T12:18:39.999Z</time></trkpt><trkpt lat="25.874523531012354" lon="-80.4841028028518"><ele>6.0</ele><time>2026-04-19T12:18:40.999Z</time></trkpt><trkpt lat="25.87462547644338" lon="-80.48410608119525"><ele>6.0</ele><time>2026-04-19T12:18:41.999Z</time></trkpt><trkpt lat="25.874727957214684" lon="-80.48410765589236"><ele>6.0</ele><time>2026-04-19T12:18:42.999Z</time></trkpt><trkpt lat="25.874830909926228" lon="-80.48410840381428"><ele>6.0</ele><time>2026-04-19T12:18:43.999Z</time></trkpt><trkpt lat="25.874938284377862" lon="-80.48411266117989"><ele>6.0</ele><time>2026-04-19T12:18:44.999Z</time></trkpt><trkpt lat="25.87504475342859" lon="-80.48411570898865"><ele>6.0</ele><time>2026-04-19T12:18:45.999Z</time></trkpt><trkpt lat="25.87515167613904" lon="-80.48412050527003"><ele>6.0</ele><time>2026-04-19T12:18:46.999Z</time></trkpt><trkpt lat="25.87525992877922" lon="-80.4841257376208"><ele>6.0</ele><time>2026-04-19T12:18:47.999Z</time></trkpt><trkpt lat="25.875368866075107" lon="-80.4841289253964"><ele>6.4</ele><time>2026-04-19T12:18:48.999Z</time></trkpt><trkpt lat="25.875476675831937" lon="-80.48413452578339"><ele>6.8</ele><time>2026-04-19T12:18:49.999Z</time></trkpt><trkpt lat="25.875584619246617" lon="-80.48413826232327"><ele>7.200000000000001</ele><time>2026-04-19T12:18:50.999Z</time></trkpt><trkpt lat="25.875693078923522" lon="-80.48414180508381"><ele>7.6000000000000005</ele><time>2026-04-19T12:18:51.999Z</time></trkpt><trkpt lat="25.875801126566508" lon="-80.48414565055654"><ele>8.0</ele><time>2026-04-19T12:18:52.999Z</time></trkpt><trkpt lat="25.875908824098865" lon="-80.48414677426838"><ele>7.800000000000001</ele><time>2026-04-19T12:18:54Z</time></trkpt><trkpt lat="25.87601432329312" lon="-80.48414899653733"><ele>7.6000000000000005</ele><time>2026-04-19T12:18:55Z</time></trkpt><trkpt lat="25.8761209518543" lon="-80.48415262399962"><ele>7.3999999999999995</ele><time>2026-04-19T12:18:56Z</time></trkpt><trkpt lat="25.876226943778505" lon="-80.48415577434058"><ele>7.199999999999999</ele><time>2026-04-19T12:18:57Z</time></trkpt><trkpt lat="25.876333091930807" lon="-80.48416107048895"><ele>7.0</ele><time>2026-04-19T12:18:58Z</time></trkpt><trkpt lat="25.876439071136986" lon="-80.48416740586008"><ele>7.0</ele><time>2026-04-19T12:18:59Z</time></trkpt><trkpt lat="25.876542075276568" lon="-80.48417229894665"><ele>6.999999999999999</ele><time>2026-04-19T12:19:00Z</time></trkpt><trkpt lat="25.876646417494676" lon="-80.48417670998013"><ele>6.999999999999999</ele><time>2026-04-19T12:19:01Z</time></trkpt><trkpt lat="25.876751913746556" lon="-80.48417926148637"><ele>7.0</ele><time>2026-04-19T12:19:02Z</time></trkpt><trkpt lat="25.876859514457994" lon="-80.48418158030512"><ele>7.0</ele><time>2026-04-19T12:19:03Z</time></trkpt><trkpt lat="25.87697007196807" lon="-80.48418438835535"><ele>7.0</ele><time>2026-04-19T12:19:04Z</time></trkpt><trkpt lat="25.877080359711332" lon="-80.48418752862345"><ele>6.999999999999999</ele><time>2026-04-19T12:19:05Z</time></trkpt><trkpt lat="25.87719214035381" lon="-80.48419286595208"><ele>6.999999999999999</ele><time>2026-04-19T12:19:06Z</time></trkpt><trkpt lat="25.87730383456137" lon="-80.48419768340152"><ele>7.0</ele><time>2026-04-19T12:19:07Z</time></trkpt><trkpt lat="25.87741789263017" lon="-80.4842023317704"><ele>7.0</ele><time>2026-04-19T12:19:08Z</time></trkpt><trkpt lat="25.877531681747364" lon="-80.48420330289507"><ele>7.0</ele><time>2026-04-19T12:19:09Z</time></trkpt><trkpt lat="25.877646339935794" lon="-80.48420832823345"><ele>7.0</ele><time>2026-04-19T12:19:10Z</time></trkpt><trkpt lat="25.877761653548067" lon="-80.48421302014255"><ele>7.0</ele><time>2026-04-19T12:19:11Z</time></trkpt><trkpt lat="25.877876521490663" lon="-80.48421563627906"><ele>7.0</ele><time>2026-04-19T12:19:12Z</time></trkpt><trkpt lat="25.877991572630197" lon="-80.48422030038097"><ele>7.0</ele><time>2026-04-19T12:19:13Z</time></trkpt><trkpt lat="25.87810479950487" lon="-80.48422455558101"><ele>7.0</ele><time>2026-04-19T12:19:14Z</time></trkpt><trkpt lat="25.878219832405517" lon="-80.48422904446501"><ele>7.0</ele><time>2026-04-19T12:19:15Z</time></trkpt><trkpt lat="25.878334466316744" lon="-80.4842359358554"><ele>7.0</ele><time>2026-04-19T12:19:16Z</time></trkpt><trkpt lat="25.87845167858236" lon="-80.48423903728865"><ele>6.75</ele><time>2026-04-19T12:19:17Z</time></trkpt><trkpt lat="25.87856862567968" lon="-80.48424181202509"><ele>6.5</ele><time>2026-04-19T12:19:18Z</time></trkpt><trkpt lat="25.87868438333216" lon="-80.48424578458499"><ele>6.25</ele><time>2026-04-19T12:19:19Z</time></trkpt><trkpt lat="25.87880285758362" lon="-80.48425065465737"><ele>6.0</ele><time>2026-04-19T12:19:20Z</time></trkpt><trkpt lat="25.878920027729826" lon="-80.48425579411716"><ele>6.0</ele><time>2026-04-19T12:19:21Z</time></trkpt><trkpt lat="25.879036124688312" lon="-80.48426254852114"><ele>6.0</ele><time>2026-04-19T12:19:22Z</time></trkpt><trkpt lat="25.87915465548948" lon="-80.4842646310148"><ele>6.0</ele><time>2026-04-19T12:19:23Z</time></trkpt><trkpt lat="25.879271795384458" lon="-80.48426898148266"><ele>6.0</ele><time>2026-04-19T12:19:24Z</time></trkpt><trkpt lat="25.879388476443722" lon="-80.48427520383042"><ele>6.25</ele><time>2026-04-19T12:19:25Z</time></trkpt><trkpt lat="25.879505069869126" lon="-80.48427900282253"><ele>6.5</ele><time>2026-04-19T12:19:26Z</time></trkpt><trkpt lat="25.87962229445761" lon="-80.48428417702644"><ele>6.75</ele><time>2026-04-19T12:19:27Z</time></trkpt><trkpt lat="25.87973931097275" lon="-80.48428829871742"><ele>7.0</ele><time>2026-04-19T12:19:28Z</time></trkpt><trkpt lat="25.879855349628063" lon="-80.48429266702621"><ele>7.0</ele><time>2026-04-19T12:19:29Z</time></trkpt><trkpt lat="25.879971668931166" lon="-80.48429559364128"><ele>7.0</ele><time>2026-04-19T12:19:30Z</time></trkpt><trkpt lat="25.88008654990483" lon="-80.48429837714288"><ele>7.0</ele><time>2026-04-19T12:19:31Z</time></trkpt><trkpt lat="25.880198497511746" lon="-80.48430108084031"><ele>7.0</ele><time>2026-04-19T12:19:32Z</time></trkpt><trkpt lat="25.88030968134036" lon="-80.48430355469515"><ele>6.6</ele><time>2026-04-19T12:19:33Z</time></trkpt><trkpt lat="25.880419423281296" lon="-80.48430741091433"><ele>6.199999999999999</ele><time>2026-04-19T12:19:34Z</time></trkpt><trkpt lat="25.880527745838222" lon="-80.48430971102695"><ele>5.8</ele><time>2026-04-19T12:19:35Z</time></trkpt><trkpt lat="25.880634055245743" lon="-80.48431178466554"><ele>5.4</ele><time>2026-04-19T12:19:35.999Z</time></trkpt><trkpt lat="25.88073873010872" lon="-80.48431741850257"><ele>5.0</ele><time>2026-04-19T12:19:36.999Z</time></trkpt><trkpt lat="25.88084435609498" lon="-80.4843213897577"><ele>5.6</ele><time>2026-04-19T12:19:37.999Z</time></trkpt><trkpt lat="25.880951425761598" lon="-80.48432347425175"><ele>6.2</ele><time>2026-04-19T12:19:38.999Z</time></trkpt><trkpt lat="25.881056405674418" lon="-80.48432828066817"><ele>6.800000000000001</ele><time>2026-04-19T12:19:39.999Z</time></trkpt><trkpt lat="25.881160697168408" lon="-80.48432890624949"><ele>7.4</ele><time>2026-04-19T12:19:40.999Z</time></trkpt><trkpt lat="25.881260886086938" lon="-80.48433015847851"><ele>8.0</ele><time>2026-04-19T12:19:41.999Z</time></trkpt><trkpt lat="25.881362877794146" lon="-80.4843335308183"><ele>8.0</ele><time>2026-04-19T12:19:42.999Z</time></trkpt><trkpt lat="25.881462517550432" lon="-80.48433788975014"><ele>8.0</ele><time>2026-04-19T12:19:43.999Z</time></trkpt><trkpt lat="25.88156204926522" lon="-80.48434130762034"><ele>8.0</ele><time>2026-04-19T12:19:44.999Z</time></trkpt><trkpt lat="25.881660140399077" lon="-80.48434490509479"><ele>8.0</ele><time>2026-04-19T12:19:45.999Z</time></trkpt><trkpt lat="25.881757250508816" lon="-80.48434762554751"><ele>8.0</ele><time>2026-04-19T12:19:46.999Z</time></trkpt><trkpt lat="25.881852981203647" lon="-80.4843529672337"><ele>7.6000000000000005</ele><time>2026-04-19T12:19:47.999Z</time></trkpt><trkpt lat="25.881947474226013" lon="-80.48435762563032"><ele>7.200000000000001</ele><time>2026-04-19T12:19:48.999Z</time></trkpt><trkpt lat="25.882041276398468" lon="-80.48436147741563"><ele>6.8</ele><time>2026-04-19T12:19:49.999Z</time></trkpt><trkpt lat="25.882135155501683" lon="-80.48436462612246"><ele>6.4</ele><time>2026-04-19T12:19:50.999Z</time></trkpt><trkpt lat="25.88222697399648" lon="-80.48436595003173"><ele>6.0</ele><time>2026-04-19T12:19:51.999Z</time></trkpt><trkpt lat="25.882318784008135" lon="-80.48436845958474"><ele>6.0</ele><time>2026-04-19T12:19:52.999Z</time></trkpt><trkpt lat="25.882408751580755" lon="-80.48437047191214"><ele>6.0</ele><time>2026-04-19T12:19:53.999Z</time></trkpt><trkpt lat="25.88249933901717" lon="-80.48437160391101"><ele>6.0</ele><time>2026-04-19T12:19:54.999Z</time></trkpt><trkpt lat="25.882590842112155" lon="-80.48437434077462"><ele>6.0</ele><time>2026-04-19T12:19:55.999Z</time></trkpt><trkpt lat="25.88267900505616" lon="-80.48437833996142"><ele>6.0</ele><time>2026-04-19T12:19:56.999Z</time></trkpt><trkpt lat="25.882766971553334" lon="-80.48438389920007"><ele>6.0</ele><time>2026-04-19T12:19:57.999Z</time></trkpt><trkpt lat="25.882854171060817" lon="-80.48438498610926"><ele>6.166666666666667</ele><time>2026-04-19T12:19:58.999Z</time></trkpt><trkpt lat="25.882938454958268" lon="-80.484388648187"><ele>6.333333333333334</ele><time>2026-04-19T12:19:59.999Z</time></trkpt><trkpt lat="25.8830207477558" lon="-80.48439051000378"><ele>6.5</ele><time>2026-04-19T12:20:00.999Z</time></trkpt><trkpt lat="25.883106053911884" lon="-80.4843931617804"><ele>6.666666666666667</ele><time>2026-04-19T12:20:01.999Z</time></trkpt><trkpt lat="25.883187539035955" lon="-80.48439520023666"><ele>6.833333333333334</ele><time>2026-04-19T12:20:02.999Z</time></trkpt><trkpt lat="25.883274722851496" lon="-80.48439752295944"><ele>7.0</ele><time>2026-04-19T12:20:03.999Z</time></trkpt><trkpt lat="25.8833591956553" lon="-80.48439879584927"><ele>7.166666666666667</ele><time>2026-04-19T12:20:04.999Z</time></trkpt><trkpt lat="25.883446174484188" lon="-80.48440184450268"><ele>7.333333333333334</ele><time>2026-04-19T12:20:05.999Z</time></trkpt><trkpt lat="25.88353337732288" lon="-80.48440840717527"><ele>7.5</ele><time>2026-04-19T12:20:06.999Z</time></trkpt><trkpt lat="25.88362049935915" lon="-80.48441112660859"><ele>7.666666666666666</ele><time>2026-04-19T12:20:07.999Z</time></trkpt><trkpt lat="25.883707082273638" lon="-80.48441385891617"><ele>7.833333333333333</ele><time>2026-04-19T12:20:08.999Z</time></trkpt><trkpt lat="25.883791909222246" lon="-80.48441822480876"><ele>8.0</ele><time>2026-04-19T12:20:09.999Z</time></trkpt><trkpt lat="25.883878066124637" lon="-80.48442054824515"><ele>7.999999999999999</ele><time>2026-04-19T12:20:10.999Z</time></trkpt><trkpt lat="25.883960606257794" lon="-80.48442454546546"><ele>8.0</ele><time>2026-04-19T12:20:11.999Z</time></trkpt><trkpt lat="25.884043495416083" lon="-80.48442954302244"><ele>8.0</ele><time>2026-04-19T12:20:12.999Z</time></trkpt><trkpt lat="25.88412904965243" lon="-80.48443397154176"><ele>8.0</ele><time>2026-04-19T12:20:13.999Z</time></trkpt><trkpt lat="25.88421525847313" lon="-80.48443607827588"><ele>7.999999999999999</ele><time>2026-04-19T12:20:14.999Z</time></trkpt><trkpt lat="25.884301596906187" lon="-80.48443786555546"><ele>8.0</ele><time>2026-04-19T12:20:15.999Z</time></trkpt><trkpt lat="25.884385102061568" lon="-80.48443856466473"><ele>7.499999999999999</ele><time>2026-04-19T12:20:16.999Z</time></trkpt><trkpt lat="25.88447311622075" lon="-80.484440930685"><ele>7.0</ele><time>2026-04-19T12:20:17.999Z</time></trkpt><trkpt lat="25.884562500323472" lon="-80.48444581552458"><ele>6.5</ele><time>2026-04-19T12:20:18.999Z</time></trkpt><trkpt lat="25.884650057385002" lon="-80.48444980010693"><ele>6.0</ele><time>2026-04-19T12:20:19.999Z</time></trkpt><trkpt lat="25.8847358970173" lon="-80.48445414863006"><ele>5.5</ele><time>2026-04-19T12:20:20.999Z</time></trkpt><trkpt lat="25.884821044801388" lon="-80.48445727973555"><ele>5.0</ele><time>2026-04-19T12:20:21.999Z</time></trkpt><trkpt lat="25.884906234594848" lon="-80.48446050430925"><ele>5.0</ele><time>2026-04-19T12:20:22.999Z</time></trkpt><trkpt lat="25.884993027453067" lon="-80.48446287161639"><ele>5.0</ele><time>2026-04-19T12:20:23.999Z</time></trkpt><trkpt lat="25.885080834283237" lon="-80.48446776695393"><ele>5.0</ele><time>2026-04-19T12:20:24.999Z</time></trkpt><trkpt lat="25.88516918323368" lon="-80.48447456652735"><ele>5.0</ele><time>2026-04-19T12:20:25.999Z</time></trkpt><trkpt lat="25.885258297243663" lon="-80.48448142106302"><ele>5.0</ele><time>2026-04-19T12:20:26.999Z</time></trkpt><trkpt lat="25.885349676509655" lon="-80.48448854649544"><ele>5.0</ele><time>2026-04-19T12:20:27.999Z</time></trkpt><trkpt lat="25.88544159846845" lon="-80.4844880719649"><ele>5.0</ele><time>2026-04-19T12:20:28.999Z</time></trkpt><trkpt lat="25.885534198685964" lon="-80.48449331512649"><ele>5.0</ele><time>2026-04-19T12:20:29.999Z</time></trkpt><trkpt lat="25.885627791356313" lon="-80.48450130866178"><ele>5.0</ele><time>2026-04-19T12:20:30.999Z</time></trkpt><trkpt lat="25.88572145156023" lon="-80.48450718320426"><ele>5.0</ele><time>2026-04-19T12:20:31.999Z</time></trkpt><trkpt lat="25.88581481521471" lon="-80.48451325574824"><ele>5.0</ele><time>2026-04-19T12:20:32.999Z</time></trkpt><trkpt lat="25.88591183307221" lon="-80.48452015836413"><ele>5.4</ele><time>2026-04-19T12:20:33.999Z</time></trkpt><trkpt lat="25.88600775438409" lon="-80.48452765706764"><ele>5.8</ele><time>2026-04-19T12:20:34.999Z</time></trkpt><trkpt lat="25.886103406914344" lon="-80.4845327813749"><ele>6.199999999999999</ele><time>2026-04-19T12:20:35.999Z</time></trkpt><trkpt lat="25.88620032285177" lon="-80.48453587778445"><ele>6.6</ele><time>2026-04-19T12:20:36.999Z</time></trkpt><trkpt lat="25.886298977048913" lon="-80.48454138394943"><ele>7.0</ele><time>2026-04-19T12:20:37.999Z</time></trkpt><trkpt lat="25.886399992873724" lon="-80.48454716169222"><ele>7.0</ele><time>2026-04-19T12:20:38.999Z</time></trkpt><trkpt lat="25.886500915526636" lon="-80.48455076509767"><ele>6.999999999999999</ele><time>2026-04-19T12:20:39.999Z</time></trkpt><trkpt lat="25.88660232564273" lon="-80.48455603800892"><ele>6.999999999999999</ele><time>2026-04-19T12:20:40.999Z</time></trkpt><trkpt lat="25.886701908753157" lon="-80.48455882394018"><ele>7.0</ele><time>2026-04-19T12:20:41.999Z</time></trkpt><trkpt lat="25.88680296253487" lon="-80.48456094746966"><ele>7.0</ele><time>2026-04-19T12:20:42.999Z</time></trkpt><trkpt lat="25.88690354392883" lon="-80.4845641358199"><ele>6.8</ele><time>2026-04-19T12:20:43.999Z</time></trkpt><trkpt lat="25.88700442922187" lon="-80.48456717560374"><ele>6.6</ele><time>2026-04-19T12:20:44.999Z</time></trkpt><trkpt lat="25.887106491439567" lon="-80.48457476062343"><ele>6.3999999999999995</ele><time>2026-04-19T12:20:45.999Z</time></trkpt><trkpt lat="25.887208343661886" lon="-80.4845780022953"><ele>6.199999999999999</ele><time>2026-04-19T12:20:46.999Z</time></trkpt><trkpt lat="25.887310818772278" lon="-80.48457933548133"><ele>6.0</ele><time>2026-04-19T12:20:47.999Z</time></trkpt><trkpt lat="25.887413722170297" lon="-80.48458107988144"><ele>6.0</ele><time>2026-04-19T12:20:48.999Z</time></trkpt><trkpt lat="25.88751802958627" lon="-80.48458485032083"><ele>6.0</ele><time>2026-04-19T12:20:49.999Z</time></trkpt><trkpt lat="25.88762309049382" lon="-80.48458958631602"><ele>6.0</ele><time>2026-04-19T12:20:50.999Z</time></trkpt><trkpt lat="25.887728831392664" lon="-80.48459457027194"><ele>6.0</ele><time>2026-04-19T12:20:51.999Z</time></trkpt><trkpt lat="25.887834397160017" lon="-80.48460183700278"><ele>6.0</ele><time>2026-04-19T12:20:52.999Z</time></trkpt><trkpt lat="25.887938398259084" lon="-80.4846062566505"><ele>6.0</ele><time>2026-04-19T12:20:53.999Z</time></trkpt><trkpt lat="25.888045176052994" lon="-80.48460957076863"><ele>6.0</ele><time>2026-04-19T12:20:54.999Z</time></trkpt><trkpt lat="25.8881489223381" lon="-80.48461102568369"><ele>6.0</ele><time>2026-04-19T12:20:55.999Z</time></trkpt><trkpt lat="25.888250527970182" lon="-80.48461245202317"><ele>6.0</ele><time>2026-04-19T12:20:56.999Z</time></trkpt><trkpt lat="25.88835125125992" lon="-80.48461651754216"><ele>6.0</ele><time>2026-04-19T12:20:57.999Z</time></trkpt><trkpt lat="25.888451271506778" lon="-80.4846211960546"><ele>5.8</ele><time>2026-04-19T12:20:58.999Z</time></trkpt><trkpt lat="25.888552261844527" lon="-80.48462464094467"><ele>5.6</ele><time>2026-04-19T12:21:00Z</time></trkpt><trkpt lat="25.88865329092342" lon="-80.4846291245559"><ele>5.4</ele><time>2026-04-19T12:21:01Z</time></trkpt><trkpt lat="25.888753668384467" lon="-80.48463474917695"><ele>5.2</ele><time>2026-04-19T12:21:02Z</time></trkpt><trkpt lat="25.888854152546408" lon="-80.48463706731815"><ele>5.0</ele><time>2026-04-19T12:21:03Z</time></trkpt><trkpt lat="25.88895272705831" lon="-80.48464114133871"><ele>5.0</ele><time>2026-04-19T12:21:04Z</time></trkpt><trkpt lat="25.889049361987638" lon="-80.48464460545266"><ele>5.0</ele><time>2026-04-19T12:21:05Z</time></trkpt><trkpt lat="25.889145204891257" lon="-80.48464891813614"><ele>5.0</ele><time>2026-04-19T12:21:06Z</time></trkpt><trkpt lat="25.88924163922989" lon="-80.48465336352939"><ele>5.0</ele><time>2026-04-19T12:21:07Z</time></trkpt><trkpt lat="25.889336981351203" lon="-80.48465770573716"><ele>5.0</ele><time>2026-04-19T12:21:08Z</time></trkpt><trkpt lat="25.889432016731195" lon="-80.48466010029342"><ele>5.2</ele><time>2026-04-19T12:21:09Z</time></trkpt><trkpt lat="25.88952581466559" lon="-80.4846624684004"><ele>5.4</ele><time>2026-04-19T12:21:10Z</time></trkpt><trkpt lat="25.88961870585503" lon="-80.48466658500108"><ele>5.6</ele><time>2026-04-19T12:21:11Z</time></trkpt><trkpt lat="25.8897101440544" lon="-80.48466715529199"><ele>5.8</ele><time>2026-04-19T12:21:12Z</time></trkpt><trkpt lat="25.889800157058897" lon="-80.48466853790265"><ele>6.0</ele><time>2026-04-19T12:21:13Z</time></trkpt><trkpt lat="25.88988746204664" lon="-80.48466543416595"><ele>6.0</ele><time>2026-04-19T12:21:14Z</time></trkpt><trkpt lat="25.889973622457806" lon="-80.48465964037541"><ele>6.0</ele><time>2026-04-19T12:21:15Z</time></trkpt><trkpt lat="25.890057993686383" lon="-80.48465742451613"><ele>6.0</ele><time>2026-04-19T12:21:16Z</time></trkpt><trkpt lat="25.890142391821698" lon="-80.48465296390167"><ele>6.0</ele><time>2026-04-19T12:21:17Z</time></trkpt><trkpt lat="25.890224716165616" lon="-80.48464529187866"><ele>6.0</ele><time>2026-04-19T12:21:18Z</time></trkpt><trkpt lat="25.890308915796645" lon="-80.48463435889406"><ele>6.0</ele><time>2026-04-19T12:21:19Z</time></trkpt><trkpt lat="25.890395025968072" lon="-80.48462254630026"><ele>6.166666666666667</ele><time>2026-04-19T12:21:20Z</time></trkpt><trkpt lat="25.890481792553064" lon="-80.48460739041829"><ele>6.333333333333334</ele><time>2026-04-19T12:21:21Z</time></trkpt><trkpt lat="25.890570823430384" lon="-80.48459307060524"><ele>6.5</ele><time>2026-04-19T12:21:22Z</time></trkpt><trkpt lat="25.890658878162533" lon="-80.48457553355638"><ele>6.666666666666667</ele><time>2026-04-19T12:21:23Z</time></trkpt><trkpt lat="25.890747066086618" lon="-80.48455740272298"><ele>6.833333333333334</ele><time>2026-04-19T12:21:24Z</time></trkpt><trkpt lat="25.89083397235256" lon="-80.48453661054411"><ele>7.0</ele><time>2026-04-19T12:21:25Z</time></trkpt><trkpt lat="25.89092099684588" lon="-80.48451529537334"><ele>6.833333333333334</ele><time>2026-04-19T12:21:26Z</time></trkpt><trkpt lat="25.89100835129177" lon="-80.48449364592867"><ele>6.666666666666667</ele><time>2026-04-19T12:21:27Z</time></trkpt><trkpt lat="25.891096528223855" lon="-80.4844691510112"><ele>6.5</ele><time>2026-04-19T12:21:28Z</time></trkpt><trkpt lat="25.891184020754626" lon="-80.48444169266345"><ele>6.333333333333334</ele><time>2026-04-19T12:21:29Z</time></trkpt><trkpt lat="25.89127015584212" lon="-80.48441359629871"><ele>6.166666666666667</ele><time>2026-04-19T12:21:30Z</time></trkpt><trkpt lat="25.89135429059494" lon="-80.48438329154634"><ele>6.0</ele><time>2026-04-19T12:21:31Z</time></trkpt><trkpt lat="25.891437219973533" lon="-80.48435171234975"><ele>6.0</ele><time>2026-04-19T12:21:32Z</time></trkpt><trkpt lat="25.891521761715822" lon="-80.48431845097079"><ele>6.0</ele><time>2026-04-19T12:21:33Z</time></trkpt><trkpt lat="25.891604513970044" lon="-80.48428438434438"><ele>6.0</ele><time>2026-04-19T12:21:34Z</time></trkpt><trkpt lat="25.89168809781418" lon="-80.4842488556421"><ele>6.0</ele><time>2026-04-19T12:21:35Z</time></trkpt><trkpt lat="25.891766535997824" lon="-80.48421297326092"><ele>6.0</ele><time>2026-04-19T12:21:36Z</time></trkpt><trkpt lat="25.89184405480695" lon="-80.48417599745638"><ele>6.0</ele><time>2026-04-19T12:21:37Z</time></trkpt><trkpt lat="25.891920522741362" lon="-80.48413840209162"><ele>5.833333333333333</ele><time>2026-04-19T12:21:38Z</time></trkpt><trkpt lat="25.891998903699022" lon="-80.48409674765742"><ele>5.666666666666667</ele><time>2026-04-19T12:21:38.999Z</time></trkpt><trkpt lat="25.892074731970528" lon="-80.48405271158427"><ele>5.5</ele><time>2026-04-19T12:21:39.999Z</time></trkpt><trkpt lat="25.892153872315916" lon="-80.48400828795164"><ele>5.333333333333334</ele><time>2026-04-19T12:21:40.999Z</time></trkpt><trkpt lat="25.89223329662278" lon="-80.48396331205309"><ele>5.166666666666667</ele><time>2026-04-19T12:21:41.999Z</time></trkpt><trkpt lat="25.892310997273764" lon="-80.48391354054341"><ele>5.0</ele><time>2026-04-19T12:21:42.999Z</time></trkpt><trkpt lat="25.89238953948658" lon="-80.4838631378648"><ele>5.0</ele><time>2026-04-19T12:21:43.999Z</time></trkpt><trkpt lat="25.892468155712592" lon="-80.48381151548277"><ele>5.0</ele><time>2026-04-19T12:21:44.999Z</time></trkpt><trkpt lat="25.89254536667985" lon="-80.483759055855"><ele>5.0</ele><time>2026-04-19T12:21:45.999Z</time></trkpt><trkpt lat="25.892620995510256" lon="-80.48370187621367"><ele>5.0</ele><time>2026-04-19T12:21:46.999Z</time></trkpt><trkpt lat="25.89269649631539" lon="-80.4836466798195"><ele>5.0</ele><time>2026-04-19T12:21:47.999Z</time></trkpt><trkpt lat="25.892770026759695" lon="-80.48358891433632"><ele>5.0</ele><time>2026-04-19T12:21:48.999Z</time></trkpt><trkpt lat="25.89284421887146" lon="-80.48353055080791"><ele>5.0</ele><time>2026-04-19T12:21:49.999Z</time></trkpt><trkpt lat="25.89291793299747" lon="-80.48347063058586"><ele>5.0</ele><time>2026-04-19T12:21:50.999Z</time></trkpt><trkpt lat="25.892990143877157" lon="-80.48340854337852"><ele>5.0</ele><time>2026-04-19T12:21:51.999Z</time></trkpt><trkpt lat="25.89306060129276" lon="-80.4833438775002"><ele>5.0</ele><time>2026-04-19T12:21:52.999Z</time></trkpt><trkpt lat="25.89313299283405" lon="-80.48327909125015"><ele>5.0</ele><time>2026-04-19T12:21:53.999Z</time></trkpt><trkpt lat="25.893203593976242" lon="-80.48321328741567"><ele>5.0</ele><time>2026-04-19T12:21:54.999Z</time></trkpt><trkpt lat="25.893274530579365" lon="-80.48314988199525"><ele>5.0</ele><time>2026-04-19T12:21:55.999Z</time></trkpt><trkpt lat="25.893344188011735" lon="-80.48308310767541"><ele>5.0</ele><time>2026-04-19T12:21:56.999Z</time></trkpt><trkpt lat="25.89341579677096" lon="-80.48302102745937"><ele>5.0</ele><time>2026-04-19T12:21:57.999Z</time></trkpt><trkpt lat="25.893486689595484" lon="-80.48295821535201"><ele>5.2</ele><time>2026-04-19T12:21:58.999Z</time></trkpt><trkpt lat="25.893555480949185" lon="-80.48289474540087"><ele>5.4</ele><time>2026-04-19T12:21:59.999Z</time></trkpt><trkpt lat="25.89362344118355" lon="-80.48283437713242"><ele>5.6</ele><time>2026-04-19T12:22:00.999Z</time></trkpt><trkpt lat="25.893692279070894" lon="-80.48277058871268"><ele>5.8</ele><time>2026-04-19T12:22:01.999Z</time></trkpt><trkpt lat="25.893763533444943" lon="-80.48270436014435"><ele>6.0</ele><time>2026-04-19T12:22:02.999Z</time></trkpt><trkpt lat="25.89383594958542" lon="-80.48264023780258"><ele>6.0</ele><time>2026-04-19T12:22:03.999Z</time></trkpt><trkpt lat="25.893909914790683" lon="-80.48257322076448"><ele>6.0</ele><time>2026-04-19T12:22:04.999Z</time></trkpt><trkpt lat="25.89398289409499" lon="-80.4825064932248"><ele>6.0</ele><time>2026-04-19T12:22:05.999Z</time></trkpt><trkpt lat="25.894056701839357" lon="-80.48244044126972"><ele>6.0</ele><time>2026-04-19T12:22:06.999Z</time></trkpt><trkpt lat="25.89413241031079" lon="-80.48237353645813"><ele>6.0</ele><time>2026-04-19T12:22:07.999Z</time></trkpt><trkpt lat="25.89420665394483" lon="-80.48230554731241"><ele>6.0</ele><time>2026-04-19T12:22:08.999Z</time></trkpt><trkpt lat="25.894282655637873" lon="-80.48223612427775"><ele>6.0</ele><time>2026-04-19T12:22:09.999Z</time></trkpt><trkpt lat="25.894356830622474" lon="-80.48216836928792"><ele>6.0</ele><time>2026-04-19T12:22:10.999Z</time></trkpt><trkpt lat="25.894430834383886" lon="-80.48210278539246"><ele>6.0</ele><time>2026-04-19T12:22:11.999Z</time></trkpt><trkpt lat="25.894502880454286" lon="-80.48203721941607"><ele>6.0</ele><time>2026-04-19T12:22:12.999Z</time></trkpt><trkpt lat="25.894574859990836" lon="-80.48197243989834"><ele>6.0</ele><time>2026-04-19T12:22:13.999Z</time></trkpt><trkpt lat="25.894644605635598" lon="-80.48191021081996"><ele>6.0</ele><time>2026-04-19T12:22:14.999Z</time></trkpt><trkpt lat="25.894713931576792" lon="-80.48184639337718"><ele>6.0</ele><time>2026-04-19T12:22:15.999Z</time></trkpt><trkpt lat="25.894786496810863" lon="-80.48178144516656"><ele>6.0</ele><time>2026-04-19T12:22:16.999Z</time></trkpt><trkpt lat="25.89486004428352" lon="-80.48171568368163"><ele>6.0</ele><time>2026-04-19T12:22:17.999Z</time></trkpt><trkpt lat="25.894931021695413" lon="-80.4816497343555"><ele>6.0</ele><time>2026-04-19T12:22:18.999Z</time></trkpt><trkpt lat="25.895002938243113" lon="-80.4815833161581"><ele>6.0</ele><time>2026-04-19T12:22:19.999Z</time></trkpt><trkpt lat="25.895075429189298" lon="-80.48151911895536"><ele>6.0</ele><time>2026-04-19T12:22:20.999Z</time></trkpt><trkpt lat="25.895143396420288" lon="-80.48145818393209"><ele>6.0</ele><time>2026-04-19T12:22:21.999Z</time></trkpt><trkpt lat="25.895210301463827" lon="-80.4813964054934"><ele>6.0</ele><time>2026-04-19T12:22:22.999Z</time></trkpt><trkpt lat="25.89528028934828" lon="-80.48133481708365"><ele>6.199999999999999</ele><time>2026-04-19T12:22:23.999Z</time></trkpt><trkpt lat="25.89535108436253" lon="-80.48127032314386"><ele>6.3999999999999995</ele><time>2026-04-19T12:22:24.999Z</time></trkpt><trkpt lat="25.895422036887762" lon="-80.48120721952827"><ele>6.6</ele><time>2026-04-19T12:22:25.999Z</time></trkpt><trkpt lat="25.895495231081583" lon="-80.48114202131758"><ele>6.8</ele><time>2026-04-19T12:22:26.999Z</time></trkpt><trkpt lat="25.8955681741385" lon="-80.48107421334824"><ele>7.0</ele><time>2026-04-19T12:22:27.999Z</time></trkpt><trkpt lat="25.895640767691262" lon="-80.48100808395783"><ele>7.199999999999999</ele><time>2026-04-19T12:22:28.999Z</time></trkpt><trkpt lat="25.895713723614097" lon="-80.48094362965679"><ele>7.3999999999999995</ele><time>2026-04-19T12:22:29.999Z</time></trkpt><trkpt lat="25.89578401828742" lon="-80.48088010267313"><ele>7.6000000000000005</ele><time>2026-04-19T12:22:30.999Z</time></trkpt><trkpt lat="25.8958533679032" lon="-80.48081813303813"><ele>7.800000000000001</ele><time>2026-04-19T12:22:31.999Z</time></trkpt><trkpt lat="25.895920386441013" lon="-80.48075568612788"><ele>8.0</ele><time>2026-04-19T12:22:32.999Z</time></trkpt><trkpt lat="25.89598946107661" lon="-80.48069128602779"><ele>7.833333333333333</ele><time>2026-04-19T12:22:33.999Z</time></trkpt><trkpt lat="25.896058921756936" lon="-80.48062810429781"><ele>7.666666666666666</ele><time>2026-04-19T12:22:34.999Z</time></trkpt><trkpt lat="25.896129935666007" lon="-80.48056629609285"><ele>7.5</ele><time>2026-04-19T12:22:35.999Z</time></trkpt><trkpt lat="25.89619823144707" lon="-80.48050493652278"><ele>7.333333333333334</ele><time>2026-04-19T12:22:36.999Z</time></trkpt><trkpt lat="25.89626529399019" lon="-80.48044310146891"><ele>7.166666666666667</ele><time>2026-04-19T12:22:37.999Z</time></trkpt><trkpt lat="25.896335140614067" lon="-80.48038086698382"><ele>7.0</ele><time>2026-04-19T12:22:38.999Z</time></trkpt><trkpt lat="25.896405678717166" lon="-80.48031666813549"><ele>7.0</ele><time>2026-04-19T12:22:39.999Z</time></trkpt><trkpt lat="25.896475866046178" lon="-80.48025220420735"><ele>6.999999999999999</ele><time>2026-04-19T12:22:40.999Z</time></trkpt><trkpt lat="25.896548394066865" lon="-80.48018653872988"><ele>6.999999999999999</ele><time>2026-04-19T12:22:41.999Z</time></trkpt><trkpt lat="25.89662120952298" lon="-80.48012084113277"><ele>7.0</ele><time>2026-04-19T12:22:42.999Z</time></trkpt><trkpt lat="25.896695146768998" lon="-80.48005478578328"><ele>7.0</ele><time>2026-04-19T12:22:43.999Z</time></trkpt><trkpt lat="25.896766961112203" lon="-80.47998780147859"><ele>6.666666666666667</ele><time>2026-04-19T12:22:44.999Z</time></trkpt><trkpt lat="25.896839308015615" lon="-80.47992521321571"><ele>6.333333333333334</ele><time>2026-04-19T12:22:45.999Z</time></trkpt><trkpt lat="25.8969092632963" lon="-80.4798621753348"><ele>6.0</ele><time>2026-04-19T12:22:46.999Z</time></trkpt><trkpt lat="25.896978422923503" lon="-80.47979838855198"><ele>5.666666666666667</ele><time>2026-04-19T12:22:47.999Z</time></trkpt><trkpt lat="25.897043684826606" lon="-80.47973807115035"><ele>5.333333333333334</ele><time>2026-04-19T12:22:48.999Z</time></trkpt><trkpt lat="25.89710895063201" lon="-80.47967942589563"><ele>5.0</ele><time>2026-04-19T12:22:49.999Z</time></trkpt><trkpt lat="25.897174915912537" lon="-80.47962029050593"><ele>5.0</ele><time>2026-04-19T12:22:50.999Z</time></trkpt><trkpt lat="25.897242487652466" lon="-80.47955837840729"><ele>5.0</ele><time>2026-04-19T12:22:51.999Z</time></trkpt><trkpt lat="25.897312552882678" lon="-80.47949601113851"><ele>5.0</ele><time>2026-04-19T12:22:52.999Z</time></trkpt><trkpt lat="25.89738299013602" lon="-80.47943117991359"><ele>5.0</ele><time>2026-04-19T12:22:53.999Z</time></trkpt><trkpt lat="25.89745685809283" lon="-80.47936636551195"><ele>5.0</ele><time>2026-04-19T12:22:54.999Z</time></trkpt><trkpt lat="25.897531103378885" lon="-80.4793012931655"><ele>5.166666666666667</ele><time>2026-04-19T12:22:55.999Z</time></trkpt><trkpt lat="25.89760192609461" lon="-80.47923533699033"><ele>5.333333333333334</ele><time>2026-04-19T12:22:56.999Z</time></trkpt><trkpt lat="25.897671350914894" lon="-80.47917301537798"><ele>5.5</ele><time>2026-04-19T12:22:57.999Z</time></trkpt><trkpt lat="25.897737966015452" lon="-80.47911239369833"><ele>5.666666666666667</ele><time>2026-04-19T12:22:58.999Z</time></trkpt><trkpt lat="25.89780402447064" lon="-80.47905305678749"><ele>5.833333333333333</ele><time>2026-04-19T12:22:59.999Z</time></trkpt><trkpt lat="25.89787159393175" lon="-80.47899181887149"><ele>6.0</ele><time>2026-04-19T12:23:00.999Z</time></trkpt><trkpt lat="25.89794136353776" lon="-80.47892967418194"><ele>6.0</ele><time>2026-04-19T12:23:01.999Z</time></trkpt><trkpt lat="25.89801266832313" lon="-80.47886516359854"><ele>6.0</ele><time>2026-04-19T12:23:02.999Z</time></trkpt><trkpt lat="25.898084288325457" lon="-80.47880081324688"><ele>6.0</ele><time>2026-04-19T12:23:03.999Z</time></trkpt><trkpt lat="25.898157031457153" lon="-80.47873384653167"><ele>6.0</ele><time>2026-04-19T12:23:04.999Z</time></trkpt><trkpt lat="25.898229561425385" lon="-80.47866700729197"><ele>6.0</ele><time>2026-04-19T12:23:06Z</time></trkpt><trkpt lat="25.898304312989058" lon="-80.47860027724025"><ele>6.0</ele><time>2026-04-19T12:23:07Z</time></trkpt><trkpt lat="25.898376366093792" lon="-80.4785347554201"><ele>6.0</ele><time>2026-04-19T12:23:08Z</time></trkpt><trkpt lat="25.898448322020815" lon="-80.47847079140726"><ele>6.0</ele><time>2026-04-19T12:23:09Z</time></trkpt><trkpt lat="25.898520341605515" lon="-80.47840527559471"><ele>6.0</ele><time>2026-04-19T12:23:10Z</time></trkpt><trkpt lat="25.89859288410619" lon="-80.47833783427271"><ele>6.0</ele><time>2026-04-19T12:23:11Z</time></trkpt><trkpt lat="25.898667786599564" lon="-80.47827312222805"><ele>6.0</ele><time>2026-04-19T12:23:12Z</time></trkpt><trkpt lat="25.89874136998692" lon="-80.4782086292335"><ele>6.0</ele><time>2026-04-19T12:23:13Z</time></trkpt><trkpt lat="25.898811776907625" lon="-80.4781428683608"><ele>6.0</ele><time>2026-04-19T12:23:14Z</time></trkpt><trkpt lat="25.898881459489107" lon="-80.47807738916508"><ele>6.0</ele><time>2026-04-19T12:23:15Z</time></trkpt><trkpt lat="25.89895306034341" lon="-80.47801139292157"><ele>6.0</ele><time>2026-04-19T12:23:16Z</time></trkpt><trkpt lat="25.89902311836605" lon="-80.47794860744926"><ele>6.6</ele><time>2026-04-19T12:23:17Z</time></trkpt><trkpt lat="25.89909092966604" lon="-80.47788640008952"><ele>7.199999999999999</ele><time>2026-04-19T12:23:18Z</time></trkpt><trkpt lat="25.899160452062336" lon="-80.47782393378077"><ele>7.800000000000001</ele><time>2026-04-19T12:23:19Z</time></trkpt><trkpt lat="25.89923207283024" lon="-80.47776123881255"><ele>8.4</ele><time>2026-04-19T12:23:20Z</time></trkpt><trkpt lat="25.899303592215215" lon="-80.4776967869772"><ele>9.0</ele><time>2026-04-19T12:23:21Z</time></trkpt><trkpt lat="25.89937532734893" lon="-80.47763280737806"><ele>9.0</ele><time>2026-04-19T12:23:22Z</time></trkpt><trkpt lat="25.899445558555563" lon="-80.47756804511542"><ele>9.0</ele><time>2026-04-19T12:23:23Z</time></trkpt><trkpt lat="25.89951492857732" lon="-80.47750418018083"><ele>9.0</ele><time>2026-04-19T12:23:24Z</time></trkpt><trkpt lat="25.89958185467879" lon="-80.47744389557833"><ele>9.0</ele><time>2026-04-19T12:23:25Z</time></trkpt><trkpt lat="25.899651469344935" lon="-80.47738487927273"><ele>9.0</ele><time>2026-04-19T12:23:26Z</time></trkpt><trkpt lat="25.89971953711078" lon="-80.47731930738948"><ele>9.0</ele><time>2026-04-19T12:23:27Z</time></trkpt><trkpt lat="25.8997894096488" lon="-80.47725581804801"><ele>9.0</ele><time>2026-04-19T12:23:28Z</time></trkpt><trkpt lat="25.899860411031074" lon="-80.4771912325275"><ele>9.0</ele><time>2026-04-19T12:23:29Z</time></trkpt><trkpt lat="25.89993291018511" lon="-80.47712686433084"><ele>9.0</ele><time>2026-04-19T12:23:30Z</time></trkpt><trkpt lat="25.900004518630006" lon="-80.47706186077278"><ele>9.0</ele><time>2026-04-19T12:23:31Z</time></trkpt><trkpt lat="25.90007692619613" lon="-80.4769961199656"><ele>9.0</ele><time>2026-04-19T12:23:32Z</time></trkpt><trkpt lat="25.90014988527338" lon="-80.47693209819431"><ele>8.2</ele><time>2026-04-19T12:23:33Z</time></trkpt><trkpt lat="25.900221458144827" lon="-80.4768680704613"><ele>7.4</ele><time>2026-04-19T12:23:34Z</time></trkpt><trkpt lat="25.90029343018073" lon="-80.47680425687886"><ele>6.6</ele><time>2026-04-19T12:23:35Z</time></trkpt><trkpt lat="25.900363659608807" lon="-80.47673978910622"><ele>5.8</ele><time>2026-04-19T12:23:36Z</time></trkpt><trkpt lat="25.90043585432929" lon="-80.47667487066514"><ele>5.0</ele><time>2026-04-19T12:23:37Z</time></trkpt><trkpt lat="25.900506314074153" lon="-80.47661009505819"><ele>5.0</ele><time>2026-04-19T12:23:38Z</time></trkpt><trkpt lat="25.900578088218843" lon="-80.47654513330869"><ele>5.0</ele><time>2026-04-19T12:23:39Z</time></trkpt><trkpt lat="25.900649117099775" lon="-80.4764817454206"><ele>5.0</ele><time>2026-04-19T12:23:39.999Z</time></trkpt><trkpt lat="25.900720788157848" lon="-80.47641519369141"><ele>5.0</ele><time>2026-04-19T12:23:40.999Z</time></trkpt><trkpt lat="25.900793279483" lon="-80.47634994802118"><ele>5.0</ele><time>2026-04-19T12:23:41.999Z</time></trkpt><trkpt lat="25.900864758681713" lon="-80.4762844248355"><ele>5.2</ele><time>2026-04-19T12:23:42.999Z</time></trkpt><trkpt lat="25.90093695140415" lon="-80.47622026867475"><ele>5.4</ele><time>2026-04-19T12:23:43.999Z</time></trkpt><trkpt lat="25.90101004964382" lon="-80.47615259309566"><ele>5.6</ele><time>2026-04-19T12:23:44.999Z</time></trkpt><trkpt lat="25.901082149931035" lon="-80.47608699429274"><ele>5.8</ele><time>2026-04-19T12:23:45.999Z</time></trkpt><trkpt lat="25.90115655585939" lon="-80.47601993493531"><ele>6.0</ele><time>2026-04-19T12:23:46.999Z</time></trkpt><trkpt lat="25.90123504978907" lon="-80.47595298275004"><ele>6.0</ele><time>2026-04-19T12:23:47.999Z</time></trkpt><trkpt lat="25.901310522654217" lon="-80.47588119009475"><ele>6.0</ele><time>2026-04-19T12:23:48.999Z</time></trkpt><trkpt lat="25.90138773784745" lon="-80.47581152057259"><ele>6.0</ele><time>2026-04-19T12:23:49.999Z</time></trkpt><trkpt lat="25.9014630399888" lon="-80.4757432984968"><ele>6.0</ele><time>2026-04-19T12:23:50.999Z</time></trkpt><trkpt lat="25.90153896398083" lon="-80.47567880382584"><ele>6.0</ele><time>2026-04-19T12:23:51.999Z</time></trkpt><trkpt lat="25.901612938578356" lon="-80.47561402587607"><ele>6.0</ele><time>2026-04-19T12:23:52.999Z</time></trkpt><trkpt lat="25.901684227098418" lon="-80.4755469966739"><ele>6.0</ele><time>2026-04-19T12:23:53.999Z</time></trkpt><trkpt lat="25.901755556653146" lon="-80.47548010180334"><ele>6.0</ele><time>2026-04-19T12:23:54.999Z</time></trkpt><trkpt lat="25.901829676215804" lon="-80.47541488891886"><ele>6.0</ele><time>2026-04-19T12:23:55.999Z</time></trkpt><trkpt lat="25.901905443327703" lon="-80.47534937328096"><ele>6.0</ele><time>2026-04-19T12:23:56.999Z</time></trkpt><trkpt lat="25.901980891266685" lon="-80.4752823598392"><ele>6.0</ele><time>2026-04-19T12:23:57.999Z</time></trkpt><trkpt lat="25.90205703378818" lon="-80.47521427019372"><ele>6.0</ele><time>2026-04-19T12:23:58.999Z</time></trkpt><trkpt lat="25.902131839824044" lon="-80.47514459896743"><ele>6.0</ele><time>2026-04-19T12:23:59.999Z</time></trkpt><trkpt lat="25.902208421156804" lon="-80.47507555537742"><ele>6.0</ele><time>2026-04-19T12:24:00.999Z</time></trkpt><trkpt lat="25.9022846975372" lon="-80.47500489488418"><ele>6.0</ele><time>2026-04-19T12:24:01.999Z</time></trkpt><trkpt lat="25.90236322244626" lon="-80.47493472998373"><ele>6.0</ele><time>2026-04-19T12:24:02.999Z</time></trkpt><trkpt lat="25.9024414108681" lon="-80.47486270945029"><ele>6.0</ele><time>2026-04-19T12:24:03.999Z</time></trkpt><trkpt lat="25.90252111777597" lon="-80.47479078165841"><ele>6.0</ele><time>2026-04-19T12:24:04.999Z</time></trkpt><trkpt lat="25.902598404053652" lon="-80.47471884330733"><ele>6.0</ele><time>2026-04-19T12:24:05.999Z</time></trkpt><trkpt lat="25.90267706782904" lon="-80.47464714536711"><ele>6.0</ele><time>2026-04-19T12:24:06.999Z</time></trkpt><trkpt lat="25.902755348419042" lon="-80.47457662740693"><ele>6.0</ele><time>2026-04-19T12:24:07.999Z</time></trkpt><trkpt lat="25.902832072336125" lon="-80.47450814460936"><ele>6.0</ele><time>2026-04-19T12:24:08.999Z</time></trkpt><trkpt lat="25.902909182792243" lon="-80.47444211267585"><ele>6.0</ele><time>2026-04-19T12:24:09.999Z</time></trkpt><trkpt lat="25.90298426549153" lon="-80.47437293742404"><ele>6.0</ele><time>2026-04-19T12:24:10.999Z</time></trkpt><trkpt lat="25.903059063899654" lon="-80.4743021257845"><ele>6.0</ele><time>2026-04-19T12:24:11.999Z</time></trkpt><trkpt lat="25.90313550468666" lon="-80.47423352256915"><ele>6.0</ele><time>2026-04-19T12:24:12.999Z</time></trkpt><trkpt lat="25.903209077600383" lon="-80.47416461514366"><ele>6.0</ele><time>2026-04-19T12:24:13.999Z</time></trkpt><trkpt lat="25.903283364760416" lon="-80.47410073514273"><ele>6.0</ele><time>2026-04-19T12:24:14.999Z</time></trkpt><trkpt lat="25.90335601869274" lon="-80.47403439346444"><ele>6.0</ele><time>2026-04-19T12:24:15.999Z</time></trkpt><trkpt lat="25.90343132834229" lon="-80.47396643500406"><ele>6.0</ele><time>2026-04-19T12:24:16.999Z</time></trkpt><trkpt lat="25.903504110732236" lon="-80.47389794505871"><ele>5.8</ele><time>2026-04-19T12:24:17.999Z</time></trkpt><trkpt lat="25.90357903020122" lon="-80.47382672185974"><ele>5.6</ele><time>2026-04-19T12:24:18.999Z</time></trkpt><trkpt lat="25.903657513678954" lon="-80.47375742099959"><ele>5.4</ele><time>2026-04-19T12:24:19.999Z</time></trkpt><trkpt lat="25.90373714231747" lon="-80.47368530095021"><ele>5.2</ele><time>2026-04-19T12:24:20.999Z</time></trkpt><trkpt lat="25.903817168691614" lon="-80.47361394342695"><ele>5.0</ele><time>2026-04-19T12:24:21.999Z</time></trkpt><trkpt lat="25.903897579780406" lon="-80.4735408731873"><ele>5.0</ele><time>2026-04-19T12:24:22.999Z</time></trkpt><trkpt lat="25.90397889603611" lon="-80.47346869347861"><ele>5.0</ele><time>2026-04-19T12:24:23.999Z</time></trkpt><trkpt lat="25.904059977609055" lon="-80.4733951357296"><ele>5.0</ele><time>2026-04-19T12:24:24.999Z</time></trkpt><trkpt lat="25.904142871837642" lon="-80.47332069895172"><ele>5.0</ele><time>2026-04-19T12:24:25.999Z</time></trkpt><trkpt lat="25.904224793757038" lon="-80.47324342142878"><ele>5.0</ele><time>2026-04-19T12:24:26.999Z</time></trkpt><trkpt lat="25.904307382547366" lon="-80.4731673424056"><ele>5.0</ele><time>2026-04-19T12:24:27.999Z</time></trkpt><trkpt lat="25.904390133073395" lon="-80.47309576495495"><ele>5.0</ele><time>2026-04-19T12:24:28.999Z</time></trkpt><trkpt lat="25.904468958173993" lon="-80.47302404453461"><ele>5.0</ele><time>2026-04-19T12:24:29.999Z</time></trkpt><trkpt lat="25.90454987588005" lon="-80.47295149309107"><ele>5.0</ele><time>2026-04-19T12:24:30.999Z</time></trkpt><trkpt lat="25.90462912794734" lon="-80.47287952694407"><ele>5.0</ele><time>2026-04-19T12:24:31.999Z</time></trkpt><trkpt lat="25.904710413582023" lon="-80.47280709064334"><ele>5.2</ele><time>2026-04-19T12:24:32.999Z</time></trkpt><trkpt lat="25.904791594121036" lon="-80.47273569883247"><ele>5.4</ele><time>2026-04-19T12:24:33.999Z</time></trkpt><trkpt lat="25.90487152837414" lon="-80.47266354005991"><ele>5.6</ele><time>2026-04-19T12:24:34.999Z</time></trkpt><trkpt lat="25.904949575485915" lon="-80.47259062293391"><ele>5.8</ele><time>2026-04-19T12:24:35.999Z</time></trkpt><trkpt lat="25.905029858198358" lon="-80.47251812060922"><ele>6.0</ele><time>2026-04-19T12:24:36.999Z</time></trkpt><trkpt lat="25.90510928349317" lon="-80.47244745417238"><ele>6.0</ele><time>2026-04-19T12:24:37.999Z</time></trkpt><trkpt lat="25.90519076235657" lon="-80.47237628940775"><ele>6.0</ele><time>2026-04-19T12:24:38.999Z</time></trkpt><trkpt lat="25.905270440833107" lon="-80.47230296667371"><ele>6.0</ele><time>2026-04-19T12:24:39.999Z</time></trkpt><trkpt lat="25.9053513974712" lon="-80.47223031929948"><ele>6.0</ele><time>2026-04-19T12:24:40.999Z</time></trkpt><trkpt lat="25.90543387643734" lon="-80.4721586447562"><ele>6.0</ele><time>2026-04-19T12:24:41.999Z</time></trkpt><trkpt lat="25.905514518258347" lon="-80.47208440888313"><ele>6.199999999999999</ele><time>2026-04-19T12:24:42.999Z</time></trkpt><trkpt lat="25.905597675259976" lon="-80.4720101006222"><ele>6.3999999999999995</ele><time>2026-04-19T12:24:43.999Z</time></trkpt><trkpt lat="25.905677493612032" lon="-80.47193522654428"><ele>6.6</ele><time>2026-04-19T12:24:44.999Z</time></trkpt><trkpt lat="25.905757158826603" lon="-80.47186157535455"><ele>6.8</ele><time>2026-04-19T12:24:45.999Z</time></trkpt><trkpt lat="25.905836429179704" lon="-80.47178875145833"><ele>7.0</ele><time>2026-04-19T12:24:46.999Z</time></trkpt><trkpt lat="25.90591588315588" lon="-80.47171997178093"><ele>6.6</ele><time>2026-04-19T12:24:47.999Z</time></trkpt><trkpt lat="25.90599397791743" lon="-80.4716508439388"><ele>6.199999999999999</ele><time>2026-04-19T12:24:48.999Z</time></trkpt><trkpt lat="25.906072199861732" lon="-80.47158229571502"><ele>5.8</ele><time>2026-04-19T12:24:49.999Z</time></trkpt><trkpt lat="25.90614820095914" lon="-80.47151202038454"><ele>5.4</ele><time>2026-04-19T12:24:50.999Z</time></trkpt><trkpt lat="25.90622178268778" lon="-80.47144293002016"><ele>5.0</ele><time>2026-04-19T12:24:51.999Z</time></trkpt><trkpt lat="25.9062976170255" lon="-80.47137351829996"><ele>5.0</ele><time>2026-04-19T12:24:52.999Z</time></trkpt><trkpt lat="25.906374075549166" lon="-80.4713026884149"><ele>5.0</ele><time>2026-04-19T12:24:53.999Z</time></trkpt><trkpt lat="25.90644825139804" lon="-80.47123615934353"><ele>5.0</ele><time>2026-04-19T12:24:54.999Z</time></trkpt><trkpt lat="25.906522337664306" lon="-80.47116995102935"><ele>5.0</ele><time>2026-04-19T12:24:55.999Z</time></trkpt><trkpt lat="25.906596392666234" lon="-80.4711045025432"><ele>5.0</ele><time>2026-04-19T12:24:56.999Z</time></trkpt><trkpt lat="25.906669822380657" lon="-80.47103889997499"><ele>5.0</ele><time>2026-04-19T12:24:57.999Z</time></trkpt><trkpt lat="25.90674091700155" lon="-80.47097366262946"><ele>5.0</ele><time>2026-04-19T12:24:58.999Z</time></trkpt><trkpt lat="25.906812184682764" lon="-80.47090684702414"><ele>5.0</ele><time>2026-04-19T12:24:59.999Z</time></trkpt><trkpt lat="25.906885313192053" lon="-80.4708397009513"><ele>5.0</ele><time>2026-04-19T12:25:00.999Z</time></trkpt><trkpt lat="25.906956960147607" lon="-80.4707749074328"><ele>5.0</ele><time>2026-04-19T12:25:01.999Z</time></trkpt><trkpt lat="25.90703034085315" lon="-80.47070876436356"><ele>5.0</ele><time>2026-04-19T12:25:02.999Z</time></trkpt><trkpt lat="25.907103340750908" lon="-80.47064054766854"><ele>5.0</ele><time>2026-04-19T12:25:03.999Z</time></trkpt><trkpt lat="25.9071769748956" lon="-80.47057148337439"><ele>5.0</ele><time>2026-04-19T12:25:04.999Z</time></trkpt><trkpt lat="25.9072572083996" lon="-80.47050210550996"><ele>5.0</ele><time>2026-04-19T12:25:05.999Z</time></trkpt><trkpt lat="25.90733606212382" lon="-80.47043207884954"><ele>5.0</ele><time>2026-04-19T12:25:06.998Z</time></trkpt><trkpt lat="25.907415525028004" lon="-80.47036083801395"><ele>5.2</ele><time>2026-04-19T12:25:07.998Z</time></trkpt><trkpt lat="25.90749391532304" lon="-80.47028700842301"><ele>5.4</ele><time>2026-04-19T12:25:08.998Z</time></trkpt><trkpt lat="25.907573656448655" lon="-80.470214980658"><ele>5.6</ele><time>2026-04-19T12:25:09.998Z</time></trkpt><trkpt lat="25.90765223747516" lon="-80.47014388518899"><ele>5.8</ele><time>2026-04-19T12:25:10.998Z</time></trkpt><trkpt lat="25.907729319314953" lon="-80.47007523227272"><ele>6.0</ele><time>2026-04-19T12:25:12Z</time></trkpt><trkpt lat="25.907806795065355" lon="-80.47000713480719"><ele>6.0</ele><time>2026-04-19T12:25:13Z</time></trkpt><trkpt lat="25.90788440435129" lon="-80.46993700059485"><ele>6.0</ele><time>2026-04-19T12:25:14Z</time></trkpt><trkpt lat="25.90796155236272" lon="-80.4698660787592"><ele>6.0</ele><time>2026-04-19T12:25:15Z</time></trkpt><trkpt lat="25.90803832909394" lon="-80.46979626696996"><ele>6.0</ele><time>2026-04-19T12:25:16Z</time></trkpt><trkpt lat="25.908113896825935" lon="-80.46972646712125"><ele>6.0</ele><time>2026-04-19T12:25:17Z</time></trkpt><trkpt lat="25.908188330089118" lon="-80.46965818696815"><ele>6.0</ele><time>2026-04-19T12:25:18Z</time></trkpt><trkpt lat="25.908265131016925" lon="-80.46958898030641"><ele>6.0</ele><time>2026-04-19T12:25:19Z</time></trkpt><trkpt lat="25.908346960441072" lon="-80.46951802712441"><ele>6.0</ele><time>2026-04-19T12:25:20Z</time></trkpt><trkpt lat="25.908424375092356" lon="-80.46944438755388"><ele>6.0</ele><time>2026-04-19T12:25:21Z</time></trkpt><trkpt lat="25.908501254696123" lon="-80.469372744212"><ele>6.0</ele><time>2026-04-19T12:25:22Z</time></trkpt><trkpt lat="25.908576482960424" lon="-80.46930470770485"><ele>6.0</ele><time>2026-04-19T12:25:23Z</time></trkpt><trkpt lat="25.908652529613608" lon="-80.46923674355885"><ele>6.0</ele><time>2026-04-19T12:25:24Z</time></trkpt><trkpt lat="25.908728294917477" lon="-80.46917001821195"><ele>6.0</ele><time>2026-04-19T12:25:25Z</time></trkpt><trkpt lat="25.908804192497733" lon="-80.46910287933913"><ele>6.0</ele><time>2026-04-19T12:25:26Z</time></trkpt><trkpt lat="25.908879063711975" lon="-80.46903429787346"><ele>6.0</ele><time>2026-04-19T12:25:27Z</time></trkpt><trkpt lat="25.908952796480815" lon="-80.46896758347754"><ele>6.0</ele><time>2026-04-19T12:25:28Z</time></trkpt><trkpt lat="25.909029200749814" lon="-80.46889999546302"><ele>6.0</ele><time>2026-04-19T12:25:29Z</time></trkpt><trkpt lat="25.90910544184362" lon="-80.46883254844377"><ele>6.0</ele><time>2026-04-19T12:25:30Z</time></trkpt><trkpt lat="25.909181846251936" lon="-80.46876253360992"><ele>6.0</ele><time>2026-04-19T12:25:31Z</time></trkpt><trkpt lat="25.909258872711106" lon="-80.46869335269362"><ele>6.0</ele><time>2026-04-19T12:25:32Z</time></trkpt><trkpt lat="25.909335092978882" lon="-80.46862155466368"><ele>6.0</ele><time>2026-04-19T12:25:33Z</time></trkpt><trkpt lat="25.909410771398974" lon="-80.46855276041933"><ele>6.0</ele><time>2026-04-19T12:25:34Z</time></trkpt><trkpt lat="25.909485933402653" lon="-80.46848544018965"><ele>6.0</ele><time>2026-04-19T12:25:35Z</time></trkpt><trkpt lat="25.90955972071365" lon="-80.46841889087642"><ele>6.0</ele><time>2026-04-19T12:25:36Z</time></trkpt><trkpt lat="25.909632717088364" lon="-80.46835020802806"><ele>6.0</ele><time>2026-04-19T12:25:37Z</time></trkpt><trkpt lat="25.909708477738004" lon="-80.46828370488757"><ele>6.0</ele><time>2026-04-19T12:25:38Z</time></trkpt><trkpt lat="25.90978409738142" lon="-80.46821323216781"><ele>6.0</ele><time>2026-04-19T12:25:39Z</time></trkpt><trkpt lat="25.909862086187694" lon="-80.46814063049646"><ele>6.0</ele><time>2026-04-19T12:25:40Z</time></trkpt><trkpt lat="25.909941894279015" lon="-80.46806823279731"><ele>6.0</ele><time>2026-04-19T12:25:40.999Z</time></trkpt><trkpt lat="25.910022941855004" lon="-80.46799431323878"><ele>6.0</ele><time>2026-04-19T12:25:41.999Z</time></trkpt><trkpt lat="25.910104612551137" lon="-80.46792202683977"><ele>6.199999999999999</ele><time>2026-04-19T12:25:42.999Z</time></trkpt><trkpt lat="25.910187636941036" lon="-80.46784821979371"><ele>6.3999999999999995</ele><time>2026-04-19T12:25:43.999Z</time></trkpt><trkpt lat="25.910269697448562" lon="-80.4677747108065"><ele>6.6</ele><time>2026-04-19T12:25:44.999Z</time></trkpt><trkpt lat="25.91034957756423" lon="-80.46770272076081"><ele>6.8</ele><time>2026-04-19T12:25:45.999Z</time></trkpt><trkpt lat="25.91042871497916" lon="-80.46763103444485"><ele>7.0</ele><time>2026-04-19T12:25:46.999Z</time></trkpt><trkpt lat="25.910508029106605" lon="-80.46756042203323"><ele>7.0</ele><time>2026-04-19T12:25:47.999Z</time></trkpt><trkpt lat="25.91058616996986" lon="-80.46748990101658"><ele>6.999999999999999</ele><time>2026-04-19T12:25:48.999Z</time></trkpt><trkpt lat="25.91066301864386" lon="-80.46741980136089"><ele>6.999999999999999</ele><time>2026-04-19T12:25:49.999Z</time></trkpt><trkpt lat="25.910739294547966" lon="-80.46735246296977"><ele>7.0</ele><time>2026-04-19T12:25:50.999Z</time></trkpt><trkpt lat="25.910816854843866" lon="-80.46728242043484"><ele>7.0</ele><time>2026-04-19T12:25:51.999Z</time></trkpt><trkpt lat="25.910894889411058" lon="-80.46721111169418"><ele>7.0</ele><time>2026-04-19T12:25:52.999Z</time></trkpt><trkpt lat="25.910973138548144" lon="-80.46714176560897"><ele>6.999999999999999</ele><time>2026-04-19T12:25:53.999Z</time></trkpt><trkpt lat="25.911050409379843" lon="-80.46706882757337"><ele>6.999999999999999</ele><time>2026-04-19T12:25:54.999Z</time></trkpt><trkpt lat="25.911126721604113" lon="-80.46699930388898"><ele>7.0</ele><time>2026-04-19T12:25:55.999Z</time></trkpt><trkpt lat="25.911204697069625" lon="-80.46692899434603"><ele>7.0</ele><time>2026-04-19T12:25:56.999Z</time></trkpt><trkpt lat="25.91128279069162" lon="-80.46685828581649"><ele>7.199999999999999</ele><time>2026-04-19T12:25:57.999Z</time></trkpt><trkpt lat="25.911363433607292" lon="-80.46678417959721"><ele>7.3999999999999995</ele><time>2026-04-19T12:25:58.999Z</time></trkpt><trkpt lat="25.911449026904787" lon="-80.4667107653711"><ele>7.6000000000000005</ele><time>2026-04-19T12:25:59.999Z</time></trkpt><trkpt lat="25.911531974926646" lon="-80.46663414526203"><ele>7.800000000000001</ele><time>2026-04-19T12:26:00.999Z</time></trkpt><trkpt lat="25.911618725812506" lon="-80.4665541393922"><ele>8.0</ele><time>2026-04-19T12:26:01.999Z</time></trkpt><trkpt lat="25.911703579659275" lon="-80.46647312301863"><ele>7.6000000000000005</ele><time>2026-04-19T12:26:02.999Z</time></trkpt><trkpt lat="25.91179181949065" lon="-80.46639586994927"><ele>7.200000000000001</ele><time>2026-04-19T12:26:03.999Z</time></trkpt><trkpt lat="25.91187962808173" lon="-80.46631741524929"><ele>6.8</ele><time>2026-04-19T12:26:04.999Z</time></trkpt><trkpt lat="25.911966827756597" lon="-80.46623953073554"><ele>6.4</ele><time>2026-04-19T12:26:05.999Z</time></trkpt><trkpt lat="25.912052293398197" lon="-80.46616472705172"><ele>6.0</ele><time>2026-04-19T12:26:06.999Z</time></trkpt><trkpt lat="25.91213657482292" lon="-80.46609045359978"><ele>6.0</ele><time>2026-04-19T12:26:07.999Z</time></trkpt><trkpt lat="25.912218248411833" lon="-80.46601565620925"><ele>6.0</ele><time>2026-04-19T12:26:08.999Z</time></trkpt><trkpt lat="25.91229848405195" lon="-80.46594126586042"><ele>6.0</ele><time>2026-04-19T12:26:09.999Z</time></trkpt><trkpt lat="25.912378446328518" lon="-80.46587032960403"><ele>6.0</ele><time>2026-04-19T12:26:10.999Z</time></trkpt><trkpt lat="25.912459995015563" lon="-80.4657994913571"><ele>6.0</ele><time>2026-04-19T12:26:11.999Z</time></trkpt><trkpt lat="25.912538637794178" lon="-80.4657285804268"><ele>6.0</ele><time>2026-04-19T12:26:12.999Z</time></trkpt><trkpt lat="25.91261637198984" lon="-80.46565623584483"><ele>6.0</ele><time>2026-04-19T12:26:13.999Z</time></trkpt><trkpt lat="25.912695698257618" lon="-80.46558445107067"><ele>6.0</ele><time>2026-04-19T12:26:14.999Z</time></trkpt><trkpt lat="25.912776555817352" lon="-80.46551259888899"><ele>6.0</ele><time>2026-04-19T12:26:15.999Z</time></trkpt><trkpt lat="25.91285725916599" lon="-80.46543984573105"><ele>6.0</ele><time>2026-04-19T12:26:16.999Z</time></trkpt><trkpt lat="25.91293913508151" lon="-80.46536546701137"><ele>6.4</ele><time>2026-04-19T12:26:17.999Z</time></trkpt><trkpt lat="25.913021070688796" lon="-80.46529261811152"><ele>6.8</ele><time>2026-04-19T12:26:18.999Z</time></trkpt><trkpt lat="25.913101134268956" lon="-80.4652171239723"><ele>7.200000000000001</ele><time>2026-04-19T12:26:19.999Z</time></trkpt><trkpt lat="25.91318288277144" lon="-80.46514266970149"><ele>7.6000000000000005</ele><time>2026-04-19T12:26:20.999Z</time></trkpt><trkpt lat="25.91326182183715" lon="-80.46506933639643"><ele>8.0</ele><time>2026-04-19T12:26:21.999Z</time></trkpt><trkpt lat="25.91333866666477" lon="-80.46499948684173"><ele>7.499999999999999</ele><time>2026-04-19T12:26:22.999Z</time></trkpt><trkpt lat="25.913409900349066" lon="-80.46493694490268"><ele>7.0</ele><time>2026-04-19T12:26:23.999Z</time></trkpt><trkpt lat="25.913478247728296" lon="-80.46487526268669"><ele>6.5</ele><time>2026-04-19T12:26:24.999Z</time></trkpt><trkpt lat="25.913549353893323" lon="-80.46481224666036"><ele>6.0</ele><time>2026-04-19T12:26:25.999Z</time></trkpt><trkpt lat="25.913619417128057" lon="-80.46474991199071"><ele>5.5</ele><time>2026-04-19T12:26:26.999Z</time></trkpt><trkpt lat="25.91368575523562" lon="-80.46468846785397"><ele>5.0</ele><time>2026-04-19T12:26:27.999Z</time></trkpt><trkpt lat="25.913740256997407" lon="-80.46463507431251"><ele>5.0</ele><time>2026-04-19T12:26:28.999Z</time></trkpt><trkpt lat="25.91380388213143" lon="-80.46457998522956"><ele>5.0</ele><time>2026-04-19T12:26:29.999Z</time></trkpt><trkpt lat="25.913870748181942" lon="-80.46452132950627"><ele>5.0</ele><time>2026-04-19T12:26:30.999Z</time></trkpt><trkpt lat="25.91394451594709" lon="-80.46445992156448"><ele>5.0</ele><time>2026-04-19T12:26:31.999Z</time></trkpt><trkpt lat="25.914013138358417" lon="-80.46439589053622"><ele>5.0</ele><time>2026-04-19T12:26:32.999Z</time></trkpt><trkpt lat="25.914083631110213" lon="-80.46433192953238"><ele>5.0</ele><time>2026-04-19T12:26:33.999Z</time></trkpt><trkpt lat="25.914154248262875" lon="-80.46426930596076"><ele>5.0</ele><time>2026-04-19T12:26:34.999Z</time></trkpt><trkpt lat="25.914224168215327" lon="-80.46420802786449"><ele>5.0</ele><time>2026-04-19T12:26:35.999Z</time></trkpt><trkpt lat="25.91429179866375" lon="-80.46414608356683"><ele>5.0</ele><time>2026-04-19T12:26:36.999Z</time></trkpt><trkpt lat="25.91436119453337" lon="-80.46408091084601"><ele>5.0</ele><time>2026-04-19T12:26:37.999Z</time></trkpt><trkpt lat="25.91443143651151" lon="-80.464014343169"><ele>5.0</ele><time>2026-04-19T12:26:38.999Z</time></trkpt><trkpt lat="25.914502827445503" lon="-80.46394816187615"><ele>5.2</ele><time>2026-04-19T12:26:39.999Z</time></trkpt><trkpt lat="25.914574890013977" lon="-80.4638832194613"><ele>5.4</ele><time>2026-04-19T12:26:40.999Z</time></trkpt><trkpt lat="25.91464871601078" lon="-80.4638156153822"><ele>5.6</ele><time>2026-04-19T12:26:41.999Z</time></trkpt><trkpt lat="25.914724609499217" lon="-80.46374911308392"><ele>5.8</ele><time>2026-04-19T12:26:42.999Z</time></trkpt><trkpt lat="25.914800181259054" lon="-80.46368403816443"><ele>6.0</ele><time>2026-04-19T12:26:43.999Z</time></trkpt><trkpt lat="25.914873784178564" lon="-80.4636177682942"><ele>6.0</ele><time>2026-04-19T12:26:44.999Z</time></trkpt><trkpt lat="25.914948776692725" lon="-80.46354986001738"><ele>6.0</ele><time>2026-04-19T12:26:45.999Z</time></trkpt><trkpt lat="25.91502265867124" lon="-80.46348160612968"><ele>6.0</ele><time>2026-04-19T12:26:46.999Z</time></trkpt><trkpt lat="25.91509631848088" lon="-80.46341680363464"><ele>6.0</ele><time>2026-04-19T12:26:47.999Z</time></trkpt><trkpt lat="25.915168507408225" lon="-80.46335010114375"><ele>6.0</ele><time>2026-04-19T12:26:48.999Z</time></trkpt><trkpt lat="25.915241098560962" lon="-80.46328142277908"><ele>6.0</ele><time>2026-04-19T12:26:49.999Z</time></trkpt><trkpt lat="25.91531599293352" lon="-80.46321586204283"><ele>6.0</ele><time>2026-04-19T12:26:50.999Z</time></trkpt><trkpt lat="25.915391749232263" lon="-80.46314875904866"><ele>6.0</ele><time>2026-04-19T12:26:51.999Z</time></trkpt><trkpt lat="25.91546668173111" lon="-80.46308028722058"><ele>6.0</ele><time>2026-04-19T12:26:52.999Z</time></trkpt><trkpt lat="25.91554230158327" lon="-80.46301186342299"><ele>6.0</ele><time>2026-04-19T12:26:53.999Z</time></trkpt><trkpt lat="25.915617886174427" lon="-80.4629441599105"><ele>6.0</ele><time>2026-04-19T12:26:54.999Z</time></trkpt><trkpt lat="25.915693626135514" lon="-80.46287651705137"><ele>6.0</ele><time>2026-04-19T12:26:55.999Z</time></trkpt><trkpt lat="25.91576790021087" lon="-80.46280592999393"><ele>6.0</ele><time>2026-04-19T12:26:56.999Z</time></trkpt><trkpt lat="25.91584303982661" lon="-80.4627387830206"><ele>6.0</ele><time>2026-04-19T12:26:57.999Z</time></trkpt><trkpt lat="25.915916650564082" lon="-80.46267200215709"><ele>6.0</ele><time>2026-04-19T12:26:58.999Z</time></trkpt><trkpt lat="25.915990340070287" lon="-80.46260559304417"><ele>5.8</ele><time>2026-04-19T12:26:59.999Z</time></trkpt><trkpt lat="25.916065657919916" lon="-80.46253795675499"><ele>5.6</ele><time>2026-04-19T12:27:00.999Z</time></trkpt><trkpt lat="25.916140291514786" lon="-80.46246980670578"><ele>5.4</ele><time>2026-04-19T12:27:01.999Z</time></trkpt><trkpt lat="25.916214855857767" lon="-80.46239930335808"><ele>5.2</ele><time>2026-04-19T12:27:02.999Z</time></trkpt><trkpt lat="25.916289131515047" lon="-80.4623311120704"><ele>5.0</ele><time>2026-04-19T12:27:03.999Z</time></trkpt><trkpt lat="25.916362830740248" lon="-80.46226479599544"><ele>5.0</ele><time>2026-04-19T12:27:04.999Z</time></trkpt><trkpt lat="25.916434553640077" lon="-80.46219866777737"><ele>5.0</ele><time>2026-04-19T12:27:05.999Z</time></trkpt><trkpt lat="25.916507676403864" lon="-80.46213418505725"><ele>5.0</ele><time>2026-04-19T12:27:06.999Z</time></trkpt><trkpt lat="25.91658126961148" lon="-80.46206743420825"><ele>5.0</ele><time>2026-04-19T12:27:07.999Z</time></trkpt><trkpt lat="25.916653547905412" lon="-80.4620013556354"><ele>5.0</ele><time>2026-04-19T12:27:08.998Z</time></trkpt><trkpt lat="25.916727976918104" lon="-80.4619344709039"><ele>5.2</ele><time>2026-04-19T12:27:09.998Z</time></trkpt><trkpt lat="25.916803845271914" lon="-80.46186676351512"><ele>5.4</ele><time>2026-04-19T12:27:10.998Z</time></trkpt><trkpt lat="25.916879437713753" lon="-80.46179911194764"><ele>5.6</ele><time>2026-04-19T12:27:11.998Z</time></trkpt><trkpt lat="25.916954603296027" lon="-80.46173125503265"><ele>5.8</ele><time>2026-04-19T12:27:12.998Z</time></trkpt><trkpt lat="25.91702949513468" lon="-80.46166440559591"><ele>6.0</ele><time>2026-04-19T12:27:13.998Z</time></trkpt><trkpt lat="25.917103082993897" lon="-80.46159679123618"><ele>6.0</ele><time>2026-04-19T12:27:14.998Z</time></trkpt><trkpt lat="25.917178220830536" lon="-80.46153022149895"><ele>6.0</ele><time>2026-04-19T12:27:15.998Z</time></trkpt><trkpt lat="25.917252756496755" lon="-80.461463011674"><ele>6.0</ele><time>2026-04-19T12:27:16.998Z</time></trkpt><trkpt lat="25.917327569649224" lon="-80.46139449699365"><ele>6.0</ele><time>2026-04-19T12:27:18Z</time></trkpt><trkpt lat="25.917402981570334" lon="-80.46132645154961"><ele>6.0</ele><time>2026-04-19T12:27:19Z</time></trkpt><trkpt lat="25.917477928626784" lon="-80.46125846838586"><ele>6.0</ele><time>2026-04-19T12:27:20Z</time></trkpt><trkpt lat="25.917554196497367" lon="-80.46119398997337"><ele>6.0</ele><time>2026-04-19T12:27:21Z</time></trkpt><trkpt lat="25.917627031934042" lon="-80.46112817514503"><ele>6.0</ele><time>2026-04-19T12:27:22Z</time></trkpt><trkpt lat="25.91770006808991" lon="-80.46106040811537"><ele>6.0</ele><time>2026-04-19T12:27:23Z</time></trkpt><trkpt lat="25.917772847528276" lon="-80.4609946677742"><ele>6.0</ele><time>2026-04-19T12:27:24Z</time></trkpt><trkpt lat="25.91784676283217" lon="-80.46092793280167"><ele>6.0</ele><time>2026-04-19T12:27:25Z</time></trkpt><trkpt lat="25.91791933503915" lon="-80.46086030039876"><ele>6.0</ele><time>2026-04-19T12:27:26Z</time></trkpt><trkpt lat="25.91799255124595" lon="-80.46079521461726"><ele>6.0</ele><time>2026-04-19T12:27:27Z</time></trkpt><trkpt lat="25.918064663267565" lon="-80.46073133237378"><ele>6.0</ele><time>2026-04-19T12:27:28Z</time></trkpt><trkpt lat="25.918137491610565" lon="-80.46066415456771"><ele>6.0</ele><time>2026-04-19T12:27:29Z</time></trkpt><trkpt lat="25.918212194146484" lon="-80.46059681012355"><ele>6.0</ele><time>2026-04-19T12:27:30Z</time></trkpt><trkpt lat="25.91828876648709" lon="-80.46052791416629"><ele>6.0</ele><time>2026-04-19T12:27:31Z</time></trkpt><trkpt lat="25.918363945262602" lon="-80.46045971966905"><ele>6.0</ele><time>2026-04-19T12:27:32Z</time></trkpt><trkpt lat="25.918439807371133" lon="-80.46038878455342"><ele>6.0</ele><time>2026-04-19T12:27:33Z</time></trkpt><trkpt lat="25.918517938580855" lon="-80.46031944963114"><ele>6.0</ele><time>2026-04-19T12:27:34Z</time></trkpt><trkpt lat="25.91859611776802" lon="-80.46024917529991"><ele>6.4</ele><time>2026-04-19T12:27:35Z</time></trkpt><trkpt lat="25.918674860828702" lon="-80.46017629936874"><ele>6.8</ele><time>2026-04-19T12:27:36Z</time></trkpt><trkpt lat="25.918755295324164" lon="-80.46010613306731"><ele>7.200000000000001</ele><time>2026-04-19T12:27:37Z</time></trkpt><trkpt lat="25.918834253262183" lon="-80.46003209519023"><ele>7.6000000000000005</ele><time>2026-04-19T12:27:38Z</time></trkpt><trkpt lat="25.918915127886226" lon="-80.45996056648359"><ele>8.0</ele><time>2026-04-19T12:27:39Z</time></trkpt><trkpt lat="25.91899626562551" lon="-80.45988901878326"><ele>8.0</ele><time>2026-04-19T12:27:40Z</time></trkpt><trkpt lat="25.91907651934307" lon="-80.45981835030759"><ele>8.0</ele><time>2026-04-19T12:27:41Z</time></trkpt><trkpt lat="25.919154870924608" lon="-80.45974688690701"><ele>8.0</ele><time>2026-04-19T12:27:41.999Z</time></trkpt><trkpt lat="25.91923301689042" lon="-80.45967692708342"><ele>8.0</ele><time>2026-04-19T12:27:42.999Z</time></trkpt><trkpt lat="25.919311142838495" lon="-80.45960639039578"><ele>8.0</ele><time>2026-04-19T12:27:43.999Z</time></trkpt><trkpt lat="25.919389548576433" lon="-80.45953473609859"><ele>7.4</ele><time>2026-04-19T12:27:44.999Z</time></trkpt><trkpt lat="25.919468520447108" lon="-80.45946313890929"><ele>6.800000000000001</ele><time>2026-04-19T12:27:45.999Z</time></trkpt><trkpt lat="25.919548151014272" lon="-80.45938967565787"><ele>6.2</ele><time>2026-04-19T12:27:46.999Z</time></trkpt><trkpt lat="25.91962653983924" lon="-80.45931640063961"><ele>5.6</ele><time>2026-04-19T12:27:47.999Z</time></trkpt><trkpt lat="25.919708214097273" lon="-80.45924474005204"><ele>5.0</ele><time>2026-04-19T12:27:48.999Z</time></trkpt><trkpt lat="25.91978842389949" lon="-80.45917292812297"><ele>5.0</ele><time>2026-04-19T12:27:49.999Z</time></trkpt><trkpt lat="25.919869571530363" lon="-80.45910047557247"><ele>5.0</ele><time>2026-04-19T12:27:50.999Z</time></trkpt><trkpt lat="25.91994976679117" lon="-80.45902873216437"><ele>5.0</ele><time>2026-04-19T12:27:51.999Z</time></trkpt><trkpt lat="25.920031184718223" lon="-80.45895285821625"><ele>5.0</ele><time>2026-04-19T12:27:52.999Z</time></trkpt><trkpt lat="25.920112734795183" lon="-80.4588781132858"><ele>5.0</ele><time>2026-04-19T12:27:53.999Z</time></trkpt><trkpt lat="25.920193934794735" lon="-80.45880416215974"><ele>5.2</ele><time>2026-04-19T12:27:54.999Z</time></trkpt><trkpt lat="25.92027404888308" lon="-80.458730649703"><ele>5.4</ele><time>2026-04-19T12:27:55.999Z</time></trkpt><trkpt lat="25.920354212618573" lon="-80.4586574047939"><ele>5.6</ele><time>2026-04-19T12:27:56.999Z</time></trkpt><trkpt lat="25.92043463297073" lon="-80.45858445215023"><ele>5.8</ele><time>2026-04-19T12:27:57.999Z</time></trkpt><trkpt lat="25.92051334626188" lon="-80.45851331434042"><ele>6.0</ele><time>2026-04-19T12:27:58.999Z</time></trkpt><trkpt lat="25.920595041591714" lon="-80.45844165856133"><ele>6.0</ele><time>2026-04-19T12:27:59.999Z</time></trkpt><trkpt lat="25.920674280862553" lon="-80.458369332526"><ele>6.0</ele><time>2026-04-19T12:28:00.999Z</time></trkpt><trkpt lat="25.92075225311585" lon="-80.45829779023994"><ele>6.0</ele><time>2026-04-19T12:28:01.999Z</time></trkpt><trkpt lat="25.920829631268358" lon="-80.45822697281548"><ele>6.0</ele><time>2026-04-19T12:28:02.999Z</time></trkpt><trkpt lat="25.920909240916437" lon="-80.45815761716935"><ele>6.0</ele><time>2026-04-19T12:28:03.999Z</time></trkpt><trkpt lat="25.920985777012543" lon="-80.45808984307546"><ele>6.199999999999999</ele><time>2026-04-19T12:28:04.999Z</time></trkpt><trkpt lat="25.921060906761706" lon="-80.45802191724628"><ele>6.3999999999999995</ele><time>2026-04-19T12:28:05.999Z</time></trkpt><trkpt lat="25.921131917361613" lon="-80.45795778239298"><ele>6.6</ele><time>2026-04-19T12:28:06.999Z</time></trkpt><trkpt lat="25.921203063395936" lon="-80.45789473564868"><ele>6.8</ele><time>2026-04-19T12:28:07.999Z</time></trkpt><trkpt lat="25.921274501788403" lon="-80.45783015213094"><ele>7.0</ele><time>2026-04-19T12:28:08.999Z</time></trkpt><trkpt lat="25.921347409472457" lon="-80.45776446555735"><ele>7.0</ele><time>2026-04-19T12:28:09.999Z</time></trkpt><trkpt lat="25.921419858918526" lon="-80.457698627362"><ele>6.999999999999999</ele><time>2026-04-19T12:28:10.999Z</time></trkpt><trkpt lat="25.921492076465114" lon="-80.45763005633837"><ele>6.999999999999999</ele><time>2026-04-19T12:28:11.999Z</time></trkpt><trkpt lat="25.92156879503615" lon="-80.45756288636602"><ele>7.0</ele><time>2026-04-19T12:28:12.999Z</time></trkpt><trkpt lat="25.92164168177075" lon="-80.45749617067563"><ele>7.0</ele><time>2026-04-19T12:28:13.999Z</time></trkpt><trkpt lat="25.921715208536632" lon="-80.45742714838617"><ele>7.0</ele><time>2026-04-19T12:28:14.999Z</time></trkpt><trkpt lat="25.92178937610302" lon="-80.45736193674895"><ele>6.999999999999999</ele><time>2026-04-19T12:28:15.999Z</time></trkpt><trkpt lat="25.921863130699478" lon="-80.45729582510029"><ele>6.999999999999999</ele><time>2026-04-19T12:28:16.999Z</time></trkpt><trkpt lat="25.92193824437868" lon="-80.45722740736524"><ele>7.0</ele><time>2026-04-19T12:28:17.999Z</time></trkpt><trkpt lat="25.92201298737114" lon="-80.45715853364241"><ele>7.0</ele><time>2026-04-19T12:28:18.999Z</time></trkpt><trkpt lat="25.92208632691088" lon="-80.45708792176612"><ele>7.0</ele><time>2026-04-19T12:28:19.999Z</time></trkpt><trkpt lat="25.92216118279379" lon="-80.45702057661599"><ele>6.999999999999999</ele><time>2026-04-19T12:28:20.999Z</time></trkpt><trkpt lat="25.922234482408825" lon="-80.45695270081234"><ele>6.999999999999999</ele><time>2026-04-19T12:28:21.999Z</time></trkpt><trkpt lat="25.92231023331359" lon="-80.45688707056648"><ele>7.0</ele><time>2026-04-19T12:28:22.999Z</time></trkpt><trkpt lat="25.922385018257913" lon="-80.45681970569626"><ele>7.0</ele><time>2026-04-19T12:28:23.999Z</time></trkpt><trkpt lat="25.922459818686374" lon="-80.45675020344109"><ele>7.0</ele><time>2026-04-19T12:28:24.999Z</time></trkpt><trkpt lat="25.92253611091292" lon="-80.4566836149947"><ele>6.999999999999999</ele><time>2026-04-19T12:28:25.999Z</time></trkpt><trkpt lat="25.92261446662019" lon="-80.45661612980261"><ele>6.999999999999999</ele><time>2026-04-19T12:28:26.999Z</time></trkpt><trkpt lat="25.922689501947" lon="-80.45654725505065"><ele>7.0</ele><time>2026-04-19T12:28:27.999Z</time></trkpt><trkpt lat="25.92276493282305" lon="-80.45647819728654"><ele>7.0</ele><time>2026-04-19T12:28:28.999Z</time></trkpt><trkpt lat="25.922839120293887" lon="-80.45640937915734"><ele>7.199999999999999</ele><time>2026-04-19T12:28:29.999Z</time></trkpt><trkpt lat="25.922914510758275" lon="-80.4563423045181"><ele>7.3999999999999995</ele><time>2026-04-19T12:28:30.999Z</time></trkpt><trkpt lat="25.922988697715432" lon="-80.45627479575028"><ele>7.6000000000000005</ele><time>2026-04-19T12:28:31.999Z</time></trkpt><trkpt lat="25.92306387381038" lon="-80.45620755566611"><ele>7.800000000000001</ele><time>2026-04-19T12:28:32.999Z</time></trkpt><trkpt lat="25.923139973313" lon="-80.45613858328105"><ele>8.0</ele><time>2026-04-19T12:28:33.999Z</time></trkpt><trkpt lat="25.923214077517947" lon="-80.45606895526934"><ele>8.0</ele><time>2026-04-19T12:28:34.999Z</time></trkpt><trkpt lat="25.92329278904275" lon="-80.45599954712259"><ele>8.0</ele><time>2026-04-19T12:28:35.999Z</time></trkpt><trkpt lat="25.92337168512437" lon="-80.45593174339521"><ele>8.0</ele><time>2026-04-19T12:28:36.999Z</time></trkpt><trkpt lat="25.923448650607558" lon="-80.45585911325769"><ele>8.0</ele><time>2026-04-19T12:28:37.999Z</time></trkpt><trkpt lat="25.923525615151316" lon="-80.45578852414438"><ele>8.0</ele><time>2026-04-19T12:28:38.999Z</time></trkpt><trkpt lat="25.923600493113497" lon="-80.45571770954655"><ele>7.800000000000001</ele><time>2026-04-19T12:28:39.999Z</time></trkpt><trkpt lat="25.923674604447733" lon="-80.45565247302592"><ele>7.6000000000000005</ele><time>2026-04-19T12:28:40.999Z</time></trkpt><trkpt lat="25.92374712277237" lon="-80.45558605893027"><ele>7.3999999999999995</ele><time>2026-04-19T12:28:41.999Z</time></trkpt><trkpt lat="25.923822283818573" lon="-80.45552075319411"><ele>7.199999999999999</ele><time>2026-04-19T12:28:42.999Z</time></trkpt><trkpt lat="25.923896287844123" lon="-80.45545235127855"><ele>7.0</ele><time>2026-04-19T12:28:43.999Z</time></trkpt><trkpt lat="25.9239731541338" lon="-80.45538450938294"><ele>7.0</ele><time>2026-04-19T12:28:44.999Z</time></trkpt><trkpt lat="25.924049142667787" lon="-80.4553160134245"><ele>6.999999999999999</ele><time>2026-04-19T12:28:45.999Z</time></trkpt><trkpt lat="25.924126056019784" lon="-80.4552491348258"><ele>6.999999999999999</ele><time>2026-04-19T12:28:46.999Z</time></trkpt><trkpt lat="25.924201518915282" lon="-80.45517941242208"><ele>7.0</ele><time>2026-04-19T12:28:47.999Z</time></trkpt><trkpt lat="25.92427788971707" lon="-80.45510986558274"><ele>7.0</ele><time>2026-04-19T12:28:48.999Z</time></trkpt><trkpt lat="25.924352545997397" lon="-80.45504249140582"><ele>7.0</ele><time>2026-04-19T12:28:49.999Z</time></trkpt><trkpt lat="25.924427965891425" lon="-80.45497409191519"><ele>6.999999999999999</ele><time>2026-04-19T12:28:50.999Z</time></trkpt><trkpt lat="25.924504364613167" lon="-80.45490415646384"><ele>6.999999999999999</ele><time>2026-04-19T12:28:51.999Z</time></trkpt><trkpt lat="25.92457948914805" lon="-80.45483386209983"><ele>7.0</ele><time>2026-04-19T12:28:52.999Z</time></trkpt><trkpt lat="25.924655530451442" lon="-80.45476399867292"><ele>7.0</ele><time>2026-04-19T12:28:53.999Z</time></trkpt><trkpt lat="25.924736163696675" lon="-80.45469514414707"><ele>7.0</ele><time>2026-04-19T12:28:54.999Z</time></trkpt><trkpt lat="25.924817497348183" lon="-80.45462589059113"><ele>6.999999999999999</ele><time>2026-04-19T12:28:55.999Z</time></trkpt><trkpt lat="25.92489734732911" lon="-80.45455049463361"><ele>6.999999999999999</ele><time>2026-04-19T12:28:56.999Z</time></trkpt><trkpt lat="25.924978824793573" lon="-80.45447600845583"><ele>7.0</ele><time>2026-04-19T12:28:57.999Z</time></trkpt><trkpt lat="25.92506045213787" lon="-80.45440151506705"><ele>7.0</ele><time>2026-04-19T12:28:58.999Z</time></trkpt><trkpt lat="25.925141937617383" lon="-80.45432778763413"><ele>6.8</ele><time>2026-04-19T12:28:59.999Z</time></trkpt><trkpt lat="25.925221993965515" lon="-80.45425514216147"><ele>6.6</ele><time>2026-04-19T12:29:00.999Z</time></trkpt><trkpt lat="25.925302995966256" lon="-80.4541817207177"><ele>6.3999999999999995</ele><time>2026-04-19T12:29:01.999Z</time></trkpt><trkpt lat="25.925384208525525" lon="-80.45410839725538"><ele>6.199999999999999</ele><time>2026-04-19T12:29:02.999Z</time></trkpt><trkpt lat="25.925465883126172" lon="-80.45403397431478"><ele>6.0</ele><time>2026-04-19T12:29:03.999Z</time></trkpt><trkpt lat="25.925550760648484" lon="-80.4539600037834"><ele>6.0</ele><time>2026-04-19T12:29:04.999Z</time></trkpt><trkpt lat="25.925634619379856" lon="-80.45388448671886"><ele>6.0</ele><time>2026-04-19T12:29:05.999Z</time></trkpt><trkpt lat="25.925718870066373" lon="-80.45380836648388"><ele>6.0</ele><time>2026-04-19T12:29:06.999Z</time></trkpt><trkpt lat="25.925801245504736" lon="-80.45373145869027"><ele>6.0</ele><time>2026-04-19T12:29:07.999Z</time></trkpt><trkpt lat="25.925887628027997" lon="-80.45365520556406"><ele>6.0</ele><time>2026-04-19T12:29:08.998Z</time></trkpt><trkpt lat="25.925974502456047" lon="-80.45357983779553"><ele>6.0</ele><time>2026-04-19T12:29:09.998Z</time></trkpt><trkpt lat="25.92606141933672" lon="-80.45350361622644"><ele>6.0</ele><time>2026-04-19T12:29:10.998Z</time></trkpt><trkpt lat="25.926150414458156" lon="-80.45343045182454"><ele>6.0</ele><time>2026-04-19T12:29:11.998Z</time></trkpt><trkpt lat="25.926239382188516" lon="-80.45335605956822"><ele>6.0</ele><time>2026-04-19T12:29:12.998Z</time></trkpt><trkpt lat="25.926328037289206" lon="-80.45327970833799"><ele>6.0</ele><time>2026-04-19T12:29:13.998Z</time></trkpt><trkpt lat="25.92641401301666" lon="-80.45320193141694"><ele>6.0</ele><time>2026-04-19T12:29:14.998Z</time></trkpt><trkpt lat="25.926501604394655" lon="-80.45312537375355"><ele>6.0</ele><time>2026-04-19T12:29:15.998Z</time></trkpt><trkpt lat="25.926588301074045" lon="-80.45304685780042"><ele>6.0</ele><time>2026-04-19T12:29:16.998Z</time></trkpt><trkpt lat="25.926670894766136" lon="-80.45296278355495"><ele>6.0</ele><time>2026-04-19T12:29:17.998Z</time></trkpt><trkpt lat="25.926755705454774" lon="-80.45287937303091"><ele>6.0</ele><time>2026-04-19T12:29:18.998Z</time></trkpt><trkpt lat="25.926842402157618" lon="-80.4527984703617"><ele>5.8</ele><time>2026-04-19T12:29:19.998Z</time></trkpt><trkpt lat="25.926928591664154" lon="-80.45271777067967"><ele>5.6</ele><time>2026-04-19T12:29:20.998Z</time></trkpt><trkpt lat="25.927012662016388" lon="-80.4526337421461"><ele>5.4</ele><time>2026-04-19T12:29:21.998Z</time></trkpt><trkpt lat="25.927096819867366" lon="-80.45255261524187"><ele>5.2</ele><time>2026-04-19T12:29:22.998Z</time></trkpt><trkpt lat="25.92718023267507" lon="-80.45247100724409"><ele>5.0</ele><time>2026-04-19T12:29:23.999Z</time></trkpt><trkpt lat="25.927262114150587" lon="-80.45239124345986"><ele>5.0</ele><time>2026-04-19T12:29:24.999Z</time></trkpt><trkpt lat="25.927343083922523" lon="-80.45231473732404"><ele>5.0</ele><time>2026-04-19T12:29:25.999Z</time></trkpt><trkpt lat="25.927427955676453" lon="-80.45224002600003"><ele>5.0</ele><time>2026-04-19T12:29:26.999Z</time></trkpt><trkpt lat="25.927514184993324" lon="-80.45216361230013"><ele>5.0</ele><time>2026-04-19T12:29:27.999Z</time></trkpt><trkpt lat="25.927598957001297" lon="-80.45208534542293"><ele>5.0</ele><time>2026-04-19T12:29:28.999Z</time></trkpt><trkpt lat="25.927684178524174" lon="-80.45200720409004"><ele>5.6</ele><time>2026-04-19T12:29:29.999Z</time></trkpt><trkpt lat="25.927771106679664" lon="-80.45193011948399"><ele>6.2</ele><time>2026-04-19T12:29:30.999Z</time></trkpt><trkpt lat="25.927855271221528" lon="-80.4518542654578"><ele>6.800000000000001</ele><time>2026-04-19T12:29:31.999Z</time></trkpt><trkpt lat="25.927936480257788" lon="-80.45177759394751"><ele>7.4</ele><time>2026-04-19T12:29:32.999Z</time></trkpt><trkpt lat="25.928020702495477" lon="-80.45170655519074"><ele>8.0</ele><time>2026-04-19T12:29:33.999Z</time></trkpt><trkpt lat="25.928102791097796" lon="-80.45163408710044"><ele>8.0</ele><time>2026-04-19T12:29:34.999Z</time></trkpt><trkpt lat="25.92818582922432" lon="-80.45155878644739"><ele>8.0</ele><time>2026-04-19T12:29:35.999Z</time></trkpt><trkpt lat="25.92826917680311" lon="-80.45148367334913"><ele>8.0</ele><time>2026-04-19T12:29:36.999Z</time></trkpt><trkpt lat="25.928352338794333" lon="-80.45141001710756"><ele>8.0</ele><time>2026-04-19T12:29:37.999Z</time></trkpt><trkpt lat="25.928435207066553" lon="-80.45133419468658"><ele>8.0</ele><time>2026-04-19T12:29:38.999Z</time></trkpt><trkpt lat="25.928516799568307" lon="-80.45125989803222"><ele>7.4</ele><time>2026-04-19T12:29:39.999Z</time></trkpt><trkpt lat="25.928600217117037" lon="-80.45118637001357"><ele>6.800000000000001</ele><time>2026-04-19T12:29:40.999Z</time></trkpt><trkpt lat="25.928681276951707" lon="-80.45111137525868"><ele>6.2</ele><time>2026-04-19T12:29:41.999Z</time></trkpt><trkpt lat="25.92876338306714" lon="-80.45103730314568"><ele>5.6</ele><time>2026-04-19T12:29:42.999Z</time></trkpt><trkpt lat="25.928848941221432" lon="-80.45096467480657"><ele>5.0</ele><time>2026-04-19T12:29:43.999Z</time></trkpt><trkpt lat="25.92893457964566" lon="-80.45089095372752"><ele>5.0</ele><time>2026-04-19T12:29:44.999Z</time></trkpt><trkpt lat="25.929019888950442" lon="-80.45081599407948"><ele>5.0</ele><time>2026-04-19T12:29:45.999Z</time></trkpt><trkpt lat="25.929107284868653" lon="-80.45073914353283"><ele>5.0</ele><time>2026-04-19T12:29:46.999Z</time></trkpt><trkpt lat="25.92919580784157" lon="-80.45065970899508"><ele>5.0</ele><time>2026-04-19T12:29:47.999Z</time></trkpt><trkpt lat="25.929284780874355" lon="-80.45057897309279"><ele>5.0</ele><time>2026-04-19T12:29:48.999Z</time></trkpt><trkpt lat="25.929372280407964" lon="-80.45049841894306"><ele>5.2</ele><time>2026-04-19T12:29:49.999Z</time></trkpt><trkpt lat="25.929458338766135" lon="-80.4504191247365"><ele>5.4</ele><time>2026-04-19T12:29:50.999Z</time></trkpt><trkpt lat="25.9295440597721" lon="-80.45034242753371"><ele>5.6</ele><time>2026-04-19T12:29:51.999Z</time></trkpt><trkpt lat="25.929626277446236" lon="-80.45026664631659"><ele>5.8</ele><time>2026-04-19T12:29:52.999Z</time></trkpt><trkpt lat="25.929707129125372" lon="-80.45019269741134"><ele>6.0</ele><time>2026-04-19T12:29:53.999Z</time></trkpt><trkpt lat="25.92978879626474" lon="-80.45011976621846"><ele>6.0</ele><time>2026-04-19T12:29:54.999Z</time></trkpt><trkpt lat="25.929869761365218" lon="-80.45004833001242"><ele>6.0</ele><time>2026-04-19T12:29:55.999Z</time></trkpt><trkpt lat="25.92995003917686" lon="-80.4499738351242"><ele>6.0</ele><time>2026-04-19T12:29:56.999Z</time></trkpt><trkpt lat="25.930032522108757" lon="-80.44989990602178"><ele>6.0</ele><time>2026-04-19T12:29:57.999Z</time></trkpt><trkpt lat="25.93011354361948" lon="-80.44982614649027"><ele>6.0</ele><time>2026-04-19T12:29:58.999Z</time></trkpt><trkpt lat="25.930193707362395" lon="-80.44975371483443"><ele>6.4</ele><time>2026-04-19T12:29:59.999Z</time></trkpt><trkpt lat="25.930275729008915" lon="-80.44968125503478"><ele>6.8</ele><time>2026-04-19T12:30:00.999Z</time></trkpt><trkpt lat="25.930354842325436" lon="-80.44960926369855"><ele>7.200000000000001</ele><time>2026-04-19T12:30:01.999Z</time></trkpt><trkpt lat="25.93043335334705" lon="-80.44953682509077"><ele>7.6000000000000005</ele><time>2026-04-19T12:30:02.999Z</time></trkpt><trkpt lat="25.930510619226396" lon="-80.44946858458772"><ele>8.0</ele><time>2026-04-19T12:30:03.999Z</time></trkpt><trkpt lat="25.930586185474553" lon="-80.44940098515528"><ele>8.0</ele><time>2026-04-19T12:30:04.999Z</time></trkpt><trkpt lat="25.93066353736136" lon="-80.44933142592593"><ele>8.0</ele><time>2026-04-19T12:30:05.999Z</time></trkpt><trkpt lat="25.930738522545266" lon="-80.44926086107853"><ele>8.0</ele><time>2026-04-19T12:30:06.999Z</time></trkpt><trkpt lat="25.930817955397366" lon="-80.44919034538684"><ele>8.0</ele><time>2026-04-19T12:30:07.999Z</time></trkpt><trkpt lat="25.93089689439106" lon="-80.44911921221221"><ele>8.0</ele><time>2026-04-19T12:30:08.999Z</time></trkpt><trkpt lat="25.93097502355727" lon="-80.44904750882611"><ele>8.200000000000001</ele><time>2026-04-19T12:30:09.999Z</time></trkpt><trkpt lat="25.931054426892523" lon="-80.44897634589535"><ele>8.4</ele><time>2026-04-19T12:30:10.999Z</time></trkpt><trkpt lat="25.931133858606533" lon="-80.44890294802296"><ele>8.600000000000001</ele><time>2026-04-19T12:30:11.999Z</time></trkpt><trkpt lat="25.931216494610695" lon="-80.44883064206772"><ele>8.8</ele><time>2026-04-19T12:30:12.999Z</time></trkpt><trkpt lat="25.9312978381238" lon="-80.44875762525578"><ele>9.0</ele><time>2026-04-19T12:30:13.999Z</time></trkpt><trkpt lat="25.93137809806947" lon="-80.44868590471638"><ele>9.0</ele><time>2026-04-19T12:30:14.999Z</time></trkpt><trkpt lat="25.931456879133147" lon="-80.44861296053435"><ele>9.0</ele><time>2026-04-19T12:30:15.999Z</time></trkpt><trkpt lat="25.931534494803365" lon="-80.44854006032263"><ele>9.0</ele><time>2026-04-19T12:30:16.999Z</time></trkpt><trkpt lat="25.931610563397918" lon="-80.44846787362846"><ele>9.0</ele><time>2026-04-19T12:30:17.999Z</time></trkpt><trkpt lat="25.931686956146223" lon="-80.44839811475778"><ele>9.0</ele><time>2026-04-19T12:30:18.999Z</time></trkpt><trkpt lat="25.931760784378213" lon="-80.44833220161475"><ele>8.8</ele><time>2026-04-19T12:30:19.999Z</time></trkpt><trkpt lat="25.93183574188019" lon="-80.44826523500633"><ele>8.600000000000001</ele><time>2026-04-19T12:30:20.999Z</time></trkpt><trkpt lat="25.931911491352995" lon="-80.44819698958679"><ele>8.4</ele><time>2026-04-19T12:30:21.999Z</time></trkpt><trkpt lat="25.931987667284584" lon="-80.44812725092093"><ele>8.200000000000001</ele><time>2026-04-19T12:30:22.999Z</time></trkpt><trkpt lat="25.93206644716203" lon="-80.44805549222836"><ele>8.0</ele><time>2026-04-19T12:30:23.999Z</time></trkpt><trkpt lat="25.93214857647493" lon="-80.44798254722063"><ele>8.0</ele><time>2026-04-19T12:30:24.999Z</time></trkpt><trkpt lat="25.93223158237722" lon="-80.447909277433"><ele>8.0</ele><time>2026-04-19T12:30:25.999Z</time></trkpt><trkpt lat="25.932313500678028" lon="-80.44783467818438"><ele>8.0</ele><time>2026-04-19T12:30:26.999Z</time></trkpt><trkpt lat="25.932397604103087" lon="-80.44775996528837"><ele>8.0</ele><time>2026-04-19T12:30:27.999Z</time></trkpt><trkpt lat="25.932480324101146" lon="-80.44768525308369"><ele>8.0</ele><time>2026-04-19T12:30:28.999Z</time></trkpt><trkpt lat="25.932564476968803" lon="-80.44760996429633"><ele>8.0</ele><time>2026-04-19T12:30:29.999Z</time></trkpt><trkpt lat="25.932645326451397" lon="-80.44753438920375"><ele>8.0</ele><time>2026-04-19T12:30:30.999Z</time></trkpt><trkpt lat="25.93273081619665" lon="-80.44745936350529"><ele>8.0</ele><time>2026-04-19T12:30:31.999Z</time></trkpt><trkpt lat="25.93281349839425" lon="-80.44738571571605"><ele>8.0</ele><time>2026-04-19T12:30:32.999Z</time></trkpt><trkpt lat="25.932894455889684" lon="-80.44731372531345"><ele>8.0</ele><time>2026-04-19T12:30:33.999Z</time></trkpt><trkpt lat="25.93297529753159" lon="-80.44724024635299"><ele>8.0</ele><time>2026-04-19T12:30:34.999Z</time></trkpt><trkpt lat="25.93305610648499" lon="-80.44716603120129"><ele>8.0</ele><time>2026-04-19T12:30:35.999Z</time></trkpt><trkpt lat="25.933136643140156" lon="-80.4470944016143"><ele>8.0</ele><time>2026-04-19T12:30:36.999Z</time></trkpt><trkpt lat="25.933214270299754" lon="-80.44702362484632"><ele>8.0</ele><time>2026-04-19T12:30:37.999Z</time></trkpt><trkpt lat="25.933291119928" lon="-80.44695368839297"><ele>8.0</ele><time>2026-04-19T12:30:38.999Z</time></trkpt><trkpt lat="25.93336561777788" lon="-80.44688530397141"><ele>8.0</ele><time>2026-04-19T12:30:39.999Z</time></trkpt><trkpt lat="25.93344028773779" lon="-80.44681556836825"><ele>8.0</ele><time>2026-04-19T12:30:40.999Z</time></trkpt><trkpt lat="25.933516025371283" lon="-80.44674415960775"><ele>8.0</ele><time>2026-04-19T12:30:41.999Z</time></trkpt><trkpt lat="25.933593060921318" lon="-80.4466767663905"><ele>8.0</ele><time>2026-04-19T12:30:42.999Z</time></trkpt><trkpt lat="25.933667755933804" lon="-80.44660920424846"><ele>8.0</ele><time>2026-04-19T12:30:43.999Z</time></trkpt><trkpt lat="25.933740654257154" lon="-80.4465419856016"><ele>8.0</ele><time>2026-04-19T12:30:44.999Z</time></trkpt><trkpt lat="25.933812996168616" lon="-80.44647831311254"><ele>8.0</ele><time>2026-04-19T12:30:45.999Z</time></trkpt><trkpt lat="25.933886075637965" lon="-80.44641424034161"><ele>8.0</ele><time>2026-04-19T12:30:46.999Z</time></trkpt><trkpt lat="25.93396080223183" lon="-80.44634807024423"><ele>8.0</ele><time>2026-04-19T12:30:47.999Z</time></trkpt><trkpt lat="25.93403423080013" lon="-80.44628071550409"><ele>8.0</ele><time>2026-04-19T12:30:48.999Z</time></trkpt><trkpt lat="25.934109025682545" lon="-80.44621593556474"><ele>8.200000000000001</ele><time>2026-04-19T12:30:49.999Z</time></trkpt><trkpt lat="25.9341881460088" lon="-80.4461503346022"><ele>8.4</ele><time>2026-04-19T12:30:50.999Z</time></trkpt><trkpt lat="25.93426374457131" lon="-80.44608109147349"><ele>8.600000000000001</ele><time>2026-04-19T12:30:51.999Z</time></trkpt><trkpt lat="25.934336544245166" lon="-80.44601454024476"><ele>8.8</ele><time>2026-04-19T12:30:52.999Z</time></trkpt><trkpt lat="25.934410068846546" lon="-80.4459512394916"><ele>9.0</ele><time>2026-04-19T12:30:53.999Z</time></trkpt><trkpt lat="25.934482292392047" lon="-80.44588785645966"><ele>9.2</ele><time>2026-04-19T12:30:54.999Z</time></trkpt><trkpt lat="25.93455693238242" lon="-80.44582325622194"><ele>9.4</ele><time>2026-04-19T12:30:55.999Z</time></trkpt><trkpt lat="25.934631195300405" lon="-80.44575844417191"><ele>9.6</ele><time>2026-04-19T12:30:56.999Z</time></trkpt><trkpt lat="25.93470360543717" lon="-80.4456938744787"><ele>9.8</ele><time>2026-04-19T12:30:57.999Z</time></trkpt><trkpt lat="25.934776150295885" lon="-80.44563089460796"><ele>10.0</ele><time>2026-04-19T12:30:58.999Z</time></trkpt><trkpt lat="25.934848305031682" lon="-80.44556629790442"><ele>10.0</ele><time>2026-04-19T12:30:59.999Z</time></trkpt><trkpt lat="25.934924116120207" lon="-80.44549955581269"><ele>10.0</ele><time>2026-04-19T12:31:00.999Z</time></trkpt><trkpt lat="25.934999462372208" lon="-80.44543181786243"><ele>10.0</ele><time>2026-04-19T12:31:01.999Z</time></trkpt><trkpt lat="25.93507699009014" lon="-80.44536504176394"><ele>10.0</ele><time>2026-04-19T12:31:02.999Z</time></trkpt><trkpt lat="25.935152826144698" lon="-80.44529741771859"><ele>10.0</ele><time>2026-04-19T12:31:03.999Z</time></trkpt><trkpt lat="25.935231792811685" lon="-80.44522953514767"><ele>10.0</ele><time>2026-04-19T12:31:04.999Z</time></trkpt><trkpt lat="25.93531186610658" lon="-80.44515974599418"><ele>10.0</ele><time>2026-04-19T12:31:05.999Z</time></trkpt><trkpt lat="25.935392870212027" lon="-80.44508789056674"><ele>10.0</ele><time>2026-04-19T12:31:06.998Z</time></trkpt><trkpt lat="25.93547572658644" lon="-80.44501855039715"><ele>10.0</ele><time>2026-04-19T12:31:07.998Z</time></trkpt><trkpt lat="25.93555866595579" lon="-80.44494840762454"><ele>10.0</ele><time>2026-04-19T12:31:08.998Z</time></trkpt><trkpt lat="25.93564170653454" lon="-80.44487656010291"><ele>10.0</ele><time>2026-04-19T12:31:09.998Z</time></trkpt><trkpt lat="25.935725296459772" lon="-80.44480500438975"><ele>10.0</ele><time>2026-04-19T12:31:10.998Z</time></trkpt><trkpt lat="25.935808059710325" lon="-80.44473136311905"><ele>10.0</ele><time>2026-04-19T12:31:11.998Z</time></trkpt><trkpt lat="25.93589057093817" lon="-80.44465952088483"><ele>10.0</ele><time>2026-04-19T12:31:12.998Z</time></trkpt><trkpt lat="25.93597254258675" lon="-80.44458648949417"><ele>10.0</ele><time>2026-04-19T12:31:13.998Z</time></trkpt><trkpt lat="25.936053502452413" lon="-80.44451356114723"><ele>9.8</ele><time>2026-04-19T12:31:14.998Z</time></trkpt><trkpt lat="25.93613754217543" lon="-80.44444122303018"><ele>9.6</ele><time>2026-04-19T12:31:15.998Z</time></trkpt><trkpt lat="25.93622110754918" lon="-80.44437103178669"><ele>9.4</ele><time>2026-04-19T12:31:16.998Z</time></trkpt><trkpt lat="25.936305440764716" lon="-80.44429672217645"><ele>9.2</ele><time>2026-04-19T12:31:17.998Z</time></trkpt><trkpt lat="25.936389514949862" lon="-80.44421995966239"><ele>9.0</ele><time>2026-04-19T12:31:18.998Z</time></trkpt><trkpt lat="25.936471867157174" lon="-80.44414135127346"><ele>9.0</ele><time>2026-04-19T12:31:19.998Z</time></trkpt><trkpt lat="25.936555884305612" lon="-80.44406411125155"><ele>9.0</ele><time>2026-04-19T12:31:20.998Z</time></trkpt><trkpt lat="25.936639271044083" lon="-80.44398777898105"><ele>9.0</ele><time>2026-04-19T12:31:21.998Z</time></trkpt><trkpt lat="25.93672367817094" lon="-80.44390990714273"><ele>9.0</ele><time>2026-04-19T12:31:22.998Z</time></trkpt><trkpt lat="25.936806723138954" lon="-80.44383457908194"><ele>9.0</ele><time>2026-04-19T12:31:23.998Z</time></trkpt><trkpt lat="25.93689056663844" lon="-80.44375958208855"><ele>8.8</ele><time>2026-04-19T12:31:24.998Z</time></trkpt><trkpt lat="25.93697643249355" lon="-80.44368351698049"><ele>8.600000000000001</ele><time>2026-04-19T12:31:25.998Z</time></trkpt><trkpt lat="25.93705911555801" lon="-80.44360651827388"><ele>8.4</ele><time>2026-04-19T12:31:26.998Z</time></trkpt><trkpt lat="25.937142086811917" lon="-80.4435276491619"><ele>8.200000000000001</ele><time>2026-04-19T12:31:27.998Z</time></trkpt><trkpt lat="25.937226033635376" lon="-80.44345258382147"><ele>8.0</ele><time>2026-04-19T12:31:28.998Z</time></trkpt><trkpt lat="25.937312397450444" lon="-80.4433763158976"><ele>8.0</ele><time>2026-04-19T12:31:29.999Z</time></trkpt><trkpt lat="25.937395530104126" lon="-80.44329584593295"><ele>8.0</ele><time>2026-04-19T12:31:30.999Z</time></trkpt><trkpt lat="25.93747722429136" lon="-80.44321360005857"><ele>8.0</ele><time>2026-04-19T12:31:31.999Z</time></trkpt><trkpt lat="25.93755924602458" lon="-80.44313227856773"><ele>8.0</ele><time>2026-04-19T12:31:32.999Z</time></trkpt><trkpt lat="25.937643741521935" lon="-80.44305454264357"><ele>8.0</ele><time>2026-04-19T12:31:33.999Z</time></trkpt><trkpt lat="25.937727290860913" lon="-80.44298050010848"><ele>8.4</ele><time>2026-04-19T12:31:34.999Z</time></trkpt><trkpt lat="25.937809551638548" lon="-80.4429064060955"><ele>8.8</ele><time>2026-04-19T12:31:35.999Z</time></trkpt><trkpt lat="25.937887983431725" lon="-80.44283506794604"><ele>9.2</ele><time>2026-04-19T12:31:36.999Z</time></trkpt><trkpt lat="25.937964523528137" lon="-80.4427656250114"><ele>9.6</ele><time>2026-04-19T12:31:37.999Z</time></trkpt><trkpt lat="25.938042361519848" lon="-80.44269668476812"><ele>10.0</ele><time>2026-04-19T12:31:38.999Z</time></trkpt><trkpt lat="25.938116862866615" lon="-80.44262860936729"><ele>10.0</ele><time>2026-04-19T12:31:39.999Z</time></trkpt><trkpt lat="25.938190255587582" lon="-80.44256180420578"><ele>10.0</ele><time>2026-04-19T12:31:40.999Z</time></trkpt><trkpt lat="25.938263103120676" lon="-80.44249501654171"><ele>10.0</ele><time>2026-04-19T12:31:41.999Z</time></trkpt><trkpt lat="25.93833975112244" lon="-80.44242627663253"><ele>10.0</ele><time>2026-04-19T12:31:42.999Z</time></trkpt><trkpt lat="25.938416179593894" lon="-80.44235728462004"><ele>10.0</ele><time>2026-04-19T12:31:43.999Z</time></trkpt><trkpt lat="25.93848886077577" lon="-80.44228936337139"><ele>9.833333333333334</ele><time>2026-04-19T12:31:44.999Z</time></trkpt><trkpt lat="25.93855894530829" lon="-80.44222557277631"><ele>9.666666666666668</ele><time>2026-04-19T12:31:45.999Z</time></trkpt><trkpt lat="25.938627802553857" lon="-80.44216404344897"><ele>9.5</ele><time>2026-04-19T12:31:46.999Z</time></trkpt><trkpt lat="25.938694688107443" lon="-80.44210350680802"><ele>9.333333333333334</ele><time>2026-04-19T12:31:47.999Z</time></trkpt><trkpt lat="25.938757483845396" lon="-80.44204688594566"><ele>9.166666666666666</ele><time>2026-04-19T12:31:48.999Z</time></trkpt><trkpt lat="25.93881274189703" lon="-80.44199786892219"><ele>9.0</ele><time>2026-04-19T12:31:49.999Z</time></trkpt><trkpt lat="25.93886592591699" lon="-80.44194984886171"><ele>9.0</ele><time>2026-04-19T12:31:50.999Z</time></trkpt><trkpt lat="25.938919435585397" lon="-80.44191050797184"><ele>9.0</ele><time>2026-04-19T12:31:51.999Z</time></trkpt><trkpt lat="25.939028598747928" lon="-80.44188334634327"><ele>9.0</ele><time>2026-04-19T12:31:53.999Z</time></trkpt><trkpt lat="25.939079365392068" lon="-80.44208814658376"><ele>9.0</ele><time>2026-04-19T12:31:57.999Z</time></trkpt><trkpt lat="25.93902195157055" lon="-80.44214093427951"><ele>9.0</ele><time>2026-04-19T12:31:58.999Z</time></trkpt><trkpt lat="25.938961946122006" lon="-80.44219610478997"><ele>9.0</ele><time>2026-04-19T12:31:59.999Z</time></trkpt><trkpt lat="25.938899255539926" lon="-80.4422531110554"><ele>9.0</ele><time>2026-04-19T12:32:00.999Z</time></trkpt><trkpt lat="25.93883227721402" lon="-80.44231407281966"><ele>9.0</ele><time>2026-04-19T12:32:01.999Z</time></trkpt><trkpt lat="25.938763580228656" lon="-80.44237659886315"><ele>9.0</ele><time>2026-04-19T12:32:02.999Z</time></trkpt><trkpt lat="25.9386944846041" lon="-80.44243948773307"><ele>9.0</ele><time>2026-04-19T12:32:03.999Z</time></trkpt><trkpt lat="25.93861372772488" lon="-80.44251299034345"><ele>9.0</ele><time>2026-04-19T12:32:04.999Z</time></trkpt><trkpt lat="25.938547011364648" lon="-80.44257721813229"><ele>9.0</ele><time>2026-04-19T12:32:05.999Z</time></trkpt><trkpt lat="25.938467073222935" lon="-80.44264482106001"><ele>9.0</ele><time>2026-04-19T12:32:06.999Z</time></trkpt><trkpt lat="25.938387036150306" lon="-80.4427175009457"><ele>9.0</ele><time>2026-04-19T12:32:07.999Z</time></trkpt><trkpt lat="25.938306100556293" lon="-80.44278790466694"><ele>9.0</ele><time>2026-04-19T12:32:08.999Z</time></trkpt><trkpt lat="25.938223079053294" lon="-80.44286002590614"><ele>9.2</ele><time>2026-04-19T12:32:09.999Z</time></trkpt><trkpt lat="25.938140294279837" lon="-80.44293270547716"><ele>9.4</ele><time>2026-04-19T12:32:10.999Z</time></trkpt><trkpt lat="25.93805784821331" lon="-80.4430063003576"><ele>9.6</ele><time>2026-04-19T12:32:11.999Z</time></trkpt><trkpt lat="25.937976493171863" lon="-80.44307932300399"><ele>9.8</ele><time>2026-04-19T12:32:12.999Z</time></trkpt><trkpt lat="25.93789397464324" lon="-80.443153315725"><ele>10.0</ele><time>2026-04-19T12:32:13.999Z</time></trkpt><trkpt lat="25.93781337600038" lon="-80.44322556576383"><ele>9.6</ele><time>2026-04-19T12:32:14.999Z</time></trkpt><trkpt lat="25.937734568050296" lon="-80.44329790414892"><ele>9.2</ele><time>2026-04-19T12:32:15.999Z</time></trkpt><trkpt lat="25.93765725104806" lon="-80.44337006078476"><ele>8.8</ele><time>2026-04-19T12:32:16.999Z</time></trkpt><trkpt lat="25.937581132477867" lon="-80.44344346171245"><ele>8.4</ele><time>2026-04-19T12:32:17.999Z</time></trkpt><trkpt lat="25.937507322743247" lon="-80.4435156325469"><ele>8.0</ele><time>2026-04-19T12:32:18.999Z</time></trkpt><trkpt lat="25.93743382030802" lon="-80.44358392606017"><ele>8.0</ele><time>2026-04-19T12:32:19.999Z</time></trkpt><trkpt lat="25.937357985896558" lon="-80.44365033877031"><ele>8.0</ele><time>2026-04-19T12:32:20.999Z</time></trkpt><trkpt lat="25.937281260031593" lon="-80.44371761658401"><ele>8.0</ele><time>2026-04-19T12:32:21.999Z</time></trkpt><trkpt lat="25.937208054933077" lon="-80.44378420511109"><ele>8.0</ele><time>2026-04-19T12:32:22.999Z</time></trkpt><trkpt lat="25.9371369617368" lon="-80.44384901891642"><ele>8.0</ele><time>2026-04-19T12:32:23.999Z</time></trkpt><trkpt lat="25.93706684318219" lon="-80.44390916429481"><ele>8.0</ele><time>2026-04-19T12:32:24.999Z</time></trkpt><trkpt lat="25.936994077601355" lon="-80.4439728607664"><ele>8.0</ele><time>2026-04-19T12:32:25.999Z</time></trkpt><trkpt lat="25.936921798382766" lon="-80.44403731331991"><ele>8.0</ele><time>2026-04-19T12:32:26.999Z</time></trkpt><trkpt lat="25.93685101671562" lon="-80.44410394329977"><ele>8.0</ele><time>2026-04-19T12:32:27.999Z</time></trkpt><trkpt lat="25.93677705452119" lon="-80.44416720384574"><ele>8.0</ele><time>2026-04-19T12:32:28.999Z</time></trkpt><trkpt lat="25.936705340647897" lon="-80.44423339462224"><ele>8.200000000000001</ele><time>2026-04-19T12:32:29.999Z</time></trkpt><trkpt lat="25.93663387876629" lon="-80.4442990268654"><ele>8.4</ele><time>2026-04-19T12:32:30.999Z</time></trkpt><trkpt lat="25.936561430834075" lon="-80.44436504016038"><ele>8.600000000000001</ele><time>2026-04-19T12:32:31.999Z</time></trkpt><trkpt lat="25.93648646644317" lon="-80.44443142776572"><ele>8.8</ele><time>2026-04-19T12:32:32.999Z</time></trkpt><trkpt lat="25.93641104414294" lon="-80.44449819836709"><ele>9.0</ele><time>2026-04-19T12:32:33.999Z</time></trkpt><trkpt lat="25.936337219449413" lon="-80.44456858311361"><ele>9.0</ele><time>2026-04-19T12:32:34.999Z</time></trkpt><trkpt lat="25.936259846645132" lon="-80.44463740819967"><ele>9.0</ele><time>2026-04-19T12:32:35.999Z</time></trkpt><trkpt lat="25.936183470268226" lon="-80.44470515491066"><ele>9.0</ele><time>2026-04-19T12:32:36.999Z</time></trkpt><trkpt lat="25.93610753110154" lon="-80.44477292458014"><ele>9.0</ele><time>2026-04-19T12:32:37.999Z</time></trkpt><trkpt lat="25.93603360135942" lon="-80.44484121926187"><ele>9.0</ele><time>2026-04-19T12:32:39Z</time></trkpt><trkpt lat="25.935958565685326" lon="-80.44490723375375"><ele>9.2</ele><time>2026-04-19T12:32:40Z</time></trkpt><trkpt lat="25.935884522035074" lon="-80.44497572066652"><ele>9.4</ele><time>2026-04-19T12:32:41Z</time></trkpt><trkpt lat="25.93580858631823" lon="-80.445045453351"><ele>9.6</ele><time>2026-04-19T12:32:42Z</time></trkpt><trkpt lat="25.93573237817106" lon="-80.44511465554595"><ele>9.8</ele><time>2026-04-19T12:32:43Z</time></trkpt><trkpt lat="25.935655362892586" lon="-80.445183704403"><ele>10.0</ele><time>2026-04-19T12:32:44Z</time></trkpt><trkpt lat="25.935577936447423" lon="-80.44525364078405"><ele>10.0</ele><time>2026-04-19T12:32:45Z</time></trkpt><trkpt lat="25.93549967397951" lon="-80.44532438145345"><ele>10.0</ele><time>2026-04-19T12:32:46Z</time></trkpt><trkpt lat="25.935419506292394" lon="-80.44539328832283"><ele>10.0</ele><time>2026-04-19T12:32:47Z</time></trkpt><trkpt lat="25.935338123091217" lon="-80.44546131336182"><ele>10.0</ele><time>2026-04-19T12:32:48Z</time></trkpt><trkpt lat="25.935256935862636" lon="-80.4455304461788"><ele>10.0</ele><time>2026-04-19T12:32:49Z</time></trkpt><trkpt lat="25.935176670894464" lon="-80.44560191014105"><ele>10.0</ele><time>2026-04-19T12:32:50Z</time></trkpt><trkpt lat="25.935096429195603" lon="-80.44567156165472"><ele>10.0</ele><time>2026-04-19T12:32:51Z</time></trkpt><trkpt lat="25.935019025469973" lon="-80.44574105570699"><ele>10.0</ele><time>2026-04-19T12:32:52Z</time></trkpt><trkpt lat="25.934940728696205" lon="-80.44580826028327"><ele>10.0</ele><time>2026-04-19T12:32:53Z</time></trkpt><trkpt lat="25.934864418511868" lon="-80.44587565851785"><ele>10.0</ele><time>2026-04-19T12:32:54Z</time></trkpt><trkpt lat="25.93478760682907" lon="-80.44594172909005"><ele>10.0</ele><time>2026-04-19T12:32:55Z</time></trkpt><trkpt lat="25.93471299977754" lon="-80.44600820200543"><ele>10.0</ele><time>2026-04-19T12:32:56Z</time></trkpt><trkpt lat="25.934636192703884" lon="-80.44607606300414"><ele>10.0</ele><time>2026-04-19T12:32:57Z</time></trkpt><trkpt lat="25.93455869223942" lon="-80.44614661996543"><ele>10.0</ele><time>2026-04-19T12:32:58Z</time></trkpt><trkpt lat="25.93447969768416" lon="-80.4462161079116"><ele>10.0</ele><time>2026-04-19T12:32:59Z</time></trkpt><trkpt lat="25.934401977229914" lon="-80.44628330924363"><ele>9.6</ele><time>2026-04-19T12:33:00Z</time></trkpt><trkpt lat="25.934324907889273" lon="-80.44635152472"><ele>9.2</ele><time>2026-04-19T12:33:01Z</time></trkpt><trkpt lat="25.934249696572753" lon="-80.44641998171976"><ele>8.8</ele><time>2026-04-19T12:33:02Z</time></trkpt><trkpt lat="25.934175775711502" lon="-80.4464840214348"><ele>8.4</ele><time>2026-04-19T12:33:03Z</time></trkpt><trkpt lat="25.9340991056967" lon="-80.44654715515216"><ele>8.0</ele><time>2026-04-19T12:33:04Z</time></trkpt><trkpt lat="25.934023636596322" lon="-80.4466152872973"><ele>8.0</ele><time>2026-04-19T12:33:05Z</time></trkpt><trkpt lat="25.93394870146839" lon="-80.446685716727"><ele>8.0</ele><time>2026-04-19T12:33:06Z</time></trkpt><trkpt lat="25.933870616713392" lon="-80.446755332249"><ele>8.0</ele><time>2026-04-19T12:33:07Z</time></trkpt><trkpt lat="25.933791324757912" lon="-80.44682307114238"><ele>8.0</ele><time>2026-04-19T12:33:08Z</time></trkpt><trkpt lat="25.933710597956267" lon="-80.44689248583937"><ele>8.0</ele><time>2026-04-19T12:33:09Z</time></trkpt><trkpt lat="25.933631454469865" lon="-80.44696399279334"><ele>8.0</ele><time>2026-04-19T12:33:10Z</time></trkpt><trkpt lat="25.933553337614807" lon="-80.44703399887631"><ele>8.0</ele><time>2026-04-19T12:33:11Z</time></trkpt><trkpt lat="25.93347776671105" lon="-80.44710452056383"><ele>8.0</ele><time>2026-04-19T12:33:12Z</time></trkpt><trkpt lat="25.933401793485547" lon="-80.4471721323667"><ele>8.0</ele><time>2026-04-19T12:33:13Z</time></trkpt><trkpt lat="25.933327814552246" lon="-80.44723943485165"><ele>8.0</ele><time>2026-04-19T12:33:13.999Z</time></trkpt><trkpt lat="25.933250692393187" lon="-80.44730694472793"><ele>8.0</ele><time>2026-04-19T12:33:14.999Z</time></trkpt><trkpt lat="25.933173177228145" lon="-80.44737635742203"><ele>8.0</ele><time>2026-04-19T12:33:15.999Z</time></trkpt><trkpt lat="25.933096174364884" lon="-80.44744816727284"><ele>8.0</ele><time>2026-04-19T12:33:16.999Z</time></trkpt><trkpt lat="25.933018341484132" lon="-80.44752114336154"><ele>8.0</ele><time>2026-04-19T12:33:17.999Z</time></trkpt><trkpt lat="25.932938010951744" lon="-80.4475938765247"><ele>8.0</ele><time>2026-04-19T12:33:18.999Z</time></trkpt><trkpt lat="25.932857215571143" lon="-80.44766464471208"><ele>8.0</ele><time>2026-04-19T12:33:19.999Z</time></trkpt><trkpt lat="25.932777235700833" lon="-80.44773657824513"><ele>8.0</ele><time>2026-04-19T12:33:20.999Z</time></trkpt><trkpt lat="25.932696638788578" lon="-80.44780833845327"><ele>8.0</ele><time>2026-04-19T12:33:21.999Z</time></trkpt><trkpt lat="25.93261838436863" lon="-80.44787970195374"><ele>8.0</ele><time>2026-04-19T12:33:22.999Z</time></trkpt><trkpt lat="25.93253891734719" lon="-80.44795493601221"><ele>8.0</ele><time>2026-04-19T12:33:23.999Z</time></trkpt><trkpt lat="25.932458358560904" lon="-80.44802985494842"><ele>8.0</ele><time>2026-04-19T12:33:24.999Z</time></trkpt><trkpt lat="25.932374318734684" lon="-80.44810161572975"><ele>8.0</ele><time>2026-04-19T12:33:25.999Z</time></trkpt><trkpt lat="25.932287809033056" lon="-80.44817351153827"><ele>8.0</ele><time>2026-04-19T12:33:26.999Z</time></trkpt><trkpt lat="25.932203465608477" lon="-80.44824920360504"><ele>8.0</ele><time>2026-04-19T12:33:27.999Z</time></trkpt><trkpt lat="25.93211923863422" lon="-80.44832577907641"><ele>8.0</ele><time>2026-04-19T12:33:28.999Z</time></trkpt><trkpt lat="25.932035150630682" lon="-80.44840348865078"><ele>8.0</ele><time>2026-04-19T12:33:29.999Z</time></trkpt><trkpt lat="25.93195066755871" lon="-80.44847962288576"><ele>8.0</ele><time>2026-04-19T12:33:30.999Z</time></trkpt><trkpt lat="25.931865329973572" lon="-80.44855562302888"><ele>8.0</ele><time>2026-04-19T12:33:31.999Z</time></trkpt><trkpt lat="25.931780445583616" lon="-80.44863138015326"><ele>8.0</ele><time>2026-04-19T12:33:32.999Z</time></trkpt><trkpt lat="25.931696251439615" lon="-80.44870665926877"><ele>8.0</ele><time>2026-04-19T12:33:33.999Z</time></trkpt><trkpt lat="25.93161277289714" lon="-80.44878265322738"><ele>8.200000000000001</ele><time>2026-04-19T12:33:35Z</time></trkpt><trkpt lat="25.931529793520383" lon="-80.44886042930294"><ele>8.4</ele><time>2026-04-19T12:33:36Z</time></trkpt><trkpt lat="25.93144600357098" lon="-80.44893644420421"><ele>8.600000000000001</ele><time>2026-04-19T12:33:37Z</time></trkpt><trkpt lat="25.93136164863691" lon="-80.44901309229157"><ele>8.8</ele><time>2026-04-19T12:33:38Z</time></trkpt><trkpt lat="25.93127800719141" lon="-80.44908901621687"><ele>9.0</ele><time>2026-04-19T12:33:39Z</time></trkpt><trkpt lat="25.931193468507303" lon="-80.44916513695615"><ele>9.0</ele><time>2026-04-19T12:33:40Z</time></trkpt><trkpt lat="25.93110986043305" lon="-80.44924233129755"><ele>9.0</ele><time>2026-04-19T12:33:41Z</time></trkpt><trkpt lat="25.931027464174168" lon="-80.44931725437715"><ele>9.0</ele><time>2026-04-19T12:33:42Z</time></trkpt><trkpt lat="25.930945752218125" lon="-80.44939251156586"><ele>9.0</ele><time>2026-04-19T12:33:43Z</time></trkpt><trkpt lat="25.930862274928746" lon="-80.4494692315852"><ele>9.0</ele><time>2026-04-19T12:33:44Z</time></trkpt><trkpt lat="25.930776944076747" lon="-80.44954437471074"><ele>9.0</ele><time>2026-04-19T12:33:45Z</time></trkpt><trkpt lat="25.930690990613975" lon="-80.4496200437521"><ele>9.0</ele><time>2026-04-19T12:33:46Z</time></trkpt><trkpt lat="25.93060651543259" lon="-80.44969842208866"><ele>9.0</ele><time>2026-04-19T12:33:47Z</time></trkpt><trkpt lat="25.930521670833947" lon="-80.44977697143044"><ele>9.0</ele><time>2026-04-19T12:33:48Z</time></trkpt><trkpt lat="25.93043575928457" lon="-80.44985588950466"><ele>9.0</ele><time>2026-04-19T12:33:49Z</time></trkpt><trkpt lat="25.930351288259942" lon="-80.4499332152699"><ele>9.0</ele><time>2026-04-19T12:33:50Z</time></trkpt><trkpt lat="25.930265989142754" lon="-80.45001102350616"><ele>9.0</ele><time>2026-04-19T12:33:51Z</time></trkpt><trkpt lat="25.930180466851386" lon="-80.45008659766363"><ele>9.0</ele><time>2026-04-19T12:33:52Z</time></trkpt><trkpt lat="25.930095974853664" lon="-80.45016225484578"><ele>9.0</ele><time>2026-04-19T12:33:53Z</time></trkpt><trkpt lat="25.930011398096237" lon="-80.45023751606846"><ele>9.0</ele><time>2026-04-19T12:33:54Z</time></trkpt><trkpt lat="25.9299246692853" lon="-80.45031177187634"><ele>8.4</ele><time>2026-04-19T12:33:55Z</time></trkpt><trkpt lat="25.9298401047212" lon="-80.45038853925868"><ele>7.800000000000001</ele><time>2026-04-19T12:33:56Z</time></trkpt><trkpt lat="25.92975639557349" lon="-80.45046861962308"><ele>7.199999999999999</ele><time>2026-04-19T12:33:57Z</time></trkpt><trkpt lat="25.9296697467074" lon="-80.45054605363765"><ele>6.6</ele><time>2026-04-19T12:33:58Z</time></trkpt><trkpt lat="25.92958335169525" lon="-80.45062501257354"><ele>6.0</ele><time>2026-04-19T12:33:59Z</time></trkpt><trkpt lat="25.92950026739787" lon="-80.45070306698987"><ele>6.0</ele><time>2026-04-19T12:34:00Z</time></trkpt><trkpt lat="25.929416677094" lon="-80.45077874416236"><ele>6.0</ele><time>2026-04-19T12:34:01Z</time></trkpt><trkpt lat="25.929333036912997" lon="-80.45085057594883"><ele>6.0</ele><time>2026-04-19T12:34:02Z</time></trkpt><trkpt lat="25.92924983035661" lon="-80.45092355100704"><ele>6.0</ele><time>2026-04-19T12:34:03Z</time></trkpt><trkpt lat="25.92916650909611" lon="-80.45100102066105"><ele>6.0</ele><time>2026-04-19T12:34:04Z</time></trkpt><trkpt lat="25.929083028243816" lon="-80.45107661680694"><ele>5.8</ele><time>2026-04-19T12:34:05Z</time></trkpt><trkpt lat="25.92899914842654" lon="-80.45115409787422"><ele>5.6</ele><time>2026-04-19T12:34:06Z</time></trkpt><trkpt lat="25.928914092388418" lon="-80.45122590623991"><ele>5.4</ele><time>2026-04-19T12:34:07Z</time></trkpt><trkpt lat="25.928831586428046" lon="-80.45130066342978"><ele>5.2</ele><time>2026-04-19T12:34:08Z</time></trkpt><trkpt lat="25.928748253175414" lon="-80.45137545949635"><ele>5.0</ele><time>2026-04-19T12:34:09Z</time></trkpt><trkpt lat="25.928665370554437" lon="-80.4514541536877"><ele>4.6</ele><time>2026-04-19T12:34:10Z</time></trkpt><trkpt lat="25.92858195199435" lon="-80.45153130743694"><ele>4.2</ele><time>2026-04-19T12:34:11Z</time></trkpt><trkpt lat="25.92849824964393" lon="-80.45160794482821"><ele>3.8</ele><time>2026-04-19T12:34:12Z</time></trkpt><trkpt lat="25.928413609880288" lon="-80.45168579773075"><ele>3.4</ele><time>2026-04-19T12:34:13Z</time></trkpt><trkpt lat="25.92832874646906" lon="-80.45176439891702"><ele>3.0</ele><time>2026-04-19T12:34:14Z</time></trkpt><trkpt lat="25.92824319543866" lon="-80.45184125457996"><ele>3.2</ele><time>2026-04-19T12:34:15Z</time></trkpt><trkpt lat="25.928158173099696" lon="-80.45191695171967"><ele>3.4</ele><time>2026-04-19T12:34:16Z</time></trkpt><trkpt lat="25.928073239041034" lon="-80.45199370949365"><ele>3.6000000000000005</ele><time>2026-04-19T12:34:17Z</time></trkpt><trkpt lat="25.92798734578042" lon="-80.4520689276177"><ele>3.8000000000000003</ele><time>2026-04-19T12:34:18Z</time></trkpt><trkpt lat="25.927901566218797" lon="-80.45214601264551"><ele>4.0</ele><time>2026-04-19T12:34:19Z</time></trkpt><trkpt lat="25.92781456773391" lon="-80.45222285467294"><ele>4.0</ele><time>2026-04-19T12:34:20Z</time></trkpt><trkpt lat="25.927732421324095" lon="-80.45230063516935"><ele>4.0</ele><time>2026-04-19T12:34:21Z</time></trkpt><trkpt lat="25.927648700640013" lon="-80.45238011337909"><ele>4.0</ele><time>2026-04-19T12:34:22Z</time></trkpt><trkpt lat="25.927564527780113" lon="-80.45245980833117"><ele>4.0</ele><time>2026-04-19T12:34:23Z</time></trkpt><trkpt lat="25.92747823286263" lon="-80.45253760410895"><ele>4.0</ele><time>2026-04-19T12:34:24Z</time></trkpt><trkpt lat="25.92739002069375" lon="-80.45261399448864"><ele>4.2</ele><time>2026-04-19T12:34:25Z</time></trkpt><trkpt lat="25.92730312726453" lon="-80.45269346732255"><ele>4.4</ele><time>2026-04-19T12:34:26Z</time></trkpt><trkpt lat="25.927214851941716" lon="-80.45277067209672"><ele>4.6</ele><time>2026-04-19T12:34:27Z</time></trkpt><trkpt lat="25.927128135331824" lon="-80.4528493104157"><ele>4.8</ele><time>2026-04-19T12:34:28Z</time></trkpt><trkpt lat="25.92704135172428" lon="-80.45292934299141"><ele>5.0</ele><time>2026-04-19T12:34:29Z</time></trkpt><trkpt lat="25.926953048295353" lon="-80.45300928813876"><ele>5.2</ele><time>2026-04-19T12:34:30Z</time></trkpt><trkpt lat="25.926866126200277" lon="-80.45308878413977"><ele>5.4</ele><time>2026-04-19T12:34:31Z</time></trkpt><trkpt lat="25.926777227805132" lon="-80.4531674123846"><ele>5.6</ele><time>2026-04-19T12:34:32Z</time></trkpt><trkpt lat="25.926690212134" lon="-80.4532439397708"><ele>5.8</ele><time>2026-04-19T12:34:33Z</time></trkpt><trkpt lat="25.92660556731608" lon="-80.45332041983403"><ele>6.0</ele><time>2026-04-19T12:34:34Z</time></trkpt><trkpt lat="25.92652320359972" lon="-80.4533976262518"><ele>6.0</ele><time>2026-04-19T12:34:35Z</time></trkpt><trkpt lat="25.926440947893504" lon="-80.45347463381158"><ele>6.0</ele><time>2026-04-19T12:34:36Z</time></trkpt><trkpt lat="25.926356197259775" lon="-80.45355069453755"><ele>6.0</ele><time>2026-04-19T12:34:37Z</time></trkpt><trkpt lat="25.926272715366373" lon="-80.45362693127379"><ele>6.0</ele><time>2026-04-19T12:34:38Z</time></trkpt><trkpt lat="25.926188473570217" lon="-80.45370253082037"><ele>6.0</ele><time>2026-04-19T12:34:39Z</time></trkpt><trkpt lat="25.926103979735736" lon="-80.45377587454871"><ele>6.0</ele><time>2026-04-19T12:34:40Z</time></trkpt><trkpt lat="25.926023219761603" lon="-80.45385157824776"><ele>6.0</ele><time>2026-04-19T12:34:41Z</time></trkpt><trkpt lat="25.92594122189995" lon="-80.45392735422804"><ele>6.0</ele><time>2026-04-19T12:34:42Z</time></trkpt><trkpt lat="25.925857442922936" lon="-80.45399965983495"><ele>6.0</ele><time>2026-04-19T12:34:43Z</time></trkpt><trkpt lat="25.925776563238536" lon="-80.4540748063785"><ele>6.0</ele><time>2026-04-19T12:34:44Z</time></trkpt><trkpt lat="25.92569471054007" lon="-80.45414820194641"><ele>6.0</ele><time>2026-04-19T12:34:45Z</time></trkpt><trkpt lat="25.925613680329132" lon="-80.45422276921245"><ele>6.0</ele><time>2026-04-19T12:34:46Z</time></trkpt><trkpt lat="25.92553168498107" lon="-80.45429460567743"><ele>6.0</ele><time>2026-04-19T12:34:47Z</time></trkpt><trkpt lat="25.925448923009117" lon="-80.4543691289886"><ele>6.0</ele><time>2026-04-19T12:34:48Z</time></trkpt><trkpt lat="25.925366901720416" lon="-80.45444512593245"><ele>6.0</ele><time>2026-04-19T12:34:49Z</time></trkpt><trkpt lat="25.925282973162687" lon="-80.45451994021187"><ele>6.0</ele><time>2026-04-19T12:34:50Z</time></trkpt><trkpt lat="25.92520019926748" lon="-80.45459645552958"><ele>6.0</ele><time>2026-04-19T12:34:51Z</time></trkpt><trkpt lat="25.925116312950067" lon="-80.45467054769897"><ele>6.0</ele><time>2026-04-19T12:34:52Z</time></trkpt><trkpt lat="25.92503101696428" lon="-80.45474487199884"><ele>6.0</ele><time>2026-04-19T12:34:53Z</time></trkpt><trkpt lat="25.924946973577832" lon="-80.45482085718741"><ele>6.0</ele><time>2026-04-19T12:34:54Z</time></trkpt><trkpt lat="25.924863416394913" lon="-80.45489801977328"><ele>6.199999999999999</ele><time>2026-04-19T12:34:55Z</time></trkpt><trkpt lat="25.924779057265763" lon="-80.45497465149325"><ele>6.3999999999999995</ele><time>2026-04-19T12:34:56Z</time></trkpt><trkpt lat="25.92469598276016" lon="-80.45505090236934"><ele>6.6</ele><time>2026-04-19T12:34:57Z</time></trkpt><trkpt lat="25.924609997153038" lon="-80.45512670215655"><ele>6.8</ele><time>2026-04-19T12:34:58Z</time></trkpt><trkpt lat="25.92452787065305" lon="-80.45520261747248"><ele>7.0</ele><time>2026-04-19T12:34:59Z</time></trkpt><trkpt lat="25.924447629938204" lon="-80.45527794725695"><ele>7.0</ele><time>2026-04-19T12:35:00Z</time></trkpt><trkpt lat="25.92436707139817" lon="-80.45535432177194"><ele>6.999999999999999</ele><time>2026-04-19T12:35:01Z</time></trkpt><trkpt lat="25.924287195938756" lon="-80.45543333265823"><ele>6.999999999999999</ele><time>2026-04-19T12:35:02Z</time></trkpt><trkpt lat="25.92421072795237" lon="-80.45551364868413"><ele>7.0</ele><time>2026-04-19T12:35:03Z</time></trkpt><trkpt lat="25.924130829351462" lon="-80.45558823294442"><ele>7.0</ele><time>2026-04-19T12:35:04Z</time></trkpt><trkpt lat="25.924050695042453" lon="-80.4556588684058"><ele>6.8</ele><time>2026-04-19T12:35:05Z</time></trkpt><trkpt lat="25.923970490078002" lon="-80.45573067128032"><ele>6.6</ele><time>2026-04-19T12:35:06Z</time></trkpt><trkpt lat="25.92388795396667" lon="-80.4558030964024"><ele>6.3999999999999995</ele><time>2026-04-19T12:35:07Z</time></trkpt><trkpt lat="25.923807206488906" lon="-80.45587531975454"><ele>6.199999999999999</ele><time>2026-04-19T12:35:08Z</time></trkpt><trkpt lat="25.923726248991503" lon="-80.45594724036143"><ele>6.0</ele><time>2026-04-19T12:35:09Z</time></trkpt><trkpt lat="25.923646591070955" lon="-80.45602035509337"><ele>6.0</ele><time>2026-04-19T12:35:10Z</time></trkpt><trkpt lat="25.92357143895637" lon="-80.45609334039425"><ele>6.0</ele><time>2026-04-19T12:35:11Z</time></trkpt><trkpt lat="25.92349440794124" lon="-80.45616439327665"><ele>6.0</ele><time>2026-04-19T12:35:12Z</time></trkpt><trkpt lat="25.92341928557818" lon="-80.4562339317814"><ele>6.0</ele><time>2026-04-19T12:35:13Z</time></trkpt><trkpt lat="25.923343233848986" lon="-80.45630299920258"><ele>6.0</ele><time>2026-04-19T12:35:14Z</time></trkpt><trkpt lat="25.923268259565724" lon="-80.45637098910443"><ele>5.6</ele><time>2026-04-19T12:35:15Z</time></trkpt><trkpt lat="25.923193831274936" lon="-80.45643855277913"><ele>5.199999999999999</ele><time>2026-04-19T12:35:16Z</time></trkpt><trkpt lat="25.923118333297133" lon="-80.45650729423986"><ele>4.800000000000001</ele><time>2026-04-19T12:35:17Z</time></trkpt><trkpt lat="25.92304481737316" lon="-80.45657556900036"><ele>4.4</ele><time>2026-04-19T12:35:17.999Z</time></trkpt><trkpt lat="25.9229704102192" lon="-80.4566419855238"><ele>4.0</ele><time>2026-04-19T12:35:18.999Z</time></trkpt><trkpt lat="25.922896834575766" lon="-80.45670361436665"><ele>4.0</ele><time>2026-04-19T12:35:19.999Z</time></trkpt><trkpt lat="25.922822979119054" lon="-80.45676822799008"><ele>4.0</ele><time>2026-04-19T12:35:20.999Z</time></trkpt><trkpt lat="25.92274804101169" lon="-80.45683425188814"><ele>4.0</ele><time>2026-04-19T12:35:21.999Z</time></trkpt><trkpt lat="25.92267371867765" lon="-80.45690428941374"><ele>4.0</ele><time>2026-04-19T12:35:22.999Z</time></trkpt><trkpt lat="25.92260014983191" lon="-80.45697139767799"><ele>4.0</ele><time>2026-04-19T12:35:23.999Z</time></trkpt><trkpt lat="25.922529299988994" lon="-80.45703864738681"><ele>4.2</ele><time>2026-04-19T12:35:24.999Z</time></trkpt><trkpt lat="25.9224602409489" lon="-80.45710310103563"><ele>4.4</ele><time>2026-04-19T12:35:25.999Z</time></trkpt><trkpt lat="25.922390549961193" lon="-80.45716696923972"><ele>4.6</ele><time>2026-04-19T12:35:26.999Z</time></trkpt><trkpt lat="25.922317645341742" lon="-80.45722611091519"><ele>4.8</ele><time>2026-04-19T12:35:27.999Z</time></trkpt><trkpt lat="25.922243843110756" lon="-80.45728731785411"><ele>5.0</ele><time>2026-04-19T12:35:28.999Z</time></trkpt><trkpt lat="25.92217191702949" lon="-80.45735286320914"><ele>5.0</ele><time>2026-04-19T12:35:29.999Z</time></trkpt><trkpt lat="25.922099846469727" lon="-80.45741488355"><ele>5.0</ele><time>2026-04-19T12:35:30.999Z</time></trkpt><trkpt lat="25.92202854314992" lon="-80.45747721818749"><ele>5.0</ele><time>2026-04-19T12:35:31.999Z</time></trkpt><trkpt lat="25.92195715062219" lon="-80.45754115057028"><ele>5.0</ele><time>2026-04-19T12:35:32.999Z</time></trkpt><trkpt lat="25.9218821005536" lon="-80.45760399935635"><ele>5.0</ele><time>2026-04-19T12:35:33.999Z</time></trkpt><trkpt lat="25.92180619962576" lon="-80.45766689561306"><ele>5.4</ele><time>2026-04-19T12:35:34.999Z</time></trkpt><trkpt lat="25.921730827316853" lon="-80.45773170047973"><ele>5.8</ele><time>2026-04-19T12:35:35.999Z</time></trkpt><trkpt lat="25.921657677195203" lon="-80.45779971554522"><ele>6.199999999999999</ele><time>2026-04-19T12:35:36.999Z</time></trkpt><trkpt lat="25.92158573513905" lon="-80.45786575413615"><ele>6.6</ele><time>2026-04-19T12:35:37.999Z</time></trkpt><trkpt lat="25.921514648713902" lon="-80.45793323257033"><ele>7.0</ele><time>2026-04-19T12:35:38.999Z</time></trkpt><trkpt lat="25.92144294296478" lon="-80.45799726348909"><ele>7.0</ele><time>2026-04-19T12:35:40Z</time></trkpt><trkpt lat="25.921369286693313" lon="-80.45806188620058"><ele>6.999999999999999</ele><time>2026-04-19T12:35:41Z</time></trkpt><trkpt lat="25.921294767113793" lon="-80.45812756423464"><ele>6.999999999999999</ele><time>2026-04-19T12:35:42Z</time></trkpt><trkpt lat="25.921220680568975" lon="-80.45819394606896"><ele>7.0</ele><time>2026-04-19T12:35:43Z</time></trkpt><trkpt lat="25.92114657675692" lon="-80.458262215982"><ele>7.0</ele><time>2026-04-19T12:35:44Z</time></trkpt><trkpt lat="25.921072450586482" lon="-80.45833061241669"><ele>7.0</ele><time>2026-04-19T12:35:45Z</time></trkpt><trkpt lat="25.920997480361585" lon="-80.45839943315485"><ele>6.999999999999999</ele><time>2026-04-19T12:35:46Z</time></trkpt><trkpt lat="25.92092189766007" lon="-80.45846888718998"><ele>6.999999999999999</ele><time>2026-04-19T12:35:47Z</time></trkpt><trkpt lat="25.920847227911096" lon="-80.45853647769641"><ele>7.0</ele><time>2026-04-19T12:35:48Z</time></trkpt><trkpt lat="25.92077307574578" lon="-80.45860264803356"><ele>7.0</ele><time>2026-04-19T12:35:49Z</time></trkpt><trkpt lat="25.920703277267553" lon="-80.45866762999582"><ele>6.833333333333334</ele><time>2026-04-19T12:35:50Z</time></trkpt><trkpt lat="25.920631927325772" lon="-80.45873121142225"><ele>6.666666666666667</ele><time>2026-04-19T12:35:51Z</time></trkpt><trkpt lat="25.920561771555153" lon="-80.45879670781531"><ele>6.5</ele><time>2026-04-19T12:35:52Z</time></trkpt><trkpt lat="25.920498380638637" lon="-80.45885695468401"><ele>6.333333333333334</ele><time>2026-04-19T12:35:53Z</time></trkpt><trkpt lat="25.920428473610443" lon="-80.45891454963042"><ele>6.166666666666667</ele><time>2026-04-19T12:35:54Z</time></trkpt><trkpt lat="25.92036049577462" lon="-80.45897540517414"><ele>6.0</ele><time>2026-04-19T12:35:55Z</time></trkpt><trkpt lat="25.920289015122606" lon="-80.45903876960082"><ele>6.0</ele><time>2026-04-19T12:35:56Z</time></trkpt><trkpt lat="25.920218742015035" lon="-80.45910489964143"><ele>6.0</ele><time>2026-04-19T12:35:57Z</time></trkpt><trkpt lat="25.920146901510876" lon="-80.4591711551587"><ele>6.0</ele><time>2026-04-19T12:35:58Z</time></trkpt><trkpt lat="25.92007330108715" lon="-80.4592374645915"><ele>6.0</ele><time>2026-04-19T12:35:59Z</time></trkpt><trkpt lat="25.91999900047366" lon="-80.45930146716725"><ele>6.0</ele><time>2026-04-19T12:36:00Z</time></trkpt><trkpt lat="25.91992636708398" lon="-80.45936916763429"><ele>5.8</ele><time>2026-04-19T12:36:01Z</time></trkpt><trkpt lat="25.919855787476106" lon="-80.45943632761622"><ele>5.6</ele><time>2026-04-19T12:36:02Z</time></trkpt><trkpt lat="25.91978399699647" lon="-80.45950014178369"><ele>5.4</ele><time>2026-04-19T12:36:03Z</time></trkpt><trkpt lat="25.919714706209948" lon="-80.45956324444901"><ele>5.2</ele><time>2026-04-19T12:36:04Z</time></trkpt><trkpt lat="25.919645018746554" lon="-80.45962533445461"><ele>5.0</ele><time>2026-04-19T12:36:05Z</time></trkpt><trkpt lat="25.91957582705975" lon="-80.4596886730599"><ele>5.0</ele><time>2026-04-19T12:36:06Z</time></trkpt><trkpt lat="25.91950473065964" lon="-80.4597516432683"><ele>5.0</ele><time>2026-04-19T12:36:07Z</time></trkpt><trkpt lat="25.91943459579979" lon="-80.4598170031229"><ele>5.0</ele><time>2026-04-19T12:36:08Z</time></trkpt><trkpt lat="25.9193649191996" lon="-80.45988038345493"><ele>5.0</ele><time>2026-04-19T12:36:09Z</time></trkpt><trkpt lat="25.919294442873348" lon="-80.45994228527466"><ele>5.0</ele><time>2026-04-19T12:36:10Z</time></trkpt><trkpt lat="25.91922665493534" lon="-80.46000304139139"><ele>5.0</ele><time>2026-04-19T12:36:11Z</time></trkpt><trkpt lat="25.9191587779947" lon="-80.46006507887992"><ele>5.5</ele><time>2026-04-19T12:36:12Z</time></trkpt><trkpt lat="25.919091165034608" lon="-80.46012802402107"><ele>6.0</ele><time>2026-04-19T12:36:13Z</time></trkpt><trkpt lat="25.91902141039714" lon="-80.46019119562497"><ele>6.5</ele><time>2026-04-19T12:36:14Z</time></trkpt><trkpt lat="25.91895178603031" lon="-80.46025355301002"><ele>7.0</ele><time>2026-04-19T12:36:15Z</time></trkpt><trkpt lat="25.918883057792186" lon="-80.46031695751081"><ele>7.499999999999999</ele><time>2026-04-19T12:36:16Z</time></trkpt><trkpt lat="25.918812852735016" lon="-80.46037937905925"><ele>8.0</ele><time>2026-04-19T12:36:17Z</time></trkpt><trkpt lat="25.918743969739857" lon="-80.4604403036789"><ele>7.666666666666666</ele><time>2026-04-19T12:36:18Z</time></trkpt><trkpt lat="25.91867455978255" lon="-80.4605024984435"><ele>7.333333333333333</ele><time>2026-04-19T12:36:19Z</time></trkpt><trkpt lat="25.918606938950166" lon="-80.46056352884905"><ele>7.0</ele><time>2026-04-19T12:36:20Z</time></trkpt><trkpt lat="25.918539048125336" lon="-80.4606258078792"><ele>6.666666666666666</ele><time>2026-04-19T12:36:21Z</time></trkpt><trkpt lat="25.918469839975952" lon="-80.46068779165287"><ele>6.333333333333333</ele><time>2026-04-19T12:36:22Z</time></trkpt><trkpt lat="25.918401309123958" lon="-80.46074856582575"><ele>6.0</ele><time>2026-04-19T12:36:23Z</time></trkpt><trkpt lat="25.9183344784209" lon="-80.46081033243365"><ele>6.0</ele><time>2026-04-19T12:36:24Z</time></trkpt><trkpt lat="25.91826753335985" lon="-80.46086924669052"><ele>6.0</ele><time>2026-04-19T12:36:25Z</time></trkpt><trkpt lat="25.91819937534836" lon="-80.46092835689572"><ele>6.0</ele><time>2026-04-19T12:36:26Z</time></trkpt><trkpt lat="25.918131778317864" lon="-80.46099103037727"><ele>6.0</ele><time>2026-04-19T12:36:27Z</time></trkpt><trkpt lat="25.918063748054596" lon="-80.46105273673612"><ele>6.0</ele><time>2026-04-19T12:36:28Z</time></trkpt><trkpt lat="25.91799628685412" lon="-80.4611139008445"><ele>6.0</ele><time>2026-04-19T12:36:29Z</time></trkpt><trkpt lat="25.917927969808677" lon="-80.4611759935294"><ele>6.0</ele><time>2026-04-19T12:36:30Z</time></trkpt><trkpt lat="25.917859359662813" lon="-80.46123745365986"><ele>6.0</ele><time>2026-04-19T12:36:31Z</time></trkpt><trkpt lat="25.917791172644517" lon="-80.4613010510825"><ele>6.0</ele><time>2026-04-19T12:36:32Z</time></trkpt><trkpt lat="25.917722266153845" lon="-80.46136516492643"><ele>6.0</ele><time>2026-04-19T12:36:33Z</time></trkpt><trkpt lat="25.917653923242963" lon="-80.46142870283323"><ele>6.0</ele><time>2026-04-19T12:36:34Z</time></trkpt><trkpt lat="25.917589233481873" lon="-80.46148500243538"><ele>6.0</ele><time>2026-04-19T12:36:35Z</time></trkpt><trkpt lat="25.917522433850557" lon="-80.46154323155618"><ele>6.0</ele><time>2026-04-19T12:36:36Z</time></trkpt><trkpt lat="25.91745443122329" lon="-80.4616047359881"><ele>6.0</ele><time>2026-04-19T12:36:37Z</time></trkpt><trkpt lat="25.91738679569192" lon="-80.46166678172155"><ele>6.0</ele><time>2026-04-19T12:36:38Z</time></trkpt><trkpt lat="25.917318138421965" lon="-80.46172735480654"><ele>6.0</ele><time>2026-04-19T12:36:39Z</time></trkpt><trkpt lat="25.917249964787842" lon="-80.4617884225494"><ele>6.0</ele><time>2026-04-19T12:36:40Z</time></trkpt><trkpt lat="25.917186712044032" lon="-80.46184764414582"><ele>6.0</ele><time>2026-04-19T12:36:41Z</time></trkpt><trkpt lat="25.91712436239432" lon="-80.46190557459852"><ele>6.0</ele><time>2026-04-19T12:36:42Z</time></trkpt><trkpt lat="25.917059308257148" lon="-80.46196218258329"><ele>6.0</ele><time>2026-04-19T12:36:43Z</time></trkpt><trkpt lat="25.916995061924283" lon="-80.46202049336543"><ele>6.0</ele><time>2026-04-19T12:36:44Z</time></trkpt><trkpt lat="25.916929595766728" lon="-80.4620809246205"><ele>6.0</ele><time>2026-04-19T12:36:45Z</time></trkpt><trkpt lat="25.916862676050496" lon="-80.46214135633484"><ele>6.0</ele><time>2026-04-19T12:36:46Z</time></trkpt><trkpt lat="25.916795386148646" lon="-80.46220116249131"><ele>6.0</ele><time>2026-04-19T12:36:47Z</time></trkpt><trkpt lat="25.916729173894442" lon="-80.4622632296986"><ele>5.833333333333333</ele><time>2026-04-19T12:36:48Z</time></trkpt><trkpt lat="25.916663394328094" lon="-80.46232208548386"><ele>5.666666666666667</ele><time>2026-04-19T12:36:49Z</time></trkpt><trkpt lat="25.916598011158737" lon="-80.46238032158395"><ele>5.5</ele><time>2026-04-19T12:36:50Z</time></trkpt><trkpt lat="25.91653409349914" lon="-80.46243897033693"><ele>5.333333333333334</ele><time>2026-04-19T12:36:51Z</time></trkpt><trkpt lat="25.916468601646415" lon="-80.46249853668455"><ele>5.166666666666667</ele><time>2026-04-19T12:36:52Z</time></trkpt><trkpt lat="25.916400403646854" lon="-80.4625585013242"><ele>5.0</ele><time>2026-04-19T12:36:53Z</time></trkpt><trkpt lat="25.91633192616234" lon="-80.46261887711618"><ele>5.0</ele><time>2026-04-19T12:36:54Z</time></trkpt><trkpt lat="25.916261359363205" lon="-80.46268108447704"><ele>5.0</ele><time>2026-04-19T12:36:55Z</time></trkpt><trkpt lat="25.916193567530442" lon="-80.46274349548588"><ele>5.0</ele><time>2026-04-19T12:36:56Z</time></trkpt><trkpt lat="25.916123864330146" lon="-80.4628058045975"><ele>5.0</ele><time>2026-04-19T12:36:57Z</time></trkpt><trkpt lat="25.91605597649615" lon="-80.46286865040273"><ele>5.0</ele><time>2026-04-19T12:36:58Z</time></trkpt><trkpt lat="25.915986254341203" lon="-80.4629295414914"><ele>5.0</ele><time>2026-04-19T12:36:59Z</time></trkpt><trkpt lat="25.915918302664917" lon="-80.46299097439704"><ele>4.833333333333334</ele><time>2026-04-19T12:37:00Z</time></trkpt><trkpt lat="25.91585163287242" lon="-80.46305330966257"><ele>4.666666666666667</ele><time>2026-04-19T12:37:01Z</time></trkpt><trkpt lat="25.915785532275894" lon="-80.46311434096654"><ele>4.5</ele><time>2026-04-19T12:37:02Z</time></trkpt><trkpt lat="25.915720386215924" lon="-80.463175074472"><ele>4.333333333333333</ele><time>2026-04-19T12:37:03Z</time></trkpt><trkpt lat="25.915655428180163" lon="-80.46323458558832"><ele>4.166666666666666</ele><time>2026-04-19T12:37:04Z</time></trkpt><trkpt lat="25.915588993956998" lon="-80.46329396813066"><ele>4.0</ele><time>2026-04-19T12:37:05Z</time></trkpt><trkpt lat="25.915522669512203" lon="-80.46335346765305"><ele>3.9999999999999996</ele><time>2026-04-19T12:37:06Z</time></trkpt><trkpt lat="25.915453577879664" lon="-80.46341502553906"><ele>4.0</ele><time>2026-04-19T12:37:07Z</time></trkpt><trkpt lat="25.915385667207296" lon="-80.46347576636882"><ele>4.0</ele><time>2026-04-19T12:37:08Z</time></trkpt><trkpt lat="25.915318398324303" lon="-80.4635374833259"><ele>4.0</ele><time>2026-04-19T12:37:09Z</time></trkpt><trkpt lat="25.915250055381925" lon="-80.46359913370378"><ele>3.9999999999999996</ele><time>2026-04-19T12:37:10Z</time></trkpt><trkpt lat="25.915181841145998" lon="-80.46365704429286"><ele>4.0</ele><time>2026-04-19T12:37:11Z</time></trkpt><trkpt lat="25.91511496684352" lon="-80.46371648966392"><ele>4.333333333333333</ele><time>2026-04-19T12:37:12Z</time></trkpt><trkpt lat="25.915049945563407" lon="-80.46377779682064"><ele>4.666666666666666</ele><time>2026-04-19T12:37:13Z</time></trkpt><trkpt lat="25.914985893817697" lon="-80.46383884579073"><ele>5.0</ele><time>2026-04-19T12:37:14Z</time></trkpt><trkpt lat="25.91492048404064" lon="-80.46389724193554"><ele>5.333333333333333</ele><time>2026-04-19T12:37:15Z</time></trkpt><trkpt lat="25.91485373113315" lon="-80.4639564041533"><ele>5.666666666666667</ele><time>2026-04-19T12:37:15.999Z</time></trkpt><trkpt lat="25.914787103056817" lon="-80.464015968423"><ele>6.0</ele><time>2026-04-19T12:37:16.999Z</time></trkpt><trkpt lat="25.914717999270973" lon="-80.4640766169726"><ele>6.199999999999999</ele><time>2026-04-19T12:37:17.999Z</time></trkpt><trkpt lat="25.914649692313304" lon="-80.46413970492696"><ele>6.3999999999999995</ele><time>2026-04-19T12:37:18.999Z</time></trkpt><trkpt lat="25.91458048629976" lon="-80.46420374483012"><ele>6.6</ele><time>2026-04-19T12:37:19.999Z</time></trkpt><trkpt lat="25.914508278609546" lon="-80.46426835923333"><ele>6.8</ele><time>2026-04-19T12:37:20.999Z</time></trkpt><trkpt lat="25.91443584510872" lon="-80.46433455443847"><ele>7.0</ele><time>2026-04-19T12:37:21.999Z</time></trkpt><trkpt lat="25.914363663363137" lon="-80.46440055141427"><ele>7.0</ele><time>2026-04-19T12:37:22.999Z</time></trkpt><trkpt lat="25.91429188432917" lon="-80.46446866212274"><ele>6.999999999999999</ele><time>2026-04-19T12:37:23.999Z</time></trkpt><trkpt lat="25.914217067001655" lon="-80.4645360780353"><ele>6.999999999999999</ele><time>2026-04-19T12:37:24.999Z</time></trkpt><trkpt lat="25.91414406606592" lon="-80.46460195320175"><ele>7.0</ele><time>2026-04-19T12:37:25.999Z</time></trkpt><trkpt lat="25.914070130901763" lon="-80.46466791403502"><ele>7.0</ele><time>2026-04-19T12:37:26.999Z</time></trkpt><trkpt lat="25.913997091312115" lon="-80.464731338102"><ele>6.6</ele><time>2026-04-19T12:37:27.999Z</time></trkpt><trkpt lat="25.91392768493102" lon="-80.46479452419773"><ele>6.199999999999999</ele><time>2026-04-19T12:37:28.999Z</time></trkpt><trkpt lat="25.913859660420858" lon="-80.46485737161754"><ele>5.8</ele><time>2026-04-19T12:37:29.999Z</time></trkpt><trkpt lat="25.913790283739925" lon="-80.4649213134145"><ele>5.4</ele><time>2026-04-19T12:37:30.999Z</time></trkpt><trkpt lat="25.91371993024826" lon="-80.46498554198133"><ele>5.0</ele><time>2026-04-19T12:37:31.999Z</time></trkpt><trkpt lat="25.913648841801958" lon="-80.46504959282215"><ele>5.0</ele><time>2026-04-19T12:37:32.999Z</time></trkpt><trkpt lat="25.913575734657307" lon="-80.4651125289203"><ele>5.0</ele><time>2026-04-19T12:37:33.999Z</time></trkpt><trkpt lat="25.913500493626827" lon="-80.46518013442763"><ele>5.0</ele><time>2026-04-19T12:37:34.999Z</time></trkpt><trkpt lat="25.91342602524961" lon="-80.4652485219982"><ele>5.0</ele><time>2026-04-19T12:37:35.999Z</time></trkpt><trkpt lat="25.91334830633424" lon="-80.46531838174613"><ele>5.0</ele><time>2026-04-19T12:37:36.999Z</time></trkpt><trkpt lat="25.913271523750208" lon="-80.46538870148349"><ele>5.2</ele><time>2026-04-19T12:37:37.999Z</time></trkpt><trkpt lat="25.91319432868477" lon="-80.4654581044517"><ele>5.4</ele><time>2026-04-19T12:37:38.999Z</time></trkpt><trkpt lat="25.913116427376558" lon="-80.46552743701021"><ele>5.6</ele><time>2026-04-19T12:37:39.999Z</time></trkpt><trkpt lat="25.91303971478271" lon="-80.46559597280165"><ele>5.8</ele><time>2026-04-19T12:37:40.999Z</time></trkpt><trkpt lat="25.912965334804557" lon="-80.46566441716416"><ele>6.0</ele><time>2026-04-19T12:37:41.999Z</time></trkpt><trkpt lat="25.91289215798649" lon="-80.46573294640459"><ele>6.0</ele><time>2026-04-19T12:37:42.999Z</time></trkpt><trkpt lat="25.91281752608041" lon="-80.46579941653401"><ele>6.0</ele><time>2026-04-19T12:37:43.999Z</time></trkpt><trkpt lat="25.912746326804438" lon="-80.4658675226186"><ele>6.0</ele><time>2026-04-19T12:37:44.999Z</time></trkpt><trkpt lat="25.912672831475923" lon="-80.4659331258202"><ele>6.0</ele><time>2026-04-19T12:37:46Z</time></trkpt><trkpt lat="25.912599495806564" lon="-80.46599659872503"><ele>6.0</ele><time>2026-04-19T12:37:47Z</time></trkpt><trkpt lat="25.91252740514557" lon="-80.4660599600473"><ele>6.0</ele><time>2026-04-19T12:37:48Z</time></trkpt><trkpt lat="25.912458665006845" lon="-80.46612186811434"><ele>6.0</ele><time>2026-04-19T12:37:49Z</time></trkpt><trkpt lat="25.91238866171356" lon="-80.46618488926134"><ele>6.0</ele><time>2026-04-19T12:37:50Z</time></trkpt><trkpt lat="25.912319607322235" lon="-80.4662491755766"><ele>6.0</ele><time>2026-04-19T12:37:51Z</time></trkpt><trkpt lat="25.912247846040305" lon="-80.46631400715083"><ele>6.0</ele><time>2026-04-19T12:37:52Z</time></trkpt><trkpt lat="25.912174598187903" lon="-80.46637968498278"><ele>5.6</ele><time>2026-04-19T12:37:53Z</time></trkpt><trkpt lat="25.91210000194441" lon="-80.46644652984405"><ele>5.199999999999999</ele><time>2026-04-19T12:37:54Z</time></trkpt><trkpt lat="25.912026562810787" lon="-80.4665153114527"><ele>4.800000000000001</ele><time>2026-04-19T12:37:55Z</time></trkpt><trkpt lat="25.91195148282897" lon="-80.46658459880993"><ele>4.4</ele><time>2026-04-19T12:37:56Z</time></trkpt><trkpt lat="25.911878557060316" lon="-80.46665196950336"><ele>4.0</ele><time>2026-04-19T12:37:57Z</time></trkpt><trkpt lat="25.91180121619509" lon="-80.46672023159127"><ele>4.800000000000001</ele><time>2026-04-19T12:37:58Z</time></trkpt><trkpt lat="25.9117245343355" lon="-80.46678957379586"><ele>5.6000000000000005</ele><time>2026-04-19T12:37:59Z</time></trkpt><trkpt lat="25.911647537256133" lon="-80.46685809491107"><ele>6.4</ele><time>2026-04-19T12:38:00Z</time></trkpt><trkpt lat="25.91157051470486" lon="-80.46692862278181"><ele>7.2</ele><time>2026-04-19T12:38:01Z</time></trkpt><trkpt lat="25.91149364043655" lon="-80.46699795197107"><ele>8.0</ele><time>2026-04-19T12:38:02Z</time></trkpt><trkpt lat="25.911414393344906" lon="-80.46706817689625"><ele>7.800000000000001</ele><time>2026-04-19T12:38:03Z</time></trkpt><trkpt lat="25.911332740635817" lon="-80.46713992070818"><ele>7.6000000000000005</ele><time>2026-04-19T12:38:04Z</time></trkpt><trkpt lat="25.91125243420449" lon="-80.46721232073352"><ele>7.3999999999999995</ele><time>2026-04-19T12:38:05Z</time></trkpt><trkpt lat="25.911171589347134" lon="-80.46728566770454"><ele>7.199999999999999</ele><time>2026-04-19T12:38:06Z</time></trkpt><trkpt lat="25.911092243562543" lon="-80.46735729160812"><ele>7.0</ele><time>2026-04-19T12:38:07Z</time></trkpt><trkpt lat="25.911011679593003" lon="-80.46742901634565"><ele>7.0</ele><time>2026-04-19T12:38:08Z</time></trkpt><trkpt lat="25.910931436634876" lon="-80.46750127992536"><ele>6.999999999999999</ele><time>2026-04-19T12:38:09Z</time></trkpt><trkpt lat="25.910848887853692" lon="-80.46757356581371"><ele>6.999999999999999</ele><time>2026-04-19T12:38:10Z</time></trkpt><trkpt lat="25.910766868440934" lon="-80.46764510308384"><ele>7.0</ele><time>2026-04-19T12:38:11Z</time></trkpt><trkpt lat="25.910685904471183" lon="-80.46771712916393"><ele>7.0</ele><time>2026-04-19T12:38:12Z</time></trkpt><trkpt lat="25.91060329863328" lon="-80.46778801380862"><ele>7.0</ele><time>2026-04-19T12:38:13Z</time></trkpt><trkpt lat="25.910523536796962" lon="-80.4678576641882"><ele>6.999999999999999</ele><time>2026-04-19T12:38:14Z</time></trkpt><trkpt lat="25.910440961583657" lon="-80.4679255062945"><ele>6.999999999999999</ele><time>2026-04-19T12:38:15Z</time></trkpt><trkpt lat="25.910361896079646" lon="-80.46799386957329"><ele>7.0</ele><time>2026-04-19T12:38:16Z</time></trkpt><trkpt lat="25.910286553721487" lon="-80.46806529847007"><ele>7.0</ele><time>2026-04-19T12:38:17Z</time></trkpt><trkpt lat="25.91021326171344" lon="-80.46813969713236"><ele>6.8</ele><time>2026-04-19T12:38:18Z</time></trkpt><trkpt lat="25.910139261857438" lon="-80.46820835075746"><ele>6.6</ele><time>2026-04-19T12:38:19Z</time></trkpt><trkpt lat="25.91006380530786" lon="-80.46827125910968"><ele>6.3999999999999995</ele><time>2026-04-19T12:38:20Z</time></trkpt><trkpt lat="25.909991448827125" lon="-80.46833472134723"><ele>6.199999999999999</ele><time>2026-04-19T12:38:21Z</time></trkpt><trkpt lat="25.909917194970454" lon="-80.46839722804324"><ele>6.0</ele><time>2026-04-19T12:38:22Z</time></trkpt><trkpt lat="25.909843118306863" lon="-80.46846371055122"><ele>6.0</ele><time>2026-04-19T12:38:23Z</time></trkpt><trkpt lat="25.90977046440681" lon="-80.46853296329184"><ele>6.0</ele><time>2026-04-19T12:38:24Z</time></trkpt><trkpt lat="25.909696901472753" lon="-80.46860238584652"><ele>6.0</ele><time>2026-04-19T12:38:25Z</time></trkpt><trkpt lat="25.909621119450808" lon="-80.46866723205868"><ele>6.0</ele><time>2026-04-19T12:38:26Z</time></trkpt><trkpt lat="25.90954951530483" lon="-80.46873480697403"><ele>6.0</ele><time>2026-04-19T12:38:27Z</time></trkpt><trkpt lat="25.909479812101797" lon="-80.46879825843557"><ele>6.0</ele><time>2026-04-19T12:38:28Z</time></trkpt><trkpt lat="25.909408535131423" lon="-80.46885853241838"><ele>6.0</ele><time>2026-04-19T12:38:29Z</time></trkpt><trkpt lat="25.909337358937925" lon="-80.46891993688561"><ele>6.0</ele><time>2026-04-19T12:38:30Z</time></trkpt><trkpt lat="25.909262261205935" lon="-80.46898269032533"><ele>6.0</ele><time>2026-04-19T12:38:31Z</time></trkpt><trkpt lat="25.909190383973854" lon="-80.46904841668282"><ele>6.0</ele><time>2026-04-19T12:38:32Z</time></trkpt><trkpt lat="25.90911851927784" lon="-80.46911505948283"><ele>6.0</ele><time>2026-04-19T12:38:33Z</time></trkpt><trkpt lat="25.909045576614098" lon="-80.46918147006987"><ele>6.0</ele><time>2026-04-19T12:38:34Z</time></trkpt><trkpt lat="25.908973226256766" lon="-80.46924706362428"><ele>6.0</ele><time>2026-04-19T12:38:35Z</time></trkpt><trkpt lat="25.90889979649266" lon="-80.46931523375498"><ele>6.0</ele><time>2026-04-19T12:38:36Z</time></trkpt><trkpt lat="25.90882614603096" lon="-80.46938320945122"><ele>6.0</ele><time>2026-04-19T12:38:37Z</time></trkpt><trkpt lat="25.908754098464478" lon="-80.46944994814736"><ele>6.0</ele><time>2026-04-19T12:38:38Z</time></trkpt><trkpt lat="25.908682891869177" lon="-80.46951401563615"><ele>6.0</ele><time>2026-04-19T12:38:39Z</time></trkpt><trkpt lat="25.908612617184723" lon="-80.46957592676614"><ele>6.0</ele><time>2026-04-19T12:38:40Z</time></trkpt><trkpt lat="25.90854389740731" lon="-80.46963903790589"><ele>6.0</ele><time>2026-04-19T12:38:41Z</time></trkpt><trkpt lat="25.90847237242912" lon="-80.4697018722551"><ele>6.0</ele><time>2026-04-19T12:38:42Z</time></trkpt><trkpt lat="25.908398825836986" lon="-80.46976640392454"><ele>6.0</ele><time>2026-04-19T12:38:43Z</time></trkpt><trkpt lat="25.908325873364067" lon="-80.46983062541088"><ele>6.0</ele><time>2026-04-19T12:38:44Z</time></trkpt><trkpt lat="25.908253654703934" lon="-80.46989751184508"><ele>6.0</ele><time>2026-04-19T12:38:45Z</time></trkpt><trkpt lat="25.908185302301426" lon="-80.4699648054844"><ele>6.0</ele><time>2026-04-19T12:38:46Z</time></trkpt><trkpt lat="25.90811954066651" lon="-80.47002549941367"><ele>6.0</ele><time>2026-04-19T12:38:47Z</time></trkpt><trkpt lat="25.908046882937786" lon="-80.47008537847843"><ele>6.0</ele><time>2026-04-19T12:38:48Z</time></trkpt><trkpt lat="25.907976691538014" lon="-80.47014826559199"><ele>6.0</ele><time>2026-04-19T12:38:49Z</time></trkpt><trkpt lat="25.907904746183615" lon="-80.47021078184765"><ele>6.0</ele><time>2026-04-19T12:38:50Z</time></trkpt><trkpt lat="25.907832751326765" lon="-80.47027529500876"><ele>6.0</ele><time>2026-04-19T12:38:51Z</time></trkpt><trkpt lat="25.90776081076264" lon="-80.47034097073048"><ele>6.0</ele><time>2026-04-19T12:38:52Z</time></trkpt><trkpt lat="25.90769030858936" lon="-80.47040781964452"><ele>6.0</ele><time>2026-04-19T12:38:53Z</time></trkpt><trkpt lat="25.907621273793488" lon="-80.47046919180426"><ele>6.0</ele><time>2026-04-19T12:38:54Z</time></trkpt><trkpt lat="25.90755096479165" lon="-80.47053287582528"><ele>6.0</ele><time>2026-04-19T12:38:55Z</time></trkpt><trkpt lat="25.907478830925914" lon="-80.47059610331121"><ele>6.0</ele><time>2026-04-19T12:38:56Z</time></trkpt><trkpt lat="25.907406079060173" lon="-80.47066075780633"><ele>6.0</ele><time>2026-04-19T12:38:57Z</time></trkpt><trkpt lat="25.907335699034828" lon="-80.47072809105148"><ele>5.8</ele><time>2026-04-19T12:38:58Z</time></trkpt><trkpt lat="25.907261504539395" lon="-80.47079314134898"><ele>5.6</ele><time>2026-04-19T12:38:59Z</time></trkpt><trkpt lat="25.907188611804855" lon="-80.47085919169197"><ele>5.4</ele><time>2026-04-19T12:39:00Z</time></trkpt><trkpt lat="25.907115941826536" lon="-80.47092415570349"><ele>5.2</ele><time>2026-04-19T12:39:01Z</time></trkpt><trkpt lat="25.907043894803966" lon="-80.4709903749609"><ele>5.0</ele><time>2026-04-19T12:39:02Z</time></trkpt><trkpt lat="25.906973218987787" lon="-80.47105701316431"><ele>5.0</ele><time>2026-04-19T12:39:03Z</time></trkpt><trkpt lat="25.906903775747274" lon="-80.47111900382392"><ele>5.0</ele><time>2026-04-19T12:39:04Z</time></trkpt><trkpt lat="25.906832394949856" lon="-80.47118355896713"><ele>5.0</ele><time>2026-04-19T12:39:05Z</time></trkpt><trkpt lat="25.906761787813323" lon="-80.4712485966313"><ele>5.0</ele><time>2026-04-19T12:39:06Z</time></trkpt><trkpt lat="25.90668738701545" lon="-80.47131604278572"><ele>5.0</ele><time>2026-04-19T12:39:07Z</time></trkpt><trkpt lat="25.90661027896399" lon="-80.47138268758903"><ele>5.0</ele><time>2026-04-19T12:39:08Z</time></trkpt><trkpt lat="25.906535448470326" lon="-80.47145012315873"><ele>5.0</ele><time>2026-04-19T12:39:09Z</time></trkpt><trkpt lat="25.906459896051388" lon="-80.47151746431062"><ele>5.0</ele><time>2026-04-19T12:39:10Z</time></trkpt><trkpt lat="25.9063865442962" lon="-80.47158682171306"><ele>5.0</ele><time>2026-04-19T12:39:11Z</time></trkpt><trkpt lat="25.9063135019825" lon="-80.47165745413221"><ele>5.0</ele><time>2026-04-19T12:39:12Z</time></trkpt><trkpt lat="25.906237534058135" lon="-80.47172489090957"><ele>5.0</ele><time>2026-04-19T12:39:13Z</time></trkpt><trkpt lat="25.90616257481947" lon="-80.47179166787326"><ele>5.0</ele><time>2026-04-19T12:39:14Z</time></trkpt><trkpt lat="25.90608556641566" lon="-80.47185999059211"><ele>5.0</ele><time>2026-04-19T12:39:15Z</time></trkpt><trkpt lat="25.906007570512905" lon="-80.47193016898798"><ele>5.0</ele><time>2026-04-19T12:39:15.999Z</time></trkpt><trkpt lat="25.905928341448924" lon="-80.47200065798661"><ele>5.0</ele><time>2026-04-19T12:39:16.999Z</time></trkpt><trkpt lat="25.905849977662626" lon="-80.47207333338706"><ele>5.2</ele><time>2026-04-19T12:39:17.999Z</time></trkpt><trkpt lat="25.905771360807673" lon="-80.47214481234855"><ele>5.4</ele><time>2026-04-19T12:39:18.999Z</time></trkpt><trkpt lat="25.90569540758775" lon="-80.47221644217113"><ele>5.6</ele><time>2026-04-19T12:39:19.999Z</time></trkpt><trkpt lat="25.905620161028835" lon="-80.47228758696816"><ele>5.8</ele><time>2026-04-19T12:39:20.999Z</time></trkpt><trkpt lat="25.90554483603491" lon="-80.47235547889439"><ele>6.0</ele><time>2026-04-19T12:39:21.999Z</time></trkpt><trkpt lat="25.905469449368155" lon="-80.47242019307234"><ele>6.0</ele><time>2026-04-19T12:39:22.999Z</time></trkpt><trkpt lat="25.905394917359896" lon="-80.4724863143714"><ele>6.0</ele><time>2026-04-19T12:39:23.999Z</time></trkpt><trkpt lat="25.905321516209604" lon="-80.47255077209827"><ele>6.0</ele><time>2026-04-19T12:39:24.999Z</time></trkpt><trkpt lat="25.905249856406744" lon="-80.47261704259918"><ele>6.0</ele><time>2026-04-19T12:39:25.999Z</time></trkpt><trkpt lat="25.905179038604444" lon="-80.4726848356695"><ele>6.0</ele><time>2026-04-19T12:39:26.999Z</time></trkpt><trkpt lat="25.905104260132873" lon="-80.47275066589576"><ele>6.0</ele><time>2026-04-19T12:39:27.999Z</time></trkpt><trkpt lat="25.90503050842741" lon="-80.47281687063601"><ele>6.0</ele><time>2026-04-19T12:39:28.999Z</time></trkpt><trkpt lat="25.904956588312455" lon="-80.47288232391307"><ele>6.0</ele><time>2026-04-19T12:39:29.999Z</time></trkpt><trkpt lat="25.904883642089345" lon="-80.47294970596984"><ele>6.0</ele><time>2026-04-19T12:39:30.999Z</time></trkpt><trkpt lat="25.904811563867643" lon="-80.47301515286428"><ele>6.0</ele><time>2026-04-19T12:39:31.999Z</time></trkpt><trkpt lat="25.90474035986808" lon="-80.4730805719377"><ele>5.8</ele><time>2026-04-19T12:39:32.999Z</time></trkpt><trkpt lat="25.904667199750197" lon="-80.47314656582536"><ele>5.6</ele><time>2026-04-19T12:39:33.999Z</time></trkpt><trkpt lat="25.90459309336552" lon="-80.47321413480537"><ele>5.4</ele><time>2026-04-19T12:39:34.999Z</time></trkpt><trkpt lat="25.904516363503337" lon="-80.47328210265853"><ele>5.2</ele><time>2026-04-19T12:39:35.999Z</time></trkpt><trkpt lat="25.904438891980785" lon="-80.47334929357665"><ele>5.0</ele><time>2026-04-19T12:39:36.999Z</time></trkpt><trkpt lat="25.904360561039205" lon="-80.4734196618235"><ele>5.0</ele><time>2026-04-19T12:39:37.999Z</time></trkpt><trkpt lat="25.90428446760382" lon="-80.47348945414265"><ele>5.0</ele><time>2026-04-19T12:39:38.999Z</time></trkpt><trkpt lat="25.904204715759352" lon="-80.47355734724223"><ele>5.0</ele><time>2026-04-19T12:39:39.999Z</time></trkpt><trkpt lat="25.904127058162402" lon="-80.47362675602412"><ele>5.0</ele><time>2026-04-19T12:39:40.999Z</time></trkpt><trkpt lat="25.90405099836495" lon="-80.4736965875653"><ele>5.0</ele><time>2026-04-19T12:39:41.999Z</time></trkpt><trkpt lat="25.90397608629362" lon="-80.47376343505728"><ele>5.0</ele><time>2026-04-19T12:39:42.999Z</time></trkpt><trkpt lat="25.903901318938612" lon="-80.47382878117433"><ele>5.0</ele><time>2026-04-19T12:39:43.999Z</time></trkpt><trkpt lat="25.903827241470225" lon="-80.47389559730419"><ele>5.0</ele><time>2026-04-19T12:39:44.999Z</time></trkpt><trkpt lat="25.903751984894335" lon="-80.47396319467869"><ele>5.0</ele><time>2026-04-19T12:39:45.999Z</time></trkpt><trkpt lat="25.903673410738612" lon="-80.47403117127273"><ele>5.0</ele><time>2026-04-19T12:39:46.999Z</time></trkpt><trkpt lat="25.90359829950264" lon="-80.47409899879776"><ele>5.0</ele><time>2026-04-19T12:39:47.999Z</time></trkpt><trkpt lat="25.903523457272804" lon="-80.47416523437674"><ele>5.0</ele><time>2026-04-19T12:39:48.999Z</time></trkpt><trkpt lat="25.903448250849593" lon="-80.47423179141562"><ele>5.0</ele><time>2026-04-19T12:39:49.999Z</time></trkpt><trkpt lat="25.90337227187378" lon="-80.47429946351392"><ele>5.0</ele><time>2026-04-19T12:39:50.999Z</time></trkpt><trkpt lat="25.90329887797392" lon="-80.47436671627727"><ele>5.0</ele><time>2026-04-19T12:39:52Z</time></trkpt><trkpt lat="25.903225741086434" lon="-80.47443458598383"><ele>5.2</ele><time>2026-04-19T12:39:53Z</time></trkpt><trkpt lat="25.90315294827012" lon="-80.47450113145979"><ele>5.4</ele><time>2026-04-19T12:39:54Z</time></trkpt><trkpt lat="25.90308199751778" lon="-80.47456883172008"><ele>5.6</ele><time>2026-04-19T12:39:55Z</time></trkpt><trkpt lat="25.90300739316547" lon="-80.47463528758324"><ele>5.8</ele><time>2026-04-19T12:39:56Z</time></trkpt><trkpt lat="25.90293355623882" lon="-80.47469999326309"><ele>6.0</ele><time>2026-04-19T12:39:57Z</time></trkpt><trkpt lat="25.902861385162264" lon="-80.47476817644666"><ele>6.0</ele><time>2026-04-19T12:39:58Z</time></trkpt><trkpt lat="25.902787744375036" lon="-80.47483834874552"><ele>6.0</ele><time>2026-04-19T12:39:59Z</time></trkpt><trkpt lat="25.90271156663173" lon="-80.47490772218917"><ele>6.0</ele><time>2026-04-19T12:40:00Z</time></trkpt><trkpt lat="25.90263507712115" lon="-80.4749737885846"><ele>6.0</ele><time>2026-04-19T12:40:01Z</time></trkpt><trkpt lat="25.90255804078933" lon="-80.47504190479336"><ele>6.0</ele><time>2026-04-19T12:40:02Z</time></trkpt><trkpt lat="25.902483496269696" lon="-80.47511174441439"><ele>6.0</ele><time>2026-04-19T12:40:03Z</time></trkpt><trkpt lat="25.90240815120785" lon="-80.47518279815942"><ele>6.0</ele><time>2026-04-19T12:40:04Z</time></trkpt><trkpt lat="25.902332122184387" lon="-80.47525152745604"><ele>6.0</ele><time>2026-04-19T12:40:05Z</time></trkpt><trkpt lat="25.902256657472616" lon="-80.47531903147468"><ele>6.0</ele><time>2026-04-19T12:40:06Z</time></trkpt><trkpt lat="25.90218171795181" lon="-80.47538716769618"><ele>6.0</ele><time>2026-04-19T12:40:07Z</time></trkpt><trkpt lat="25.902107617722155" lon="-80.47545845726663"><ele>6.0</ele><time>2026-04-19T12:40:08Z</time></trkpt><trkpt lat="25.9020332948477" lon="-80.47552621576307"><ele>6.0</ele><time>2026-04-19T12:40:09Z</time></trkpt><trkpt lat="25.90195932312426" lon="-80.47559485388514"><ele>6.0</ele><time>2026-04-19T12:40:10Z</time></trkpt><trkpt lat="25.901886058245903" lon="-80.47566275048493"><ele>6.0</ele><time>2026-04-19T12:40:11Z</time></trkpt><trkpt lat="25.90181336297737" lon="-80.47573026457323"><ele>6.0</ele><time>2026-04-19T12:40:12Z</time></trkpt><trkpt lat="25.901740359730905" lon="-80.47579576671414"><ele>6.0</ele><time>2026-04-19T12:40:13Z</time></trkpt><trkpt lat="25.90166675721013" lon="-80.47586185773572"><ele>6.0</ele><time>2026-04-19T12:40:14Z</time></trkpt><trkpt lat="25.901590655600035" lon="-80.47592849940717"><ele>6.0</ele><time>2026-04-19T12:40:15Z</time></trkpt><trkpt lat="25.90151821265396" lon="-80.4759944179046"><ele>6.0</ele><time>2026-04-19T12:40:16Z</time></trkpt><trkpt lat="25.901445174915125" lon="-80.4760612237986"><ele>6.0</ele><time>2026-04-19T12:40:17Z</time></trkpt><trkpt lat="25.901372099926526" lon="-80.47612716949945"><ele>6.0</ele><time>2026-04-19T12:40:18Z</time></trkpt><trkpt lat="25.901297766128753" lon="-80.47619175671254"><ele>6.0</ele><time>2026-04-19T12:40:19Z</time></trkpt><trkpt lat="25.901222982899057" lon="-80.47625693759012"><ele>6.0</ele><time>2026-04-19T12:40:20Z</time></trkpt><trkpt lat="25.901150446399654" lon="-80.4763246073639"><ele>6.0</ele><time>2026-04-19T12:40:21Z</time></trkpt><trkpt lat="25.90107836816895" lon="-80.4763888874463"><ele>6.0</ele><time>2026-04-19T12:40:22Z</time></trkpt><trkpt lat="25.90100776460691" lon="-80.47645604695016"><ele>6.0</ele><time>2026-04-19T12:40:23Z</time></trkpt><trkpt lat="25.90093914603647" lon="-80.47652112305742"><ele>6.0</ele><time>2026-04-19T12:40:24Z</time></trkpt><trkpt lat="25.900868435128178" lon="-80.47658453902527"><ele>6.0</ele><time>2026-04-19T12:40:25Z</time></trkpt><trkpt lat="25.900796109134998" lon="-80.47664564787654"><ele>6.0</ele><time>2026-04-19T12:40:26Z</time></trkpt><trkpt lat="25.9007248822991" lon="-80.47670755313021"><ele>6.0</ele><time>2026-04-19T12:40:27Z</time></trkpt><trkpt lat="25.900653411497785" lon="-80.47677069923868"><ele>5.8</ele><time>2026-04-19T12:40:28Z</time></trkpt><trkpt lat="25.900580120564342" lon="-80.47683572182436"><ele>5.6</ele><time>2026-04-19T12:40:29Z</time></trkpt><trkpt lat="25.900508731053595" lon="-80.47690204829311"><ele>5.4</ele><time>2026-04-19T12:40:30Z</time></trkpt><trkpt lat="25.90043819858905" lon="-80.4769677271524"><ele>5.2</ele><time>2026-04-19T12:40:31Z</time></trkpt><trkpt lat="25.900365622621884" lon="-80.47703228657657"><ele>5.0</ele><time>2026-04-19T12:40:32Z</time></trkpt><trkpt lat="25.90029207770223" lon="-80.47709547440596"><ele>5.2</ele><time>2026-04-19T12:40:33Z</time></trkpt><trkpt lat="25.90021999963773" lon="-80.47716044627002"><ele>5.4</ele><time>2026-04-19T12:40:34Z</time></trkpt><trkpt lat="25.900147558014044" lon="-80.477227700136"><ele>5.6</ele><time>2026-04-19T12:40:35Z</time></trkpt><trkpt lat="25.9000755653663" lon="-80.47729670422824"><ele>5.8</ele><time>2026-04-19T12:40:36Z</time></trkpt><trkpt lat="25.900005584479768" lon="-80.4773653291395"><ele>6.0</ele><time>2026-04-19T12:40:37Z</time></trkpt><trkpt lat="25.899934103811194" lon="-80.47742822807163"><ele>6.5</ele><time>2026-04-19T12:40:38Z</time></trkpt><trkpt lat="25.89986354817005" lon="-80.47749032746327"><ele>7.0</ele><time>2026-04-19T12:40:39Z</time></trkpt><trkpt lat="25.89979507508111" lon="-80.47755242650344"><ele>7.5</ele><time>2026-04-19T12:40:40Z</time></trkpt><trkpt lat="25.8997274833091" lon="-80.47761451986378"><ele>8.0</ele><time>2026-04-19T12:40:41Z</time></trkpt><trkpt lat="25.899658304129474" lon="-80.47767467825355"><ele>8.5</ele><time>2026-04-19T12:40:42Z</time></trkpt><trkpt lat="25.899589041673888" lon="-80.47773618507482"><ele>9.0</ele><time>2026-04-19T12:40:43Z</time></trkpt><trkpt lat="25.899519813140863" lon="-80.47779908220417"><ele>9.0</ele><time>2026-04-19T12:40:44Z</time></trkpt><trkpt lat="25.899449284061976" lon="-80.47786157087751"><ele>9.0</ele><time>2026-04-19T12:40:45Z</time></trkpt><trkpt lat="25.899380099119362" lon="-80.47792497740964"><ele>9.0</ele><time>2026-04-19T12:40:46Z</time></trkpt><trkpt lat="25.899309659569667" lon="-80.47799079231675"><ele>9.0</ele><time>2026-04-19T12:40:47Z</time></trkpt><trkpt lat="25.89924157584917" lon="-80.47805568172666"><ele>9.0</ele><time>2026-04-19T12:40:48Z</time></trkpt><trkpt lat="25.89916857646969" lon="-80.4781188159092"><ele>8.4</ele><time>2026-04-19T12:40:49Z</time></trkpt><trkpt lat="25.899095599962337" lon="-80.47818562913828"><ele>7.800000000000001</ele><time>2026-04-19T12:40:50Z</time></trkpt><trkpt lat="25.899019359363894" lon="-80.47825464448768"><ele>7.199999999999999</ele><time>2026-04-19T12:40:51Z</time></trkpt><trkpt lat="25.898939080939186" lon="-80.47832516241495"><ele>6.6</ele><time>2026-04-19T12:40:52Z</time></trkpt><trkpt lat="25.898858661913433" lon="-80.47839537932856"><ele>6.0</ele><time>2026-04-19T12:40:53Z</time></trkpt><trkpt lat="25.898775863863463" lon="-80.47846627232475"><ele>6.0</ele><time>2026-04-19T12:40:54Z</time></trkpt><trkpt lat="25.898697662773262" lon="-80.47853930857183"><ele>6.0</ele><time>2026-04-19T12:40:55Z</time></trkpt><trkpt lat="25.898618726364376" lon="-80.4786131211714"><ele>6.0</ele><time>2026-04-19T12:40:56Z</time></trkpt><trkpt lat="25.89854265215334" lon="-80.47868569437549"><ele>6.0</ele><time>2026-04-19T12:40:57Z</time></trkpt><trkpt lat="25.898462877092104" lon="-80.47875381931998"><ele>6.0</ele><time>2026-04-19T12:40:58Z</time></trkpt><trkpt lat="25.89838577028047" lon="-80.47882179078125"><ele>6.0</ele><time>2026-04-19T12:40:59Z</time></trkpt><trkpt lat="25.898311302604927" lon="-80.47889168088153"><ele>6.0</ele><time>2026-04-19T12:41:00Z</time></trkpt><trkpt lat="25.8982359584604" lon="-80.47896372893477"><ele>6.0</ele><time>2026-04-19T12:41:01Z</time></trkpt><trkpt lat="25.898159222125017" lon="-80.4790349163792"><ele>6.0</ele><time>2026-04-19T12:41:02Z</time></trkpt><trkpt lat="25.89808091276187" lon="-80.47910332679054"><ele>6.0</ele><time>2026-04-19T12:41:03Z</time></trkpt><trkpt lat="25.898000362809075" lon="-80.4791695448568"><ele>6.0</ele><time>2026-04-19T12:41:04Z</time></trkpt><trkpt lat="25.897923292298714" lon="-80.47923745017327"><ele>6.0</ele><time>2026-04-19T12:41:05Z</time></trkpt><trkpt lat="25.89784756242302" lon="-80.47930617234277"><ele>6.0</ele><time>2026-04-19T12:41:06Z</time></trkpt><trkpt lat="25.89777357554883" lon="-80.47937343831957"><ele>6.0</ele><time>2026-04-19T12:41:07Z</time></trkpt><trkpt lat="25.897699274062393" lon="-80.47944002186549"><ele>6.0</ele><time>2026-04-19T12:41:08Z</time></trkpt><trkpt lat="25.89762983939214" lon="-80.47950629938549"><ele>5.8</ele><time>2026-04-19T12:41:09Z</time></trkpt><trkpt lat="25.897560000667756" lon="-80.4795717527984"><ele>5.6</ele><time>2026-04-19T12:41:10Z</time></trkpt><trkpt lat="25.897487180332778" lon="-80.47963848302474"><ele>5.4</ele><time>2026-04-19T12:41:11Z</time></trkpt><trkpt lat="25.897414051856348" lon="-80.47970504752489"><ele>5.2</ele><time>2026-04-19T12:41:12Z</time></trkpt><trkpt lat="25.897339288444165" lon="-80.4797728217991"><ele>5.0</ele><time>2026-04-19T12:41:13Z</time></trkpt><trkpt lat="25.89726312775563" lon="-80.47984132429974"><ele>5.0</ele><time>2026-04-19T12:41:14Z</time></trkpt><trkpt lat="25.89718787356749" lon="-80.47991020704474"><ele>5.0</ele><time>2026-04-19T12:41:15Z</time></trkpt><trkpt lat="25.89711123847135" lon="-80.4799805192098"><ele>5.0</ele><time>2026-04-19T12:41:16Z</time></trkpt><trkpt lat="25.897035145580247" lon="-80.48004989500835"><ele>5.0</ele><time>2026-04-19T12:41:17Z</time></trkpt><trkpt lat="25.896959227207137" lon="-80.48011868507228"><ele>5.0</ele><time>2026-04-19T12:41:18Z</time></trkpt><trkpt lat="25.896881825870253" lon="-80.48018791811613"><ele>5.0</ele><time>2026-04-19T12:41:19Z</time></trkpt><trkpt lat="25.89680594301723" lon="-80.48025912305306"><ele>5.0</ele><time>2026-04-19T12:41:19.999Z</time></trkpt><trkpt lat="25.896730750809244" lon="-80.48032856412992"><ele>5.0</ele><time>2026-04-19T12:41:20.999Z</time></trkpt><trkpt lat="25.896654310537834" lon="-80.48039736756665"><ele>5.0</ele><time>2026-04-19T12:41:21.999Z</time></trkpt><trkpt lat="25.896576810605165" lon="-80.48046569760847"><ele>5.0</ele><time>2026-04-19T12:41:22.999Z</time></trkpt><trkpt lat="25.896499541615746" lon="-80.48053290419388"><ele>5.2</ele><time>2026-04-19T12:41:23.999Z</time></trkpt><trkpt lat="25.89642589334821" lon="-80.48060132351429"><ele>5.4</ele><time>2026-04-19T12:41:24.999Z</time></trkpt><trkpt lat="25.896351593943397" lon="-80.48066814740659"><ele>5.6</ele><time>2026-04-19T12:41:25.999Z</time></trkpt><trkpt lat="25.89627735018561" lon="-80.48073575289254"><ele>5.8</ele><time>2026-04-19T12:41:26.999Z</time></trkpt><trkpt lat="25.89620399764526" lon="-80.48080382391879"><ele>6.0</ele><time>2026-04-19T12:41:27.999Z</time></trkpt><trkpt lat="25.896129166572912" lon="-80.48087005256441"><ele>6.0</ele><time>2026-04-19T12:41:28.999Z</time></trkpt><trkpt lat="25.896053510225283" lon="-80.48093753763132"><ele>6.0</ele><time>2026-04-19T12:41:29.999Z</time></trkpt><trkpt lat="25.895979708075405" lon="-80.48100637552206"><ele>6.0</ele><time>2026-04-19T12:41:30.999Z</time></trkpt><trkpt lat="25.89590289175934" lon="-80.4810728683809"><ele>6.0</ele><time>2026-04-19T12:41:31.999Z</time></trkpt><trkpt lat="25.8958293748333" lon="-80.48114061395044"><ele>6.0</ele><time>2026-04-19T12:41:32.999Z</time></trkpt><trkpt lat="25.89575558690133" lon="-80.48120470213625"><ele>6.199999999999999</ele><time>2026-04-19T12:41:33.999Z</time></trkpt><trkpt lat="25.895681650503704" lon="-80.48127179801982"><ele>6.3999999999999995</ele><time>2026-04-19T12:41:34.999Z</time></trkpt><trkpt lat="25.895607379846012" lon="-80.48133863788009"><ele>6.6</ele><time>2026-04-19T12:41:35.999Z</time></trkpt><trkpt lat="25.89553344920322" lon="-80.48140774874335"><ele>6.8</ele><time>2026-04-19T12:41:36.999Z</time></trkpt><trkpt lat="25.895460282620267" lon="-80.48147531937421"><ele>7.0</ele><time>2026-04-19T12:41:37.999Z</time></trkpt><trkpt lat="25.89538394685212" lon="-80.48154172960861"><ele>7.0</ele><time>2026-04-19T12:41:38.999Z</time></trkpt><trkpt lat="25.89530745907311" lon="-80.48160758616517"><ele>6.999999999999999</ele><time>2026-04-19T12:41:39.999Z</time></trkpt><trkpt lat="25.895235313139292" lon="-80.48167562918583"><ele>6.999999999999999</ele><time>2026-04-19T12:41:40.999Z</time></trkpt><trkpt lat="25.895163454454295" lon="-80.48174436172877"><ele>7.0</ele><time>2026-04-19T12:41:41.999Z</time></trkpt><trkpt lat="25.89509350832443" lon="-80.48181138454157"><ele>7.0</ele><time>2026-04-19T12:41:42.999Z</time></trkpt><trkpt lat="25.895024519161918" lon="-80.48187455662072"><ele>6.8</ele><time>2026-04-19T12:41:43.999Z</time></trkpt><trkpt lat="25.89495777772231" lon="-80.48193850056099"><ele>6.6</ele><time>2026-04-19T12:41:44.999Z</time></trkpt><trkpt lat="25.894890202341166" lon="-80.4820022141711"><ele>6.3999999999999995</ele><time>2026-04-19T12:41:45.999Z</time></trkpt><trkpt lat="25.894816074501854" lon="-80.48206322970466"><ele>6.199999999999999</ele><time>2026-04-19T12:41:46.999Z</time></trkpt><trkpt lat="25.894743122258095" lon="-80.48212804786209"><ele>6.0</ele><time>2026-04-19T12:41:47.999Z</time></trkpt><trkpt lat="25.894670416141523" lon="-80.48219524624747"><ele>5.8</ele><time>2026-04-19T12:41:48.999Z</time></trkpt><trkpt lat="25.8945949431947" lon="-80.48225860890874"><ele>5.6</ele><time>2026-04-19T12:41:49.999Z</time></trkpt><trkpt lat="25.89451761979165" lon="-80.48232364822165"><ele>5.4</ele><time>2026-04-19T12:41:50.999Z</time></trkpt><trkpt lat="25.894441355503492" lon="-80.48239284540908"><ele>5.2</ele><time>2026-04-19T12:41:51.999Z</time></trkpt><trkpt lat="25.89436530276152" lon="-80.48246321741966"><ele>5.0</ele><time>2026-04-19T12:41:52.999Z</time></trkpt><trkpt lat="25.894288069330596" lon="-80.4825347270347"><ele>5.2</ele><time>2026-04-19T12:41:53.999Z</time></trkpt><trkpt lat="25.894210803575127" lon="-80.48260525892003"><ele>5.4</ele><time>2026-04-19T12:41:54.999Z</time></trkpt><trkpt lat="25.894133213779735" lon="-80.48267411834041"><ele>5.6</ele><time>2026-04-19T12:41:55.999Z</time></trkpt><trkpt lat="25.894055257417904" lon="-80.4827458610765"><ele>5.8</ele><time>2026-04-19T12:41:56.999Z</time></trkpt><trkpt lat="25.893976047386793" lon="-80.48281660357937"><ele>6.0</ele><time>2026-04-19T12:41:58Z</time></trkpt><trkpt lat="25.8938982837366" lon="-80.48288589474296"><ele>5.2</ele><time>2026-04-19T12:41:59Z</time></trkpt><trkpt lat="25.893821496821232" lon="-80.482954451701"><ele>4.3999999999999995</ele><time>2026-04-19T12:42:00Z</time></trkpt><trkpt lat="25.893745992361396" lon="-80.48302413785785"><ele>3.6</ele><time>2026-04-19T12:42:01Z</time></trkpt><trkpt lat="25.8936772523115" lon="-80.4830903790049"><ele>2.8</ele><time>2026-04-19T12:42:02Z</time></trkpt><trkpt lat="25.893607723349778" lon="-80.48315242189463"><ele>2.0</ele><time>2026-04-19T12:42:03Z</time></trkpt><trkpt lat="25.8935390295489" lon="-80.48321418284324"><ele>2.0</ele><time>2026-04-19T12:42:04Z</time></trkpt><trkpt lat="25.89346947482398" lon="-80.48327873783856"><ele>2.0</ele><time>2026-04-19T12:42:05Z</time></trkpt><trkpt lat="25.89339721782531" lon="-80.48334080779098"><ele>2.0</ele><time>2026-04-19T12:42:06Z</time></trkpt><trkpt lat="25.89332540020944" lon="-80.48340334487114"><ele>2.0</ele><time>2026-04-19T12:42:07Z</time></trkpt><trkpt lat="25.893251684393746" lon="-80.48346557250717"><ele>2.0</ele><time>2026-04-19T12:42:08Z</time></trkpt><trkpt lat="25.893175547503073" lon="-80.48353025256947"><ele>2.6</ele><time>2026-04-19T12:42:09Z</time></trkpt><trkpt lat="25.89309972846328" lon="-80.48359575915562"><ele>3.2</ele><time>2026-04-19T12:42:10Z</time></trkpt><trkpt lat="25.893026581414617" lon="-80.48366234464135"><ele>3.8</ele><time>2026-04-19T12:42:11Z</time></trkpt><trkpt lat="25.892950371453512" lon="-80.4837259160842"><ele>4.4</ele><time>2026-04-19T12:42:12Z</time></trkpt><trkpt lat="25.89287249638374" lon="-80.4837882823073"><ele>5.0</ele><time>2026-04-19T12:42:13Z</time></trkpt><trkpt lat="25.892792218945342" lon="-80.48385094813635"><ele>5.0</ele><time>2026-04-19T12:42:14Z</time></trkpt><trkpt lat="25.89270989831484" lon="-80.48390942098216"><ele>5.0</ele><time>2026-04-19T12:42:15Z</time></trkpt><trkpt lat="25.89262754368331" lon="-80.48396861628092"><ele>5.0</ele><time>2026-04-19T12:42:16Z</time></trkpt><trkpt lat="25.89254527126822" lon="-80.48402663975673"><ele>5.0</ele><time>2026-04-19T12:42:17Z</time></trkpt><trkpt lat="25.892462517365995" lon="-80.48408328439916"><ele>5.0</ele><time>2026-04-19T12:42:18Z</time></trkpt><trkpt lat="25.892376955809514" lon="-80.48413713435131"><ele>5.0</ele><time>2026-04-19T12:42:19Z</time></trkpt><trkpt lat="25.892290019027048" lon="-80.48418890667426"><ele>5.0</ele><time>2026-04-19T12:42:20Z</time></trkpt><trkpt lat="25.89220335849043" lon="-80.48424153168162"><ele>5.0</ele><time>2026-04-19T12:42:21Z</time></trkpt><trkpt lat="25.892117679277987" lon="-80.48429204337216"><ele>5.0</ele><time>2026-04-19T12:42:22Z</time></trkpt><trkpt lat="25.892035633282187" lon="-80.48433991245297"><ele>5.0</ele><time>2026-04-19T12:42:23Z</time></trkpt><trkpt lat="25.89195456848625" lon="-80.48438534076448"><ele>5.0</ele><time>2026-04-19T12:42:24Z</time></trkpt><trkpt lat="25.89187245008076" lon="-80.48442861826788"><ele>5.0</ele><time>2026-04-19T12:42:25Z</time></trkpt><trkpt lat="25.891787868938483" lon="-80.48446774052262"><ele>5.0</ele><time>2026-04-19T12:42:26Z</time></trkpt><trkpt lat="25.8917031008018" lon="-80.48450699693205"><ele>5.0</ele><time>2026-04-19T12:42:27Z</time></trkpt><trkpt lat="25.89161662403806" lon="-80.48454328108282"><ele>5.0</ele><time>2026-04-19T12:42:28Z</time></trkpt><trkpt lat="25.891529593439838" lon="-80.48457709206471"><ele>5.2</ele><time>2026-04-19T12:42:29Z</time></trkpt><trkpt lat="25.89144472814362" lon="-80.48460956232135"><ele>5.4</ele><time>2026-04-19T12:42:30Z</time></trkpt><trkpt lat="25.891358667483914" lon="-80.48464220937522"><ele>5.6</ele><time>2026-04-19T12:42:31Z</time></trkpt><trkpt lat="25.89127069825949" lon="-80.48466992192914"><ele>5.8</ele><time>2026-04-19T12:42:32Z</time></trkpt><trkpt lat="25.891180157650854" lon="-80.48469714770663"><ele>6.0</ele><time>2026-04-19T12:42:33Z</time></trkpt><trkpt lat="25.891087332605803" lon="-80.48472680844871"><ele>6.0</ele><time>2026-04-19T12:42:34Z</time></trkpt><trkpt lat="25.89099217041652" lon="-80.4847543563649"><ele>6.0</ele><time>2026-04-19T12:42:35Z</time></trkpt><trkpt lat="25.89089344964593" lon="-80.48477829762297"><ele>6.0</ele><time>2026-04-19T12:42:36Z</time></trkpt><trkpt lat="25.890795220592352" lon="-80.48480191580151"><ele>6.0</ele><time>2026-04-19T12:42:37Z</time></trkpt><trkpt lat="25.89069642380561" lon="-80.4848207182811"><ele>6.0</ele><time>2026-04-19T12:42:38Z</time></trkpt><trkpt lat="25.890599275193033" lon="-80.48483862037428"><ele>6.199999999999999</ele><time>2026-04-19T12:42:39Z</time></trkpt><trkpt lat="25.89050091732954" lon="-80.48485479009307"><ele>6.3999999999999995</ele><time>2026-04-19T12:42:40Z</time></trkpt><trkpt lat="25.89040278271662" lon="-80.48486905545269"><ele>6.6</ele><time>2026-04-19T12:42:41Z</time></trkpt><trkpt lat="25.890304155253755" lon="-80.48488078762556"><ele>6.8</ele><time>2026-04-19T12:42:42Z</time></trkpt><trkpt lat="25.89020799555326" lon="-80.48489175265908"><ele>7.0</ele><time>2026-04-19T12:42:43Z</time></trkpt><trkpt lat="25.890110733794383" lon="-80.48490127468891"><ele>6.8</ele><time>2026-04-19T12:42:44Z</time></trkpt><trkpt lat="25.89001256187854" lon="-80.48490960358887"><ele>6.6</ele><time>2026-04-19T12:42:45Z</time></trkpt><trkpt lat="25.889913252346343" lon="-80.48491284825474"><ele>6.3999999999999995</ele><time>2026-04-19T12:42:46Z</time></trkpt><trkpt lat="25.88981335064942" lon="-80.48491344726847"><ele>6.199999999999999</ele><time>2026-04-19T12:42:47Z</time></trkpt><trkpt lat="25.88971329420609" lon="-80.4849145729573"><ele>6.0</ele><time>2026-04-19T12:42:48Z</time></trkpt><trkpt lat="25.889611963420457" lon="-80.484913135106"><ele>6.0</ele><time>2026-04-19T12:42:49Z</time></trkpt><trkpt lat="25.889509781485568" lon="-80.48490758352051"><ele>6.0</ele><time>2026-04-19T12:42:50Z</time></trkpt><trkpt lat="25.889404107079407" lon="-80.48490131065212"><ele>6.0</ele><time>2026-04-19T12:42:51Z</time></trkpt><trkpt lat="25.88929701214783" lon="-80.48489370506826"><ele>6.0</ele><time>2026-04-19T12:42:52Z</time></trkpt><trkpt lat="25.88919040186243" lon="-80.48488992966907"><ele>6.0</ele><time>2026-04-19T12:42:53Z</time></trkpt><trkpt lat="25.889084671787337" lon="-80.48488779611438"><ele>5.8</ele><time>2026-04-19T12:42:54Z</time></trkpt><trkpt lat="25.88897861725367" lon="-80.48488408792159"><ele>5.6</ele><time>2026-04-19T12:42:55Z</time></trkpt><trkpt lat="25.88887642533258" lon="-80.48487979022738"><ele>5.4</ele><time>2026-04-19T12:42:56Z</time></trkpt><trkpt lat="25.888771450971763" lon="-80.48487742536258"><ele>5.2</ele><time>2026-04-19T12:42:57Z</time></trkpt><trkpt lat="25.888668494544525" lon="-80.48487415806704"><ele>5.0</ele><time>2026-04-19T12:42:58Z</time></trkpt><trkpt lat="25.888564234416478" lon="-80.48487095386338"><ele>5.0</ele><time>2026-04-19T12:42:59Z</time></trkpt><trkpt lat="25.888458670773247" lon="-80.48486575787885"><ele>5.0</ele><time>2026-04-19T12:43:00Z</time></trkpt><trkpt lat="25.888355227672434" lon="-80.48486261194728"><ele>5.0</ele><time>2026-04-19T12:43:01Z</time></trkpt><trkpt lat="25.888248828111053" lon="-80.48485652065678"><ele>5.0</ele><time>2026-04-19T12:43:02Z</time></trkpt><trkpt lat="25.88814431683679" lon="-80.48485167654543"><ele>5.0</ele><time>2026-04-19T12:43:03Z</time></trkpt><trkpt lat="25.88803849305436" lon="-80.48484886853667"><ele>5.2</ele><time>2026-04-19T12:43:04Z</time></trkpt><trkpt lat="25.88793249090218" lon="-80.48484384339565"><ele>5.4</ele><time>2026-04-19T12:43:05Z</time></trkpt><trkpt lat="25.88782460857159" lon="-80.48483669608925"><ele>5.6</ele><time>2026-04-19T12:43:06Z</time></trkpt><trkpt lat="25.887716069350404" lon="-80.48483249718886"><ele>5.8</ele><time>2026-04-19T12:43:07Z</time></trkpt><trkpt lat="25.887605955977307" lon="-80.48482793093213"><ele>6.0</ele><time>2026-04-19T12:43:08Z</time></trkpt><trkpt lat="25.887494362640314" lon="-80.48482349909719"><ele>6.0</ele><time>2026-04-19T12:43:09Z</time></trkpt><trkpt lat="25.887378561586882" lon="-80.48481684418907"><ele>6.0</ele><time>2026-04-19T12:43:10Z</time></trkpt><trkpt lat="25.887261972382653" lon="-80.48481273537627"><ele>6.0</ele><time>2026-04-19T12:43:11Z</time></trkpt><trkpt lat="25.887142864628096" lon="-80.484803941081"><ele>6.0</ele><time>2026-04-19T12:43:12Z</time></trkpt><trkpt lat="25.887022431080865" lon="-80.48479667910982"><ele>6.0</ele><time>2026-04-19T12:43:13Z</time></trkpt><trkpt lat="25.886904354927267" lon="-80.48479220141974"><ele>6.0</ele><time>2026-04-19T12:43:14Z</time></trkpt><trkpt lat="25.886788845164705" lon="-80.48478666508099"><ele>6.0</ele><time>2026-04-19T12:43:15Z</time></trkpt><trkpt lat="25.886672726625278" lon="-80.4847808005178"><ele>6.0</ele><time>2026-04-19T12:43:16Z</time></trkpt><trkpt lat="25.88655711267919" lon="-80.48477612814855"><ele>5.8</ele><time>2026-04-19T12:43:17Z</time></trkpt><trkpt lat="25.88644198502185" lon="-80.48477032939581"><ele>5.6</ele><time>2026-04-19T12:43:18Z</time></trkpt><trkpt lat="25.886329520096226" lon="-80.48476711571473"><ele>5.4</ele><time>2026-04-19T12:43:19Z</time></trkpt><trkpt lat="25.886222031061457" lon="-80.48476102838255"><ele>5.2</ele><time>2026-04-19T12:43:20Z</time></trkpt><trkpt lat="25.886119776305513" lon="-80.48475618211575"><ele>5.0</ele><time>2026-04-19T12:43:21Z</time></trkpt><trkpt lat="25.886023637518154" lon="-80.48475071805208"><ele>4.6</ele><time>2026-04-19T12:43:22Z</time></trkpt><trkpt lat="25.885927947445726" lon="-80.4847464467623"><ele>4.2</ele><time>2026-04-19T12:43:22.999Z</time></trkpt><trkpt lat="25.885828817410427" lon="-80.48473749431518"><ele>3.8</ele><time>2026-04-19T12:43:23.999Z</time></trkpt><trkpt lat="25.885726999882962" lon="-80.48473687782375"><ele>3.4</ele><time>2026-04-19T12:43:24.999Z</time></trkpt><trkpt lat="25.885625892833847" lon="-80.48473420394316"><ele>3.0</ele><time>2026-04-19T12:43:25.999Z</time></trkpt><trkpt lat="25.88552741328533" lon="-80.48472788140852"><ele>3.0</ele><time>2026-04-19T12:43:26.999Z</time></trkpt><trkpt lat="25.88542944822886" lon="-80.48472138393166"><ele>3.0</ele><time>2026-04-19T12:43:27.999Z</time></trkpt><trkpt lat="25.88533354608655" lon="-80.4847137794172"><ele>3.0</ele><time>2026-04-19T12:43:28.999Z</time></trkpt><trkpt lat="25.88523802287141" lon="-80.48470437857995"><ele>3.0</ele><time>2026-04-19T12:43:29.999Z</time></trkpt><trkpt lat="25.885143373454248" lon="-80.48469904718252"><ele>3.0</ele><time>2026-04-19T12:43:30.999Z</time></trkpt><trkpt lat="25.885048854635695" lon="-80.48469326330739"><ele>2.8</ele><time>2026-04-19T12:43:31.999Z</time></trkpt><trkpt lat="25.884953774142424" lon="-80.48468984498238"><ele>2.5999999999999996</ele><time>2026-04-19T12:43:32.999Z</time></trkpt><trkpt lat="25.884859116659015" lon="-80.48468559509224"><ele>2.4000000000000004</ele><time>2026-04-19T12:43:33.999Z</time></trkpt><trkpt lat="25.88476464163905" lon="-80.48468484760996"><ele>2.2</ele><time>2026-04-19T12:43:34.999Z</time></trkpt><trkpt lat="25.884671888879428" lon="-80.48468910018477"><ele>2.0</ele><time>2026-04-19T12:43:35.999Z</time></trkpt><trkpt lat="25.8845808009468" lon="-80.48468374653358"><ele>2.0</ele><time>2026-04-19T12:43:36.999Z</time></trkpt><trkpt lat="25.884489375227204" lon="-80.48467537693597"><ele>2.0</ele><time>2026-04-19T12:43:37.999Z</time></trkpt><trkpt lat="25.884395259495253" lon="-80.48467113288473"><ele>2.0</ele><time>2026-04-19T12:43:38.999Z</time></trkpt><trkpt lat="25.88429866481999" lon="-80.48467021811614"><ele>2.0</ele><time>2026-04-19T12:43:39.999Z</time></trkpt><trkpt lat="25.884204529619844" lon="-80.48466870156616"><ele>2.0</ele><time>2026-04-19T12:43:40.999Z</time></trkpt><trkpt lat="25.884113264003975" lon="-80.48466401295887"><ele>2.1666666666666665</ele><time>2026-04-19T12:43:41.999Z</time></trkpt><trkpt lat="25.88402583897481" lon="-80.48466406202664"><ele>2.333333333333333</ele><time>2026-04-19T12:43:42.999Z</time></trkpt><trkpt lat="25.883937854034862" lon="-80.4846616245277"><ele>2.5</ele><time>2026-04-19T12:43:43.999Z</time></trkpt><trkpt lat="25.88384859891614" lon="-80.48465710757367"><ele>2.6666666666666665</ele><time>2026-04-19T12:43:44.999Z</time></trkpt><trkpt lat="25.8837581539561" lon="-80.48465461130866"><ele>2.8333333333333335</ele><time>2026-04-19T12:43:45.999Z</time></trkpt><trkpt lat="25.88366807838659" lon="-80.48465411277061"><ele>3.0</ele><time>2026-04-19T12:43:46.999Z</time></trkpt><trkpt lat="25.88357442065" lon="-80.4846539985571"><ele>3.0</ele><time>2026-04-19T12:43:47.999Z</time></trkpt><trkpt lat="25.883479939675063" lon="-80.4846513296731"><ele>3.0</ele><time>2026-04-19T12:43:48.999Z</time></trkpt><trkpt lat="25.883382419877645" lon="-80.48464941223413"><ele>3.0</ele><time>2026-04-19T12:43:49.999Z</time></trkpt><trkpt lat="25.883283882757457" lon="-80.48464760579975"><ele>3.0</ele><time>2026-04-19T12:43:50.999Z</time></trkpt><trkpt lat="25.88318517225732" lon="-80.48464486529761"><ele>3.0</ele><time>2026-04-19T12:43:51.999Z</time></trkpt><trkpt lat="25.883088653030537" lon="-80.48464039645505"><ele>3.4</ele><time>2026-04-19T12:43:52.999Z</time></trkpt><trkpt lat="25.88299189189959" lon="-80.48463662093768"><ele>3.8</ele><time>2026-04-19T12:43:53.999Z</time></trkpt><trkpt lat="25.882890344532967" lon="-80.48463310955627"><ele>4.2</ele><time>2026-04-19T12:43:54.999Z</time></trkpt><trkpt lat="25.882788083516253" lon="-80.48462867224873"><ele>4.6</ele><time>2026-04-19T12:43:55.999Z</time></trkpt><trkpt lat="25.882681024050882" lon="-80.48462463078587"><ele>5.0</ele><time>2026-04-19T12:43:56.999Z</time></trkpt><trkpt lat="25.88257179955007" lon="-80.48462311516639"><ele>5.4</ele><time>2026-04-19T12:43:57.999Z</time></trkpt><trkpt lat="25.882462189545343" lon="-80.48461883190465"><ele>5.8</ele><time>2026-04-19T12:43:58.999Z</time></trkpt><trkpt lat="25.88235478315942" lon="-80.48461514543709"><ele>6.199999999999999</ele><time>2026-04-19T12:43:59.999Z</time></trkpt><trkpt lat="25.882247819965205" lon="-80.48461132467004"><ele>6.6</ele><time>2026-04-19T12:44:00.999Z</time></trkpt><trkpt lat="25.88214082765415" lon="-80.48460850644301"><ele>7.0</ele><time>2026-04-19T12:44:01.999Z</time></trkpt><trkpt lat="25.88203340921589" lon="-80.48460508800827"><ele>7.0</ele><time>2026-04-19T12:44:02.999Z</time></trkpt><trkpt lat="25.881924639366915" lon="-80.48460072061943"><ele>6.999999999999999</ele><time>2026-04-19T12:44:04Z</time></trkpt><trkpt lat="25.881817580483727" lon="-80.48459690564192"><ele>6.999999999999999</ele><time>2026-04-19T12:44:05Z</time></trkpt><trkpt lat="25.88171410633799" lon="-80.48459407927592"><ele>7.0</ele><time>2026-04-19T12:44:06Z</time></trkpt><trkpt lat="25.881613793057728" lon="-80.4845904225942"><ele>7.0</ele><time>2026-04-19T12:44:07Z</time></trkpt><trkpt lat="25.88151225636798" lon="-80.48458797373198"><ele>7.199999999999999</ele><time>2026-04-19T12:44:08Z</time></trkpt><trkpt lat="25.88141383705433" lon="-80.48458404755328"><ele>7.3999999999999995</ele><time>2026-04-19T12:44:09Z</time></trkpt><trkpt lat="25.88131668437899" lon="-80.48457981940837"><ele>7.6000000000000005</ele><time>2026-04-19T12:44:10Z</time></trkpt><trkpt lat="25.881219301681597" lon="-80.48457703700883"><ele>7.800000000000001</ele><time>2026-04-19T12:44:11Z</time></trkpt><trkpt lat="25.881123844276956" lon="-80.48457282989312"><ele>8.0</ele><time>2026-04-19T12:44:12Z</time></trkpt><trkpt lat="25.881026529724494" lon="-80.48456923718463"><ele>7.4</ele><time>2026-04-19T12:44:13Z</time></trkpt><trkpt lat="25.88092692993659" lon="-80.48456602892026"><ele>6.800000000000001</ele><time>2026-04-19T12:44:14Z</time></trkpt><trkpt lat="25.880825993498963" lon="-80.48456281391225"><ele>6.2</ele><time>2026-04-19T12:44:15Z</time></trkpt><trkpt lat="25.880727636147988" lon="-80.4845596051038"><ele>5.6</ele><time>2026-04-19T12:44:16Z</time></trkpt><trkpt lat="25.880630393925948" lon="-80.4845566516025"><ele>5.0</ele><time>2026-04-19T12:44:17Z</time></trkpt><trkpt lat="25.880535580868283" lon="-80.48455248894354"><ele>5.0</ele><time>2026-04-19T12:44:18Z</time></trkpt><trkpt lat="25.88044363467535" lon="-80.48454872494493"><ele>5.0</ele><time>2026-04-19T12:44:19Z</time></trkpt><trkpt lat="25.880351335469353" lon="-80.484544778398"><ele>5.0</ele><time>2026-04-19T12:44:20Z</time></trkpt><trkpt lat="25.880260015522655" lon="-80.48454101315511"><ele>5.0</ele><time>2026-04-19T12:44:21Z</time></trkpt><trkpt lat="25.8801685528669" lon="-80.48453880576506"><ele>5.0</ele><time>2026-04-19T12:44:22Z</time></trkpt><trkpt lat="25.880077213864645" lon="-80.4845379075408"><ele>5.4</ele><time>2026-04-19T12:44:23Z</time></trkpt><trkpt lat="25.879985432658493" lon="-80.48453432389998"><ele>5.8</ele><time>2026-04-19T12:44:24Z</time></trkpt><trkpt lat="25.879893725337002" lon="-80.48453069419375"><ele>6.199999999999999</ele><time>2026-04-19T12:44:25Z</time></trkpt><trkpt lat="25.87980215640867" lon="-80.48452859191308"><ele>6.6</ele><time>2026-04-19T12:44:26Z</time></trkpt><trkpt lat="25.879708319281008" lon="-80.48452673829121"><ele>7.0</ele><time>2026-04-19T12:44:27Z</time></trkpt><trkpt lat="25.879615711433345" lon="-80.48452174821114"><ele>7.0</ele><time>2026-04-19T12:44:28Z</time></trkpt><trkpt lat="25.879523163638304" lon="-80.48451742374446"><ele>6.999999999999999</ele><time>2026-04-19T12:44:29Z</time></trkpt><trkpt lat="25.879430286708644" lon="-80.48451439882537"><ele>6.999999999999999</ele><time>2026-04-19T12:44:30Z</time></trkpt><trkpt lat="25.879335797680955" lon="-80.48451174521894"><ele>7.0</ele><time>2026-04-19T12:44:31Z</time></trkpt><trkpt lat="25.87924060516071" lon="-80.48450782474517"><ele>7.0</ele><time>2026-04-19T12:44:32Z</time></trkpt><trkpt lat="25.87914342481916" lon="-80.48450439205641"><ele>6.8</ele><time>2026-04-19T12:44:33Z</time></trkpt><trkpt lat="25.879043040563843" lon="-80.48450171179736"><ele>6.6</ele><time>2026-04-19T12:44:34Z</time></trkpt><trkpt lat="25.878939767657066" lon="-80.48449754433892"><ele>6.3999999999999995</ele><time>2026-04-19T12:44:35Z</time></trkpt><trkpt lat="25.878835257883246" lon="-80.48449561978263"><ele>6.199999999999999</ele><time>2026-04-19T12:44:36Z</time></trkpt><trkpt lat="25.878728390647495" lon="-80.48448985277625"><ele>6.0</ele><time>2026-04-19T12:44:37Z</time></trkpt><trkpt lat="25.878623753132537" lon="-80.48448781516042"><ele>6.0</ele><time>2026-04-19T12:44:38Z</time></trkpt><trkpt lat="25.878517308883463" lon="-80.48448476595168"><ele>6.0</ele><time>2026-04-19T12:44:39Z</time></trkpt><trkpt lat="25.878413213155465" lon="-80.48448060024596"><ele>6.0</ele><time>2026-04-19T12:44:40Z</time></trkpt><trkpt lat="25.87830866015494" lon="-80.4844767778114"><ele>6.0</ele><time>2026-04-19T12:44:41Z</time></trkpt><trkpt lat="25.878203985887232" lon="-80.48447282190726"><ele>6.0</ele><time>2026-04-19T12:44:42Z</time></trkpt><trkpt lat="25.878098094089445" lon="-80.48446827762018"><ele>6.199999999999999</ele><time>2026-04-19T12:44:43Z</time></trkpt><trkpt lat="25.87799435691852" lon="-80.48446665021748"><ele>6.3999999999999995</ele><time>2026-04-19T12:44:44Z</time></trkpt><trkpt lat="25.877890772840054" lon="-80.48446323177677"><ele>6.6</ele><time>2026-04-19T12:44:45Z</time></trkpt><trkpt lat="25.877787644680883" lon="-80.48446067627783"><ele>6.8</ele><time>2026-04-19T12:44:46Z</time></trkpt><trkpt lat="25.87768357757405" lon="-80.48445693309978"><ele>7.0</ele><time>2026-04-19T12:44:47Z</time></trkpt><trkpt lat="25.877579088711716" lon="-80.48445203695465"><ele>7.0</ele><time>2026-04-19T12:44:48Z</time></trkpt><trkpt lat="25.877475004024806" lon="-80.4844485318409"><ele>6.999999999999999</ele><time>2026-04-19T12:44:49Z</time></trkpt><trkpt lat="25.877373161792477" lon="-80.48444364070467"><ele>6.999999999999999</ele><time>2026-04-19T12:44:50Z</time></trkpt><trkpt lat="25.87727043444328" lon="-80.48443991613938"><ele>7.0</ele><time>2026-04-19T12:44:51Z</time></trkpt><trkpt lat="25.87716675402299" lon="-80.48443492888084"><ele>7.0</ele><time>2026-04-19T12:44:52Z</time></trkpt><trkpt lat="25.877064539904364" lon="-80.48443214410122"><ele>7.0</ele><time>2026-04-19T12:44:53Z</time></trkpt><trkpt lat="25.87696138647196" lon="-80.48443038373024"><ele>6.999999999999999</ele><time>2026-04-19T12:44:54Z</time></trkpt><trkpt lat="25.876862165830204" lon="-80.48442759787125"><ele>6.999999999999999</ele><time>2026-04-19T12:44:55Z</time></trkpt><trkpt lat="25.876762917845127" lon="-80.48442455290724"><ele>7.0</ele><time>2026-04-19T12:44:56Z</time></trkpt><trkpt lat="25.8766652538575" lon="-80.48442095788548"><ele>7.0</ele><time>2026-04-19T12:44:57Z</time></trkpt><trkpt lat="25.876568115692248" lon="-80.48441800820605"><ele>7.0</ele><time>2026-04-19T12:44:58Z</time></trkpt><trkpt lat="25.876471085585916" lon="-80.48441428931794"><ele>6.999999999999999</ele><time>2026-04-19T12:44:59Z</time></trkpt><trkpt lat="25.876374417731338" lon="-80.48441188422771"><ele>6.999999999999999</ele><time>2026-04-19T12:45:00Z</time></trkpt><trkpt lat="25.87627874924626" lon="-80.48440809175574"><ele>7.0</ele><time>2026-04-19T12:45:01Z</time></trkpt><trkpt lat="25.87618970334706" lon="-80.48440664354587"><ele>7.0</ele><time>2026-04-19T12:45:02Z</time></trkpt><trkpt lat="25.876102531409817" lon="-80.48440357198153"><ele>7.0</ele><time>2026-04-19T12:45:03Z</time></trkpt><trkpt lat="25.87601416673885" lon="-80.48440142429475"><ele>6.999999999999999</ele><time>2026-04-19T12:45:04Z</time></trkpt><trkpt lat="25.87592379319616" lon="-80.48439738193676"><ele>6.999999999999999</ele><time>2026-04-19T12:45:05Z</time></trkpt><trkpt lat="25.875831517485754" lon="-80.48439410625882"><ele>7.0</ele><time>2026-04-19T12:45:06Z</time></trkpt><trkpt lat="25.875737104664005" lon="-80.48439033310166"><ele>7.0</ele><time>2026-04-19T12:45:07Z</time></trkpt><trkpt lat="25.875643998303055" lon="-80.4843861543959"><ele>7.199999999999999</ele><time>2026-04-19T12:45:08Z</time></trkpt><trkpt lat="25.875548465070246" lon="-80.48438356497675"><ele>7.3999999999999995</ele><time>2026-04-19T12:45:09Z</time></trkpt><trkpt lat="25.87545228082118" lon="-80.48437951417299"><ele>7.6000000000000005</ele><time>2026-04-19T12:45:10Z</time></trkpt><trkpt lat="25.87535782523268" lon="-80.48437780539518"><ele>7.800000000000001</ele><time>2026-04-19T12:45:11Z</time></trkpt><trkpt lat="25.875264298564954" lon="-80.48437318205272"><ele>8.0</ele><time>2026-04-19T12:45:12Z</time></trkpt><trkpt lat="25.875170437362776" lon="-80.48437161118115"><ele>7.6000000000000005</ele><time>2026-04-19T12:45:13Z</time></trkpt><trkpt lat="25.875075376969907" lon="-80.48436801775942"><ele>7.200000000000001</ele><time>2026-04-19T12:45:14Z</time></trkpt><trkpt lat="25.874979187727792" lon="-80.48436516330113"><ele>6.8</ele><time>2026-04-19T12:45:15Z</time></trkpt><trkpt lat="25.874882141552934" lon="-80.48436216484558"><ele>6.4</ele><time>2026-04-19T12:45:16Z</time></trkpt><trkpt lat="25.874780460610268" lon="-80.48435846059944"><ele>6.0</ele><time>2026-04-19T12:45:17Z</time></trkpt><trkpt lat="25.874677688173563" lon="-80.48435375726993"><ele>6.0</ele><time>2026-04-19T12:45:18Z</time></trkpt><trkpt lat="25.87457363313258" lon="-80.48434990042327"><ele>6.0</ele><time>2026-04-19T12:45:19Z</time></trkpt><trkpt lat="25.874466427795788" lon="-80.48434775104953"><ele>6.0</ele><time>2026-04-19T12:45:20Z</time></trkpt><trkpt lat="25.874357930608106" lon="-80.48434458784214"><ele>6.0</ele><time>2026-04-19T12:45:21Z</time></trkpt><trkpt lat="25.874249986315444" lon="-80.48434034724754"><ele>6.0</ele><time>2026-04-19T12:45:22Z</time></trkpt><trkpt lat="25.874140705051587" lon="-80.48433620866967"><ele>5.6</ele><time>2026-04-19T12:45:23Z</time></trkpt><trkpt lat="25.874031284513034" lon="-80.48433127304784"><ele>5.199999999999999</ele><time>2026-04-19T12:45:24Z</time></trkpt><trkpt lat="25.873922866186472" lon="-80.4843277239225"><ele>4.800000000000001</ele><time>2026-04-19T12:45:25Z</time></trkpt><trkpt lat="25.873814668055655" lon="-80.48432238331412"><ele>4.4</ele><time>2026-04-19T12:45:25.999Z</time></trkpt><trkpt lat="25.873707162940825" lon="-80.48431787288749"><ele>4.0</ele><time>2026-04-19T12:45:26.999Z</time></trkpt><trkpt lat="25.873599177368455" lon="-80.48431573336954"><ele>4.0</ele><time>2026-04-19T12:45:27.999Z</time></trkpt><trkpt lat="25.873492760606386" lon="-80.48431325666026"><ele>4.0</ele><time>2026-04-19T12:45:28.999Z</time></trkpt><trkpt lat="25.873388349701052" lon="-80.4843101129553"><ele>4.0</ele><time>2026-04-19T12:45:29.999Z</time></trkpt><trkpt lat="25.87328725704591" lon="-80.48430632209006"><ele>4.0</ele><time>2026-04-19T12:45:30.999Z</time></trkpt><trkpt lat="25.873189554803236" lon="-80.48430307956318"><ele>4.0</ele><time>2026-04-19T12:45:31.999Z</time></trkpt><trkpt lat="25.873091744067626" lon="-80.4842982920617"><ele>4.6</ele><time>2026-04-19T12:45:32.999Z</time></trkpt><trkpt lat="25.872993936648463" lon="-80.4842938969447"><ele>5.2</ele><time>2026-04-19T12:45:33.999Z</time></trkpt><trkpt lat="25.872893823129036" lon="-80.48429044518993"><ele>5.799999999999999</ele><time>2026-04-19T12:45:34.999Z</time></trkpt><trkpt lat="25.872791568285283" lon="-80.48428658196747"><ele>6.3999999999999995</ele><time>2026-04-19T12:45:35.999Z</time></trkpt><trkpt lat="25.87268931678565" lon="-80.48428216077549"><ele>7.0</ele><time>2026-04-19T12:45:36.999Z</time></trkpt><trkpt lat="25.872588154175126" lon="-80.48427857951506"><ele>7.0</ele><time>2026-04-19T12:45:37.999Z</time></trkpt><trkpt lat="25.8724870645682" lon="-80.48427488557427"><ele>6.999999999999999</ele><time>2026-04-19T12:45:38.999Z</time></trkpt><trkpt lat="25.872387410933463" lon="-80.48427424889856"><ele>6.999999999999999</ele><time>2026-04-19T12:45:39.999Z</time></trkpt><trkpt lat="25.872288571455783" lon="-80.48427150302727"><ele>7.0</ele><time>2026-04-19T12:45:40.999Z</time></trkpt><trkpt lat="25.87219132300272" lon="-80.48426949679569"><ele>7.0</ele><time>2026-04-19T12:45:41.999Z</time></trkpt><trkpt lat="25.87209490353281" lon="-80.48426657251952"><ele>7.0</ele><time>2026-04-19T12:45:42.999Z</time></trkpt><trkpt lat="25.871999805277653" lon="-80.48426367555409"><ele>6.999999999999999</ele><time>2026-04-19T12:45:43.999Z</time></trkpt><trkpt lat="25.87190518013807" lon="-80.48426036971792"><ele>6.999999999999999</ele><time>2026-04-19T12:45:44.999Z</time></trkpt><trkpt lat="25.87181000626048" lon="-80.48425929626383"><ele>7.0</ele><time>2026-04-19T12:45:45.999Z</time></trkpt><trkpt lat="25.871714002624582" lon="-80.48425643938131"><ele>7.0</ele><time>2026-04-19T12:45:46.999Z</time></trkpt><trkpt lat="25.871617266631674" lon="-80.48425393903288"><ele>6.6</ele><time>2026-04-19T12:45:47.999Z</time></trkpt><trkpt lat="25.87152129255729" lon="-80.48425251084579"><ele>6.199999999999999</ele><time>2026-04-19T12:45:48.999Z</time></trkpt><trkpt lat="25.871424853727863" lon="-80.4842506015"><ele>5.8</ele><time>2026-04-19T12:45:49.999Z</time></trkpt><trkpt lat="25.871329522935685" lon="-80.48424680830456"><ele>5.4</ele><time>2026-04-19T12:45:50.999Z</time></trkpt><trkpt lat="25.871236690373426" lon="-80.48424359684246"><ele>5.0</ele><time>2026-04-19T12:45:51.999Z</time></trkpt><trkpt lat="25.87114370972199" lon="-80.48423983322844"><ele>5.0</ele><time>2026-04-19T12:45:52.999Z</time></trkpt><trkpt lat="25.87104936347934" lon="-80.48423590845765"><ele>5.0</ele><time>2026-04-19T12:45:53.999Z</time></trkpt><trkpt lat="25.87095532160102" lon="-80.48423425219627"><ele>5.0</ele><time>2026-04-19T12:45:54.999Z</time></trkpt><trkpt lat="25.870860695784696" lon="-80.48423253334094"><ele>5.0</ele><time>2026-04-19T12:45:55.999Z</time></trkpt><trkpt lat="25.87076440898552" lon="-80.48423063796102"><ele>5.0</ele><time>2026-04-19T12:45:56.999Z</time></trkpt><trkpt lat="25.870667969284785" lon="-80.4842278228931"><ele>4.8</ele><time>2026-04-19T12:45:57.999Z</time></trkpt><trkpt lat="25.87057126577301" lon="-80.48422448834586"><ele>4.6</ele><time>2026-04-19T12:45:58.999Z</time></trkpt><trkpt lat="25.87047474599821" lon="-80.48422436312815"><ele>4.4</ele><time>2026-04-19T12:45:59.999Z</time></trkpt><trkpt lat="25.87037842749655" lon="-80.48422293639968"><ele>4.2</ele><time>2026-04-19T12:46:00.999Z</time></trkpt><trkpt lat="25.870282729086785" lon="-80.48421948992114"><ele>4.0</ele><time>2026-04-19T12:46:01.999Z</time></trkpt><trkpt lat="25.870182666043753" lon="-80.48421574829278"><ele>4.6</ele><time>2026-04-19T12:46:02.999Z</time></trkpt><trkpt lat="25.870081265851773" lon="-80.48421160529207"><ele>5.2</ele><time>2026-04-19T12:46:03.999Z</time></trkpt><trkpt lat="25.869978784246552" lon="-80.48420912604672"><ele>5.799999999999999</ele><time>2026-04-19T12:46:04.999Z</time></trkpt><trkpt lat="25.869870671575445" lon="-80.4842051726877"><ele>6.3999999999999995</ele><time>2026-04-19T12:46:05.999Z</time></trkpt><trkpt lat="25.86976326483997" lon="-80.48420371863826"><ele>7.0</ele><time>2026-04-19T12:46:06.999Z</time></trkpt><trkpt lat="25.869653140429282" lon="-80.48419826576296"><ele>7.0</ele><time>2026-04-19T12:46:07.999Z</time></trkpt><trkpt lat="25.869542042523804" lon="-80.48419501495158"><ele>7.0</ele><time>2026-04-19T12:46:08.999Z</time></trkpt><trkpt lat="25.86942948642109" lon="-80.48418965537147"><ele>7.0</ele><time>2026-04-19T12:46:10Z</time></trkpt><trkpt lat="25.86931643487591" lon="-80.48418218183146"><ele>7.0</ele><time>2026-04-19T12:46:11Z</time></trkpt><trkpt lat="25.869201157509192" lon="-80.48417119428883"><ele>7.0</ele><time>2026-04-19T12:46:12Z</time></trkpt><trkpt lat="25.869086673867077" lon="-80.48416696884078"><ele>7.0</ele><time>2026-04-19T12:46:13Z</time></trkpt><trkpt lat="25.86897225111133" lon="-80.48416628258582"><ele>7.0</ele><time>2026-04-19T12:46:14Z</time></trkpt><trkpt lat="25.868858339599996" lon="-80.48416962258437"><ele>7.0</ele><time>2026-04-19T12:46:15Z</time></trkpt><trkpt lat="25.868745225663442" lon="-80.48416926711474"><ele>7.0</ele><time>2026-04-19T12:46:16Z</time></trkpt><trkpt lat="25.868635236146297" lon="-80.48417369563764"><ele>6.999999999999999</ele><time>2026-04-19T12:46:17Z</time></trkpt><trkpt lat="25.86852616708235" lon="-80.48417381383625"><ele>6.999999999999999</ele><time>2026-04-19T12:46:18Z</time></trkpt><trkpt lat="25.86841508122831" lon="-80.48416782872016"><ele>7.0</ele><time>2026-04-19T12:46:19Z</time></trkpt><trkpt lat="25.868302138570197" lon="-80.48416307554541"><ele>7.0</ele><time>2026-04-19T12:46:20Z</time></trkpt><trkpt lat="25.868189351292333" lon="-80.48416276248743"><ele>6.75</ele><time>2026-04-19T12:46:21Z</time></trkpt><trkpt lat="25.86807567650805" lon="-80.48416043590369"><ele>6.5</ele><time>2026-04-19T12:46:22Z</time></trkpt><trkpt lat="25.86795869495824" lon="-80.48415706026742"><ele>6.25</ele><time>2026-04-19T12:46:23Z</time></trkpt><trkpt lat="25.867840630213017" lon="-80.48415578068877"><ele>6.0</ele><time>2026-04-19T12:46:24Z</time></trkpt><trkpt lat="25.867724235088595" lon="-80.48415626413563"><ele>6.25</ele><time>2026-04-19T12:46:25Z</time></trkpt><trkpt lat="25.86760972926199" lon="-80.48415387217938"><ele>6.5</ele><time>2026-04-19T12:46:26Z</time></trkpt><trkpt lat="25.867497982937635" lon="-80.48415490270058"><ele>6.75</ele><time>2026-04-19T12:46:27Z</time></trkpt><trkpt lat="25.86738625664128" lon="-80.48415465968183"><ele>7.0</ele><time>2026-04-19T12:46:28Z</time></trkpt><trkpt lat="25.867271691562998" lon="-80.48415247387955"><ele>7.0</ele><time>2026-04-19T12:46:29Z</time></trkpt><trkpt lat="25.86715636093703" lon="-80.48415094466905"><ele>7.0</ele><time>2026-04-19T12:46:30Z</time></trkpt><trkpt lat="25.867039495538055" lon="-80.48415073468924"><ele>7.0</ele><time>2026-04-19T12:46:31Z</time></trkpt><trkpt lat="25.866923126845226" lon="-80.4841544371835"><ele>7.0</ele><time>2026-04-19T12:46:32Z</time></trkpt><trkpt lat="25.86680688415783" lon="-80.4841572018381"><ele>6.75</ele><time>2026-04-19T12:46:33Z</time></trkpt><trkpt lat="25.86669101951672" lon="-80.4841627466092"><ele>6.5</ele><time>2026-04-19T12:46:34Z</time></trkpt><trkpt lat="25.866577311407852" lon="-80.484171186827"><ele>6.25</ele><time>2026-04-19T12:46:35Z</time></trkpt><trkpt lat="25.86646645663032" lon="-80.48417551430258"><ele>6.0</ele><time>2026-04-19T12:46:36Z</time></trkpt><trkpt lat="25.866356909019142" lon="-80.48417517794636"><ele>6.0</ele><time>2026-04-19T12:46:37Z</time></trkpt><trkpt lat="25.866247666833086" lon="-80.48417367576918"><ele>6.0</ele><time>2026-04-19T12:46:38Z</time></trkpt><trkpt lat="25.866136091064483" lon="-80.4841719298512"><ele>6.0</ele><time>2026-04-19T12:46:39Z</time></trkpt><trkpt lat="25.866026622739465" lon="-80.48417021805544"><ele>6.0</ele><time>2026-04-19T12:46:40Z</time></trkpt><trkpt lat="25.865916814861674" lon="-80.48416917602735"><ele>6.0</ele><time>2026-04-19T12:46:41Z</time></trkpt><trkpt lat="25.865807521940283" lon="-80.48416896767766"><ele>5.8</ele><time>2026-04-19T12:46:42Z</time></trkpt><trkpt lat="25.865698697400774" lon="-80.4841675263734"><ele>5.6</ele><time>2026-04-19T12:46:43Z</time></trkpt><trkpt lat="25.865590187887324" lon="-80.48416572308618"><ele>5.4</ele><time>2026-04-19T12:46:44Z</time></trkpt><trkpt lat="25.865483603321255" lon="-80.48416721565019"><ele>5.2</ele><time>2026-04-19T12:46:45Z</time></trkpt><trkpt lat="25.865378333371204" lon="-80.4841661711435"><ele>5.0</ele><time>2026-04-19T12:46:46Z</time></trkpt><trkpt lat="25.86527265971048" lon="-80.48416578440145"><ele>5.0</ele><time>2026-04-19T12:46:47Z</time></trkpt><trkpt lat="25.865169366801968" lon="-80.484165049259"><ele>5.0</ele><time>2026-04-19T12:46:48Z</time></trkpt><trkpt lat="25.865066987777414" lon="-80.48416340365037"><ele>5.0</ele><time>2026-04-19T12:46:49Z</time></trkpt><trkpt lat="25.864965278240415" lon="-80.48416330799647"><ele>5.0</ele><time>2026-04-19T12:46:50Z</time></trkpt><trkpt lat="25.864863457397153" lon="-80.48416319485277"><ele>5.0</ele><time>2026-04-19T12:46:51Z</time></trkpt><trkpt lat="25.864759256250537" lon="-80.48416251283717"><ele>4.8</ele><time>2026-04-19T12:46:52Z</time></trkpt><trkpt lat="25.864653881935787" lon="-80.48416224023534"><ele>4.6</ele><time>2026-04-19T12:46:53Z</time></trkpt><trkpt lat="25.864547485936246" lon="-80.48416083588637"><ele>4.4</ele><time>2026-04-19T12:46:54Z</time></trkpt><trkpt lat="25.864440217339837" lon="-80.48415921018638"><ele>4.2</ele><time>2026-04-19T12:46:55Z</time></trkpt><trkpt lat="25.864331339674834" lon="-80.48416012669513"><ele>4.0</ele><time>2026-04-19T12:46:56Z</time></trkpt><trkpt lat="25.864222416176045" lon="-80.48416077440254"><ele>4.4</ele><time>2026-04-19T12:46:57Z</time></trkpt><trkpt lat="25.864113895216516" lon="-80.48416115363804"><ele>4.800000000000001</ele><time>2026-04-19T12:46:58Z</time></trkpt><trkpt lat="25.864006958369888" lon="-80.48415920574193"><ele>5.199999999999999</ele><time>2026-04-19T12:46:59Z</time></trkpt><trkpt lat="25.86389857866915" lon="-80.48415839322801"><ele>5.6</ele><time>2026-04-19T12:47:00Z</time></trkpt><trkpt lat="25.86379023211646" lon="-80.48415892384662"><ele>6.0</ele><time>2026-04-19T12:47:01Z</time></trkpt><trkpt lat="25.86368062031629" lon="-80.48415759763722"><ele>6.0</ele><time>2026-04-19T12:47:02Z</time></trkpt><trkpt lat="25.863571460922383" lon="-80.48415790265632"><ele>6.0</ele><time>2026-04-19T12:47:03Z</time></trkpt><trkpt lat="25.86346103295514" lon="-80.48415587070654"><ele>6.0</ele><time>2026-04-19T12:47:04Z</time></trkpt><trkpt lat="25.863352568403926" lon="-80.48415483829618"><ele>6.0</ele><time>2026-04-19T12:47:05Z</time></trkpt><trkpt lat="25.86324060144003" lon="-80.48415223238233"><ele>6.0</ele><time>2026-04-19T12:47:06Z</time></trkpt><trkpt lat="25.863128838525263" lon="-80.48415370837674"><ele>5.75</ele><time>2026-04-19T12:47:07Z</time></trkpt><trkpt lat="25.86301635565016" lon="-80.4841530870967"><ele>5.5</ele><time>2026-04-19T12:47:08Z</time></trkpt><trkpt lat="25.86290351370417" lon="-80.48415347141068"><ele>5.25</ele><time>2026-04-19T12:47:09Z</time></trkpt><trkpt lat="25.86279081511459" lon="-80.48415335367872"><ele>5.0</ele><time>2026-04-19T12:47:10Z</time></trkpt><trkpt lat="25.862678130416374" lon="-80.48415252996642"><ele>5.2</ele><time>2026-04-19T12:47:11Z</time></trkpt><trkpt lat="25.862565768553374" lon="-80.48415287354807"><ele>5.4</ele><time>2026-04-19T12:47:12Z</time></trkpt><trkpt lat="25.862455446949138" lon="-80.48415292122915"><ele>5.6</ele><time>2026-04-19T12:47:13Z</time></trkpt><trkpt lat="25.862345218259506" lon="-80.48415075066902"><ele>5.8</ele><time>2026-04-19T12:47:14Z</time></trkpt><trkpt lat="25.862235240050232" lon="-80.48415005199077"><ele>6.0</ele><time>2026-04-19T12:47:15Z</time></trkpt><trkpt lat="25.86212468513569" lon="-80.48415018068225"><ele>6.0</ele><time>2026-04-19T12:47:16Z</time></trkpt><trkpt lat="25.86201381397318" lon="-80.4841491328605"><ele>6.0</ele><time>2026-04-19T12:47:17Z</time></trkpt><trkpt lat="25.861902990178926" lon="-80.48414991884799"><ele>6.0</ele><time>2026-04-19T12:47:18Z</time></trkpt><trkpt lat="25.861788154970043" lon="-80.48414723350587"><ele>6.0</ele><time>2026-04-19T12:47:19Z</time></trkpt><trkpt lat="25.861672906511124" lon="-80.48414695216785"><ele>6.5</ele><time>2026-04-19T12:47:20Z</time></trkpt><trkpt lat="25.861557299481014" lon="-80.48414732291859"><ele>7.0</ele><time>2026-04-19T12:47:21Z</time></trkpt><trkpt lat="25.8614412000212" lon="-80.4841466289202"><ele>7.5</ele><time>2026-04-19T12:47:22Z</time></trkpt><trkpt lat="25.861325373296232" lon="-80.48414362410719"><ele>8.0</ele><time>2026-04-19T12:47:23Z</time></trkpt><trkpt lat="25.861207877751994" lon="-80.48413515057153"><ele>8.0</ele><time>2026-04-19T12:47:24Z</time></trkpt><trkpt lat="25.86109185192737" lon="-80.48412687703251"><ele>8.0</ele><time>2026-04-19T12:47:25Z</time></trkpt><trkpt lat="25.86097228281683" lon="-80.48411724891886"><ele>8.0</ele><time>2026-04-19T12:47:25.999Z</time></trkpt><trkpt lat="25.860853888037965" lon="-80.48410923458134"><ele>8.0</ele><time>2026-04-19T12:47:26.999Z</time></trkpt><trkpt lat="25.860736192993464" lon="-80.48410936359757"><ele>7.5</ele><time>2026-04-19T12:47:27.999Z</time></trkpt><trkpt lat="25.86062156230679" lon="-80.48410440415377"><ele>7.0</ele><time>2026-04-19T12:47:28.999Z</time></trkpt><trkpt lat="25.860503244610946" lon="-80.48410663369538"><ele>6.5</ele><time>2026-04-19T12:47:29.999Z</time></trkpt><trkpt lat="25.86038556776474" lon="-80.48411313597103"><ele>6.0</ele><time>2026-04-19T12:47:30.999Z</time></trkpt><trkpt lat="25.860266974368084" lon="-80.48411137880011"><ele>6.0</ele><time>2026-04-19T12:47:31.999Z</time></trkpt><trkpt lat="25.860150399234577" lon="-80.48411083424445"><ele>6.0</ele><time>2026-04-19T12:47:32.999Z</time></trkpt><trkpt lat="25.860033207691664" lon="-80.48411432425436"><ele>6.0</ele><time>2026-04-19T12:47:33.999Z</time></trkpt><trkpt lat="25.85991642639561" lon="-80.48411316642337"><ele>6.0</ele><time>2026-04-19T12:47:34.999Z</time></trkpt><trkpt lat="25.859802660953395" lon="-80.48411223879572"><ele>5.75</ele><time>2026-04-19T12:47:35.999Z</time></trkpt><trkpt lat="25.859688327946824" lon="-80.48411255586657"><ele>5.5</ele><time>2026-04-19T12:47:36.999Z</time></trkpt><trkpt lat="25.859571408767035" lon="-80.48411710832552"><ele>5.25</ele><time>2026-04-19T12:47:37.999Z</time></trkpt><trkpt lat="25.859454916577118" lon="-80.48412179366707"><ele>5.0</ele><time>2026-04-19T12:47:38.999Z</time></trkpt><trkpt lat="25.859338012782047" lon="-80.4841268379473"><ele>5.4</ele><time>2026-04-19T12:47:39.999Z</time></trkpt><trkpt lat="25.859224076625434" lon="-80.48412887426922"><ele>5.8</ele><time>2026-04-19T12:47:40.999Z</time></trkpt><trkpt lat="25.859112708151997" lon="-80.48412928447519"><ele>6.199999999999999</ele><time>2026-04-19T12:47:41.999Z</time></trkpt><trkpt lat="25.85900076358819" lon="-80.48412966656946"><ele>6.6</ele><time>2026-04-19T12:47:42.999Z</time></trkpt><trkpt lat="25.85888966908867" lon="-80.48412890413545"><ele>7.0</ele><time>2026-04-19T12:47:43.999Z</time></trkpt><trkpt lat="25.85878006767679" lon="-80.48412946750071"><ele>7.0</ele><time>2026-04-19T12:47:44.999Z</time></trkpt><trkpt lat="25.858669062820265" lon="-80.48412932581942"><ele>6.999999999999999</ele><time>2026-04-19T12:47:45.999Z</time></trkpt><trkpt lat="25.858559177747818" lon="-80.48412797193468"><ele>6.999999999999999</ele><time>2026-04-19T12:47:46.999Z</time></trkpt><trkpt lat="25.858450603347148" lon="-80.48412778443709"><ele>7.0</ele><time>2026-04-19T12:47:47.999Z</time></trkpt><trkpt lat="25.858342615815967" lon="-80.48413032961669"><ele>7.0</ele><time>2026-04-19T12:47:48.999Z</time></trkpt><trkpt lat="25.858235441000918" lon="-80.48412746598996"><ele>6.6</ele><time>2026-04-19T12:47:49.999Z</time></trkpt><trkpt lat="25.858126420859083" lon="-80.48412804530518"><ele>6.199999999999999</ele><time>2026-04-19T12:47:50.999Z</time></trkpt><trkpt lat="25.85801815407064" lon="-80.48412633338016"><ele>5.8</ele><time>2026-04-19T12:47:51.999Z</time></trkpt><trkpt lat="25.857910059767992" lon="-80.48412402873453"><ele>5.4</ele><time>2026-04-19T12:47:52.999Z</time></trkpt><trkpt lat="25.85780104455484" lon="-80.48412480369211"><ele>5.0</ele><time>2026-04-19T12:47:53.999Z</time></trkpt><trkpt lat="25.857692998963074" lon="-80.48412597757905"><ele>5.2</ele><time>2026-04-19T12:47:54.999Z</time></trkpt><trkpt lat="25.85758362494008" lon="-80.48412571092487"><ele>5.4</ele><time>2026-04-19T12:47:55.999Z</time></trkpt><trkpt lat="25.857474670350264" lon="-80.48412490839243"><ele>5.6</ele><time>2026-04-19T12:47:56.999Z</time></trkpt><trkpt lat="25.85736478030661" lon="-80.48412400319731"><ele>5.8</ele><time>2026-04-19T12:47:57.999Z</time></trkpt><trkpt lat="25.857255136720443" lon="-80.48412343069276"><ele>6.0</ele><time>2026-04-19T12:47:58.999Z</time></trkpt><trkpt lat="25.857145315034607" lon="-80.48412377009159"><ele>6.0</ele><time>2026-04-19T12:47:59.999Z</time></trkpt><trkpt lat="25.857034786206842" lon="-80.48412205848898"><ele>6.0</ele><time>2026-04-19T12:48:00.999Z</time></trkpt><trkpt lat="25.856926788795548" lon="-80.48412157548671"><ele>6.0</ele><time>2026-04-19T12:48:01.999Z</time></trkpt><trkpt lat="25.856820078671575" lon="-80.48412089934611"><ele>6.0</ele><time>2026-04-19T12:48:02.999Z</time></trkpt><trkpt lat="25.856713475187657" lon="-80.48412121031043"><ele>6.0</ele><time>2026-04-19T12:48:03.999Z</time></trkpt><trkpt lat="25.856609175900935" lon="-80.48412019155343"><ele>6.0</ele><time>2026-04-19T12:48:04.999Z</time></trkpt><trkpt lat="25.856503769001836" lon="-80.48411835639088"><ele>6.0</ele><time>2026-04-19T12:48:05.999Z</time></trkpt><trkpt lat="25.856396772480895" lon="-80.48411667478715"><ele>6.0</ele><time>2026-04-19T12:48:06.999Z</time></trkpt><trkpt lat="25.856290344398115" lon="-80.484116691413"><ele>6.0</ele><time>2026-04-19T12:48:07.999Z</time></trkpt><trkpt lat="25.856182439090244" lon="-80.48411535066204"><ele>6.0</ele><time>2026-04-19T12:48:08.999Z</time></trkpt><trkpt lat="25.856074229050243" lon="-80.48411390569257"><ele>6.0</ele><time>2026-04-19T12:48:09.999Z</time></trkpt><trkpt lat="25.85596402078825" lon="-80.48411105785955"><ele>6.0</ele><time>2026-04-19T12:48:10.999Z</time></trkpt><trkpt lat="25.855856107599095" lon="-80.48411140870387"><ele>6.0</ele><time>2026-04-19T12:48:11.999Z</time></trkpt><trkpt lat="25.855746658827094" lon="-80.48410775169047"><ele>6.0</ele><time>2026-04-19T12:48:12.999Z</time></trkpt><trkpt lat="25.85563751566396" lon="-80.48410342463148"><ele>6.0</ele><time>2026-04-19T12:48:13.999Z</time></trkpt><trkpt lat="25.855529550296694" lon="-80.48410040015665"><ele>6.0</ele><time>2026-04-19T12:48:14.999Z</time></trkpt><trkpt lat="25.855424033424026" lon="-80.48409755348912"><ele>6.0</ele><time>2026-04-19T12:48:16Z</time></trkpt><trkpt lat="25.85531872016892" lon="-80.4840938811254"><ele>6.0</ele><time>2026-04-19T12:48:17Z</time></trkpt><trkpt lat="25.855215489393366" lon="-80.48409324066895"><ele>6.0</ele><time>2026-04-19T12:48:18Z</time></trkpt><trkpt lat="25.855113235228828" lon="-80.48409075515616"><ele>6.0</ele><time>2026-04-19T12:48:19Z</time></trkpt><trkpt lat="25.855011510506362" lon="-80.48408592336234"><ele>6.0</ele><time>2026-04-19T12:48:20Z</time></trkpt><trkpt lat="25.854908181919537" lon="-80.48408074922473"><ele>6.0</ele><time>2026-04-19T12:48:21Z</time></trkpt><trkpt lat="25.85480393670821" lon="-80.48407708364543"><ele>6.0</ele><time>2026-04-19T12:48:22Z</time></trkpt><trkpt lat="25.854698364982735" lon="-80.48407331434106"><ele>6.0</ele><time>2026-04-19T12:48:23Z</time></trkpt><trkpt lat="25.8545942664484" lon="-80.4840701483274"><ele>6.0</ele><time>2026-04-19T12:48:24Z</time></trkpt><trkpt lat="25.85448899625528" lon="-80.48406501381072"><ele>6.0</ele><time>2026-04-19T12:48:25Z</time></trkpt><trkpt lat="25.85438311630855" lon="-80.4840623486543"><ele>6.0</ele><time>2026-04-19T12:48:26Z</time></trkpt><trkpt lat="25.854277844775744" lon="-80.48405906295231"><ele>6.0</ele><time>2026-04-19T12:48:27Z</time></trkpt><trkpt lat="25.85417175093608" lon="-80.48405465199123"><ele>6.0</ele><time>2026-04-19T12:48:28Z</time></trkpt><trkpt lat="25.854063594226638" lon="-80.48404890514571"><ele>6.0</ele><time>2026-04-19T12:48:29Z</time></trkpt><trkpt lat="25.853956009737768" lon="-80.4840464821746"><ele>6.0</ele><time>2026-04-19T12:48:30Z</time></trkpt><trkpt lat="25.85384919793964" lon="-80.48404204800684"><ele>6.0</ele><time>2026-04-19T12:48:31Z</time></trkpt><trkpt lat="25.853743832059582" lon="-80.48403758251308"><ele>6.0</ele><time>2026-04-19T12:48:32Z</time></trkpt><trkpt lat="25.85363575076054" lon="-80.48403444450803"><ele>6.0</ele><time>2026-04-19T12:48:33Z</time></trkpt><trkpt lat="25.85353016587899" lon="-80.48403120464303"><ele>6.0</ele><time>2026-04-19T12:48:34Z</time></trkpt><trkpt lat="25.85342480262292" lon="-80.48402649356002"><ele>6.4</ele><time>2026-04-19T12:48:35Z</time></trkpt><trkpt lat="25.853320560957588" lon="-80.48402201118226"><ele>6.8</ele><time>2026-04-19T12:48:36Z</time></trkpt><trkpt lat="25.85321906351536" lon="-80.48401991623024"><ele>7.200000000000001</ele><time>2026-04-19T12:48:37Z</time></trkpt><trkpt lat="25.85311468901379" lon="-80.48401519989778"><ele>7.6000000000000005</ele><time>2026-04-19T12:48:38Z</time></trkpt><trkpt lat="25.853009807767396" lon="-80.48401057775396"><ele>8.0</ele><time>2026-04-19T12:48:39Z</time></trkpt><trkpt lat="25.85290655532833" lon="-80.48400841861542"><ele>8.0</ele><time>2026-04-19T12:48:40Z</time></trkpt><trkpt lat="25.852800400061533" lon="-80.4840049861476"><ele>8.0</ele><time>2026-04-19T12:48:41Z</time></trkpt><trkpt lat="25.85269372447868" lon="-80.48399802281564"><ele>8.0</ele><time>2026-04-19T12:48:42Z</time></trkpt><trkpt lat="25.852588717009414" lon="-80.48399146047792"><ele>8.0</ele><time>2026-04-19T12:48:43Z</time></trkpt><trkpt lat="25.852483420956574" lon="-80.48398748350961"><ele>8.0</ele><time>2026-04-19T12:48:44Z</time></trkpt><trkpt lat="25.85237802092416" lon="-80.48398412574656"><ele>7.6000000000000005</ele><time>2026-04-19T12:48:45Z</time></trkpt><trkpt lat="25.85227196146584" lon="-80.48398011435906"><ele>7.200000000000001</ele><time>2026-04-19T12:48:46Z</time></trkpt><trkpt lat="25.852169191270157" lon="-80.48397655438104"><ele>6.8</ele><time>2026-04-19T12:48:47Z</time></trkpt><trkpt lat="25.8520655380022" lon="-80.48397120299528"><ele>6.4</ele><time>2026-04-19T12:48:48Z</time></trkpt><trkpt lat="25.851965246674744" lon="-80.48396874166312"><ele>6.0</ele><time>2026-04-19T12:48:49Z</time></trkpt><trkpt lat="25.8518648591741" lon="-80.4839662696952"><ele>5.8</ele><time>2026-04-19T12:48:50Z</time></trkpt><trkpt lat="25.851761608140528" lon="-80.48395936263138"><ele>5.6</ele><time>2026-04-19T12:48:51Z</time></trkpt><trkpt lat="25.851659727339914" lon="-80.48395654121254"><ele>5.4</ele><time>2026-04-19T12:48:52Z</time></trkpt><trkpt lat="25.851555931733223" lon="-80.4839518319779"><ele>5.2</ele><time>2026-04-19T12:48:53Z</time></trkpt><trkpt lat="25.851451929048906" lon="-80.48394923258965"><ele>5.0</ele><time>2026-04-19T12:48:54Z</time></trkpt><trkpt lat="25.851347615168326" lon="-80.4839465340031"><ele>5.0</ele><time>2026-04-19T12:48:55Z</time></trkpt><trkpt lat="25.851245004219972" lon="-80.48394315758547"><ele>5.0</ele><time>2026-04-19T12:48:56Z</time></trkpt><trkpt lat="25.8511412711009" lon="-80.48393627169973"><ele>5.0</ele><time>2026-04-19T12:48:57Z</time></trkpt><trkpt lat="25.851039622256078" lon="-80.48393151396472"><ele>5.0</ele><time>2026-04-19T12:48:58Z</time></trkpt><trkpt lat="25.850938075923935" lon="-80.48392633437086"><ele>5.0</ele><time>2026-04-19T12:48:59Z</time></trkpt><trkpt lat="25.850834240340827" lon="-80.4839220141927"><ele>5.2</ele><time>2026-04-19T12:49:00Z</time></trkpt><trkpt lat="25.850729189391153" lon="-80.48391915620536"><ele>5.4</ele><time>2026-04-19T12:49:01Z</time></trkpt><trkpt lat="25.85062247876382" lon="-80.48391560895494"><ele>5.6</ele><time>2026-04-19T12:49:02Z</time></trkpt><trkpt lat="25.850514443495392" lon="-80.48391386948178"><ele>5.8</ele><time>2026-04-19T12:49:03Z</time></trkpt><trkpt lat="25.850406577581534" lon="-80.48390822140935"><ele>6.0</ele><time>2026-04-19T12:49:04Z</time></trkpt><trkpt lat="25.850295383711774" lon="-80.48390094096176"><ele>6.0</ele><time>2026-04-19T12:49:05Z</time></trkpt><trkpt lat="25.85018466546373" lon="-80.4838972760304"><ele>6.0</ele><time>2026-04-19T12:49:06Z</time></trkpt><trkpt lat="25.85007260133275" lon="-80.48389509123784"><ele>6.0</ele><time>2026-04-19T12:49:07Z</time></trkpt><trkpt lat="25.849961507509818" lon="-80.48388929128284"><ele>6.0</ele><time>2026-04-19T12:49:08Z</time></trkpt><trkpt lat="25.849848005733367" lon="-80.48388468246428"><ele>6.0</ele><time>2026-04-19T12:49:09Z</time></trkpt><trkpt lat="25.849735406397425" lon="-80.48387954815729"><ele>5.8</ele><time>2026-04-19T12:49:10Z</time></trkpt><trkpt lat="25.84962316133868" lon="-80.48387437304028"><ele>5.6</ele><time>2026-04-19T12:49:11Z</time></trkpt><trkpt lat="25.84951355922815" lon="-80.48387338021423"><ele>5.4</ele><time>2026-04-19T12:49:12Z</time></trkpt><trkpt lat="25.849405023251595" lon="-80.48386790672411"><ele>5.2</ele><time>2026-04-19T12:49:13Z</time></trkpt><trkpt lat="25.8492979431053" lon="-80.48386386543054"><ele>5.0</ele><time>2026-04-19T12:49:14Z</time></trkpt><trkpt lat="25.849193774166075" lon="-80.48385963090394"><ele>4.8</ele><time>2026-04-19T12:49:15Z</time></trkpt><trkpt lat="25.849090943456314" lon="-80.48385435756059"><ele>4.6</ele><time>2026-04-19T12:49:16Z</time></trkpt><trkpt lat="25.848989430176392" lon="-80.48384924865297"><ele>4.4</ele><time>2026-04-19T12:49:17Z</time></trkpt><trkpt lat="25.848885806362933" lon="-80.48384763770407"><ele>4.2</ele><time>2026-04-19T12:49:18Z</time></trkpt><trkpt lat="25.848780517371356" lon="-80.48384379990435"><ele>4.0</ele><time>2026-04-19T12:49:19Z</time></trkpt><trkpt lat="25.84867558017682" lon="-80.48384132283948"><ele>4.0</ele><time>2026-04-19T12:49:20Z</time></trkpt><trkpt lat="25.84856848733845" lon="-80.48383684696732"><ele>4.0</ele><time>2026-04-19T12:49:21Z</time></trkpt><trkpt lat="25.848460285962286" lon="-80.48383208824178"><ele>4.0</ele><time>2026-04-19T12:49:22Z</time></trkpt><trkpt lat="25.848350006815846" lon="-80.48382779101868"><ele>4.0</ele><time>2026-04-19T12:49:23Z</time></trkpt><trkpt lat="25.84824024317681" lon="-80.48382312917072"><ele>4.0</ele><time>2026-04-19T12:49:24Z</time></trkpt><trkpt lat="25.848129872539296" lon="-80.48381818679842"><ele>4.2</ele><time>2026-04-19T12:49:25Z</time></trkpt><trkpt lat="25.848020166498735" lon="-80.48381309130198"><ele>4.4</ele><time>2026-04-19T12:49:26Z</time></trkpt><trkpt lat="25.847910293305628" lon="-80.48381019784713"><ele>4.6</ele><time>2026-04-19T12:49:27Z</time></trkpt><trkpt lat="25.84779880771339" lon="-80.48380703350442"><ele>4.8</ele><time>2026-04-19T12:49:28Z</time></trkpt><trkpt lat="25.847687451227397" lon="-80.4838038320631"><ele>5.0</ele><time>2026-04-19T12:49:29Z</time></trkpt><trkpt lat="25.847573327642117" lon="-80.4837969698486"><ele>5.0</ele><time>2026-04-19T12:49:30Z</time></trkpt><trkpt lat="25.847458978605783" lon="-80.48379348283282"><ele>5.0</ele><time>2026-04-19T12:49:30.999Z</time></trkpt><trkpt lat="25.847344612806435" lon="-80.48378909258196"><ele>5.0</ele><time>2026-04-19T12:49:31.999Z</time></trkpt><trkpt lat="25.847230665838" lon="-80.48378467326438"><ele>5.0</ele><time>2026-04-19T12:49:32.999Z</time></trkpt><trkpt lat="25.84711690471197" lon="-80.48377509586241"><ele>5.0</ele><time>2026-04-19T12:49:33.999Z</time></trkpt><trkpt lat="25.84700150870166" lon="-80.48377308280948"><ele>5.0</ele><time>2026-04-19T12:49:34.999Z</time></trkpt><trkpt lat="25.846888223024827" lon="-80.48376996652699"><ele>5.0</ele><time>2026-04-19T12:49:35.999Z</time></trkpt><trkpt lat="25.846776798625438" lon="-80.4837653135713"><ele>5.0</ele><time>2026-04-19T12:49:36.999Z</time></trkpt><trkpt lat="25.846666255670634" lon="-80.48376177474321"><ele>5.2</ele><time>2026-04-19T12:49:37.999Z</time></trkpt><trkpt lat="25.846557533959412" lon="-80.48375756379751"><ele>5.4</ele><time>2026-04-19T12:49:38.999Z</time></trkpt><trkpt lat="25.846448147503803" lon="-80.48375364111429"><ele>5.6</ele><time>2026-04-19T12:49:39.999Z</time></trkpt><trkpt lat="25.84633718613479" lon="-80.4837498505756"><ele>5.8</ele><time>2026-04-19T12:49:40.999Z</time></trkpt><trkpt lat="25.846228472010427" lon="-80.4837430429154"><ele>6.0</ele><time>2026-04-19T12:49:41.999Z</time></trkpt><trkpt lat="25.846122007129335" lon="-80.48373844862941"><ele>6.0</ele><time>2026-04-19T12:49:42.999Z</time></trkpt><trkpt lat="25.846014829785425" lon="-80.48373424493167"><ele>6.0</ele><time>2026-04-19T12:49:43.999Z</time></trkpt><trkpt lat="25.845907626131723" lon="-80.48373045715472"><ele>6.0</ele><time>2026-04-19T12:49:44.999Z</time></trkpt><trkpt lat="25.845802436692544" lon="-80.48372705358608"><ele>6.0</ele><time>2026-04-19T12:49:45.999Z</time></trkpt><trkpt lat="25.845695494257892" lon="-80.48372479094913"><ele>6.0</ele><time>2026-04-19T12:49:46.999Z</time></trkpt><trkpt lat="25.845586407732263" lon="-80.48372115885385"><ele>5.8</ele><time>2026-04-19T12:49:47.999Z</time></trkpt><trkpt lat="25.845477668513173" lon="-80.48371734871026"><ele>5.6</ele><time>2026-04-19T12:49:48.999Z</time></trkpt><trkpt lat="25.84536858029176" lon="-80.48371189645788"><ele>5.4</ele><time>2026-04-19T12:49:49.999Z</time></trkpt><trkpt lat="25.845258237470613" lon="-80.48370704764352"><ele>5.2</ele><time>2026-04-19T12:49:50.999Z</time></trkpt><trkpt lat="25.845153145021424" lon="-80.48370239886428"><ele>5.0</ele><time>2026-04-19T12:49:51.999Z</time></trkpt><trkpt lat="25.845046460765076" lon="-80.48369965724314"><ele>5.0</ele><time>2026-04-19T12:49:52.999Z</time></trkpt><trkpt lat="25.844942114290838" lon="-80.48369743366321"><ele>5.0</ele><time>2026-04-19T12:49:53.999Z</time></trkpt><trkpt lat="25.844838575781413" lon="-80.48369254667298"><ele>5.0</ele><time>2026-04-19T12:49:54.999Z</time></trkpt><trkpt lat="25.84473637133506" lon="-80.48368750903607"><ele>5.0</ele><time>2026-04-19T12:49:55.999Z</time></trkpt><trkpt lat="25.84463182419249" lon="-80.48368308117999"><ele>5.0</ele><time>2026-04-19T12:49:56.999Z</time></trkpt><trkpt lat="25.844528799839512" lon="-80.48367716544777"><ele>5.0</ele><time>2026-04-19T12:49:57.999Z</time></trkpt><trkpt lat="25.844420456327327" lon="-80.48367386127296"><ele>5.0</ele><time>2026-04-19T12:49:58.999Z</time></trkpt><trkpt lat="25.844314179757024" lon="-80.4836696216497"><ele>5.0</ele><time>2026-04-19T12:49:59.999Z</time></trkpt><trkpt lat="25.8442088798412" lon="-80.4836656924493"><ele>5.0</ele><time>2026-04-19T12:50:00.999Z</time></trkpt><trkpt lat="25.844104665120582" lon="-80.48366112669339"><ele>5.0</ele><time>2026-04-19T12:50:01.999Z</time></trkpt><trkpt lat="25.843999236966138" lon="-80.48365683287265"><ele>5.2</ele><time>2026-04-19T12:50:02.999Z</time></trkpt><trkpt lat="25.843894315011443" lon="-80.4836526339951"><ele>5.4</ele><time>2026-04-19T12:50:03.999Z</time></trkpt><trkpt lat="25.843787820018527" lon="-80.48364725031666"><ele>5.6</ele><time>2026-04-19T12:50:04.999Z</time></trkpt><trkpt lat="25.84368030011912" lon="-80.48364234551437"><ele>5.8</ele><time>2026-04-19T12:50:05.999Z</time></trkpt><trkpt lat="25.843572144128043" lon="-80.48363923666828"><ele>6.0</ele><time>2026-04-19T12:50:06.999Z</time></trkpt><trkpt lat="25.843464425791893" lon="-80.4836336415509"><ele>5.8</ele><time>2026-04-19T12:50:07.999Z</time></trkpt><trkpt lat="25.843358251672036" lon="-80.48363085568866"><ele>5.6</ele><time>2026-04-19T12:50:08.999Z</time></trkpt><trkpt lat="25.84325305324128" lon="-80.48362873437547"><ele>5.4</ele><time>2026-04-19T12:50:09.999Z</time></trkpt><trkpt lat="25.843148549843903" lon="-80.48362452699357"><ele>5.2</ele><time>2026-04-19T12:50:10.999Z</time></trkpt><trkpt lat="25.843045974470634" lon="-80.48361912288361"><ele>5.0</ele><time>2026-04-19T12:50:11.999Z</time></trkpt><trkpt lat="25.842943892185243" lon="-80.48361690255754"><ele>5.0</ele><time>2026-04-19T12:50:12.999Z</time></trkpt><trkpt lat="25.84284361001914" lon="-80.48361230496249"><ele>5.0</ele><time>2026-04-19T12:50:13.999Z</time></trkpt><trkpt lat="25.84274281623341" lon="-80.4836086241224"><ele>5.0</ele><time>2026-04-19T12:50:14.999Z</time></trkpt><trkpt lat="25.842640524817853" lon="-80.48360566612804"><ele>5.0</ele><time>2026-04-19T12:50:15.999Z</time></trkpt><trkpt lat="25.84253619979985" lon="-80.48360094717567"><ele>5.0</ele><time>2026-04-19T12:50:16.999Z</time></trkpt><trkpt lat="25.842430431914547" lon="-80.48359485170053"><ele>5.0</ele><time>2026-04-19T12:50:17.999Z</time></trkpt><trkpt lat="25.842322627562645" lon="-80.48359166131873"><ele>5.0</ele><time>2026-04-19T12:50:18.999Z</time></trkpt><trkpt lat="25.84221414250068" lon="-80.48359074659453"><ele>5.0</ele><time>2026-04-19T12:50:19.999Z</time></trkpt><trkpt lat="25.842105026889424" lon="-80.48358639687022"><ele>5.0</ele><time>2026-04-19T12:50:20.999Z</time></trkpt><trkpt lat="25.841997333768923" lon="-80.48358135698263"><ele>5.0</ele><time>2026-04-19T12:50:22Z</time></trkpt><trkpt lat="25.841889604117835" lon="-80.48357750979247"><ele>5.2</ele><time>2026-04-19T12:50:23Z</time></trkpt><trkpt lat="25.84178213411197" lon="-80.48357158260382"><ele>5.4</ele><time>2026-04-19T12:50:24Z</time></trkpt><trkpt lat="25.841676749880047" lon="-80.4835670493459"><ele>5.6</ele><time>2026-04-19T12:50:25Z</time></trkpt><trkpt lat="25.84157150644177" lon="-80.48356202397973"><ele>5.8</ele><time>2026-04-19T12:50:26Z</time></trkpt><trkpt lat="25.841468447218364" lon="-80.48355699595591"><ele>6.0</ele><time>2026-04-19T12:50:27Z</time></trkpt><trkpt lat="25.841364907263653" lon="-80.48355375421758"><ele>6.0</ele><time>2026-04-19T12:50:28Z</time></trkpt><trkpt lat="25.84126368450072" lon="-80.48354879809091"><ele>6.0</ele><time>2026-04-19T12:50:29Z</time></trkpt><trkpt lat="25.841160439821845" lon="-80.48354414332638"><ele>6.0</ele><time>2026-04-19T12:50:30Z</time></trkpt><trkpt lat="25.841056820178167" lon="-80.48353964820983"><ele>6.0</ele><time>2026-04-19T12:50:31Z</time></trkpt><trkpt lat="25.840952229273615" lon="-80.48353695073362"><ele>6.0</ele><time>2026-04-19T12:50:32Z</time></trkpt><trkpt lat="25.840847142194587" lon="-80.48353406803142"><ele>6.199999999999999</ele><time>2026-04-19T12:50:33Z</time></trkpt><trkpt lat="25.84074264767751" lon="-80.48352990886066"><ele>6.3999999999999995</ele><time>2026-04-19T12:50:34Z</time></trkpt><trkpt lat="25.840640380670695" lon="-80.4835264564572"><ele>6.6</ele><time>2026-04-19T12:50:35Z</time></trkpt><trkpt lat="25.840538056079772" lon="-80.4835217911701"><ele>6.8</ele><time>2026-04-19T12:50:36Z</time></trkpt><trkpt lat="25.84043849031601" lon="-80.48351872495049"><ele>7.0</ele><time>2026-04-19T12:50:37Z</time></trkpt><trkpt lat="25.840337301925057" lon="-80.48351298594113"><ele>7.0</ele><time>2026-04-19T12:50:38Z</time></trkpt><trkpt lat="25.84023508410222" lon="-80.48350902307068"><ele>6.999999999999999</ele><time>2026-04-19T12:50:39Z</time></trkpt><trkpt lat="25.840134490091277" lon="-80.48350618369287"><ele>6.999999999999999</ele><time>2026-04-19T12:50:40Z</time></trkpt><trkpt lat="25.840035900025345" lon="-80.48350225918189"><ele>7.0</ele><time>2026-04-19T12:50:41Z</time></trkpt><trkpt lat="25.839936465376766" lon="-80.48349798382398"><ele>7.0</ele><time>2026-04-19T12:50:42Z</time></trkpt><trkpt lat="25.839834810061358" lon="-80.48349313859076"><ele>7.0</ele><time>2026-04-19T12:50:43Z</time></trkpt><trkpt lat="25.839733576416002" lon="-80.48348963600782"><ele>6.999999999999999</ele><time>2026-04-19T12:50:44Z</time></trkpt><trkpt lat="25.839632845614965" lon="-80.48348593277886"><ele>6.999999999999999</ele><time>2026-04-19T12:50:45Z</time></trkpt><trkpt lat="25.83953229251156" lon="-80.48348246766678"><ele>7.0</ele><time>2026-04-19T12:50:46Z</time></trkpt><trkpt lat="25.839431661139656" lon="-80.4834774993644"><ele>7.0</ele><time>2026-04-19T12:50:47Z</time></trkpt><trkpt lat="25.83933403697928" lon="-80.48347417941876"><ele>7.0</ele><time>2026-04-19T12:50:48Z</time></trkpt><trkpt lat="25.83923738040208" lon="-80.48346919526716"><ele>6.999999999999999</ele><time>2026-04-19T12:50:49Z</time></trkpt><trkpt lat="25.83913984489683" lon="-80.48346692987742"><ele>6.999999999999999</ele><time>2026-04-19T12:50:50Z</time></trkpt><trkpt lat="25.839040874041277" lon="-80.48346366130444"><ele>7.0</ele><time>2026-04-19T12:50:51Z</time></trkpt><trkpt lat="25.838941857044222" lon="-80.48346158624739"><ele>7.0</ele><time>2026-04-19T12:50:52Z</time></trkpt><trkpt lat="25.838843509927194" lon="-80.48345823325556"><ele>7.0</ele><time>2026-04-19T12:50:53Z</time></trkpt><trkpt lat="25.838745679988858" lon="-80.48345375775882"><ele>6.999999999999999</ele><time>2026-04-19T12:50:54Z</time></trkpt><trkpt lat="25.83864943932638" lon="-80.4834503403474"><ele>6.999999999999999</ele><time>2026-04-19T12:50:55Z</time></trkpt><trkpt lat="25.83855266953018" lon="-80.4834457373606"><ele>7.0</ele><time>2026-04-19T12:50:56Z</time></trkpt><trkpt lat="25.838455438726555" lon="-80.48344216469405"><ele>7.0</ele><time>2026-04-19T12:50:57Z</time></trkpt><trkpt lat="25.838354019654336" lon="-80.48343810383518"><ele>6.6</ele><time>2026-04-19T12:50:58Z</time></trkpt><trkpt lat="25.838253987810678" lon="-80.48343410866642"><ele>6.199999999999999</ele><time>2026-04-19T12:50:59Z</time></trkpt><trkpt lat="25.838148955478378" lon="-80.48342777808747"><ele>5.8</ele><time>2026-04-19T12:51:00Z</time></trkpt><trkpt lat="25.83804306793621" lon="-80.48342537108798"><ele>5.4</ele><time>2026-04-19T12:51:01Z</time></trkpt><trkpt lat="25.83793714664033" lon="-80.48342036088808"><ele>5.0</ele><time>2026-04-19T12:51:02Z</time></trkpt><trkpt lat="25.83782988938589" lon="-80.48341302127228"><ele>5.0</ele><time>2026-04-19T12:51:03Z</time></trkpt><trkpt lat="25.837722429622644" lon="-80.48340495746912"><ele>5.0</ele><time>2026-04-19T12:51:04Z</time></trkpt><trkpt lat="25.837613343422877" lon="-80.48339924847005"><ele>5.0</ele><time>2026-04-19T12:51:05Z</time></trkpt><trkpt lat="25.837503406567983" lon="-80.48339199767693"><ele>5.0</ele><time>2026-04-19T12:51:06Z</time></trkpt><trkpt lat="25.837391609454244" lon="-80.48338427237843"><ele>5.0</ele><time>2026-04-19T12:51:07Z</time></trkpt><trkpt lat="25.83727775212588" lon="-80.48337565174171"><ele>5.25</ele><time>2026-04-19T12:51:08Z</time></trkpt><trkpt lat="25.83716487385179" lon="-80.48337109072745"><ele>5.5</ele><time>2026-04-19T12:51:09Z</time></trkpt><trkpt lat="25.83704961937042" lon="-80.48336522442223"><ele>5.75</ele><time>2026-04-19T12:51:10Z</time></trkpt><trkpt lat="25.836936401658953" lon="-80.48335990046093"><ele>6.0</ele><time>2026-04-19T12:51:11Z</time></trkpt><trkpt lat="25.836822876471707" lon="-80.483354757808"><ele>5.8</ele><time>2026-04-19T12:51:12Z</time></trkpt><trkpt lat="25.83671134638289" lon="-80.48334990409577"><ele>5.6</ele><time>2026-04-19T12:51:13Z</time></trkpt><trkpt lat="25.83660281545659" lon="-80.48334415113503"><ele>5.4</ele><time>2026-04-19T12:51:14Z</time></trkpt><trkpt lat="25.83649484079106" lon="-80.48334181356006"><ele>5.2</ele><time>2026-04-19T12:51:15Z</time></trkpt><trkpt lat="25.8363878693438" lon="-80.48334128587008"><ele>5.0</ele><time>2026-04-19T12:51:16Z</time></trkpt><trkpt lat="25.836280046236872" lon="-80.48333973768833"><ele>5.0</ele><time>2026-04-19T12:51:17Z</time></trkpt><trkpt lat="25.836173392847066" lon="-80.48333546263952"><ele>5.0</ele><time>2026-04-19T12:51:18Z</time></trkpt><trkpt lat="25.836065133797995" lon="-80.48332846513394"><ele>5.0</ele><time>2026-04-19T12:51:19Z</time></trkpt><trkpt lat="25.835957252878103" lon="-80.48332070959367"><ele>5.0</ele><time>2026-04-19T12:51:20Z</time></trkpt><trkpt lat="25.835851003574906" lon="-80.48331733696007"><ele>5.0</ele><time>2026-04-19T12:51:21Z</time></trkpt><trkpt lat="25.835744308808504" lon="-80.48331186651741"><ele>5.0</ele><time>2026-04-19T12:51:22Z</time></trkpt><trkpt lat="25.83563704153202" lon="-80.48330562223693"><ele>5.0</ele><time>2026-04-19T12:51:23Z</time></trkpt><trkpt lat="25.835530625269623" lon="-80.48330000653255"><ele>5.0</ele><time>2026-04-19T12:51:24Z</time></trkpt><trkpt lat="25.835424280402858" lon="-80.483299186489"><ele>5.0</ele><time>2026-04-19T12:51:25Z</time></trkpt><trkpt lat="25.835317617636324" lon="-80.48329713464086"><ele>5.0</ele><time>2026-04-19T12:51:26Z</time></trkpt><trkpt lat="25.835209955232465" lon="-80.48329408605929"><ele>5.2</ele><time>2026-04-19T12:51:27Z</time></trkpt><trkpt lat="25.83510081866789" lon="-80.48329164648261"><ele>5.4</ele><time>2026-04-19T12:51:28Z</time></trkpt><trkpt lat="25.834990906173285" lon="-80.48328781010983"><ele>5.6</ele><time>2026-04-19T12:51:29Z</time></trkpt><trkpt lat="25.834883161167014" lon="-80.48328458175489"><ele>5.8</ele><time>2026-04-19T12:51:30Z</time></trkpt><trkpt lat="25.8347762733263" lon="-80.48327828887243"><ele>6.0</ele><time>2026-04-19T12:51:30.999Z</time></trkpt><trkpt lat="25.834669583238586" lon="-80.48327453377684"><ele>6.0</ele><time>2026-04-19T12:51:31.999Z</time></trkpt><trkpt lat="25.83456163629574" lon="-80.48327081197752"><ele>6.0</ele><time>2026-04-19T12:51:32.999Z</time></trkpt><trkpt lat="25.834453500388904" lon="-80.48326739787306"><ele>6.0</ele><time>2026-04-19T12:51:33.999Z</time></trkpt><trkpt lat="25.834345074451264" lon="-80.48326224396742"><ele>6.0</ele><time>2026-04-19T12:51:34.999Z</time></trkpt><trkpt lat="25.834237161704436" lon="-80.48325823642347"><ele>6.0</ele><time>2026-04-19T12:51:35.999Z</time></trkpt><trkpt lat="25.834128305396252" lon="-80.48325653880758"><ele>6.0</ele><time>2026-04-19T12:51:36.999Z</time></trkpt><trkpt lat="25.8340184323887" lon="-80.48325486515026"><ele>6.0</ele><time>2026-04-19T12:51:37.999Z</time></trkpt><trkpt lat="25.83390767372265" lon="-80.48325218343325"><ele>6.0</ele><time>2026-04-19T12:51:38.999Z</time></trkpt><trkpt lat="25.833797638471776" lon="-80.48324840672898"><ele>6.0</ele><time>2026-04-19T12:51:39.999Z</time></trkpt><trkpt lat="25.83368851445547" lon="-80.4832460350224"><ele>6.0</ele><time>2026-04-19T12:51:40.999Z</time></trkpt><trkpt lat="25.833578756500295" lon="-80.48324002306686"><ele>6.199999999999999</ele><time>2026-04-19T12:51:41.999Z</time></trkpt><trkpt lat="25.833469802275005" lon="-80.48323551811596"><ele>6.3999999999999995</ele><time>2026-04-19T12:51:42.999Z</time></trkpt><trkpt lat="25.833361853772853" lon="-80.48323169959991"><ele>6.6</ele><time>2026-04-19T12:51:43.999Z</time></trkpt><trkpt lat="25.83325214501412" lon="-80.4832290005595"><ele>6.8</ele><time>2026-04-19T12:51:44.999Z</time></trkpt><trkpt lat="25.833143936517953" lon="-80.48322751918623"><ele>7.0</ele><time>2026-04-19T12:51:45.999Z</time></trkpt><trkpt lat="25.833034402031227" lon="-80.48322336715871"><ele>7.0</ele><time>2026-04-19T12:51:46.999Z</time></trkpt><trkpt lat="25.832927819412813" lon="-80.48321869038149"><ele>6.999999999999999</ele><time>2026-04-19T12:51:47.999Z</time></trkpt><trkpt lat="25.832820815280833" lon="-80.48321285806833"><ele>6.999999999999999</ele><time>2026-04-19T12:51:48.999Z</time></trkpt><trkpt lat="25.83271296582173" lon="-80.48321158237445"><ele>7.0</ele><time>2026-04-19T12:51:49.999Z</time></trkpt><trkpt lat="25.83260538584229" lon="-80.48320463755225"><ele>7.0</ele><time>2026-04-19T12:51:50.999Z</time></trkpt><trkpt lat="25.83249597339537" lon="-80.48320107419258"><ele>6.8</ele><time>2026-04-19T12:51:51.999Z</time></trkpt><trkpt lat="25.832386001712376" lon="-80.4831962139003"><ele>6.6</ele><time>2026-04-19T12:51:52.999Z</time></trkpt><trkpt lat="25.83227429672519" lon="-80.48319252973985"><ele>6.3999999999999995</ele><time>2026-04-19T12:51:53.999Z</time></trkpt><trkpt lat="25.832163638586234" lon="-80.48318733443493"><ele>6.199999999999999</ele><time>2026-04-19T12:51:54.999Z</time></trkpt><trkpt lat="25.832050111771856" lon="-80.48318237726568"><ele>6.0</ele><time>2026-04-19T12:51:55.999Z</time></trkpt><trkpt lat="25.831934611762986" lon="-80.48317716708264"><ele>6.0</ele><time>2026-04-19T12:51:56.999Z</time></trkpt><trkpt lat="25.83182026321287" lon="-80.48317241969927"><ele>6.0</ele><time>2026-04-19T12:51:57.999Z</time></trkpt><trkpt lat="25.8317040704548" lon="-80.48316739712197"><ele>6.0</ele><time>2026-04-19T12:51:58.999Z</time></trkpt><trkpt lat="25.831587353913488" lon="-80.48316373333041"><ele>6.0</ele><time>2026-04-19T12:51:59.999Z</time></trkpt><trkpt lat="25.831468881770547" lon="-80.48316051570555"><ele>6.0</ele><time>2026-04-19T12:52:00.999Z</time></trkpt><trkpt lat="25.83135242493664" lon="-80.48315921552773"><ele>6.0</ele><time>2026-04-19T12:52:01.999Z</time></trkpt><trkpt lat="25.831236049192473" lon="-80.48315337498056"><ele>6.0</ele><time>2026-04-19T12:52:02.999Z</time></trkpt><trkpt lat="25.831121922382902" lon="-80.48314788206783"><ele>6.0</ele><time>2026-04-19T12:52:03.999Z</time></trkpt><trkpt lat="25.831010369990057" lon="-80.48314491405887"><ele>5.8</ele><time>2026-04-19T12:52:04.999Z</time></trkpt><trkpt lat="25.830901635580695" lon="-80.48314225523401"><ele>5.6</ele><time>2026-04-19T12:52:05.999Z</time></trkpt><trkpt lat="25.830793985260375" lon="-80.48313764353527"><ele>5.4</ele><time>2026-04-19T12:52:06.999Z</time></trkpt><trkpt lat="25.830687955098902" lon="-80.48313347284184"><ele>5.2</ele><time>2026-04-19T12:52:07.999Z</time></trkpt><trkpt lat="25.83058130879638" lon="-80.48312873773241"><ele>5.0</ele><time>2026-04-19T12:52:08.999Z</time></trkpt><trkpt lat="25.830476045570244" lon="-80.48312410618574"><ele>5.0</ele><time>2026-04-19T12:52:09.999Z</time></trkpt><trkpt lat="25.83037442672606" lon="-80.48311743575712"><ele>5.0</ele><time>2026-04-19T12:52:10.999Z</time></trkpt><trkpt lat="25.830271734351502" lon="-80.48311424660744"><ele>5.0</ele><time>2026-04-19T12:52:11.999Z</time></trkpt><trkpt lat="25.830171083489194" lon="-80.48311018044635"><ele>5.0</ele><time>2026-04-19T12:52:12.999Z</time></trkpt><trkpt lat="25.8300703874944" lon="-80.4831053228319"><ele>5.0</ele><time>2026-04-19T12:52:13.999Z</time></trkpt><trkpt lat="25.829968146597697" lon="-80.48310144159784"><ele>5.0</ele><time>2026-04-19T12:52:14.999Z</time></trkpt><trkpt lat="25.829863088393733" lon="-80.48309635124981"><ele>5.0</ele><time>2026-04-19T12:52:15.999Z</time></trkpt><trkpt lat="25.82975795809389" lon="-80.4830935546668"><ele>5.0</ele><time>2026-04-19T12:52:16.999Z</time></trkpt><trkpt lat="25.82965370056082" lon="-80.48309109954933"><ele>5.0</ele><time>2026-04-19T12:52:17.999Z</time></trkpt><trkpt lat="25.829549700955923" lon="-80.48308730474542"><ele>5.0</ele><time>2026-04-19T12:52:18.999Z</time></trkpt><trkpt lat="25.829445078202042" lon="-80.48308202852539"><ele>5.0</ele><time>2026-04-19T12:52:19.999Z</time></trkpt><trkpt lat="25.82934079650916" lon="-80.48308003516952"><ele>5.0</ele><time>2026-04-19T12:52:20.999Z</time></trkpt><trkpt lat="25.829236966708795" lon="-80.48307607364953"><ele>5.0</ele><time>2026-04-19T12:52:21.999Z</time></trkpt><trkpt lat="25.829131945023814" lon="-80.48307094456952"><ele>5.0</ele><time>2026-04-19T12:52:22.999Z</time></trkpt><trkpt lat="25.82902853806213" lon="-80.4830666556582"><ele>5.0</ele><time>2026-04-19T12:52:23.999Z</time></trkpt><trkpt lat="25.828924475955333" lon="-80.48306253186722"><ele>5.0</ele><time>2026-04-19T12:52:24.999Z</time></trkpt><trkpt lat="25.828824223750118" lon="-80.48305907229981"><ele>5.0</ele><time>2026-04-19T12:52:25.999Z</time></trkpt><trkpt lat="25.82872138385797" lon="-80.48305228595466"><ele>5.0</ele><time>2026-04-19T12:52:27Z</time></trkpt><trkpt lat="25.828621309015535" lon="-80.48304719211671"><ele>5.0</ele><time>2026-04-19T12:52:28Z</time></trkpt><trkpt lat="25.82852199415779" lon="-80.48304295764815"><ele>5.0</ele><time>2026-04-19T12:52:29Z</time></trkpt><trkpt lat="25.82842301887091" lon="-80.48303913517246"><ele>5.4</ele><time>2026-04-19T12:52:30Z</time></trkpt><trkpt lat="25.828325252337148" lon="-80.48303652049471"><ele>5.8</ele><time>2026-04-19T12:52:31Z</time></trkpt><trkpt lat="25.828227424466228" lon="-80.48303414042017"><ele>6.199999999999999</ele><time>2026-04-19T12:52:32Z</time></trkpt><trkpt lat="25.82813214723363" lon="-80.48303177193036"><ele>6.6</ele><time>2026-04-19T12:52:33Z</time></trkpt><trkpt lat="25.82803669792311" lon="-80.48303015231505"><ele>7.0</ele><time>2026-04-19T12:52:34Z</time></trkpt><trkpt lat="25.827940456830525" lon="-80.48302627633933"><ele>7.0</ele><time>2026-04-19T12:52:35Z</time></trkpt><trkpt lat="25.827845717096096" lon="-80.48302310439685"><ele>6.999999999999999</ele><time>2026-04-19T12:52:36Z</time></trkpt><trkpt lat="25.827751148213366" lon="-80.48302026393155"><ele>6.999999999999999</ele><time>2026-04-19T12:52:37Z</time></trkpt><trkpt lat="25.82765679363276" lon="-80.48301412810574"><ele>7.0</ele><time>2026-04-19T12:52:38Z</time></trkpt><trkpt lat="25.82756235856118" lon="-80.4830107403546"><ele>7.0</ele><time>2026-04-19T12:52:39Z</time></trkpt><trkpt lat="25.827466676924995" lon="-80.48300921971482"><ele>7.0</ele><time>2026-04-19T12:52:40Z</time></trkpt><trkpt lat="25.827371394456843" lon="-80.48300540696032"><ele>6.999999999999999</ele><time>2026-04-19T12:52:41Z</time></trkpt><trkpt lat="25.82727405391955" lon="-80.48300182754097"><ele>6.999999999999999</ele><time>2026-04-19T12:52:42Z</time></trkpt><trkpt lat="25.82717927229966" lon="-80.48299952062385"><ele>7.0</ele><time>2026-04-19T12:52:43Z</time></trkpt><trkpt lat="25.827082406935585" lon="-80.48299516156948"><ele>7.0</ele><time>2026-04-19T12:52:44Z</time></trkpt><trkpt lat="25.826983807435198" lon="-80.48298878728136"><ele>7.0</ele><time>2026-04-19T12:52:45Z</time></trkpt><trkpt lat="25.82688776651037" lon="-80.48298652608813"><ele>6.999999999999999</ele><time>2026-04-19T12:52:46Z</time></trkpt><trkpt lat="25.826792574855652" lon="-80.48298550716827"><ele>6.999999999999999</ele><time>2026-04-19T12:52:47Z</time></trkpt><trkpt lat="25.82669777184457" lon="-80.4829804965805"><ele>7.0</ele><time>2026-04-19T12:52:48Z</time></trkpt><trkpt lat="25.826603826871512" lon="-80.4829777948149"><ele>7.0</ele><time>2026-04-19T12:52:49Z</time></trkpt><trkpt lat="25.826513569103454" lon="-80.48297402741257"><ele>7.0</ele><time>2026-04-19T12:52:50Z</time></trkpt><trkpt lat="25.826423664914614" lon="-80.48297118564838"><ele>6.999999999999999</ele><time>2026-04-19T12:52:51Z</time></trkpt><trkpt lat="25.826330247962495" lon="-80.48296657041828"><ele>6.999999999999999</ele><time>2026-04-19T12:52:52Z</time></trkpt><trkpt lat="25.826234116879036" lon="-80.48296136479188"><ele>7.0</ele><time>2026-04-19T12:52:53Z</time></trkpt><trkpt lat="25.826134424200536" lon="-80.48295575724183"><ele>7.0</ele><time>2026-04-19T12:52:54Z</time></trkpt><trkpt lat="25.826029937515415" lon="-80.48295276290209"><ele>7.0</ele><time>2026-04-19T12:52:55Z</time></trkpt><trkpt lat="25.825924829593184" lon="-80.4829487519652"><ele>6.999999999999999</ele><time>2026-04-19T12:52:56Z</time></trkpt><trkpt lat="25.825819159623634" lon="-80.48294561954785"><ele>6.999999999999999</ele><time>2026-04-19T12:52:57Z</time></trkpt><trkpt lat="25.82571388355564" lon="-80.48294214565895"><ele>7.0</ele><time>2026-04-19T12:52:58Z</time></trkpt><trkpt lat="25.825610729701378" lon="-80.48293809045721"><ele>7.0</ele><time>2026-04-19T12:52:59Z</time></trkpt><trkpt lat="25.825504859089765" lon="-80.48293316138782"><ele>7.0</ele><time>2026-04-19T12:53:00Z</time></trkpt><trkpt lat="25.825401628981368" lon="-80.48293078331233"><ele>6.999999999999999</ele><time>2026-04-19T12:53:01Z</time></trkpt><trkpt lat="25.82529852737205" lon="-80.4829259787201"><ele>6.999999999999999</ele><time>2026-04-19T12:53:02Z</time></trkpt><trkpt lat="25.825196994156144" lon="-80.48292077756969"><ele>7.0</ele><time>2026-04-19T12:53:03Z</time></trkpt><trkpt lat="25.82509727984783" lon="-80.48291812807078"><ele>7.0</ele><time>2026-04-19T12:53:04Z</time></trkpt><trkpt lat="25.824998224479078" lon="-80.48291368569639"><ele>7.3999999999999995</ele><time>2026-04-19T12:53:05Z</time></trkpt><trkpt lat="25.824900476244046" lon="-80.48290933040845"><ele>7.799999999999999</ele><time>2026-04-19T12:53:06Z</time></trkpt><trkpt lat="25.824802995104168" lon="-80.48290635364006"><ele>8.2</ele><time>2026-04-19T12:53:07Z</time></trkpt><trkpt lat="25.824705676700297" lon="-80.4829006118325"><ele>8.6</ele><time>2026-04-19T12:53:08Z</time></trkpt><trkpt lat="25.824611671112603" lon="-80.4828954016034"><ele>9.0</ele><time>2026-04-19T12:53:09Z</time></trkpt><trkpt lat="25.82451493655503" lon="-80.48288928469287"><ele>9.0</ele><time>2026-04-19T12:53:10Z</time></trkpt><trkpt lat="25.824420101727796" lon="-80.4828865467209"><ele>9.0</ele><time>2026-04-19T12:53:11Z</time></trkpt><trkpt lat="25.824324717993406" lon="-80.48288239336146"><ele>9.0</ele><time>2026-04-19T12:53:12Z</time></trkpt><trkpt lat="25.8242318535526" lon="-80.4828773108971"><ele>9.0</ele><time>2026-04-19T12:53:13Z</time></trkpt><trkpt lat="25.824139416367846" lon="-80.48287190589058"><ele>9.0</ele><time>2026-04-19T12:53:14Z</time></trkpt><trkpt lat="25.824047354813498" lon="-80.48286890563946"><ele>8.8</ele><time>2026-04-19T12:53:15Z</time></trkpt><trkpt lat="25.823955340746053" lon="-80.48286455205694"><ele>8.600000000000001</ele><time>2026-04-19T12:53:16Z</time></trkpt><trkpt lat="25.82386325143493" lon="-80.482862260894"><ele>8.4</ele><time>2026-04-19T12:53:17Z</time></trkpt><trkpt lat="25.823769449895543" lon="-80.4828591785058"><ele>8.200000000000001</ele><time>2026-04-19T12:53:18Z</time></trkpt><trkpt lat="25.823676290263364" lon="-80.48285655327611"><ele>8.0</ele><time>2026-04-19T12:53:19Z</time></trkpt><trkpt lat="25.823581726750888" lon="-80.48285353543031"><ele>8.0</ele><time>2026-04-19T12:53:20Z</time></trkpt><trkpt lat="25.823487991985896" lon="-80.48285376595426"><ele>8.0</ele><time>2026-04-19T12:53:21Z</time></trkpt><trkpt lat="25.823392535475595" lon="-80.48284967658238"><ele>8.0</ele><time>2026-04-19T12:53:22Z</time></trkpt><trkpt lat="25.823296389362397" lon="-80.48284597628398"><ele>8.0</ele><time>2026-04-19T12:53:23Z</time></trkpt><trkpt lat="25.82319867266305" lon="-80.48284130548839"><ele>8.0</ele><time>2026-04-19T12:53:24Z</time></trkpt><trkpt lat="25.823102902316236" lon="-80.48283909030111"><ele>7.800000000000001</ele><time>2026-04-19T12:53:25Z</time></trkpt><trkpt lat="25.823004046694074" lon="-80.482833403447"><ele>7.6000000000000005</ele><time>2026-04-19T12:53:26Z</time></trkpt><trkpt lat="25.82290729403062" lon="-80.48283028645541"><ele>7.3999999999999995</ele><time>2026-04-19T12:53:27Z</time></trkpt><trkpt lat="25.822807622653787" lon="-80.4828256450741"><ele>7.199999999999999</ele><time>2026-04-19T12:53:28Z</time></trkpt><trkpt lat="25.822708145352028" lon="-80.4828218297833"><ele>7.0</ele><time>2026-04-19T12:53:29Z</time></trkpt><trkpt lat="25.82261040601278" lon="-80.48281788078735"><ele>7.0</ele><time>2026-04-19T12:53:30Z</time></trkpt><trkpt lat="25.8225099552119" lon="-80.48281198915011"><ele>6.999999999999999</ele><time>2026-04-19T12:53:31Z</time></trkpt><trkpt lat="25.822414733829092" lon="-80.48280958412681"><ele>6.999999999999999</ele><time>2026-04-19T12:53:32Z</time></trkpt><trkpt lat="25.82231533879362" lon="-80.48280701429081"><ele>7.0</ele><time>2026-04-19T12:53:33Z</time></trkpt><trkpt lat="25.822222658845064" lon="-80.48280221482143"><ele>7.0</ele><time>2026-04-19T12:53:33.999Z</time></trkpt><trkpt lat="25.822126919191756" lon="-80.48279903563188"><ele>7.0</ele><time>2026-04-19T12:53:34.999Z</time></trkpt><trkpt lat="25.822032721448238" lon="-80.48279582938719"><ele>6.999999999999999</ele><time>2026-04-19T12:53:35.999Z</time></trkpt><trkpt lat="25.82193745387712" lon="-80.4827921200567"><ele>6.999999999999999</ele><time>2026-04-19T12:53:36.999Z</time></trkpt><trkpt lat="25.821842680868084" lon="-80.48278861185719"><ele>7.0</ele><time>2026-04-19T12:53:37.999Z</time></trkpt><trkpt lat="25.821748693652466" lon="-80.48278545684174"><ele>7.0</ele><time>2026-04-19T12:53:38.999Z</time></trkpt><trkpt lat="25.82165496539905" lon="-80.48278283870278"><ele>7.0</ele><time>2026-04-19T12:53:39.999Z</time></trkpt><trkpt lat="25.82156336763975" lon="-80.4827784676805"><ele>6.999999999999999</ele><time>2026-04-19T12:53:40.999Z</time></trkpt><trkpt lat="25.821473077411955" lon="-80.48277128928005"><ele>6.999999999999999</ele><time>2026-04-19T12:53:41.999Z</time></trkpt><trkpt lat="25.821382336357463" lon="-80.48276653077623"><ele>7.0</ele><time>2026-04-19T12:53:42.999Z</time></trkpt><trkpt lat="25.821293660056714" lon="-80.48276372602547"><ele>7.0</ele><time>2026-04-19T12:53:43.999Z</time></trkpt><trkpt lat="25.821202787810805" lon="-80.48276236853627"><ele>7.0</ele><time>2026-04-19T12:53:44.999Z</time></trkpt><trkpt lat="25.821109786413118" lon="-80.48275837176793"><ele>6.999999999999999</ele><time>2026-04-19T12:53:45.999Z</time></trkpt><trkpt lat="25.821018168347962" lon="-80.48275639816976"><ele>6.999999999999999</ele><time>2026-04-19T12:53:46.999Z</time></trkpt><trkpt lat="25.820924492066236" lon="-80.48275285660439"><ele>7.0</ele><time>2026-04-19T12:53:47.999Z</time></trkpt><trkpt lat="25.82083181252135" lon="-80.4827506577327"><ele>7.0</ele><time>2026-04-19T12:53:48.999Z</time></trkpt><trkpt lat="25.820739278417413" lon="-80.48274707408927"><ele>7.3999999999999995</ele><time>2026-04-19T12:53:49.999Z</time></trkpt><trkpt lat="25.82064136274782" lon="-80.48274434649593"><ele>7.799999999999999</ele><time>2026-04-19T12:53:50.999Z</time></trkpt><trkpt lat="25.820547593889927" lon="-80.48274023187085"><ele>8.2</ele><time>2026-04-19T12:53:51.999Z</time></trkpt><trkpt lat="25.820453769938034" lon="-80.48273488783595"><ele>8.6</ele><time>2026-04-19T12:53:52.999Z</time></trkpt><trkpt lat="25.820358544089984" lon="-80.48273163672381"><ele>9.0</ele><time>2026-04-19T12:53:53.999Z</time></trkpt><trkpt lat="25.820265864583966" lon="-80.48272673432837"><ele>9.0</ele><time>2026-04-19T12:53:54.999Z</time></trkpt><trkpt lat="25.820173765597897" lon="-80.48272268125665"><ele>9.0</ele><time>2026-04-19T12:53:55.999Z</time></trkpt><trkpt lat="25.820079300800295" lon="-80.48272034396125"><ele>9.0</ele><time>2026-04-19T12:53:56.999Z</time></trkpt><trkpt lat="25.819985025581655" lon="-80.48271724784681"><ele>9.0</ele><time>2026-04-19T12:53:57.999Z</time></trkpt><trkpt lat="25.819892198986835" lon="-80.48271361093133"><ele>9.0</ele><time>2026-04-19T12:53:58.999Z</time></trkpt><trkpt lat="25.819800818012418" lon="-80.48271073998339"><ele>9.0</ele><time>2026-04-19T12:53:59.999Z</time></trkpt><trkpt lat="25.819709955392906" lon="-80.48270475566913"><ele>9.0</ele><time>2026-04-19T12:54:00.999Z</time></trkpt><trkpt lat="25.819619612283457" lon="-80.48270227248148"><ele>9.0</ele><time>2026-04-19T12:54:01.999Z</time></trkpt><trkpt lat="25.81952730689531" lon="-80.4826998770589"><ele>9.0</ele><time>2026-04-19T12:54:02.999Z</time></trkpt><trkpt lat="25.81943646497544" lon="-80.48269563293313"><ele>9.0</ele><time>2026-04-19T12:54:03.999Z</time></trkpt><trkpt lat="25.8193447372412" lon="-80.4826917372784"><ele>9.0</ele><time>2026-04-19T12:54:04.999Z</time></trkpt><trkpt lat="25.81925236483874" lon="-80.48269048707641"><ele>9.0</ele><time>2026-04-19T12:54:05.999Z</time></trkpt><trkpt lat="25.81915917850141" lon="-80.48268734803325"><ele>9.0</ele><time>2026-04-19T12:54:06.999Z</time></trkpt><trkpt lat="25.819065077120218" lon="-80.48268182010449"><ele>9.0</ele><time>2026-04-19T12:54:07.999Z</time></trkpt><trkpt lat="25.81897192241485" lon="-80.48267820632968"><ele>9.0</ele><time>2026-04-19T12:54:08.999Z</time></trkpt><trkpt lat="25.818879576366108" lon="-80.4826766223614"><ele>9.0</ele><time>2026-04-19T12:54:09.999Z</time></trkpt><trkpt lat="25.81878835598344" lon="-80.4826714647243"><ele>9.0</ele><time>2026-04-19T12:54:10.999Z</time></trkpt><trkpt lat="25.818694980340183" lon="-80.48266695820178"><ele>9.0</ele><time>2026-04-19T12:54:11.999Z</time></trkpt><trkpt lat="25.81860230912556" lon="-80.48266208963383"><ele>9.0</ele><time>2026-04-19T12:54:12.999Z</time></trkpt><trkpt lat="25.818509789344798" lon="-80.48265941555931"><ele>9.0</ele><time>2026-04-19T12:54:13.999Z</time></trkpt><trkpt lat="25.818412844498756" lon="-80.48265598302072"><ele>8.4</ele><time>2026-04-19T12:54:14.999Z</time></trkpt><trkpt lat="25.818315179006735" lon="-80.48265246686796"><ele>7.800000000000001</ele><time>2026-04-19T12:54:15.999Z</time></trkpt><trkpt lat="25.818216172658538" lon="-80.48264887033596"><ele>7.199999999999999</ele><time>2026-04-19T12:54:16.999Z</time></trkpt><trkpt lat="25.818114252654347" lon="-80.48264549851515"><ele>6.6</ele><time>2026-04-19T12:54:17.999Z</time></trkpt><trkpt lat="25.818011721555628" lon="-80.48264289251401"><ele>6.0</ele><time>2026-04-19T12:54:18.999Z</time></trkpt><trkpt lat="25.817907683548192" lon="-80.48264040089408"><ele>6.0</ele><time>2026-04-19T12:54:19.999Z</time></trkpt><trkpt lat="25.81780488668232" lon="-80.48263606033666"><ele>6.0</ele><time>2026-04-19T12:54:20.999Z</time></trkpt><trkpt lat="25.817699970220602" lon="-80.48262897668656"><ele>6.0</ele><time>2026-04-19T12:54:21.999Z</time></trkpt><trkpt lat="25.81759370533182" lon="-80.48262565056214"><ele>6.0</ele><time>2026-04-19T12:54:22.999Z</time></trkpt><trkpt lat="25.81748681375796" lon="-80.4826233576642"><ele>6.0</ele><time>2026-04-19T12:54:23.999Z</time></trkpt><trkpt lat="25.817378080226355" lon="-80.48261954483016"><ele>6.4</ele><time>2026-04-19T12:54:24.999Z</time></trkpt><trkpt lat="25.81726840001101" lon="-80.48261634895313"><ele>6.8</ele><time>2026-04-19T12:54:25.999Z</time></trkpt><trkpt lat="25.817157071732833" lon="-80.4826098366671"><ele>7.200000000000001</ele><time>2026-04-19T12:54:26.999Z</time></trkpt><trkpt lat="25.81704585230824" lon="-80.48260681807373"><ele>7.6000000000000005</ele><time>2026-04-19T12:54:27.999Z</time></trkpt><trkpt lat="25.816934083968043" lon="-80.48260175998021"><ele>8.0</ele><time>2026-04-19T12:54:28.999Z</time></trkpt><trkpt lat="25.816822875134633" lon="-80.48259566603312"><ele>8.200000000000001</ele><time>2026-04-19T12:54:29.999Z</time></trkpt><trkpt lat="25.816712815398606" lon="-80.48259423278608"><ele>8.4</ele><time>2026-04-19T12:54:30.999Z</time></trkpt><trkpt lat="25.81660210700716" lon="-80.48258843436953"><ele>8.600000000000001</ele><time>2026-04-19T12:54:31.999Z</time></trkpt><trkpt lat="25.816490879523258" lon="-80.48258331077344"><ele>8.8</ele><time>2026-04-19T12:54:33Z</time></trkpt><trkpt lat="25.816380926052748" lon="-80.48257924546834"><ele>9.0</ele><time>2026-04-19T12:54:34Z</time></trkpt><trkpt lat="25.81627256672026" lon="-80.48257515687973"><ele>9.0</ele><time>2026-04-19T12:54:35Z</time></trkpt><trkpt lat="25.816164060211193" lon="-80.48256848237614"><ele>9.0</ele><time>2026-04-19T12:54:36Z</time></trkpt><trkpt lat="25.81605838716651" lon="-80.48256211832077"><ele>9.0</ele><time>2026-04-19T12:54:37Z</time></trkpt><trkpt lat="25.81595388361143" lon="-80.48255730429425"><ele>9.0</ele><time>2026-04-19T12:54:38Z</time></trkpt><trkpt lat="25.8158475279921" lon="-80.48255306996714"><ele>9.0</ele><time>2026-04-19T12:54:39Z</time></trkpt><trkpt lat="25.815745829400214" lon="-80.48254908890677"><ele>8.4</ele><time>2026-04-19T12:54:40Z</time></trkpt><trkpt lat="25.815643700516656" lon="-80.48254710128677"><ele>7.800000000000001</ele><time>2026-04-19T12:54:41Z</time></trkpt><trkpt lat="25.815542409823788" lon="-80.48254483395161"><ele>7.199999999999999</ele><time>2026-04-19T12:54:42Z</time></trkpt><trkpt lat="25.81544408217871" lon="-80.48254060049028"><ele>6.6</ele><time>2026-04-19T12:54:43Z</time></trkpt><trkpt lat="25.815346312452167" lon="-80.48253648809731"><ele>6.0</ele><time>2026-04-19T12:54:44Z</time></trkpt><trkpt lat="25.81524818191325" lon="-80.48253466211862"><ele>6.4</ele><time>2026-04-19T12:54:45Z</time></trkpt><trkpt lat="25.815150323503673" lon="-80.48253221578219"><ele>6.8</ele><time>2026-04-19T12:54:46Z</time></trkpt><trkpt lat="25.815051868183282" lon="-80.48252921259592"><ele>7.200000000000001</ele><time>2026-04-19T12:54:47Z</time></trkpt><trkpt lat="25.814952295762822" lon="-80.4825243462858"><ele>7.6000000000000005</ele><time>2026-04-19T12:54:48Z</time></trkpt><trkpt lat="25.814851657240794" lon="-80.48252161474237"><ele>8.0</ele><time>2026-04-19T12:54:49Z</time></trkpt><trkpt lat="25.81474954344207" lon="-80.48251505789369"><ele>8.0</ele><time>2026-04-19T12:54:50Z</time></trkpt><trkpt lat="25.814647706642237" lon="-80.48251120624967"><ele>8.0</ele><time>2026-04-19T12:54:51Z</time></trkpt><trkpt lat="25.81454768780259" lon="-80.48250695783365"><ele>8.0</ele><time>2026-04-19T12:54:52Z</time></trkpt><trkpt lat="25.814449974258547" lon="-80.48250185940293"><ele>8.0</ele><time>2026-04-19T12:54:53Z</time></trkpt><trkpt lat="25.81435559730817" lon="-80.48249952634234"><ele>8.0</ele><time>2026-04-19T12:54:54Z</time></trkpt><trkpt lat="25.814260740551063" lon="-80.48249746407552"><ele>8.4</ele><time>2026-04-19T12:54:55Z</time></trkpt><trkpt lat="25.81416770625081" lon="-80.4824931071719"><ele>8.8</ele><time>2026-04-19T12:54:56Z</time></trkpt><trkpt lat="25.814073723019295" lon="-80.48248889861053"><ele>9.2</ele><time>2026-04-19T12:54:57Z</time></trkpt><trkpt lat="25.813980133557827" lon="-80.48248594595218"><ele>9.6</ele><time>2026-04-19T12:54:58Z</time></trkpt><trkpt lat="25.813885613018737" lon="-80.48248356541302"><ele>10.0</ele><time>2026-04-19T12:54:59Z</time></trkpt><trkpt lat="25.813791372273528" lon="-80.48247926280405"><ele>10.0</ele><time>2026-04-19T12:55:00Z</time></trkpt><trkpt lat="25.813699217770015" lon="-80.48247466981786"><ele>10.0</ele><time>2026-04-19T12:55:01Z</time></trkpt><trkpt lat="25.81360693863541" lon="-80.48247059828893"><ele>10.0</ele><time>2026-04-19T12:55:02Z</time></trkpt><trkpt lat="25.813516032533514" lon="-80.48246779708957"><ele>10.0</ele><time>2026-04-19T12:55:03Z</time></trkpt><trkpt lat="25.81342483280789" lon="-80.48246560274552"><ele>10.0</ele><time>2026-04-19T12:55:04Z</time></trkpt><trkpt lat="25.813330117320273" lon="-80.48246069159144"><ele>9.6</ele><time>2026-04-19T12:55:05Z</time></trkpt><trkpt lat="25.813233890159943" lon="-80.48245595416599"><ele>9.2</ele><time>2026-04-19T12:55:06Z</time></trkpt><trkpt lat="25.813135190690133" lon="-80.48245149495331"><ele>8.8</ele><time>2026-04-19T12:55:07Z</time></trkpt><trkpt lat="25.81303682548653" lon="-80.48244763552572"><ele>8.4</ele><time>2026-04-19T12:55:08Z</time></trkpt><trkpt lat="25.812939168140623" lon="-80.48244326083939"><ele>8.0</ele><time>2026-04-19T12:55:09Z</time></trkpt><trkpt lat="25.812841830147956" lon="-80.48243924952232"><ele>8.0</ele><time>2026-04-19T12:55:10Z</time></trkpt><trkpt lat="25.812743896088655" lon="-80.48243573790835"><ele>8.0</ele><time>2026-04-19T12:55:11Z</time></trkpt><trkpt lat="25.812643060908755" lon="-80.48243547672647"><ele>8.0</ele><time>2026-04-19T12:55:12Z</time></trkpt><trkpt lat="25.812541672823116" lon="-80.48243349478504"><ele>8.0</ele><time>2026-04-19T12:55:13Z</time></trkpt><trkpt lat="25.812440386117075" lon="-80.48243061003954"><ele>8.0</ele><time>2026-04-19T12:55:14Z</time></trkpt><trkpt lat="25.812337495228814" lon="-80.48242592590462"><ele>8.0</ele><time>2026-04-19T12:55:15Z</time></trkpt><trkpt lat="25.81223570062597" lon="-80.48242609043635"><ele>8.0</ele><time>2026-04-19T12:55:16Z</time></trkpt><trkpt lat="25.812132393713885" lon="-80.48242477225003"><ele>8.0</ele><time>2026-04-19T12:55:17Z</time></trkpt><trkpt lat="25.812028745826247" lon="-80.48242195516501"><ele>8.0</ele><time>2026-04-19T12:55:18Z</time></trkpt><trkpt lat="25.811925813435696" lon="-80.48242582447563"><ele>8.0</ele><time>2026-04-19T12:55:19Z</time></trkpt><trkpt lat="25.81182956273058" lon="-80.48242913229637"><ele>7.999999999999999</ele><time>2026-04-19T12:55:20Z</time></trkpt><trkpt lat="25.81174569248398" lon="-80.4824298884739"><ele>8.0</ele><time>2026-04-19T12:55:21Z</time></trkpt><trkpt lat="25.81166361937978" lon="-80.48243046172942"><ele>8.0</ele><time>2026-04-19T12:55:22Z</time></trkpt><trkpt lat="25.811577751535914" lon="-80.48243330004009"><ele>8.0</ele><time>2026-04-19T12:55:23Z</time></trkpt><trkpt lat="25.811487020070803" lon="-80.48243424209646"><ele>7.999999999999999</ele><time>2026-04-19T12:55:24Z</time></trkpt><trkpt lat="25.811392098202017" lon="-80.48243420954948"><ele>8.0</ele><time>2026-04-19T12:55:25Z</time></trkpt><trkpt lat="25.81129374472082" lon="-80.48243432430594"><ele>8.0</ele><time>2026-04-19T12:55:26Z</time></trkpt><trkpt lat="25.811191905154185" lon="-80.48243599290053"><ele>8.0</ele><time>2026-04-19T12:55:27Z</time></trkpt><trkpt lat="25.81108670213877" lon="-80.48244072972012"><ele>8.0</ele><time>2026-04-19T12:55:28Z</time></trkpt><trkpt lat="25.810979741844882" lon="-80.48244124058789"><ele>8.0</ele><time>2026-04-19T12:55:28.999Z</time></trkpt><trkpt lat="25.810874667914213" lon="-80.48244628570012"><ele>8.0</ele><time>2026-04-19T12:55:29.999Z</time></trkpt><trkpt lat="25.810770877792894" lon="-80.48245168591532"><ele>7.6000000000000005</ele><time>2026-04-19T12:55:30.999Z</time></trkpt><trkpt lat="25.810663243609273" lon="-80.4824544863605"><ele>7.200000000000001</ele><time>2026-04-19T12:55:31.999Z</time></trkpt><trkpt lat="25.81055377196394" lon="-80.48246045717984"><ele>6.8</ele><time>2026-04-19T12:55:32.999Z</time></trkpt><trkpt lat="25.81044493778201" lon="-80.48246300302941"><ele>6.4</ele><time>2026-04-19T12:55:33.999Z</time></trkpt><trkpt lat="25.810334393974543" lon="-80.48246886266111"><ele>6.0</ele><time>2026-04-19T12:55:34.999Z</time></trkpt><trkpt lat="25.810222591218803" lon="-80.48247251007759"><ele>6.199999999999999</ele><time>2026-04-19T12:55:35.999Z</time></trkpt><trkpt lat="25.810112739445007" lon="-80.48247602443821"><ele>6.3999999999999995</ele><time>2026-04-19T12:55:36.999Z</time></trkpt><trkpt lat="25.810002703341535" lon="-80.48248104793169"><ele>6.6</ele><time>2026-04-19T12:55:37.999Z</time></trkpt><trkpt lat="25.80989584928357" lon="-80.48248652328687"><ele>6.8</ele><time>2026-04-19T12:55:38.999Z</time></trkpt><trkpt lat="25.809789727205917" lon="-80.4824913706479"><ele>7.0</ele><time>2026-04-19T12:55:39.999Z</time></trkpt><trkpt lat="25.80968368009988" lon="-80.48249558777859"><ele>7.0</ele><time>2026-04-19T12:55:40.999Z</time></trkpt><trkpt lat="25.80957675287513" lon="-80.48250030441689"><ele>6.999999999999999</ele><time>2026-04-19T12:55:41.999Z</time></trkpt><trkpt lat="25.809470057818086" lon="-80.48250611971623"><ele>6.999999999999999</ele><time>2026-04-19T12:55:42.999Z</time></trkpt><trkpt lat="25.809363106195168" lon="-80.48251394964636"><ele>7.0</ele><time>2026-04-19T12:55:43.999Z</time></trkpt><trkpt lat="25.809254932842116" lon="-80.48252591524091"><ele>7.0</ele><time>2026-04-19T12:55:44.999Z</time></trkpt><trkpt lat="25.80914295576189" lon="-80.4825279342399"><ele>7.5</ele><time>2026-04-19T12:55:45.999Z</time></trkpt><trkpt lat="25.80903084611635" lon="-80.4825331076528"><ele>8.0</ele><time>2026-04-19T12:55:46.999Z</time></trkpt><trkpt lat="25.80891809545003" lon="-80.48253742150983"><ele>8.5</ele><time>2026-04-19T12:55:47.999Z</time></trkpt><trkpt lat="25.80880488060038" lon="-80.4825425807909"><ele>9.0</ele><time>2026-04-19T12:55:48.999Z</time></trkpt><trkpt lat="25.80869047751932" lon="-80.48254548233739"><ele>9.0</ele><time>2026-04-19T12:55:49.999Z</time></trkpt><trkpt lat="25.808574846686653" lon="-80.4825504406281"><ele>9.0</ele><time>2026-04-19T12:55:50.999Z</time></trkpt><trkpt lat="25.80846190792732" lon="-80.48255508688834"><ele>9.0</ele><time>2026-04-19T12:55:51.999Z</time></trkpt><trkpt lat="25.808349210444216" lon="-80.48255921754676"><ele>9.0</ele><time>2026-04-19T12:55:52.999Z</time></trkpt><trkpt lat="25.80823821145233" lon="-80.48256374807227"><ele>9.0</ele><time>2026-04-19T12:55:53.999Z</time></trkpt><trkpt lat="25.808133087221545" lon="-80.48256791926498"><ele>9.0</ele><time>2026-04-19T12:55:54.999Z</time></trkpt><trkpt lat="25.808029920651105" lon="-80.48257141730507"><ele>9.0</ele><time>2026-04-19T12:55:55.999Z</time></trkpt><trkpt lat="25.807928430466337" lon="-80.48257616016717"><ele>9.0</ele><time>2026-04-19T12:55:56.999Z</time></trkpt><trkpt lat="25.80782744210337" lon="-80.48258218468335"><ele>9.0</ele><time>2026-04-19T12:55:57.999Z</time></trkpt><trkpt lat="25.807726722532916" lon="-80.48258803458234"><ele>8.8</ele><time>2026-04-19T12:55:58.999Z</time></trkpt><trkpt lat="25.807627258337533" lon="-80.48259155980294"><ele>8.600000000000001</ele><time>2026-04-19T12:55:59.999Z</time></trkpt><trkpt lat="25.807526291285196" lon="-80.48259549331067"><ele>8.4</ele><time>2026-04-19T12:56:00.999Z</time></trkpt><trkpt lat="25.807425087420935" lon="-80.48259975100454"><ele>8.200000000000001</ele><time>2026-04-19T12:56:01.999Z</time></trkpt><trkpt lat="25.807326380682287" lon="-80.48260517675386"><ele>8.0</ele><time>2026-04-19T12:56:02.999Z</time></trkpt><trkpt lat="25.80722652463646" lon="-80.48260621255996"><ele>8.0</ele><time>2026-04-19T12:56:03.999Z</time></trkpt><trkpt lat="25.807123071676365" lon="-80.48261101368391"><ele>8.0</ele><time>2026-04-19T12:56:04.999Z</time></trkpt><trkpt lat="25.80701758265229" lon="-80.48261706350898"><ele>8.0</ele><time>2026-04-19T12:56:05.999Z</time></trkpt><trkpt lat="25.806907794603646" lon="-80.48262108787493"><ele>8.0</ele><time>2026-04-19T12:56:06.999Z</time></trkpt><trkpt lat="25.806797042411123" lon="-80.48262533958852"><ele>8.0</ele><time>2026-04-19T12:56:07.999Z</time></trkpt><trkpt lat="25.80668668694154" lon="-80.48262965950019"><ele>8.200000000000001</ele><time>2026-04-19T12:56:08.999Z</time></trkpt><trkpt lat="25.806576273946405" lon="-80.48263515564375"><ele>8.4</ele><time>2026-04-19T12:56:09.999Z</time></trkpt><trkpt lat="25.80646590999603" lon="-80.48263805179872"><ele>8.600000000000001</ele><time>2026-04-19T12:56:10.999Z</time></trkpt><trkpt lat="25.806354611158905" lon="-80.48264135938142"><ele>8.8</ele><time>2026-04-19T12:56:11.999Z</time></trkpt><trkpt lat="25.806244091880846" lon="-80.48264645022655"><ele>9.0</ele><time>2026-04-19T12:56:12.999Z</time></trkpt><trkpt lat="25.806134772755566" lon="-80.48265232725937"><ele>9.0</ele><time>2026-04-19T12:56:13.999Z</time></trkpt><trkpt lat="25.8060263019246" lon="-80.48265333714927"><ele>9.0</ele><time>2026-04-19T12:56:14.999Z</time></trkpt><trkpt lat="25.805918085276303" lon="-80.48265733662011"><ele>9.0</ele><time>2026-04-19T12:56:15.999Z</time></trkpt><trkpt lat="25.805809016926737" lon="-80.48266153259884"><ele>9.0</ele><time>2026-04-19T12:56:16.999Z</time></trkpt><trkpt lat="25.80570109005947" lon="-80.48266629394568"><ele>9.0</ele><time>2026-04-19T12:56:17.999Z</time></trkpt><trkpt lat="25.80559236701963" lon="-80.48267204778612"><ele>8.8</ele><time>2026-04-19T12:56:18.999Z</time></trkpt><trkpt lat="25.80548320509293" lon="-80.48267582081711"><ele>8.600000000000001</ele><time>2026-04-19T12:56:19.999Z</time></trkpt><trkpt lat="25.80537620186742" lon="-80.48267770881871"><ele>8.4</ele><time>2026-04-19T12:56:20.999Z</time></trkpt><trkpt lat="25.80526877766796" lon="-80.48268150506681"><ele>8.200000000000001</ele><time>2026-04-19T12:56:21.999Z</time></trkpt><trkpt lat="25.805161916669952" lon="-80.48268832502944"><ele>8.0</ele><time>2026-04-19T12:56:22.999Z</time></trkpt><trkpt lat="25.80505395712746" lon="-80.48269243636558"><ele>7.4</ele><time>2026-04-19T12:56:23.999Z</time></trkpt><trkpt lat="25.804946102471593" lon="-80.48269521722868"><ele>6.800000000000001</ele><time>2026-04-19T12:56:24.999Z</time></trkpt><trkpt lat="25.804838506375464" lon="-80.48270059277797"><ele>6.2</ele><time>2026-04-19T12:56:25.999Z</time></trkpt><trkpt lat="25.8047280136904" lon="-80.48270440618165"><ele>5.6</ele><time>2026-04-19T12:56:26.999Z</time></trkpt><trkpt lat="25.80461727742696" lon="-80.4827085591151"><ele>5.0</ele><time>2026-04-19T12:56:27.999Z</time></trkpt><trkpt lat="25.804507319845168" lon="-80.48271476864043"><ele>5.0</ele><time>2026-04-19T12:56:28.999Z</time></trkpt><trkpt lat="25.80439724321032" lon="-80.48271954226027"><ele>5.0</ele><time>2026-04-19T12:56:29.999Z</time></trkpt><trkpt lat="25.804287251992744" lon="-80.48272222717823"><ele>5.0</ele><time>2026-04-19T12:56:30.999Z</time></trkpt><trkpt lat="25.804180415678523" lon="-80.48272450163243"><ele>5.0</ele><time>2026-04-19T12:56:31.999Z</time></trkpt><trkpt lat="25.804073835539484" lon="-80.48272881689925"><ele>5.0</ele><time>2026-04-19T12:56:32.999Z</time></trkpt><trkpt lat="25.803967271932635" lon="-80.48273432482365"><ele>5.0</ele><time>2026-04-19T12:56:33.999Z</time></trkpt><trkpt lat="25.803860564656304" lon="-80.48273787628627"><ele>5.0</ele><time>2026-04-19T12:56:34.999Z</time></trkpt><trkpt lat="25.803753697545904" lon="-80.4827408524132"><ele>5.0</ele><time>2026-04-19T12:56:35.999Z</time></trkpt><trkpt lat="25.803646524794605" lon="-80.4827448599256"><ele>5.0</ele><time>2026-04-19T12:56:36.999Z</time></trkpt><trkpt lat="25.803539972645282" lon="-80.48275059268526"><ele>5.0</ele><time>2026-04-19T12:56:37.999Z</time></trkpt><trkpt lat="25.8034345253501" lon="-80.48275603707478"><ele>5.0</ele><time>2026-04-19T12:56:39Z</time></trkpt><trkpt lat="25.803329894621506" lon="-80.48275822346673"><ele>5.0</ele><time>2026-04-19T12:56:40Z</time></trkpt><trkpt lat="25.80322589785178" lon="-80.48276273913638"><ele>5.0</ele><time>2026-04-19T12:56:41Z</time></trkpt><trkpt lat="25.80312201595374" lon="-80.48276824679682"><ele>5.0</ele><time>2026-04-19T12:56:42Z</time></trkpt><trkpt lat="25.80301879320666" lon="-80.4827719381594"><ele>5.0</ele><time>2026-04-19T12:56:43Z</time></trkpt><trkpt lat="25.802917142448333" lon="-80.48277630797767"><ele>5.0</ele><time>2026-04-19T12:56:44Z</time></trkpt><trkpt lat="25.802816077087915" lon="-80.48278011630276"><ele>5.0</ele><time>2026-04-19T12:56:45Z</time></trkpt><trkpt lat="25.80271532144183" lon="-80.48278719618281"><ele>5.0</ele><time>2026-04-19T12:56:46Z</time></trkpt><trkpt lat="25.802616117346115" lon="-80.48279492353352"><ele>5.0</ele><time>2026-04-19T12:56:47Z</time></trkpt><trkpt lat="25.80251517835727" lon="-80.48279809894098"><ele>5.0</ele><time>2026-04-19T12:56:48Z</time></trkpt><trkpt lat="25.802415876328705" lon="-80.48280320606212"><ele>4.8</ele><time>2026-04-19T12:56:49Z</time></trkpt><trkpt lat="25.80231455738267" lon="-80.48280659171601"><ele>4.6</ele><time>2026-04-19T12:56:50Z</time></trkpt><trkpt lat="25.802214687046547" lon="-80.4828112674074"><ele>4.4</ele><time>2026-04-19T12:56:51Z</time></trkpt><trkpt lat="25.802112288851397" lon="-80.4828156689148"><ele>4.2</ele><time>2026-04-19T12:56:52Z</time></trkpt><trkpt lat="25.802010328320225" lon="-80.48282154570796"><ele>4.0</ele><time>2026-04-19T12:56:53Z</time></trkpt><trkpt lat="25.801908003922474" lon="-80.48282831104497"><ele>4.4</ele><time>2026-04-19T12:56:54Z</time></trkpt><trkpt lat="25.801807823443426" lon="-80.48283327686413"><ele>4.800000000000001</ele><time>2026-04-19T12:56:55Z</time></trkpt><trkpt lat="25.801705928154114" lon="-80.48283795528437"><ele>5.199999999999999</ele><time>2026-04-19T12:56:56Z</time></trkpt><trkpt lat="25.801605252135456" lon="-80.48284231951764"><ele>5.6</ele><time>2026-04-19T12:56:57Z</time></trkpt><trkpt lat="25.801505220891624" lon="-80.48284774016257"><ele>6.0</ele><time>2026-04-19T12:56:58Z</time></trkpt><trkpt lat="25.80140526557438" lon="-80.48285010793045"><ele>6.0</ele><time>2026-04-19T12:56:59Z</time></trkpt><trkpt lat="25.80130688917953" lon="-80.48284653446646"><ele>6.0</ele><time>2026-04-19T12:57:00Z</time></trkpt><trkpt lat="25.801204128505425" lon="-80.48284842687599"><ele>6.0</ele><time>2026-04-19T12:57:01Z</time></trkpt><trkpt lat="25.801098611940365" lon="-80.4828543428981"><ele>6.0</ele><time>2026-04-19T12:57:02Z</time></trkpt><trkpt lat="25.800990626224092" lon="-80.48285711111292"><ele>6.0</ele><time>2026-04-19T12:57:03Z</time></trkpt><trkpt lat="25.800883101196305" lon="-80.48286706068282"><ele>5.6</ele><time>2026-04-19T12:57:04Z</time></trkpt><trkpt lat="25.800773680736196" lon="-80.48287458570283"><ele>5.199999999999999</ele><time>2026-04-19T12:57:05Z</time></trkpt><trkpt lat="25.800664727750334" lon="-80.48288002050009"><ele>4.800000000000001</ele><time>2026-04-19T12:57:06Z</time></trkpt><trkpt lat="25.800555203352527" lon="-80.48288425448848"><ele>4.4</ele><time>2026-04-19T12:57:07Z</time></trkpt><trkpt lat="25.800444947812277" lon="-80.48288987716275"><ele>4.0</ele><time>2026-04-19T12:57:08Z</time></trkpt><trkpt lat="25.800332489606717" lon="-80.48289492221384"><ele>4.0</ele><time>2026-04-19T12:57:09Z</time></trkpt><trkpt lat="25.800220902598905" lon="-80.48289931878924"><ele>4.0</ele><time>2026-04-19T12:57:10Z</time></trkpt><trkpt lat="25.80011026880961" lon="-80.48290207250383"><ele>4.0</ele><time>2026-04-19T12:57:11Z</time></trkpt><trkpt lat="25.79999827686414" lon="-80.4829060277619"><ele>4.0</ele><time>2026-04-19T12:57:12Z</time></trkpt><trkpt lat="25.7998877518436" lon="-80.4829131646424"><ele>4.0</ele><time>2026-04-19T12:57:13Z</time></trkpt><trkpt lat="25.79977915853323" lon="-80.4829202984759"><ele>4.2</ele><time>2026-04-19T12:57:14Z</time></trkpt><trkpt lat="25.79966927642304" lon="-80.48292534811763"><ele>4.4</ele><time>2026-04-19T12:57:15Z</time></trkpt><trkpt lat="25.799560185908298" lon="-80.48292876916281"><ele>4.6</ele><time>2026-04-19T12:57:16Z</time></trkpt><trkpt lat="25.79945079077537" lon="-80.48293166760124"><ele>4.8</ele><time>2026-04-19T12:57:17Z</time></trkpt><trkpt lat="25.799341178748694" lon="-80.48293392214946"><ele>5.0</ele><time>2026-04-19T12:57:18Z</time></trkpt><trkpt lat="25.799230489879047" lon="-80.48293673676903"><ele>5.2</ele><time>2026-04-19T12:57:19Z</time></trkpt><trkpt lat="25.799120841120775" lon="-80.48294113197169"><ele>5.4</ele><time>2026-04-19T12:57:20Z</time></trkpt><trkpt lat="25.79900815693648" lon="-80.48294430104878"><ele>5.6</ele><time>2026-04-19T12:57:21Z</time></trkpt><trkpt lat="25.798896696220233" lon="-80.48294621398297"><ele>5.8</ele><time>2026-04-19T12:57:22Z</time></trkpt><trkpt lat="25.798786223635865" lon="-80.48294984778265"><ele>6.0</ele><time>2026-04-19T12:57:23Z</time></trkpt><trkpt lat="25.79867389528167" lon="-80.4829537966175"><ele>6.0</ele><time>2026-04-19T12:57:24Z</time></trkpt><trkpt lat="25.798560365244516" lon="-80.48295448636394"><ele>6.0</ele><time>2026-04-19T12:57:25Z</time></trkpt><trkpt lat="25.798443753389797" lon="-80.48295332992662"><ele>6.0</ele><time>2026-04-19T12:57:26Z</time></trkpt><trkpt lat="25.798327104435597" lon="-80.48295050192343"><ele>6.0</ele><time>2026-04-19T12:57:27Z</time></trkpt><trkpt lat="25.79821096605633" lon="-80.48294927152264"><ele>6.25</ele><time>2026-04-19T12:57:28Z</time></trkpt><trkpt lat="25.798093594593954" lon="-80.48295245624422"><ele>6.5</ele><time>2026-04-19T12:57:29Z</time></trkpt><trkpt lat="25.797973554479515" lon="-80.48295357342032"><ele>6.75</ele><time>2026-04-19T12:57:29.999Z</time></trkpt><trkpt lat="25.79785213294533" lon="-80.48295741088548"><ele>7.0</ele><time>2026-04-19T12:57:30.999Z</time></trkpt><trkpt lat="25.797730128283103" lon="-80.48295704201207"><ele>7.0</ele><time>2026-04-19T12:57:31.999Z</time></trkpt><trkpt lat="25.79761151097192" lon="-80.48295471452158"><ele>7.0</ele><time>2026-04-19T12:57:32.999Z</time></trkpt><trkpt lat="25.797493020376272" lon="-80.48295413435702"><ele>7.0</ele><time>2026-04-19T12:57:33.999Z</time></trkpt><trkpt lat="25.79737825121768" lon="-80.4829526543731"><ele>7.0</ele><time>2026-04-19T12:57:34.999Z</time></trkpt><trkpt lat="25.797264658097344" lon="-80.4829494702827"><ele>7.0</ele><time>2026-04-19T12:57:35.999Z</time></trkpt><trkpt lat="25.79715177242491" lon="-80.48294844484683"><ele>6.999999999999999</ele><time>2026-04-19T12:57:36.999Z</time></trkpt><trkpt lat="25.797039932539796" lon="-80.48294556380455"><ele>6.999999999999999</ele><time>2026-04-19T12:57:37.999Z</time></trkpt><trkpt lat="25.79692974682554" lon="-80.48293909638609"><ele>7.0</ele><time>2026-04-19T12:57:38.999Z</time></trkpt><trkpt lat="25.796819165703035" lon="-80.48293208969612"><ele>7.0</ele><time>2026-04-19T12:57:39.999Z</time></trkpt><trkpt lat="25.796708698333735" lon="-80.48292491285295"><ele>7.8</ele><time>2026-04-19T12:57:40.999Z</time></trkpt><trkpt lat="25.796599763638206" lon="-80.48291792565263"><ele>8.6</ele><time>2026-04-19T12:57:41.999Z</time></trkpt><trkpt lat="25.796492833855673" lon="-80.482910181636"><ele>9.4</ele><time>2026-04-19T12:57:42.999Z</time></trkpt><trkpt lat="25.796386911936747" lon="-80.48290290818484"><ele>10.200000000000001</ele><time>2026-04-19T12:57:43.999Z</time></trkpt><trkpt lat="25.796278873302228" lon="-80.48289465628939"><ele>11.0</ele><time>2026-04-19T12:57:44.999Z</time></trkpt><trkpt lat="25.79617119610256" lon="-80.4828840549697"><ele>11.0</ele><time>2026-04-19T12:57:45.999Z</time></trkpt><trkpt lat="25.796060989777946" lon="-80.48287552721192"><ele>11.0</ele><time>2026-04-19T12:57:46.999Z</time></trkpt><trkpt lat="25.79595082681032" lon="-80.48286711771726"><ele>11.0</ele><time>2026-04-19T12:57:47.999Z</time></trkpt><trkpt lat="25.795841025577275" lon="-80.48285688046683"><ele>11.0</ele><time>2026-04-19T12:57:48.999Z</time></trkpt><trkpt lat="25.79572975924202" lon="-80.48284938480772"><ele>11.0</ele><time>2026-04-19T12:57:49.999Z</time></trkpt><trkpt lat="25.795618206681834" lon="-80.48284074796423"><ele>10.8</ele><time>2026-04-19T12:57:50.999Z</time></trkpt><trkpt lat="25.79550765866338" lon="-80.48283179058794"><ele>10.600000000000001</ele><time>2026-04-19T12:57:51.999Z</time></trkpt><trkpt lat="25.795395790557993" lon="-80.48282152392325"><ele>10.4</ele><time>2026-04-19T12:57:52.999Z</time></trkpt><trkpt lat="25.795286427557198" lon="-80.48281259602032"><ele>10.2</ele><time>2026-04-19T12:57:53.999Z</time></trkpt><trkpt lat="25.795176639758026" lon="-80.48280143526499"><ele>10.0</ele><time>2026-04-19T12:57:54.999Z</time></trkpt><trkpt lat="25.795067515301316" lon="-80.48279167836574"><ele>10.0</ele><time>2026-04-19T12:57:55.999Z</time></trkpt><trkpt lat="25.794961930668997" lon="-80.48278611730508"><ele>10.0</ele><time>2026-04-19T12:57:56.999Z</time></trkpt><trkpt lat="25.794868513352807" lon="-80.48277893689301"><ele>10.0</ele><time>2026-04-19T12:57:57.999Z</time></trkpt><trkpt lat="25.794776195350572" lon="-80.48277058205981"><ele>10.0</ele><time>2026-04-19T12:57:58.999Z</time></trkpt><trkpt lat="25.794682099759488" lon="-80.4827601414328"><ele>10.0</ele><time>2026-04-19T12:57:59.999Z</time></trkpt><trkpt lat="25.794585239992163" lon="-80.48275107807045"><ele>10.0</ele><time>2026-04-19T12:58:00.999Z</time></trkpt><trkpt lat="25.794486440668294" lon="-80.48274466461082"><ele>10.0</ele><time>2026-04-19T12:58:01.999Z</time></trkpt><trkpt lat="25.794388080696013" lon="-80.4827373113792"><ele>10.0</ele><time>2026-04-19T12:58:02.999Z</time></trkpt><trkpt lat="25.794286561420556" lon="-80.48272654493437"><ele>10.0</ele><time>2026-04-19T12:58:03.999Z</time></trkpt><trkpt lat="25.794188522768593" lon="-80.48271723098082"><ele>10.0</ele><time>2026-04-19T12:58:04.999Z</time></trkpt><trkpt lat="25.794086882151724" lon="-80.48270887234024"><ele>9.8</ele><time>2026-04-19T12:58:05.999Z</time></trkpt><trkpt lat="25.79398554579013" lon="-80.48270133309221"><ele>9.6</ele><time>2026-04-19T12:58:06.999Z</time></trkpt><trkpt lat="25.793884931296528" lon="-80.48269231090316"><ele>9.4</ele><time>2026-04-19T12:58:07.999Z</time></trkpt><trkpt lat="25.79378378341671" lon="-80.4826859440393"><ele>9.2</ele><time>2026-04-19T12:58:08.999Z</time></trkpt><trkpt lat="25.793683174531196" lon="-80.48267744807289"><ele>9.0</ele><time>2026-04-19T12:58:09.999Z</time></trkpt><trkpt lat="25.79358202058703" lon="-80.4826676793714"><ele>8.8</ele><time>2026-04-19T12:58:10.999Z</time></trkpt><trkpt lat="25.79348087846705" lon="-80.48266112105898"><ele>8.600000000000001</ele><time>2026-04-19T12:58:11.999Z</time></trkpt><trkpt lat="25.793379329035798" lon="-80.48265350810796"><ele>8.4</ele><time>2026-04-19T12:58:12.999Z</time></trkpt><trkpt lat="25.79327790061918" lon="-80.4826444672229"><ele>8.200000000000001</ele><time>2026-04-19T12:58:13.999Z</time></trkpt><trkpt lat="25.793176525060563" lon="-80.4826349884614"><ele>8.0</ele><time>2026-04-19T12:58:14.999Z</time></trkpt><trkpt lat="25.793073850295976" lon="-80.48262704285928"><ele>8.0</ele><time>2026-04-19T12:58:15.999Z</time></trkpt><trkpt lat="25.792970814888747" lon="-80.48261825250172"><ele>8.0</ele><time>2026-04-19T12:58:16.999Z</time></trkpt><trkpt lat="25.792867136749315" lon="-80.48260810765953"><ele>8.0</ele><time>2026-04-19T12:58:17.999Z</time></trkpt><trkpt lat="25.792763456465046" lon="-80.4825995999127"><ele>8.0</ele><time>2026-04-19T12:58:18.999Z</time></trkpt><trkpt lat="25.792661440429995" lon="-80.48259152393464"><ele>8.0</ele><time>2026-04-19T12:58:19.999Z</time></trkpt><trkpt lat="25.792560577468148" lon="-80.4825820984112"><ele>8.200000000000001</ele><time>2026-04-19T12:58:20.999Z</time></trkpt><trkpt lat="25.79246022604874" lon="-80.48257621731102"><ele>8.4</ele><time>2026-04-19T12:58:21.999Z</time></trkpt><trkpt lat="25.792360147197673" lon="-80.48256839113255"><ele>8.600000000000001</ele><time>2026-04-19T12:58:22.999Z</time></trkpt><trkpt lat="25.792261560955044" lon="-80.48255888234227"><ele>8.8</ele><time>2026-04-19T12:58:23.999Z</time></trkpt><trkpt lat="25.79216410065733" lon="-80.48255124870784"><ele>9.0</ele><time>2026-04-19T12:58:24.999Z</time></trkpt><trkpt lat="25.792066968354032" lon="-80.48254256935405"><ele>9.0</ele><time>2026-04-19T12:58:25.999Z</time></trkpt><trkpt lat="25.791971583697926" lon="-80.48253275267567"><ele>9.0</ele><time>2026-04-19T12:58:26.999Z</time></trkpt><trkpt lat="25.79187667043124" lon="-80.48252291592303"><ele>9.0</ele><time>2026-04-19T12:58:27.999Z</time></trkpt><trkpt lat="25.791782793257518" lon="-80.48251579982667"><ele>9.0</ele><time>2026-04-19T12:58:28.999Z</time></trkpt><trkpt lat="25.791686333993145" lon="-80.482508521674"><ele>9.0</ele><time>2026-04-19T12:58:29.999Z</time></trkpt><trkpt lat="25.791590030147255" lon="-80.48249947161278"><ele>9.2</ele><time>2026-04-19T12:58:30.999Z</time></trkpt><trkpt lat="25.79149060236248" lon="-80.48249243450626"><ele>9.4</ele><time>2026-04-19T12:58:31.999Z</time></trkpt><trkpt lat="25.791390347375074" lon="-80.48248401147266"><ele>9.6</ele><time>2026-04-19T12:58:32.999Z</time></trkpt><trkpt lat="25.791288066768466" lon="-80.48247513373978"><ele>9.8</ele><time>2026-04-19T12:58:33.999Z</time></trkpt><trkpt lat="25.791186803247577" lon="-80.48246698211064"><ele>10.0</ele><time>2026-04-19T12:58:34.999Z</time></trkpt><trkpt lat="25.79108346795329" lon="-80.48245816438845"><ele>10.4</ele><time>2026-04-19T12:58:35.999Z</time></trkpt><trkpt lat="25.79098052409354" lon="-80.48244549730167"><ele>10.8</ele><time>2026-04-19T12:58:36.999Z</time></trkpt><trkpt lat="25.790878017843976" lon="-80.48243755540372"><ele>11.2</ele><time>2026-04-19T12:58:37.999Z</time></trkpt><trkpt lat="25.790773958876542" lon="-80.48242911457521"><ele>11.6</ele><time>2026-04-19T12:58:38.999Z</time></trkpt><trkpt lat="25.790671281156477" lon="-80.48241950196986"><ele>12.0</ele><time>2026-04-19T12:58:39.999Z</time></trkpt><trkpt lat="25.790568753489005" lon="-80.48240901265928"><ele>12.0</ele><time>2026-04-19T12:58:40.999Z</time></trkpt><trkpt lat="25.790463244613637" lon="-80.48240041643048"><ele>12.0</ele><time>2026-04-19T12:58:41.999Z</time></trkpt><trkpt lat="25.790359020743107" lon="-80.48239228232866"><ele>12.0</ele><time>2026-04-19T12:58:42.999Z</time></trkpt><trkpt lat="25.79025434666668" lon="-80.48237838587335"><ele>12.0</ele><time>2026-04-19T12:58:43.999Z</time></trkpt><trkpt lat="25.79015211144052" lon="-80.48236746459386"><ele>12.0</ele><time>2026-04-19T12:58:45Z</time></trkpt><trkpt lat="25.790048019092005" lon="-80.48235682261623"><ele>11.6</ele><time>2026-04-19T12:58:46Z</time></trkpt><trkpt lat="25.789943723178194" lon="-80.48235358420801"><ele>11.2</ele><time>2026-04-19T12:58:47Z</time></trkpt><trkpt lat="25.78983871320984" lon="-80.48234756069104"><ele>10.8</ele><time>2026-04-19T12:58:48Z</time></trkpt><trkpt lat="25.789737664416823" lon="-80.48234050881435"><ele>10.4</ele><time>2026-04-19T12:58:49Z</time></trkpt><trkpt lat="25.78963491758689" lon="-80.48233374831497"><ele>10.0</ele><time>2026-04-19T12:58:50Z</time></trkpt><trkpt lat="25.789533077993696" lon="-80.48232593432685"><ele>10.0</ele><time>2026-04-19T12:58:51Z</time></trkpt><trkpt lat="25.78943015573716" lon="-80.48231435199975"><ele>10.0</ele><time>2026-04-19T12:58:52Z</time></trkpt><trkpt lat="25.789324616079544" lon="-80.4823049055858"><ele>10.0</ele><time>2026-04-19T12:58:53Z</time></trkpt><trkpt lat="25.78921945745488" lon="-80.48229867459996"><ele>10.0</ele><time>2026-04-19T12:58:54Z</time></trkpt><trkpt lat="25.78911309506626" lon="-80.48229030236391"><ele>10.0</ele><time>2026-04-19T12:58:55Z</time></trkpt><trkpt lat="25.789004654446472" lon="-80.48228149319586"><ele>9.6</ele><time>2026-04-19T12:58:56Z</time></trkpt><trkpt lat="25.788896507171" lon="-80.48227395985906"><ele>9.2</ele><time>2026-04-19T12:58:57Z</time></trkpt><trkpt lat="25.7887881583635" lon="-80.48226519643327"><ele>8.8</ele><time>2026-04-19T12:58:58Z</time></trkpt><trkpt lat="25.788681494293005" lon="-80.48225487367361"><ele>8.4</ele><time>2026-04-19T12:58:59Z</time></trkpt><trkpt lat="25.788577075736058" lon="-80.48224683377912"><ele>8.0</ele><time>2026-04-19T12:59:00Z</time></trkpt><trkpt lat="25.78847421950491" lon="-80.48224008161876"><ele>7.800000000000001</ele><time>2026-04-19T12:59:01Z</time></trkpt><trkpt lat="25.788373137693434" lon="-80.48223098282321"><ele>7.6000000000000005</ele><time>2026-04-19T12:59:02Z</time></trkpt><trkpt lat="25.788274152885805" lon="-80.48221996333466"><ele>7.3999999999999995</ele><time>2026-04-19T12:59:03Z</time></trkpt><trkpt lat="25.788173784448947" lon="-80.4822133183619"><ele>7.199999999999999</ele><time>2026-04-19T12:59:04Z</time></trkpt><trkpt lat="25.78807343392315" lon="-80.48220610621499"><ele>7.0</ele><time>2026-04-19T12:59:05Z</time></trkpt><trkpt lat="25.787973951151535" lon="-80.48219857763354"><ele>7.0</ele><time>2026-04-19T12:59:06Z</time></trkpt><trkpt lat="25.787878111182277" lon="-80.4821897951498"><ele>6.999999999999999</ele><time>2026-04-19T12:59:07Z</time></trkpt><trkpt lat="25.78778168489515" lon="-80.4821837525109"><ele>6.999999999999999</ele><time>2026-04-19T12:59:08Z</time></trkpt><trkpt lat="25.78768610973279" lon="-80.48218865779018"><ele>7.0</ele><time>2026-04-19T12:59:09Z</time></trkpt><trkpt lat="25.787585561975487" lon="-80.48218357679589"><ele>7.0</ele><time>2026-04-19T12:59:10Z</time></trkpt><trkpt lat="25.787487490651944" lon="-80.48217080252938"><ele>7.199999999999999</ele><time>2026-04-19T12:59:11Z</time></trkpt><trkpt lat="25.78738994336257" lon="-80.4821607304544"><ele>7.3999999999999995</ele><time>2026-04-19T12:59:12Z</time></trkpt><trkpt lat="25.78728824341882" lon="-80.48215266890969"><ele>7.6000000000000005</ele><time>2026-04-19T12:59:13Z</time></trkpt><trkpt lat="25.78718415478007" lon="-80.48214384123227"><ele>7.800000000000001</ele><time>2026-04-19T12:59:14Z</time></trkpt><trkpt lat="25.78708263610605" lon="-80.48213663425688"><ele>8.0</ele><time>2026-04-19T12:59:15Z</time></trkpt><trkpt lat="25.786979437528547" lon="-80.48212790545236"><ele>8.0</ele><time>2026-04-19T12:59:16Z</time></trkpt><trkpt lat="25.786876538764147" lon="-80.48211905030416"><ele>8.0</ele><time>2026-04-19T12:59:17Z</time></trkpt><trkpt lat="25.786772229359652" lon="-80.48211010502868"><ele>8.0</ele><time>2026-04-19T12:59:18Z</time></trkpt><trkpt lat="25.78666670966203" lon="-80.4821022975024"><ele>8.0</ele><time>2026-04-19T12:59:19Z</time></trkpt><trkpt lat="25.78656204775756" lon="-80.48209199306301"><ele>8.0</ele><time>2026-04-19T12:59:20Z</time></trkpt><trkpt lat="25.78645834404217" lon="-80.48208298837402"><ele>8.4</ele><time>2026-04-19T12:59:21Z</time></trkpt><trkpt lat="25.786353657194848" lon="-80.48207368532388"><ele>8.8</ele><time>2026-04-19T12:59:22Z</time></trkpt><trkpt lat="25.786249630867022" lon="-80.48206648243675"><ele>9.2</ele><time>2026-04-19T12:59:23Z</time></trkpt><trkpt lat="25.78614501655241" lon="-80.48205755434424"><ele>9.6</ele><time>2026-04-19T12:59:24Z</time></trkpt><trkpt lat="25.786041618290472" lon="-80.48204537764856"><ele>10.0</ele><time>2026-04-19T12:59:25Z</time></trkpt><trkpt lat="25.78593840132905" lon="-80.48203497978642"><ele>10.2</ele><time>2026-04-19T12:59:26Z</time></trkpt><trkpt lat="25.785835878454865" lon="-80.48202744490202"><ele>10.4</ele><time>2026-04-19T12:59:27Z</time></trkpt><trkpt lat="25.785731545050687" lon="-80.48201775504434"><ele>10.600000000000001</ele><time>2026-04-19T12:59:28Z</time></trkpt><trkpt lat="25.785627769428697" lon="-80.4820068123529"><ele>10.8</ele><time>2026-04-19T12:59:29Z</time></trkpt><trkpt lat="25.785521387082966" lon="-80.48199726105096"><ele>11.0</ele><time>2026-04-19T12:59:30Z</time></trkpt><trkpt lat="25.785421814936264" lon="-80.48198784849906"><ele>11.0</ele><time>2026-04-19T12:59:31Z</time></trkpt><trkpt lat="25.785323179668914" lon="-80.48197927748147"><ele>11.0</ele><time>2026-04-19T12:59:32Z</time></trkpt><trkpt lat="25.78522160068665" lon="-80.48197096837093"><ele>11.0</ele><time>2026-04-19T12:59:33Z</time></trkpt><trkpt lat="25.785115492764948" lon="-80.48195822330425"><ele>11.0</ele><time>2026-04-19T12:59:34Z</time></trkpt><trkpt lat="25.785005026338393" lon="-80.48194590088478"><ele>11.0</ele><time>2026-04-19T12:59:35Z</time></trkpt><trkpt lat="25.78489488982505" lon="-80.48193548669931"><ele>10.8</ele><time>2026-04-19T12:59:36Z</time></trkpt><trkpt lat="25.784782905974303" lon="-80.48192346637451"><ele>10.600000000000001</ele><time>2026-04-19T12:59:37Z</time></trkpt><trkpt lat="25.784672828790505" lon="-80.48191247477669"><ele>10.4</ele><time>2026-04-19T12:59:37.999Z</time></trkpt><trkpt lat="25.7845645291627" lon="-80.48190168731162"><ele>10.2</ele><time>2026-04-19T12:59:38.999Z</time></trkpt><trkpt lat="25.78445934911263" lon="-80.48189020646525"><ele>10.0</ele><time>2026-04-19T12:59:39.999Z</time></trkpt><trkpt lat="25.784355274273757" lon="-80.48188033188157"><ele>9.6</ele><time>2026-04-19T12:59:40.999Z</time></trkpt><trkpt lat="25.78425238522066" lon="-80.48187188242589"><ele>9.2</ele><time>2026-04-19T12:59:41.999Z</time></trkpt><trkpt lat="25.784150192401377" lon="-80.48186083110261"><ele>8.8</ele><time>2026-04-19T12:59:42.999Z</time></trkpt><trkpt lat="25.78405046760729" lon="-80.48185138131382"><ele>8.4</ele><time>2026-04-19T12:59:43.999Z</time></trkpt><trkpt lat="25.783954063887172" lon="-80.48184367162796"><ele>8.0</ele><time>2026-04-19T12:59:44.999Z</time></trkpt><trkpt lat="25.783858932598022" lon="-80.48183614732888"><ele>8.0</ele><time>2026-04-19T12:59:45.999Z</time></trkpt><trkpt lat="25.783758667618592" lon="-80.48182759873082"><ele>8.0</ele><time>2026-04-19T12:59:46.999Z</time></trkpt><trkpt lat="25.783655256104986" lon="-80.4818210446325"><ele>8.0</ele><time>2026-04-19T12:59:47.999Z</time></trkpt><trkpt lat="25.78355134297145" lon="-80.48181358653832"><ele>8.0</ele><time>2026-04-19T12:59:48.999Z</time></trkpt><trkpt lat="25.783446387329843" lon="-80.48180711896394"><ele>8.0</ele><time>2026-04-19T12:59:49.999Z</time></trkpt><trkpt lat="25.78334041137672" lon="-80.48180378153094"><ele>8.0</ele><time>2026-04-19T12:59:50.999Z</time></trkpt><trkpt lat="25.783229876636693" lon="-80.481800294103"><ele>8.0</ele><time>2026-04-19T12:59:51.999Z</time></trkpt><trkpt lat="25.78311849135103" lon="-80.48179845816475"><ele>8.0</ele><time>2026-04-19T12:59:52.999Z</time></trkpt><trkpt lat="25.78300296860977" lon="-80.48179638753747"><ele>8.0</ele><time>2026-04-19T12:59:53.999Z</time></trkpt><trkpt lat="25.78288865414449" lon="-80.48179604683901"><ele>8.0</ele><time>2026-04-19T12:59:54.999Z</time></trkpt><trkpt lat="25.78277329275584" lon="-80.48179599608545"><ele>8.0</ele><time>2026-04-19T12:59:55.999Z</time></trkpt><trkpt lat="25.782660897889578" lon="-80.48179707764947"><ele>8.0</ele><time>2026-04-19T12:59:56.999Z</time></trkpt><trkpt lat="25.782550422461735" lon="-80.48179773670051"><ele>8.0</ele><time>2026-04-19T12:59:57.999Z</time></trkpt><trkpt lat="25.782445378556524" lon="-80.48179946946894"><ele>8.0</ele><time>2026-04-19T12:59:58.999Z</time></trkpt><trkpt lat="25.782347811954494" lon="-80.48180239870094"><ele>8.0</ele><time>2026-04-19T12:59:59.999Z</time></trkpt><trkpt lat="25.782249980189956" lon="-80.48180675463763"><ele>8.0</ele><time>2026-04-19T13:00:00.999Z</time></trkpt><trkpt lat="25.782151425677654" lon="-80.48181128634691"><ele>8.0</ele><time>2026-04-19T13:00:01.999Z</time></trkpt><trkpt lat="25.78205130605543" lon="-80.48181623348749"><ele>8.0</ele><time>2026-04-19T13:00:02.999Z</time></trkpt><trkpt lat="25.781950519985998" lon="-80.48182291668147"><ele>8.0</ele><time>2026-04-19T13:00:03.999Z</time></trkpt><trkpt lat="25.781848188489114" lon="-80.48182890531442"><ele>8.0</ele><time>2026-04-19T13:00:04.999Z</time></trkpt><trkpt lat="25.781751503143056" lon="-80.48183670476136"><ele>8.0</ele><time>2026-04-19T13:00:05.999Z</time></trkpt><trkpt lat="25.7816530731077" lon="-80.4818456673344"><ele>8.0</ele><time>2026-04-19T13:00:06.999Z</time></trkpt><trkpt lat="25.781551935421998" lon="-80.48185409266813"><ele>8.0</ele><time>2026-04-19T13:00:07.999Z</time></trkpt><trkpt lat="25.781452147600195" lon="-80.48186510704829"><ele>8.0</ele><time>2026-04-19T13:00:08.999Z</time></trkpt><trkpt lat="25.78135296421774" lon="-80.48187555033776"><ele>8.0</ele><time>2026-04-19T13:00:09.999Z</time></trkpt><trkpt lat="25.78125388358841" lon="-80.48188494902992"><ele>8.0</ele><time>2026-04-19T13:00:10.999Z</time></trkpt><trkpt lat="25.781157473809817" lon="-80.48189415325925"><ele>8.0</ele><time>2026-04-19T13:00:11.999Z</time></trkpt><trkpt lat="25.78105951255699" lon="-80.48190506675083"><ele>8.0</ele><time>2026-04-19T13:00:12.999Z</time></trkpt><trkpt lat="25.780959535428778" lon="-80.48191296568147"><ele>8.0</ele><time>2026-04-19T13:00:13.999Z</time></trkpt><trkpt lat="25.780861446873296" lon="-80.48192344521732"><ele>8.0</ele><time>2026-04-19T13:00:14.999Z</time></trkpt><trkpt lat="25.780760409386147" lon="-80.48193395191987"><ele>8.0</ele><time>2026-04-19T13:00:15.999Z</time></trkpt><trkpt lat="25.780658968777434" lon="-80.48194272816131"><ele>8.0</ele><time>2026-04-19T13:00:16.999Z</time></trkpt><trkpt lat="25.78055853931758" lon="-80.48195555779908"><ele>8.0</ele><time>2026-04-19T13:00:17.999Z</time></trkpt><trkpt lat="25.780456109226346" lon="-80.48196418904118"><ele>8.0</ele><time>2026-04-19T13:00:18.999Z</time></trkpt><trkpt lat="25.780354910402757" lon="-80.4819746977465"><ele>8.0</ele><time>2026-04-19T13:00:19.999Z</time></trkpt><trkpt lat="25.780252058287427" lon="-80.481988224858"><ele>8.0</ele><time>2026-04-19T13:00:20.999Z</time></trkpt><trkpt lat="25.780146845902777" lon="-80.48200174757606"><ele>8.0</ele><time>2026-04-19T13:00:21.999Z</time></trkpt><trkpt lat="25.780041121284288" lon="-80.4820144123151"><ele>8.0</ele><time>2026-04-19T13:00:22.999Z</time></trkpt><trkpt lat="25.779930439363742" lon="-80.48202511595123"><ele>8.0</ele><time>2026-04-19T13:00:23.999Z</time></trkpt><trkpt lat="25.77981726780157" lon="-80.48203366973567"><ele>8.0</ele><time>2026-04-19T13:00:24.999Z</time></trkpt><trkpt lat="25.779700438769773" lon="-80.48204279431305"><ele>8.0</ele><time>2026-04-19T13:00:25.999Z</time></trkpt><trkpt lat="25.779585093951656" lon="-80.4820566745029"><ele>8.0</ele><time>2026-04-19T13:00:26.999Z</time></trkpt><trkpt lat="25.77946944297055" lon="-80.4820678542376"><ele>8.0</ele><time>2026-04-19T13:00:27.999Z</time></trkpt><trkpt lat="25.77935469367328" lon="-80.48208010050348"><ele>7.75</ele><time>2026-04-19T13:00:28.999Z</time></trkpt><trkpt lat="25.77923881365135" lon="-80.48209248426008"><ele>7.5</ele><time>2026-04-19T13:00:29.999Z</time></trkpt><trkpt lat="25.779125094810396" lon="-80.48209971230507"><ele>7.25</ele><time>2026-04-19T13:00:30.999Z</time></trkpt><trkpt lat="25.77901145078153" lon="-80.48210723844096"><ele>7.0</ele><time>2026-04-19T13:00:31.999Z</time></trkpt><trkpt lat="25.77889832767621" lon="-80.48211934462745"><ele>7.0</ele><time>2026-04-19T13:00:32.999Z</time></trkpt><trkpt lat="25.778785419464782" lon="-80.48213273183578"><ele>7.0</ele><time>2026-04-19T13:00:33.999Z</time></trkpt><trkpt lat="25.778670995580626" lon="-80.48214247079943"><ele>7.0</ele><time>2026-04-19T13:00:34.999Z</time></trkpt><trkpt lat="25.778556678235717" lon="-80.48215493240718"><ele>7.0</ele><time>2026-04-19T13:00:35.999Z</time></trkpt><trkpt lat="25.77844225483488" lon="-80.48216540299508"><ele>7.0</ele><time>2026-04-19T13:00:36.999Z</time></trkpt><trkpt lat="25.778328371476448" lon="-80.4821744051916"><ele>7.0</ele><time>2026-04-19T13:00:37.999Z</time></trkpt><trkpt lat="25.778215038995413" lon="-80.48218447712387"><ele>7.0</ele><time>2026-04-19T13:00:38.999Z</time></trkpt><trkpt lat="25.778103017387576" lon="-80.48219678230997"><ele>7.0</ele><time>2026-04-19T13:00:39.999Z</time></trkpt><trkpt lat="25.77799294650847" lon="-80.48220572996327"><ele>7.0</ele><time>2026-04-19T13:00:40.999Z</time></trkpt><trkpt lat="25.777884801787298" lon="-80.48221474778342"><ele>6.999999999999999</ele><time>2026-04-19T13:00:41.999Z</time></trkpt><trkpt lat="25.77777553345942" lon="-80.48222291255303"><ele>6.999999999999999</ele><time>2026-04-19T13:00:42.999Z</time></trkpt><trkpt lat="25.777669391952887" lon="-80.48223214772031"><ele>7.0</ele><time>2026-04-19T13:00:43.999Z</time></trkpt><trkpt lat="25.77756039473827" lon="-80.48224061575503"><ele>7.0</ele><time>2026-04-19T13:00:44.999Z</time></trkpt><trkpt lat="25.77745132639401" lon="-80.48225168201667"><ele>7.3999999999999995</ele><time>2026-04-19T13:00:45.999Z</time></trkpt><trkpt lat="25.777341235249107" lon="-80.4822625070801"><ele>7.799999999999999</ele><time>2026-04-19T13:00:46.999Z</time></trkpt><trkpt lat="25.77723061368252" lon="-80.48227682891935"><ele>8.2</ele><time>2026-04-19T13:00:47.999Z</time></trkpt><trkpt lat="25.77712155278868" lon="-80.48228968643481"><ele>8.6</ele><time>2026-04-19T13:00:48.999Z</time></trkpt><trkpt lat="25.777013298365475" lon="-80.48229689164587"><ele>9.0</ele><time>2026-04-19T13:00:49.999Z</time></trkpt><trkpt lat="25.77690523954102" lon="-80.48230642629764"><ele>8.6</ele><time>2026-04-19T13:00:51Z</time></trkpt><trkpt lat="25.776799519491696" lon="-80.48231084098974"><ele>8.2</ele><time>2026-04-19T13:00:52Z</time></trkpt><trkpt lat="25.776693631783555" lon="-80.4823173973266"><ele>7.799999999999999</ele><time>2026-04-19T13:00:53Z</time></trkpt><trkpt lat="25.776587763265113" lon="-80.48232468525158"><ele>7.3999999999999995</ele><time>2026-04-19T13:00:54Z</time></trkpt><trkpt lat="25.776483927524595" lon="-80.48233454364718"><ele>7.0</ele><time>2026-04-19T13:00:55Z</time></trkpt><trkpt lat="25.776383895035668" lon="-80.48234126532584"><ele>7.000000000000001</ele><time>2026-04-19T13:00:56Z</time></trkpt><trkpt lat="25.776295975687447" lon="-80.48234784026151"><ele>7.0</ele><time>2026-04-19T13:00:57Z</time></trkpt><trkpt lat="25.77621631343992" lon="-80.48235395219474"><ele>7.0</ele><time>2026-04-19T13:00:58Z</time></trkpt><trkpt lat="25.7761301388086" lon="-80.4823575858727"><ele>7.0</ele><time>2026-04-19T13:00:59Z</time></trkpt><trkpt lat="25.77603811518828" lon="-80.48236631432083"><ele>7.000000000000001</ele><time>2026-04-19T13:01:00Z</time></trkpt><trkpt lat="25.775944182082153" lon="-80.48237787244764"><ele>7.0</ele><time>2026-04-19T13:01:01Z</time></trkpt><trkpt lat="25.77584735489987" lon="-80.48238063913671"><ele>6.8</ele><time>2026-04-19T13:01:02Z</time></trkpt><trkpt lat="25.775752328996028" lon="-80.48238752190174"><ele>6.6</ele><time>2026-04-19T13:01:03Z</time></trkpt><trkpt lat="25.775656487302626" lon="-80.48239544288997"><ele>6.3999999999999995</ele><time>2026-04-19T13:01:04Z</time></trkpt><trkpt lat="25.775557343517427" lon="-80.48240408698176"><ele>6.199999999999999</ele><time>2026-04-19T13:01:05Z</time></trkpt><trkpt lat="25.775457398779523" lon="-80.48241637787055"><ele>6.0</ele><time>2026-04-19T13:01:06Z</time></trkpt><trkpt lat="25.775352519753756" lon="-80.48242371441695"><ele>6.0</ele><time>2026-04-19T13:01:07Z</time></trkpt><trkpt lat="25.77524753007437" lon="-80.48243198477138"><ele>6.0</ele><time>2026-04-19T13:01:08Z</time></trkpt><trkpt lat="25.775144972529404" lon="-80.4824419058887"><ele>6.0</ele><time>2026-04-19T13:01:09Z</time></trkpt><trkpt lat="25.775042464553344" lon="-80.48244830930655"><ele>6.0</ele><time>2026-04-19T13:01:10Z</time></trkpt><trkpt lat="25.774937542531266" lon="-80.48245633782378"><ele>6.0</ele><time>2026-04-19T13:01:11Z</time></trkpt><trkpt lat="25.77483384280759" lon="-80.48246675536618"><ele>7.199999999999999</ele><time>2026-04-19T13:01:12Z</time></trkpt><trkpt lat="25.774729627375873" lon="-80.48247577146452"><ele>8.399999999999999</ele><time>2026-04-19T13:01:13Z</time></trkpt><trkpt lat="25.77462561762963" lon="-80.482485830385"><ele>9.6</ele><time>2026-04-19T13:01:14Z</time></trkpt><trkpt lat="25.7745192227375" lon="-80.4824901159928"><ele>10.799999999999999</ele><time>2026-04-19T13:01:15Z</time></trkpt><trkpt lat="25.774413086831952" lon="-80.48249387029901"><ele>12.0</ele><time>2026-04-19T13:01:16Z</time></trkpt><trkpt lat="25.774305802968623" lon="-80.48249521110074"><ele>12.0</ele><time>2026-04-19T13:01:17Z</time></trkpt><trkpt lat="25.774194445772164" lon="-80.48249571676232"><ele>12.0</ele><time>2026-04-19T13:01:18Z</time></trkpt><trkpt lat="25.774080440057922" lon="-80.48250150626745"><ele>12.0</ele><time>2026-04-19T13:01:19Z</time></trkpt><trkpt lat="25.773964970602673" lon="-80.48250669258427"><ele>12.0</ele><time>2026-04-19T13:01:20Z</time></trkpt><trkpt lat="25.773848885372544" lon="-80.48250948278816"><ele>12.0</ele><time>2026-04-19T13:01:21Z</time></trkpt><trkpt lat="25.773732694408658" lon="-80.48251391917937"><ele>12.0</ele><time>2026-04-19T13:01:22Z</time></trkpt><trkpt lat="25.77361791388346" lon="-80.482513689538"><ele>12.0</ele><time>2026-04-19T13:01:23Z</time></trkpt><trkpt lat="25.77350580899989" lon="-80.48251244307839"><ele>12.0</ele><time>2026-04-19T13:01:24Z</time></trkpt><trkpt lat="25.773394391464773" lon="-80.48251241423337"><ele>11.25</ele><time>2026-04-19T13:01:25Z</time></trkpt><trkpt lat="25.773282315451922" lon="-80.48251289002002"><ele>10.5</ele><time>2026-04-19T13:01:26Z</time></trkpt><trkpt lat="25.77317095155076" lon="-80.48251598078342"><ele>9.75</ele><time>2026-04-19T13:01:27Z</time></trkpt><trkpt lat="25.773057837299604" lon="-80.48251325546612"><ele>9.0</ele><time>2026-04-19T13:01:28Z</time></trkpt><trkpt lat="25.77294465771452" lon="-80.48250994856964"><ele>9.0</ele><time>2026-04-19T13:01:29Z</time></trkpt><trkpt lat="25.77283089536967" lon="-80.48250761337971"><ele>9.0</ele><time>2026-04-19T13:01:30Z</time></trkpt><trkpt lat="25.77271508932653" lon="-80.48250283247606"><ele>9.0</ele><time>2026-04-19T13:01:31Z</time></trkpt><trkpt lat="25.77259959721197" lon="-80.48249868451762"><ele>9.0</ele><time>2026-04-19T13:01:32Z</time></trkpt><trkpt lat="25.77248326186763" lon="-80.48249233339918"><ele>9.0</ele><time>2026-04-19T13:01:33Z</time></trkpt><trkpt lat="25.77236784664821" lon="-80.48248559882633"><ele>9.0</ele><time>2026-04-19T13:01:34Z</time></trkpt><trkpt lat="25.77225175446212" lon="-80.48248295942922"><ele>9.0</ele><time>2026-04-19T13:01:35Z</time></trkpt><trkpt lat="25.77213531745818" lon="-80.48248323952734"><ele>9.0</ele><time>2026-04-19T13:01:36Z</time></trkpt><trkpt lat="25.772018210931883" lon="-80.48247141769848"><ele>9.0</ele><time>2026-04-19T13:01:37Z</time></trkpt><trkpt lat="25.771898637589295" lon="-80.48245883528656"><ele>9.0</ele><time>2026-04-19T13:01:37.999Z</time></trkpt><trkpt lat="25.77177695268398" lon="-80.48244639156711"><ele>9.0</ele><time>2026-04-19T13:01:38.999Z</time></trkpt><trkpt lat="25.771651222675175" lon="-80.48243965849949"><ele>9.0</ele><time>2026-04-19T13:01:39.999Z</time></trkpt><trkpt lat="25.771523880308916" lon="-80.4824314965678"><ele>8.5</ele><time>2026-04-19T13:01:40.999Z</time></trkpt><trkpt lat="25.77139221038786" lon="-80.48242395097773"><ele>8.0</ele><time>2026-04-19T13:01:41.999Z</time></trkpt><trkpt lat="25.771261348777276" lon="-80.48241371972141"><ele>7.5</ele><time>2026-04-19T13:01:42.999Z</time></trkpt><trkpt lat="25.7711321477496" lon="-80.482403387864"><ele>7.0</ele><time>2026-04-19T13:01:43.999Z</time></trkpt><trkpt lat="25.771001857906793" lon="-80.4823931512893"><ele>7.0</ele><time>2026-04-19T13:01:44.999Z</time></trkpt><trkpt lat="25.77087340077098" lon="-80.4823810948007"><ele>7.0</ele><time>2026-04-19T13:01:45.999Z</time></trkpt><trkpt lat="25.770746966491213" lon="-80.48236846349974"><ele>7.0</ele><time>2026-04-19T13:01:46.999Z</time></trkpt><trkpt lat="25.770620052589273" lon="-80.4823586610554"><ele>7.0</ele><time>2026-04-19T13:01:47.999Z</time></trkpt><trkpt lat="25.770493972449213" lon="-80.48235302363234"><ele>7.0</ele><time>2026-04-19T13:01:48.999Z</time></trkpt><trkpt lat="25.770369652292192" lon="-80.4823441295015"><ele>7.0</ele><time>2026-04-19T13:01:49.999Z</time></trkpt><trkpt lat="25.77024440259071" lon="-80.48233295007456"><ele>7.0</ele><time>2026-04-19T13:01:50.999Z</time></trkpt><trkpt lat="25.770120252644737" lon="-80.48232281512452"><ele>7.0</ele><time>2026-04-19T13:01:51.999Z</time></trkpt><trkpt lat="25.76999434086099" lon="-80.48231142960064"><ele>7.0</ele><time>2026-04-19T13:01:52.999Z</time></trkpt><trkpt lat="25.769870755037562" lon="-80.48230527864503"><ele>7.0</ele><time>2026-04-19T13:01:53.999Z</time></trkpt><trkpt lat="25.76974637667126" lon="-80.48229331142895"><ele>7.0</ele><time>2026-04-19T13:01:54.999Z</time></trkpt><trkpt lat="25.76962219046882" lon="-80.4822861220056"><ele>7.0</ele><time>2026-04-19T13:01:55.999Z</time></trkpt><trkpt lat="25.769500452100853" lon="-80.48227608183029"><ele>7.0</ele><time>2026-04-19T13:01:56.999Z</time></trkpt><trkpt lat="25.769380668130626" lon="-80.4822695390309"><ele>7.0</ele><time>2026-04-19T13:01:57.999Z</time></trkpt><trkpt lat="25.769263923417483" lon="-80.48225662774361"><ele>7.0</ele><time>2026-04-19T13:01:58.999Z</time></trkpt><trkpt lat="25.76914817275283" lon="-80.48223962450687"><ele>7.0</ele><time>2026-04-19T13:01:59.999Z</time></trkpt><trkpt lat="25.76903131499883" lon="-80.48223127330459"><ele>7.0</ele><time>2026-04-19T13:02:00.999Z</time></trkpt><trkpt lat="25.76891172992728" lon="-80.48221669142478"><ele>7.0</ele><time>2026-04-19T13:02:01.999Z</time></trkpt><trkpt lat="25.768791352618777" lon="-80.48221089553874"><ele>7.0</ele><time>2026-04-19T13:02:02.999Z</time></trkpt><trkpt lat="25.768666929995916" lon="-80.48220182815972"><ele>7.0</ele><time>2026-04-19T13:02:03.999Z</time></trkpt><trkpt lat="25.768544835228678" lon="-80.48219698331745"><ele>7.25</ele><time>2026-04-19T13:02:04.999Z</time></trkpt><trkpt lat="25.768420823985398" lon="-80.4821843118965"><ele>7.5</ele><time>2026-04-19T13:02:05.999Z</time></trkpt><trkpt lat="25.768296286067528" lon="-80.48217389771743"><ele>7.75</ele><time>2026-04-19T13:02:06.999Z</time></trkpt><trkpt lat="25.768171255442486" lon="-80.48216472046413"><ele>8.0</ele><time>2026-04-19T13:02:07.999Z</time></trkpt><trkpt lat="25.768049120846328" lon="-80.48215459646192"><ele>8.0</ele><time>2026-04-19T13:02:08.999Z</time></trkpt><trkpt lat="25.767922563541617" lon="-80.48214423809152"><ele>8.0</ele><time>2026-04-19T13:02:09.999Z</time></trkpt><trkpt lat="25.767797161534727" lon="-80.48213073715559"><ele>8.0</ele><time>2026-04-19T13:02:10.999Z</time></trkpt><trkpt lat="25.767670838344486" lon="-80.4821205400967"><ele>8.0</ele><time>2026-04-19T13:02:11.999Z</time></trkpt><trkpt lat="25.76754780872806" lon="-80.48211768581966"><ele>7.75</ele><time>2026-04-19T13:02:12.999Z</time></trkpt><trkpt lat="25.76741980373177" lon="-80.48211184754972"><ele>7.5</ele><time>2026-04-19T13:02:13.999Z</time></trkpt><trkpt lat="25.76729517463855" lon="-80.48210265778779"><ele>7.25</ele><time>2026-04-19T13:02:14.999Z</time></trkpt><trkpt lat="25.767168596692525" lon="-80.48209092789932"><ele>7.0</ele><time>2026-04-19T13:02:15.999Z</time></trkpt><trkpt lat="25.76704612387752" lon="-80.48207703454841"><ele>7.5</ele><time>2026-04-19T13:02:16.999Z</time></trkpt><trkpt lat="25.766926118629787" lon="-80.48206010333115"><ele>8.0</ele><time>2026-04-19T13:02:17.999Z</time></trkpt><trkpt lat="25.766808637023683" lon="-80.48204667605889"><ele>8.5</ele><time>2026-04-19T13:02:18.999Z</time></trkpt><trkpt lat="25.766691671242214" lon="-80.48203593773914"><ele>9.0</ele><time>2026-04-19T13:02:19.999Z</time></trkpt><trkpt lat="25.76657800085952" lon="-80.48202310212201"><ele>9.2</ele><time>2026-04-19T13:02:20.999Z</time></trkpt><trkpt lat="25.76646581461537" lon="-80.48201210320629"><ele>9.4</ele><time>2026-04-19T13:02:21.999Z</time></trkpt><trkpt lat="25.76635373467602" lon="-80.48200171365097"><ele>9.6</ele><time>2026-04-19T13:02:22.999Z</time></trkpt><trkpt lat="25.76624464299063" lon="-80.48199037329441"><ele>9.8</ele><time>2026-04-19T13:02:23.999Z</time></trkpt><trkpt lat="25.766140328840894" lon="-80.48198051221964"><ele>10.0</ele><time>2026-04-19T13:02:24.999Z</time></trkpt><trkpt lat="25.76604800051422" lon="-80.48197766215655"><ele>10.166666666666668</ele><time>2026-04-19T13:02:25.999Z</time></trkpt><trkpt lat="25.765955959814587" lon="-80.48197386031197"><ele>10.333333333333334</ele><time>2026-04-19T13:02:26.999Z</time></trkpt><trkpt lat="25.765870395998533" lon="-80.48196222590289"><ele>10.5</ele><time>2026-04-19T13:02:27.999Z</time></trkpt><trkpt lat="25.765787391386556" lon="-80.48195266516154"><ele>10.666666666666666</ele><time>2026-04-19T13:02:28.999Z</time></trkpt><trkpt lat="25.76571039303994" lon="-80.48192464919168"><ele>10.833333333333332</ele><time>2026-04-19T13:02:29.999Z</time></trkpt><trkpt lat="25.765634602460473" lon="-80.48191436758967"><ele>11.0</ele><time>2026-04-19T13:02:30.999Z</time></trkpt><trkpt lat="25.765569608447493" lon="-80.48190555062911"><ele>11.0</ele><time>2026-04-19T13:02:31.999Z</time></trkpt><trkpt lat="25.765460824187304" lon="-80.48189079578107"><ele>11.0</ele><time>2026-04-19T13:02:33.999Z</time></trkpt><trkpt lat="25.76539679055772" lon="-80.48213715246006"><ele>11.0</ele><time>2026-04-19T13:02:35.999Z</time></trkpt><trkpt lat="25.765395861804322" lon="-80.48221100267575"><ele>11.0</ele><time>2026-04-19T13:02:36.999Z</time></trkpt><trkpt lat="25.765392653824602" lon="-80.48234154303424"><ele>11.25</ele><time>2026-04-19T13:02:38.999Z</time></trkpt><trkpt lat="25.765379775259017" lon="-80.48247454108018"><ele>11.5</ele><time>2026-04-19T13:02:40.999Z</time></trkpt><trkpt lat="25.765358942007186" lon="-80.48260620854727"><ele>11.75</ele><time>2026-04-19T13:02:42.999Z</time></trkpt><trkpt lat="25.765312351993487" lon="-80.48273168892922"><ele>12.0</ele><time>2026-04-19T13:02:44.999Z</time></trkpt><trkpt lat="25.765249402018828" lon="-80.48284255016335"><ele>11.6</ele><time>2026-04-19T13:02:46.999Z</time></trkpt><trkpt lat="25.765180386674956" lon="-80.48294457652948"><ele>11.2</ele><time>2026-04-19T13:02:48.999Z</time></trkpt><trkpt lat="25.765101766921152" lon="-80.48303652674684"><ele>10.8</ele><time>2026-04-19T13:02:50.999Z</time></trkpt><trkpt lat="25.765043592797973" lon="-80.48309768675243"><ele>10.4</ele><time>2026-04-19T13:02:52.999Z</time></trkpt><trkpt lat="25.764994319698836" lon="-80.48314715888735"><ele>10.0</ele><time>2026-04-19T13:02:54.999Z</time></trkpt><trkpt lat="25.765074366276743" lon="-80.48329890384662"><ele>10.0</ele><time>2026-04-19T13:02:57Z</time></trkpt><trkpt lat="25.765114902516714" lon="-80.48339033195691"><ele>10.0</ele><time>2026-04-19T13:02:59Z</time></trkpt><trkpt lat="25.765157096803048" lon="-80.48347735158563"><ele>10.0</ele><time>2026-04-19T13:03:01Z</time></trkpt><trkpt lat="25.76516968602223" lon="-80.48356934437135"><ele>10.0</ele><time>2026-04-19T13:03:03Z</time></trkpt><trkpt lat="25.765171415736802" lon="-80.4836626728575"><ele>10.0</ele><time>2026-04-19T13:03:05Z</time></trkpt><trkpt lat="25.765170085653008" lon="-80.48375637296246"><ele>10.0</ele><time>2026-04-19T13:03:07Z</time></trkpt><trkpt lat="25.76517190566266" lon="-80.4838497913913"><ele>10.0</ele><time>2026-04-19T13:03:09Z</time></trkpt><trkpt lat="25.765163291495217" lon="-80.48394203861187"><ele>10.0</ele><time>2026-04-19T13:03:11Z</time></trkpt><trkpt lat="25.765160932742628" lon="-80.48402842680886"><ele>10.0</ele><time>2026-04-19T13:03:13Z</time></trkpt><trkpt lat="25.76515030356186" lon="-80.48411131808292"><ele>10.0</ele><time>2026-04-19T13:03:15Z</time></trkpt><trkpt lat="25.76515157395192" lon="-80.48418848990997"><ele>10.0</ele><time>2026-04-19T13:03:17Z</time></trkpt><trkpt lat="25.76517605159847" lon="-80.48426122477575"><ele>10.0</ele><time>2026-04-19T13:03:19Z</time></trkpt><trkpt lat="25.76522177467557" lon="-80.48431684867357"><ele>10.0</ele><time>2026-04-19T13:03:21Z</time></trkpt><trkpt lat="25.765264011408274" lon="-80.48438226930956"><ele>10.0</ele><time>2026-04-19T13:03:23Z</time></trkpt><trkpt lat="25.765317904454182" lon="-80.48445019423345"><ele>10.0</ele><time>2026-04-19T13:03:25Z</time></trkpt><trkpt lat="25.765371716180642" lon="-80.48452597363058"><ele>10.0</ele><time>2026-04-19T13:03:27Z</time></trkpt><trkpt lat="25.765431614953403" lon="-80.48459838467686"><ele>10.0</ele><time>2026-04-19T13:03:29Z</time></trkpt><trkpt lat="25.765489917185874" lon="-80.48467748660022"><ele>10.0</ele><time>2026-04-19T13:03:31Z</time></trkpt><trkpt lat="25.765518851113317" lon="-80.48477424302249"><ele>10.0</ele><time>2026-04-19T13:03:33Z</time></trkpt><trkpt lat="25.76551185582793" lon="-80.48487095460492"><ele>10.166666666666668</ele><time>2026-04-19T13:03:35Z</time></trkpt><trkpt lat="25.76549282892919" lon="-80.48495600284171"><ele>10.333333333333334</ele><time>2026-04-19T13:03:37Z</time></trkpt><trkpt lat="25.76548919629057" lon="-80.48504887129437"><ele>10.5</ele><time>2026-04-19T13:03:39Z</time></trkpt><trkpt lat="25.76549507041275" lon="-80.48513829333686"><ele>10.666666666666666</ele><time>2026-04-19T13:03:40.999Z</time></trkpt><trkpt lat="25.765485134061677" lon="-80.48522433313269"><ele>10.833333333333332</ele><time>2026-04-19T13:03:42.999Z</time></trkpt><trkpt lat="25.765485916612633" lon="-80.4853058850107"><ele>11.0</ele><time>2026-04-19T13:03:44.999Z</time></trkpt><trkpt lat="25.76547705994507" lon="-80.48538668397448"><ele>11.142857142857142</ele><time>2026-04-19T13:03:46.999Z</time></trkpt><trkpt lat="25.76546788184779" lon="-80.48546464356407"><ele>11.285714285714285</ele><time>2026-04-19T13:03:48.999Z</time></trkpt><trkpt lat="25.765479167617915" lon="-80.48554452130585"><ele>11.428571428571427</ele><time>2026-04-19T13:03:50.999Z</time></trkpt><trkpt lat="25.765485341396516" lon="-80.48562097614108"><ele>11.571428571428571</ele><time>2026-04-19T13:03:52.999Z</time></trkpt><trkpt lat="25.76547913768936" lon="-80.48569252897748"><ele>11.714285714285714</ele><time>2026-04-19T13:03:54.999Z</time></trkpt><trkpt lat="25.765456669299233" lon="-80.48576954752428"><ele>11.857142857142856</ele><time>2026-04-19T13:03:56.999Z</time></trkpt><trkpt lat="25.765441461389642" lon="-80.48585002859915"><ele>12.0</ele><time>2026-04-19T13:03:58.999Z</time></trkpt><trkpt lat="25.765404620842553" lon="-80.4859134274012"><ele>12.0</ele><time>2026-04-19T13:04:00.999Z</time></trkpt><trkpt lat="25.76532173704209" lon="-80.48592672567132"><ele>12.0</ele><time>2026-04-19T13:04:02.999Z</time></trkpt><trkpt lat="25.765233457531753" lon="-80.48591485067095"><ele>12.0</ele><time>2026-04-19T13:04:04.999Z</time></trkpt><trkpt lat="25.765159321695954" lon="-80.48592070325458"><ele>12.0</ele><time>2026-04-19T13:04:06.999Z</time></trkpt><trkpt lat="25.765087211113812" lon="-80.48591513715272"><ele>12.0</ele><time>2026-04-19T13:04:08.999Z</time></trkpt><trkpt lat="25.765015255528567" lon="-80.48591115098203"><ele>12.0</ele><time>2026-04-19T13:04:10.999Z</time></trkpt><trkpt lat="25.764942117943484" lon="-80.4858974334201"><ele>11.428571428571427</ele><time>2026-04-19T13:04:12.999Z</time></trkpt><trkpt lat="25.764870289353777" lon="-80.48589771574088"><ele>10.857142857142858</ele><time>2026-04-19T13:04:14.999Z</time></trkpt><trkpt lat="25.764791766442762" lon="-80.48588991320845"><ele>10.285714285714285</ele><time>2026-04-19T13:04:17.999Z</time></trkpt><trkpt lat="25.76472321353523" lon="-80.48587867871254"><ele>9.714285714285714</ele><time>2026-04-19T13:04:21.999Z</time></trkpt><trkpt lat="25.764658672773304" lon="-80.48586121910012"><ele>9.142857142857142</ele><time>2026-04-19T13:04:58.999Z</time></trkpt><trkpt lat="25.764590423251136" lon="-80.48586915109132"><ele>8.571428571428571</ele><time>2026-04-19T13:05:04Z</time></trkpt><trkpt lat="25.76452049932492" lon="-80.485900793201"><ele>8.0</ele><time>2026-04-19T13:05:08Z</time></trkpt><trkpt lat="25.764467738565703" lon="-80.48595818972171"><ele>7.999999999999999</ele><time>2026-04-19T13:05:12Z</time></trkpt><trkpt lat="25.76451655223414" lon="-80.48602572038078"><ele>8.0</ele><time>2026-04-19T13:05:15Z</time></trkpt><trkpt lat="25.76458435628041" lon="-80.48601864562829"><ele>8.0</ele><time>2026-04-19T13:05:17Z</time></trkpt><trkpt lat="25.764658824445476" lon="-80.48601552637932"><ele>8.0</ele><time>2026-04-19T13:05:20Z</time></trkpt><trkpt lat="25.764747482779722" lon="-80.48603733608293"><ele>7.999999999999999</ele><time>2026-04-19T13:05:23Z</time></trkpt><trkpt lat="25.764814203735323" lon="-80.48603350170359"><ele>8.0</ele><time>2026-04-19T13:05:25Z</time></trkpt><trkpt lat="25.76488688513434" lon="-80.48603007303801"><ele>7.999999999999999</ele><time>2026-04-19T13:05:27Z</time></trkpt><trkpt lat="25.764963198489998" lon="-80.48603615395729"><ele>8.0</ele><time>2026-04-19T13:05:29Z</time></trkpt><trkpt lat="25.765045760312642" lon="-80.48603757604897"><ele>8.0</ele><time>2026-04-19T13:05:31Z</time></trkpt><trkpt lat="25.765118446196148" lon="-80.48604080316412"><ele>8.0</ele><time>2026-04-19T13:05:33Z</time></trkpt><trkpt lat="25.76518247080526" lon="-80.48607207556726"><ele>7.999999999999999</ele><time>2026-04-19T13:05:35Z</time></trkpt><trkpt lat="25.765190058254365" lon="-80.48617204672365"><ele>8.0</ele><time>2026-04-19T13:05:37.999Z</time></trkpt><trkpt lat="25.765146772769608" lon="-80.4862477483713"><ele>8.166666666666666</ele><time>2026-04-19T13:05:39.999Z</time></trkpt><trkpt lat="25.765068033298984" lon="-80.4862726811568"><ele>8.333333333333332</ele><time>2026-04-19T13:05:42.999Z</time></trkpt><trkpt lat="25.76500459924529" lon="-80.48629107135328"><ele>8.5</ele><time>2026-04-19T13:05:43.999Z</time></trkpt><trkpt lat="25.764936488184794" lon="-80.48629635476244"><ele>8.666666666666666</ele><time>2026-04-19T13:05:44.999Z</time></trkpt><trkpt lat="25.764847599652278" lon="-80.48629531236674"><ele>8.833333333333334</ele><time>2026-04-19T13:05:46.999Z</time></trkpt><trkpt lat="25.764767795516097" lon="-80.48630087849018"><ele>9.0</ele><time>2026-04-19T13:05:48.999Z</time></trkpt><trkpt lat="25.76469440551913" lon="-80.48631372809776"><ele>9.0</ele><time>2026-04-19T13:05:50.999Z</time></trkpt><trkpt lat="25.764622649378264" lon="-80.48631020215839"><ele>9.0</ele><time>2026-04-19T13:05:52.999Z</time></trkpt><trkpt lat="25.76456102648572" lon="-80.48625706912817"><ele>9.0</ele><time>2026-04-19T13:05:54.999Z</time></trkpt><trkpt lat="25.76453461035861" lon="-80.4861793212269"><ele>9.0</ele><time>2026-04-19T13:05:56.999Z</time></trkpt><trkpt lat="25.764559518710755" lon="-80.48610174915804"><ele>9.0</ele><time>2026-04-19T13:05:58.999Z</time></trkpt><trkpt lat="25.76462319863417" lon="-80.48605447102054"><ele>9.0</ele><time>2026-04-19T13:06:00.999Z</time></trkpt><trkpt lat="25.764709875581094" lon="-80.48607455192139"><ele>8.833333333333334</ele><time>2026-04-19T13:06:02.999Z</time></trkpt><trkpt lat="25.764791498726836" lon="-80.48607784805823"><ele>8.666666666666666</ele><time>2026-04-19T13:06:04.999Z</time></trkpt><trkpt lat="25.764889084787416" lon="-80.48606654444941"><ele>8.5</ele><time>2026-04-19T13:06:07.999Z</time></trkpt><trkpt lat="25.76495400989776" lon="-80.48608040671556"><ele>8.333333333333332</ele><time>2026-04-19T13:06:08.999Z</time></trkpt><trkpt lat="25.765036126701226" lon="-80.48607562850012"><ele>8.166666666666666</ele><time>2026-04-19T13:06:10.999Z</time></trkpt><trkpt lat="25.765112033347886" lon="-80.48607187279819"><ele>8.0</ele><time>2026-04-19T13:06:12.999Z</time></trkpt><trkpt lat="25.765177899420998" lon="-80.48607529835937"><ele>7.7142857142857135</ele><time>2026-04-19T13:06:14.999Z</time></trkpt><trkpt lat="25.765240349756446" lon="-80.48605734810143"><ele>7.428571428571428</ele><time>2026-04-19T13:06:16.999Z</time></trkpt><trkpt lat="25.765307257950855" lon="-80.48605251005861"><ele>7.142857142857142</ele><time>2026-04-19T13:06:18.999Z</time></trkpt><trkpt lat="25.765372920254688" lon="-80.48608044812818"><ele>6.857142857142857</ele><time>2026-04-19T13:06:20.999Z</time></trkpt><trkpt lat="25.76540719183913" lon="-80.48614941273556"><ele>6.571428571428571</ele><time>2026-04-19T13:06:22.999Z</time></trkpt><trkpt lat="25.765392563875775" lon="-80.4862273650666"><ele>6.285714285714285</ele><time>2026-04-19T13:06:24.999Z</time></trkpt><trkpt lat="25.765341699825324" lon="-80.48628322913265"><ele>6.0</ele><time>2026-04-19T13:06:26.999Z</time></trkpt><trkpt lat="25.765265904460176" lon="-80.48628871348107"><ele>6.333333333333333</ele><time>2026-04-19T13:06:28.999Z</time></trkpt><trkpt lat="25.765174558047384" lon="-80.48628029814168"><ele>6.666666666666666</ele><time>2026-04-19T13:06:30.999Z</time></trkpt><trkpt lat="25.76509210412403" lon="-80.48627506161674"><ele>7.0</ele><time>2026-04-19T13:06:32.999Z</time></trkpt><trkpt lat="25.765012691850554" lon="-80.48626711280302"><ele>7.333333333333333</ele><time>2026-04-19T13:06:34.999Z</time></trkpt><trkpt lat="25.7649360085231" lon="-80.4862476878379"><ele>7.666666666666666</ele><time>2026-04-19T13:06:36.999Z</time></trkpt><trkpt lat="25.76486493660962" lon="-80.48622999978403"><ele>8.0</ele><time>2026-04-19T13:06:38.999Z</time></trkpt><trkpt lat="25.764796980186837" lon="-80.48621641832781"><ele>7.999999999999999</ele><time>2026-04-19T13:06:40.999Z</time></trkpt><trkpt lat="25.764712466486085" lon="-80.48617239818542"><ele>8.0</ele><time>2026-04-19T13:06:43.999Z</time></trkpt><trkpt lat="25.764645348877778" lon="-80.4861159604675"><ele>8.0</ele><time>2026-04-19T13:06:46.999Z</time></trkpt><trkpt lat="25.764575642601734" lon="-80.48605414849783"><ele>8.0</ele><time>2026-04-19T13:06:49.999Z</time></trkpt><trkpt lat="25.764491446393276" lon="-80.4860295796334"><ele>7.999999999999999</ele><time>2026-04-19T13:06:52.999Z</time></trkpt><trkpt lat="25.76447995434329" lon="-80.48593676142846"><ele>8.0</ele><time>2026-04-19T13:06:55.999Z</time></trkpt><trkpt lat="25.76453280406748" lon="-80.48587528854512"><ele>7.999999999999999</ele><time>2026-04-19T13:06:58.999Z</time></trkpt><trkpt lat="25.76459424616897" lon="-80.48583526974951"><ele>8.0</ele><time>2026-04-19T13:07:01.999Z</time></trkpt><trkpt lat="25.764638692809186" lon="-80.4857751568075"><ele>8.0</ele><time>2026-04-19T13:07:06.999Z</time></trkpt><trkpt lat="25.764591632312545" lon="-80.48570973243392"><ele>8.0</ele><time>2026-04-19T13:07:11Z</time></trkpt><trkpt lat="25.76452563204065" lon="-80.4856672858542"><ele>7.999999999999999</ele><time>2026-04-19T13:07:14Z</time></trkpt><trkpt lat="25.764501675240442" lon="-80.4855671669191"><ele>8.0</ele><time>2026-04-19T13:07:17Z</time></trkpt><trkpt lat="25.764556982505702" lon="-80.48551177086077"><ele>8.0</ele><time>2026-04-19T13:07:19Z</time></trkpt><trkpt lat="25.764622471589576" lon="-80.48550356236814"><ele>7.999999999999999</ele><time>2026-04-19T13:07:21Z</time></trkpt><trkpt lat="25.76469445712255" lon="-80.48554180494995"><ele>8.0</ele><time>2026-04-19T13:07:24Z</time></trkpt><trkpt lat="25.764686173723643" lon="-80.48562500692469"><ele>8.0</ele><time>2026-04-19T13:07:27Z</time></trkpt><trkpt lat="25.764619671004162" lon="-80.48566799126863"><ele>7.999999999999999</ele><time>2026-04-19T13:07:30Z</time></trkpt><trkpt lat="25.764624118710568" lon="-80.48574183486267"><ele>8.0</ele><time>2026-04-19T13:07:33Z</time></trkpt><trkpt lat="25.76459933990115" lon="-80.48580629536777"><ele>8.0</ele><time>2026-04-19T13:07:36.999Z</time></trkpt><trkpt lat="25.764546154097754" lon="-80.48585676326718"><ele>7.999999999999999</ele><time>2026-04-19T13:07:40.999Z</time></trkpt><trkpt lat="25.764500952346644" lon="-80.48593066205333"><ele>8.0</ele><time>2026-04-19T13:07:43.999Z</time></trkpt><trkpt lat="25.764493707789534" lon="-80.48603494656803"><ele>8.0</ele><time>2026-04-19T13:07:46.999Z</time></trkpt><trkpt lat="25.76449832070277" lon="-80.48610920604192"><ele>8.0</ele><time>2026-04-19T13:07:48.999Z</time></trkpt><trkpt lat="25.76451349748858" lon="-80.48618435306184"><ele>7.999999999999999</ele><time>2026-04-19T13:07:50.999Z</time></trkpt><trkpt lat="25.764556042167087" lon="-80.48625549659963"><ele>8.0</ele><time>2026-04-19T13:07:52.999Z</time></trkpt><trkpt lat="25.764624951283967" lon="-80.486317480856"><ele>8.200000000000001</ele><time>2026-04-19T13:07:54.999Z</time></trkpt><trkpt lat="25.764706711762035" lon="-80.48635968728395"><ele>8.4</ele><time>2026-04-19T13:07:56.999Z</time></trkpt><trkpt lat="25.76479313979146" lon="-80.48638689905778"><ele>8.600000000000001</ele><time>2026-04-19T13:07:58.999Z</time></trkpt><trkpt lat="25.764887296590814" lon="-80.48640927159305"><ele>8.8</ele><time>2026-04-19T13:08:00.999Z</time></trkpt><trkpt lat="25.764987774626533" lon="-80.48642896708611"><ele>9.0</ele><time>2026-04-19T13:08:02.999Z</time></trkpt><trkpt lat="25.76508653323564" lon="-80.48643722600352"><ele>9.0</ele><time>2026-04-19T13:08:04.999Z</time></trkpt><trkpt lat="25.765181661773394" lon="-80.48645156997817"><ele>9.0</ele><time>2026-04-19T13:08:06.999Z</time></trkpt><trkpt lat="25.7652791887107" lon="-80.486460628616"><ele>9.0</ele><time>2026-04-19T13:08:08.999Z</time></trkpt><trkpt lat="25.765380767731315" lon="-80.48643360226107"><ele>9.0</ele><time>2026-04-19T13:08:10.999Z</time></trkpt><trkpt lat="25.76539939919198" lon="-80.48631564947209"><ele>9.0</ele><time>2026-04-19T13:08:12.999Z</time></trkpt><trkpt lat="25.76531959224805" lon="-80.48623181205306"><ele>9.6</ele><time>2026-04-19T13:08:14.999Z</time></trkpt><trkpt lat="25.765374881622847" lon="-80.48618691539285"><ele>10.2</ele><time>2026-04-19T13:08:15.999Z</time></trkpt><trkpt lat="25.765381069829953" lon="-80.48610992051239"><ele>10.799999999999999</ele><time>2026-04-19T13:08:17.999Z</time></trkpt><trkpt lat="25.76538846462627" lon="-80.48622723874928"><ele>11.4</ele><time>2026-04-19T13:08:22.999Z</time></trkpt><trkpt lat="25.765394750270147" lon="-80.48613991659849"><ele>12.0</ele><time>2026-04-19T13:08:23.999Z</time></trkpt><trkpt lat="25.765339950719365" lon="-80.48627163256033"><ele>12.0</ele><time>2026-04-19T13:08:24.999Z</time></trkpt><trkpt lat="25.765236622490843" lon="-80.48624654882934"><ele>12.0</ele><time>2026-04-19T13:08:26.999Z</time></trkpt><trkpt lat="25.765140252981666" lon="-80.48622718662335"><ele>12.0</ele><time>2026-04-19T13:08:28.999Z</time></trkpt><trkpt lat="25.76504331261136" lon="-80.48618502004031"><ele>12.0</ele><time>2026-04-19T13:08:30.999Z</time></trkpt><trkpt lat="25.764944112461226" lon="-80.4861381832768"><ele>12.0</ele><time>2026-04-19T13:08:32.999Z</time></trkpt><trkpt lat="25.764840413801174" lon="-80.48609693935188"><ele>11.2</ele><time>2026-04-19T13:08:34.999Z</time></trkpt><trkpt lat="25.76474023296545" lon="-80.48606043020557"><ele>10.399999999999999</ele><time>2026-04-19T13:08:36.999Z</time></trkpt><trkpt lat="25.764656750826916" lon="-80.48608593835571"><ele>9.600000000000001</ele><time>2026-04-19T13:08:38.999Z</time></trkpt><trkpt lat="25.764561404613723" lon="-80.48597894515103"><ele>8.8</ele><time>2026-04-19T13:08:40.999Z</time></trkpt><trkpt lat="25.764483891483586" lon="-80.48591840609471"><ele>8.0</ele><time>2026-04-19T13:08:43.999Z</time></trkpt><trkpt lat="25.76453609592765" lon="-80.48586498325649"><ele>8.0</ele><time>2026-04-19T13:08:46.999Z</time></trkpt><trkpt lat="25.764584060069588" lon="-80.48580129523646"><ele>8.0</ele><time>2026-04-19T13:08:50.999Z</time></trkpt></trkseg></trk></gpx>